﻿<?xml version="1.0" encoding="UTF-8"?>
<gpx xmlns="http://www.topografix.com/GPX/1/1" creator="HOLUX ezTour Plus" version="1.1">
<metadata>
<link href="http://www.holux.com"><text>HOLUX Technology, Inc.</text></link>
<time>2013-11-27T20:35:27Z</time></metadata>
<trk>
<name><![CDATA[Holux2013/11/23_07:37]]></name>
<trkseg>
<trkpt lat="30.618640900" lon="34.801864624">
<ele>835.421875</ele>
<time>2013-11-23T05:37:04Z</time>
<speed>0.060000</speed>
<extensions>
<speed>0.1</speed>
<temp>0.00</temp>
<bpm>0</bpm>
<rpm>0.00</rpm>
</extensions>
</trkpt>
<trkpt lat="30.618671417" lon="34.801818848">
<ele>837.343750</ele>
<time>2013-11-23T05:37:09Z</time>
<speed>0.010000</speed>
<extensions>
<speed>0.0</speed>
<temp>0.00</temp>
<bpm>0</bpm>
<rpm>0.00</rpm>
</extensions>
</trkpt>
<trkpt lat="30.618665695" lon="34.801811218">
<ele>837.031250</ele>
<time>2013-11-23T05:37:14Z</time>
<speed>0.030000</speed>
<extensions>
<speed>0.0</speed>
<temp>0.00</temp>
<bpm>0</bpm>
<rpm>0.00</rpm>
</extensions>
</trkpt>
<trkpt lat="30.618673325" lon="34.801807404">
<ele>836.328125</ele>
<time>2013-11-23T05:37:19Z</time>
<speed>0.030000</speed>
<extensions>
<speed>0.0</speed>
<temp>0.00</temp>
<bpm>0</bpm>
<rpm>0.00</rpm>
</extensions>
</trkpt>
<trkpt lat="30.618684769" lon="34.801803589">
<ele>835.984375</ele>
<time>2013-11-23T05:37:24Z</time>
<speed>0.010000</speed>
<extensions>
<speed>0.0</speed>
<temp>0.00</temp>
<bpm>0</bpm>
<rpm>0.00</rpm>
</extensions>
</trkpt>
<trkpt lat="30.618688583" lon="34.801788330">
<ele>835.718750</ele>
<time>2013-11-23T05:37:29Z</time>
<speed>0.080000</speed>
<extensions>
<speed>0.1</speed>
<temp>0.00</temp>
<bpm>0</bpm>
<rpm>0.00</rpm>
</extensions>
</trkpt>
<trkpt lat="30.618696213" lon="34.801776886">
<ele>835.578125</ele>
<time>2013-11-23T05:37:34Z</time>
<speed>0.040000</speed>
<extensions>
<speed>0.0</speed>
<temp>0.00</temp>
<bpm>0</bpm>
<rpm>0.00</rpm>
</extensions>
</trkpt>
<trkpt lat="30.618701935" lon="34.801776886">
<ele>835.312500</ele>
<time>2013-11-23T05:37:39Z</time>
<speed>0.080000</speed>
<extensions>
<speed>0.1</speed>
<temp>0.00</temp>
<bpm>0</bpm>
<rpm>0.00</rpm>
</extensions>
</trkpt>
<trkpt lat="30.618701935" lon="34.801780701">
<ele>835.296875</ele>
<time>2013-11-23T05:37:44Z</time>
<speed>0.090000</speed>
<extensions>
<speed>0.1</speed>
<temp>0.00</temp>
<bpm>0</bpm>
<rpm>0.00</rpm>
</extensions>
</trkpt>
<trkpt lat="30.618701935" lon="34.801780701">
<ele>835.296875</ele>
<time>2013-11-23T05:37:49Z</time>
<speed>0.040000</speed>
<extensions>
<speed>0.0</speed>
<temp>0.00</temp>
<bpm>0</bpm>
<rpm>0.00</rpm>
</extensions>
</trkpt>
<trkpt lat="30.618701935" lon="34.801784515">
<ele>835.312500</ele>
<time>2013-11-23T05:37:54Z</time>
<speed>0.020000</speed>
<extensions>
<speed>0.0</speed>
<temp>0.00</temp>
<bpm>0</bpm>
<rpm>0.00</rpm>
</extensions>
</trkpt>
<trkpt lat="30.618701935" lon="34.801784515">
<ele>835.343750</ele>
<time>2013-11-23T05:37:59Z</time>
<extensions>
<speed>0.0</speed>
<temp>0.00</temp>
<bpm>0</bpm>
<rpm>0.00</rpm>
</extensions>
</trkpt>
<trkpt lat="30.618701935" lon="34.801784515">
<ele>835.375000</ele>
<time>2013-11-23T05:38:04Z</time>
<speed>0.020000</speed>
<extensions>
<speed>0.0</speed>
<temp>0.00</temp>
<bpm>0</bpm>
<rpm>0.00</rpm>
</extensions>
</trkpt>
<trkpt lat="30.618701935" lon="34.801784515">
<ele>835.406250</ele>
<time>2013-11-23T05:38:09Z</time>
<extensions>
<speed>0.0</speed>
<temp>0.00</temp>
<bpm>0</bpm>
<rpm>0.00</rpm>
</extensions>
</trkpt>
<trkpt lat="30.618701935" lon="34.801780701">
<ele>835.453125</ele>
<time>2013-11-23T05:38:14Z</time>
<speed>0.030000</speed>
<extensions>
<speed>0.0</speed>
<temp>0.00</temp>
<bpm>0</bpm>
<rpm>0.00</rpm>
</extensions>
</trkpt>
<trkpt lat="30.618701935" lon="34.801780701">
<ele>835.484375</ele>
<time>2013-11-23T05:38:19Z</time>
<extensions>
<speed>0.0</speed>
<temp>0.00</temp>
<bpm>0</bpm>
<rpm>0.00</rpm>
</extensions>
</trkpt>
<trkpt lat="30.618701935" lon="34.801780701">
<ele>835.500000</ele>
<time>2013-11-23T05:38:24Z</time>
<extensions>
<speed>0.0</speed>
<temp>0.00</temp>
<bpm>0</bpm>
<rpm>0.00</rpm>
</extensions>
</trkpt>
<trkpt lat="30.618701935" lon="34.801780701">
<ele>835.546875</ele>
<time>2013-11-23T05:38:29Z</time>
<extensions>
<speed>0.0</speed>
<temp>0.00</temp>
<bpm>0</bpm>
<rpm>0.00</rpm>
</extensions>
</trkpt>
<trkpt lat="30.618701935" lon="34.801780701">
<ele>835.625000</ele>
<time>2013-11-23T05:38:34Z</time>
<speed>0.050000</speed>
<extensions>
<speed>0.1</speed>
<temp>0.00</temp>
<bpm>0</bpm>
<rpm>0.00</rpm>
</extensions>
</trkpt>
<trkpt lat="30.618701935" lon="34.801776886">
<ele>835.718750</ele>
<time>2013-11-23T05:38:39Z</time>
<speed>0.030000</speed>
<extensions>
<speed>0.0</speed>
<temp>0.00</temp>
<bpm>0</bpm>
<rpm>0.00</rpm>
</extensions>
</trkpt>
<trkpt lat="30.618701935" lon="34.801776886">
<ele>835.796875</ele>
<time>2013-11-23T05:38:44Z</time>
<extensions>
<speed>0.0</speed>
<temp>0.00</temp>
<bpm>0</bpm>
<rpm>0.00</rpm>
</extensions>
</trkpt>
<trkpt lat="30.618701935" lon="34.801776886">
<ele>835.843750</ele>
<time>2013-11-23T05:38:49Z</time>
<extensions>
<speed>0.0</speed>
<temp>0.00</temp>
<bpm>0</bpm>
<rpm>0.00</rpm>
</extensions>
</trkpt>
<trkpt lat="30.618701935" lon="34.801776886">
<ele>835.890625</ele>
<time>2013-11-23T05:38:54Z</time>
<extensions>
<speed>0.0</speed>
<temp>0.00</temp>
<bpm>0</bpm>
<rpm>0.00</rpm>
</extensions>
</trkpt>
<trkpt lat="30.618701935" lon="34.801776886">
<ele>835.906250</ele>
<time>2013-11-23T05:38:59Z</time>
<extensions>
<speed>0.0</speed>
<temp>0.00</temp>
<bpm>0</bpm>
<rpm>0.00</rpm>
</extensions>
</trkpt>
<trkpt lat="30.618701935" lon="34.801773071">
<ele>835.921875</ele>
<time>2013-11-23T05:39:04Z</time>
<extensions>
<speed>0.0</speed>
<temp>0.00</temp>
<bpm>0</bpm>
<rpm>0.00</rpm>
</extensions>
</trkpt>
<trkpt lat="30.618701935" lon="34.801773071">
<ele>835.937500</ele>
<time>2013-11-23T05:39:09Z</time>
<extensions>
<speed>0.0</speed>
<temp>0.00</temp>
<bpm>0</bpm>
<rpm>0.00</rpm>
</extensions>
</trkpt>
<trkpt lat="30.618701935" lon="34.801773071">
<ele>835.937500</ele>
<time>2013-11-23T05:39:14Z</time>
<speed>0.010000</speed>
<extensions>
<speed>0.0</speed>
<temp>0.00</temp>
<bpm>0</bpm>
<rpm>0.00</rpm>
</extensions>
</trkpt>
<trkpt lat="30.618701935" lon="34.801773071">
<ele>835.937500</ele>
<time>2013-11-23T05:39:19Z</time>
<speed>0.010000</speed>
<extensions>
<speed>0.0</speed>
<temp>0.00</temp>
<bpm>0</bpm>
<rpm>0.00</rpm>
</extensions>
</trkpt>
<trkpt lat="30.618701935" lon="34.801773071">
<ele>835.937500</ele>
<time>2013-11-23T05:39:24Z</time>
<extensions>
<speed>0.0</speed>
<temp>0.00</temp>
<bpm>0</bpm>
<rpm>0.00</rpm>
</extensions>
</trkpt>
<trkpt lat="30.618701935" lon="34.801773071">
<ele>835.953125</ele>
<time>2013-11-23T05:39:29Z</time>
<speed>0.010000</speed>
<extensions>
<speed>0.0</speed>
<temp>0.00</temp>
<bpm>0</bpm>
<rpm>0.00</rpm>
</extensions>
</trkpt>
<trkpt lat="30.618701935" lon="34.801773071">
<ele>835.953125</ele>
<time>2013-11-23T05:39:34Z</time>
<extensions>
<speed>0.0</speed>
<temp>0.00</temp>
<bpm>0</bpm>
<rpm>0.00</rpm>
</extensions>
</trkpt>
<trkpt lat="30.618701935" lon="34.801773071">
<ele>835.968750</ele>
<time>2013-11-23T05:39:39Z</time>
<extensions>
<speed>0.0</speed>
<temp>0.00</temp>
<bpm>0</bpm>
<rpm>0.00</rpm>
</extensions>
</trkpt>
<trkpt lat="30.618701935" lon="34.801773071">
<ele>836.000000</ele>
<time>2013-11-23T05:39:44Z</time>
<extensions>
<speed>0.0</speed>
<temp>0.00</temp>
<bpm>0</bpm>
<rpm>0.00</rpm>
</extensions>
</trkpt>
<trkpt lat="30.618701935" lon="34.801773071">
<ele>836.000000</ele>
<time>2013-11-23T05:39:49Z</time>
<speed>0.010000</speed>
<extensions>
<speed>0.0</speed>
<temp>0.00</temp>
<bpm>0</bpm>
<rpm>0.00</rpm>
</extensions>
</trkpt>
<trkpt lat="30.618701935" lon="34.801773071">
<ele>836.015625</ele>
<time>2013-11-23T05:39:54Z</time>
<speed>0.010000</speed>
<extensions>
<speed>0.0</speed>
<temp>0.00</temp>
<bpm>0</bpm>
<rpm>0.00</rpm>
</extensions>
</trkpt>
<trkpt lat="30.618701935" lon="34.801773071">
<ele>836.046875</ele>
<time>2013-11-23T05:39:59Z</time>
<speed>0.010000</speed>
<extensions>
<speed>0.0</speed>
<temp>0.00</temp>
<bpm>0</bpm>
<rpm>0.00</rpm>
</extensions>
</trkpt>
<trkpt lat="30.618701935" lon="34.801773071">
<ele>836.062500</ele>
<time>2013-11-23T05:40:04Z</time>
<extensions>
<speed>0.0</speed>
<temp>0.00</temp>
<bpm>0</bpm>
<rpm>0.00</rpm>
</extensions>
</trkpt>
<trkpt lat="30.618701935" lon="34.801773071">
<ele>836.093750</ele>
<time>2013-11-23T05:40:09Z</time>
<extensions>
<speed>0.0</speed>
<temp>0.00</temp>
<bpm>0</bpm>
<rpm>0.00</rpm>
</extensions>
</trkpt>
<trkpt lat="30.618701935" lon="34.801773071">
<ele>836.125000</ele>
<time>2013-11-23T05:40:14Z</time>
<speed>0.010000</speed>
<extensions>
<speed>0.0</speed>
<temp>0.00</temp>
<bpm>0</bpm>
<rpm>0.00</rpm>
</extensions>
</trkpt>
<trkpt lat="30.618700027" lon="34.801773071">
<ele>836.187500</ele>
<time>2013-11-23T05:40:19Z</time>
<speed>0.010000</speed>
<extensions>
<speed>0.0</speed>
<temp>0.00</temp>
<bpm>0</bpm>
<rpm>0.00</rpm>
</extensions>
</trkpt>
<trkpt lat="30.618700027" lon="34.801773071">
<ele>836.234375</ele>
<time>2013-11-23T05:40:24Z</time>
<speed>0.010000</speed>
<extensions>
<speed>0.0</speed>
<temp>0.00</temp>
<bpm>0</bpm>
<rpm>0.00</rpm>
</extensions>
</trkpt>
<trkpt lat="30.618700027" lon="34.801773071">
<ele>836.296875</ele>
<time>2013-11-23T05:40:29Z</time>
<speed>0.010000</speed>
<extensions>
<speed>0.0</speed>
<temp>0.00</temp>
<bpm>0</bpm>
<rpm>0.00</rpm>
</extensions>
</trkpt>
<trkpt lat="30.618700027" lon="34.801773071">
<ele>836.343750</ele>
<time>2013-11-23T05:40:34Z</time>
<extensions>
<speed>0.0</speed>
<temp>0.00</temp>
<bpm>0</bpm>
<rpm>0.00</rpm>
</extensions>
</trkpt>
<trkpt lat="30.618700027" lon="34.801773071">
<ele>836.375000</ele>
<time>2013-11-23T05:40:39Z</time>
<speed>0.010000</speed>
<extensions>
<speed>0.0</speed>
<temp>0.00</temp>
<bpm>0</bpm>
<rpm>0.00</rpm>
</extensions>
</trkpt>
<trkpt lat="30.618700027" lon="34.801773071">
<ele>836.406250</ele>
<time>2013-11-23T05:40:44Z</time>
<extensions>
<speed>0.0</speed>
<temp>0.00</temp>
<bpm>0</bpm>
<rpm>0.00</rpm>
</extensions>
</trkpt>
<trkpt lat="30.618700027" lon="34.801773071">
<ele>836.437500</ele>
<time>2013-11-23T05:40:49Z</time>
<speed>0.010000</speed>
<extensions>
<speed>0.0</speed>
<temp>0.00</temp>
<bpm>0</bpm>
<rpm>0.00</rpm>
</extensions>
</trkpt>
<trkpt lat="30.618700027" lon="34.801773071">
<ele>836.468750</ele>
<time>2013-11-23T05:40:54Z</time>
<speed>0.010000</speed>
<extensions>
<speed>0.0</speed>
<temp>0.00</temp>
<bpm>0</bpm>
<rpm>0.00</rpm>
</extensions>
</trkpt>
<trkpt lat="30.618700027" lon="34.801773071">
<ele>836.500000</ele>
<time>2013-11-23T05:40:59Z</time>
<speed>0.030000</speed>
<extensions>
<speed>0.0</speed>
<temp>0.00</temp>
<bpm>0</bpm>
<rpm>0.00</rpm>
</extensions>
</trkpt>
<trkpt lat="30.618700027" lon="34.801773071">
<ele>836.531250</ele>
<time>2013-11-23T05:41:04Z</time>
<speed>0.020000</speed>
<extensions>
<speed>0.0</speed>
<temp>0.00</temp>
<bpm>0</bpm>
<rpm>0.00</rpm>
</extensions>
</trkpt>
<trkpt lat="30.618700027" lon="34.801773071">
<ele>836.562500</ele>
<time>2013-11-23T05:41:09Z</time>
<speed>0.030000</speed>
<extensions>
<speed>0.0</speed>
<temp>0.00</temp>
<bpm>0</bpm>
<rpm>0.00</rpm>
</extensions>
</trkpt>
<trkpt lat="30.618700027" lon="34.801773071">
<ele>836.593750</ele>
<time>2013-11-23T05:41:14Z</time>
<speed>0.020000</speed>
<extensions>
<speed>0.0</speed>
<temp>0.00</temp>
<bpm>0</bpm>
<rpm>0.00</rpm>
</extensions>
</trkpt>
<trkpt lat="30.618700027" lon="34.801769257">
<ele>836.640625</ele>
<time>2013-11-23T05:41:19Z</time>
<speed>0.040000</speed>
<extensions>
<speed>0.0</speed>
<temp>0.00</temp>
<bpm>0</bpm>
<rpm>0.00</rpm>
</extensions>
</trkpt>
<trkpt lat="30.618700027" lon="34.801769257">
<ele>836.671875</ele>
<time>2013-11-23T05:41:24Z</time>
<speed>0.030000</speed>
<extensions>
<speed>0.0</speed>
<temp>0.00</temp>
<bpm>0</bpm>
<rpm>0.00</rpm>
</extensions>
</trkpt>
<trkpt lat="30.618700027" lon="34.801769257">
<ele>836.703125</ele>
<time>2013-11-23T05:41:29Z</time>
<speed>0.040000</speed>
<extensions>
<speed>0.0</speed>
<temp>0.00</temp>
<bpm>0</bpm>
<rpm>0.00</rpm>
</extensions>
</trkpt>
<trkpt lat="30.618700027" lon="34.801769257">
<ele>836.750000</ele>
<time>2013-11-23T05:41:34Z</time>
<speed>0.040000</speed>
<extensions>
<speed>0.0</speed>
<temp>0.00</temp>
<bpm>0</bpm>
<rpm>0.00</rpm>
</extensions>
</trkpt>
<trkpt lat="30.618700027" lon="34.801765442">
<ele>836.765625</ele>
<time>2013-11-23T05:41:39Z</time>
<speed>0.050000</speed>
<extensions>
<speed>0.1</speed>
<temp>0.00</temp>
<bpm>0</bpm>
<rpm>0.00</rpm>
</extensions>
</trkpt>
<trkpt lat="30.618700027" lon="34.801765442">
<ele>836.796875</ele>
<time>2013-11-23T05:41:44Z</time>
<speed>0.060000</speed>
<extensions>
<speed>0.1</speed>
<temp>0.00</temp>
<bpm>0</bpm>
<rpm>0.00</rpm>
</extensions>
</trkpt>
<trkpt lat="30.618700027" lon="34.801765442">
<ele>836.828125</ele>
<time>2013-11-23T05:41:49Z</time>
<speed>0.040000</speed>
<extensions>
<speed>0.0</speed>
<temp>0.00</temp>
<bpm>0</bpm>
<rpm>0.00</rpm>
</extensions>
</trkpt>
<trkpt lat="30.618700027" lon="34.801761627">
<ele>836.843750</ele>
<time>2013-11-23T05:41:54Z</time>
<speed>0.020000</speed>
<extensions>
<speed>0.0</speed>
<temp>0.00</temp>
<bpm>0</bpm>
<rpm>0.00</rpm>
</extensions>
</trkpt>
<trkpt lat="30.618698120" lon="34.801761627">
<ele>836.875000</ele>
<time>2013-11-23T05:41:59Z</time>
<extensions>
<speed>0.0</speed>
<temp>0.00</temp>
<bpm>0</bpm>
<rpm>0.00</rpm>
</extensions>
</trkpt>
<trkpt lat="30.618698120" lon="34.801761627">
<ele>836.906250</ele>
<time>2013-11-23T05:42:04Z</time>
<extensions>
<speed>0.0</speed>
<temp>0.00</temp>
<bpm>0</bpm>
<rpm>0.00</rpm>
</extensions>
</trkpt>
<trkpt lat="30.618698120" lon="34.801761627">
<ele>836.937500</ele>
<time>2013-11-23T05:42:09Z</time>
<extensions>
<speed>0.0</speed>
<temp>0.00</temp>
<bpm>0</bpm>
<rpm>0.00</rpm>
</extensions>
</trkpt>
<trkpt lat="30.618698120" lon="34.801761627">
<ele>836.984375</ele>
<time>2013-11-23T05:42:14Z</time>
<speed>0.010000</speed>
<extensions>
<speed>0.0</speed>
<temp>0.00</temp>
<bpm>0</bpm>
<rpm>0.00</rpm>
</extensions>
</trkpt>
<trkpt lat="30.618698120" lon="34.801761627">
<ele>837.000000</ele>
<time>2013-11-23T05:42:19Z</time>
<extensions>
<speed>0.0</speed>
<temp>0.00</temp>
<bpm>0</bpm>
<rpm>0.00</rpm>
</extensions>
</trkpt>
<trkpt lat="30.618698120" lon="34.801757813">
<ele>837.015625</ele>
<time>2013-11-23T05:42:24Z</time>
<speed>0.010000</speed>
<extensions>
<speed>0.0</speed>
<temp>0.00</temp>
<bpm>0</bpm>
<rpm>0.00</rpm>
</extensions>
</trkpt>
<trkpt lat="30.618698120" lon="34.801757813">
<ele>837.031250</ele>
<time>2013-11-23T05:42:29Z</time>
<extensions>
<speed>0.0</speed>
<temp>0.00</temp>
<bpm>0</bpm>
<rpm>0.00</rpm>
</extensions>
</trkpt>
<trkpt lat="30.618698120" lon="34.801757813">
<ele>837.046875</ele>
<time>2013-11-23T05:42:34Z</time>
<speed>0.010000</speed>
<extensions>
<speed>0.0</speed>
<temp>0.00</temp>
<bpm>0</bpm>
<rpm>0.00</rpm>
</extensions>
</trkpt>
<trkpt lat="30.618698120" lon="34.801757813">
<ele>837.062500</ele>
<time>2013-11-23T05:42:39Z</time>
<speed>0.010000</speed>
<extensions>
<speed>0.0</speed>
<temp>0.00</temp>
<bpm>0</bpm>
<rpm>0.00</rpm>
</extensions>
</trkpt>
<trkpt lat="30.618698120" lon="34.801757813">
<ele>837.078125</ele>
<time>2013-11-23T05:42:44Z</time>
<extensions>
<speed>0.0</speed>
<temp>0.00</temp>
<bpm>0</bpm>
<rpm>0.00</rpm>
</extensions>
</trkpt>
<trkpt lat="30.618698120" lon="34.801757813">
<ele>837.093750</ele>
<time>2013-11-23T05:42:49Z</time>
<speed>0.010000</speed>
<extensions>
<speed>0.0</speed>
<temp>0.00</temp>
<bpm>0</bpm>
<rpm>0.00</rpm>
</extensions>
</trkpt>
<trkpt lat="30.618698120" lon="34.801757813">
<ele>837.109375</ele>
<time>2013-11-23T05:42:54Z</time>
<extensions>
<speed>0.0</speed>
<temp>0.00</temp>
<bpm>0</bpm>
<rpm>0.00</rpm>
</extensions>
</trkpt>
<trkpt lat="30.618698120" lon="34.801757813">
<ele>837.125000</ele>
<time>2013-11-23T05:42:59Z</time>
<extensions>
<speed>0.0</speed>
<temp>0.00</temp>
<bpm>0</bpm>
<rpm>0.00</rpm>
</extensions>
</trkpt>
<trkpt lat="30.618698120" lon="34.801757813">
<ele>837.125000</ele>
<time>2013-11-23T05:43:04Z</time>
<extensions>
<speed>0.0</speed>
<temp>0.00</temp>
<bpm>0</bpm>
<rpm>0.00</rpm>
</extensions>
</trkpt>
<trkpt lat="30.618698120" lon="34.801757813">
<ele>837.140625</ele>
<time>2013-11-23T05:43:09Z</time>
<speed>0.020000</speed>
<extensions>
<speed>0.0</speed>
<temp>0.00</temp>
<bpm>0</bpm>
<rpm>0.00</rpm>
</extensions>
</trkpt>
<trkpt lat="30.618698120" lon="34.801757813">
<ele>837.140625</ele>
<time>2013-11-23T05:43:14Z</time>
<speed>0.020000</speed>
<extensions>
<speed>0.0</speed>
<temp>0.00</temp>
<bpm>0</bpm>
<rpm>0.00</rpm>
</extensions>
</trkpt>
<trkpt lat="30.618696213" lon="34.801757813">
<ele>837.156250</ele>
<time>2013-11-23T05:43:19Z</time>
<speed>0.070000</speed>
<extensions>
<speed>0.1</speed>
<temp>0.00</temp>
<bpm>0</bpm>
<rpm>0.00</rpm>
</extensions>
</trkpt>
<trkpt lat="30.618696213" lon="34.801757813">
<ele>837.156250</ele>
<time>2013-11-23T05:43:24Z</time>
<speed>0.030000</speed>
<extensions>
<speed>0.0</speed>
<temp>0.00</temp>
<bpm>0</bpm>
<rpm>0.00</rpm>
</extensions>
</trkpt>
<trkpt lat="30.618696213" lon="34.801753998">
<ele>837.156250</ele>
<time>2013-11-23T05:43:29Z</time>
<speed>0.070000</speed>
<extensions>
<speed>0.1</speed>
<temp>0.00</temp>
<bpm>0</bpm>
<rpm>0.00</rpm>
</extensions>
</trkpt>
<trkpt lat="30.618696213" lon="34.801753998">
<ele>837.156250</ele>
<time>2013-11-23T05:43:34Z</time>
<speed>0.020000</speed>
<extensions>
<speed>0.0</speed>
<temp>0.00</temp>
<bpm>0</bpm>
<rpm>0.00</rpm>
</extensions>
</trkpt>
<trkpt lat="30.618694305" lon="34.801753998">
<ele>837.156250</ele>
<time>2013-11-23T05:43:39Z</time>
<speed>0.090000</speed>
<extensions>
<speed>0.1</speed>
<temp>0.00</temp>
<bpm>0</bpm>
<rpm>0.00</rpm>
</extensions>
</trkpt>
<trkpt lat="30.618692398" lon="34.801753998">
<ele>837.140625</ele>
<time>2013-11-23T05:43:44Z</time>
<speed>0.180000</speed>
<extensions>
<speed>0.2</speed>
<temp>0.00</temp>
<bpm>0</bpm>
<rpm>0.00</rpm>
</extensions>
</trkpt>
<trkpt lat="30.618682861" lon="34.801753998">
<ele>837.234375</ele>
<time>2013-11-23T05:43:49Z</time>
<speed>0.330000</speed>
<extensions>
<speed>0.3</speed>
<temp>0.00</temp>
<bpm>0</bpm>
<rpm>0.00</rpm>
</extensions>
</trkpt>
<trkpt lat="30.618659973" lon="34.801734924">
<ele>837.250000</ele>
<time>2013-11-23T05:43:54Z</time>
<speed>0.280000</speed>
<extensions>
<speed>0.3</speed>
<temp>0.00</temp>
<bpm>0</bpm>
<rpm>0.00</rpm>
</extensions>
</trkpt>
<trkpt lat="30.618619919" lon="34.801658630">
<ele>837.609375</ele>
<time>2013-11-23T05:43:59Z</time>
<speed>0.500000</speed>
<extensions>
<speed>0.5</speed>
<temp>0.00</temp>
<bpm>0</bpm>
<rpm>0.00</rpm>
</extensions>
</trkpt>
<trkpt lat="30.618614197" lon="34.801582336">
<ele>837.625000</ele>
<time>2013-11-23T05:44:04Z</time>
<speed>0.710000</speed>
<extensions>
<speed>0.7</speed>
<temp>0.00</temp>
<bpm>0</bpm>
<rpm>0.00</rpm>
</extensions>
</trkpt>
<trkpt lat="30.618593216" lon="34.801586151">
<ele>837.000000</ele>
<time>2013-11-23T05:44:09Z</time>
<speed>0.130000</speed>
<extensions>
<speed>0.1</speed>
<temp>0.00</temp>
<bpm>0</bpm>
<rpm>0.00</rpm>
</extensions>
</trkpt>
<trkpt lat="30.618591309" lon="34.801582336">
<ele>836.140625</ele>
<time>2013-11-23T05:44:14Z</time>
<extensions>
<speed>0.0</speed>
<temp>0.00</temp>
<bpm>0</bpm>
<rpm>0.00</rpm>
</extensions>
</trkpt>
<trkpt lat="30.618589401" lon="34.801582336">
<ele>835.421875</ele>
<time>2013-11-23T05:44:19Z</time>
<speed>0.050000</speed>
<extensions>
<speed>0.1</speed>
<temp>0.00</temp>
<bpm>0</bpm>
<rpm>0.00</rpm>
</extensions>
</trkpt>
<trkpt lat="30.618585587" lon="34.801586151">
<ele>834.734375</ele>
<time>2013-11-23T05:44:24Z</time>
<speed>0.120000</speed>
<extensions>
<speed>0.1</speed>
<temp>0.00</temp>
<bpm>0</bpm>
<rpm>0.00</rpm>
</extensions>
</trkpt>
<trkpt lat="30.618585587" lon="34.801589966">
<ele>834.000000</ele>
<time>2013-11-23T05:44:29Z</time>
<speed>0.190000</speed>
<extensions>
<speed>0.2</speed>
<temp>0.00</temp>
<bpm>0</bpm>
<rpm>0.00</rpm>
</extensions>
</trkpt>
<trkpt lat="30.618593216" lon="34.801593781">
<ele>833.312500</ele>
<time>2013-11-23T05:44:34Z</time>
<speed>0.150000</speed>
<extensions>
<speed>0.2</speed>
<temp>0.00</temp>
<bpm>0</bpm>
<rpm>0.00</rpm>
</extensions>
</trkpt>
<trkpt lat="30.618597031" lon="34.801593781">
<ele>832.656250</ele>
<time>2013-11-23T05:44:39Z</time>
<speed>0.160000</speed>
<extensions>
<speed>0.2</speed>
<temp>0.00</temp>
<bpm>0</bpm>
<rpm>0.00</rpm>
</extensions>
</trkpt>
<trkpt lat="30.618604660" lon="34.801593781">
<ele>832.000000</ele>
<time>2013-11-23T05:44:44Z</time>
<speed>0.170000</speed>
<extensions>
<speed>0.2</speed>
<temp>0.00</temp>
<bpm>0</bpm>
<rpm>0.00</rpm>
</extensions>
</trkpt>
<trkpt lat="30.618612289" lon="34.801589966">
<ele>831.343750</ele>
<time>2013-11-23T05:44:49Z</time>
<speed>0.180000</speed>
<extensions>
<speed>0.2</speed>
<temp>0.00</temp>
<bpm>0</bpm>
<rpm>0.00</rpm>
</extensions>
</trkpt>
<trkpt lat="30.618619919" lon="34.801586151">
<ele>830.734375</ele>
<time>2013-11-23T05:44:54Z</time>
<speed>0.220000</speed>
<extensions>
<speed>0.2</speed>
<temp>0.00</temp>
<bpm>0</bpm>
<rpm>0.00</rpm>
</extensions>
</trkpt>
<trkpt lat="30.618627548" lon="34.801582336">
<ele>830.156250</ele>
<time>2013-11-23T05:44:59Z</time>
<speed>0.190000</speed>
<extensions>
<speed>0.2</speed>
<temp>0.00</temp>
<bpm>0</bpm>
<rpm>0.00</rpm>
</extensions>
</trkpt>
<trkpt lat="30.618633270" lon="34.801582336">
<ele>829.625000</ele>
<time>2013-11-23T05:45:04Z</time>
<speed>0.090000</speed>
<extensions>
<speed>0.1</speed>
<temp>0.00</temp>
<bpm>0</bpm>
<rpm>0.00</rpm>
</extensions>
</trkpt>
<trkpt lat="30.618637085" lon="34.801582336">
<ele>829.125000</ele>
<time>2013-11-23T05:45:09Z</time>
<speed>0.080000</speed>
<extensions>
<speed>0.1</speed>
<temp>0.00</temp>
<bpm>0</bpm>
<rpm>0.00</rpm>
</extensions>
</trkpt>
<trkpt lat="30.618640900" lon="34.801586151">
<ele>828.687500</ele>
<time>2013-11-23T05:45:14Z</time>
<speed>0.080000</speed>
<extensions>
<speed>0.1</speed>
<temp>0.00</temp>
<bpm>0</bpm>
<rpm>0.00</rpm>
</extensions>
</trkpt>
<trkpt lat="30.618642807" lon="34.801586151">
<ele>828.343750</ele>
<time>2013-11-23T05:45:19Z</time>
<speed>0.020000</speed>
<extensions>
<speed>0.0</speed>
<temp>0.00</temp>
<bpm>0</bpm>
<rpm>0.00</rpm>
</extensions>
</trkpt>
<trkpt lat="30.618640900" lon="34.801578522">
<ele>828.234375</ele>
<time>2013-11-23T05:45:24Z</time>
<speed>0.100000</speed>
<extensions>
<speed>0.1</speed>
<temp>0.00</temp>
<bpm>0</bpm>
<rpm>0.00</rpm>
</extensions>
</trkpt>
<trkpt lat="30.618625641" lon="34.801551819">
<ele>828.984375</ele>
<time>2013-11-23T05:45:29Z</time>
<speed>0.230000</speed>
<extensions>
<speed>0.2</speed>
<temp>0.00</temp>
<bpm>0</bpm>
<rpm>0.00</rpm>
</extensions>
</trkpt>
<trkpt lat="30.618616104" lon="34.801528931">
<ele>829.687500</ele>
<time>2013-11-23T05:45:34Z</time>
<speed>0.230000</speed>
<extensions>
<speed>0.2</speed>
<temp>0.00</temp>
<bpm>0</bpm>
<rpm>0.00</rpm>
</extensions>
</trkpt>
<trkpt lat="30.618593216" lon="34.801525116">
<ele>831.640625</ele>
<time>2013-11-23T05:45:39Z</time>
<speed>0.010000</speed>
<extensions>
<speed>0.0</speed>
<temp>0.00</temp>
<bpm>0</bpm>
<rpm>0.00</rpm>
</extensions>
</trkpt>
<trkpt lat="30.618574142" lon="34.801509857">
<ele>833.546875</ele>
<time>2013-11-23T05:45:44Z</time>
<speed>0.100000</speed>
<extensions>
<speed>0.1</speed>
<temp>0.00</temp>
<bpm>0</bpm>
<rpm>0.00</rpm>
</extensions>
</trkpt>
<trkpt lat="30.618562698" lon="34.801502228">
<ele>834.546875</ele>
<time>2013-11-23T05:45:49Z</time>
<speed>0.120000</speed>
<extensions>
<speed>0.1</speed>
<temp>0.00</temp>
<bpm>0</bpm>
<rpm>0.00</rpm>
</extensions>
</trkpt>
<trkpt lat="30.618528366" lon="34.801517487">
<ele>837.765625</ele>
<time>2013-11-23T05:45:54Z</time>
<speed>0.050000</speed>
<extensions>
<speed>0.1</speed>
<temp>0.00</temp>
<bpm>0</bpm>
<rpm>0.00</rpm>
</extensions>
</trkpt>
<trkpt lat="30.618494034" lon="34.801521301">
<ele>840.375000</ele>
<time>2013-11-23T05:45:59Z</time>
<speed>0.120000</speed>
<extensions>
<speed>0.1</speed>
<temp>0.00</temp>
<bpm>0</bpm>
<rpm>0.00</rpm>
</extensions>
</trkpt>
<trkpt lat="30.618499756" lon="34.801521301">
<ele>840.671875</ele>
<time>2013-11-23T05:46:04Z</time>
<speed>0.060000</speed>
<extensions>
<speed>0.1</speed>
<temp>0.00</temp>
<bpm>0</bpm>
<rpm>0.00</rpm>
</extensions>
</trkpt>
<trkpt lat="30.618494034" lon="34.801525116">
<ele>841.484375</ele>
<time>2013-11-23T05:46:09Z</time>
<speed>0.080000</speed>
<extensions>
<speed>0.1</speed>
<temp>0.00</temp>
<bpm>0</bpm>
<rpm>0.00</rpm>
</extensions>
</trkpt>
<trkpt lat="30.618494034" lon="34.801525116">
<ele>841.968750</ele>
<time>2013-11-23T05:46:14Z</time>
<speed>0.030000</speed>
<extensions>
<speed>0.0</speed>
<temp>0.00</temp>
<bpm>0</bpm>
<rpm>0.00</rpm>
</extensions>
</trkpt>
<trkpt lat="30.618492126" lon="34.801525116">
<ele>842.453125</ele>
<time>2013-11-23T05:46:19Z</time>
<speed>0.050000</speed>
<extensions>
<speed>0.1</speed>
<temp>0.00</temp>
<bpm>0</bpm>
<rpm>0.00</rpm>
</extensions>
</trkpt>
<trkpt lat="30.618488312" lon="34.801528931">
<ele>843.093750</ele>
<time>2013-11-23T05:46:24Z</time>
<speed>0.100000</speed>
<extensions>
<speed>0.1</speed>
<temp>0.00</temp>
<bpm>0</bpm>
<rpm>0.00</rpm>
</extensions>
</trkpt>
<trkpt lat="30.618482590" lon="34.801528931">
<ele>843.937500</ele>
<time>2013-11-23T05:46:29Z</time>
<speed>0.110000</speed>
<extensions>
<speed>0.1</speed>
<temp>0.00</temp>
<bpm>0</bpm>
<rpm>0.00</rpm>
</extensions>
</trkpt>
<trkpt lat="30.618476868" lon="34.801528931">
<ele>844.906250</ele>
<time>2013-11-23T05:46:34Z</time>
<speed>0.110000</speed>
<extensions>
<speed>0.1</speed>
<temp>0.00</temp>
<bpm>0</bpm>
<rpm>0.00</rpm>
</extensions>
</trkpt>
<trkpt lat="30.618473053" lon="34.801532745">
<ele>845.734375</ele>
<time>2013-11-23T05:46:39Z</time>
<speed>0.110000</speed>
<extensions>
<speed>0.1</speed>
<temp>0.00</temp>
<bpm>0</bpm>
<rpm>0.00</rpm>
</extensions>
</trkpt>
<trkpt lat="30.618471146" lon="34.801536560">
<ele>846.390625</ele>
<time>2013-11-23T05:46:44Z</time>
<speed>0.070000</speed>
<extensions>
<speed>0.1</speed>
<temp>0.00</temp>
<bpm>0</bpm>
<rpm>0.00</rpm>
</extensions>
</trkpt>
<trkpt lat="30.618471146" lon="34.801536560">
<ele>847.031250</ele>
<time>2013-11-23T05:46:49Z</time>
<speed>0.070000</speed>
<extensions>
<speed>0.1</speed>
<temp>0.00</temp>
<bpm>0</bpm>
<rpm>0.00</rpm>
</extensions>
</trkpt>
<trkpt lat="30.618473053" lon="34.801544189">
<ele>847.734375</ele>
<time>2013-11-23T05:46:54Z</time>
<speed>0.130000</speed>
<extensions>
<speed>0.1</speed>
<temp>0.00</temp>
<bpm>0</bpm>
<rpm>0.00</rpm>
</extensions>
</trkpt>
<trkpt lat="30.618476868" lon="34.801548004">
<ele>848.453125</ele>
<time>2013-11-23T05:46:59Z</time>
<speed>0.060000</speed>
<extensions>
<speed>0.1</speed>
<temp>0.00</temp>
<bpm>0</bpm>
<rpm>0.00</rpm>
</extensions>
</trkpt>
<trkpt lat="30.618480682" lon="34.801548004">
<ele>849.078125</ele>
<time>2013-11-23T05:47:04Z</time>
<speed>0.150000</speed>
<extensions>
<speed>0.2</speed>
<temp>0.00</temp>
<bpm>0</bpm>
<rpm>0.00</rpm>
</extensions>
</trkpt>
<trkpt lat="30.618486404" lon="34.801551819">
<ele>849.484375</ele>
<time>2013-11-23T05:47:09Z</time>
<speed>0.160000</speed>
<extensions>
<speed>0.2</speed>
<temp>0.00</temp>
<bpm>0</bpm>
<rpm>0.00</rpm>
</extensions>
</trkpt>
<trkpt lat="30.618490219" lon="34.801559448">
<ele>849.578125</ele>
<time>2013-11-23T05:47:14Z</time>
<speed>0.140000</speed>
<extensions>
<speed>0.1</speed>
<temp>0.00</temp>
<bpm>0</bpm>
<rpm>0.00</rpm>
</extensions>
</trkpt>
<trkpt lat="30.618503571" lon="34.801570892">
<ele>849.875000</ele>
<time>2013-11-23T05:47:19Z</time>
<speed>0.380000</speed>
<extensions>
<speed>0.4</speed>
<temp>0.00</temp>
<bpm>0</bpm>
<rpm>0.00</rpm>
</extensions>
</trkpt>
<trkpt lat="30.618515015" lon="34.801582336">
<ele>849.937500</ele>
<time>2013-11-23T05:47:24Z</time>
<speed>0.360000</speed>
<extensions>
<speed>0.4</speed>
<temp>0.00</temp>
<bpm>0</bpm>
<rpm>0.00</rpm>
</extensions>
</trkpt>
<trkpt lat="30.618513107" lon="34.801601410">
<ele>849.078125</ele>
<time>2013-11-23T05:47:29Z</time>
<speed>0.110000</speed>
<extensions>
<speed>0.1</speed>
<temp>0.00</temp>
<bpm>0</bpm>
<rpm>0.00</rpm>
</extensions>
</trkpt>
<trkpt lat="30.618503571" lon="34.801605225">
<ele>849.125000</ele>
<time>2013-11-23T05:47:34Z</time>
<speed>0.120000</speed>
<extensions>
<speed>0.1</speed>
<temp>0.00</temp>
<bpm>0</bpm>
<rpm>0.00</rpm>
</extensions>
</trkpt>
<trkpt lat="30.618509293" lon="34.801601410">
<ele>849.000000</ele>
<time>2013-11-23T05:47:39Z</time>
<speed>0.100000</speed>
<extensions>
<speed>0.1</speed>
<temp>0.00</temp>
<bpm>0</bpm>
<rpm>0.00</rpm>
</extensions>
</trkpt>
<trkpt lat="30.618511200" lon="34.801605225">
<ele>848.937500</ele>
<time>2013-11-23T05:47:44Z</time>
<speed>0.040000</speed>
<extensions>
<speed>0.0</speed>
<temp>0.00</temp>
<bpm>0</bpm>
<rpm>0.00</rpm>
</extensions>
</trkpt>
<trkpt lat="30.618515015" lon="34.801605225">
<ele>848.953125</ele>
<time>2013-11-23T05:47:49Z</time>
<speed>0.140000</speed>
<extensions>
<speed>0.1</speed>
<temp>0.00</temp>
<bpm>0</bpm>
<rpm>0.00</rpm>
</extensions>
</trkpt>
<trkpt lat="30.618518829" lon="34.801601410">
<ele>849.046875</ele>
<time>2013-11-23T05:47:54Z</time>
<speed>0.170000</speed>
<extensions>
<speed>0.2</speed>
<temp>0.00</temp>
<bpm>0</bpm>
<rpm>0.00</rpm>
</extensions>
</trkpt>
<trkpt lat="30.618526459" lon="34.801593781">
<ele>849.203125</ele>
<time>2013-11-23T05:47:59Z</time>
<speed>0.260000</speed>
<extensions>
<speed>0.3</speed>
<temp>0.00</temp>
<bpm>0</bpm>
<rpm>0.00</rpm>
</extensions>
</trkpt>
<trkpt lat="30.618534088" lon="34.801586151">
<ele>849.375000</ele>
<time>2013-11-23T05:48:04Z</time>
<speed>0.180000</speed>
<extensions>
<speed>0.2</speed>
<temp>0.00</temp>
<bpm>0</bpm>
<rpm>0.00</rpm>
</extensions>
</trkpt>
<trkpt lat="30.618541718" lon="34.801582336">
<ele>849.531250</ele>
<time>2013-11-23T05:48:09Z</time>
<speed>0.240000</speed>
<extensions>
<speed>0.2</speed>
<temp>0.00</temp>
<bpm>0</bpm>
<rpm>0.00</rpm>
</extensions>
</trkpt>
<trkpt lat="30.618549347" lon="34.801574707">
<ele>849.687500</ele>
<time>2013-11-23T05:48:14Z</time>
<speed>0.200000</speed>
<extensions>
<speed>0.2</speed>
<temp>0.00</temp>
<bpm>0</bpm>
<rpm>0.00</rpm>
</extensions>
</trkpt>
<trkpt lat="30.618555069" lon="34.801570892">
<ele>849.828125</ele>
<time>2013-11-23T05:48:19Z</time>
<speed>0.030000</speed>
<extensions>
<speed>0.0</speed>
<temp>0.00</temp>
<bpm>0</bpm>
<rpm>0.00</rpm>
</extensions>
</trkpt>
<trkpt lat="30.618555069" lon="34.801570892">
<ele>849.984375</ele>
<time>2013-11-23T05:48:24Z</time>
<speed>0.010000</speed>
<extensions>
<speed>0.0</speed>
<temp>0.00</temp>
<bpm>0</bpm>
<rpm>0.00</rpm>
</extensions>
</trkpt>
<trkpt lat="30.618558884" lon="34.801567078">
<ele>850.078125</ele>
<time>2013-11-23T05:48:29Z</time>
<speed>0.060000</speed>
<extensions>
<speed>0.1</speed>
<temp>0.00</temp>
<bpm>0</bpm>
<rpm>0.00</rpm>
</extensions>
</trkpt>
<trkpt lat="30.618558884" lon="34.801567078">
<ele>850.093750</ele>
<time>2013-11-23T05:48:34Z</time>
<speed>0.020000</speed>
<extensions>
<speed>0.0</speed>
<temp>0.00</temp>
<bpm>0</bpm>
<rpm>0.00</rpm>
</extensions>
</trkpt>
<trkpt lat="30.618560791" lon="34.801567078">
<ele>850.062500</ele>
<time>2013-11-23T05:48:39Z</time>
<extensions>
<speed>0.0</speed>
<temp>0.00</temp>
<bpm>0</bpm>
<rpm>0.00</rpm>
</extensions>
</trkpt>
<trkpt lat="30.618560791" lon="34.801567078">
<ele>850.046875</ele>
<time>2013-11-23T05:48:44Z</time>
<speed>0.010000</speed>
<extensions>
<speed>0.0</speed>
<temp>0.00</temp>
<bpm>0</bpm>
<rpm>0.00</rpm>
</extensions>
</trkpt>
<trkpt lat="30.618560791" lon="34.801567078">
<ele>850.031250</ele>
<time>2013-11-23T05:48:49Z</time>
<extensions>
<speed>0.0</speed>
<temp>0.00</temp>
<bpm>0</bpm>
<rpm>0.00</rpm>
</extensions>
</trkpt>
<trkpt lat="30.618560791" lon="34.801567078">
<ele>850.015625</ele>
<time>2013-11-23T05:48:54Z</time>
<extensions>
<speed>0.0</speed>
<temp>0.00</temp>
<bpm>0</bpm>
<rpm>0.00</rpm>
</extensions>
</trkpt>
<trkpt lat="30.618560791" lon="34.801567078">
<ele>850.015625</ele>
<time>2013-11-23T05:48:59Z</time>
<speed>0.010000</speed>
<extensions>
<speed>0.0</speed>
<temp>0.00</temp>
<bpm>0</bpm>
<rpm>0.00</rpm>
</extensions>
</trkpt>
<trkpt lat="30.618560791" lon="34.801567078">
<ele>850.015625</ele>
<time>2013-11-23T05:49:04Z</time>
<extensions>
<speed>0.0</speed>
<temp>0.00</temp>
<bpm>0</bpm>
<rpm>0.00</rpm>
</extensions>
</trkpt>
<trkpt lat="30.618560791" lon="34.801567078">
<ele>850.015625</ele>
<time>2013-11-23T05:49:09Z</time>
<speed>0.040000</speed>
<extensions>
<speed>0.0</speed>
<temp>0.00</temp>
<bpm>0</bpm>
<rpm>0.00</rpm>
</extensions>
</trkpt>
<trkpt lat="30.618560791" lon="34.801567078">
<ele>850.000000</ele>
<time>2013-11-23T05:49:14Z</time>
<speed>0.010000</speed>
<extensions>
<speed>0.0</speed>
<temp>0.00</temp>
<bpm>0</bpm>
<rpm>0.00</rpm>
</extensions>
</trkpt>
<trkpt lat="30.618560791" lon="34.801567078">
<ele>849.984375</ele>
<time>2013-11-23T05:49:19Z</time>
<extensions>
<speed>0.0</speed>
<temp>0.00</temp>
<bpm>0</bpm>
<rpm>0.00</rpm>
</extensions>
</trkpt>
<trkpt lat="30.618560791" lon="34.801567078">
<ele>849.968750</ele>
<time>2013-11-23T05:49:24Z</time>
<extensions>
<speed>0.0</speed>
<temp>0.00</temp>
<bpm>0</bpm>
<rpm>0.00</rpm>
</extensions>
</trkpt>
<trkpt lat="30.618560791" lon="34.801567078">
<ele>849.968750</ele>
<time>2013-11-23T05:49:29Z</time>
<speed>0.020000</speed>
<extensions>
<speed>0.0</speed>
<temp>0.00</temp>
<bpm>0</bpm>
<rpm>0.00</rpm>
</extensions>
</trkpt>
<trkpt lat="30.618560791" lon="34.801567078">
<ele>849.953125</ele>
<time>2013-11-23T05:49:34Z</time>
<speed>0.010000</speed>
<extensions>
<speed>0.0</speed>
<temp>0.00</temp>
<bpm>0</bpm>
<rpm>0.00</rpm>
</extensions>
</trkpt>
<trkpt lat="30.618560791" lon="34.801567078">
<ele>849.953125</ele>
<time>2013-11-23T05:49:39Z</time>
<speed>0.010000</speed>
<extensions>
<speed>0.0</speed>
<temp>0.00</temp>
<bpm>0</bpm>
<rpm>0.00</rpm>
</extensions>
</trkpt>
<trkpt lat="30.618558884" lon="34.801567078">
<ele>849.906250</ele>
<time>2013-11-23T05:49:44Z</time>
<speed>0.340000</speed>
<extensions>
<speed>0.3</speed>
<temp>0.00</temp>
<bpm>0</bpm>
<rpm>0.00</rpm>
</extensions>
</trkpt>
<trkpt lat="30.618560791" lon="34.801582336">
<ele>848.703125</ele>
<time>2013-11-23T05:49:49Z</time>
<speed>0.360000</speed>
<extensions>
<speed>0.4</speed>
<temp>0.00</temp>
<bpm>0</bpm>
<rpm>0.00</rpm>
</extensions>
</trkpt>
<trkpt lat="30.618551254" lon="34.801681519">
<ele>847.093750</ele>
<time>2013-11-23T05:49:54Z</time>
<speed>1.130000</speed>
<extensions>
<speed>1.1</speed>
<temp>0.00</temp>
<bpm>0</bpm>
<rpm>0.00</rpm>
</extensions>
</trkpt>
<trkpt lat="30.618551254" lon="34.801731110">
<ele>846.625000</ele>
<time>2013-11-23T05:49:59Z</time>
<speed>2.320000</speed>
<extensions>
<speed>2.3</speed>
<temp>0.00</temp>
<bpm>0</bpm>
<rpm>0.00</rpm>
</extensions>
</trkpt>
<trkpt lat="30.618535995" lon="34.801666260">
<ele>847.390625</ele>
<time>2013-11-23T05:50:04Z</time>
<speed>2.570000</speed>
<extensions>
<speed>2.6</speed>
<temp>0.00</temp>
<bpm>0</bpm>
<rpm>0.00</rpm>
</extensions>
</trkpt>
<trkpt lat="30.618535995" lon="34.801509857">
<ele>846.968750</ele>
<time>2013-11-23T05:50:09Z</time>
<speed>3.570000</speed>
<extensions>
<speed>3.6</speed>
<temp>0.00</temp>
<bpm>0</bpm>
<rpm>0.00</rpm>
</extensions>
</trkpt>
<trkpt lat="30.618507385" lon="34.801307678">
<ele>846.906250</ele>
<time>2013-11-23T05:50:14Z</time>
<speed>4.560000</speed>
<extensions>
<speed>4.6</speed>
<temp>0.00</temp>
<bpm>0</bpm>
<rpm>0.00</rpm>
</extensions>
</trkpt>
<trkpt lat="30.618503571" lon="34.801052094">
<ele>845.078125</ele>
<time>2013-11-23T05:50:19Z</time>
<speed>5.170000</speed>
<extensions>
<speed>5.2</speed>
<temp>0.00</temp>
<bpm>0</bpm>
<rpm>0.00</rpm>
</extensions>
</trkpt>
<trkpt lat="30.618492126" lon="34.800773621">
<ele>844.203125</ele>
<time>2013-11-23T05:50:24Z</time>
<speed>5.270000</speed>
<extensions>
<speed>5.3</speed>
<temp>0.00</temp>
<bpm>0</bpm>
<rpm>0.00</rpm>
</extensions>
</trkpt>
<trkpt lat="30.618438721" lon="34.800529480">
<ele>843.125000</ele>
<time>2013-11-23T05:50:29Z</time>
<speed>4.800000</speed>
<extensions>
<speed>4.8</speed>
<temp>0.00</temp>
<bpm>0</bpm>
<rpm>0.00</rpm>
</extensions>
</trkpt>
<trkpt lat="30.618303299" lon="34.800407410">
<ele>841.062500</ele>
<time>2013-11-23T05:50:34Z</time>
<speed>4.210000</speed>
<extensions>
<speed>4.2</speed>
<temp>0.00</temp>
<bpm>0</bpm>
<rpm>0.00</rpm>
</extensions>
</trkpt>
<trkpt lat="30.618131638" lon="34.800495148">
<ele>838.750000</ele>
<time>2013-11-23T05:50:39Z</time>
<speed>4.620000</speed>
<extensions>
<speed>4.6</speed>
<temp>0.00</temp>
<bpm>0</bpm>
<rpm>0.00</rpm>
</extensions>
</trkpt>
<trkpt lat="30.617954254" lon="34.800575256">
<ele>837.187500</ele>
<time>2013-11-23T05:50:44Z</time>
<speed>3.770000</speed>
<extensions>
<speed>3.8</speed>
<temp>0.00</temp>
<bpm>0</bpm>
<rpm>0.00</rpm>
</extensions>
</trkpt>
<trkpt lat="30.617818832" lon="34.800617218">
<ele>835.984375</ele>
<time>2013-11-23T05:50:49Z</time>
<speed>3.200000</speed>
<extensions>
<speed>3.2</speed>
<temp>0.00</temp>
<bpm>0</bpm>
<rpm>0.00</rpm>
</extensions>
</trkpt>
<trkpt lat="30.617664337" lon="34.800621033">
<ele>834.046875</ele>
<time>2013-11-23T05:50:54Z</time>
<speed>3.840000</speed>
<extensions>
<speed>3.8</speed>
<temp>0.00</temp>
<bpm>0</bpm>
<rpm>0.00</rpm>
</extensions>
</trkpt>
<trkpt lat="30.617488861" lon="34.800613403">
<ele>832.140625</ele>
<time>2013-11-23T05:50:59Z</time>
<speed>3.830000</speed>
<extensions>
<speed>3.8</speed>
<temp>0.00</temp>
<bpm>0</bpm>
<rpm>0.00</rpm>
</extensions>
</trkpt>
<trkpt lat="30.617300034" lon="34.800586700">
<ele>830.531250</ele>
<time>2013-11-23T05:51:04Z</time>
<speed>3.820000</speed>
<extensions>
<speed>3.8</speed>
<temp>0.00</temp>
<bpm>0</bpm>
<rpm>0.00</rpm>
</extensions>
</trkpt>
<trkpt lat="30.617099762" lon="34.800559998">
<ele>829.703125</ele>
<time>2013-11-23T05:51:09Z</time>
<speed>4.540000</speed>
<extensions>
<speed>4.5</speed>
<temp>0.00</temp>
<bpm>0</bpm>
<rpm>0.00</rpm>
</extensions>
</trkpt>
<trkpt lat="30.616889954" lon="34.800514221">
<ele>829.156250</ele>
<time>2013-11-23T05:51:14Z</time>
<speed>4.040000</speed>
<extensions>
<speed>4.0</speed>
<temp>0.00</temp>
<bpm>0</bpm>
<rpm>0.00</rpm>
</extensions>
</trkpt>
<trkpt lat="30.616731644" lon="34.800460815">
<ele>829.156250</ele>
<time>2013-11-23T05:51:19Z</time>
<speed>2.970000</speed>
<extensions>
<speed>3.0</speed>
<temp>0.00</temp>
<bpm>0</bpm>
<rpm>0.00</rpm>
</extensions>
</trkpt>
<trkpt lat="30.616607666" lon="34.800537109">
<ele>829.906250</ele>
<time>2013-11-23T05:51:24Z</time>
<speed>3.050000</speed>
<extensions>
<speed>3.0</speed>
<temp>0.00</temp>
<bpm>0</bpm>
<rpm>0.00</rpm>
</extensions>
</trkpt>
<trkpt lat="30.616525650" lon="34.800682068">
<ele>831.187500</ele>
<time>2013-11-23T05:51:29Z</time>
<speed>3.830000</speed>
<extensions>
<speed>3.8</speed>
<temp>0.00</temp>
<bpm>0</bpm>
<rpm>0.00</rpm>
</extensions>
</trkpt>
<trkpt lat="30.616508484" lon="34.800830841">
<ele>832.453125</ele>
<time>2013-11-23T05:51:34Z</time>
<speed>2.410000</speed>
<extensions>
<speed>2.4</speed>
<temp>0.00</temp>
<bpm>0</bpm>
<rpm>0.00</rpm>
</extensions>
</trkpt>
<trkpt lat="30.616476059" lon="34.800979614">
<ele>832.734375</ele>
<time>2013-11-23T05:51:39Z</time>
<speed>3.680000</speed>
<extensions>
<speed>3.7</speed>
<temp>0.00</temp>
<bpm>0</bpm>
<rpm>0.00</rpm>
</extensions>
</trkpt>
<trkpt lat="30.616436005" lon="34.801189423">
<ele>832.421875</ele>
<time>2013-11-23T05:51:44Z</time>
<speed>4.240000</speed>
<extensions>
<speed>4.2</speed>
<temp>0.00</temp>
<bpm>0</bpm>
<rpm>0.00</rpm>
</extensions>
</trkpt>
<trkpt lat="30.616397858" lon="34.801403046">
<ele>832.562500</ele>
<time>2013-11-23T05:51:49Z</time>
<speed>4.190000</speed>
<extensions>
<speed>4.2</speed>
<temp>0.00</temp>
<bpm>0</bpm>
<rpm>0.00</rpm>
</extensions>
</trkpt>
<trkpt lat="30.616374969" lon="34.801628113">
<ele>832.593750</ele>
<time>2013-11-23T05:51:54Z</time>
<speed>4.320000</speed>
<extensions>
<speed>4.3</speed>
<temp>0.00</temp>
<bpm>0</bpm>
<rpm>0.00</rpm>
</extensions>
</trkpt>
<trkpt lat="30.616340637" lon="34.801856995">
<ele>833.046875</ele>
<time>2013-11-23T05:51:59Z</time>
<speed>4.460000</speed>
<extensions>
<speed>4.5</speed>
<temp>0.00</temp>
<bpm>0</bpm>
<rpm>0.00</rpm>
</extensions>
</trkpt>
<trkpt lat="30.616313934" lon="34.802078247">
<ele>833.328125</ele>
<time>2013-11-23T05:52:04Z</time>
<speed>4.320000</speed>
<extensions>
<speed>4.3</speed>
<temp>0.00</temp>
<bpm>0</bpm>
<rpm>0.00</rpm>
</extensions>
</trkpt>
<trkpt lat="30.616289139" lon="34.802307129">
<ele>833.343750</ele>
<time>2013-11-23T05:52:09Z</time>
<speed>4.410000</speed>
<extensions>
<speed>4.4</speed>
<temp>0.00</temp>
<bpm>0</bpm>
<rpm>0.00</rpm>
</extensions>
</trkpt>
<trkpt lat="30.616279602" lon="34.802532196">
<ele>833.843750</ele>
<time>2013-11-23T05:52:14Z</time>
<speed>4.410000</speed>
<extensions>
<speed>4.4</speed>
<temp>0.00</temp>
<bpm>0</bpm>
<rpm>0.00</rpm>
</extensions>
</trkpt>
<trkpt lat="30.616270065" lon="34.802783966">
<ele>833.531250</ele>
<time>2013-11-23T05:52:19Z</time>
<speed>5.160000</speed>
<extensions>
<speed>5.2</speed>
<temp>0.00</temp>
<bpm>0</bpm>
<rpm>0.00</rpm>
</extensions>
</trkpt>
<trkpt lat="30.616258621" lon="34.803050995">
<ele>832.984375</ele>
<time>2013-11-23T05:52:24Z</time>
<speed>5.290000</speed>
<extensions>
<speed>5.3</speed>
<temp>0.00</temp>
<bpm>0</bpm>
<rpm>0.00</rpm>
</extensions>
</trkpt>
<trkpt lat="30.616245270" lon="34.803318024">
<ele>832.843750</ele>
<time>2013-11-23T05:52:29Z</time>
<speed>4.890000</speed>
<extensions>
<speed>4.9</speed>
<temp>0.00</temp>
<bpm>0</bpm>
<rpm>0.00</rpm>
</extensions>
</trkpt>
<trkpt lat="30.616085052" lon="34.803440094">
<ele>832.796875</ele>
<time>2013-11-23T05:52:34Z</time>
<speed>4.630000</speed>
<extensions>
<speed>4.6</speed>
<temp>0.00</temp>
<bpm>0</bpm>
<rpm>0.00</rpm>
</extensions>
</trkpt>
<trkpt lat="30.615861893" lon="34.803428650">
<ele>831.265625</ele>
<time>2013-11-23T05:52:39Z</time>
<speed>5.080000</speed>
<extensions>
<speed>5.1</speed>
<temp>0.00</temp>
<bpm>0</bpm>
<rpm>0.00</rpm>
</extensions>
</trkpt>
<trkpt lat="30.615623474" lon="34.803417206">
<ele>830.484375</ele>
<time>2013-11-23T05:52:44Z</time>
<speed>4.940000</speed>
<extensions>
<speed>4.9</speed>
<temp>0.00</temp>
<bpm>0</bpm>
<rpm>0.00</rpm>
</extensions>
</trkpt>
<trkpt lat="30.615400314" lon="34.803394318">
<ele>830.093750</ele>
<time>2013-11-23T05:52:49Z</time>
<speed>4.660000</speed>
<extensions>
<speed>4.7</speed>
<temp>0.00</temp>
<bpm>0</bpm>
<rpm>0.00</rpm>
</extensions>
</trkpt>
<trkpt lat="30.615198135" lon="34.803382874">
<ele>829.015625</ele>
<time>2013-11-23T05:52:54Z</time>
<speed>4.370000</speed>
<extensions>
<speed>4.4</speed>
<temp>0.00</temp>
<bpm>0</bpm>
<rpm>0.00</rpm>
</extensions>
</trkpt>
<trkpt lat="30.614995956" lon="34.803398132">
<ele>827.937500</ele>
<time>2013-11-23T05:52:59Z</time>
<speed>4.330000</speed>
<extensions>
<speed>4.3</speed>
<temp>0.00</temp>
<bpm>0</bpm>
<rpm>0.00</rpm>
</extensions>
</trkpt>
<trkpt lat="30.614810944" lon="34.803405762">
<ele>826.593750</ele>
<time>2013-11-23T05:53:04Z</time>
<speed>4.100000</speed>
<extensions>
<speed>4.1</speed>
<temp>0.00</temp>
<bpm>0</bpm>
<rpm>0.00</rpm>
</extensions>
</trkpt>
<trkpt lat="30.614616394" lon="34.803409576">
<ele>825.109375</ele>
<time>2013-11-23T05:53:09Z</time>
<speed>4.330000</speed>
<extensions>
<speed>4.3</speed>
<temp>0.00</temp>
<bpm>0</bpm>
<rpm>0.00</rpm>
</extensions>
</trkpt>
<trkpt lat="30.614416122" lon="34.803432465">
<ele>824.203125</ele>
<time>2013-11-23T05:53:14Z</time>
<speed>4.360000</speed>
<extensions>
<speed>4.4</speed>
<temp>0.00</temp>
<bpm>0</bpm>
<rpm>0.00</rpm>
</extensions>
</trkpt>
<trkpt lat="30.614215851" lon="34.803459167">
<ele>823.093750</ele>
<time>2013-11-23T05:53:19Z</time>
<speed>4.570000</speed>
<extensions>
<speed>4.6</speed>
<temp>0.00</temp>
<bpm>0</bpm>
<rpm>0.00</rpm>
</extensions>
</trkpt>
<trkpt lat="30.614009857" lon="34.803512573">
<ele>822.671875</ele>
<time>2013-11-23T05:53:24Z</time>
<speed>4.830000</speed>
<extensions>
<speed>4.8</speed>
<temp>0.00</temp>
<bpm>0</bpm>
<rpm>0.00</rpm>
</extensions>
</trkpt>
<trkpt lat="30.613794327" lon="34.803573608">
<ele>821.859375</ele>
<time>2013-11-23T05:53:29Z</time>
<speed>4.950000</speed>
<extensions>
<speed>4.9</speed>
<temp>0.00</temp>
<bpm>0</bpm>
<rpm>0.00</rpm>
</extensions>
</trkpt>
<trkpt lat="30.613597870" lon="34.803638458">
<ele>821.500000</ele>
<time>2013-11-23T05:53:34Z</time>
<speed>4.120000</speed>
<extensions>
<speed>4.1</speed>
<temp>0.00</temp>
<bpm>0</bpm>
<rpm>0.00</rpm>
</extensions>
</trkpt>
<trkpt lat="30.613443375" lon="34.803741455">
<ele>822.859375</ele>
<time>2013-11-23T05:53:39Z</time>
<speed>4.090000</speed>
<extensions>
<speed>4.1</speed>
<temp>0.00</temp>
<bpm>0</bpm>
<rpm>0.00</rpm>
</extensions>
</trkpt>
<trkpt lat="30.613256454" lon="34.803794861">
<ele>822.937500</ele>
<time>2013-11-23T05:53:44Z</time>
<speed>4.240000</speed>
<extensions>
<speed>4.2</speed>
<temp>0.00</temp>
<bpm>0</bpm>
<rpm>0.00</rpm>
</extensions>
</trkpt>
<trkpt lat="30.613071442" lon="34.803730011">
<ele>823.781250</ele>
<time>2013-11-23T05:53:49Z</time>
<speed>4.160000</speed>
<extensions>
<speed>4.2</speed>
<temp>0.00</temp>
<bpm>0</bpm>
<rpm>0.00</rpm>
</extensions>
</trkpt>
<trkpt lat="30.612913132" lon="34.803653717">
<ele>824.265625</ele>
<time>2013-11-23T05:53:54Z</time>
<speed>3.550000</speed>
<extensions>
<speed>3.5</speed>
<temp>0.00</temp>
<bpm>0</bpm>
<rpm>0.00</rpm>
</extensions>
</trkpt>
<trkpt lat="30.612771988" lon="34.803680420">
<ele>824.375000</ele>
<time>2013-11-23T05:53:59Z</time>
<speed>3.180000</speed>
<extensions>
<speed>3.2</speed>
<temp>0.00</temp>
<bpm>0</bpm>
<rpm>0.00</rpm>
</extensions>
</trkpt>
<trkpt lat="30.612661362" lon="34.803771973">
<ele>825.046875</ele>
<time>2013-11-23T05:54:04Z</time>
<speed>2.460000</speed>
<extensions>
<speed>2.5</speed>
<temp>0.00</temp>
<bpm>0</bpm>
<rpm>0.00</rpm>
</extensions>
</trkpt>
<trkpt lat="30.612606049" lon="34.803874969">
<ele>825.796875</ele>
<time>2013-11-23T05:54:09Z</time>
<speed>2.870000</speed>
<extensions>
<speed>2.9</speed>
<temp>0.00</temp>
<bpm>0</bpm>
<rpm>0.00</rpm>
</extensions>
</trkpt>
<trkpt lat="30.612554550" lon="34.804039001">
<ele>826.281250</ele>
<time>2013-11-23T05:54:14Z</time>
<speed>3.510000</speed>
<extensions>
<speed>3.5</speed>
<temp>0.00</temp>
<bpm>0</bpm>
<rpm>0.00</rpm>
</extensions>
</trkpt>
<trkpt lat="30.612455368" lon="34.804164886">
<ele>827.234375</ele>
<time>2013-11-23T05:54:19Z</time>
<speed>2.800000</speed>
<extensions>
<speed>2.8</speed>
<temp>0.00</temp>
<bpm>0</bpm>
<rpm>0.00</rpm>
</extensions>
</trkpt>
<trkpt lat="30.612348557" lon="34.804229736">
<ele>828.640625</ele>
<time>2013-11-23T05:54:24Z</time>
<speed>2.180000</speed>
<extensions>
<speed>2.2</speed>
<temp>0.00</temp>
<bpm>0</bpm>
<rpm>0.00</rpm>
</extensions>
</trkpt>
<trkpt lat="30.612274170" lon="34.804260254">
<ele>828.609375</ele>
<time>2013-11-23T05:54:29Z</time>
<speed>1.250000</speed>
<extensions>
<speed>1.3</speed>
<temp>0.00</temp>
<bpm>0</bpm>
<rpm>0.00</rpm>
</extensions>
</trkpt>
<trkpt lat="30.612232208" lon="34.804298401">
<ele>829.046875</ele>
<time>2013-11-23T05:54:34Z</time>
<speed>2.140000</speed>
<extensions>
<speed>2.1</speed>
<temp>0.00</temp>
<bpm>0</bpm>
<rpm>0.00</rpm>
</extensions>
</trkpt>
<trkpt lat="30.612228394" lon="34.804416656">
<ele>829.687500</ele>
<time>2013-11-23T05:54:39Z</time>
<speed>2.940000</speed>
<extensions>
<speed>2.9</speed>
<temp>0.00</temp>
<bpm>0</bpm>
<rpm>0.00</rpm>
</extensions>
</trkpt>
<trkpt lat="30.612276077" lon="34.804523468">
<ele>829.578125</ele>
<time>2013-11-23T05:54:44Z</time>
<speed>2.550000</speed>
<extensions>
<speed>2.6</speed>
<temp>0.00</temp>
<bpm>0</bpm>
<rpm>0.00</rpm>
</extensions>
</trkpt>
<trkpt lat="30.612377167" lon="34.804630280">
<ele>829.593750</ele>
<time>2013-11-23T05:54:49Z</time>
<speed>3.080000</speed>
<extensions>
<speed>3.1</speed>
<temp>0.00</temp>
<bpm>0</bpm>
<rpm>0.00</rpm>
</extensions>
</trkpt>
<trkpt lat="30.612464905" lon="34.804676056">
<ele>830.109375</ele>
<time>2013-11-23T05:54:54Z</time>
<speed>1.390000</speed>
<extensions>
<speed>1.4</speed>
<temp>0.00</temp>
<bpm>0</bpm>
<rpm>0.00</rpm>
</extensions>
</trkpt>
<trkpt lat="30.612487793" lon="34.804706573">
<ele>830.328125</ele>
<time>2013-11-23T05:54:59Z</time>
<speed>0.170000</speed>
<extensions>
<speed>0.2</speed>
<temp>0.00</temp>
<bpm>0</bpm>
<rpm>0.00</rpm>
</extensions>
</trkpt>
<trkpt lat="30.612483978" lon="34.804714203">
<ele>830.843750</ele>
<time>2013-11-23T05:55:04Z</time>
<speed>0.890000</speed>
<extensions>
<speed>0.9</speed>
<temp>0.00</temp>
<bpm>0</bpm>
<rpm>0.00</rpm>
</extensions>
</trkpt>
<trkpt lat="30.612482071" lon="34.804702759">
<ele>832.593750</ele>
<time>2013-11-23T05:55:09Z</time>
<speed>0.250000</speed>
<extensions>
<speed>0.2</speed>
<temp>0.00</temp>
<bpm>0</bpm>
<rpm>0.00</rpm>
</extensions>
</trkpt>
<trkpt lat="30.612470627" lon="34.804687500">
<ele>833.546875</ele>
<time>2013-11-23T05:55:14Z</time>
<speed>0.400000</speed>
<extensions>
<speed>0.4</speed>
<temp>0.00</temp>
<bpm>0</bpm>
<rpm>0.00</rpm>
</extensions>
</trkpt>
<trkpt lat="30.612455368" lon="34.804668427">
<ele>834.968750</ele>
<time>2013-11-23T05:55:19Z</time>
<speed>0.420000</speed>
<extensions>
<speed>0.4</speed>
<temp>0.00</temp>
<bpm>0</bpm>
<rpm>0.00</rpm>
</extensions>
</trkpt>
<trkpt lat="30.612468719" lon="34.804687500">
<ele>836.000000</ele>
<time>2013-11-23T05:55:24Z</time>
<speed>0.070000</speed>
<extensions>
<speed>0.1</speed>
<temp>0.00</temp>
<bpm>0</bpm>
<rpm>0.00</rpm>
</extensions>
</trkpt>
<trkpt lat="30.612466812" lon="34.804683685">
<ele>835.984375</ele>
<time>2013-11-23T05:55:29Z</time>
<speed>0.020000</speed>
<extensions>
<speed>0.0</speed>
<temp>0.00</temp>
<bpm>0</bpm>
<rpm>0.00</rpm>
</extensions>
</trkpt>
<trkpt lat="30.612464905" lon="34.804679871">
<ele>836.000000</ele>
<time>2013-11-23T05:55:34Z</time>
<speed>0.040000</speed>
<extensions>
<speed>0.0</speed>
<temp>0.00</temp>
<bpm>0</bpm>
<rpm>0.00</rpm>
</extensions>
</trkpt>
<trkpt lat="30.612462997" lon="34.804676056">
<ele>836.031250</ele>
<time>2013-11-23T05:55:39Z</time>
<speed>0.120000</speed>
<extensions>
<speed>0.1</speed>
<temp>0.00</temp>
<bpm>0</bpm>
<rpm>0.00</rpm>
</extensions>
</trkpt>
<trkpt lat="30.612459183" lon="34.804672241">
<ele>836.093750</ele>
<time>2013-11-23T05:55:44Z</time>
<speed>0.110000</speed>
<extensions>
<speed>0.1</speed>
<temp>0.00</temp>
<bpm>0</bpm>
<rpm>0.00</rpm>
</extensions>
</trkpt>
<trkpt lat="30.612459183" lon="34.804672241">
<ele>836.265625</ele>
<time>2013-11-23T05:55:49Z</time>
<speed>0.040000</speed>
<extensions>
<speed>0.0</speed>
<temp>0.00</temp>
<bpm>0</bpm>
<rpm>0.00</rpm>
</extensions>
</trkpt>
<trkpt lat="30.612455368" lon="34.804672241">
<ele>836.546875</ele>
<time>2013-11-23T05:55:54Z</time>
<speed>0.090000</speed>
<extensions>
<speed>0.1</speed>
<temp>0.00</temp>
<bpm>0</bpm>
<rpm>0.00</rpm>
</extensions>
</trkpt>
<trkpt lat="30.612453461" lon="34.804668427">
<ele>836.968750</ele>
<time>2013-11-23T05:55:59Z</time>
<speed>0.100000</speed>
<extensions>
<speed>0.1</speed>
<temp>0.00</temp>
<bpm>0</bpm>
<rpm>0.00</rpm>
</extensions>
</trkpt>
<trkpt lat="30.612449646" lon="34.804664612">
<ele>837.484375</ele>
<time>2013-11-23T05:56:04Z</time>
<speed>0.070000</speed>
<extensions>
<speed>0.1</speed>
<temp>0.00</temp>
<bpm>0</bpm>
<rpm>0.00</rpm>
</extensions>
</trkpt>
<trkpt lat="30.612445831" lon="34.804664612">
<ele>838.125000</ele>
<time>2013-11-23T05:56:09Z</time>
<speed>0.080000</speed>
<extensions>
<speed>0.1</speed>
<temp>0.00</temp>
<bpm>0</bpm>
<rpm>0.00</rpm>
</extensions>
</trkpt>
<trkpt lat="30.612442017" lon="34.804660797">
<ele>838.875000</ele>
<time>2013-11-23T05:56:14Z</time>
<speed>0.090000</speed>
<extensions>
<speed>0.1</speed>
<temp>0.00</temp>
<bpm>0</bpm>
<rpm>0.00</rpm>
</extensions>
</trkpt>
<trkpt lat="30.612438202" lon="34.804660797">
<ele>839.765625</ele>
<time>2013-11-23T05:56:19Z</time>
<speed>0.120000</speed>
<extensions>
<speed>0.1</speed>
<temp>0.00</temp>
<bpm>0</bpm>
<rpm>0.00</rpm>
</extensions>
</trkpt>
<trkpt lat="30.612432480" lon="34.804656982">
<ele>840.796875</ele>
<time>2013-11-23T05:56:24Z</time>
<speed>0.150000</speed>
<extensions>
<speed>0.2</speed>
<temp>0.00</temp>
<bpm>0</bpm>
<rpm>0.00</rpm>
</extensions>
</trkpt>
<trkpt lat="30.612424850" lon="34.804649353">
<ele>841.890625</ele>
<time>2013-11-23T05:56:29Z</time>
<speed>0.130000</speed>
<extensions>
<speed>0.1</speed>
<temp>0.00</temp>
<bpm>0</bpm>
<rpm>0.00</rpm>
</extensions>
</trkpt>
<trkpt lat="30.612419128" lon="34.804649353">
<ele>843.046875</ele>
<time>2013-11-23T05:56:34Z</time>
<speed>0.150000</speed>
<extensions>
<speed>0.2</speed>
<temp>0.00</temp>
<bpm>0</bpm>
<rpm>0.00</rpm>
</extensions>
</trkpt>
<trkpt lat="30.612413406" lon="34.804645538">
<ele>844.281250</ele>
<time>2013-11-23T05:56:39Z</time>
<speed>0.140000</speed>
<extensions>
<speed>0.1</speed>
<temp>0.00</temp>
<bpm>0</bpm>
<rpm>0.00</rpm>
</extensions>
</trkpt>
<trkpt lat="30.612405777" lon="34.804641724">
<ele>845.609375</ele>
<time>2013-11-23T05:56:44Z</time>
<speed>0.170000</speed>
<extensions>
<speed>0.2</speed>
<temp>0.00</temp>
<bpm>0</bpm>
<rpm>0.00</rpm>
</extensions>
</trkpt>
<trkpt lat="30.612398148" lon="34.804634094">
<ele>846.968750</ele>
<time>2013-11-23T05:56:49Z</time>
<speed>0.200000</speed>
<extensions>
<speed>0.2</speed>
<temp>0.00</temp>
<bpm>0</bpm>
<rpm>0.00</rpm>
</extensions>
</trkpt>
<trkpt lat="30.612388611" lon="34.804630280">
<ele>848.281250</ele>
<time>2013-11-23T05:56:54Z</time>
<speed>0.220000</speed>
<extensions>
<speed>0.2</speed>
<temp>0.00</temp>
<bpm>0</bpm>
<rpm>0.00</rpm>
</extensions>
</trkpt>
<trkpt lat="30.612379074" lon="34.804622650">
<ele>849.562500</ele>
<time>2013-11-23T05:56:59Z</time>
<speed>0.220000</speed>
<extensions>
<speed>0.2</speed>
<temp>0.00</temp>
<bpm>0</bpm>
<rpm>0.00</rpm>
</extensions>
</trkpt>
<trkpt lat="30.612371445" lon="34.804615021">
<ele>850.765625</ele>
<time>2013-11-23T05:57:04Z</time>
<speed>0.160000</speed>
<extensions>
<speed>0.2</speed>
<temp>0.00</temp>
<bpm>0</bpm>
<rpm>0.00</rpm>
</extensions>
</trkpt>
<trkpt lat="30.612365723" lon="34.804611206">
<ele>851.812500</ele>
<time>2013-11-23T05:57:09Z</time>
<speed>0.130000</speed>
<extensions>
<speed>0.1</speed>
<temp>0.00</temp>
<bpm>0</bpm>
<rpm>0.00</rpm>
</extensions>
</trkpt>
<trkpt lat="30.612360001" lon="34.804607391">
<ele>852.640625</ele>
<time>2013-11-23T05:57:14Z</time>
<speed>0.110000</speed>
<extensions>
<speed>0.1</speed>
<temp>0.00</temp>
<bpm>0</bpm>
<rpm>0.00</rpm>
</extensions>
</trkpt>
<trkpt lat="30.612354279" lon="34.804599762">
<ele>853.312500</ele>
<time>2013-11-23T05:57:19Z</time>
<speed>0.160000</speed>
<extensions>
<speed>0.2</speed>
<temp>0.00</temp>
<bpm>0</bpm>
<rpm>0.00</rpm>
</extensions>
</trkpt>
<trkpt lat="30.612348557" lon="34.804595947">
<ele>853.843750</ele>
<time>2013-11-23T05:57:24Z</time>
<speed>0.110000</speed>
<extensions>
<speed>0.1</speed>
<temp>0.00</temp>
<bpm>0</bpm>
<rpm>0.00</rpm>
</extensions>
</trkpt>
<trkpt lat="30.612344742" lon="34.804592133">
<ele>854.296875</ele>
<time>2013-11-23T05:57:29Z</time>
<speed>0.170000</speed>
<extensions>
<speed>0.2</speed>
<temp>0.00</temp>
<bpm>0</bpm>
<rpm>0.00</rpm>
</extensions>
</trkpt>
<trkpt lat="30.612340927" lon="34.804584503">
<ele>854.734375</ele>
<time>2013-11-23T05:57:34Z</time>
<speed>0.110000</speed>
<extensions>
<speed>0.1</speed>
<temp>0.00</temp>
<bpm>0</bpm>
<rpm>0.00</rpm>
</extensions>
</trkpt>
<trkpt lat="30.612337112" lon="34.804584503">
<ele>855.156250</ele>
<time>2013-11-23T05:57:39Z</time>
<speed>0.040000</speed>
<extensions>
<speed>0.0</speed>
<temp>0.00</temp>
<bpm>0</bpm>
<rpm>0.00</rpm>
</extensions>
</trkpt>
<trkpt lat="30.612335205" lon="34.804580688">
<ele>855.640625</ele>
<time>2013-11-23T05:57:44Z</time>
<speed>0.030000</speed>
<extensions>
<speed>0.0</speed>
<temp>0.00</temp>
<bpm>0</bpm>
<rpm>0.00</rpm>
</extensions>
</trkpt>
<trkpt lat="30.612333298" lon="34.804580688">
<ele>856.093750</ele>
<time>2013-11-23T05:57:49Z</time>
<speed>0.020000</speed>
<extensions>
<speed>0.0</speed>
<temp>0.00</temp>
<bpm>0</bpm>
<rpm>0.00</rpm>
</extensions>
</trkpt>
<trkpt lat="30.612331390" lon="34.804580688">
<ele>856.531250</ele>
<time>2013-11-23T05:57:54Z</time>
<speed>0.030000</speed>
<extensions>
<speed>0.0</speed>
<temp>0.00</temp>
<bpm>0</bpm>
<rpm>0.00</rpm>
</extensions>
</trkpt>
<trkpt lat="30.612331390" lon="34.804580688">
<ele>856.984375</ele>
<time>2013-11-23T05:57:59Z</time>
<speed>0.020000</speed>
<extensions>
<speed>0.0</speed>
<temp>0.00</temp>
<bpm>0</bpm>
<rpm>0.00</rpm>
</extensions>
</trkpt>
<trkpt lat="30.612329483" lon="34.804580688">
<ele>857.484375</ele>
<time>2013-11-23T05:58:04Z</time>
<speed>0.030000</speed>
<extensions>
<speed>0.0</speed>
<temp>0.00</temp>
<bpm>0</bpm>
<rpm>0.00</rpm>
</extensions>
</trkpt>
<trkpt lat="30.612327576" lon="34.804580688">
<ele>857.968750</ele>
<time>2013-11-23T05:58:09Z</time>
<speed>0.020000</speed>
<extensions>
<speed>0.0</speed>
<temp>0.00</temp>
<bpm>0</bpm>
<rpm>0.00</rpm>
</extensions>
</trkpt>
<trkpt lat="30.612327576" lon="34.804580688">
<ele>858.484375</ele>
<time>2013-11-23T05:58:14Z</time>
<speed>0.030000</speed>
<extensions>
<speed>0.0</speed>
<temp>0.00</temp>
<bpm>0</bpm>
<rpm>0.00</rpm>
</extensions>
</trkpt>
<trkpt lat="30.612325668" lon="34.804580688">
<ele>859.015625</ele>
<time>2013-11-23T05:58:19Z</time>
<speed>0.030000</speed>
<extensions>
<speed>0.0</speed>
<temp>0.00</temp>
<bpm>0</bpm>
<rpm>0.00</rpm>
</extensions>
</trkpt>
<trkpt lat="30.612323761" lon="34.804580688">
<ele>859.546875</ele>
<time>2013-11-23T05:58:24Z</time>
<speed>0.030000</speed>
<extensions>
<speed>0.0</speed>
<temp>0.00</temp>
<bpm>0</bpm>
<rpm>0.00</rpm>
</extensions>
</trkpt>
<trkpt lat="30.612321854" lon="34.804580688">
<ele>860.093750</ele>
<time>2013-11-23T05:58:29Z</time>
<speed>0.040000</speed>
<extensions>
<speed>0.0</speed>
<temp>0.00</temp>
<bpm>0</bpm>
<rpm>0.00</rpm>
</extensions>
</trkpt>
<trkpt lat="30.612319946" lon="34.804576874">
<ele>860.671875</ele>
<time>2013-11-23T05:58:34Z</time>
<speed>0.080000</speed>
<extensions>
<speed>0.1</speed>
<temp>0.00</temp>
<bpm>0</bpm>
<rpm>0.00</rpm>
</extensions>
</trkpt>
<trkpt lat="30.612316132" lon="34.804576874">
<ele>861.250000</ele>
<time>2013-11-23T05:58:39Z</time>
<speed>0.080000</speed>
<extensions>
<speed>0.1</speed>
<temp>0.00</temp>
<bpm>0</bpm>
<rpm>0.00</rpm>
</extensions>
</trkpt>
<trkpt lat="30.612312317" lon="34.804573059">
<ele>861.796875</ele>
<time>2013-11-23T05:58:44Z</time>
<speed>0.080000</speed>
<extensions>
<speed>0.1</speed>
<temp>0.00</temp>
<bpm>0</bpm>
<rpm>0.00</rpm>
</extensions>
</trkpt>
<trkpt lat="30.612310410" lon="34.804573059">
<ele>862.312500</ele>
<time>2013-11-23T05:58:49Z</time>
<speed>0.060000</speed>
<extensions>
<speed>0.1</speed>
<temp>0.00</temp>
<bpm>0</bpm>
<rpm>0.00</rpm>
</extensions>
</trkpt>
<trkpt lat="30.612308502" lon="34.804569244">
<ele>862.812500</ele>
<time>2013-11-23T05:58:54Z</time>
<speed>0.050000</speed>
<extensions>
<speed>0.1</speed>
<temp>0.00</temp>
<bpm>0</bpm>
<rpm>0.00</rpm>
</extensions>
</trkpt>
<trkpt lat="30.612304688" lon="34.804569244">
<ele>863.328125</ele>
<time>2013-11-23T05:58:59Z</time>
<speed>0.070000</speed>
<extensions>
<speed>0.1</speed>
<temp>0.00</temp>
<bpm>0</bpm>
<rpm>0.00</rpm>
</extensions>
</trkpt>
<trkpt lat="30.612302780" lon="34.804565430">
<ele>863.828125</ele>
<time>2013-11-23T05:59:04Z</time>
<speed>0.070000</speed>
<extensions>
<speed>0.1</speed>
<temp>0.00</temp>
<bpm>0</bpm>
<rpm>0.00</rpm>
</extensions>
</trkpt>
<trkpt lat="30.612300873" lon="34.804565430">
<ele>864.281250</ele>
<time>2013-11-23T05:59:09Z</time>
<speed>0.080000</speed>
<extensions>
<speed>0.1</speed>
<temp>0.00</temp>
<bpm>0</bpm>
<rpm>0.00</rpm>
</extensions>
</trkpt>
<trkpt lat="30.612297058" lon="34.804561615">
<ele>864.718750</ele>
<time>2013-11-23T05:59:14Z</time>
<speed>0.070000</speed>
<extensions>
<speed>0.1</speed>
<temp>0.00</temp>
<bpm>0</bpm>
<rpm>0.00</rpm>
</extensions>
</trkpt>
<trkpt lat="30.612295151" lon="34.804561615">
<ele>865.156250</ele>
<time>2013-11-23T05:59:19Z</time>
<speed>0.040000</speed>
<extensions>
<speed>0.0</speed>
<temp>0.00</temp>
<bpm>0</bpm>
<rpm>0.00</rpm>
</extensions>
</trkpt>
<trkpt lat="30.612293243" lon="34.804561615">
<ele>865.546875</ele>
<time>2013-11-23T05:59:24Z</time>
<speed>0.040000</speed>
<extensions>
<speed>0.0</speed>
<temp>0.00</temp>
<bpm>0</bpm>
<rpm>0.00</rpm>
</extensions>
</trkpt>
<trkpt lat="30.612291336" lon="34.804561615">
<ele>865.937500</ele>
<time>2013-11-23T05:59:29Z</time>
<speed>0.040000</speed>
<extensions>
<speed>0.0</speed>
<temp>0.00</temp>
<bpm>0</bpm>
<rpm>0.00</rpm>
</extensions>
</trkpt>
<trkpt lat="30.612291336" lon="34.804565430">
<ele>866.328125</ele>
<time>2013-11-23T05:59:34Z</time>
<speed>0.030000</speed>
<extensions>
<speed>0.0</speed>
<temp>0.00</temp>
<bpm>0</bpm>
<rpm>0.00</rpm>
</extensions>
</trkpt>
<trkpt lat="30.612289429" lon="34.804561615">
<ele>866.703125</ele>
<time>2013-11-23T05:59:39Z</time>
<speed>0.120000</speed>
<extensions>
<speed>0.1</speed>
<temp>0.00</temp>
<bpm>0</bpm>
<rpm>0.00</rpm>
</extensions>
</trkpt>
<trkpt lat="30.612283707" lon="34.804557800">
<ele>867.046875</ele>
<time>2013-11-23T05:59:44Z</time>
<speed>0.240000</speed>
<extensions>
<speed>0.2</speed>
<temp>0.00</temp>
<bpm>0</bpm>
<rpm>0.00</rpm>
</extensions>
</trkpt>
<trkpt lat="30.612276077" lon="34.804542542">
<ele>867.359375</ele>
<time>2013-11-23T05:59:49Z</time>
<speed>0.310000</speed>
<extensions>
<speed>0.3</speed>
<temp>0.00</temp>
<bpm>0</bpm>
<rpm>0.00</rpm>
</extensions>
</trkpt>
<trkpt lat="30.612257004" lon="34.804512024">
<ele>868.109375</ele>
<time>2013-11-23T05:59:54Z</time>
<speed>0.350000</speed>
<extensions>
<speed>0.3</speed>
<temp>0.00</temp>
<bpm>0</bpm>
<rpm>0.00</rpm>
</extensions>
</trkpt>
<trkpt lat="30.612234116" lon="34.804485321">
<ele>868.984375</ele>
<time>2013-11-23T05:59:59Z</time>
<speed>0.190000</speed>
<extensions>
<speed>0.2</speed>
<temp>0.00</temp>
<bpm>0</bpm>
<rpm>0.00</rpm>
</extensions>
</trkpt>
<trkpt lat="30.612226486" lon="34.804477692">
<ele>869.687500</ele>
<time>2013-11-23T06:00:04Z</time>
<speed>0.100000</speed>
<extensions>
<speed>0.1</speed>
<temp>0.00</temp>
<bpm>0</bpm>
<rpm>0.00</rpm>
</extensions>
</trkpt>
<trkpt lat="30.612222672" lon="34.804473877">
<ele>870.031250</ele>
<time>2013-11-23T06:00:09Z</time>
<speed>0.090000</speed>
<extensions>
<speed>0.1</speed>
<temp>0.00</temp>
<bpm>0</bpm>
<rpm>0.00</rpm>
</extensions>
</trkpt>
<trkpt lat="30.612218857" lon="34.804470062">
<ele>870.437500</ele>
<time>2013-11-23T06:00:14Z</time>
<speed>0.070000</speed>
<extensions>
<speed>0.1</speed>
<temp>0.00</temp>
<bpm>0</bpm>
<rpm>0.00</rpm>
</extensions>
</trkpt>
<trkpt lat="30.612215042" lon="34.804466248">
<ele>870.812500</ele>
<time>2013-11-23T06:00:19Z</time>
<speed>0.080000</speed>
<extensions>
<speed>0.1</speed>
<temp>0.00</temp>
<bpm>0</bpm>
<rpm>0.00</rpm>
</extensions>
</trkpt>
<trkpt lat="30.612211227" lon="34.804466248">
<ele>871.203125</ele>
<time>2013-11-23T06:00:24Z</time>
<speed>0.090000</speed>
<extensions>
<speed>0.1</speed>
<temp>0.00</temp>
<bpm>0</bpm>
<rpm>0.00</rpm>
</extensions>
</trkpt>
<trkpt lat="30.612209320" lon="34.804466248">
<ele>871.640625</ele>
<time>2013-11-23T06:00:29Z</time>
<speed>0.050000</speed>
<extensions>
<speed>0.1</speed>
<temp>0.00</temp>
<bpm>0</bpm>
<rpm>0.00</rpm>
</extensions>
</trkpt>
<trkpt lat="30.612205505" lon="34.804466248">
<ele>872.140625</ele>
<time>2013-11-23T06:00:34Z</time>
<speed>0.030000</speed>
<extensions>
<speed>0.0</speed>
<temp>0.00</temp>
<bpm>0</bpm>
<rpm>0.00</rpm>
</extensions>
</trkpt>
<trkpt lat="30.612205505" lon="34.804466248">
<ele>872.484375</ele>
<time>2013-11-23T06:00:39Z</time>
<speed>0.020000</speed>
<extensions>
<speed>0.0</speed>
<temp>0.00</temp>
<bpm>0</bpm>
<rpm>0.00</rpm>
</extensions>
</trkpt>
<trkpt lat="30.612205505" lon="34.804470062">
<ele>872.421875</ele>
<time>2013-11-23T06:00:44Z</time>
<speed>0.010000</speed>
<extensions>
<speed>0.0</speed>
<temp>0.00</temp>
<bpm>0</bpm>
<rpm>0.00</rpm>
</extensions>
</trkpt>
<trkpt lat="30.612205505" lon="34.804470062">
<ele>872.390625</ele>
<time>2013-11-23T06:00:49Z</time>
<speed>0.010000</speed>
<extensions>
<speed>0.0</speed>
<temp>0.00</temp>
<bpm>0</bpm>
<rpm>0.00</rpm>
</extensions>
</trkpt>
<trkpt lat="30.612205505" lon="34.804470062">
<ele>872.390625</ele>
<time>2013-11-23T06:00:54Z</time>
<speed>0.020000</speed>
<extensions>
<speed>0.0</speed>
<temp>0.00</temp>
<bpm>0</bpm>
<rpm>0.00</rpm>
</extensions>
</trkpt>
<trkpt lat="30.612207413" lon="34.804470062">
<ele>872.390625</ele>
<time>2013-11-23T06:00:59Z</time>
<extensions>
<speed>0.0</speed>
<temp>0.00</temp>
<bpm>0</bpm>
<rpm>0.00</rpm>
</extensions>
</trkpt>
<trkpt lat="30.612207413" lon="34.804470062">
<ele>872.390625</ele>
<time>2013-11-23T06:01:04Z</time>
<speed>0.020000</speed>
<extensions>
<speed>0.0</speed>
<temp>0.00</temp>
<bpm>0</bpm>
<rpm>0.00</rpm>
</extensions>
</trkpt>
<trkpt lat="30.612207413" lon="34.804470062">
<ele>872.359375</ele>
<time>2013-11-23T06:01:09Z</time>
<speed>0.010000</speed>
<extensions>
<speed>0.0</speed>
<temp>0.00</temp>
<bpm>0</bpm>
<rpm>0.00</rpm>
</extensions>
</trkpt>
<trkpt lat="30.612207413" lon="34.804470062">
<ele>872.375000</ele>
<time>2013-11-23T06:01:14Z</time>
<extensions>
<speed>0.0</speed>
<temp>0.00</temp>
<bpm>0</bpm>
<rpm>0.00</rpm>
</extensions>
</trkpt>
<trkpt lat="30.612207413" lon="34.804470062">
<ele>872.375000</ele>
<time>2013-11-23T06:01:19Z</time>
<speed>0.020000</speed>
<extensions>
<speed>0.0</speed>
<temp>0.00</temp>
<bpm>0</bpm>
<rpm>0.00</rpm>
</extensions>
</trkpt>
<trkpt lat="30.612207413" lon="34.804473877">
<ele>872.406250</ele>
<time>2013-11-23T06:01:24Z</time>
<extensions>
<speed>0.0</speed>
<temp>0.00</temp>
<bpm>0</bpm>
<rpm>0.00</rpm>
</extensions>
</trkpt>
<trkpt lat="30.612207413" lon="34.804473877">
<ele>872.437500</ele>
<time>2013-11-23T06:01:29Z</time>
<speed>0.010000</speed>
<extensions>
<speed>0.0</speed>
<temp>0.00</temp>
<bpm>0</bpm>
<rpm>0.00</rpm>
</extensions>
</trkpt>
<trkpt lat="30.612207413" lon="34.804473877">
<ele>872.453125</ele>
<time>2013-11-23T06:01:34Z</time>
<speed>0.010000</speed>
<extensions>
<speed>0.0</speed>
<temp>0.00</temp>
<bpm>0</bpm>
<rpm>0.00</rpm>
</extensions>
</trkpt>
<trkpt lat="30.612207413" lon="34.804473877">
<ele>872.484375</ele>
<time>2013-11-23T06:01:39Z</time>
<speed>0.080000</speed>
<extensions>
<speed>0.1</speed>
<temp>0.00</temp>
<bpm>0</bpm>
<rpm>0.00</rpm>
</extensions>
</trkpt>
<trkpt lat="30.612207413" lon="34.804473877">
<ele>872.546875</ele>
<time>2013-11-23T06:01:44Z</time>
<speed>0.020000</speed>
<extensions>
<speed>0.0</speed>
<temp>0.00</temp>
<bpm>0</bpm>
<rpm>0.00</rpm>
</extensions>
</trkpt>
<trkpt lat="30.612207413" lon="34.804473877">
<ele>872.562500</ele>
<time>2013-11-23T06:01:49Z</time>
<extensions>
<speed>0.0</speed>
<temp>0.00</temp>
<bpm>0</bpm>
<rpm>0.00</rpm>
</extensions>
</trkpt>
<trkpt lat="30.612207413" lon="34.804477692">
<ele>872.578125</ele>
<time>2013-11-23T06:01:54Z</time>
<speed>0.020000</speed>
<extensions>
<speed>0.0</speed>
<temp>0.00</temp>
<bpm>0</bpm>
<rpm>0.00</rpm>
</extensions>
</trkpt>
<trkpt lat="30.612207413" lon="34.804477692">
<ele>872.593750</ele>
<time>2013-11-23T06:01:59Z</time>
<speed>0.010000</speed>
<extensions>
<speed>0.0</speed>
<temp>0.00</temp>
<bpm>0</bpm>
<rpm>0.00</rpm>
</extensions>
</trkpt>
<trkpt lat="30.612207413" lon="34.804477692">
<ele>872.609375</ele>
<time>2013-11-23T06:02:04Z</time>
<speed>0.020000</speed>
<extensions>
<speed>0.0</speed>
<temp>0.00</temp>
<bpm>0</bpm>
<rpm>0.00</rpm>
</extensions>
</trkpt>
<trkpt lat="30.612207413" lon="34.804477692">
<ele>872.609375</ele>
<time>2013-11-23T06:02:09Z</time>
<speed>0.010000</speed>
<extensions>
<speed>0.0</speed>
<temp>0.00</temp>
<bpm>0</bpm>
<rpm>0.00</rpm>
</extensions>
</trkpt>
<trkpt lat="30.612207413" lon="34.804477692">
<ele>872.593750</ele>
<time>2013-11-23T06:02:14Z</time>
<speed>0.040000</speed>
<extensions>
<speed>0.0</speed>
<temp>0.00</temp>
<bpm>0</bpm>
<rpm>0.00</rpm>
</extensions>
</trkpt>
<trkpt lat="30.612207413" lon="34.804477692">
<ele>872.593750</ele>
<time>2013-11-23T06:02:19Z</time>
<extensions>
<speed>0.0</speed>
<temp>0.00</temp>
<bpm>0</bpm>
<rpm>0.00</rpm>
</extensions>
</trkpt>
<trkpt lat="30.612207413" lon="34.804481506">
<ele>872.625000</ele>
<time>2013-11-23T06:02:24Z</time>
<speed>0.010000</speed>
<extensions>
<speed>0.0</speed>
<temp>0.00</temp>
<bpm>0</bpm>
<rpm>0.00</rpm>
</extensions>
</trkpt>
<trkpt lat="30.612207413" lon="34.804481506">
<ele>872.625000</ele>
<time>2013-11-23T06:02:29Z</time>
<extensions>
<speed>0.0</speed>
<temp>0.00</temp>
<bpm>0</bpm>
<rpm>0.00</rpm>
</extensions>
</trkpt>
<trkpt lat="30.612207413" lon="34.804481506">
<ele>872.625000</ele>
<time>2013-11-23T06:02:34Z</time>
<speed>0.010000</speed>
<extensions>
<speed>0.0</speed>
<temp>0.00</temp>
<bpm>0</bpm>
<rpm>0.00</rpm>
</extensions>
</trkpt>
<trkpt lat="30.612207413" lon="34.804481506">
<ele>872.593750</ele>
<time>2013-11-23T06:02:39Z</time>
<speed>0.030000</speed>
<extensions>
<speed>0.0</speed>
<temp>0.00</temp>
<bpm>0</bpm>
<rpm>0.00</rpm>
</extensions>
</trkpt>
<trkpt lat="30.612207413" lon="34.804481506">
<ele>872.625000</ele>
<time>2013-11-23T06:02:44Z</time>
<speed>0.020000</speed>
<extensions>
<speed>0.0</speed>
<temp>0.00</temp>
<bpm>0</bpm>
<rpm>0.00</rpm>
</extensions>
</trkpt>
<trkpt lat="30.612207413" lon="34.804485321">
<ele>872.578125</ele>
<time>2013-11-23T06:02:49Z</time>
<speed>0.020000</speed>
<extensions>
<speed>0.0</speed>
<temp>0.00</temp>
<bpm>0</bpm>
<rpm>0.00</rpm>
</extensions>
</trkpt>
<trkpt lat="30.612207413" lon="34.804485321">
<ele>872.546875</ele>
<time>2013-11-23T06:02:54Z</time>
<speed>0.030000</speed>
<extensions>
<speed>0.0</speed>
<temp>0.00</temp>
<bpm>0</bpm>
<rpm>0.00</rpm>
</extensions>
</trkpt>
<trkpt lat="30.612209320" lon="34.804485321">
<ele>872.484375</ele>
<time>2013-11-23T06:02:59Z</time>
<speed>0.010000</speed>
<extensions>
<speed>0.0</speed>
<temp>0.00</temp>
<bpm>0</bpm>
<rpm>0.00</rpm>
</extensions>
</trkpt>
<trkpt lat="30.612209320" lon="34.804489136">
<ele>872.468750</ele>
<time>2013-11-23T06:03:04Z</time>
<speed>0.020000</speed>
<extensions>
<speed>0.0</speed>
<temp>0.00</temp>
<bpm>0</bpm>
<rpm>0.00</rpm>
</extensions>
</trkpt>
<trkpt lat="30.612209320" lon="34.804489136">
<ele>872.468750</ele>
<time>2013-11-23T06:03:09Z</time>
<speed>0.010000</speed>
<extensions>
<speed>0.0</speed>
<temp>0.00</temp>
<bpm>0</bpm>
<rpm>0.00</rpm>
</extensions>
</trkpt>
<trkpt lat="30.612209320" lon="34.804489136">
<ele>872.468750</ele>
<time>2013-11-23T06:03:14Z</time>
<speed>0.010000</speed>
<extensions>
<speed>0.0</speed>
<temp>0.00</temp>
<bpm>0</bpm>
<rpm>0.00</rpm>
</extensions>
</trkpt>
<trkpt lat="30.612209320" lon="34.804489136">
<ele>872.453125</ele>
<time>2013-11-23T06:03:19Z</time>
<extensions>
<speed>0.0</speed>
<temp>0.00</temp>
<bpm>0</bpm>
<rpm>0.00</rpm>
</extensions>
</trkpt>
<trkpt lat="30.612209320" lon="34.804489136">
<ele>872.406250</ele>
<time>2013-11-23T06:03:24Z</time>
<speed>0.010000</speed>
<extensions>
<speed>0.0</speed>
<temp>0.00</temp>
<bpm>0</bpm>
<rpm>0.00</rpm>
</extensions>
</trkpt>
<trkpt lat="30.612209320" lon="34.804489136">
<ele>872.375000</ele>
<time>2013-11-23T06:03:29Z</time>
<extensions>
<speed>0.0</speed>
<temp>0.00</temp>
<bpm>0</bpm>
<rpm>0.00</rpm>
</extensions>
</trkpt>
<trkpt lat="30.612209320" lon="34.804489136">
<ele>872.343750</ele>
<time>2013-11-23T06:03:34Z</time>
<extensions>
<speed>0.0</speed>
<temp>0.00</temp>
<bpm>0</bpm>
<rpm>0.00</rpm>
</extensions>
</trkpt>
<trkpt lat="30.612209320" lon="34.804489136">
<ele>872.312500</ele>
<time>2013-11-23T06:03:39Z</time>
<extensions>
<speed>0.0</speed>
<temp>0.00</temp>
<bpm>0</bpm>
<rpm>0.00</rpm>
</extensions>
</trkpt>
<trkpt lat="30.612209320" lon="34.804489136">
<ele>872.328125</ele>
<time>2013-11-23T06:03:44Z</time>
<extensions>
<speed>0.0</speed>
<temp>0.00</temp>
<bpm>0</bpm>
<rpm>0.00</rpm>
</extensions>
</trkpt>
<trkpt lat="30.612209320" lon="34.804489136">
<ele>872.328125</ele>
<time>2013-11-23T06:03:49Z</time>
<extensions>
<speed>0.0</speed>
<temp>0.00</temp>
<bpm>0</bpm>
<rpm>0.00</rpm>
</extensions>
</trkpt>
<trkpt lat="30.612209320" lon="34.804489136">
<ele>872.343750</ele>
<time>2013-11-23T06:03:54Z</time>
<speed>0.010000</speed>
<extensions>
<speed>0.0</speed>
<temp>0.00</temp>
<bpm>0</bpm>
<rpm>0.00</rpm>
</extensions>
</trkpt>
<trkpt lat="30.612209320" lon="34.804489136">
<ele>872.359375</ele>
<time>2013-11-23T06:03:59Z</time>
<speed>0.010000</speed>
<extensions>
<speed>0.0</speed>
<temp>0.00</temp>
<bpm>0</bpm>
<rpm>0.00</rpm>
</extensions>
</trkpt>
<trkpt lat="30.612209320" lon="34.804489136">
<ele>872.343750</ele>
<time>2013-11-23T06:04:04Z</time>
<extensions>
<speed>0.0</speed>
<temp>0.00</temp>
<bpm>0</bpm>
<rpm>0.00</rpm>
</extensions>
</trkpt>
<trkpt lat="30.612209320" lon="34.804489136">
<ele>872.343750</ele>
<time>2013-11-23T06:04:09Z</time>
<extensions>
<speed>0.0</speed>
<temp>0.00</temp>
<bpm>0</bpm>
<rpm>0.00</rpm>
</extensions>
</trkpt>
<trkpt lat="30.612209320" lon="34.804489136">
<ele>872.265625</ele>
<time>2013-11-23T06:04:14Z</time>
<extensions>
<speed>0.0</speed>
<temp>0.00</temp>
<bpm>0</bpm>
<rpm>0.00</rpm>
</extensions>
</trkpt>
<trkpt lat="30.612209320" lon="34.804489136">
<ele>872.203125</ele>
<time>2013-11-23T06:04:19Z</time>
<extensions>
<speed>0.0</speed>
<temp>0.00</temp>
<bpm>0</bpm>
<rpm>0.00</rpm>
</extensions>
</trkpt>
<trkpt lat="30.612209320" lon="34.804489136">
<ele>872.156250</ele>
<time>2013-11-23T06:04:24Z</time>
<speed>0.010000</speed>
<extensions>
<speed>0.0</speed>
<temp>0.00</temp>
<bpm>0</bpm>
<rpm>0.00</rpm>
</extensions>
</trkpt>
<trkpt lat="30.612207413" lon="34.804489136">
<ele>872.140625</ele>
<time>2013-11-23T06:04:29Z</time>
<speed>0.010000</speed>
<extensions>
<speed>0.0</speed>
<temp>0.00</temp>
<bpm>0</bpm>
<rpm>0.00</rpm>
</extensions>
</trkpt>
<trkpt lat="30.612207413" lon="34.804489136">
<ele>872.156250</ele>
<time>2013-11-23T06:04:34Z</time>
<speed>0.010000</speed>
<extensions>
<speed>0.0</speed>
<temp>0.00</temp>
<bpm>0</bpm>
<rpm>0.00</rpm>
</extensions>
</trkpt>
<trkpt lat="30.612207413" lon="34.804489136">
<ele>872.109375</ele>
<time>2013-11-23T06:04:39Z</time>
<speed>0.010000</speed>
<extensions>
<speed>0.0</speed>
<temp>0.00</temp>
<bpm>0</bpm>
<rpm>0.00</rpm>
</extensions>
</trkpt>
<trkpt lat="30.612207413" lon="34.804489136">
<ele>872.062500</ele>
<time>2013-11-23T06:04:44Z</time>
<speed>0.010000</speed>
<extensions>
<speed>0.0</speed>
<temp>0.00</temp>
<bpm>0</bpm>
<rpm>0.00</rpm>
</extensions>
</trkpt>
<trkpt lat="30.612207413" lon="34.804492950">
<ele>872.000000</ele>
<time>2013-11-23T06:04:49Z</time>
<speed>0.020000</speed>
<extensions>
<speed>0.0</speed>
<temp>0.00</temp>
<bpm>0</bpm>
<rpm>0.00</rpm>
</extensions>
</trkpt>
<trkpt lat="30.612209320" lon="34.804492950">
<ele>871.921875</ele>
<time>2013-11-23T06:04:54Z</time>
<extensions>
<speed>0.0</speed>
<temp>0.00</temp>
<bpm>0</bpm>
<rpm>0.00</rpm>
</extensions>
</trkpt>
<trkpt lat="30.612209320" lon="34.804492950">
<ele>871.953125</ele>
<time>2013-11-23T06:04:59Z</time>
<extensions>
<speed>0.0</speed>
<temp>0.00</temp>
<bpm>0</bpm>
<rpm>0.00</rpm>
</extensions>
</trkpt>
<trkpt lat="30.612207413" lon="34.804492950">
<ele>871.968750</ele>
<time>2013-11-23T06:05:04Z</time>
<extensions>
<speed>0.0</speed>
<temp>0.00</temp>
<bpm>0</bpm>
<rpm>0.00</rpm>
</extensions>
</trkpt>
<trkpt lat="30.612207413" lon="34.804492950">
<ele>871.968750</ele>
<time>2013-11-23T06:05:09Z</time>
<speed>0.010000</speed>
<extensions>
<speed>0.0</speed>
<temp>0.00</temp>
<bpm>0</bpm>
<rpm>0.00</rpm>
</extensions>
</trkpt>
<trkpt lat="30.612207413" lon="34.804492950">
<ele>871.968750</ele>
<time>2013-11-23T06:05:14Z</time>
<extensions>
<speed>0.0</speed>
<temp>0.00</temp>
<bpm>0</bpm>
<rpm>0.00</rpm>
</extensions>
</trkpt>
<trkpt lat="30.612209320" lon="34.804492950">
<ele>871.968750</ele>
<time>2013-11-23T06:05:19Z</time>
<extensions>
<speed>0.0</speed>
<temp>0.00</temp>
<bpm>0</bpm>
<rpm>0.00</rpm>
</extensions>
</trkpt>
<trkpt lat="30.612209320" lon="34.804492950">
<ele>871.968750</ele>
<time>2013-11-23T06:05:24Z</time>
<speed>0.040000</speed>
<extensions>
<speed>0.0</speed>
<temp>0.00</temp>
<bpm>0</bpm>
<rpm>0.00</rpm>
</extensions>
</trkpt>
<trkpt lat="30.612209320" lon="34.804492950">
<ele>871.937500</ele>
<time>2013-11-23T06:05:29Z</time>
<speed>0.010000</speed>
<extensions>
<speed>0.0</speed>
<temp>0.00</temp>
<bpm>0</bpm>
<rpm>0.00</rpm>
</extensions>
</trkpt>
<trkpt lat="30.612209320" lon="34.804492950">
<ele>871.937500</ele>
<time>2013-11-23T06:05:34Z</time>
<extensions>
<speed>0.0</speed>
<temp>0.00</temp>
<bpm>0</bpm>
<rpm>0.00</rpm>
</extensions>
</trkpt>
<trkpt lat="30.612209320" lon="34.804492950">
<ele>871.921875</ele>
<time>2013-11-23T06:05:39Z</time>
<speed>0.060000</speed>
<extensions>
<speed>0.1</speed>
<temp>0.00</temp>
<bpm>0</bpm>
<rpm>0.00</rpm>
</extensions>
</trkpt>
<trkpt lat="30.612209320" lon="34.804492950">
<ele>871.921875</ele>
<time>2013-11-23T06:05:44Z</time>
<speed>0.010000</speed>
<extensions>
<speed>0.0</speed>
<temp>0.00</temp>
<bpm>0</bpm>
<rpm>0.00</rpm>
</extensions>
</trkpt>
<trkpt lat="30.612209320" lon="34.804492950">
<ele>871.921875</ele>
<time>2013-11-23T06:05:49Z</time>
<speed>0.040000</speed>
<extensions>
<speed>0.0</speed>
<temp>0.00</temp>
<bpm>0</bpm>
<rpm>0.00</rpm>
</extensions>
</trkpt>
<trkpt lat="30.612209320" lon="34.804492950">
<ele>871.906250</ele>
<time>2013-11-23T06:05:54Z</time>
<speed>0.010000</speed>
<extensions>
<speed>0.0</speed>
<temp>0.00</temp>
<bpm>0</bpm>
<rpm>0.00</rpm>
</extensions>
</trkpt>
<trkpt lat="30.612209320" lon="34.804492950">
<ele>871.906250</ele>
<time>2013-11-23T06:05:59Z</time>
<speed>0.050000</speed>
<extensions>
<speed>0.1</speed>
<temp>0.00</temp>
<bpm>0</bpm>
<rpm>0.00</rpm>
</extensions>
</trkpt>
<trkpt lat="30.612209320" lon="34.804492950">
<ele>871.890625</ele>
<time>2013-11-23T06:06:04Z</time>
<extensions>
<speed>0.0</speed>
<temp>0.00</temp>
<bpm>0</bpm>
<rpm>0.00</rpm>
</extensions>
</trkpt>
<trkpt lat="30.612209320" lon="34.804492950">
<ele>871.890625</ele>
<time>2013-11-23T06:06:09Z</time>
<speed>0.020000</speed>
<extensions>
<speed>0.0</speed>
<temp>0.00</temp>
<bpm>0</bpm>
<rpm>0.00</rpm>
</extensions>
</trkpt>
<trkpt lat="30.612209320" lon="34.804492950">
<ele>871.875000</ele>
<time>2013-11-23T06:06:14Z</time>
<speed>0.020000</speed>
<extensions>
<speed>0.0</speed>
<temp>0.00</temp>
<bpm>0</bpm>
<rpm>0.00</rpm>
</extensions>
</trkpt>
<trkpt lat="30.612209320" lon="34.804492950">
<ele>871.828125</ele>
<time>2013-11-23T06:06:19Z</time>
<speed>0.010000</speed>
<extensions>
<speed>0.0</speed>
<temp>0.00</temp>
<bpm>0</bpm>
<rpm>0.00</rpm>
</extensions>
</trkpt>
<trkpt lat="30.612209320" lon="34.804492950">
<ele>871.812500</ele>
<time>2013-11-23T06:06:24Z</time>
<speed>0.020000</speed>
<extensions>
<speed>0.0</speed>
<temp>0.00</temp>
<bpm>0</bpm>
<rpm>0.00</rpm>
</extensions>
</trkpt>
<trkpt lat="30.612211227" lon="34.804492950">
<ele>871.734375</ele>
<time>2013-11-23T06:06:29Z</time>
<speed>0.020000</speed>
<extensions>
<speed>0.0</speed>
<temp>0.00</temp>
<bpm>0</bpm>
<rpm>0.00</rpm>
</extensions>
</trkpt>
<trkpt lat="30.612211227" lon="34.804492950">
<ele>871.718750</ele>
<time>2013-11-23T06:06:34Z</time>
<speed>0.030000</speed>
<extensions>
<speed>0.0</speed>
<temp>0.00</temp>
<bpm>0</bpm>
<rpm>0.00</rpm>
</extensions>
</trkpt>
<trkpt lat="30.612211227" lon="34.804492950">
<ele>871.625000</ele>
<time>2013-11-23T06:06:39Z</time>
<extensions>
<speed>0.0</speed>
<temp>0.00</temp>
<bpm>0</bpm>
<rpm>0.00</rpm>
</extensions>
</trkpt>
<trkpt lat="30.612211227" lon="34.804492950">
<ele>871.531250</ele>
<time>2013-11-23T06:06:44Z</time>
<extensions>
<speed>0.0</speed>
<temp>0.00</temp>
<bpm>0</bpm>
<rpm>0.00</rpm>
</extensions>
</trkpt>
<trkpt lat="30.612211227" lon="34.804492950">
<ele>871.453125</ele>
<time>2013-11-23T06:06:49Z</time>
<speed>0.020000</speed>
<extensions>
<speed>0.0</speed>
<temp>0.00</temp>
<bpm>0</bpm>
<rpm>0.00</rpm>
</extensions>
</trkpt>
<trkpt lat="30.612213135" lon="34.804496765">
<ele>871.406250</ele>
<time>2013-11-23T06:06:54Z</time>
<speed>0.020000</speed>
<extensions>
<speed>0.0</speed>
<temp>0.00</temp>
<bpm>0</bpm>
<rpm>0.00</rpm>
</extensions>
</trkpt>
<trkpt lat="30.612213135" lon="34.804496765">
<ele>871.390625</ele>
<time>2013-11-23T06:06:59Z</time>
<speed>0.010000</speed>
<extensions>
<speed>0.0</speed>
<temp>0.00</temp>
<bpm>0</bpm>
<rpm>0.00</rpm>
</extensions>
</trkpt>
<trkpt lat="30.612213135" lon="34.804496765">
<ele>871.359375</ele>
<time>2013-11-23T06:07:04Z</time>
<extensions>
<speed>0.0</speed>
<temp>0.00</temp>
<bpm>0</bpm>
<rpm>0.00</rpm>
</extensions>
</trkpt>
<trkpt lat="30.612213135" lon="34.804496765">
<ele>871.281250</ele>
<time>2013-11-23T06:07:09Z</time>
<speed>0.020000</speed>
<extensions>
<speed>0.0</speed>
<temp>0.00</temp>
<bpm>0</bpm>
<rpm>0.00</rpm>
</extensions>
</trkpt>
<trkpt lat="30.612213135" lon="34.804492950">
<ele>871.218750</ele>
<time>2013-11-23T06:07:14Z</time>
<speed>0.010000</speed>
<extensions>
<speed>0.0</speed>
<temp>0.00</temp>
<bpm>0</bpm>
<rpm>0.00</rpm>
</extensions>
</trkpt>
<trkpt lat="30.612213135" lon="34.804492950">
<ele>871.203125</ele>
<time>2013-11-23T06:07:19Z</time>
<speed>0.030000</speed>
<extensions>
<speed>0.0</speed>
<temp>0.00</temp>
<bpm>0</bpm>
<rpm>0.00</rpm>
</extensions>
</trkpt>
<trkpt lat="30.612268448" lon="34.804531097">
<ele>870.140625</ele>
<time>2013-11-23T06:07:24Z</time>
<speed>0.470000</speed>
<extensions>
<speed>0.5</speed>
<temp>0.00</temp>
<bpm>0</bpm>
<rpm>0.00</rpm>
</extensions>
</trkpt>
<trkpt lat="30.612329483" lon="34.804580688">
<ele>868.906250</ele>
<time>2013-11-23T06:07:29Z</time>
<speed>0.010000</speed>
<extensions>
<speed>0.0</speed>
<temp>0.00</temp>
<bpm>0</bpm>
<rpm>0.00</rpm>
</extensions>
</trkpt>
<trkpt lat="30.612329483" lon="34.804580688">
<ele>868.796875</ele>
<time>2013-11-23T06:07:34Z</time>
<extensions>
<speed>0.0</speed>
<temp>0.00</temp>
<bpm>0</bpm>
<rpm>0.00</rpm>
</extensions>
</trkpt>
<trkpt lat="30.612329483" lon="34.804580688">
<ele>868.781250</ele>
<time>2013-11-23T06:07:39Z</time>
<speed>0.010000</speed>
<extensions>
<speed>0.0</speed>
<temp>0.00</temp>
<bpm>0</bpm>
<rpm>0.00</rpm>
</extensions>
</trkpt>
<trkpt lat="30.612329483" lon="34.804580688">
<ele>868.765625</ele>
<time>2013-11-23T06:07:44Z</time>
<extensions>
<speed>0.0</speed>
<temp>0.00</temp>
<bpm>0</bpm>
<rpm>0.00</rpm>
</extensions>
</trkpt>
<trkpt lat="30.612329483" lon="34.804580688">
<ele>868.750000</ele>
<time>2013-11-23T06:07:49Z</time>
<speed>0.010000</speed>
<extensions>
<speed>0.0</speed>
<temp>0.00</temp>
<bpm>0</bpm>
<rpm>0.00</rpm>
</extensions>
</trkpt>
<trkpt lat="30.612329483" lon="34.804580688">
<ele>868.718750</ele>
<time>2013-11-23T06:07:54Z</time>
<extensions>
<speed>0.0</speed>
<temp>0.00</temp>
<bpm>0</bpm>
<rpm>0.00</rpm>
</extensions>
</trkpt>
<trkpt lat="30.612327576" lon="34.804546356">
<ele>868.578125</ele>
<time>2013-11-23T06:07:59Z</time>
<speed>0.870000</speed>
<extensions>
<speed>0.9</speed>
<temp>0.00</temp>
<bpm>0</bpm>
<rpm>0.00</rpm>
</extensions>
</trkpt>
<trkpt lat="30.612333298" lon="34.804450989">
<ele>868.328125</ele>
<time>2013-11-23T06:08:04Z</time>
<speed>2.850000</speed>
<extensions>
<speed>2.9</speed>
<temp>0.00</temp>
<bpm>0</bpm>
<rpm>0.00</rpm>
</extensions>
</trkpt>
<trkpt lat="30.612295151" lon="34.804431915">
<ele>865.734375</ele>
<time>2013-11-23T06:08:09Z</time>
<speed>2.110000</speed>
<extensions>
<speed>2.1</speed>
<temp>0.00</temp>
<bpm>0</bpm>
<rpm>0.00</rpm>
</extensions>
</trkpt>
<trkpt lat="30.612224579" lon="34.804420471">
<ele>863.531250</ele>
<time>2013-11-23T06:08:14Z</time>
<speed>1.250000</speed>
<extensions>
<speed>1.3</speed>
<temp>0.00</temp>
<bpm>0</bpm>
<rpm>0.00</rpm>
</extensions>
</trkpt>
<trkpt lat="30.612232208" lon="34.804382324">
<ele>860.359375</ele>
<time>2013-11-23T06:08:19Z</time>
<speed>1.440000</speed>
<extensions>
<speed>1.4</speed>
<temp>0.00</temp>
<bpm>0</bpm>
<rpm>0.00</rpm>
</extensions>
</trkpt>
<trkpt lat="30.612281799" lon="34.804321289">
<ele>858.640625</ele>
<time>2013-11-23T06:08:24Z</time>
<speed>2.560000</speed>
<extensions>
<speed>2.6</speed>
<temp>0.00</temp>
<bpm>0</bpm>
<rpm>0.00</rpm>
</extensions>
</trkpt>
<trkpt lat="30.612428665" lon="34.804271698">
<ele>856.765625</ele>
<time>2013-11-23T06:08:29Z</time>
<speed>4.500000</speed>
<extensions>
<speed>4.5</speed>
<temp>0.00</temp>
<bpm>0</bpm>
<rpm>0.00</rpm>
</extensions>
</trkpt>
<trkpt lat="30.612665176" lon="34.804344177">
<ele>854.968750</ele>
<time>2013-11-23T06:08:34Z</time>
<speed>5.760000</speed>
<extensions>
<speed>5.8</speed>
<temp>0.00</temp>
<bpm>0</bpm>
<rpm>0.00</rpm>
</extensions>
</trkpt>
<trkpt lat="30.612897873" lon="34.804431915">
<ele>854.031250</ele>
<time>2013-11-23T06:08:39Z</time>
<speed>4.580000</speed>
<extensions>
<speed>4.6</speed>
<temp>0.00</temp>
<bpm>0</bpm>
<rpm>0.00</rpm>
</extensions>
</trkpt>
<trkpt lat="30.613100052" lon="34.804336548">
<ele>852.546875</ele>
<time>2013-11-23T06:08:44Z</time>
<speed>5.490000</speed>
<extensions>
<speed>5.5</speed>
<temp>0.00</temp>
<bpm>0</bpm>
<rpm>0.00</rpm>
</extensions>
</trkpt>
<trkpt lat="30.613201141" lon="34.804084778">
<ele>848.812500</ele>
<time>2013-11-23T06:08:49Z</time>
<speed>5.660000</speed>
<extensions>
<speed>5.7</speed>
<temp>0.00</temp>
<bpm>0</bpm>
<rpm>0.00</rpm>
</extensions>
</trkpt>
<trkpt lat="30.613134384" lon="34.803829193">
<ele>847.187500</ele>
<time>2013-11-23T06:08:54Z</time>
<speed>4.690000</speed>
<extensions>
<speed>4.7</speed>
<temp>0.00</temp>
<bpm>0</bpm>
<rpm>0.00</rpm>
</extensions>
</trkpt>
<trkpt lat="30.613006592" lon="34.803707123">
<ele>846.937500</ele>
<time>2013-11-23T06:08:59Z</time>
<speed>3.590000</speed>
<extensions>
<speed>3.6</speed>
<temp>0.00</temp>
<bpm>0</bpm>
<rpm>0.00</rpm>
</extensions>
</trkpt>
<trkpt lat="30.612869263" lon="34.803668976">
<ele>847.031250</ele>
<time>2013-11-23T06:09:04Z</time>
<speed>2.900000</speed>
<extensions>
<speed>2.9</speed>
<temp>0.00</temp>
<bpm>0</bpm>
<rpm>0.00</rpm>
</extensions>
</trkpt>
<trkpt lat="30.612720490" lon="34.803623199">
<ele>846.937500</ele>
<time>2013-11-23T06:09:09Z</time>
<speed>3.950000</speed>
<extensions>
<speed>4.0</speed>
<temp>0.00</temp>
<bpm>0</bpm>
<rpm>0.00</rpm>
</extensions>
</trkpt>
<trkpt lat="30.612573624" lon="34.803489685">
<ele>846.218750</ele>
<time>2013-11-23T06:09:14Z</time>
<speed>4.340000</speed>
<extensions>
<speed>4.3</speed>
<temp>0.00</temp>
<bpm>0</bpm>
<rpm>0.00</rpm>
</extensions>
</trkpt>
<trkpt lat="30.612464905" lon="34.803333282">
<ele>846.312500</ele>
<time>2013-11-23T06:09:19Z</time>
<speed>3.740000</speed>
<extensions>
<speed>3.7</speed>
<temp>0.00</temp>
<bpm>0</bpm>
<rpm>0.00</rpm>
</extensions>
</trkpt>
<trkpt lat="30.612337112" lon="34.803184509">
<ele>846.687500</ele>
<time>2013-11-23T06:09:24Z</time>
<speed>3.840000</speed>
<extensions>
<speed>3.8</speed>
<temp>0.00</temp>
<bpm>0</bpm>
<rpm>0.00</rpm>
</extensions>
</trkpt>
<trkpt lat="30.612215042" lon="34.803047180">
<ele>846.734375</ele>
<time>2013-11-23T06:09:29Z</time>
<speed>3.330000</speed>
<extensions>
<speed>3.3</speed>
<temp>0.00</temp>
<bpm>0</bpm>
<rpm>0.00</rpm>
</extensions>
</trkpt>
<trkpt lat="30.612123489" lon="34.802944183">
<ele>845.562500</ele>
<time>2013-11-23T06:09:34Z</time>
<speed>2.750000</speed>
<extensions>
<speed>2.7</speed>
<temp>0.00</temp>
<bpm>0</bpm>
<rpm>0.00</rpm>
</extensions>
</trkpt>
<trkpt lat="30.611986160" lon="34.802837372">
<ele>845.656250</ele>
<time>2013-11-23T06:09:39Z</time>
<speed>3.890000</speed>
<extensions>
<speed>3.9</speed>
<temp>0.00</temp>
<bpm>0</bpm>
<rpm>0.00</rpm>
</extensions>
</trkpt>
<trkpt lat="30.611843109" lon="34.802711487">
<ele>845.343750</ele>
<time>2013-11-23T06:09:44Z</time>
<speed>3.870000</speed>
<extensions>
<speed>3.9</speed>
<temp>0.00</temp>
<bpm>0</bpm>
<rpm>0.00</rpm>
</extensions>
</trkpt>
<trkpt lat="30.611673355" lon="34.802585602">
<ele>844.781250</ele>
<time>2013-11-23T06:09:49Z</time>
<speed>4.000000</speed>
<extensions>
<speed>4.0</speed>
<temp>0.00</temp>
<bpm>0</bpm>
<rpm>0.00</rpm>
</extensions>
</trkpt>
<trkpt lat="30.611507416" lon="34.802471161">
<ele>844.828125</ele>
<time>2013-11-23T06:09:54Z</time>
<speed>4.080000</speed>
<extensions>
<speed>4.1</speed>
<temp>0.00</temp>
<bpm>0</bpm>
<rpm>0.00</rpm>
</extensions>
</trkpt>
<trkpt lat="30.611360550" lon="34.802394867">
<ele>845.546875</ele>
<time>2013-11-23T06:09:59Z</time>
<speed>2.370000</speed>
<extensions>
<speed>2.4</speed>
<temp>0.00</temp>
<bpm>0</bpm>
<rpm>0.00</rpm>
</extensions>
</trkpt>
<trkpt lat="30.611253738" lon="34.802349091">
<ele>844.875000</ele>
<time>2013-11-23T06:10:04Z</time>
<speed>2.600000</speed>
<extensions>
<speed>2.6</speed>
<temp>0.00</temp>
<bpm>0</bpm>
<rpm>0.00</rpm>
</extensions>
</trkpt>
<trkpt lat="30.611137390" lon="34.802295685">
<ele>844.312500</ele>
<time>2013-11-23T06:10:09Z</time>
<speed>2.620000</speed>
<extensions>
<speed>2.6</speed>
<temp>0.00</temp>
<bpm>0</bpm>
<rpm>0.00</rpm>
</extensions>
</trkpt>
<trkpt lat="30.611030579" lon="34.802223206">
<ele>843.421875</ele>
<time>2013-11-23T06:10:14Z</time>
<speed>3.280000</speed>
<extensions>
<speed>3.3</speed>
<temp>0.00</temp>
<bpm>0</bpm>
<rpm>0.00</rpm>
</extensions>
</trkpt>
<trkpt lat="30.610876083" lon="34.802146912">
<ele>844.468750</ele>
<time>2013-11-23T06:10:19Z</time>
<speed>3.630000</speed>
<extensions>
<speed>3.6</speed>
<temp>0.00</temp>
<bpm>0</bpm>
<rpm>0.00</rpm>
</extensions>
</trkpt>
<trkpt lat="30.610748291" lon="34.802078247">
<ele>844.500000</ele>
<time>2013-11-23T06:10:24Z</time>
<speed>3.200000</speed>
<extensions>
<speed>3.2</speed>
<temp>0.00</temp>
<bpm>0</bpm>
<rpm>0.00</rpm>
</extensions>
</trkpt>
<trkpt lat="30.610643387" lon="34.802009583">
<ele>844.046875</ele>
<time>2013-11-23T06:10:29Z</time>
<speed>2.360000</speed>
<extensions>
<speed>2.4</speed>
<temp>0.00</temp>
<bpm>0</bpm>
<rpm>0.00</rpm>
</extensions>
</trkpt>
<trkpt lat="30.610569000" lon="34.801963806">
<ele>844.109375</ele>
<time>2013-11-23T06:10:34Z</time>
<speed>1.510000</speed>
<extensions>
<speed>1.5</speed>
<temp>0.00</temp>
<bpm>0</bpm>
<rpm>0.00</rpm>
</extensions>
</trkpt>
<trkpt lat="30.610494614" lon="34.801921844">
<ele>843.859375</ele>
<time>2013-11-23T06:10:39Z</time>
<speed>2.040000</speed>
<extensions>
<speed>2.0</speed>
<temp>0.00</temp>
<bpm>0</bpm>
<rpm>0.00</rpm>
</extensions>
</trkpt>
<trkpt lat="30.610424042" lon="34.801845551">
<ele>843.109375</ele>
<time>2013-11-23T06:10:44Z</time>
<speed>2.580000</speed>
<extensions>
<speed>2.6</speed>
<temp>0.00</temp>
<bpm>0</bpm>
<rpm>0.00</rpm>
</extensions>
</trkpt>
<trkpt lat="30.610301971" lon="34.801765442">
<ele>843.484375</ele>
<time>2013-11-23T06:10:49Z</time>
<speed>3.180000</speed>
<extensions>
<speed>3.2</speed>
<temp>0.00</temp>
<bpm>0</bpm>
<rpm>0.00</rpm>
</extensions>
</trkpt>
<trkpt lat="30.610187531" lon="34.801666260">
<ele>842.890625</ele>
<time>2013-11-23T06:10:54Z</time>
<speed>2.850000</speed>
<extensions>
<speed>2.9</speed>
<temp>0.00</temp>
<bpm>0</bpm>
<rpm>0.00</rpm>
</extensions>
</trkpt>
<trkpt lat="30.610071182" lon="34.801582336">
<ele>843.671875</ele>
<time>2013-11-23T06:10:59Z</time>
<speed>2.740000</speed>
<extensions>
<speed>2.7</speed>
<temp>0.00</temp>
<bpm>0</bpm>
<rpm>0.00</rpm>
</extensions>
</trkpt>
<trkpt lat="30.609924316" lon="34.801521301">
<ele>845.531250</ele>
<time>2013-11-23T06:11:04Z</time>
<speed>2.620000</speed>
<extensions>
<speed>2.6</speed>
<temp>0.00</temp>
<bpm>0</bpm>
<rpm>0.00</rpm>
</extensions>
</trkpt>
<trkpt lat="30.609804153" lon="34.801445007">
<ele>847.062500</ele>
<time>2013-11-23T06:11:09Z</time>
<speed>2.770000</speed>
<extensions>
<speed>2.8</speed>
<temp>0.00</temp>
<bpm>0</bpm>
<rpm>0.00</rpm>
</extensions>
</trkpt>
<trkpt lat="30.609706879" lon="34.801368713">
<ele>847.593750</ele>
<time>2013-11-23T06:11:14Z</time>
<speed>2.350000</speed>
<extensions>
<speed>2.4</speed>
<temp>0.00</temp>
<bpm>0</bpm>
<rpm>0.00</rpm>
</extensions>
</trkpt>
<trkpt lat="30.609651566" lon="34.801303864">
<ele>847.421875</ele>
<time>2013-11-23T06:11:19Z</time>
<speed>1.560000</speed>
<extensions>
<speed>1.6</speed>
<temp>0.00</temp>
<bpm>0</bpm>
<rpm>0.00</rpm>
</extensions>
</trkpt>
<trkpt lat="30.609613419" lon="34.801223755">
<ele>847.484375</ele>
<time>2013-11-23T06:11:24Z</time>
<speed>2.080000</speed>
<extensions>
<speed>2.1</speed>
<temp>0.00</temp>
<bpm>0</bpm>
<rpm>0.00</rpm>
</extensions>
</trkpt>
<trkpt lat="30.609525681" lon="34.801166534">
<ele>848.062500</ele>
<time>2013-11-23T06:11:29Z</time>
<speed>2.070000</speed>
<extensions>
<speed>2.1</speed>
<temp>0.00</temp>
<bpm>0</bpm>
<rpm>0.00</rpm>
</extensions>
</trkpt>
<trkpt lat="30.609453201" lon="34.801158905">
<ele>847.968750</ele>
<time>2013-11-23T06:11:34Z</time>
<speed>1.120000</speed>
<extensions>
<speed>1.1</speed>
<temp>0.00</temp>
<bpm>0</bpm>
<rpm>0.00</rpm>
</extensions>
</trkpt>
<trkpt lat="30.609395981" lon="34.801132202">
<ele>848.171875</ele>
<time>2013-11-23T06:11:39Z</time>
<speed>1.500000</speed>
<extensions>
<speed>1.5</speed>
<temp>0.00</temp>
<bpm>0</bpm>
<rpm>0.00</rpm>
</extensions>
</trkpt>
<trkpt lat="30.609331131" lon="34.801082611">
<ele>848.062500</ele>
<time>2013-11-23T06:11:44Z</time>
<speed>2.300000</speed>
<extensions>
<speed>2.3</speed>
<temp>0.00</temp>
<bpm>0</bpm>
<rpm>0.00</rpm>
</extensions>
</trkpt>
<trkpt lat="30.609231949" lon="34.800994873">
<ele>848.562500</ele>
<time>2013-11-23T06:11:49Z</time>
<speed>2.850000</speed>
<extensions>
<speed>2.9</speed>
<temp>0.00</temp>
<bpm>0</bpm>
<rpm>0.00</rpm>
</extensions>
</trkpt>
<trkpt lat="30.609134674" lon="34.800891876">
<ele>848.734375</ele>
<time>2013-11-23T06:11:54Z</time>
<speed>2.790000</speed>
<extensions>
<speed>2.8</speed>
<temp>0.00</temp>
<bpm>0</bpm>
<rpm>0.00</rpm>
</extensions>
</trkpt>
<trkpt lat="30.609027863" lon="34.800823212">
<ele>849.671875</ele>
<time>2013-11-23T06:11:59Z</time>
<speed>2.100000</speed>
<extensions>
<speed>2.1</speed>
<temp>0.00</temp>
<bpm>0</bpm>
<rpm>0.00</rpm>
</extensions>
</trkpt>
<trkpt lat="30.608949661" lon="34.800765991">
<ele>850.531250</ele>
<time>2013-11-23T06:12:04Z</time>
<speed>1.700000</speed>
<extensions>
<speed>1.7</speed>
<temp>0.00</temp>
<bpm>0</bpm>
<rpm>0.00</rpm>
</extensions>
</trkpt>
<trkpt lat="30.608860016" lon="34.800678253">
<ele>851.390625</ele>
<time>2013-11-23T06:12:09Z</time>
<speed>3.060000</speed>
<extensions>
<speed>3.1</speed>
<temp>0.00</temp>
<bpm>0</bpm>
<rpm>0.00</rpm>
</extensions>
</trkpt>
<trkpt lat="30.608762741" lon="34.800563812">
<ele>851.156250</ele>
<time>2013-11-23T06:12:14Z</time>
<speed>3.180000</speed>
<extensions>
<speed>3.2</speed>
<temp>0.00</temp>
<bpm>0</bpm>
<rpm>0.00</rpm>
</extensions>
</trkpt>
<trkpt lat="30.608676910" lon="34.800434113">
<ele>851.015625</ele>
<time>2013-11-23T06:12:19Z</time>
<speed>2.800000</speed>
<extensions>
<speed>2.8</speed>
<temp>0.00</temp>
<bpm>0</bpm>
<rpm>0.00</rpm>
</extensions>
</trkpt>
<trkpt lat="30.608596802" lon="34.800308228">
<ele>850.359375</ele>
<time>2013-11-23T06:12:24Z</time>
<speed>3.290000</speed>
<extensions>
<speed>3.3</speed>
<temp>0.00</temp>
<bpm>0</bpm>
<rpm>0.00</rpm>
</extensions>
</trkpt>
<trkpt lat="30.608510971" lon="34.800148010">
<ele>849.703125</ele>
<time>2013-11-23T06:12:29Z</time>
<speed>4.090000</speed>
<extensions>
<speed>4.1</speed>
<temp>0.00</temp>
<bpm>0</bpm>
<rpm>0.00</rpm>
</extensions>
</trkpt>
<trkpt lat="30.608352661" lon="34.799942017">
<ele>850.468750</ele>
<time>2013-11-23T06:12:34Z</time>
<speed>5.650000</speed>
<extensions>
<speed>5.7</speed>
<temp>0.00</temp>
<bpm>0</bpm>
<rpm>0.00</rpm>
</extensions>
</trkpt>
<trkpt lat="30.608205795" lon="34.799648285">
<ele>849.062500</ele>
<time>2013-11-23T06:12:39Z</time>
<speed>6.260000</speed>
<extensions>
<speed>6.3</speed>
<temp>0.00</temp>
<bpm>0</bpm>
<rpm>0.00</rpm>
</extensions>
</trkpt>
<trkpt lat="30.608118057" lon="34.799362183">
<ele>847.453125</ele>
<time>2013-11-23T06:12:44Z</time>
<speed>5.570000</speed>
<extensions>
<speed>5.6</speed>
<temp>0.00</temp>
<bpm>0</bpm>
<rpm>0.00</rpm>
</extensions>
</trkpt>
<trkpt lat="30.608064651" lon="34.799060822">
<ele>845.250000</ele>
<time>2013-11-23T06:12:49Z</time>
<speed>6.580000</speed>
<extensions>
<speed>6.6</speed>
<temp>0.00</temp>
<bpm>0</bpm>
<rpm>0.00</rpm>
</extensions>
</trkpt>
<trkpt lat="30.608047485" lon="34.798686981">
<ele>842.359375</ele>
<time>2013-11-23T06:12:54Z</time>
<speed>7.070000</speed>
<extensions>
<speed>7.1</speed>
<temp>0.00</temp>
<bpm>0</bpm>
<rpm>0.00</rpm>
</extensions>
</trkpt>
<trkpt lat="30.608011246" lon="34.798339844">
<ele>841.140625</ele>
<time>2013-11-23T06:12:59Z</time>
<speed>6.390000</speed>
<extensions>
<speed>6.4</speed>
<temp>0.00</temp>
<bpm>0</bpm>
<rpm>0.00</rpm>
</extensions>
</trkpt>
<trkpt lat="30.608053207" lon="34.798065186">
<ele>839.656250</ele>
<time>2013-11-23T06:13:04Z</time>
<speed>5.250000</speed>
<extensions>
<speed>5.2</speed>
<temp>0.00</temp>
<bpm>0</bpm>
<rpm>0.00</rpm>
</extensions>
</trkpt>
<trkpt lat="30.608139038" lon="34.797805786">
<ele>838.828125</ele>
<time>2013-11-23T06:13:09Z</time>
<speed>5.550000</speed>
<extensions>
<speed>5.5</speed>
<temp>0.00</temp>
<bpm>0</bpm>
<rpm>0.00</rpm>
</extensions>
</trkpt>
<trkpt lat="30.608263016" lon="34.797531128">
<ele>837.500000</ele>
<time>2013-11-23T06:13:14Z</time>
<speed>6.310000</speed>
<extensions>
<speed>6.3</speed>
<temp>0.00</temp>
<bpm>0</bpm>
<rpm>0.00</rpm>
</extensions>
</trkpt>
<trkpt lat="30.608406067" lon="34.797222137">
<ele>835.890625</ele>
<time>2013-11-23T06:13:19Z</time>
<speed>7.200000</speed>
<extensions>
<speed>7.2</speed>
<temp>0.00</temp>
<bpm>0</bpm>
<rpm>0.00</rpm>
</extensions>
</trkpt>
<trkpt lat="30.608581543" lon="34.796848297">
<ele>833.203125</ele>
<time>2013-11-23T06:13:24Z</time>
<speed>8.690000</speed>
<extensions>
<speed>8.7</speed>
<temp>0.00</temp>
<bpm>0</bpm>
<rpm>0.00</rpm>
</extensions>
</trkpt>
<trkpt lat="30.608797073" lon="34.796409607">
<ele>830.140625</ele>
<time>2013-11-23T06:13:29Z</time>
<speed>10.050000</speed>
<extensions>
<speed>10.1</speed>
<temp>0.00</temp>
<bpm>0</bpm>
<rpm>0.00</rpm>
</extensions>
</trkpt>
<trkpt lat="30.609014511" lon="34.795932770">
<ele>827.843750</ele>
<time>2013-11-23T06:13:34Z</time>
<speed>10.130000</speed>
<extensions>
<speed>10.1</speed>
<temp>0.00</temp>
<bpm>0</bpm>
<rpm>0.00</rpm>
</extensions>
</trkpt>
<trkpt lat="30.609157562" lon="34.795616150">
<ele>827.093750</ele>
<time>2013-11-23T06:13:39Z</time>
<speed>3.970000</speed>
<extensions>
<speed>4.0</speed>
<temp>0.00</temp>
<bpm>0</bpm>
<rpm>0.00</rpm>
</extensions>
</trkpt>
<trkpt lat="30.609193802" lon="34.795543671">
<ele>826.250000</ele>
<time>2013-11-23T06:13:44Z</time>
<speed>1.370000</speed>
<extensions>
<speed>1.4</speed>
<temp>0.00</temp>
<bpm>0</bpm>
<rpm>0.00</rpm>
</extensions>
</trkpt>
<trkpt lat="30.609146118" lon="34.795635223">
<ele>826.703125</ele>
<time>2013-11-23T06:13:49Z</time>
<speed>2.990000</speed>
<extensions>
<speed>3.0</speed>
<temp>0.00</temp>
<bpm>0</bpm>
<rpm>0.00</rpm>
</extensions>
</trkpt>
<trkpt lat="30.609052658" lon="34.795795441">
<ele>827.156250</ele>
<time>2013-11-23T06:13:54Z</time>
<speed>4.120000</speed>
<extensions>
<speed>4.1</speed>
<temp>0.00</temp>
<bpm>0</bpm>
<rpm>0.00</rpm>
</extensions>
</trkpt>
<trkpt lat="30.608959198" lon="34.795989990">
<ele>827.453125</ele>
<time>2013-11-23T06:13:59Z</time>
<speed>4.290000</speed>
<extensions>
<speed>4.3</speed>
<temp>0.00</temp>
<bpm>0</bpm>
<rpm>0.00</rpm>
</extensions>
</trkpt>
<trkpt lat="30.608871460" lon="34.796188354">
<ele>828.046875</ele>
<time>2013-11-23T06:14:04Z</time>
<speed>4.190000</speed>
<extensions>
<speed>4.2</speed>
<temp>0.00</temp>
<bpm>0</bpm>
<rpm>0.00</rpm>
</extensions>
</trkpt>
<trkpt lat="30.608781815" lon="34.796386719">
<ele>828.828125</ele>
<time>2013-11-23T06:14:09Z</time>
<speed>4.130000</speed>
<extensions>
<speed>4.1</speed>
<temp>0.00</temp>
<bpm>0</bpm>
<rpm>0.00</rpm>
</extensions>
</trkpt>
<trkpt lat="30.608686447" lon="34.796581268">
<ele>829.890625</ele>
<time>2013-11-23T06:14:14Z</time>
<speed>4.480000</speed>
<extensions>
<speed>4.5</speed>
<temp>0.00</temp>
<bpm>0</bpm>
<rpm>0.00</rpm>
</extensions>
</trkpt>
<trkpt lat="30.608594894" lon="34.796760559">
<ele>830.718750</ele>
<time>2013-11-23T06:14:19Z</time>
<speed>3.120000</speed>
<extensions>
<speed>3.1</speed>
<temp>0.00</temp>
<bpm>0</bpm>
<rpm>0.00</rpm>
</extensions>
</trkpt>
<trkpt lat="30.608530045" lon="34.796909332">
<ele>831.625000</ele>
<time>2013-11-23T06:14:24Z</time>
<speed>3.500000</speed>
<extensions>
<speed>3.5</speed>
<temp>0.00</temp>
<bpm>0</bpm>
<rpm>0.00</rpm>
</extensions>
</trkpt>
<trkpt lat="30.608453751" lon="34.797058105">
<ele>832.531250</ele>
<time>2013-11-23T06:14:29Z</time>
<speed>3.160000</speed>
<extensions>
<speed>3.2</speed>
<temp>0.00</temp>
<bpm>0</bpm>
<rpm>0.00</rpm>
</extensions>
</trkpt>
<trkpt lat="30.608373642" lon="34.797199249">
<ele>833.718750</ele>
<time>2013-11-23T06:14:34Z</time>
<speed>3.770000</speed>
<extensions>
<speed>3.8</speed>
<temp>0.00</temp>
<bpm>0</bpm>
<rpm>0.00</rpm>
</extensions>
</trkpt>
<trkpt lat="30.608295441" lon="34.797363281">
<ele>834.421875</ele>
<time>2013-11-23T06:14:39Z</time>
<speed>3.420000</speed>
<extensions>
<speed>3.4</speed>
<temp>0.00</temp>
<bpm>0</bpm>
<rpm>0.00</rpm>
</extensions>
</trkpt>
<trkpt lat="30.608217239" lon="34.797550201">
<ele>835.218750</ele>
<time>2013-11-23T06:14:44Z</time>
<speed>4.140000</speed>
<extensions>
<speed>4.1</speed>
<temp>0.00</temp>
<bpm>0</bpm>
<rpm>0.00</rpm>
</extensions>
</trkpt>
<trkpt lat="30.608133316" lon="34.797744751">
<ele>835.765625</ele>
<time>2013-11-23T06:14:49Z</time>
<speed>4.140000</speed>
<extensions>
<speed>4.1</speed>
<temp>0.00</temp>
<bpm>0</bpm>
<rpm>0.00</rpm>
</extensions>
</trkpt>
<trkpt lat="30.608070374" lon="34.797939301">
<ele>836.140625</ele>
<time>2013-11-23T06:14:54Z</time>
<speed>3.100000</speed>
<extensions>
<speed>3.1</speed>
<temp>0.00</temp>
<bpm>0</bpm>
<rpm>0.00</rpm>
</extensions>
</trkpt>
<trkpt lat="30.608026505" lon="34.798095703">
<ele>836.640625</ele>
<time>2013-11-23T06:14:59Z</time>
<speed>3.710000</speed>
<extensions>
<speed>3.7</speed>
<temp>0.00</temp>
<bpm>0</bpm>
<rpm>0.00</rpm>
</extensions>
</trkpt>
<trkpt lat="30.607980728" lon="34.798278809">
<ele>837.437500</ele>
<time>2013-11-23T06:15:04Z</time>
<speed>3.720000</speed>
<extensions>
<speed>3.7</speed>
<temp>0.00</temp>
<bpm>0</bpm>
<rpm>0.00</rpm>
</extensions>
</trkpt>
<trkpt lat="30.607955933" lon="34.798442841">
<ele>838.062500</ele>
<time>2013-11-23T06:15:09Z</time>
<speed>2.920000</speed>
<extensions>
<speed>2.9</speed>
<temp>0.00</temp>
<bpm>0</bpm>
<rpm>0.00</rpm>
</extensions>
</trkpt>
<trkpt lat="30.607944489" lon="34.798625946">
<ele>838.765625</ele>
<time>2013-11-23T06:15:14Z</time>
<speed>3.770000</speed>
<extensions>
<speed>3.8</speed>
<temp>0.00</temp>
<bpm>0</bpm>
<rpm>0.00</rpm>
</extensions>
</trkpt>
<trkpt lat="30.607933044" lon="34.798786163">
<ele>839.687500</ele>
<time>2013-11-23T06:15:19Z</time>
<speed>2.110000</speed>
<extensions>
<speed>2.1</speed>
<temp>0.00</temp>
<bpm>0</bpm>
<rpm>0.00</rpm>
</extensions>
</trkpt>
<trkpt lat="30.607934952" lon="34.798908234">
<ele>840.562500</ele>
<time>2013-11-23T06:15:24Z</time>
<speed>2.410000</speed>
<extensions>
<speed>2.4</speed>
<temp>0.00</temp>
<bpm>0</bpm>
<rpm>0.00</rpm>
</extensions>
</trkpt>
<trkpt lat="30.607881546" lon="34.799011230">
<ele>841.078125</ele>
<time>2013-11-23T06:15:29Z</time>
<speed>1.770000</speed>
<extensions>
<speed>1.8</speed>
<temp>0.00</temp>
<bpm>0</bpm>
<rpm>0.00</rpm>
</extensions>
</trkpt>
<trkpt lat="30.607818604" lon="34.799057007">
<ele>841.421875</ele>
<time>2013-11-23T06:15:34Z</time>
<speed>1.230000</speed>
<extensions>
<speed>1.2</speed>
<temp>0.00</temp>
<bpm>0</bpm>
<rpm>0.00</rpm>
</extensions>
</trkpt>
<trkpt lat="30.607839584" lon="34.799098969">
<ele>841.953125</ele>
<time>2013-11-23T06:15:39Z</time>
<speed>2.520000</speed>
<extensions>
<speed>2.5</speed>
<temp>0.00</temp>
<bpm>0</bpm>
<rpm>0.00</rpm>
</extensions>
</trkpt>
<trkpt lat="30.607929230" lon="34.799179077">
<ele>842.531250</ele>
<time>2013-11-23T06:15:44Z</time>
<speed>2.980000</speed>
<extensions>
<speed>3.0</speed>
<temp>0.00</temp>
<bpm>0</bpm>
<rpm>0.00</rpm>
</extensions>
</trkpt>
<trkpt lat="30.607954025" lon="34.799316406">
<ele>843.296875</ele>
<time>2013-11-23T06:15:49Z</time>
<speed>2.120000</speed>
<extensions>
<speed>2.1</speed>
<temp>0.00</temp>
<bpm>0</bpm>
<rpm>0.00</rpm>
</extensions>
</trkpt>
<trkpt lat="30.607978821" lon="34.799396515">
<ele>844.000000</ele>
<time>2013-11-23T06:15:54Z</time>
<speed>1.950000</speed>
<extensions>
<speed>1.9</speed>
<temp>0.00</temp>
<bpm>0</bpm>
<rpm>0.00</rpm>
</extensions>
</trkpt>
<trkpt lat="30.608005524" lon="34.799488068">
<ele>844.500000</ele>
<time>2013-11-23T06:15:59Z</time>
<speed>1.970000</speed>
<extensions>
<speed>2.0</speed>
<temp>0.00</temp>
<bpm>0</bpm>
<rpm>0.00</rpm>
</extensions>
</trkpt>
<trkpt lat="30.608028412" lon="34.799594879">
<ele>845.375000</ele>
<time>2013-11-23T06:16:04Z</time>
<speed>2.360000</speed>
<extensions>
<speed>2.4</speed>
<temp>0.00</temp>
<bpm>0</bpm>
<rpm>0.00</rpm>
</extensions>
</trkpt>
<trkpt lat="30.608068466" lon="34.799705505">
<ele>846.140625</ele>
<time>2013-11-23T06:16:09Z</time>
<speed>2.320000</speed>
<extensions>
<speed>2.3</speed>
<temp>0.00</temp>
<bpm>0</bpm>
<rpm>0.00</rpm>
</extensions>
</trkpt>
<trkpt lat="30.608110428" lon="34.799827576">
<ele>846.765625</ele>
<time>2013-11-23T06:16:14Z</time>
<speed>2.560000</speed>
<extensions>
<speed>2.6</speed>
<temp>0.00</temp>
<bpm>0</bpm>
<rpm>0.00</rpm>
</extensions>
</trkpt>
<trkpt lat="30.608152390" lon="34.799938202">
<ele>847.546875</ele>
<time>2013-11-23T06:16:19Z</time>
<speed>1.920000</speed>
<extensions>
<speed>1.9</speed>
<temp>0.00</temp>
<bpm>0</bpm>
<rpm>0.00</rpm>
</extensions>
</trkpt>
<trkpt lat="30.608203888" lon="34.800045013">
<ele>848.265625</ele>
<time>2013-11-23T06:16:24Z</time>
<speed>2.620000</speed>
<extensions>
<speed>2.6</speed>
<temp>0.00</temp>
<bpm>0</bpm>
<rpm>0.00</rpm>
</extensions>
</trkpt>
<trkpt lat="30.608257294" lon="34.800170898">
<ele>848.718750</ele>
<time>2013-11-23T06:16:29Z</time>
<speed>2.830000</speed>
<extensions>
<speed>2.8</speed>
<temp>0.00</temp>
<bpm>0</bpm>
<rpm>0.00</rpm>
</extensions>
</trkpt>
<trkpt lat="30.608333588" lon="34.800296783">
<ele>849.046875</ele>
<time>2013-11-23T06:16:34Z</time>
<speed>2.390000</speed>
<extensions>
<speed>2.4</speed>
<temp>0.00</temp>
<bpm>0</bpm>
<rpm>0.00</rpm>
</extensions>
</trkpt>
<trkpt lat="30.608394623" lon="34.800415039">
<ele>849.218750</ele>
<time>2013-11-23T06:16:39Z</time>
<speed>2.900000</speed>
<extensions>
<speed>2.9</speed>
<temp>0.00</temp>
<bpm>0</bpm>
<rpm>0.00</rpm>
</extensions>
</trkpt>
<trkpt lat="30.608495712" lon="34.800548553">
<ele>849.140625</ele>
<time>2013-11-23T06:16:44Z</time>
<speed>3.640000</speed>
<extensions>
<speed>3.6</speed>
<temp>0.00</temp>
<bpm>0</bpm>
<rpm>0.00</rpm>
</extensions>
</trkpt>
<trkpt lat="30.608608246" lon="34.800689697">
<ele>848.859375</ele>
<time>2013-11-23T06:16:49Z</time>
<speed>3.880000</speed>
<extensions>
<speed>3.9</speed>
<temp>0.00</temp>
<bpm>0</bpm>
<rpm>0.00</rpm>
</extensions>
</trkpt>
<trkpt lat="30.608734131" lon="34.800838470">
<ele>848.062500</ele>
<time>2013-11-23T06:16:54Z</time>
<speed>4.120000</speed>
<extensions>
<speed>4.1</speed>
<temp>0.00</temp>
<bpm>0</bpm>
<rpm>0.00</rpm>
</extensions>
</trkpt>
<trkpt lat="30.608900070" lon="34.800994873">
<ele>846.609375</ele>
<time>2013-11-23T06:16:59Z</time>
<speed>5.200000</speed>
<extensions>
<speed>5.2</speed>
<temp>0.00</temp>
<bpm>0</bpm>
<rpm>0.00</rpm>
</extensions>
</trkpt>
<trkpt lat="30.609130859" lon="34.801170349">
<ele>844.468750</ele>
<time>2013-11-23T06:17:04Z</time>
<speed>6.840000</speed>
<extensions>
<speed>6.8</speed>
<temp>0.00</temp>
<bpm>0</bpm>
<rpm>0.00</rpm>
</extensions>
</trkpt>
<trkpt lat="30.609350204" lon="34.801353455">
<ele>842.218750</ele>
<time>2013-11-23T06:17:09Z</time>
<speed>5.510000</speed>
<extensions>
<speed>5.5</speed>
<temp>0.00</temp>
<bpm>0</bpm>
<rpm>0.00</rpm>
</extensions>
</trkpt>
<trkpt lat="30.609304428" lon="34.801605225">
<ele>840.796875</ele>
<time>2013-11-23T06:17:14Z</time>
<speed>5.210000</speed>
<extensions>
<speed>5.2</speed>
<temp>0.00</temp>
<bpm>0</bpm>
<rpm>0.00</rpm>
</extensions>
</trkpt>
<trkpt lat="30.609119415" lon="34.801753998">
<ele>840.734375</ele>
<time>2013-11-23T06:17:19Z</time>
<speed>4.600000</speed>
<extensions>
<speed>4.6</speed>
<temp>0.00</temp>
<bpm>0</bpm>
<rpm>0.00</rpm>
</extensions>
</trkpt>
<trkpt lat="30.608945847" lon="34.801704407">
<ele>841.468750</ele>
<time>2013-11-23T06:17:24Z</time>
<speed>3.060000</speed>
<extensions>
<speed>3.1</speed>
<temp>0.00</temp>
<bpm>0</bpm>
<rpm>0.00</rpm>
</extensions>
</trkpt>
<trkpt lat="30.608814240" lon="34.801647186">
<ele>841.906250</ele>
<time>2013-11-23T06:17:29Z</time>
<speed>3.530000</speed>
<extensions>
<speed>3.5</speed>
<temp>0.00</temp>
<bpm>0</bpm>
<rpm>0.00</rpm>
</extensions>
</trkpt>
<trkpt lat="30.608659744" lon="34.801574707">
<ele>842.187500</ele>
<time>2013-11-23T06:17:34Z</time>
<speed>3.910000</speed>
<extensions>
<speed>3.9</speed>
<temp>0.00</temp>
<bpm>0</bpm>
<rpm>0.00</rpm>
</extensions>
</trkpt>
<trkpt lat="30.608530045" lon="34.801525116">
<ele>842.546875</ele>
<time>2013-11-23T06:17:39Z</time>
<speed>3.200000</speed>
<extensions>
<speed>3.2</speed>
<temp>0.00</temp>
<bpm>0</bpm>
<rpm>0.00</rpm>
</extensions>
</trkpt>
<trkpt lat="30.608444214" lon="34.801406860">
<ele>842.859375</ele>
<time>2013-11-23T06:17:44Z</time>
<speed>3.220000</speed>
<extensions>
<speed>3.2</speed>
<temp>0.00</temp>
<bpm>0</bpm>
<rpm>0.00</rpm>
</extensions>
</trkpt>
<trkpt lat="30.608364105" lon="34.801284790">
<ele>843.250000</ele>
<time>2013-11-23T06:17:49Z</time>
<speed>2.490000</speed>
<extensions>
<speed>2.5</speed>
<temp>0.00</temp>
<bpm>0</bpm>
<rpm>0.00</rpm>
</extensions>
</trkpt>
<trkpt lat="30.608245850" lon="34.801204681">
<ele>844.140625</ele>
<time>2013-11-23T06:17:54Z</time>
<speed>2.710000</speed>
<extensions>
<speed>2.7</speed>
<temp>0.00</temp>
<bpm>0</bpm>
<rpm>0.00</rpm>
</extensions>
</trkpt>
<trkpt lat="30.608144760" lon="34.801143646">
<ele>844.828125</ele>
<time>2013-11-23T06:17:59Z</time>
<speed>2.350000</speed>
<extensions>
<speed>2.4</speed>
<temp>0.00</temp>
<bpm>0</bpm>
<rpm>0.00</rpm>
</extensions>
</trkpt>
<trkpt lat="30.608058929" lon="34.801048279">
<ele>845.703125</ele>
<time>2013-11-23T06:18:04Z</time>
<speed>2.860000</speed>
<extensions>
<speed>2.9</speed>
<temp>0.00</temp>
<bpm>0</bpm>
<rpm>0.00</rpm>
</extensions>
</trkpt>
<trkpt lat="30.607957840" lon="34.800956726">
<ele>846.250000</ele>
<time>2013-11-23T06:18:09Z</time>
<speed>2.900000</speed>
<extensions>
<speed>2.9</speed>
<temp>0.00</temp>
<bpm>0</bpm>
<rpm>0.00</rpm>
</extensions>
</trkpt>
<trkpt lat="30.607852936" lon="34.800861359">
<ele>846.984375</ele>
<time>2013-11-23T06:18:14Z</time>
<speed>2.110000</speed>
<extensions>
<speed>2.1</speed>
<temp>0.00</temp>
<bpm>0</bpm>
<rpm>0.00</rpm>
</extensions>
</trkpt>
<trkpt lat="30.607740402" lon="34.800823212">
<ele>847.937500</ele>
<time>2013-11-23T06:18:19Z</time>
<speed>2.340000</speed>
<extensions>
<speed>2.3</speed>
<temp>0.00</temp>
<bpm>0</bpm>
<rpm>0.00</rpm>
</extensions>
</trkpt>
<trkpt lat="30.607606888" lon="34.800865173">
<ele>848.343750</ele>
<time>2013-11-23T06:18:24Z</time>
<speed>2.540000</speed>
<extensions>
<speed>2.5</speed>
<temp>0.00</temp>
<bpm>0</bpm>
<rpm>0.00</rpm>
</extensions>
</trkpt>
<trkpt lat="30.607507706" lon="34.800941467">
<ele>849.375000</ele>
<time>2013-11-23T06:18:29Z</time>
<speed>2.470000</speed>
<extensions>
<speed>2.5</speed>
<temp>0.00</temp>
<bpm>0</bpm>
<rpm>0.00</rpm>
</extensions>
</trkpt>
<trkpt lat="30.607412338" lon="34.801025391">
<ele>849.281250</ele>
<time>2013-11-23T06:18:34Z</time>
<speed>2.720000</speed>
<extensions>
<speed>2.7</speed>
<temp>0.00</temp>
<bpm>0</bpm>
<rpm>0.00</rpm>
</extensions>
</trkpt>
<trkpt lat="30.607309341" lon="34.801105499">
<ele>850.156250</ele>
<time>2013-11-23T06:18:39Z</time>
<speed>2.510000</speed>
<extensions>
<speed>2.5</speed>
<temp>0.00</temp>
<bpm>0</bpm>
<rpm>0.00</rpm>
</extensions>
</trkpt>
<trkpt lat="30.607212067" lon="34.801189423">
<ele>851.468750</ele>
<time>2013-11-23T06:18:44Z</time>
<speed>2.680000</speed>
<extensions>
<speed>2.7</speed>
<temp>0.00</temp>
<bpm>0</bpm>
<rpm>0.00</rpm>
</extensions>
</trkpt>
<trkpt lat="30.607082367" lon="34.801254272">
<ele>852.968750</ele>
<time>2013-11-23T06:18:49Z</time>
<speed>3.200000</speed>
<extensions>
<speed>3.2</speed>
<temp>0.00</temp>
<bpm>0</bpm>
<rpm>0.00</rpm>
</extensions>
</trkpt>
<trkpt lat="30.606967926" lon="34.801326752">
<ele>854.171875</ele>
<time>2013-11-23T06:18:54Z</time>
<speed>2.330000</speed>
<extensions>
<speed>2.3</speed>
<temp>0.00</temp>
<bpm>0</bpm>
<rpm>0.00</rpm>
</extensions>
</trkpt>
<trkpt lat="30.606874466" lon="34.801372528">
<ele>856.687500</ele>
<time>2013-11-23T06:18:59Z</time>
<speed>2.480000</speed>
<extensions>
<speed>2.5</speed>
<temp>0.00</temp>
<bpm>0</bpm>
<rpm>0.00</rpm>
</extensions>
</trkpt>
<trkpt lat="30.606794357" lon="34.801433563">
<ele>859.328125</ele>
<time>2013-11-23T06:19:04Z</time>
<speed>2.280000</speed>
<extensions>
<speed>2.3</speed>
<temp>0.00</temp>
<bpm>0</bpm>
<rpm>0.00</rpm>
</extensions>
</trkpt>
<trkpt lat="30.606685638" lon="34.801509857">
<ele>862.078125</ele>
<time>2013-11-23T06:19:09Z</time>
<speed>2.560000</speed>
<extensions>
<speed>2.6</speed>
<temp>0.00</temp>
<bpm>0</bpm>
<rpm>0.00</rpm>
</extensions>
</trkpt>
<trkpt lat="30.606552124" lon="34.801605225">
<ele>864.984375</ele>
<time>2013-11-23T06:19:14Z</time>
<speed>3.000000</speed>
<extensions>
<speed>3.0</speed>
<temp>0.00</temp>
<bpm>0</bpm>
<rpm>0.00</rpm>
</extensions>
</trkpt>
<trkpt lat="30.606426239" lon="34.801689148">
<ele>865.265625</ele>
<time>2013-11-23T06:19:19Z</time>
<speed>2.090000</speed>
<extensions>
<speed>2.1</speed>
<temp>0.00</temp>
<bpm>0</bpm>
<rpm>0.00</rpm>
</extensions>
</trkpt>
<trkpt lat="30.606325150" lon="34.801757813">
<ele>866.296875</ele>
<time>2013-11-23T06:19:24Z</time>
<speed>2.670000</speed>
<extensions>
<speed>2.7</speed>
<temp>0.00</temp>
<bpm>0</bpm>
<rpm>0.00</rpm>
</extensions>
</trkpt>
<trkpt lat="30.606229782" lon="34.801834106">
<ele>868.578125</ele>
<time>2013-11-23T06:19:29Z</time>
<speed>2.510000</speed>
<extensions>
<speed>2.5</speed>
<temp>0.00</temp>
<bpm>0</bpm>
<rpm>0.00</rpm>
</extensions>
</trkpt>
<trkpt lat="30.606145859" lon="34.801883698">
<ele>870.890625</ele>
<time>2013-11-23T06:19:34Z</time>
<speed>2.190000</speed>
<extensions>
<speed>2.2</speed>
<temp>0.00</temp>
<bpm>0</bpm>
<rpm>0.00</rpm>
</extensions>
</trkpt>
<trkpt lat="30.606063843" lon="34.801959991">
<ele>872.750000</ele>
<time>2013-11-23T06:19:39Z</time>
<speed>1.980000</speed>
<extensions>
<speed>2.0</speed>
<temp>0.00</temp>
<bpm>0</bpm>
<rpm>0.00</rpm>
</extensions>
</trkpt>
<trkpt lat="30.605924606" lon="34.802085876">
<ele>874.046875</ele>
<time>2013-11-23T06:19:44Z</time>
<speed>2.390000</speed>
<extensions>
<speed>2.4</speed>
<temp>0.00</temp>
<bpm>0</bpm>
<rpm>0.00</rpm>
</extensions>
</trkpt>
<trkpt lat="30.605819702" lon="34.802173615">
<ele>876.671875</ele>
<time>2013-11-23T06:19:49Z</time>
<speed>2.610000</speed>
<extensions>
<speed>2.6</speed>
<temp>0.00</temp>
<bpm>0</bpm>
<rpm>0.00</rpm>
</extensions>
</trkpt>
<trkpt lat="30.605747223" lon="34.802268982">
<ele>878.421875</ele>
<time>2013-11-23T06:19:54Z</time>
<speed>2.350000</speed>
<extensions>
<speed>2.4</speed>
<temp>0.00</temp>
<bpm>0</bpm>
<rpm>0.00</rpm>
</extensions>
</trkpt>
<trkpt lat="30.605808258" lon="34.802398682">
<ele>877.828125</ele>
<time>2013-11-23T06:19:59Z</time>
<speed>3.190000</speed>
<extensions>
<speed>3.2</speed>
<temp>0.00</temp>
<bpm>0</bpm>
<rpm>0.00</rpm>
</extensions>
</trkpt>
<trkpt lat="30.605897903" lon="34.802551270">
<ele>876.593750</ele>
<time>2013-11-23T06:20:04Z</time>
<speed>3.190000</speed>
<extensions>
<speed>3.2</speed>
<temp>0.00</temp>
<bpm>0</bpm>
<rpm>0.00</rpm>
</extensions>
</trkpt>
<trkpt lat="30.605976105" lon="34.802711487">
<ele>876.312500</ele>
<time>2013-11-23T06:20:09Z</time>
<speed>3.710000</speed>
<extensions>
<speed>3.7</speed>
<temp>0.00</temp>
<bpm>0</bpm>
<rpm>0.00</rpm>
</extensions>
</trkpt>
<trkpt lat="30.606082916" lon="34.802894592">
<ele>875.828125</ele>
<time>2013-11-23T06:20:14Z</time>
<speed>4.320000</speed>
<extensions>
<speed>4.3</speed>
<temp>0.00</temp>
<bpm>0</bpm>
<rpm>0.00</rpm>
</extensions>
</trkpt>
<trkpt lat="30.606185913" lon="34.803081512">
<ele>875.031250</ele>
<time>2013-11-23T06:20:19Z</time>
<speed>4.060000</speed>
<extensions>
<speed>4.1</speed>
<temp>0.00</temp>
<bpm>0</bpm>
<rpm>0.00</rpm>
</extensions>
</trkpt>
<trkpt lat="30.606288910" lon="34.803264618">
<ele>874.218750</ele>
<time>2013-11-23T06:20:24Z</time>
<speed>4.130000</speed>
<extensions>
<speed>4.1</speed>
<temp>0.00</temp>
<bpm>0</bpm>
<rpm>0.00</rpm>
</extensions>
</trkpt>
<trkpt lat="30.606393814" lon="34.803451538">
<ele>873.171875</ele>
<time>2013-11-23T06:20:29Z</time>
<speed>4.450000</speed>
<extensions>
<speed>4.5</speed>
<temp>0.00</temp>
<bpm>0</bpm>
<rpm>0.00</rpm>
</extensions>
</trkpt>
<trkpt lat="30.606508255" lon="34.803657532">
<ele>872.062500</ele>
<time>2013-11-23T06:20:34Z</time>
<speed>4.960000</speed>
<extensions>
<speed>5.0</speed>
<temp>0.00</temp>
<bpm>0</bpm>
<rpm>0.00</rpm>
</extensions>
</trkpt>
<trkpt lat="30.606655121" lon="34.803867340">
<ele>869.968750</ele>
<time>2013-11-23T06:20:39Z</time>
<speed>4.840000</speed>
<extensions>
<speed>4.8</speed>
<temp>0.00</temp>
<bpm>0</bpm>
<rpm>0.00</rpm>
</extensions>
</trkpt>
<trkpt lat="30.606668472" lon="34.804008484">
<ele>869.765625</ele>
<time>2013-11-23T06:20:44Z</time>
<speed>1.940000</speed>
<extensions>
<speed>1.9</speed>
<temp>0.00</temp>
<bpm>0</bpm>
<rpm>0.00</rpm>
</extensions>
</trkpt>
<trkpt lat="30.606594086" lon="34.804054260">
<ele>870.328125</ele>
<time>2013-11-23T06:20:49Z</time>
<speed>1.840000</speed>
<extensions>
<speed>1.8</speed>
<temp>0.00</temp>
<bpm>0</bpm>
<rpm>0.00</rpm>
</extensions>
</trkpt>
<trkpt lat="30.606525421" lon="34.804107666">
<ele>871.093750</ele>
<time>2013-11-23T06:20:54Z</time>
<speed>1.870000</speed>
<extensions>
<speed>1.9</speed>
<temp>0.00</temp>
<bpm>0</bpm>
<rpm>0.00</rpm>
</extensions>
</trkpt>
<trkpt lat="30.606460571" lon="34.804176331">
<ele>871.609375</ele>
<time>2013-11-23T06:20:59Z</time>
<speed>1.730000</speed>
<extensions>
<speed>1.7</speed>
<temp>0.00</temp>
<bpm>0</bpm>
<rpm>0.00</rpm>
</extensions>
</trkpt>
<trkpt lat="30.606407166" lon="34.804229736">
<ele>872.296875</ele>
<time>2013-11-23T06:21:04Z</time>
<speed>1.610000</speed>
<extensions>
<speed>1.6</speed>
<temp>0.00</temp>
<bpm>0</bpm>
<rpm>0.00</rpm>
</extensions>
</trkpt>
<trkpt lat="30.606348038" lon="34.804279327">
<ele>872.859375</ele>
<time>2013-11-23T06:21:09Z</time>
<speed>1.600000</speed>
<extensions>
<speed>1.6</speed>
<temp>0.00</temp>
<bpm>0</bpm>
<rpm>0.00</rpm>
</extensions>
</trkpt>
<trkpt lat="30.606279373" lon="34.804344177">
<ele>872.578125</ele>
<time>2013-11-23T06:21:14Z</time>
<speed>1.850000</speed>
<extensions>
<speed>1.8</speed>
<temp>0.00</temp>
<bpm>0</bpm>
<rpm>0.00</rpm>
</extensions>
</trkpt>
<trkpt lat="30.606254578" lon="34.804359436">
<ele>871.734375</ele>
<time>2013-11-23T06:21:19Z</time>
<speed>0.430000</speed>
<extensions>
<speed>0.4</speed>
<temp>0.00</temp>
<bpm>0</bpm>
<rpm>0.00</rpm>
</extensions>
</trkpt>
<trkpt lat="30.606250763" lon="34.804347992">
<ele>871.531250</ele>
<time>2013-11-23T06:21:24Z</time>
<speed>0.020000</speed>
<extensions>
<speed>0.0</speed>
<temp>0.00</temp>
<bpm>0</bpm>
<rpm>0.00</rpm>
</extensions>
</trkpt>
<trkpt lat="30.606250763" lon="34.804347992">
<ele>871.421875</ele>
<time>2013-11-23T06:21:29Z</time>
<speed>0.130000</speed>
<extensions>
<speed>0.1</speed>
<temp>0.00</temp>
<bpm>0</bpm>
<rpm>0.00</rpm>
</extensions>
</trkpt>
<trkpt lat="30.606248856" lon="34.804355621">
<ele>871.390625</ele>
<time>2013-11-23T06:21:34Z</time>
<speed>0.190000</speed>
<extensions>
<speed>0.2</speed>
<temp>0.00</temp>
<bpm>0</bpm>
<rpm>0.00</rpm>
</extensions>
</trkpt>
<trkpt lat="30.606245041" lon="34.804367065">
<ele>871.406250</ele>
<time>2013-11-23T06:21:39Z</time>
<speed>0.220000</speed>
<extensions>
<speed>0.2</speed>
<temp>0.00</temp>
<bpm>0</bpm>
<rpm>0.00</rpm>
</extensions>
</trkpt>
<trkpt lat="30.606241226" lon="34.804374695">
<ele>871.421875</ele>
<time>2013-11-23T06:21:44Z</time>
<speed>0.180000</speed>
<extensions>
<speed>0.2</speed>
<temp>0.00</temp>
<bpm>0</bpm>
<rpm>0.00</rpm>
</extensions>
</trkpt>
<trkpt lat="30.606239319" lon="34.804378510">
<ele>871.484375</ele>
<time>2013-11-23T06:21:49Z</time>
<extensions>
<speed>0.0</speed>
<temp>0.00</temp>
<bpm>0</bpm>
<rpm>0.00</rpm>
</extensions>
</trkpt>
<trkpt lat="30.606241226" lon="34.804378510">
<ele>871.515625</ele>
<time>2013-11-23T06:21:54Z</time>
<extensions>
<speed>0.0</speed>
<temp>0.00</temp>
<bpm>0</bpm>
<rpm>0.00</rpm>
</extensions>
</trkpt>
<trkpt lat="30.606241226" lon="34.804378510">
<ele>871.546875</ele>
<time>2013-11-23T06:21:59Z</time>
<extensions>
<speed>0.0</speed>
<temp>0.00</temp>
<bpm>0</bpm>
<rpm>0.00</rpm>
</extensions>
</trkpt>
<trkpt lat="30.606241226" lon="34.804382324">
<ele>871.562500</ele>
<time>2013-11-23T06:22:04Z</time>
<extensions>
<speed>0.0</speed>
<temp>0.00</temp>
<bpm>0</bpm>
<rpm>0.00</rpm>
</extensions>
</trkpt>
<trkpt lat="30.606241226" lon="34.804382324">
<ele>871.562500</ele>
<time>2013-11-23T06:22:09Z</time>
<extensions>
<speed>0.0</speed>
<temp>0.00</temp>
<bpm>0</bpm>
<rpm>0.00</rpm>
</extensions>
</trkpt>
<trkpt lat="30.606241226" lon="34.804382324">
<ele>871.562500</ele>
<time>2013-11-23T06:22:14Z</time>
<extensions>
<speed>0.0</speed>
<temp>0.00</temp>
<bpm>0</bpm>
<rpm>0.00</rpm>
</extensions>
</trkpt>
<trkpt lat="30.606241226" lon="34.804382324">
<ele>871.562500</ele>
<time>2013-11-23T06:22:19Z</time>
<extensions>
<speed>0.0</speed>
<temp>0.00</temp>
<bpm>0</bpm>
<rpm>0.00</rpm>
</extensions>
</trkpt>
<trkpt lat="30.606241226" lon="34.804382324">
<ele>871.562500</ele>
<time>2013-11-23T06:22:24Z</time>
<extensions>
<speed>0.0</speed>
<temp>0.00</temp>
<bpm>0</bpm>
<rpm>0.00</rpm>
</extensions>
</trkpt>
<trkpt lat="30.606241226" lon="34.804382324">
<ele>871.562500</ele>
<time>2013-11-23T06:22:29Z</time>
<speed>0.020000</speed>
<extensions>
<speed>0.0</speed>
<temp>0.00</temp>
<bpm>0</bpm>
<rpm>0.00</rpm>
</extensions>
</trkpt>
<trkpt lat="30.606241226" lon="34.804382324">
<ele>871.562500</ele>
<time>2013-11-23T06:22:34Z</time>
<speed>0.020000</speed>
<extensions>
<speed>0.0</speed>
<temp>0.00</temp>
<bpm>0</bpm>
<rpm>0.00</rpm>
</extensions>
</trkpt>
<trkpt lat="30.606243134" lon="34.804382324">
<ele>871.546875</ele>
<time>2013-11-23T06:22:39Z</time>
<speed>0.050000</speed>
<extensions>
<speed>0.1</speed>
<temp>0.00</temp>
<bpm>0</bpm>
<rpm>0.00</rpm>
</extensions>
</trkpt>
<trkpt lat="30.606252670" lon="34.804378510">
<ele>871.890625</ele>
<time>2013-11-23T06:22:44Z</time>
<speed>0.430000</speed>
<extensions>
<speed>0.4</speed>
<temp>0.00</temp>
<bpm>0</bpm>
<rpm>0.00</rpm>
</extensions>
</trkpt>
<trkpt lat="30.606245041" lon="34.804382324">
<ele>872.656250</ele>
<time>2013-11-23T06:22:49Z</time>
<speed>0.100000</speed>
<extensions>
<speed>0.1</speed>
<temp>0.00</temp>
<bpm>0</bpm>
<rpm>0.00</rpm>
</extensions>
</trkpt>
<trkpt lat="30.606245041" lon="34.804382324">
<ele>872.890625</ele>
<time>2013-11-23T06:22:54Z</time>
<speed>0.040000</speed>
<extensions>
<speed>0.0</speed>
<temp>0.00</temp>
<bpm>0</bpm>
<rpm>0.00</rpm>
</extensions>
</trkpt>
<trkpt lat="30.606243134" lon="34.804382324">
<ele>872.968750</ele>
<time>2013-11-23T06:22:59Z</time>
<speed>0.020000</speed>
<extensions>
<speed>0.0</speed>
<temp>0.00</temp>
<bpm>0</bpm>
<rpm>0.00</rpm>
</extensions>
</trkpt>
<trkpt lat="30.606243134" lon="34.804382324">
<ele>873.031250</ele>
<time>2013-11-23T06:23:04Z</time>
<extensions>
<speed>0.0</speed>
<temp>0.00</temp>
<bpm>0</bpm>
<rpm>0.00</rpm>
</extensions>
</trkpt>
<trkpt lat="30.606245041" lon="34.804382324">
<ele>873.000000</ele>
<time>2013-11-23T06:23:09Z</time>
<speed>0.010000</speed>
<extensions>
<speed>0.0</speed>
<temp>0.00</temp>
<bpm>0</bpm>
<rpm>0.00</rpm>
</extensions>
</trkpt>
<trkpt lat="30.606245041" lon="34.804382324">
<ele>872.953125</ele>
<time>2013-11-23T06:23:14Z</time>
<extensions>
<speed>0.0</speed>
<temp>0.00</temp>
<bpm>0</bpm>
<rpm>0.00</rpm>
</extensions>
</trkpt>
<trkpt lat="30.606246948" lon="34.804382324">
<ele>872.968750</ele>
<time>2013-11-23T06:23:19Z</time>
<speed>0.130000</speed>
<extensions>
<speed>0.1</speed>
<temp>0.00</temp>
<bpm>0</bpm>
<rpm>0.00</rpm>
</extensions>
</trkpt>
<trkpt lat="30.606246948" lon="34.804382324">
<ele>872.968750</ele>
<time>2013-11-23T06:23:24Z</time>
<extensions>
<speed>0.0</speed>
<temp>0.00</temp>
<bpm>0</bpm>
<rpm>0.00</rpm>
</extensions>
</trkpt>
<trkpt lat="30.606246948" lon="34.804382324">
<ele>872.968750</ele>
<time>2013-11-23T06:23:29Z</time>
<extensions>
<speed>0.0</speed>
<temp>0.00</temp>
<bpm>0</bpm>
<rpm>0.00</rpm>
</extensions>
</trkpt>
<trkpt lat="30.606246948" lon="34.804382324">
<ele>872.968750</ele>
<time>2013-11-23T06:23:34Z</time>
<speed>0.010000</speed>
<extensions>
<speed>0.0</speed>
<temp>0.00</temp>
<bpm>0</bpm>
<rpm>0.00</rpm>
</extensions>
</trkpt>
<trkpt lat="30.606246948" lon="34.804382324">
<ele>872.953125</ele>
<time>2013-11-23T06:23:39Z</time>
<extensions>
<speed>0.0</speed>
<temp>0.00</temp>
<bpm>0</bpm>
<rpm>0.00</rpm>
</extensions>
</trkpt>
<trkpt lat="30.606246948" lon="34.804382324">
<ele>872.937500</ele>
<time>2013-11-23T06:23:44Z</time>
<speed>0.750000</speed>
<extensions>
<speed>0.8</speed>
<temp>0.00</temp>
<bpm>0</bpm>
<rpm>0.00</rpm>
</extensions>
</trkpt>
<trkpt lat="30.606292725" lon="34.804389954">
<ele>872.546875</ele>
<time>2013-11-23T06:23:49Z</time>
<speed>0.120000</speed>
<extensions>
<speed>0.1</speed>
<temp>0.00</temp>
<bpm>0</bpm>
<rpm>0.00</rpm>
</extensions>
</trkpt>
<trkpt lat="30.606323242" lon="34.804336548">
<ele>871.453125</ele>
<time>2013-11-23T06:23:54Z</time>
<speed>1.780000</speed>
<extensions>
<speed>1.8</speed>
<temp>0.00</temp>
<bpm>0</bpm>
<rpm>0.00</rpm>
</extensions>
</trkpt>
<trkpt lat="30.606422424" lon="34.804233551">
<ele>869.515625</ele>
<time>2013-11-23T06:23:59Z</time>
<speed>4.680000</speed>
<extensions>
<speed>4.7</speed>
<temp>0.00</temp>
<bpm>0</bpm>
<rpm>0.00</rpm>
</extensions>
</trkpt>
<trkpt lat="30.606611252" lon="34.804073334">
<ele>866.796875</ele>
<time>2013-11-23T06:24:04Z</time>
<speed>5.230000</speed>
<extensions>
<speed>5.2</speed>
<temp>0.00</temp>
<bpm>0</bpm>
<rpm>0.00</rpm>
</extensions>
</trkpt>
<trkpt lat="30.606777191" lon="34.803939819">
<ele>865.281250</ele>
<time>2013-11-23T06:24:09Z</time>
<speed>4.600000</speed>
<extensions>
<speed>4.6</speed>
<temp>0.00</temp>
<bpm>0</bpm>
<rpm>0.00</rpm>
</extensions>
</trkpt>
<trkpt lat="30.606975555" lon="34.803798676">
<ele>863.484375</ele>
<time>2013-11-23T06:24:14Z</time>
<speed>5.820000</speed>
<extensions>
<speed>5.8</speed>
<temp>0.00</temp>
<bpm>0</bpm>
<rpm>0.00</rpm>
</extensions>
</trkpt>
<trkpt lat="30.607215881" lon="34.803623199">
<ele>860.843750</ele>
<time>2013-11-23T06:24:19Z</time>
<speed>6.670000</speed>
<extensions>
<speed>6.7</speed>
<temp>0.00</temp>
<bpm>0</bpm>
<rpm>0.00</rpm>
</extensions>
</trkpt>
<trkpt lat="30.607486725" lon="34.803424835">
<ele>857.703125</ele>
<time>2013-11-23T06:24:24Z</time>
<speed>7.700000</speed>
<extensions>
<speed>7.7</speed>
<temp>0.00</temp>
<bpm>0</bpm>
<rpm>0.00</rpm>
</extensions>
</trkpt>
<trkpt lat="30.607774734" lon="34.803207397">
<ele>854.578125</ele>
<time>2013-11-23T06:24:29Z</time>
<speed>7.120000</speed>
<extensions>
<speed>7.1</speed>
<temp>0.00</temp>
<bpm>0</bpm>
<rpm>0.00</rpm>
</extensions>
</trkpt>
<trkpt lat="30.608015060" lon="34.803028107">
<ele>851.984375</ele>
<time>2013-11-23T06:24:34Z</time>
<speed>5.220000</speed>
<extensions>
<speed>5.2</speed>
<temp>0.00</temp>
<bpm>0</bpm>
<rpm>0.00</rpm>
</extensions>
</trkpt>
<trkpt lat="30.608200073" lon="34.802890778">
<ele>849.109375</ele>
<time>2013-11-23T06:24:39Z</time>
<speed>4.290000</speed>
<extensions>
<speed>4.3</speed>
<temp>0.00</temp>
<bpm>0</bpm>
<rpm>0.00</rpm>
</extensions>
</trkpt>
<trkpt lat="30.608318329" lon="34.802761078">
<ele>847.250000</ele>
<time>2013-11-23T06:24:44Z</time>
<speed>4.120000</speed>
<extensions>
<speed>4.1</speed>
<temp>0.00</temp>
<bpm>0</bpm>
<rpm>0.00</rpm>
</extensions>
</trkpt>
<trkpt lat="30.608341217" lon="34.802547455">
<ele>846.171875</ele>
<time>2013-11-23T06:24:49Z</time>
<speed>4.460000</speed>
<extensions>
<speed>4.5</speed>
<temp>0.00</temp>
<bpm>0</bpm>
<rpm>0.00</rpm>
</extensions>
</trkpt>
<trkpt lat="30.608360291" lon="34.802326202">
<ele>845.968750</ele>
<time>2013-11-23T06:24:54Z</time>
<speed>4.380000</speed>
<extensions>
<speed>4.4</speed>
<temp>0.00</temp>
<bpm>0</bpm>
<rpm>0.00</rpm>
</extensions>
</trkpt>
<trkpt lat="30.608377457" lon="34.802112579">
<ele>846.453125</ele>
<time>2013-11-23T06:24:59Z</time>
<speed>3.960000</speed>
<extensions>
<speed>4.0</speed>
<temp>0.00</temp>
<bpm>0</bpm>
<rpm>0.00</rpm>
</extensions>
</trkpt>
<trkpt lat="30.608396530" lon="34.801910400">
<ele>847.062500</ele>
<time>2013-11-23T06:25:04Z</time>
<speed>4.460000</speed>
<extensions>
<speed>4.5</speed>
<temp>0.00</temp>
<bpm>0</bpm>
<rpm>0.00</rpm>
</extensions>
</trkpt>
<trkpt lat="30.608411789" lon="34.801670074">
<ele>846.937500</ele>
<time>2013-11-23T06:25:09Z</time>
<speed>4.560000</speed>
<extensions>
<speed>4.6</speed>
<temp>0.00</temp>
<bpm>0</bpm>
<rpm>0.00</rpm>
</extensions>
</trkpt>
<trkpt lat="30.608367920" lon="34.801433563">
<ele>845.859375</ele>
<time>2013-11-23T06:25:14Z</time>
<speed>2.930000</speed>
<extensions>
<speed>2.9</speed>
<temp>0.00</temp>
<bpm>0</bpm>
<rpm>0.00</rpm>
</extensions>
</trkpt>
<trkpt lat="30.608308792" lon="34.801315308">
<ele>843.546875</ele>
<time>2013-11-23T06:25:19Z</time>
<speed>1.980000</speed>
<extensions>
<speed>2.0</speed>
<temp>0.00</temp>
<bpm>0</bpm>
<rpm>0.00</rpm>
</extensions>
</trkpt>
<trkpt lat="30.608232498" lon="34.801246643">
<ele>843.718750</ele>
<time>2013-11-23T06:25:24Z</time>
<speed>2.330000</speed>
<extensions>
<speed>2.3</speed>
<temp>0.00</temp>
<bpm>0</bpm>
<rpm>0.00</rpm>
</extensions>
</trkpt>
<trkpt lat="30.608152390" lon="34.801147461">
<ele>844.312500</ele>
<time>2013-11-23T06:25:29Z</time>
<speed>2.580000</speed>
<extensions>
<speed>2.6</speed>
<temp>0.00</temp>
<bpm>0</bpm>
<rpm>0.00</rpm>
</extensions>
</trkpt>
<trkpt lat="30.608066559" lon="34.801052094">
<ele>844.546875</ele>
<time>2013-11-23T06:25:34Z</time>
<speed>2.770000</speed>
<extensions>
<speed>2.8</speed>
<temp>0.00</temp>
<bpm>0</bpm>
<rpm>0.00</rpm>
</extensions>
</trkpt>
<trkpt lat="30.607978821" lon="34.800968170">
<ele>845.265625</ele>
<time>2013-11-23T06:25:39Z</time>
<speed>1.500000</speed>
<extensions>
<speed>1.5</speed>
<temp>0.00</temp>
<bpm>0</bpm>
<rpm>0.00</rpm>
</extensions>
</trkpt>
<trkpt lat="30.607925415" lon="34.801052094">
<ele>845.671875</ele>
<time>2013-11-23T06:25:44Z</time>
<speed>2.190000</speed>
<extensions>
<speed>2.2</speed>
<temp>0.00</temp>
<bpm>0</bpm>
<rpm>0.00</rpm>
</extensions>
</trkpt>
<trkpt lat="30.608015060" lon="34.801101685">
<ele>844.953125</ele>
<time>2013-11-23T06:25:49Z</time>
<speed>1.740000</speed>
<extensions>
<speed>1.7</speed>
<temp>0.00</temp>
<bpm>0</bpm>
<rpm>0.00</rpm>
</extensions>
</trkpt>
<trkpt lat="30.608001709" lon="34.801055908">
<ele>844.765625</ele>
<time>2013-11-23T06:25:54Z</time>
<speed>1.190000</speed>
<extensions>
<speed>1.2</speed>
<temp>0.00</temp>
<bpm>0</bpm>
<rpm>0.00</rpm>
</extensions>
</trkpt>
<trkpt lat="30.607938766" lon="34.800994873">
<ele>845.203125</ele>
<time>2013-11-23T06:25:59Z</time>
<speed>2.450000</speed>
<extensions>
<speed>2.4</speed>
<temp>0.00</temp>
<bpm>0</bpm>
<rpm>0.00</rpm>
</extensions>
</trkpt>
<trkpt lat="30.607847214" lon="34.800903320">
<ele>845.718750</ele>
<time>2013-11-23T06:26:04Z</time>
<speed>3.040000</speed>
<extensions>
<speed>3.0</speed>
<temp>0.00</temp>
<bpm>0</bpm>
<rpm>0.00</rpm>
</extensions>
</trkpt>
<trkpt lat="30.607728958" lon="34.800800323">
<ele>846.203125</ele>
<time>2013-11-23T06:26:09Z</time>
<speed>3.260000</speed>
<extensions>
<speed>3.3</speed>
<temp>0.00</temp>
<bpm>0</bpm>
<rpm>0.00</rpm>
</extensions>
</trkpt>
<trkpt lat="30.607608795" lon="34.800701141">
<ele>846.359375</ele>
<time>2013-11-23T06:26:14Z</time>
<speed>3.290000</speed>
<extensions>
<speed>3.3</speed>
<temp>0.00</temp>
<bpm>0</bpm>
<rpm>0.00</rpm>
</extensions>
</trkpt>
<trkpt lat="30.607475281" lon="34.800582886">
<ele>846.312500</ele>
<time>2013-11-23T06:26:19Z</time>
<speed>3.890000</speed>
<extensions>
<speed>3.9</speed>
<temp>0.00</temp>
<bpm>0</bpm>
<rpm>0.00</rpm>
</extensions>
</trkpt>
<trkpt lat="30.607345581" lon="34.800449371">
<ele>846.765625</ele>
<time>2013-11-23T06:26:24Z</time>
<speed>3.890000</speed>
<extensions>
<speed>3.9</speed>
<temp>0.00</temp>
<bpm>0</bpm>
<rpm>0.00</rpm>
</extensions>
</trkpt>
<trkpt lat="30.607170105" lon="34.800323486">
<ele>847.203125</ele>
<time>2013-11-23T06:26:29Z</time>
<speed>4.520000</speed>
<extensions>
<speed>4.5</speed>
<temp>0.00</temp>
<bpm>0</bpm>
<rpm>0.00</rpm>
</extensions>
</trkpt>
<trkpt lat="30.606992722" lon="34.800209045">
<ele>847.578125</ele>
<time>2013-11-23T06:26:34Z</time>
<speed>4.030000</speed>
<extensions>
<speed>4.0</speed>
<temp>0.00</temp>
<bpm>0</bpm>
<rpm>0.00</rpm>
</extensions>
</trkpt>
<trkpt lat="30.606843948" lon="34.800067902">
<ele>846.531250</ele>
<time>2013-11-23T06:26:39Z</time>
<speed>4.200000</speed>
<extensions>
<speed>4.2</speed>
<temp>0.00</temp>
<bpm>0</bpm>
<rpm>0.00</rpm>
</extensions>
</trkpt>
<trkpt lat="30.606700897" lon="34.799915314">
<ele>845.359375</ele>
<time>2013-11-23T06:26:44Z</time>
<speed>3.950000</speed>
<extensions>
<speed>4.0</speed>
<temp>0.00</temp>
<bpm>0</bpm>
<rpm>0.00</rpm>
</extensions>
</trkpt>
<trkpt lat="30.606563568" lon="34.799785614">
<ele>845.031250</ele>
<time>2013-11-23T06:26:49Z</time>
<speed>3.870000</speed>
<extensions>
<speed>3.9</speed>
<temp>0.00</temp>
<bpm>0</bpm>
<rpm>0.00</rpm>
</extensions>
</trkpt>
<trkpt lat="30.606422424" lon="34.799652100">
<ele>844.500000</ele>
<time>2013-11-23T06:26:54Z</time>
<speed>3.990000</speed>
<extensions>
<speed>4.0</speed>
<temp>0.00</temp>
<bpm>0</bpm>
<rpm>0.00</rpm>
</extensions>
</trkpt>
<trkpt lat="30.606243134" lon="34.799564362">
<ele>843.984375</ele>
<time>2013-11-23T06:26:59Z</time>
<speed>4.140000</speed>
<extensions>
<speed>4.1</speed>
<temp>0.00</temp>
<bpm>0</bpm>
<rpm>0.00</rpm>
</extensions>
</trkpt>
<trkpt lat="30.606130600" lon="34.799381256">
<ele>842.406250</ele>
<time>2013-11-23T06:27:04Z</time>
<speed>4.440000</speed>
<extensions>
<speed>4.4</speed>
<temp>0.00</temp>
<bpm>0</bpm>
<rpm>0.00</rpm>
</extensions>
</trkpt>
<trkpt lat="30.606248856" lon="34.799152374">
<ele>840.906250</ele>
<time>2013-11-23T06:27:09Z</time>
<speed>5.520000</speed>
<extensions>
<speed>5.5</speed>
<temp>0.00</temp>
<bpm>0</bpm>
<rpm>0.00</rpm>
</extensions>
</trkpt>
<trkpt lat="30.606382370" lon="34.798950195">
<ele>839.968750</ele>
<time>2013-11-23T06:27:14Z</time>
<speed>4.440000</speed>
<extensions>
<speed>4.4</speed>
<temp>0.00</temp>
<bpm>0</bpm>
<rpm>0.00</rpm>
</extensions>
</trkpt>
<trkpt lat="30.606431961" lon="34.798763275">
<ele>839.609375</ele>
<time>2013-11-23T06:27:19Z</time>
<speed>3.730000</speed>
<extensions>
<speed>3.7</speed>
<temp>0.00</temp>
<bpm>0</bpm>
<rpm>0.00</rpm>
</extensions>
</trkpt>
<trkpt lat="30.606325150" lon="34.798614502">
<ele>839.828125</ele>
<time>2013-11-23T06:27:24Z</time>
<speed>3.480000</speed>
<extensions>
<speed>3.5</speed>
<temp>0.00</temp>
<bpm>0</bpm>
<rpm>0.00</rpm>
</extensions>
</trkpt>
<trkpt lat="30.606187820" lon="34.798496246">
<ele>839.390625</ele>
<time>2013-11-23T06:27:29Z</time>
<speed>3.800000</speed>
<extensions>
<speed>3.8</speed>
<temp>0.00</temp>
<bpm>0</bpm>
<rpm>0.00</rpm>
</extensions>
</trkpt>
<trkpt lat="30.606067657" lon="34.798362732">
<ele>839.171875</ele>
<time>2013-11-23T06:27:34Z</time>
<speed>3.620000</speed>
<extensions>
<speed>3.6</speed>
<temp>0.00</temp>
<bpm>0</bpm>
<rpm>0.00</rpm>
</extensions>
</trkpt>
<trkpt lat="30.605949402" lon="34.798225403">
<ele>839.343750</ele>
<time>2013-11-23T06:27:39Z</time>
<speed>3.150000</speed>
<extensions>
<speed>3.2</speed>
<temp>0.00</temp>
<bpm>0</bpm>
<rpm>0.00</rpm>
</extensions>
</trkpt>
<trkpt lat="30.605848312" lon="34.798149109">
<ele>839.718750</ele>
<time>2013-11-23T06:27:44Z</time>
<speed>1.880000</speed>
<extensions>
<speed>1.9</speed>
<temp>0.00</temp>
<bpm>0</bpm>
<rpm>0.00</rpm>
</extensions>
</trkpt>
<trkpt lat="30.605800629" lon="34.798053741">
<ele>841.015625</ele>
<time>2013-11-23T06:27:49Z</time>
<speed>2.110000</speed>
<extensions>
<speed>2.1</speed>
<temp>0.00</temp>
<bpm>0</bpm>
<rpm>0.00</rpm>
</extensions>
</trkpt>
<trkpt lat="30.605745316" lon="34.797969818">
<ele>841.640625</ele>
<time>2013-11-23T06:27:54Z</time>
<speed>2.050000</speed>
<extensions>
<speed>2.1</speed>
<temp>0.00</temp>
<bpm>0</bpm>
<rpm>0.00</rpm>
</extensions>
</trkpt>
<trkpt lat="30.605697632" lon="34.797851563">
<ele>842.531250</ele>
<time>2013-11-23T06:27:59Z</time>
<speed>3.030000</speed>
<extensions>
<speed>3.0</speed>
<temp>0.00</temp>
<bpm>0</bpm>
<rpm>0.00</rpm>
</extensions>
</trkpt>
<trkpt lat="30.605594635" lon="34.797767639">
<ele>842.968750</ele>
<time>2013-11-23T06:28:04Z</time>
<speed>2.310000</speed>
<extensions>
<speed>2.3</speed>
<temp>0.00</temp>
<bpm>0</bpm>
<rpm>0.00</rpm>
</extensions>
</trkpt>
<trkpt lat="30.605512619" lon="34.797779083">
<ele>843.390625</ele>
<time>2013-11-23T06:28:09Z</time>
<speed>1.620000</speed>
<extensions>
<speed>1.6</speed>
<temp>0.00</temp>
<bpm>0</bpm>
<rpm>0.00</rpm>
</extensions>
</trkpt>
<trkpt lat="30.605428696" lon="34.797794342">
<ele>843.890625</ele>
<time>2013-11-23T06:28:14Z</time>
<speed>2.060000</speed>
<extensions>
<speed>2.1</speed>
<temp>0.00</temp>
<bpm>0</bpm>
<rpm>0.00</rpm>
</extensions>
</trkpt>
<trkpt lat="30.605339050" lon="34.797790527">
<ele>844.546875</ele>
<time>2013-11-23T06:28:19Z</time>
<speed>1.830000</speed>
<extensions>
<speed>1.8</speed>
<temp>0.00</temp>
<bpm>0</bpm>
<rpm>0.00</rpm>
</extensions>
</trkpt>
<trkpt lat="30.605278015" lon="34.797794342">
<ele>845.250000</ele>
<time>2013-11-23T06:28:24Z</time>
<speed>1.170000</speed>
<extensions>
<speed>1.2</speed>
<temp>0.00</temp>
<bpm>0</bpm>
<rpm>0.00</rpm>
</extensions>
</trkpt>
<trkpt lat="30.605220795" lon="34.797798157">
<ele>846.015625</ele>
<time>2013-11-23T06:28:29Z</time>
<speed>1.400000</speed>
<extensions>
<speed>1.4</speed>
<temp>0.00</temp>
<bpm>0</bpm>
<rpm>0.00</rpm>
</extensions>
</trkpt>
<trkpt lat="30.605155945" lon="34.797760010">
<ele>846.625000</ele>
<time>2013-11-23T06:28:34Z</time>
<speed>1.700000</speed>
<extensions>
<speed>1.7</speed>
<temp>0.00</temp>
<bpm>0</bpm>
<rpm>0.00</rpm>
</extensions>
</trkpt>
<trkpt lat="30.605085373" lon="34.797702789">
<ele>847.343750</ele>
<time>2013-11-23T06:28:39Z</time>
<speed>1.780000</speed>
<extensions>
<speed>1.8</speed>
<temp>0.00</temp>
<bpm>0</bpm>
<rpm>0.00</rpm>
</extensions>
</trkpt>
<trkpt lat="30.605014801" lon="34.797645569">
<ele>847.937500</ele>
<time>2013-11-23T06:28:44Z</time>
<speed>1.790000</speed>
<extensions>
<speed>1.8</speed>
<temp>0.00</temp>
<bpm>0</bpm>
<rpm>0.00</rpm>
</extensions>
</trkpt>
<trkpt lat="30.604938507" lon="34.797615051">
<ele>848.437500</ele>
<time>2013-11-23T06:28:49Z</time>
<speed>1.950000</speed>
<extensions>
<speed>1.9</speed>
<temp>0.00</temp>
<bpm>0</bpm>
<rpm>0.00</rpm>
</extensions>
</trkpt>
<trkpt lat="30.604862213" lon="34.797573090">
<ele>849.171875</ele>
<time>2013-11-23T06:28:54Z</time>
<speed>1.680000</speed>
<extensions>
<speed>1.7</speed>
<temp>0.00</temp>
<bpm>0</bpm>
<rpm>0.00</rpm>
</extensions>
</trkpt>
<trkpt lat="30.604797363" lon="34.797523499">
<ele>849.875000</ele>
<time>2013-11-23T06:28:59Z</time>
<speed>1.660000</speed>
<extensions>
<speed>1.7</speed>
<temp>0.00</temp>
<bpm>0</bpm>
<rpm>0.00</rpm>
</extensions>
</trkpt>
<trkpt lat="30.604717255" lon="34.797489166">
<ele>850.484375</ele>
<time>2013-11-23T06:29:04Z</time>
<speed>1.850000</speed>
<extensions>
<speed>1.8</speed>
<temp>0.00</temp>
<bpm>0</bpm>
<rpm>0.00</rpm>
</extensions>
</trkpt>
<trkpt lat="30.604640961" lon="34.797443390">
<ele>851.140625</ele>
<time>2013-11-23T06:29:09Z</time>
<speed>1.740000</speed>
<extensions>
<speed>1.7</speed>
<temp>0.00</temp>
<bpm>0</bpm>
<rpm>0.00</rpm>
</extensions>
</trkpt>
<trkpt lat="30.604564667" lon="34.797405243">
<ele>851.671875</ele>
<time>2013-11-23T06:29:14Z</time>
<speed>1.990000</speed>
<extensions>
<speed>2.0</speed>
<temp>0.00</temp>
<bpm>0</bpm>
<rpm>0.00</rpm>
</extensions>
</trkpt>
<trkpt lat="30.604492188" lon="34.797351837">
<ele>852.421875</ele>
<time>2013-11-23T06:29:19Z</time>
<speed>1.890000</speed>
<extensions>
<speed>1.9</speed>
<temp>0.00</temp>
<bpm>0</bpm>
<rpm>0.00</rpm>
</extensions>
</trkpt>
<trkpt lat="30.604427338" lon="34.797294617">
<ele>853.000000</ele>
<time>2013-11-23T06:29:24Z</time>
<speed>1.880000</speed>
<extensions>
<speed>1.9</speed>
<temp>0.00</temp>
<bpm>0</bpm>
<rpm>0.00</rpm>
</extensions>
</trkpt>
<trkpt lat="30.604366302" lon="34.797241211">
<ele>853.640625</ele>
<time>2013-11-23T06:29:29Z</time>
<speed>1.770000</speed>
<extensions>
<speed>1.8</speed>
<temp>0.00</temp>
<bpm>0</bpm>
<rpm>0.00</rpm>
</extensions>
</trkpt>
<trkpt lat="30.604305267" lon="34.797176361">
<ele>854.421875</ele>
<time>2013-11-23T06:29:34Z</time>
<speed>1.870000</speed>
<extensions>
<speed>1.9</speed>
<temp>0.00</temp>
<bpm>0</bpm>
<rpm>0.00</rpm>
</extensions>
</trkpt>
<trkpt lat="30.604242325" lon="34.797111511">
<ele>855.125000</ele>
<time>2013-11-23T06:29:39Z</time>
<speed>1.960000</speed>
<extensions>
<speed>2.0</speed>
<temp>0.00</temp>
<bpm>0</bpm>
<rpm>0.00</rpm>
</extensions>
</trkpt>
<trkpt lat="30.604166031" lon="34.797058105">
<ele>855.890625</ele>
<time>2013-11-23T06:29:44Z</time>
<speed>1.910000</speed>
<extensions>
<speed>1.9</speed>
<temp>0.00</temp>
<bpm>0</bpm>
<rpm>0.00</rpm>
</extensions>
</trkpt>
<trkpt lat="30.604089737" lon="34.797012329">
<ele>856.546875</ele>
<time>2013-11-23T06:29:49Z</time>
<speed>1.750000</speed>
<extensions>
<speed>1.8</speed>
<temp>0.00</temp>
<bpm>0</bpm>
<rpm>0.00</rpm>
</extensions>
</trkpt>
<trkpt lat="30.604022980" lon="34.796958923">
<ele>857.359375</ele>
<time>2013-11-23T06:29:54Z</time>
<speed>1.780000</speed>
<extensions>
<speed>1.8</speed>
<temp>0.00</temp>
<bpm>0</bpm>
<rpm>0.00</rpm>
</extensions>
</trkpt>
<trkpt lat="30.603965759" lon="34.796894073">
<ele>858.203125</ele>
<time>2013-11-23T06:29:59Z</time>
<speed>1.710000</speed>
<extensions>
<speed>1.7</speed>
<temp>0.00</temp>
<bpm>0</bpm>
<rpm>0.00</rpm>
</extensions>
</trkpt>
<trkpt lat="30.603899002" lon="34.796852112">
<ele>858.953125</ele>
<time>2013-11-23T06:30:04Z</time>
<speed>1.680000</speed>
<extensions>
<speed>1.7</speed>
<temp>0.00</temp>
<bpm>0</bpm>
<rpm>0.00</rpm>
</extensions>
</trkpt>
<trkpt lat="30.603839874" lon="34.796813965">
<ele>859.078125</ele>
<time>2013-11-23T06:30:09Z</time>
<speed>0.530000</speed>
<extensions>
<speed>0.5</speed>
<temp>0.00</temp>
<bpm>0</bpm>
<rpm>0.00</rpm>
</extensions>
</trkpt>
<trkpt lat="30.603837967" lon="34.796810150">
<ele>859.000000</ele>
<time>2013-11-23T06:30:14Z</time>
<speed>0.020000</speed>
<extensions>
<speed>0.0</speed>
<temp>0.00</temp>
<bpm>0</bpm>
<rpm>0.00</rpm>
</extensions>
</trkpt>
<trkpt lat="30.603813171" lon="34.796791077">
<ele>859.218750</ele>
<time>2013-11-23T06:30:19Z</time>
<speed>1.330000</speed>
<extensions>
<speed>1.3</speed>
<temp>0.00</temp>
<bpm>0</bpm>
<rpm>0.00</rpm>
</extensions>
</trkpt>
<trkpt lat="30.603742599" lon="34.796791077">
<ele>859.750000</ele>
<time>2013-11-23T06:30:24Z</time>
<speed>1.540000</speed>
<extensions>
<speed>1.5</speed>
<temp>0.00</temp>
<bpm>0</bpm>
<rpm>0.00</rpm>
</extensions>
</trkpt>
<trkpt lat="30.603677750" lon="34.796798706">
<ele>860.468750</ele>
<time>2013-11-23T06:30:29Z</time>
<speed>1.590000</speed>
<extensions>
<speed>1.6</speed>
<temp>0.00</temp>
<bpm>0</bpm>
<rpm>0.00</rpm>
</extensions>
</trkpt>
<trkpt lat="30.603607178" lon="34.796798706">
<ele>860.796875</ele>
<time>2013-11-23T06:30:34Z</time>
<speed>1.310000</speed>
<extensions>
<speed>1.3</speed>
<temp>0.00</temp>
<bpm>0</bpm>
<rpm>0.00</rpm>
</extensions>
</trkpt>
<trkpt lat="30.603548050" lon="34.796844482">
<ele>861.484375</ele>
<time>2013-11-23T06:30:39Z</time>
<speed>1.570000</speed>
<extensions>
<speed>1.6</speed>
<temp>0.00</temp>
<bpm>0</bpm>
<rpm>0.00</rpm>
</extensions>
</trkpt>
<trkpt lat="30.603483200" lon="34.796886444">
<ele>862.375000</ele>
<time>2013-11-23T06:30:44Z</time>
<speed>1.640000</speed>
<extensions>
<speed>1.6</speed>
<temp>0.00</temp>
<bpm>0</bpm>
<rpm>0.00</rpm>
</extensions>
</trkpt>
<trkpt lat="30.603418350" lon="34.796947479">
<ele>862.921875</ele>
<time>2013-11-23T06:30:49Z</time>
<speed>1.630000</speed>
<extensions>
<speed>1.6</speed>
<temp>0.00</temp>
<bpm>0</bpm>
<rpm>0.00</rpm>
</extensions>
</trkpt>
<trkpt lat="30.603351593" lon="34.797000885">
<ele>863.390625</ele>
<time>2013-11-23T06:30:54Z</time>
<speed>1.740000</speed>
<extensions>
<speed>1.7</speed>
<temp>0.00</temp>
<bpm>0</bpm>
<rpm>0.00</rpm>
</extensions>
</trkpt>
<trkpt lat="30.603281021" lon="34.797050476">
<ele>864.015625</ele>
<time>2013-11-23T06:30:59Z</time>
<speed>1.840000</speed>
<extensions>
<speed>1.8</speed>
<temp>0.00</temp>
<bpm>0</bpm>
<rpm>0.00</rpm>
</extensions>
</trkpt>
<trkpt lat="30.603212357" lon="34.797092438">
<ele>864.687500</ele>
<time>2013-11-23T06:31:04Z</time>
<speed>1.600000</speed>
<extensions>
<speed>1.6</speed>
<temp>0.00</temp>
<bpm>0</bpm>
<rpm>0.00</rpm>
</extensions>
</trkpt>
<trkpt lat="30.603151321" lon="34.797142029">
<ele>865.000000</ele>
<time>2013-11-23T06:31:09Z</time>
<speed>1.830000</speed>
<extensions>
<speed>1.8</speed>
<temp>0.00</temp>
<bpm>0</bpm>
<rpm>0.00</rpm>
</extensions>
</trkpt>
<trkpt lat="30.603075027" lon="34.797183990">
<ele>865.578125</ele>
<time>2013-11-23T06:31:14Z</time>
<speed>2.040000</speed>
<extensions>
<speed>2.0</speed>
<temp>0.00</temp>
<bpm>0</bpm>
<rpm>0.00</rpm>
</extensions>
</trkpt>
<trkpt lat="30.602991104" lon="34.797248840">
<ele>865.765625</ele>
<time>2013-11-23T06:31:19Z</time>
<speed>2.180000</speed>
<extensions>
<speed>2.2</speed>
<temp>0.00</temp>
<bpm>0</bpm>
<rpm>0.00</rpm>
</extensions>
</trkpt>
<trkpt lat="30.602918625" lon="34.797267914">
<ele>866.343750</ele>
<time>2013-11-23T06:31:24Z</time>
<speed>1.250000</speed>
<extensions>
<speed>1.3</speed>
<temp>0.00</temp>
<bpm>0</bpm>
<rpm>0.00</rpm>
</extensions>
</trkpt>
<trkpt lat="30.602853775" lon="34.797245026">
<ele>866.906250</ele>
<time>2013-11-23T06:31:29Z</time>
<speed>1.870000</speed>
<extensions>
<speed>1.9</speed>
<temp>0.00</temp>
<bpm>0</bpm>
<rpm>0.00</rpm>
</extensions>
</trkpt>
<trkpt lat="30.602787018" lon="34.797229767">
<ele>866.843750</ele>
<time>2013-11-23T06:31:34Z</time>
<speed>0.280000</speed>
<extensions>
<speed>0.3</speed>
<temp>0.00</temp>
<bpm>0</bpm>
<rpm>0.00</rpm>
</extensions>
</trkpt>
<trkpt lat="30.602785110" lon="34.797229767">
<ele>866.609375</ele>
<time>2013-11-23T06:31:39Z</time>
<speed>0.110000</speed>
<extensions>
<speed>0.1</speed>
<temp>0.00</temp>
<bpm>0</bpm>
<rpm>0.00</rpm>
</extensions>
</trkpt>
<trkpt lat="30.602781296" lon="34.797229767">
<ele>866.593750</ele>
<time>2013-11-23T06:31:44Z</time>
<speed>0.640000</speed>
<extensions>
<speed>0.6</speed>
<temp>0.00</temp>
<bpm>0</bpm>
<rpm>0.00</rpm>
</extensions>
</trkpt>
<trkpt lat="30.602779388" lon="34.797218323">
<ele>866.687500</ele>
<time>2013-11-23T06:31:49Z</time>
<speed>0.080000</speed>
<extensions>
<speed>0.1</speed>
<temp>0.00</temp>
<bpm>0</bpm>
<rpm>0.00</rpm>
</extensions>
</trkpt>
<trkpt lat="30.602779388" lon="34.797218323">
<ele>866.828125</ele>
<time>2013-11-23T06:31:54Z</time>
<speed>0.130000</speed>
<extensions>
<speed>0.1</speed>
<temp>0.00</temp>
<bpm>0</bpm>
<rpm>0.00</rpm>
</extensions>
</trkpt>
<trkpt lat="30.602783203" lon="34.797218323">
<ele>866.984375</ele>
<time>2013-11-23T06:31:59Z</time>
<speed>0.050000</speed>
<extensions>
<speed>0.1</speed>
<temp>0.00</temp>
<bpm>0</bpm>
<rpm>0.00</rpm>
</extensions>
</trkpt>
<trkpt lat="30.602777481" lon="34.797222137">
<ele>867.187500</ele>
<time>2013-11-23T06:32:04Z</time>
<speed>0.130000</speed>
<extensions>
<speed>0.1</speed>
<temp>0.00</temp>
<bpm>0</bpm>
<rpm>0.00</rpm>
</extensions>
</trkpt>
<trkpt lat="30.602771759" lon="34.797225952">
<ele>867.406250</ele>
<time>2013-11-23T06:32:09Z</time>
<speed>0.420000</speed>
<extensions>
<speed>0.4</speed>
<temp>0.00</temp>
<bpm>0</bpm>
<rpm>0.00</rpm>
</extensions>
</trkpt>
<trkpt lat="30.602777481" lon="34.797225952">
<ele>865.625000</ele>
<time>2013-11-23T06:32:14Z</time>
<extensions>
<speed>0.0</speed>
<temp>0.00</temp>
<bpm>0</bpm>
<rpm>0.00</rpm>
</extensions>
</trkpt>
<trkpt lat="30.602777481" lon="34.797225952">
<ele>865.625000</ele>
<time>2013-11-23T06:32:19Z</time>
<extensions>
<speed>0.0</speed>
<temp>0.00</temp>
<bpm>0</bpm>
<rpm>0.00</rpm>
</extensions>
</trkpt>
<trkpt lat="30.602777481" lon="34.797225952">
<ele>865.593750</ele>
<time>2013-11-23T06:32:24Z</time>
<extensions>
<speed>0.0</speed>
<temp>0.00</temp>
<bpm>0</bpm>
<rpm>0.00</rpm>
</extensions>
</trkpt>
<trkpt lat="30.602777481" lon="34.797225952">
<ele>865.578125</ele>
<time>2013-11-23T06:32:29Z</time>
<extensions>
<speed>0.0</speed>
<temp>0.00</temp>
<bpm>0</bpm>
<rpm>0.00</rpm>
</extensions>
</trkpt>
<trkpt lat="30.602777481" lon="34.797225952">
<ele>865.546875</ele>
<time>2013-11-23T06:32:34Z</time>
<extensions>
<speed>0.0</speed>
<temp>0.00</temp>
<bpm>0</bpm>
<rpm>0.00</rpm>
</extensions>
</trkpt>
<trkpt lat="30.602777481" lon="34.797225952">
<ele>865.531250</ele>
<time>2013-11-23T06:32:39Z</time>
<extensions>
<speed>0.0</speed>
<temp>0.00</temp>
<bpm>0</bpm>
<rpm>0.00</rpm>
</extensions>
</trkpt>
<trkpt lat="30.602777481" lon="34.797225952">
<ele>865.515625</ele>
<time>2013-11-23T06:32:44Z</time>
<extensions>
<speed>0.0</speed>
<temp>0.00</temp>
<bpm>0</bpm>
<rpm>0.00</rpm>
</extensions>
</trkpt>
<trkpt lat="30.602777481" lon="34.797225952">
<ele>865.500000</ele>
<time>2013-11-23T06:32:49Z</time>
<extensions>
<speed>0.0</speed>
<temp>0.00</temp>
<bpm>0</bpm>
<rpm>0.00</rpm>
</extensions>
</trkpt>
<trkpt lat="30.602777481" lon="34.797225952">
<ele>865.484375</ele>
<time>2013-11-23T06:32:54Z</time>
<extensions>
<speed>0.0</speed>
<temp>0.00</temp>
<bpm>0</bpm>
<rpm>0.00</rpm>
</extensions>
</trkpt>
<trkpt lat="30.602777481" lon="34.797225952">
<ele>865.484375</ele>
<time>2013-11-23T06:32:59Z</time>
<extensions>
<speed>0.0</speed>
<temp>0.00</temp>
<bpm>0</bpm>
<rpm>0.00</rpm>
</extensions>
</trkpt>
<trkpt lat="30.602777481" lon="34.797225952">
<ele>865.468750</ele>
<time>2013-11-23T06:33:04Z</time>
<extensions>
<speed>0.0</speed>
<temp>0.00</temp>
<bpm>0</bpm>
<rpm>0.00</rpm>
</extensions>
</trkpt>
<trkpt lat="30.602777481" lon="34.797225952">
<ele>865.453125</ele>
<time>2013-11-23T06:33:09Z</time>
<extensions>
<speed>0.0</speed>
<temp>0.00</temp>
<bpm>0</bpm>
<rpm>0.00</rpm>
</extensions>
</trkpt>
<trkpt lat="30.602777481" lon="34.797225952">
<ele>865.437500</ele>
<time>2013-11-23T06:33:14Z</time>
<extensions>
<speed>0.0</speed>
<temp>0.00</temp>
<bpm>0</bpm>
<rpm>0.00</rpm>
</extensions>
</trkpt>
<trkpt lat="30.602777481" lon="34.797225952">
<ele>865.421875</ele>
<time>2013-11-23T06:33:19Z</time>
<extensions>
<speed>0.0</speed>
<temp>0.00</temp>
<bpm>0</bpm>
<rpm>0.00</rpm>
</extensions>
</trkpt>
<trkpt lat="30.602777481" lon="34.797225952">
<ele>865.406250</ele>
<time>2013-11-23T06:33:24Z</time>
<extensions>
<speed>0.0</speed>
<temp>0.00</temp>
<bpm>0</bpm>
<rpm>0.00</rpm>
</extensions>
</trkpt>
<trkpt lat="30.602779388" lon="34.797225952">
<ele>865.390625</ele>
<time>2013-11-23T06:33:29Z</time>
<speed>0.010000</speed>
<extensions>
<speed>0.0</speed>
<temp>0.00</temp>
<bpm>0</bpm>
<rpm>0.00</rpm>
</extensions>
</trkpt>
<trkpt lat="30.602779388" lon="34.797225952">
<ele>865.375000</ele>
<time>2013-11-23T06:33:34Z</time>
<extensions>
<speed>0.0</speed>
<temp>0.00</temp>
<bpm>0</bpm>
<rpm>0.00</rpm>
</extensions>
</trkpt>
<trkpt lat="30.602779388" lon="34.797222137">
<ele>865.359375</ele>
<time>2013-11-23T06:33:39Z</time>
<extensions>
<speed>0.0</speed>
<temp>0.00</temp>
<bpm>0</bpm>
<rpm>0.00</rpm>
</extensions>
</trkpt>
<trkpt lat="30.602779388" lon="34.797222137">
<ele>865.343750</ele>
<time>2013-11-23T06:33:44Z</time>
<extensions>
<speed>0.0</speed>
<temp>0.00</temp>
<bpm>0</bpm>
<rpm>0.00</rpm>
</extensions>
</trkpt>
<trkpt lat="30.602779388" lon="34.797222137">
<ele>865.328125</ele>
<time>2013-11-23T06:33:49Z</time>
<extensions>
<speed>0.0</speed>
<temp>0.00</temp>
<bpm>0</bpm>
<rpm>0.00</rpm>
</extensions>
</trkpt>
<trkpt lat="30.602779388" lon="34.797222137">
<ele>865.312500</ele>
<time>2013-11-23T06:33:54Z</time>
<extensions>
<speed>0.0</speed>
<temp>0.00</temp>
<bpm>0</bpm>
<rpm>0.00</rpm>
</extensions>
</trkpt>
<trkpt lat="30.602779388" lon="34.797222137">
<ele>865.296875</ele>
<time>2013-11-23T06:33:59Z</time>
<extensions>
<speed>0.0</speed>
<temp>0.00</temp>
<bpm>0</bpm>
<rpm>0.00</rpm>
</extensions>
</trkpt>
<trkpt lat="30.602779388" lon="34.797222137">
<ele>865.281250</ele>
<time>2013-11-23T06:34:04Z</time>
<extensions>
<speed>0.0</speed>
<temp>0.00</temp>
<bpm>0</bpm>
<rpm>0.00</rpm>
</extensions>
</trkpt>
<trkpt lat="30.602779388" lon="34.797222137">
<ele>865.281250</ele>
<time>2013-11-23T06:34:09Z</time>
<extensions>
<speed>0.0</speed>
<temp>0.00</temp>
<bpm>0</bpm>
<rpm>0.00</rpm>
</extensions>
</trkpt>
<trkpt lat="30.602779388" lon="34.797222137">
<ele>865.265625</ele>
<time>2013-11-23T06:34:14Z</time>
<extensions>
<speed>0.0</speed>
<temp>0.00</temp>
<bpm>0</bpm>
<rpm>0.00</rpm>
</extensions>
</trkpt>
<trkpt lat="30.602779388" lon="34.797222137">
<ele>865.250000</ele>
<time>2013-11-23T06:34:19Z</time>
<extensions>
<speed>0.0</speed>
<temp>0.00</temp>
<bpm>0</bpm>
<rpm>0.00</rpm>
</extensions>
</trkpt>
<trkpt lat="30.602779388" lon="34.797222137">
<ele>865.234375</ele>
<time>2013-11-23T06:34:24Z</time>
<extensions>
<speed>0.0</speed>
<temp>0.00</temp>
<bpm>0</bpm>
<rpm>0.00</rpm>
</extensions>
</trkpt>
<trkpt lat="30.602779388" lon="34.797222137">
<ele>865.234375</ele>
<time>2013-11-23T06:34:29Z</time>
<extensions>
<speed>0.0</speed>
<temp>0.00</temp>
<bpm>0</bpm>
<rpm>0.00</rpm>
</extensions>
</trkpt>
<trkpt lat="30.602779388" lon="34.797222137">
<ele>865.218750</ele>
<time>2013-11-23T06:34:34Z</time>
<extensions>
<speed>0.0</speed>
<temp>0.00</temp>
<bpm>0</bpm>
<rpm>0.00</rpm>
</extensions>
</trkpt>
<trkpt lat="30.602779388" lon="34.797222137">
<ele>865.203125</ele>
<time>2013-11-23T06:34:39Z</time>
<speed>0.010000</speed>
<extensions>
<speed>0.0</speed>
<temp>0.00</temp>
<bpm>0</bpm>
<rpm>0.00</rpm>
</extensions>
</trkpt>
<trkpt lat="30.602779388" lon="34.797222137">
<ele>865.187500</ele>
<time>2013-11-23T06:34:44Z</time>
<extensions>
<speed>0.0</speed>
<temp>0.00</temp>
<bpm>0</bpm>
<rpm>0.00</rpm>
</extensions>
</trkpt>
<trkpt lat="30.602779388" lon="34.797222137">
<ele>865.171875</ele>
<time>2013-11-23T06:34:49Z</time>
<extensions>
<speed>0.0</speed>
<temp>0.00</temp>
<bpm>0</bpm>
<rpm>0.00</rpm>
</extensions>
</trkpt>
<trkpt lat="30.602779388" lon="34.797222137">
<ele>865.156250</ele>
<time>2013-11-23T06:34:54Z</time>
<speed>0.010000</speed>
<extensions>
<speed>0.0</speed>
<temp>0.00</temp>
<bpm>0</bpm>
<rpm>0.00</rpm>
</extensions>
</trkpt>
<trkpt lat="30.602779388" lon="34.797222137">
<ele>865.140625</ele>
<time>2013-11-23T06:34:59Z</time>
<extensions>
<speed>0.0</speed>
<temp>0.00</temp>
<bpm>0</bpm>
<rpm>0.00</rpm>
</extensions>
</trkpt>
<trkpt lat="30.602779388" lon="34.797222137">
<ele>865.125000</ele>
<time>2013-11-23T06:35:04Z</time>
<extensions>
<speed>0.0</speed>
<temp>0.00</temp>
<bpm>0</bpm>
<rpm>0.00</rpm>
</extensions>
</trkpt>
<trkpt lat="30.602779388" lon="34.797222137">
<ele>865.125000</ele>
<time>2013-11-23T06:35:09Z</time>
<extensions>
<speed>0.0</speed>
<temp>0.00</temp>
<bpm>0</bpm>
<rpm>0.00</rpm>
</extensions>
</trkpt>
<trkpt lat="30.602779388" lon="34.797222137">
<ele>865.109375</ele>
<time>2013-11-23T06:35:14Z</time>
<extensions>
<speed>0.0</speed>
<temp>0.00</temp>
<bpm>0</bpm>
<rpm>0.00</rpm>
</extensions>
</trkpt>
<trkpt lat="30.602779388" lon="34.797222137">
<ele>865.093750</ele>
<time>2013-11-23T06:35:19Z</time>
<extensions>
<speed>0.0</speed>
<temp>0.00</temp>
<bpm>0</bpm>
<rpm>0.00</rpm>
</extensions>
</trkpt>
<trkpt lat="30.602779388" lon="34.797222137">
<ele>865.078125</ele>
<time>2013-11-23T06:35:24Z</time>
<extensions>
<speed>0.0</speed>
<temp>0.00</temp>
<bpm>0</bpm>
<rpm>0.00</rpm>
</extensions>
</trkpt>
<trkpt lat="30.602779388" lon="34.797222137">
<ele>865.062500</ele>
<time>2013-11-23T06:35:29Z</time>
<extensions>
<speed>0.0</speed>
<temp>0.00</temp>
<bpm>0</bpm>
<rpm>0.00</rpm>
</extensions>
</trkpt>
<trkpt lat="30.602781296" lon="34.797222137">
<ele>865.062500</ele>
<time>2013-11-23T06:35:34Z</time>
<extensions>
<speed>0.0</speed>
<temp>0.00</temp>
<bpm>0</bpm>
<rpm>0.00</rpm>
</extensions>
</trkpt>
<trkpt lat="30.602781296" lon="34.797222137">
<ele>865.046875</ele>
<time>2013-11-23T06:35:39Z</time>
<extensions>
<speed>0.0</speed>
<temp>0.00</temp>
<bpm>0</bpm>
<rpm>0.00</rpm>
</extensions>
</trkpt>
<trkpt lat="30.602781296" lon="34.797222137">
<ele>865.031250</ele>
<time>2013-11-23T06:35:44Z</time>
<extensions>
<speed>0.0</speed>
<temp>0.00</temp>
<bpm>0</bpm>
<rpm>0.00</rpm>
</extensions>
</trkpt>
<trkpt lat="30.602781296" lon="34.797222137">
<ele>865.015625</ele>
<time>2013-11-23T06:35:49Z</time>
<extensions>
<speed>0.0</speed>
<temp>0.00</temp>
<bpm>0</bpm>
<rpm>0.00</rpm>
</extensions>
</trkpt>
<trkpt lat="30.602781296" lon="34.797222137">
<ele>865.000000</ele>
<time>2013-11-23T06:35:54Z</time>
<extensions>
<speed>0.0</speed>
<temp>0.00</temp>
<bpm>0</bpm>
<rpm>0.00</rpm>
</extensions>
</trkpt>
<trkpt lat="30.602781296" lon="34.797222137">
<ele>865.000000</ele>
<time>2013-11-23T06:35:59Z</time>
<extensions>
<speed>0.0</speed>
<temp>0.00</temp>
<bpm>0</bpm>
<rpm>0.00</rpm>
</extensions>
</trkpt>
<trkpt lat="30.602781296" lon="34.797222137">
<ele>864.984375</ele>
<time>2013-11-23T06:36:04Z</time>
<extensions>
<speed>0.0</speed>
<temp>0.00</temp>
<bpm>0</bpm>
<rpm>0.00</rpm>
</extensions>
</trkpt>
<trkpt lat="30.602781296" lon="34.797222137">
<ele>864.968750</ele>
<time>2013-11-23T06:36:09Z</time>
<speed>0.010000</speed>
<extensions>
<speed>0.0</speed>
<temp>0.00</temp>
<bpm>0</bpm>
<rpm>0.00</rpm>
</extensions>
</trkpt>
<trkpt lat="30.602781296" lon="34.797222137">
<ele>864.953125</ele>
<time>2013-11-23T06:36:14Z</time>
<extensions>
<speed>0.0</speed>
<temp>0.00</temp>
<bpm>0</bpm>
<rpm>0.00</rpm>
</extensions>
</trkpt>
<trkpt lat="30.602781296" lon="34.797222137">
<ele>864.937500</ele>
<time>2013-11-23T06:36:19Z</time>
<extensions>
<speed>0.0</speed>
<temp>0.00</temp>
<bpm>0</bpm>
<rpm>0.00</rpm>
</extensions>
</trkpt>
<trkpt lat="30.602781296" lon="34.797222137">
<ele>864.937500</ele>
<time>2013-11-23T06:36:24Z</time>
<extensions>
<speed>0.0</speed>
<temp>0.00</temp>
<bpm>0</bpm>
<rpm>0.00</rpm>
</extensions>
</trkpt>
<trkpt lat="30.602781296" lon="34.797222137">
<ele>864.921875</ele>
<time>2013-11-23T06:36:29Z</time>
<extensions>
<speed>0.0</speed>
<temp>0.00</temp>
<bpm>0</bpm>
<rpm>0.00</rpm>
</extensions>
</trkpt>
<trkpt lat="30.602781296" lon="34.797222137">
<ele>864.906250</ele>
<time>2013-11-23T06:36:34Z</time>
<extensions>
<speed>0.0</speed>
<temp>0.00</temp>
<bpm>0</bpm>
<rpm>0.00</rpm>
</extensions>
</trkpt>
<trkpt lat="30.602781296" lon="34.797222137">
<ele>864.890625</ele>
<time>2013-11-23T06:36:39Z</time>
<extensions>
<speed>0.0</speed>
<temp>0.00</temp>
<bpm>0</bpm>
<rpm>0.00</rpm>
</extensions>
</trkpt>
<trkpt lat="30.602781296" lon="34.797222137">
<ele>864.875000</ele>
<time>2013-11-23T06:36:44Z</time>
<extensions>
<speed>0.0</speed>
<temp>0.00</temp>
<bpm>0</bpm>
<rpm>0.00</rpm>
</extensions>
</trkpt>
<trkpt lat="30.602781296" lon="34.797222137">
<ele>864.859375</ele>
<time>2013-11-23T06:36:49Z</time>
<extensions>
<speed>0.0</speed>
<temp>0.00</temp>
<bpm>0</bpm>
<rpm>0.00</rpm>
</extensions>
</trkpt>
<trkpt lat="30.602781296" lon="34.797222137">
<ele>864.859375</ele>
<time>2013-11-23T06:36:54Z</time>
<extensions>
<speed>0.0</speed>
<temp>0.00</temp>
<bpm>0</bpm>
<rpm>0.00</rpm>
</extensions>
</trkpt>
<trkpt lat="30.602781296" lon="34.797218323">
<ele>864.843750</ele>
<time>2013-11-23T06:36:59Z</time>
<extensions>
<speed>0.0</speed>
<temp>0.00</temp>
<bpm>0</bpm>
<rpm>0.00</rpm>
</extensions>
</trkpt>
<trkpt lat="30.602781296" lon="34.797218323">
<ele>864.828125</ele>
<time>2013-11-23T06:37:04Z</time>
<extensions>
<speed>0.0</speed>
<temp>0.00</temp>
<bpm>0</bpm>
<rpm>0.00</rpm>
</extensions>
</trkpt>
<trkpt lat="30.602781296" lon="34.797218323">
<ele>864.812500</ele>
<time>2013-11-23T06:37:09Z</time>
<extensions>
<speed>0.0</speed>
<temp>0.00</temp>
<bpm>0</bpm>
<rpm>0.00</rpm>
</extensions>
</trkpt>
<trkpt lat="30.602781296" lon="34.797218323">
<ele>864.796875</ele>
<time>2013-11-23T06:37:14Z</time>
<extensions>
<speed>0.0</speed>
<temp>0.00</temp>
<bpm>0</bpm>
<rpm>0.00</rpm>
</extensions>
</trkpt>
<trkpt lat="30.602781296" lon="34.797218323">
<ele>864.796875</ele>
<time>2013-11-23T06:37:19Z</time>
<extensions>
<speed>0.0</speed>
<temp>0.00</temp>
<bpm>0</bpm>
<rpm>0.00</rpm>
</extensions>
</trkpt>
<trkpt lat="30.602781296" lon="34.797218323">
<ele>864.781250</ele>
<time>2013-11-23T06:37:24Z</time>
<extensions>
<speed>0.0</speed>
<temp>0.00</temp>
<bpm>0</bpm>
<rpm>0.00</rpm>
</extensions>
</trkpt>
<trkpt lat="30.602781296" lon="34.797218323">
<ele>864.765625</ele>
<time>2013-11-23T06:37:29Z</time>
<extensions>
<speed>0.0</speed>
<temp>0.00</temp>
<bpm>0</bpm>
<rpm>0.00</rpm>
</extensions>
</trkpt>
<trkpt lat="30.602781296" lon="34.797218323">
<ele>864.750000</ele>
<time>2013-11-23T06:37:34Z</time>
<extensions>
<speed>0.0</speed>
<temp>0.00</temp>
<bpm>0</bpm>
<rpm>0.00</rpm>
</extensions>
</trkpt>
<trkpt lat="30.602781296" lon="34.797218323">
<ele>864.750000</ele>
<time>2013-11-23T06:37:39Z</time>
<extensions>
<speed>0.0</speed>
<temp>0.00</temp>
<bpm>0</bpm>
<rpm>0.00</rpm>
</extensions>
</trkpt>
<trkpt lat="30.602781296" lon="34.797218323">
<ele>864.734375</ele>
<time>2013-11-23T06:37:44Z</time>
<extensions>
<speed>0.0</speed>
<temp>0.00</temp>
<bpm>0</bpm>
<rpm>0.00</rpm>
</extensions>
</trkpt>
<trkpt lat="30.602781296" lon="34.797218323">
<ele>864.718750</ele>
<time>2013-11-23T06:37:49Z</time>
<extensions>
<speed>0.0</speed>
<temp>0.00</temp>
<bpm>0</bpm>
<rpm>0.00</rpm>
</extensions>
</trkpt>
<trkpt lat="30.602781296" lon="34.797218323">
<ele>864.703125</ele>
<time>2013-11-23T06:37:54Z</time>
<extensions>
<speed>0.0</speed>
<temp>0.00</temp>
<bpm>0</bpm>
<rpm>0.00</rpm>
</extensions>
</trkpt>
<trkpt lat="30.602781296" lon="34.797218323">
<ele>864.687500</ele>
<time>2013-11-23T06:37:59Z</time>
<extensions>
<speed>0.0</speed>
<temp>0.00</temp>
<bpm>0</bpm>
<rpm>0.00</rpm>
</extensions>
</trkpt>
<trkpt lat="30.602781296" lon="34.797218323">
<ele>864.687500</ele>
<time>2013-11-23T06:38:04Z</time>
<extensions>
<speed>0.0</speed>
<temp>0.00</temp>
<bpm>0</bpm>
<rpm>0.00</rpm>
</extensions>
</trkpt>
<trkpt lat="30.602781296" lon="34.797218323">
<ele>864.671875</ele>
<time>2013-11-23T06:38:09Z</time>
<extensions>
<speed>0.0</speed>
<temp>0.00</temp>
<bpm>0</bpm>
<rpm>0.00</rpm>
</extensions>
</trkpt>
<trkpt lat="30.602781296" lon="34.797218323">
<ele>864.656250</ele>
<time>2013-11-23T06:38:14Z</time>
<extensions>
<speed>0.0</speed>
<temp>0.00</temp>
<bpm>0</bpm>
<rpm>0.00</rpm>
</extensions>
</trkpt>
<trkpt lat="30.602781296" lon="34.797218323">
<ele>864.640625</ele>
<time>2013-11-23T06:38:19Z</time>
<extensions>
<speed>0.0</speed>
<temp>0.00</temp>
<bpm>0</bpm>
<rpm>0.00</rpm>
</extensions>
</trkpt>
<trkpt lat="30.602783203" lon="34.797218323">
<ele>864.640625</ele>
<time>2013-11-23T06:38:24Z</time>
<extensions>
<speed>0.0</speed>
<temp>0.00</temp>
<bpm>0</bpm>
<rpm>0.00</rpm>
</extensions>
</trkpt>
<trkpt lat="30.602783203" lon="34.797218323">
<ele>864.625000</ele>
<time>2013-11-23T06:38:29Z</time>
<extensions>
<speed>0.0</speed>
<temp>0.00</temp>
<bpm>0</bpm>
<rpm>0.00</rpm>
</extensions>
</trkpt>
<trkpt lat="30.602783203" lon="34.797218323">
<ele>864.609375</ele>
<time>2013-11-23T06:38:34Z</time>
<extensions>
<speed>0.0</speed>
<temp>0.00</temp>
<bpm>0</bpm>
<rpm>0.00</rpm>
</extensions>
</trkpt>
<trkpt lat="30.602783203" lon="34.797218323">
<ele>864.593750</ele>
<time>2013-11-23T06:38:39Z</time>
<extensions>
<speed>0.0</speed>
<temp>0.00</temp>
<bpm>0</bpm>
<rpm>0.00</rpm>
</extensions>
</trkpt>
<trkpt lat="30.602783203" lon="34.797218323">
<ele>864.593750</ele>
<time>2013-11-23T06:38:44Z</time>
<extensions>
<speed>0.0</speed>
<temp>0.00</temp>
<bpm>0</bpm>
<rpm>0.00</rpm>
</extensions>
</trkpt>
<trkpt lat="30.602783203" lon="34.797218323">
<ele>864.578125</ele>
<time>2013-11-23T06:38:49Z</time>
<extensions>
<speed>0.0</speed>
<temp>0.00</temp>
<bpm>0</bpm>
<rpm>0.00</rpm>
</extensions>
</trkpt>
<trkpt lat="30.602783203" lon="34.797218323">
<ele>864.562500</ele>
<time>2013-11-23T06:38:54Z</time>
<extensions>
<speed>0.0</speed>
<temp>0.00</temp>
<bpm>0</bpm>
<rpm>0.00</rpm>
</extensions>
</trkpt>
<trkpt lat="30.602783203" lon="34.797218323">
<ele>864.562500</ele>
<time>2013-11-23T06:38:59Z</time>
<speed>0.010000</speed>
<extensions>
<speed>0.0</speed>
<temp>0.00</temp>
<bpm>0</bpm>
<rpm>0.00</rpm>
</extensions>
</trkpt>
<trkpt lat="30.602783203" lon="34.797218323">
<ele>864.562500</ele>
<time>2013-11-23T06:39:04Z</time>
<extensions>
<speed>0.0</speed>
<temp>0.00</temp>
<bpm>0</bpm>
<rpm>0.00</rpm>
</extensions>
</trkpt>
<trkpt lat="30.602783203" lon="34.797218323">
<ele>864.546875</ele>
<time>2013-11-23T06:39:09Z</time>
<extensions>
<speed>0.0</speed>
<temp>0.00</temp>
<bpm>0</bpm>
<rpm>0.00</rpm>
</extensions>
</trkpt>
<trkpt lat="30.602783203" lon="34.797218323">
<ele>864.546875</ele>
<time>2013-11-23T06:39:14Z</time>
<extensions>
<speed>0.0</speed>
<temp>0.00</temp>
<bpm>0</bpm>
<rpm>0.00</rpm>
</extensions>
</trkpt>
<trkpt lat="30.602783203" lon="34.797218323">
<ele>864.546875</ele>
<time>2013-11-23T06:39:19Z</time>
<extensions>
<speed>0.0</speed>
<temp>0.00</temp>
<bpm>0</bpm>
<rpm>0.00</rpm>
</extensions>
</trkpt>
<trkpt lat="30.602783203" lon="34.797218323">
<ele>864.531250</ele>
<time>2013-11-23T06:39:24Z</time>
<extensions>
<speed>0.0</speed>
<temp>0.00</temp>
<bpm>0</bpm>
<rpm>0.00</rpm>
</extensions>
</trkpt>
<trkpt lat="30.602783203" lon="34.797214508">
<ele>864.515625</ele>
<time>2013-11-23T06:39:29Z</time>
<extensions>
<speed>0.0</speed>
<temp>0.00</temp>
<bpm>0</bpm>
<rpm>0.00</rpm>
</extensions>
</trkpt>
<trkpt lat="30.602783203" lon="34.797214508">
<ele>864.500000</ele>
<time>2013-11-23T06:39:34Z</time>
<extensions>
<speed>0.0</speed>
<temp>0.00</temp>
<bpm>0</bpm>
<rpm>0.00</rpm>
</extensions>
</trkpt>
<trkpt lat="30.602783203" lon="34.797214508">
<ele>864.468750</ele>
<time>2013-11-23T06:39:39Z</time>
<speed>0.010000</speed>
<extensions>
<speed>0.0</speed>
<temp>0.00</temp>
<bpm>0</bpm>
<rpm>0.00</rpm>
</extensions>
</trkpt>
<trkpt lat="30.602783203" lon="34.797214508">
<ele>864.421875</ele>
<time>2013-11-23T06:39:44Z</time>
<extensions>
<speed>0.0</speed>
<temp>0.00</temp>
<bpm>0</bpm>
<rpm>0.00</rpm>
</extensions>
</trkpt>
<trkpt lat="30.602783203" lon="34.797214508">
<ele>864.390625</ele>
<time>2013-11-23T06:39:49Z</time>
<extensions>
<speed>0.0</speed>
<temp>0.00</temp>
<bpm>0</bpm>
<rpm>0.00</rpm>
</extensions>
</trkpt>
<trkpt lat="30.602783203" lon="34.797214508">
<ele>864.375000</ele>
<time>2013-11-23T06:39:54Z</time>
<extensions>
<speed>0.0</speed>
<temp>0.00</temp>
<bpm>0</bpm>
<rpm>0.00</rpm>
</extensions>
</trkpt>
<trkpt lat="30.602783203" lon="34.797214508">
<ele>864.343750</ele>
<time>2013-11-23T06:39:59Z</time>
<speed>0.010000</speed>
<extensions>
<speed>0.0</speed>
<temp>0.00</temp>
<bpm>0</bpm>
<rpm>0.00</rpm>
</extensions>
</trkpt>
<trkpt lat="30.602783203" lon="34.797214508">
<ele>864.296875</ele>
<time>2013-11-23T06:40:04Z</time>
<extensions>
<speed>0.0</speed>
<temp>0.00</temp>
<bpm>0</bpm>
<rpm>0.00</rpm>
</extensions>
</trkpt>
<trkpt lat="30.602783203" lon="34.797214508">
<ele>864.265625</ele>
<time>2013-11-23T06:40:09Z</time>
<extensions>
<speed>0.0</speed>
<temp>0.00</temp>
<bpm>0</bpm>
<rpm>0.00</rpm>
</extensions>
</trkpt>
<trkpt lat="30.602783203" lon="34.797214508">
<ele>864.234375</ele>
<time>2013-11-23T06:40:14Z</time>
<extensions>
<speed>0.0</speed>
<temp>0.00</temp>
<bpm>0</bpm>
<rpm>0.00</rpm>
</extensions>
</trkpt>
<trkpt lat="30.602783203" lon="34.797214508">
<ele>864.203125</ele>
<time>2013-11-23T06:40:19Z</time>
<extensions>
<speed>0.0</speed>
<temp>0.00</temp>
<bpm>0</bpm>
<rpm>0.00</rpm>
</extensions>
</trkpt>
<trkpt lat="30.602783203" lon="34.797214508">
<ele>864.171875</ele>
<time>2013-11-23T06:40:24Z</time>
<extensions>
<speed>0.0</speed>
<temp>0.00</temp>
<bpm>0</bpm>
<rpm>0.00</rpm>
</extensions>
</trkpt>
<trkpt lat="30.602783203" lon="34.797214508">
<ele>864.140625</ele>
<time>2013-11-23T06:40:29Z</time>
<extensions>
<speed>0.0</speed>
<temp>0.00</temp>
<bpm>0</bpm>
<rpm>0.00</rpm>
</extensions>
</trkpt>
<trkpt lat="30.602783203" lon="34.797214508">
<ele>864.109375</ele>
<time>2013-11-23T06:40:34Z</time>
<extensions>
<speed>0.0</speed>
<temp>0.00</temp>
<bpm>0</bpm>
<rpm>0.00</rpm>
</extensions>
</trkpt>
<trkpt lat="30.602783203" lon="34.797214508">
<ele>864.093750</ele>
<time>2013-11-23T06:40:39Z</time>
<extensions>
<speed>0.0</speed>
<temp>0.00</temp>
<bpm>0</bpm>
<rpm>0.00</rpm>
</extensions>
</trkpt>
<trkpt lat="30.602783203" lon="34.797214508">
<ele>864.078125</ele>
<time>2013-11-23T06:40:44Z</time>
<extensions>
<speed>0.0</speed>
<temp>0.00</temp>
<bpm>0</bpm>
<rpm>0.00</rpm>
</extensions>
</trkpt>
<trkpt lat="30.602783203" lon="34.797214508">
<ele>864.062500</ele>
<time>2013-11-23T06:40:49Z</time>
<extensions>
<speed>0.0</speed>
<temp>0.00</temp>
<bpm>0</bpm>
<rpm>0.00</rpm>
</extensions>
</trkpt>
<trkpt lat="30.602783203" lon="34.797214508">
<ele>864.031250</ele>
<time>2013-11-23T06:40:54Z</time>
<extensions>
<speed>0.0</speed>
<temp>0.00</temp>
<bpm>0</bpm>
<rpm>0.00</rpm>
</extensions>
</trkpt>
<trkpt lat="30.602783203" lon="34.797210693">
<ele>864.015625</ele>
<time>2013-11-23T06:40:59Z</time>
<extensions>
<speed>0.0</speed>
<temp>0.00</temp>
<bpm>0</bpm>
<rpm>0.00</rpm>
</extensions>
</trkpt>
<trkpt lat="30.602783203" lon="34.797210693">
<ele>864.000000</ele>
<time>2013-11-23T06:41:04Z</time>
<extensions>
<speed>0.0</speed>
<temp>0.00</temp>
<bpm>0</bpm>
<rpm>0.00</rpm>
</extensions>
</trkpt>
<trkpt lat="30.602783203" lon="34.797210693">
<ele>863.984375</ele>
<time>2013-11-23T06:41:09Z</time>
<extensions>
<speed>0.0</speed>
<temp>0.00</temp>
<bpm>0</bpm>
<rpm>0.00</rpm>
</extensions>
</trkpt>
<trkpt lat="30.602783203" lon="34.797210693">
<ele>863.953125</ele>
<time>2013-11-23T06:41:14Z</time>
<extensions>
<speed>0.0</speed>
<temp>0.00</temp>
<bpm>0</bpm>
<rpm>0.00</rpm>
</extensions>
</trkpt>
<trkpt lat="30.602783203" lon="34.797210693">
<ele>863.937500</ele>
<time>2013-11-23T06:41:19Z</time>
<extensions>
<speed>0.0</speed>
<temp>0.00</temp>
<bpm>0</bpm>
<rpm>0.00</rpm>
</extensions>
</trkpt>
<trkpt lat="30.602783203" lon="34.797210693">
<ele>863.906250</ele>
<time>2013-11-23T06:41:24Z</time>
<extensions>
<speed>0.0</speed>
<temp>0.00</temp>
<bpm>0</bpm>
<rpm>0.00</rpm>
</extensions>
</trkpt>
<trkpt lat="30.602783203" lon="34.797210693">
<ele>863.906250</ele>
<time>2013-11-23T06:41:29Z</time>
<extensions>
<speed>0.0</speed>
<temp>0.00</temp>
<bpm>0</bpm>
<rpm>0.00</rpm>
</extensions>
</trkpt>
<trkpt lat="30.602783203" lon="34.797210693">
<ele>863.875000</ele>
<time>2013-11-23T06:41:34Z</time>
<extensions>
<speed>0.0</speed>
<temp>0.00</temp>
<bpm>0</bpm>
<rpm>0.00</rpm>
</extensions>
</trkpt>
<trkpt lat="30.602783203" lon="34.797210693">
<ele>863.859375</ele>
<time>2013-11-23T06:41:39Z</time>
<extensions>
<speed>0.0</speed>
<temp>0.00</temp>
<bpm>0</bpm>
<rpm>0.00</rpm>
</extensions>
</trkpt>
<trkpt lat="30.602783203" lon="34.797210693">
<ele>863.843750</ele>
<time>2013-11-23T06:41:44Z</time>
<extensions>
<speed>0.0</speed>
<temp>0.00</temp>
<bpm>0</bpm>
<rpm>0.00</rpm>
</extensions>
</trkpt>
<trkpt lat="30.602783203" lon="34.797210693">
<ele>863.812500</ele>
<time>2013-11-23T06:41:49Z</time>
<extensions>
<speed>0.0</speed>
<temp>0.00</temp>
<bpm>0</bpm>
<rpm>0.00</rpm>
</extensions>
</trkpt>
<trkpt lat="30.602783203" lon="34.797210693">
<ele>863.796875</ele>
<time>2013-11-23T06:41:54Z</time>
<extensions>
<speed>0.0</speed>
<temp>0.00</temp>
<bpm>0</bpm>
<rpm>0.00</rpm>
</extensions>
</trkpt>
<trkpt lat="30.602783203" lon="34.797210693">
<ele>863.781250</ele>
<time>2013-11-23T06:41:59Z</time>
<extensions>
<speed>0.0</speed>
<temp>0.00</temp>
<bpm>0</bpm>
<rpm>0.00</rpm>
</extensions>
</trkpt>
<trkpt lat="30.602783203" lon="34.797210693">
<ele>863.765625</ele>
<time>2013-11-23T06:42:04Z</time>
<extensions>
<speed>0.0</speed>
<temp>0.00</temp>
<bpm>0</bpm>
<rpm>0.00</rpm>
</extensions>
</trkpt>
<trkpt lat="30.602783203" lon="34.797210693">
<ele>863.734375</ele>
<time>2013-11-23T06:42:09Z</time>
<extensions>
<speed>0.0</speed>
<temp>0.00</temp>
<bpm>0</bpm>
<rpm>0.00</rpm>
</extensions>
</trkpt>
<trkpt lat="30.602783203" lon="34.797210693">
<ele>863.718750</ele>
<time>2013-11-23T06:42:14Z</time>
<extensions>
<speed>0.0</speed>
<temp>0.00</temp>
<bpm>0</bpm>
<rpm>0.00</rpm>
</extensions>
</trkpt>
<trkpt lat="30.602783203" lon="34.797210693">
<ele>863.703125</ele>
<time>2013-11-23T06:42:19Z</time>
<extensions>
<speed>0.0</speed>
<temp>0.00</temp>
<bpm>0</bpm>
<rpm>0.00</rpm>
</extensions>
</trkpt>
<trkpt lat="30.602783203" lon="34.797210693">
<ele>863.687500</ele>
<time>2013-11-23T06:42:24Z</time>
<extensions>
<speed>0.0</speed>
<temp>0.00</temp>
<bpm>0</bpm>
<rpm>0.00</rpm>
</extensions>
</trkpt>
<trkpt lat="30.602783203" lon="34.797210693">
<ele>863.656250</ele>
<time>2013-11-23T06:42:29Z</time>
<extensions>
<speed>0.0</speed>
<temp>0.00</temp>
<bpm>0</bpm>
<rpm>0.00</rpm>
</extensions>
</trkpt>
<trkpt lat="30.602783203" lon="34.797210693">
<ele>863.640625</ele>
<time>2013-11-23T06:42:34Z</time>
<extensions>
<speed>0.0</speed>
<temp>0.00</temp>
<bpm>0</bpm>
<rpm>0.00</rpm>
</extensions>
</trkpt>
<trkpt lat="30.602783203" lon="34.797210693">
<ele>863.640625</ele>
<time>2013-11-23T06:42:39Z</time>
<extensions>
<speed>0.0</speed>
<temp>0.00</temp>
<bpm>0</bpm>
<rpm>0.00</rpm>
</extensions>
</trkpt>
<trkpt lat="30.602783203" lon="34.797210693">
<ele>863.609375</ele>
<time>2013-11-23T06:42:44Z</time>
<extensions>
<speed>0.0</speed>
<temp>0.00</temp>
<bpm>0</bpm>
<rpm>0.00</rpm>
</extensions>
</trkpt>
<trkpt lat="30.602783203" lon="34.797210693">
<ele>863.609375</ele>
<time>2013-11-23T06:42:49Z</time>
<extensions>
<speed>0.0</speed>
<temp>0.00</temp>
<bpm>0</bpm>
<rpm>0.00</rpm>
</extensions>
</trkpt>
<trkpt lat="30.602783203" lon="34.797210693">
<ele>863.593750</ele>
<time>2013-11-23T06:42:54Z</time>
<extensions>
<speed>0.0</speed>
<temp>0.00</temp>
<bpm>0</bpm>
<rpm>0.00</rpm>
</extensions>
</trkpt>
<trkpt lat="30.602783203" lon="34.797206879">
<ele>863.578125</ele>
<time>2013-11-23T06:42:59Z</time>
<extensions>
<speed>0.0</speed>
<temp>0.00</temp>
<bpm>0</bpm>
<rpm>0.00</rpm>
</extensions>
</trkpt>
<trkpt lat="30.602783203" lon="34.797206879">
<ele>863.562500</ele>
<time>2013-11-23T06:43:04Z</time>
<extensions>
<speed>0.0</speed>
<temp>0.00</temp>
<bpm>0</bpm>
<rpm>0.00</rpm>
</extensions>
</trkpt>
<trkpt lat="30.602783203" lon="34.797206879">
<ele>863.546875</ele>
<time>2013-11-23T06:43:09Z</time>
<extensions>
<speed>0.0</speed>
<temp>0.00</temp>
<bpm>0</bpm>
<rpm>0.00</rpm>
</extensions>
</trkpt>
<trkpt lat="30.602783203" lon="34.797206879">
<ele>863.531250</ele>
<time>2013-11-23T06:43:14Z</time>
<extensions>
<speed>0.0</speed>
<temp>0.00</temp>
<bpm>0</bpm>
<rpm>0.00</rpm>
</extensions>
</trkpt>
<trkpt lat="30.602783203" lon="34.797206879">
<ele>863.515625</ele>
<time>2013-11-23T06:43:19Z</time>
<extensions>
<speed>0.0</speed>
<temp>0.00</temp>
<bpm>0</bpm>
<rpm>0.00</rpm>
</extensions>
</trkpt>
<trkpt lat="30.602783203" lon="34.797206879">
<ele>863.484375</ele>
<time>2013-11-23T06:43:24Z</time>
<extensions>
<speed>0.0</speed>
<temp>0.00</temp>
<bpm>0</bpm>
<rpm>0.00</rpm>
</extensions>
</trkpt>
<trkpt lat="30.602783203" lon="34.797206879">
<ele>863.468750</ele>
<time>2013-11-23T06:43:29Z</time>
<extensions>
<speed>0.0</speed>
<temp>0.00</temp>
<bpm>0</bpm>
<rpm>0.00</rpm>
</extensions>
</trkpt>
<trkpt lat="30.602783203" lon="34.797206879">
<ele>863.453125</ele>
<time>2013-11-23T06:43:34Z</time>
<extensions>
<speed>0.0</speed>
<temp>0.00</temp>
<bpm>0</bpm>
<rpm>0.00</rpm>
</extensions>
</trkpt>
<trkpt lat="30.602783203" lon="34.797206879">
<ele>863.437500</ele>
<time>2013-11-23T06:43:39Z</time>
<extensions>
<speed>0.0</speed>
<temp>0.00</temp>
<bpm>0</bpm>
<rpm>0.00</rpm>
</extensions>
</trkpt>
<trkpt lat="30.602783203" lon="34.797206879">
<ele>863.421875</ele>
<time>2013-11-23T06:43:44Z</time>
<extensions>
<speed>0.0</speed>
<temp>0.00</temp>
<bpm>0</bpm>
<rpm>0.00</rpm>
</extensions>
</trkpt>
<trkpt lat="30.602783203" lon="34.797206879">
<ele>863.406250</ele>
<time>2013-11-23T06:43:49Z</time>
<extensions>
<speed>0.0</speed>
<temp>0.00</temp>
<bpm>0</bpm>
<rpm>0.00</rpm>
</extensions>
</trkpt>
<trkpt lat="30.602783203" lon="34.797206879">
<ele>863.390625</ele>
<time>2013-11-23T06:43:54Z</time>
<extensions>
<speed>0.0</speed>
<temp>0.00</temp>
<bpm>0</bpm>
<rpm>0.00</rpm>
</extensions>
</trkpt>
<trkpt lat="30.602783203" lon="34.797206879">
<ele>863.375000</ele>
<time>2013-11-23T06:43:59Z</time>
<extensions>
<speed>0.0</speed>
<temp>0.00</temp>
<bpm>0</bpm>
<rpm>0.00</rpm>
</extensions>
</trkpt>
<trkpt lat="30.602783203" lon="34.797206879">
<ele>863.359375</ele>
<time>2013-11-23T06:44:04Z</time>
<speed>0.070000</speed>
<extensions>
<speed>0.1</speed>
<temp>0.00</temp>
<bpm>0</bpm>
<rpm>0.00</rpm>
</extensions>
</trkpt>
<trkpt lat="30.602781296" lon="34.797199249">
<ele>863.515625</ele>
<time>2013-11-23T06:44:09Z</time>
<speed>0.430000</speed>
<extensions>
<speed>0.4</speed>
<temp>0.00</temp>
<bpm>0</bpm>
<rpm>0.00</rpm>
</extensions>
</trkpt>
<trkpt lat="30.602781296" lon="34.797210693">
<ele>863.187500</ele>
<time>2013-11-23T06:44:14Z</time>
<speed>0.030000</speed>
<extensions>
<speed>0.0</speed>
<temp>0.00</temp>
<bpm>0</bpm>
<rpm>0.00</rpm>
</extensions>
</trkpt>
<trkpt lat="30.602781296" lon="34.797206879">
<ele>863.125000</ele>
<time>2013-11-23T06:44:19Z</time>
<speed>0.030000</speed>
<extensions>
<speed>0.0</speed>
<temp>0.00</temp>
<bpm>0</bpm>
<rpm>0.00</rpm>
</extensions>
</trkpt>
<trkpt lat="30.602777481" lon="34.797210693">
<ele>863.125000</ele>
<time>2013-11-23T06:44:24Z</time>
<speed>0.140000</speed>
<extensions>
<speed>0.1</speed>
<temp>0.00</temp>
<bpm>0</bpm>
<rpm>0.00</rpm>
</extensions>
</trkpt>
<trkpt lat="30.602777481" lon="34.797210693">
<ele>863.171875</ele>
<time>2013-11-23T06:44:29Z</time>
<speed>0.050000</speed>
<extensions>
<speed>0.1</speed>
<temp>0.00</temp>
<bpm>0</bpm>
<rpm>0.00</rpm>
</extensions>
</trkpt>
<trkpt lat="30.602775574" lon="34.797210693">
<ele>863.218750</ele>
<time>2013-11-23T06:44:34Z</time>
<speed>0.120000</speed>
<extensions>
<speed>0.1</speed>
<temp>0.00</temp>
<bpm>0</bpm>
<rpm>0.00</rpm>
</extensions>
</trkpt>
<trkpt lat="30.602775574" lon="34.797218323">
<ele>863.281250</ele>
<time>2013-11-23T06:44:39Z</time>
<speed>0.170000</speed>
<extensions>
<speed>0.2</speed>
<temp>0.00</temp>
<bpm>0</bpm>
<rpm>0.00</rpm>
</extensions>
</trkpt>
<trkpt lat="30.602775574" lon="34.797214508">
<ele>863.234375</ele>
<time>2013-11-23T06:44:44Z</time>
<speed>0.010000</speed>
<extensions>
<speed>0.0</speed>
<temp>0.00</temp>
<bpm>0</bpm>
<rpm>0.00</rpm>
</extensions>
</trkpt>
<trkpt lat="30.602775574" lon="34.797214508">
<ele>863.234375</ele>
<time>2013-11-23T06:44:49Z</time>
<extensions>
<speed>0.0</speed>
<temp>0.00</temp>
<bpm>0</bpm>
<rpm>0.00</rpm>
</extensions>
</trkpt>
<trkpt lat="30.602775574" lon="34.797214508">
<ele>863.234375</ele>
<time>2013-11-23T06:44:54Z</time>
<speed>0.030000</speed>
<extensions>
<speed>0.0</speed>
<temp>0.00</temp>
<bpm>0</bpm>
<rpm>0.00</rpm>
</extensions>
</trkpt>
<trkpt lat="30.602773666" lon="34.797214508">
<ele>863.234375</ele>
<time>2013-11-23T06:44:59Z</time>
<speed>0.020000</speed>
<extensions>
<speed>0.0</speed>
<temp>0.00</temp>
<bpm>0</bpm>
<rpm>0.00</rpm>
</extensions>
</trkpt>
<trkpt lat="30.602773666" lon="34.797214508">
<ele>863.234375</ele>
<time>2013-11-23T06:45:04Z</time>
<extensions>
<speed>0.0</speed>
<temp>0.00</temp>
<bpm>0</bpm>
<rpm>0.00</rpm>
</extensions>
</trkpt>
<trkpt lat="30.602773666" lon="34.797214508">
<ele>863.234375</ele>
<time>2013-11-23T06:45:09Z</time>
<speed>0.030000</speed>
<extensions>
<speed>0.0</speed>
<temp>0.00</temp>
<bpm>0</bpm>
<rpm>0.00</rpm>
</extensions>
</trkpt>
<trkpt lat="30.602773666" lon="34.797214508">
<ele>863.218750</ele>
<time>2013-11-23T06:45:14Z</time>
<extensions>
<speed>0.0</speed>
<temp>0.00</temp>
<bpm>0</bpm>
<rpm>0.00</rpm>
</extensions>
</trkpt>
<trkpt lat="30.602773666" lon="34.797214508">
<ele>863.218750</ele>
<time>2013-11-23T06:45:19Z</time>
<speed>0.010000</speed>
<extensions>
<speed>0.0</speed>
<temp>0.00</temp>
<bpm>0</bpm>
<rpm>0.00</rpm>
</extensions>
</trkpt>
<trkpt lat="30.602777481" lon="34.797218323">
<ele>863.218750</ele>
<time>2013-11-23T06:45:24Z</time>
<speed>1.480000</speed>
<extensions>
<speed>1.5</speed>
<temp>0.00</temp>
<bpm>0</bpm>
<rpm>0.00</rpm>
</extensions>
</trkpt>
<trkpt lat="30.602855682" lon="34.797241211">
<ele>862.750000</ele>
<time>2013-11-23T06:45:29Z</time>
<speed>1.920000</speed>
<extensions>
<speed>1.9</speed>
<temp>0.00</temp>
<bpm>0</bpm>
<rpm>0.00</rpm>
</extensions>
</trkpt>
<trkpt lat="30.602973938" lon="34.797245026">
<ele>861.265625</ele>
<time>2013-11-23T06:45:34Z</time>
<speed>2.990000</speed>
<extensions>
<speed>3.0</speed>
<temp>0.00</temp>
<bpm>0</bpm>
<rpm>0.00</rpm>
</extensions>
</trkpt>
<trkpt lat="30.603113174" lon="34.797187805">
<ele>860.421875</ele>
<time>2013-11-23T06:45:39Z</time>
<speed>3.510000</speed>
<extensions>
<speed>3.5</speed>
<temp>0.00</temp>
<bpm>0</bpm>
<rpm>0.00</rpm>
</extensions>
</trkpt>
<trkpt lat="30.603239059" lon="34.797100067">
<ele>859.000000</ele>
<time>2013-11-23T06:45:44Z</time>
<speed>3.300000</speed>
<extensions>
<speed>3.3</speed>
<temp>0.00</temp>
<bpm>0</bpm>
<rpm>0.00</rpm>
</extensions>
</trkpt>
<trkpt lat="30.603399277" lon="34.796977997">
<ele>857.609375</ele>
<time>2013-11-23T06:45:49Z</time>
<speed>5.160000</speed>
<extensions>
<speed>5.2</speed>
<temp>0.00</temp>
<bpm>0</bpm>
<rpm>0.00</rpm>
</extensions>
</trkpt>
<trkpt lat="30.603588104" lon="34.796833038">
<ele>855.906250</ele>
<time>2013-11-23T06:45:54Z</time>
<speed>4.990000</speed>
<extensions>
<speed>5.0</speed>
<temp>0.00</temp>
<bpm>0</bpm>
<rpm>0.00</rpm>
</extensions>
</trkpt>
<trkpt lat="30.603836060" lon="34.796882629">
<ele>854.359375</ele>
<time>2013-11-23T06:45:59Z</time>
<speed>6.820000</speed>
<extensions>
<speed>6.8</speed>
<temp>0.00</temp>
<bpm>0</bpm>
<rpm>0.00</rpm>
</extensions>
</trkpt>
<trkpt lat="30.604156494" lon="34.797115326">
<ele>850.906250</ele>
<time>2013-11-23T06:46:04Z</time>
<speed>9.480000</speed>
<extensions>
<speed>9.5</speed>
<temp>0.00</temp>
<bpm>0</bpm>
<rpm>0.00</rpm>
</extensions>
</trkpt>
<trkpt lat="30.604515076" lon="34.797435760">
<ele>846.640625</ele>
<time>2013-11-23T06:46:09Z</time>
<speed>10.150000</speed>
<extensions>
<speed>10.2</speed>
<temp>0.00</temp>
<bpm>0</bpm>
<rpm>0.00</rpm>
</extensions>
</trkpt>
<trkpt lat="30.604907990" lon="34.797668457">
<ele>843.078125</ele>
<time>2013-11-23T06:46:14Z</time>
<speed>9.250000</speed>
<extensions>
<speed>9.2</speed>
<temp>0.00</temp>
<bpm>0</bpm>
<rpm>0.00</rpm>
</extensions>
</trkpt>
<trkpt lat="30.605228424" lon="34.797813416">
<ele>839.593750</ele>
<time>2013-11-23T06:46:19Z</time>
<speed>5.840000</speed>
<extensions>
<speed>5.8</speed>
<temp>0.00</temp>
<bpm>0</bpm>
<rpm>0.00</rpm>
</extensions>
</trkpt>
<trkpt lat="30.605398178" lon="34.797966003">
<ele>837.906250</ele>
<time>2013-11-23T06:46:24Z</time>
<speed>5.250000</speed>
<extensions>
<speed>5.2</speed>
<temp>0.00</temp>
<bpm>0</bpm>
<rpm>0.00</rpm>
</extensions>
</trkpt>
<trkpt lat="30.605569839" lon="34.798149109">
<ele>836.984375</ele>
<time>2013-11-23T06:46:29Z</time>
<speed>5.830000</speed>
<extensions>
<speed>5.8</speed>
<temp>0.00</temp>
<bpm>0</bpm>
<rpm>0.00</rpm>
</extensions>
</trkpt>
<trkpt lat="30.605730057" lon="34.797958374">
<ele>836.750000</ele>
<time>2013-11-23T06:46:34Z</time>
<speed>5.540000</speed>
<extensions>
<speed>5.5</speed>
<temp>0.00</temp>
<bpm>0</bpm>
<rpm>0.00</rpm>
</extensions>
</trkpt>
<trkpt lat="30.605739594" lon="34.797878265">
<ele>836.500000</ele>
<time>2013-11-23T06:46:39Z</time>
<speed>0.090000</speed>
<extensions>
<speed>0.1</speed>
<temp>0.00</temp>
<bpm>0</bpm>
<rpm>0.00</rpm>
</extensions>
</trkpt>
<trkpt lat="30.605737686" lon="34.797878265">
<ele>836.546875</ele>
<time>2013-11-23T06:46:44Z</time>
<speed>0.030000</speed>
<extensions>
<speed>0.0</speed>
<temp>0.00</temp>
<bpm>0</bpm>
<rpm>0.00</rpm>
</extensions>
</trkpt>
<trkpt lat="30.605737686" lon="34.797843933">
<ele>836.359375</ele>
<time>2013-11-23T06:46:49Z</time>
<speed>2.010000</speed>
<extensions>
<speed>2.0</speed>
<temp>0.00</temp>
<bpm>0</bpm>
<rpm>0.00</rpm>
</extensions>
</trkpt>
<trkpt lat="30.605810165" lon="34.797710419">
<ele>835.984375</ele>
<time>2013-11-23T06:46:54Z</time>
<speed>3.280000</speed>
<extensions>
<speed>3.3</speed>
<temp>0.00</temp>
<bpm>0</bpm>
<rpm>0.00</rpm>
</extensions>
</trkpt>
<trkpt lat="30.605951309" lon="34.797588348">
<ele>835.453125</ele>
<time>2013-11-23T06:46:59Z</time>
<speed>4.490000</speed>
<extensions>
<speed>4.5</speed>
<temp>0.00</temp>
<bpm>0</bpm>
<rpm>0.00</rpm>
</extensions>
</trkpt>
<trkpt lat="30.606149673" lon="34.797477722">
<ele>834.640625</ele>
<time>2013-11-23T06:47:04Z</time>
<speed>5.340000</speed>
<extensions>
<speed>5.3</speed>
<temp>0.00</temp>
<bpm>0</bpm>
<rpm>0.00</rpm>
</extensions>
</trkpt>
<trkpt lat="30.606403351" lon="34.797363281">
<ele>832.609375</ele>
<time>2013-11-23T06:47:09Z</time>
<speed>6.450000</speed>
<extensions>
<speed>6.4</speed>
<temp>0.00</temp>
<bpm>0</bpm>
<rpm>0.00</rpm>
</extensions>
</trkpt>
<trkpt lat="30.606672287" lon="34.797172546">
<ele>831.265625</ele>
<time>2013-11-23T06:47:14Z</time>
<speed>7.390000</speed>
<extensions>
<speed>7.4</speed>
<temp>0.00</temp>
<bpm>0</bpm>
<rpm>0.00</rpm>
</extensions>
</trkpt>
<trkpt lat="30.606897354" lon="34.796863556">
<ele>829.640625</ele>
<time>2013-11-23T06:47:19Z</time>
<speed>8.050000</speed>
<extensions>
<speed>8.0</speed>
<temp>0.00</temp>
<bpm>0</bpm>
<rpm>0.00</rpm>
</extensions>
</trkpt>
<trkpt lat="30.607028961" lon="34.796466827">
<ele>827.421875</ele>
<time>2013-11-23T06:47:24Z</time>
<speed>8.290000</speed>
<extensions>
<speed>8.3</speed>
<temp>0.00</temp>
<bpm>0</bpm>
<rpm>0.00</rpm>
</extensions>
</trkpt>
<trkpt lat="30.607061386" lon="34.796051025">
<ele>826.734375</ele>
<time>2013-11-23T06:47:29Z</time>
<speed>7.640000</speed>
<extensions>
<speed>7.6</speed>
<temp>0.00</temp>
<bpm>0</bpm>
<rpm>0.00</rpm>
</extensions>
</trkpt>
<trkpt lat="30.607067108" lon="34.795673370">
<ele>826.359375</ele>
<time>2013-11-23T06:47:34Z</time>
<speed>6.780000</speed>
<extensions>
<speed>6.8</speed>
<temp>0.00</temp>
<bpm>0</bpm>
<rpm>0.00</rpm>
</extensions>
</trkpt>
<trkpt lat="30.607006073" lon="34.795352936">
<ele>826.328125</ele>
<time>2013-11-23T06:47:39Z</time>
<speed>5.490000</speed>
<extensions>
<speed>5.5</speed>
<temp>0.00</temp>
<bpm>0</bpm>
<rpm>0.00</rpm>
</extensions>
</trkpt>
<trkpt lat="30.607025146" lon="34.795139313">
<ele>827.218750</ele>
<time>2013-11-23T06:47:44Z</time>
<speed>3.810000</speed>
<extensions>
<speed>3.8</speed>
<temp>0.00</temp>
<bpm>0</bpm>
<rpm>0.00</rpm>
</extensions>
</trkpt>
<trkpt lat="30.607143402" lon="34.794998169">
<ele>827.343750</ele>
<time>2013-11-23T06:47:49Z</time>
<speed>3.830000</speed>
<extensions>
<speed>3.8</speed>
<temp>0.00</temp>
<bpm>0</bpm>
<rpm>0.00</rpm>
</extensions>
</trkpt>
<trkpt lat="30.607225418" lon="34.794837952">
<ele>827.265625</ele>
<time>2013-11-23T06:47:54Z</time>
<speed>3.420000</speed>
<extensions>
<speed>3.4</speed>
<temp>0.00</temp>
<bpm>0</bpm>
<rpm>0.00</rpm>
</extensions>
</trkpt>
<trkpt lat="30.607278824" lon="34.794689178">
<ele>827.875000</ele>
<time>2013-11-23T06:47:59Z</time>
<speed>3.070000</speed>
<extensions>
<speed>3.1</speed>
<temp>0.00</temp>
<bpm>0</bpm>
<rpm>0.00</rpm>
</extensions>
</trkpt>
<trkpt lat="30.607328415" lon="34.794567108">
<ele>828.359375</ele>
<time>2013-11-23T06:48:04Z</time>
<speed>1.980000</speed>
<extensions>
<speed>2.0</speed>
<temp>0.00</temp>
<bpm>0</bpm>
<rpm>0.00</rpm>
</extensions>
</trkpt>
<trkpt lat="30.607387543" lon="34.794521332">
<ele>828.203125</ele>
<time>2013-11-23T06:48:09Z</time>
<speed>1.960000</speed>
<extensions>
<speed>2.0</speed>
<temp>0.00</temp>
<bpm>0</bpm>
<rpm>0.00</rpm>
</extensions>
</trkpt>
<trkpt lat="30.607408524" lon="34.794628143">
<ele>827.734375</ele>
<time>2013-11-23T06:48:14Z</time>
<speed>3.180000</speed>
<extensions>
<speed>3.2</speed>
<temp>0.00</temp>
<bpm>0</bpm>
<rpm>0.00</rpm>
</extensions>
</trkpt>
<trkpt lat="30.607484818" lon="34.794818878">
<ele>826.234375</ele>
<time>2013-11-23T06:48:19Z</time>
<speed>4.570000</speed>
<extensions>
<speed>4.6</speed>
<temp>0.00</temp>
<bpm>0</bpm>
<rpm>0.00</rpm>
</extensions>
</trkpt>
<trkpt lat="30.607631683" lon="34.795005798">
<ele>824.078125</ele>
<time>2013-11-23T06:48:24Z</time>
<speed>4.980000</speed>
<extensions>
<speed>5.0</speed>
<temp>0.00</temp>
<bpm>0</bpm>
<rpm>0.00</rpm>
</extensions>
</trkpt>
<trkpt lat="30.607839584" lon="34.795143127">
<ele>822.250000</ele>
<time>2013-11-23T06:48:29Z</time>
<speed>5.540000</speed>
<extensions>
<speed>5.5</speed>
<temp>0.00</temp>
<bpm>0</bpm>
<rpm>0.00</rpm>
</extensions>
</trkpt>
<trkpt lat="30.608108521" lon="34.795211792">
<ele>820.828125</ele>
<time>2013-11-23T06:48:34Z</time>
<speed>6.100000</speed>
<extensions>
<speed>6.1</speed>
<temp>0.00</temp>
<bpm>0</bpm>
<rpm>0.00</rpm>
</extensions>
</trkpt>
<trkpt lat="30.608373642" lon="34.795173645">
<ele>819.812500</ele>
<time>2013-11-23T06:48:39Z</time>
<speed>5.770000</speed>
<extensions>
<speed>5.8</speed>
<temp>0.00</temp>
<bpm>0</bpm>
<rpm>0.00</rpm>
</extensions>
</trkpt>
<trkpt lat="30.608642578" lon="34.795146942">
<ele>817.750000</ele>
<time>2013-11-23T06:48:44Z</time>
<speed>6.750000</speed>
<extensions>
<speed>6.7</speed>
<temp>0.00</temp>
<bpm>0</bpm>
<rpm>0.00</rpm>
</extensions>
</trkpt>
<trkpt lat="30.608928680" lon="34.795070648">
<ele>814.734375</ele>
<time>2013-11-23T06:48:49Z</time>
<speed>6.010000</speed>
<extensions>
<speed>6.0</speed>
<temp>0.00</temp>
<bpm>0</bpm>
<rpm>0.00</rpm>
</extensions>
</trkpt>
<trkpt lat="30.609136581" lon="34.795082092">
<ele>812.546875</ele>
<time>2013-11-23T06:48:54Z</time>
<speed>3.810000</speed>
<extensions>
<speed>3.8</speed>
<temp>0.00</temp>
<bpm>0</bpm>
<rpm>0.00</rpm>
</extensions>
</trkpt>
<trkpt lat="30.609249115" lon="34.795185089">
<ele>812.109375</ele>
<time>2013-11-23T06:48:59Z</time>
<speed>2.550000</speed>
<extensions>
<speed>2.6</speed>
<temp>0.00</temp>
<bpm>0</bpm>
<rpm>0.00</rpm>
</extensions>
</trkpt>
<trkpt lat="30.609342575" lon="34.795146942">
<ele>812.765625</ele>
<time>2013-11-23T06:49:04Z</time>
<speed>2.420000</speed>
<extensions>
<speed>2.4</speed>
<temp>0.00</temp>
<bpm>0</bpm>
<rpm>0.00</rpm>
</extensions>
</trkpt>
<trkpt lat="30.609426498" lon="34.795028687">
<ele>812.703125</ele>
<time>2013-11-23T06:49:09Z</time>
<speed>3.290000</speed>
<extensions>
<speed>3.3</speed>
<temp>0.00</temp>
<bpm>0</bpm>
<rpm>0.00</rpm>
</extensions>
</trkpt>
<trkpt lat="30.609508514" lon="34.794857025">
<ele>812.468750</ele>
<time>2013-11-23T06:49:14Z</time>
<speed>3.940000</speed>
<extensions>
<speed>3.9</speed>
<temp>0.00</temp>
<bpm>0</bpm>
<rpm>0.00</rpm>
</extensions>
</trkpt>
<trkpt lat="30.609596252" lon="34.794666290">
<ele>812.218750</ele>
<time>2013-11-23T06:49:19Z</time>
<speed>4.290000</speed>
<extensions>
<speed>4.3</speed>
<temp>0.00</temp>
<bpm>0</bpm>
<rpm>0.00</rpm>
</extensions>
</trkpt>
<trkpt lat="30.609689713" lon="34.794464111">
<ele>812.015625</ele>
<time>2013-11-23T06:49:24Z</time>
<speed>4.370000</speed>
<extensions>
<speed>4.4</speed>
<temp>0.00</temp>
<bpm>0</bpm>
<rpm>0.00</rpm>
</extensions>
</trkpt>
<trkpt lat="30.609796524" lon="34.794265747">
<ele>811.828125</ele>
<time>2013-11-23T06:49:29Z</time>
<speed>4.460000</speed>
<extensions>
<speed>4.5</speed>
<temp>0.00</temp>
<bpm>0</bpm>
<rpm>0.00</rpm>
</extensions>
</trkpt>
<trkpt lat="30.609897614" lon="34.794055939">
<ele>811.687500</ele>
<time>2013-11-23T06:49:34Z</time>
<speed>4.480000</speed>
<extensions>
<speed>4.5</speed>
<temp>0.00</temp>
<bpm>0</bpm>
<rpm>0.00</rpm>
</extensions>
</trkpt>
<trkpt lat="30.609987259" lon="34.793861389">
<ele>811.718750</ele>
<time>2013-11-23T06:49:39Z</time>
<speed>4.070000</speed>
<extensions>
<speed>4.1</speed>
<temp>0.00</temp>
<bpm>0</bpm>
<rpm>0.00</rpm>
</extensions>
</trkpt>
<trkpt lat="30.610103607" lon="34.793689728">
<ele>811.671875</ele>
<time>2013-11-23T06:49:44Z</time>
<speed>4.280000</speed>
<extensions>
<speed>4.3</speed>
<temp>0.00</temp>
<bpm>0</bpm>
<rpm>0.00</rpm>
</extensions>
</trkpt>
<trkpt lat="30.610218048" lon="34.793525696">
<ele>811.015625</ele>
<time>2013-11-23T06:49:49Z</time>
<speed>3.870000</speed>
<extensions>
<speed>3.9</speed>
<temp>0.00</temp>
<bpm>0</bpm>
<rpm>0.00</rpm>
</extensions>
</trkpt>
<trkpt lat="30.610334396" lon="34.793346405">
<ele>810.718750</ele>
<time>2013-11-23T06:49:54Z</time>
<speed>4.420000</speed>
<extensions>
<speed>4.4</speed>
<temp>0.00</temp>
<bpm>0</bpm>
<rpm>0.00</rpm>
</extensions>
</trkpt>
<trkpt lat="30.610437393" lon="34.793148041">
<ele>809.890625</ele>
<time>2013-11-23T06:49:59Z</time>
<speed>4.460000</speed>
<extensions>
<speed>4.5</speed>
<temp>0.00</temp>
<bpm>0</bpm>
<rpm>0.00</rpm>
</extensions>
</trkpt>
<trkpt lat="30.610519409" lon="34.792942047">
<ele>809.078125</ele>
<time>2013-11-23T06:50:04Z</time>
<speed>4.190000</speed>
<extensions>
<speed>4.2</speed>
<temp>0.00</temp>
<bpm>0</bpm>
<rpm>0.00</rpm>
</extensions>
</trkpt>
<trkpt lat="30.610565186" lon="34.792720795">
<ele>808.421875</ele>
<time>2013-11-23T06:50:09Z</time>
<speed>4.490000</speed>
<extensions>
<speed>4.5</speed>
<temp>0.00</temp>
<bpm>0</bpm>
<rpm>0.00</rpm>
</extensions>
</trkpt>
<trkpt lat="30.610599518" lon="34.792484283">
<ele>809.000000</ele>
<time>2013-11-23T06:50:14Z</time>
<speed>4.610000</speed>
<extensions>
<speed>4.6</speed>
<temp>0.00</temp>
<bpm>0</bpm>
<rpm>0.00</rpm>
</extensions>
</trkpt>
<trkpt lat="30.610588074" lon="34.792240143">
<ele>809.031250</ele>
<time>2013-11-23T06:50:19Z</time>
<speed>4.710000</speed>
<extensions>
<speed>4.7</speed>
<temp>0.00</temp>
<bpm>0</bpm>
<rpm>0.00</rpm>
</extensions>
</trkpt>
<trkpt lat="30.610517502" lon="34.792007446">
<ele>809.250000</ele>
<time>2013-11-23T06:50:24Z</time>
<speed>5.160000</speed>
<extensions>
<speed>5.2</speed>
<temp>0.00</temp>
<bpm>0</bpm>
<rpm>0.00</rpm>
</extensions>
</trkpt>
<trkpt lat="30.610406876" lon="34.791797638">
<ele>809.859375</ele>
<time>2013-11-23T06:50:29Z</time>
<speed>4.200000</speed>
<extensions>
<speed>4.2</speed>
<temp>0.00</temp>
<bpm>0</bpm>
<rpm>0.00</rpm>
</extensions>
</trkpt>
<trkpt lat="30.610300064" lon="34.791660309">
<ele>810.890625</ele>
<time>2013-11-23T06:50:34Z</time>
<speed>3.020000</speed>
<extensions>
<speed>3.0</speed>
<temp>0.00</temp>
<bpm>0</bpm>
<rpm>0.00</rpm>
</extensions>
</trkpt>
<trkpt lat="30.610189438" lon="34.791587830">
<ele>811.812500</ele>
<time>2013-11-23T06:50:39Z</time>
<speed>2.900000</speed>
<extensions>
<speed>2.9</speed>
<temp>0.00</temp>
<bpm>0</bpm>
<rpm>0.00</rpm>
</extensions>
</trkpt>
<trkpt lat="30.610073090" lon="34.791500092">
<ele>812.734375</ele>
<time>2013-11-23T06:50:44Z</time>
<speed>3.130000</speed>
<extensions>
<speed>3.1</speed>
<temp>0.00</temp>
<bpm>0</bpm>
<rpm>0.00</rpm>
</extensions>
</trkpt>
<trkpt lat="30.609962463" lon="34.791431427">
<ele>813.609375</ele>
<time>2013-11-23T06:50:49Z</time>
<speed>3.080000</speed>
<extensions>
<speed>3.1</speed>
<temp>0.00</temp>
<bpm>0</bpm>
<rpm>0.00</rpm>
</extensions>
</trkpt>
<trkpt lat="30.609825134" lon="34.791332245">
<ele>814.640625</ele>
<time>2013-11-23T06:50:54Z</time>
<speed>3.730000</speed>
<extensions>
<speed>3.7</speed>
<temp>0.00</temp>
<bpm>0</bpm>
<rpm>0.00</rpm>
</extensions>
</trkpt>
<trkpt lat="30.609678268" lon="34.791240692">
<ele>815.625000</ele>
<time>2013-11-23T06:50:59Z</time>
<speed>3.610000</speed>
<extensions>
<speed>3.6</speed>
<temp>0.00</temp>
<bpm>0</bpm>
<rpm>0.00</rpm>
</extensions>
</trkpt>
<trkpt lat="30.609539032" lon="34.791126251">
<ele>816.921875</ele>
<time>2013-11-23T06:51:04Z</time>
<speed>3.470000</speed>
<extensions>
<speed>3.5</speed>
<temp>0.00</temp>
<bpm>0</bpm>
<rpm>0.00</rpm>
</extensions>
</trkpt>
<trkpt lat="30.609420776" lon="34.791034698">
<ele>818.468750</ele>
<time>2013-11-23T06:51:09Z</time>
<speed>3.410000</speed>
<extensions>
<speed>3.4</speed>
<temp>0.00</temp>
<bpm>0</bpm>
<rpm>0.00</rpm>
</extensions>
</trkpt>
<trkpt lat="30.609275818" lon="34.790927887">
<ele>819.328125</ele>
<time>2013-11-23T06:51:14Z</time>
<speed>3.680000</speed>
<extensions>
<speed>3.7</speed>
<temp>0.00</temp>
<bpm>0</bpm>
<rpm>0.00</rpm>
</extensions>
</trkpt>
<trkpt lat="30.609174728" lon="34.790828705">
<ele>820.046875</ele>
<time>2013-11-23T06:51:19Z</time>
<speed>3.240000</speed>
<extensions>
<speed>3.2</speed>
<temp>0.00</temp>
<bpm>0</bpm>
<rpm>0.00</rpm>
</extensions>
</trkpt>
<trkpt lat="30.609058380" lon="34.790691376">
<ele>820.515625</ele>
<time>2013-11-23T06:51:24Z</time>
<speed>4.170000</speed>
<extensions>
<speed>4.2</speed>
<temp>0.00</temp>
<bpm>0</bpm>
<rpm>0.00</rpm>
</extensions>
</trkpt>
<trkpt lat="30.608953476" lon="34.790527344">
<ele>820.953125</ele>
<time>2013-11-23T06:51:29Z</time>
<speed>3.390000</speed>
<extensions>
<speed>3.4</speed>
<temp>0.00</temp>
<bpm>0</bpm>
<rpm>0.00</rpm>
</extensions>
</trkpt>
<trkpt lat="30.608875275" lon="34.790348053">
<ele>821.296875</ele>
<time>2013-11-23T06:51:34Z</time>
<speed>4.120000</speed>
<extensions>
<speed>4.1</speed>
<temp>0.00</temp>
<bpm>0</bpm>
<rpm>0.00</rpm>
</extensions>
</trkpt>
<trkpt lat="30.608789444" lon="34.790153503">
<ele>821.203125</ele>
<time>2013-11-23T06:51:39Z</time>
<speed>4.030000</speed>
<extensions>
<speed>4.0</speed>
<temp>0.00</temp>
<bpm>0</bpm>
<rpm>0.00</rpm>
</extensions>
</trkpt>
<trkpt lat="30.608736038" lon="34.789951324">
<ele>821.812500</ele>
<time>2013-11-23T06:51:44Z</time>
<speed>4.310000</speed>
<extensions>
<speed>4.3</speed>
<temp>0.00</temp>
<bpm>0</bpm>
<rpm>0.00</rpm>
</extensions>
</trkpt>
<trkpt lat="30.608713150" lon="34.789710999">
<ele>821.765625</ele>
<time>2013-11-23T06:51:49Z</time>
<speed>4.490000</speed>
<extensions>
<speed>4.5</speed>
<temp>0.00</temp>
<bpm>0</bpm>
<rpm>0.00</rpm>
</extensions>
</trkpt>
<trkpt lat="30.608730316" lon="34.789470673">
<ele>821.234375</ele>
<time>2013-11-23T06:51:54Z</time>
<speed>4.490000</speed>
<extensions>
<speed>4.5</speed>
<temp>0.00</temp>
<bpm>0</bpm>
<rpm>0.00</rpm>
</extensions>
</trkpt>
<trkpt lat="30.608798981" lon="34.789176941">
<ele>821.312500</ele>
<time>2013-11-23T06:51:59Z</time>
<speed>4.830000</speed>
<extensions>
<speed>4.8</speed>
<temp>0.00</temp>
<bpm>0</bpm>
<rpm>0.00</rpm>
</extensions>
</trkpt>
<trkpt lat="30.608890533" lon="34.788921356">
<ele>820.921875</ele>
<time>2013-11-23T06:52:04Z</time>
<speed>5.000000</speed>
<extensions>
<speed>5.0</speed>
<temp>0.00</temp>
<bpm>0</bpm>
<rpm>0.00</rpm>
</extensions>
</trkpt>
<trkpt lat="30.609024048" lon="34.788700104">
<ele>821.312500</ele>
<time>2013-11-23T06:52:09Z</time>
<speed>5.250000</speed>
<extensions>
<speed>5.2</speed>
<temp>0.00</temp>
<bpm>0</bpm>
<rpm>0.00</rpm>
</extensions>
</trkpt>
<trkpt lat="30.609159470" lon="34.788478851">
<ele>821.890625</ele>
<time>2013-11-23T06:52:14Z</time>
<speed>4.680000</speed>
<extensions>
<speed>4.7</speed>
<temp>0.00</temp>
<bpm>0</bpm>
<rpm>0.00</rpm>
</extensions>
</trkpt>
<trkpt lat="30.609275818" lon="34.788257599">
<ele>822.015625</ele>
<time>2013-11-23T06:52:19Z</time>
<speed>5.000000</speed>
<extensions>
<speed>5.0</speed>
<temp>0.00</temp>
<bpm>0</bpm>
<rpm>0.00</rpm>
</extensions>
</trkpt>
<trkpt lat="30.609382629" lon="34.788017273">
<ele>821.906250</ele>
<time>2013-11-23T06:52:24Z</time>
<speed>5.320000</speed>
<extensions>
<speed>5.3</speed>
<temp>0.00</temp>
<bpm>0</bpm>
<rpm>0.00</rpm>
</extensions>
</trkpt>
<trkpt lat="30.609447479" lon="34.787761688">
<ele>822.031250</ele>
<time>2013-11-23T06:52:29Z</time>
<speed>5.040000</speed>
<extensions>
<speed>5.0</speed>
<temp>0.00</temp>
<bpm>0</bpm>
<rpm>0.00</rpm>
</extensions>
</trkpt>
<trkpt lat="30.609466553" lon="34.787490845">
<ele>822.812500</ele>
<time>2013-11-23T06:52:34Z</time>
<speed>4.820000</speed>
<extensions>
<speed>4.8</speed>
<temp>0.00</temp>
<bpm>0</bpm>
<rpm>0.00</rpm>
</extensions>
</trkpt>
<trkpt lat="30.609420776" lon="34.787315369">
<ele>823.375000</ele>
<time>2013-11-23T06:52:39Z</time>
<speed>2.920000</speed>
<extensions>
<speed>2.9</speed>
<temp>0.00</temp>
<bpm>0</bpm>
<rpm>0.00</rpm>
</extensions>
</trkpt>
<trkpt lat="30.609371185" lon="34.787178040">
<ele>824.390625</ele>
<time>2013-11-23T06:52:44Z</time>
<speed>3.090000</speed>
<extensions>
<speed>3.1</speed>
<temp>0.00</temp>
<bpm>0</bpm>
<rpm>0.00</rpm>
</extensions>
</trkpt>
<trkpt lat="30.609292984" lon="34.787048340">
<ele>825.187500</ele>
<time>2013-11-23T06:52:49Z</time>
<speed>3.460000</speed>
<extensions>
<speed>3.5</speed>
<temp>0.00</temp>
<bpm>0</bpm>
<rpm>0.00</rpm>
</extensions>
</trkpt>
<trkpt lat="30.609191895" lon="34.786891937">
<ele>826.031250</ele>
<time>2013-11-23T06:52:54Z</time>
<speed>3.490000</speed>
<extensions>
<speed>3.5</speed>
<temp>0.00</temp>
<bpm>0</bpm>
<rpm>0.00</rpm>
</extensions>
</trkpt>
<trkpt lat="30.609066010" lon="34.786773682">
<ele>826.890625</ele>
<time>2013-11-23T06:52:59Z</time>
<speed>3.420000</speed>
<extensions>
<speed>3.4</speed>
<temp>0.00</temp>
<bpm>0</bpm>
<rpm>0.00</rpm>
</extensions>
</trkpt>
<trkpt lat="30.608936310" lon="34.786678314">
<ele>827.578125</ele>
<time>2013-11-23T06:53:04Z</time>
<speed>3.660000</speed>
<extensions>
<speed>3.7</speed>
<temp>0.00</temp>
<bpm>0</bpm>
<rpm>0.00</rpm>
</extensions>
</trkpt>
<trkpt lat="30.608783722" lon="34.786579132">
<ele>828.218750</ele>
<time>2013-11-23T06:53:09Z</time>
<speed>3.840000</speed>
<extensions>
<speed>3.8</speed>
<temp>0.00</temp>
<bpm>0</bpm>
<rpm>0.00</rpm>
</extensions>
</trkpt>
<trkpt lat="30.608676910" lon="34.786487579">
<ele>828.937500</ele>
<time>2013-11-23T06:53:14Z</time>
<speed>2.870000</speed>
<extensions>
<speed>2.9</speed>
<temp>0.00</temp>
<bpm>0</bpm>
<rpm>0.00</rpm>
</extensions>
</trkpt>
<trkpt lat="30.608556747" lon="34.786399841">
<ele>829.859375</ele>
<time>2013-11-23T06:53:19Z</time>
<speed>3.310000</speed>
<extensions>
<speed>3.3</speed>
<temp>0.00</temp>
<bpm>0</bpm>
<rpm>0.00</rpm>
</extensions>
</trkpt>
<trkpt lat="30.608430862" lon="34.786300659">
<ele>830.859375</ele>
<time>2013-11-23T06:53:24Z</time>
<speed>3.480000</speed>
<extensions>
<speed>3.5</speed>
<temp>0.00</temp>
<bpm>0</bpm>
<rpm>0.00</rpm>
</extensions>
</trkpt>
<trkpt lat="30.608299255" lon="34.786193848">
<ele>832.093750</ele>
<time>2013-11-23T06:53:29Z</time>
<speed>3.780000</speed>
<extensions>
<speed>3.8</speed>
<temp>0.00</temp>
<bpm>0</bpm>
<rpm>0.00</rpm>
</extensions>
</trkpt>
<trkpt lat="30.608146667" lon="34.786090851">
<ele>832.531250</ele>
<time>2013-11-23T06:53:34Z</time>
<speed>3.170000</speed>
<extensions>
<speed>3.2</speed>
<temp>0.00</temp>
<bpm>0</bpm>
<rpm>0.00</rpm>
</extensions>
</trkpt>
<trkpt lat="30.608034134" lon="34.786010742">
<ele>833.265625</ele>
<time>2013-11-23T06:53:39Z</time>
<speed>3.210000</speed>
<extensions>
<speed>3.2</speed>
<temp>0.00</temp>
<bpm>0</bpm>
<rpm>0.00</rpm>
</extensions>
</trkpt>
<trkpt lat="30.607889175" lon="34.785938263">
<ele>834.531250</ele>
<time>2013-11-23T06:53:44Z</time>
<speed>3.430000</speed>
<extensions>
<speed>3.4</speed>
<temp>0.00</temp>
<bpm>0</bpm>
<rpm>0.00</rpm>
</extensions>
</trkpt>
<trkpt lat="30.607748032" lon="34.785877228">
<ele>835.531250</ele>
<time>2013-11-23T06:53:49Z</time>
<speed>3.060000</speed>
<extensions>
<speed>3.1</speed>
<temp>0.00</temp>
<bpm>0</bpm>
<rpm>0.00</rpm>
</extensions>
</trkpt>
<trkpt lat="30.607604980" lon="34.785831451">
<ele>836.406250</ele>
<time>2013-11-23T06:53:54Z</time>
<speed>3.400000</speed>
<extensions>
<speed>3.4</speed>
<temp>0.00</temp>
<bpm>0</bpm>
<rpm>0.00</rpm>
</extensions>
</trkpt>
<trkpt lat="30.607492447" lon="34.785797119">
<ele>837.859375</ele>
<time>2013-11-23T06:53:59Z</time>
<speed>2.470000</speed>
<extensions>
<speed>2.5</speed>
<temp>0.00</temp>
<bpm>0</bpm>
<rpm>0.00</rpm>
</extensions>
</trkpt>
<trkpt lat="30.607376099" lon="34.785751343">
<ele>838.781250</ele>
<time>2013-11-23T06:54:04Z</time>
<speed>2.900000</speed>
<extensions>
<speed>2.9</speed>
<temp>0.00</temp>
<bpm>0</bpm>
<rpm>0.00</rpm>
</extensions>
</trkpt>
<trkpt lat="30.607250214" lon="34.785717010">
<ele>839.750000</ele>
<time>2013-11-23T06:54:09Z</time>
<speed>2.830000</speed>
<extensions>
<speed>2.8</speed>
<temp>0.00</temp>
<bpm>0</bpm>
<rpm>0.00</rpm>
</extensions>
</trkpt>
<trkpt lat="30.607130051" lon="34.785667419">
<ele>841.156250</ele>
<time>2013-11-23T06:54:14Z</time>
<speed>2.940000</speed>
<extensions>
<speed>2.9</speed>
<temp>0.00</temp>
<bpm>0</bpm>
<rpm>0.00</rpm>
</extensions>
</trkpt>
<trkpt lat="30.607013702" lon="34.785621643">
<ele>841.968750</ele>
<time>2013-11-23T06:54:19Z</time>
<speed>2.750000</speed>
<extensions>
<speed>2.7</speed>
<temp>0.00</temp>
<bpm>0</bpm>
<rpm>0.00</rpm>
</extensions>
</trkpt>
<trkpt lat="30.606891632" lon="34.785564423">
<ele>842.937500</ele>
<time>2013-11-23T06:54:24Z</time>
<speed>3.010000</speed>
<extensions>
<speed>3.0</speed>
<temp>0.00</temp>
<bpm>0</bpm>
<rpm>0.00</rpm>
</extensions>
</trkpt>
<trkpt lat="30.606767654" lon="34.785507202">
<ele>843.578125</ele>
<time>2013-11-23T06:54:29Z</time>
<speed>2.050000</speed>
<extensions>
<speed>2.1</speed>
<temp>0.00</temp>
<bpm>0</bpm>
<rpm>0.00</rpm>
</extensions>
</trkpt>
<trkpt lat="30.606662750" lon="34.785461426">
<ele>843.062500</ele>
<time>2013-11-23T06:54:34Z</time>
<speed>2.780000</speed>
<extensions>
<speed>2.8</speed>
<temp>0.00</temp>
<bpm>0</bpm>
<rpm>0.00</rpm>
</extensions>
</trkpt>
<trkpt lat="30.606546402" lon="34.785385132">
<ele>842.906250</ele>
<time>2013-11-23T06:54:39Z</time>
<speed>2.870000</speed>
<extensions>
<speed>2.9</speed>
<temp>0.00</temp>
<bpm>0</bpm>
<rpm>0.00</rpm>
</extensions>
</trkpt>
<trkpt lat="30.606441498" lon="34.785305023">
<ele>842.843750</ele>
<time>2013-11-23T06:54:44Z</time>
<speed>2.700000</speed>
<extensions>
<speed>2.7</speed>
<temp>0.00</temp>
<bpm>0</bpm>
<rpm>0.00</rpm>
</extensions>
</trkpt>
<trkpt lat="30.606357574" lon="34.785167694">
<ele>842.953125</ele>
<time>2013-11-23T06:54:49Z</time>
<speed>3.260000</speed>
<extensions>
<speed>3.3</speed>
<temp>0.00</temp>
<bpm>0</bpm>
<rpm>0.00</rpm>
</extensions>
</trkpt>
<trkpt lat="30.606273651" lon="34.784999847">
<ele>843.453125</ele>
<time>2013-11-23T06:54:54Z</time>
<speed>3.780000</speed>
<extensions>
<speed>3.8</speed>
<temp>0.00</temp>
<bpm>0</bpm>
<rpm>0.00</rpm>
</extensions>
</trkpt>
<trkpt lat="30.606189728" lon="34.784809113">
<ele>843.109375</ele>
<time>2013-11-23T06:54:59Z</time>
<speed>4.270000</speed>
<extensions>
<speed>4.3</speed>
<temp>0.00</temp>
<bpm>0</bpm>
<rpm>0.00</rpm>
</extensions>
</trkpt>
<trkpt lat="30.606117249" lon="34.784610748">
<ele>842.812500</ele>
<time>2013-11-23T06:55:04Z</time>
<speed>4.090000</speed>
<extensions>
<speed>4.1</speed>
<temp>0.00</temp>
<bpm>0</bpm>
<rpm>0.00</rpm>
</extensions>
</trkpt>
<trkpt lat="30.606033325" lon="34.784404755">
<ele>842.046875</ele>
<time>2013-11-23T06:55:09Z</time>
<speed>4.160000</speed>
<extensions>
<speed>4.2</speed>
<temp>0.00</temp>
<bpm>0</bpm>
<rpm>0.00</rpm>
</extensions>
</trkpt>
<trkpt lat="30.605953217" lon="34.784191132">
<ele>841.531250</ele>
<time>2013-11-23T06:55:14Z</time>
<speed>4.660000</speed>
<extensions>
<speed>4.7</speed>
<temp>0.00</temp>
<bpm>0</bpm>
<rpm>0.00</rpm>
</extensions>
</trkpt>
<trkpt lat="30.605867386" lon="34.783962250">
<ele>841.250000</ele>
<time>2013-11-23T06:55:19Z</time>
<speed>4.570000</speed>
<extensions>
<speed>4.6</speed>
<temp>0.00</temp>
<bpm>0</bpm>
<rpm>0.00</rpm>
</extensions>
</trkpt>
<trkpt lat="30.605756760" lon="34.783737183">
<ele>841.421875</ele>
<time>2013-11-23T06:55:24Z</time>
<speed>4.950000</speed>
<extensions>
<speed>4.9</speed>
<temp>0.00</temp>
<bpm>0</bpm>
<rpm>0.00</rpm>
</extensions>
</trkpt>
<trkpt lat="30.605598450" lon="34.783557892">
<ele>841.000000</ele>
<time>2013-11-23T06:55:29Z</time>
<speed>4.990000</speed>
<extensions>
<speed>5.0</speed>
<temp>0.00</temp>
<bpm>0</bpm>
<rpm>0.00</rpm>
</extensions>
</trkpt>
<trkpt lat="30.605392456" lon="34.783443451">
<ele>840.703125</ele>
<time>2013-11-23T06:55:34Z</time>
<speed>4.980000</speed>
<extensions>
<speed>5.0</speed>
<temp>0.00</temp>
<bpm>0</bpm>
<rpm>0.00</rpm>
</extensions>
</trkpt>
<trkpt lat="30.605178833" lon="34.783370972">
<ele>840.984375</ele>
<time>2013-11-23T06:55:39Z</time>
<speed>5.340000</speed>
<extensions>
<speed>5.3</speed>
<temp>0.00</temp>
<bpm>0</bpm>
<rpm>0.00</rpm>
</extensions>
</trkpt>
<trkpt lat="30.604938507" lon="34.783294678">
<ele>841.578125</ele>
<time>2013-11-23T06:55:44Z</time>
<speed>5.590000</speed>
<extensions>
<speed>5.6</speed>
<temp>0.00</temp>
<bpm>0</bpm>
<rpm>0.00</rpm>
</extensions>
</trkpt>
<trkpt lat="30.604701996" lon="34.783210754">
<ele>841.531250</ele>
<time>2013-11-23T06:55:49Z</time>
<speed>5.210000</speed>
<extensions>
<speed>5.2</speed>
<temp>0.00</temp>
<bpm>0</bpm>
<rpm>0.00</rpm>
</extensions>
</trkpt>
<trkpt lat="30.604478836" lon="34.783130646">
<ele>841.468750</ele>
<time>2013-11-23T06:55:54Z</time>
<speed>5.140000</speed>
<extensions>
<speed>5.1</speed>
<temp>0.00</temp>
<bpm>0</bpm>
<rpm>0.00</rpm>
</extensions>
</trkpt>
<trkpt lat="30.604257584" lon="34.783050537">
<ele>841.468750</ele>
<time>2013-11-23T06:55:59Z</time>
<speed>4.700000</speed>
<extensions>
<speed>4.7</speed>
<temp>0.00</temp>
<bpm>0</bpm>
<rpm>0.00</rpm>
</extensions>
</trkpt>
<trkpt lat="30.604084015" lon="34.782989502">
<ele>841.531250</ele>
<time>2013-11-23T06:56:04Z</time>
<speed>3.280000</speed>
<extensions>
<speed>3.3</speed>
<temp>0.00</temp>
<bpm>0</bpm>
<rpm>0.00</rpm>
</extensions>
</trkpt>
<trkpt lat="30.603984833" lon="34.782947540">
<ele>842.234375</ele>
<time>2013-11-23T06:56:09Z</time>
<speed>1.730000</speed>
<extensions>
<speed>1.7</speed>
<temp>0.00</temp>
<bpm>0</bpm>
<rpm>0.00</rpm>
</extensions>
</trkpt>
<trkpt lat="30.603925705" lon="34.782913208">
<ele>842.609375</ele>
<time>2013-11-23T06:56:14Z</time>
<speed>1.440000</speed>
<extensions>
<speed>1.4</speed>
<temp>0.00</temp>
<bpm>0</bpm>
<rpm>0.00</rpm>
</extensions>
</trkpt>
<trkpt lat="30.603839874" lon="34.782886505">
<ele>842.468750</ele>
<time>2013-11-23T06:56:19Z</time>
<speed>2.250000</speed>
<extensions>
<speed>2.3</speed>
<temp>0.00</temp>
<bpm>0</bpm>
<rpm>0.00</rpm>
</extensions>
</trkpt>
<trkpt lat="30.603776932" lon="34.782817841">
<ele>843.140625</ele>
<time>2013-11-23T06:56:24Z</time>
<speed>1.800000</speed>
<extensions>
<speed>1.8</speed>
<temp>0.00</temp>
<bpm>0</bpm>
<rpm>0.00</rpm>
</extensions>
</trkpt>
<trkpt lat="30.603813171" lon="34.782745361">
<ele>843.468750</ele>
<time>2013-11-23T06:56:29Z</time>
<speed>2.540000</speed>
<extensions>
<speed>2.5</speed>
<temp>0.00</temp>
<bpm>0</bpm>
<rpm>0.00</rpm>
</extensions>
</trkpt>
<trkpt lat="30.603954315" lon="34.782737732">
<ele>843.343750</ele>
<time>2013-11-23T06:56:34Z</time>
<speed>3.700000</speed>
<extensions>
<speed>3.7</speed>
<temp>0.00</temp>
<bpm>0</bpm>
<rpm>0.00</rpm>
</extensions>
</trkpt>
<trkpt lat="30.604137421" lon="34.782768250">
<ele>843.500000</ele>
<time>2013-11-23T06:56:39Z</time>
<speed>4.530000</speed>
<extensions>
<speed>4.5</speed>
<temp>0.00</temp>
<bpm>0</bpm>
<rpm>0.00</rpm>
</extensions>
</trkpt>
<trkpt lat="30.604360580" lon="34.782829285">
<ele>845.359375</ele>
<time>2013-11-23T06:56:44Z</time>
<speed>5.130000</speed>
<extensions>
<speed>5.1</speed>
<temp>0.00</temp>
<bpm>0</bpm>
<rpm>0.00</rpm>
</extensions>
</trkpt>
<trkpt lat="30.604578018" lon="34.782917023">
<ele>847.234375</ele>
<time>2013-11-23T06:56:49Z</time>
<speed>4.340000</speed>
<extensions>
<speed>4.3</speed>
<temp>0.00</temp>
<bpm>0</bpm>
<rpm>0.00</rpm>
</extensions>
</trkpt>
<trkpt lat="30.604784012" lon="34.782966614">
<ele>848.000000</ele>
<time>2013-11-23T06:56:54Z</time>
<speed>4.950000</speed>
<extensions>
<speed>4.9</speed>
<temp>0.00</temp>
<bpm>0</bpm>
<rpm>0.00</rpm>
</extensions>
</trkpt>
<trkpt lat="30.605014801" lon="34.782985687">
<ele>848.734375</ele>
<time>2013-11-23T06:56:59Z</time>
<speed>5.000000</speed>
<extensions>
<speed>5.0</speed>
<temp>0.00</temp>
<bpm>0</bpm>
<rpm>0.00</rpm>
</extensions>
</trkpt>
<trkpt lat="30.605205536" lon="34.782974243">
<ele>849.828125</ele>
<time>2013-11-23T06:57:04Z</time>
<speed>3.270000</speed>
<extensions>
<speed>3.3</speed>
<temp>0.00</temp>
<bpm>0</bpm>
<rpm>0.00</rpm>
</extensions>
</trkpt>
<trkpt lat="30.605344772" lon="34.782932281">
<ele>850.671875</ele>
<time>2013-11-23T06:57:09Z</time>
<speed>3.430000</speed>
<extensions>
<speed>3.4</speed>
<temp>0.00</temp>
<bpm>0</bpm>
<rpm>0.00</rpm>
</extensions>
</trkpt>
<trkpt lat="30.605497360" lon="34.782840729">
<ele>850.812500</ele>
<time>2013-11-23T06:57:14Z</time>
<speed>3.900000</speed>
<extensions>
<speed>3.9</speed>
<temp>0.00</temp>
<bpm>0</bpm>
<rpm>0.00</rpm>
</extensions>
</trkpt>
<trkpt lat="30.605648041" lon="34.782722473">
<ele>850.171875</ele>
<time>2013-11-23T06:57:19Z</time>
<speed>3.980000</speed>
<extensions>
<speed>4.0</speed>
<temp>0.00</temp>
<bpm>0</bpm>
<rpm>0.00</rpm>
</extensions>
</trkpt>
<trkpt lat="30.605775833" lon="34.782585144">
<ele>849.031250</ele>
<time>2013-11-23T06:57:24Z</time>
<speed>3.410000</speed>
<extensions>
<speed>3.4</speed>
<temp>0.00</temp>
<bpm>0</bpm>
<rpm>0.00</rpm>
</extensions>
</trkpt>
<trkpt lat="30.605903625" lon="34.782436371">
<ele>847.875000</ele>
<time>2013-11-23T06:57:29Z</time>
<speed>4.880000</speed>
<extensions>
<speed>4.9</speed>
<temp>0.00</temp>
<bpm>0</bpm>
<rpm>0.00</rpm>
</extensions>
</trkpt>
<trkpt lat="30.606107712" lon="34.782230377">
<ele>846.125000</ele>
<time>2013-11-23T06:57:34Z</time>
<speed>6.980000</speed>
<extensions>
<speed>7.0</speed>
<temp>0.00</temp>
<bpm>0</bpm>
<rpm>0.00</rpm>
</extensions>
</trkpt>
<trkpt lat="30.606327057" lon="34.781913757">
<ele>843.375000</ele>
<time>2013-11-23T06:57:39Z</time>
<speed>8.560000</speed>
<extensions>
<speed>8.6</speed>
<temp>0.00</temp>
<bpm>0</bpm>
<rpm>0.00</rpm>
</extensions>
</trkpt>
<trkpt lat="30.606487274" lon="34.781486511">
<ele>840.312500</ele>
<time>2013-11-23T06:57:44Z</time>
<speed>9.620000</speed>
<extensions>
<speed>9.6</speed>
<temp>0.00</temp>
<bpm>0</bpm>
<rpm>0.00</rpm>
</extensions>
</trkpt>
<trkpt lat="30.606595993" lon="34.780986786">
<ele>836.796875</ele>
<time>2013-11-23T06:57:49Z</time>
<speed>10.360000</speed>
<extensions>
<speed>10.4</speed>
<temp>0.00</temp>
<bpm>0</bpm>
<rpm>0.00</rpm>
</extensions>
</trkpt>
<trkpt lat="30.606590271" lon="34.780422211">
<ele>834.343750</ele>
<time>2013-11-23T06:57:54Z</time>
<speed>10.660000</speed>
<extensions>
<speed>10.7</speed>
<temp>0.00</temp>
<bpm>0</bpm>
<rpm>0.00</rpm>
</extensions>
</trkpt>
<trkpt lat="30.606693268" lon="34.779911041">
<ele>833.312500</ele>
<time>2013-11-23T06:57:59Z</time>
<speed>9.900000</speed>
<extensions>
<speed>9.9</speed>
<temp>0.00</temp>
<bpm>0</bpm>
<rpm>0.00</rpm>
</extensions>
</trkpt>
<trkpt lat="30.606914520" lon="34.779457092">
<ele>831.453125</ele>
<time>2013-11-23T06:58:04Z</time>
<speed>10.050000</speed>
<extensions>
<speed>10.1</speed>
<temp>0.00</temp>
<bpm>0</bpm>
<rpm>0.00</rpm>
</extensions>
</trkpt>
<trkpt lat="30.607084274" lon="34.778995514">
<ele>830.640625</ele>
<time>2013-11-23T06:58:09Z</time>
<speed>9.090000</speed>
<extensions>
<speed>9.1</speed>
<temp>0.00</temp>
<bpm>0</bpm>
<rpm>0.00</rpm>
</extensions>
</trkpt>
<trkpt lat="30.607152939" lon="34.778537750">
<ele>829.812500</ele>
<time>2013-11-23T06:58:14Z</time>
<speed>8.660000</speed>
<extensions>
<speed>8.7</speed>
<temp>0.00</temp>
<bpm>0</bpm>
<rpm>0.00</rpm>
</extensions>
</trkpt>
<trkpt lat="30.607215881" lon="34.778102875">
<ele>828.656250</ele>
<time>2013-11-23T06:58:19Z</time>
<speed>8.530000</speed>
<extensions>
<speed>8.5</speed>
<temp>0.00</temp>
<bpm>0</bpm>
<rpm>0.00</rpm>
</extensions>
</trkpt>
<trkpt lat="30.607433319" lon="34.777725220">
<ele>827.343750</ele>
<time>2013-11-23T06:58:24Z</time>
<speed>9.340000</speed>
<extensions>
<speed>9.3</speed>
<temp>0.00</temp>
<bpm>0</bpm>
<rpm>0.00</rpm>
</extensions>
</trkpt>
<trkpt lat="30.607797623" lon="34.777404785">
<ele>825.015625</ele>
<time>2013-11-23T06:58:29Z</time>
<speed>10.590000</speed>
<extensions>
<speed>10.6</speed>
<temp>0.00</temp>
<bpm>0</bpm>
<rpm>0.00</rpm>
</extensions>
</trkpt>
<trkpt lat="30.608242035" lon="34.777160645">
<ele>823.046875</ele>
<time>2013-11-23T06:58:34Z</time>
<speed>10.830000</speed>
<extensions>
<speed>10.8</speed>
<temp>0.00</temp>
<bpm>0</bpm>
<rpm>0.00</rpm>
</extensions>
</trkpt>
<trkpt lat="30.608728409" lon="34.777099609">
<ele>821.015625</ele>
<time>2013-11-23T06:58:39Z</time>
<speed>10.870000</speed>
<extensions>
<speed>10.9</speed>
<temp>0.00</temp>
<bpm>0</bpm>
<rpm>0.00</rpm>
</extensions>
</trkpt>
<trkpt lat="30.609180450" lon="34.777301788">
<ele>820.515625</ele>
<time>2013-11-23T06:58:44Z</time>
<speed>10.380000</speed>
<extensions>
<speed>10.4</speed>
<temp>0.00</temp>
<bpm>0</bpm>
<rpm>0.00</rpm>
</extensions>
</trkpt>
<trkpt lat="30.609575272" lon="34.777500153">
<ele>820.609375</ele>
<time>2013-11-23T06:58:49Z</time>
<speed>8.200000</speed>
<extensions>
<speed>8.2</speed>
<temp>0.00</temp>
<bpm>0</bpm>
<rpm>0.00</rpm>
</extensions>
</trkpt>
<trkpt lat="30.609809875" lon="34.777603149">
<ele>820.421875</ele>
<time>2013-11-23T06:58:54Z</time>
<speed>2.820000</speed>
<extensions>
<speed>2.8</speed>
<temp>0.00</temp>
<bpm>0</bpm>
<rpm>0.00</rpm>
</extensions>
</trkpt>
<trkpt lat="30.609857559" lon="34.777614594">
<ele>820.390625</ele>
<time>2013-11-23T06:58:59Z</time>
<extensions>
<speed>0.0</speed>
<temp>0.00</temp>
<bpm>0</bpm>
<rpm>0.00</rpm>
</extensions>
</trkpt>
<trkpt lat="30.609857559" lon="34.777614594">
<ele>820.453125</ele>
<time>2013-11-23T06:59:04Z</time>
<speed>0.020000</speed>
<extensions>
<speed>0.0</speed>
<temp>0.00</temp>
<bpm>0</bpm>
<rpm>0.00</rpm>
</extensions>
</trkpt>
<trkpt lat="30.609857559" lon="34.777614594">
<ele>820.437500</ele>
<time>2013-11-23T06:59:09Z</time>
<speed>0.010000</speed>
<extensions>
<speed>0.0</speed>
<temp>0.00</temp>
<bpm>0</bpm>
<rpm>0.00</rpm>
</extensions>
</trkpt>
<trkpt lat="30.609857559" lon="34.777614594">
<ele>820.421875</ele>
<time>2013-11-23T06:59:14Z</time>
<speed>0.010000</speed>
<extensions>
<speed>0.0</speed>
<temp>0.00</temp>
<bpm>0</bpm>
<rpm>0.00</rpm>
</extensions>
</trkpt>
<trkpt lat="30.609861374" lon="34.777614594">
<ele>820.406250</ele>
<time>2013-11-23T06:59:19Z</time>
<speed>1.380000</speed>
<extensions>
<speed>1.4</speed>
<temp>0.00</temp>
<bpm>0</bpm>
<rpm>0.00</rpm>
</extensions>
</trkpt>
<trkpt lat="30.609939575" lon="34.777587891">
<ele>820.078125</ele>
<time>2013-11-23T06:59:24Z</time>
<speed>2.250000</speed>
<extensions>
<speed>2.3</speed>
<temp>0.00</temp>
<bpm>0</bpm>
<rpm>0.00</rpm>
</extensions>
</trkpt>
<trkpt lat="30.609994888" lon="34.777652740">
<ele>820.062500</ele>
<time>2013-11-23T06:59:29Z</time>
<speed>1.070000</speed>
<extensions>
<speed>1.1</speed>
<temp>0.00</temp>
<bpm>0</bpm>
<rpm>0.00</rpm>
</extensions>
</trkpt>
<trkpt lat="30.609991074" lon="34.777679443">
<ele>819.968750</ele>
<time>2013-11-23T06:59:34Z</time>
<speed>0.030000</speed>
<extensions>
<speed>0.0</speed>
<temp>0.00</temp>
<bpm>0</bpm>
<rpm>0.00</rpm>
</extensions>
</trkpt>
<trkpt lat="30.609991074" lon="34.777679443">
<ele>819.921875</ele>
<time>2013-11-23T06:59:39Z</time>
<extensions>
<speed>0.0</speed>
<temp>0.00</temp>
<bpm>0</bpm>
<rpm>0.00</rpm>
</extensions>
</trkpt>
<trkpt lat="30.609991074" lon="34.777679443">
<ele>819.906250</ele>
<time>2013-11-23T06:59:44Z</time>
<speed>0.010000</speed>
<extensions>
<speed>0.0</speed>
<temp>0.00</temp>
<bpm>0</bpm>
<rpm>0.00</rpm>
</extensions>
</trkpt>
<trkpt lat="30.609991074" lon="34.777679443">
<ele>819.875000</ele>
<time>2013-11-23T06:59:49Z</time>
<speed>0.100000</speed>
<extensions>
<speed>0.1</speed>
<temp>0.00</temp>
<bpm>0</bpm>
<rpm>0.00</rpm>
</extensions>
</trkpt>
<trkpt lat="30.610040665" lon="34.777656555">
<ele>820.031250</ele>
<time>2013-11-23T06:59:54Z</time>
<speed>2.330000</speed>
<extensions>
<speed>2.3</speed>
<temp>0.00</temp>
<bpm>0</bpm>
<rpm>0.00</rpm>
</extensions>
</trkpt>
<trkpt lat="30.610115051" lon="34.777538300">
<ele>819.765625</ele>
<time>2013-11-23T06:59:59Z</time>
<speed>2.990000</speed>
<extensions>
<speed>3.0</speed>
<temp>0.00</temp>
<bpm>0</bpm>
<rpm>0.00</rpm>
</extensions>
</trkpt>
<trkpt lat="30.610164642" lon="34.777423859">
<ele>819.234375</ele>
<time>2013-11-23T07:00:04Z</time>
<speed>1.790000</speed>
<extensions>
<speed>1.8</speed>
<temp>0.00</temp>
<bpm>0</bpm>
<rpm>0.00</rpm>
</extensions>
</trkpt>
<trkpt lat="30.610181808" lon="34.777389526">
<ele>819.109375</ele>
<time>2013-11-23T07:00:09Z</time>
<speed>0.040000</speed>
<extensions>
<speed>0.0</speed>
<temp>0.00</temp>
<bpm>0</bpm>
<rpm>0.00</rpm>
</extensions>
</trkpt>
<trkpt lat="30.610187531" lon="34.777381897">
<ele>819.250000</ele>
<time>2013-11-23T07:00:14Z</time>
<speed>0.090000</speed>
<extensions>
<speed>0.1</speed>
<temp>0.00</temp>
<bpm>0</bpm>
<rpm>0.00</rpm>
</extensions>
</trkpt>
<trkpt lat="30.610187531" lon="34.777378082">
<ele>819.281250</ele>
<time>2013-11-23T07:00:19Z</time>
<speed>0.020000</speed>
<extensions>
<speed>0.0</speed>
<temp>0.00</temp>
<bpm>0</bpm>
<rpm>0.00</rpm>
</extensions>
</trkpt>
<trkpt lat="30.610189438" lon="34.777378082">
<ele>819.281250</ele>
<time>2013-11-23T07:00:24Z</time>
<speed>0.080000</speed>
<extensions>
<speed>0.1</speed>
<temp>0.00</temp>
<bpm>0</bpm>
<rpm>0.00</rpm>
</extensions>
</trkpt>
<trkpt lat="30.610191345" lon="34.777366638">
<ele>819.218750</ele>
<time>2013-11-23T07:00:29Z</time>
<speed>0.830000</speed>
<extensions>
<speed>0.8</speed>
<temp>0.00</temp>
<bpm>0</bpm>
<rpm>0.00</rpm>
</extensions>
</trkpt>
<trkpt lat="30.610235214" lon="34.777305603">
<ele>819.453125</ele>
<time>2013-11-23T07:00:34Z</time>
<speed>1.910000</speed>
<extensions>
<speed>1.9</speed>
<temp>0.00</temp>
<bpm>0</bpm>
<rpm>0.00</rpm>
</extensions>
</trkpt>
<trkpt lat="30.610313416" lon="34.777236938">
<ele>819.312500</ele>
<time>2013-11-23T07:00:39Z</time>
<speed>1.940000</speed>
<extensions>
<speed>1.9</speed>
<temp>0.00</temp>
<bpm>0</bpm>
<rpm>0.00</rpm>
</extensions>
</trkpt>
<trkpt lat="30.610347748" lon="34.777194977">
<ele>819.703125</ele>
<time>2013-11-23T07:00:44Z</time>
<speed>1.550000</speed>
<extensions>
<speed>1.5</speed>
<temp>0.00</temp>
<bpm>0</bpm>
<rpm>0.00</rpm>
</extensions>
</trkpt>
<trkpt lat="30.610347748" lon="34.777130127">
<ele>820.187500</ele>
<time>2013-11-23T07:00:49Z</time>
<speed>1.450000</speed>
<extensions>
<speed>1.4</speed>
<temp>0.00</temp>
<bpm>0</bpm>
<rpm>0.00</rpm>
</extensions>
</trkpt>
<trkpt lat="30.610342026" lon="34.777034760">
<ele>820.046875</ele>
<time>2013-11-23T07:00:54Z</time>
<speed>1.170000</speed>
<extensions>
<speed>1.2</speed>
<temp>0.00</temp>
<bpm>0</bpm>
<rpm>0.00</rpm>
</extensions>
</trkpt>
<trkpt lat="30.610336304" lon="34.777004242">
<ele>820.062500</ele>
<time>2013-11-23T07:00:59Z</time>
<speed>0.280000</speed>
<extensions>
<speed>0.3</speed>
<temp>0.00</temp>
<bpm>0</bpm>
<rpm>0.00</rpm>
</extensions>
</trkpt>
<trkpt lat="30.610353470" lon="34.776969910">
<ele>820.156250</ele>
<time>2013-11-23T07:01:04Z</time>
<speed>0.040000</speed>
<extensions>
<speed>0.0</speed>
<temp>0.00</temp>
<bpm>0</bpm>
<rpm>0.00</rpm>
</extensions>
</trkpt>
<trkpt lat="30.610355377" lon="34.776969910">
<ele>820.265625</ele>
<time>2013-11-23T07:01:09Z</time>
<speed>0.050000</speed>
<extensions>
<speed>0.1</speed>
<temp>0.00</temp>
<bpm>0</bpm>
<rpm>0.00</rpm>
</extensions>
</trkpt>
<trkpt lat="30.610357285" lon="34.776969910">
<ele>820.468750</ele>
<time>2013-11-23T07:01:14Z</time>
<speed>0.050000</speed>
<extensions>
<speed>0.1</speed>
<temp>0.00</temp>
<bpm>0</bpm>
<rpm>0.00</rpm>
</extensions>
</trkpt>
<trkpt lat="30.610359192" lon="34.776969910">
<ele>820.734375</ele>
<time>2013-11-23T07:01:19Z</time>
<speed>0.070000</speed>
<extensions>
<speed>0.1</speed>
<temp>0.00</temp>
<bpm>0</bpm>
<rpm>0.00</rpm>
</extensions>
</trkpt>
<trkpt lat="30.610363007" lon="34.776969910">
<ele>821.031250</ele>
<time>2013-11-23T07:01:24Z</time>
<speed>0.080000</speed>
<extensions>
<speed>0.1</speed>
<temp>0.00</temp>
<bpm>0</bpm>
<rpm>0.00</rpm>
</extensions>
</trkpt>
<trkpt lat="30.610366821" lon="34.776969910">
<ele>821.343750</ele>
<time>2013-11-23T07:01:29Z</time>
<speed>0.090000</speed>
<extensions>
<speed>0.1</speed>
<temp>0.00</temp>
<bpm>0</bpm>
<rpm>0.00</rpm>
</extensions>
</trkpt>
<trkpt lat="30.610370636" lon="34.776969910">
<ele>821.703125</ele>
<time>2013-11-23T07:01:34Z</time>
<speed>0.060000</speed>
<extensions>
<speed>0.1</speed>
<temp>0.00</temp>
<bpm>0</bpm>
<rpm>0.00</rpm>
</extensions>
</trkpt>
<trkpt lat="30.610374451" lon="34.776969910">
<ele>822.046875</ele>
<time>2013-11-23T07:01:39Z</time>
<speed>0.090000</speed>
<extensions>
<speed>0.1</speed>
<temp>0.00</temp>
<bpm>0</bpm>
<rpm>0.00</rpm>
</extensions>
</trkpt>
<trkpt lat="30.610380173" lon="34.776969910">
<ele>822.484375</ele>
<time>2013-11-23T07:01:44Z</time>
<speed>0.130000</speed>
<extensions>
<speed>0.1</speed>
<temp>0.00</temp>
<bpm>0</bpm>
<rpm>0.00</rpm>
</extensions>
</trkpt>
<trkpt lat="30.610385895" lon="34.776969910">
<ele>823.015625</ele>
<time>2013-11-23T07:01:49Z</time>
<speed>0.120000</speed>
<extensions>
<speed>0.1</speed>
<temp>0.00</temp>
<bpm>0</bpm>
<rpm>0.00</rpm>
</extensions>
</trkpt>
<trkpt lat="30.610391617" lon="34.776969910">
<ele>823.546875</ele>
<time>2013-11-23T07:01:54Z</time>
<speed>0.100000</speed>
<extensions>
<speed>0.1</speed>
<temp>0.00</temp>
<bpm>0</bpm>
<rpm>0.00</rpm>
</extensions>
</trkpt>
<trkpt lat="30.610397339" lon="34.776969910">
<ele>823.953125</ele>
<time>2013-11-23T07:01:59Z</time>
<speed>0.040000</speed>
<extensions>
<speed>0.0</speed>
<temp>0.00</temp>
<bpm>0</bpm>
<rpm>0.00</rpm>
</extensions>
</trkpt>
<trkpt lat="30.610399246" lon="34.776969910">
<ele>824.140625</ele>
<time>2013-11-23T07:02:04Z</time>
<speed>0.020000</speed>
<extensions>
<speed>0.0</speed>
<temp>0.00</temp>
<bpm>0</bpm>
<rpm>0.00</rpm>
</extensions>
</trkpt>
<trkpt lat="30.610401154" lon="34.776969910">
<ele>824.203125</ele>
<time>2013-11-23T07:02:09Z</time>
<speed>0.010000</speed>
<extensions>
<speed>0.0</speed>
<temp>0.00</temp>
<bpm>0</bpm>
<rpm>0.00</rpm>
</extensions>
</trkpt>
<trkpt lat="30.610399246" lon="34.776969910">
<ele>824.187500</ele>
<time>2013-11-23T07:02:14Z</time>
<extensions>
<speed>0.0</speed>
<temp>0.00</temp>
<bpm>0</bpm>
<rpm>0.00</rpm>
</extensions>
</trkpt>
<trkpt lat="30.610399246" lon="34.776969910">
<ele>824.187500</ele>
<time>2013-11-23T07:02:19Z</time>
<extensions>
<speed>0.0</speed>
<temp>0.00</temp>
<bpm>0</bpm>
<rpm>0.00</rpm>
</extensions>
</trkpt>
<trkpt lat="30.610399246" lon="34.776969910">
<ele>824.171875</ele>
<time>2013-11-23T07:02:24Z</time>
<extensions>
<speed>0.0</speed>
<temp>0.00</temp>
<bpm>0</bpm>
<rpm>0.00</rpm>
</extensions>
</trkpt>
<trkpt lat="30.610399246" lon="34.776969910">
<ele>824.171875</ele>
<time>2013-11-23T07:02:29Z</time>
<speed>0.010000</speed>
<extensions>
<speed>0.0</speed>
<temp>0.00</temp>
<bpm>0</bpm>
<rpm>0.00</rpm>
</extensions>
</trkpt>
<trkpt lat="30.610399246" lon="34.776969910">
<ele>824.171875</ele>
<time>2013-11-23T07:02:34Z</time>
<speed>0.010000</speed>
<extensions>
<speed>0.0</speed>
<temp>0.00</temp>
<bpm>0</bpm>
<rpm>0.00</rpm>
</extensions>
</trkpt>
<trkpt lat="30.610399246" lon="34.776969910">
<ele>824.171875</ele>
<time>2013-11-23T07:02:39Z</time>
<extensions>
<speed>0.0</speed>
<temp>0.00</temp>
<bpm>0</bpm>
<rpm>0.00</rpm>
</extensions>
</trkpt>
<trkpt lat="30.610399246" lon="34.776969910">
<ele>824.171875</ele>
<time>2013-11-23T07:02:44Z</time>
<speed>0.010000</speed>
<extensions>
<speed>0.0</speed>
<temp>0.00</temp>
<bpm>0</bpm>
<rpm>0.00</rpm>
</extensions>
</trkpt>
<trkpt lat="30.610399246" lon="34.776969910">
<ele>824.171875</ele>
<time>2013-11-23T07:02:49Z</time>
<extensions>
<speed>0.0</speed>
<temp>0.00</temp>
<bpm>0</bpm>
<rpm>0.00</rpm>
</extensions>
</trkpt>
<trkpt lat="30.610399246" lon="34.776969910">
<ele>824.171875</ele>
<time>2013-11-23T07:02:54Z</time>
<extensions>
<speed>0.0</speed>
<temp>0.00</temp>
<bpm>0</bpm>
<rpm>0.00</rpm>
</extensions>
</trkpt>
<trkpt lat="30.610399246" lon="34.776969910">
<ele>824.171875</ele>
<time>2013-11-23T07:02:59Z</time>
<extensions>
<speed>0.0</speed>
<temp>0.00</temp>
<bpm>0</bpm>
<rpm>0.00</rpm>
</extensions>
</trkpt>
<trkpt lat="30.610401154" lon="34.776969910">
<ele>824.187500</ele>
<time>2013-11-23T07:03:04Z</time>
<extensions>
<speed>0.0</speed>
<temp>0.00</temp>
<bpm>0</bpm>
<rpm>0.00</rpm>
</extensions>
</trkpt>
<trkpt lat="30.610401154" lon="34.776969910">
<ele>824.171875</ele>
<time>2013-11-23T07:03:09Z</time>
<extensions>
<speed>0.0</speed>
<temp>0.00</temp>
<bpm>0</bpm>
<rpm>0.00</rpm>
</extensions>
</trkpt>
<trkpt lat="30.610401154" lon="34.776969910">
<ele>824.156250</ele>
<time>2013-11-23T07:03:14Z</time>
<extensions>
<speed>0.0</speed>
<temp>0.00</temp>
<bpm>0</bpm>
<rpm>0.00</rpm>
</extensions>
</trkpt>
<trkpt lat="30.610399246" lon="34.776969910">
<ele>824.156250</ele>
<time>2013-11-23T07:03:19Z</time>
<speed>0.010000</speed>
<extensions>
<speed>0.0</speed>
<temp>0.00</temp>
<bpm>0</bpm>
<rpm>0.00</rpm>
</extensions>
</trkpt>
<trkpt lat="30.610399246" lon="34.776969910">
<ele>824.140625</ele>
<time>2013-11-23T07:03:24Z</time>
<extensions>
<speed>0.0</speed>
<temp>0.00</temp>
<bpm>0</bpm>
<rpm>0.00</rpm>
</extensions>
</trkpt>
<trkpt lat="30.610399246" lon="34.776969910">
<ele>824.140625</ele>
<time>2013-11-23T07:03:29Z</time>
<extensions>
<speed>0.0</speed>
<temp>0.00</temp>
<bpm>0</bpm>
<rpm>0.00</rpm>
</extensions>
</trkpt>
<trkpt lat="30.610399246" lon="34.776969910">
<ele>824.125000</ele>
<time>2013-11-23T07:03:34Z</time>
<extensions>
<speed>0.0</speed>
<temp>0.00</temp>
<bpm>0</bpm>
<rpm>0.00</rpm>
</extensions>
</trkpt>
<trkpt lat="30.610399246" lon="34.776969910">
<ele>824.125000</ele>
<time>2013-11-23T07:03:39Z</time>
<extensions>
<speed>0.0</speed>
<temp>0.00</temp>
<bpm>0</bpm>
<rpm>0.00</rpm>
</extensions>
</trkpt>
<trkpt lat="30.610399246" lon="34.776969910">
<ele>824.125000</ele>
<time>2013-11-23T07:03:44Z</time>
<extensions>
<speed>0.0</speed>
<temp>0.00</temp>
<bpm>0</bpm>
<rpm>0.00</rpm>
</extensions>
</trkpt>
<trkpt lat="30.610399246" lon="34.776969910">
<ele>824.125000</ele>
<time>2013-11-23T07:03:49Z</time>
<speed>0.010000</speed>
<extensions>
<speed>0.0</speed>
<temp>0.00</temp>
<bpm>0</bpm>
<rpm>0.00</rpm>
</extensions>
</trkpt>
<trkpt lat="30.610399246" lon="34.776969910">
<ele>824.125000</ele>
<time>2013-11-23T07:03:54Z</time>
<extensions>
<speed>0.0</speed>
<temp>0.00</temp>
<bpm>0</bpm>
<rpm>0.00</rpm>
</extensions>
</trkpt>
<trkpt lat="30.610399246" lon="34.776969910">
<ele>824.109375</ele>
<time>2013-11-23T07:03:59Z</time>
<extensions>
<speed>0.0</speed>
<temp>0.00</temp>
<bpm>0</bpm>
<rpm>0.00</rpm>
</extensions>
</trkpt>
<trkpt lat="30.610399246" lon="34.776969910">
<ele>824.109375</ele>
<time>2013-11-23T07:04:04Z</time>
<speed>0.010000</speed>
<extensions>
<speed>0.0</speed>
<temp>0.00</temp>
<bpm>0</bpm>
<rpm>0.00</rpm>
</extensions>
</trkpt>
<trkpt lat="30.610399246" lon="34.776969910">
<ele>824.109375</ele>
<time>2013-11-23T07:04:09Z</time>
<extensions>
<speed>0.0</speed>
<temp>0.00</temp>
<bpm>0</bpm>
<rpm>0.00</rpm>
</extensions>
</trkpt>
<trkpt lat="30.610399246" lon="34.776969910">
<ele>824.109375</ele>
<time>2013-11-23T07:04:14Z</time>
<extensions>
<speed>0.0</speed>
<temp>0.00</temp>
<bpm>0</bpm>
<rpm>0.00</rpm>
</extensions>
</trkpt>
<trkpt lat="30.610399246" lon="34.776969910">
<ele>824.109375</ele>
<time>2013-11-23T07:04:19Z</time>
<extensions>
<speed>0.0</speed>
<temp>0.00</temp>
<bpm>0</bpm>
<rpm>0.00</rpm>
</extensions>
</trkpt>
<trkpt lat="30.610399246" lon="34.776969910">
<ele>824.109375</ele>
<time>2013-11-23T07:04:24Z</time>
<extensions>
<speed>0.0</speed>
<temp>0.00</temp>
<bpm>0</bpm>
<rpm>0.00</rpm>
</extensions>
</trkpt>
<trkpt lat="30.610399246" lon="34.776969910">
<ele>824.109375</ele>
<time>2013-11-23T07:04:29Z</time>
<speed>0.010000</speed>
<extensions>
<speed>0.0</speed>
<temp>0.00</temp>
<bpm>0</bpm>
<rpm>0.00</rpm>
</extensions>
</trkpt>
<trkpt lat="30.610399246" lon="34.776969910">
<ele>824.109375</ele>
<time>2013-11-23T07:04:34Z</time>
<speed>0.010000</speed>
<extensions>
<speed>0.0</speed>
<temp>0.00</temp>
<bpm>0</bpm>
<rpm>0.00</rpm>
</extensions>
</trkpt>
<trkpt lat="30.610399246" lon="34.776969910">
<ele>824.109375</ele>
<time>2013-11-23T07:04:39Z</time>
<extensions>
<speed>0.0</speed>
<temp>0.00</temp>
<bpm>0</bpm>
<rpm>0.00</rpm>
</extensions>
</trkpt>
<trkpt lat="30.610399246" lon="34.776969910">
<ele>824.093750</ele>
<time>2013-11-23T07:04:44Z</time>
<extensions>
<speed>0.0</speed>
<temp>0.00</temp>
<bpm>0</bpm>
<rpm>0.00</rpm>
</extensions>
</trkpt>
<trkpt lat="30.610399246" lon="34.776969910">
<ele>824.093750</ele>
<time>2013-11-23T07:04:49Z</time>
<extensions>
<speed>0.0</speed>
<temp>0.00</temp>
<bpm>0</bpm>
<rpm>0.00</rpm>
</extensions>
</trkpt>
<trkpt lat="30.610399246" lon="34.776969910">
<ele>824.109375</ele>
<time>2013-11-23T07:04:54Z</time>
<speed>0.010000</speed>
<extensions>
<speed>0.0</speed>
<temp>0.00</temp>
<bpm>0</bpm>
<rpm>0.00</rpm>
</extensions>
</trkpt>
<trkpt lat="30.610399246" lon="34.776969910">
<ele>824.109375</ele>
<time>2013-11-23T07:04:59Z</time>
<speed>0.020000</speed>
<extensions>
<speed>0.0</speed>
<temp>0.00</temp>
<bpm>0</bpm>
<rpm>0.00</rpm>
</extensions>
</trkpt>
<trkpt lat="30.610399246" lon="34.776969910">
<ele>824.109375</ele>
<time>2013-11-23T07:05:04Z</time>
<extensions>
<speed>0.0</speed>
<temp>0.00</temp>
<bpm>0</bpm>
<rpm>0.00</rpm>
</extensions>
</trkpt>
<trkpt lat="30.610399246" lon="34.776969910">
<ele>824.093750</ele>
<time>2013-11-23T07:05:09Z</time>
<extensions>
<speed>0.0</speed>
<temp>0.00</temp>
<bpm>0</bpm>
<rpm>0.00</rpm>
</extensions>
</trkpt>
<trkpt lat="30.610399246" lon="34.776969910">
<ele>824.093750</ele>
<time>2013-11-23T07:05:14Z</time>
<extensions>
<speed>0.0</speed>
<temp>0.00</temp>
<bpm>0</bpm>
<rpm>0.00</rpm>
</extensions>
</trkpt>
<trkpt lat="30.610399246" lon="34.776969910">
<ele>824.093750</ele>
<time>2013-11-23T07:05:19Z</time>
<speed>0.010000</speed>
<extensions>
<speed>0.0</speed>
<temp>0.00</temp>
<bpm>0</bpm>
<rpm>0.00</rpm>
</extensions>
</trkpt>
<trkpt lat="30.610399246" lon="34.776969910">
<ele>824.093750</ele>
<time>2013-11-23T07:05:24Z</time>
<extensions>
<speed>0.0</speed>
<temp>0.00</temp>
<bpm>0</bpm>
<rpm>0.00</rpm>
</extensions>
</trkpt>
<trkpt lat="30.610399246" lon="34.776969910">
<ele>824.109375</ele>
<time>2013-11-23T07:05:29Z</time>
<extensions>
<speed>0.0</speed>
<temp>0.00</temp>
<bpm>0</bpm>
<rpm>0.00</rpm>
</extensions>
</trkpt>
<trkpt lat="30.610399246" lon="34.776969910">
<ele>824.109375</ele>
<time>2013-11-23T07:05:34Z</time>
<speed>0.010000</speed>
<extensions>
<speed>0.0</speed>
<temp>0.00</temp>
<bpm>0</bpm>
<rpm>0.00</rpm>
</extensions>
</trkpt>
<trkpt lat="30.610399246" lon="34.776969910">
<ele>824.093750</ele>
<time>2013-11-23T07:05:39Z</time>
<extensions>
<speed>0.0</speed>
<temp>0.00</temp>
<bpm>0</bpm>
<rpm>0.00</rpm>
</extensions>
</trkpt>
<trkpt lat="30.610399246" lon="34.776969910">
<ele>824.093750</ele>
<time>2013-11-23T07:05:44Z</time>
<extensions>
<speed>0.0</speed>
<temp>0.00</temp>
<bpm>0</bpm>
<rpm>0.00</rpm>
</extensions>
</trkpt>
<trkpt lat="30.610399246" lon="34.776969910">
<ele>824.093750</ele>
<time>2013-11-23T07:05:49Z</time>
<extensions>
<speed>0.0</speed>
<temp>0.00</temp>
<bpm>0</bpm>
<rpm>0.00</rpm>
</extensions>
</trkpt>
<trkpt lat="30.610399246" lon="34.776969910">
<ele>824.093750</ele>
<time>2013-11-23T07:05:54Z</time>
<extensions>
<speed>0.0</speed>
<temp>0.00</temp>
<bpm>0</bpm>
<rpm>0.00</rpm>
</extensions>
</trkpt>
<trkpt lat="30.610399246" lon="34.776969910">
<ele>824.093750</ele>
<time>2013-11-23T07:05:59Z</time>
<extensions>
<speed>0.0</speed>
<temp>0.00</temp>
<bpm>0</bpm>
<rpm>0.00</rpm>
</extensions>
</trkpt>
<trkpt lat="30.610399246" lon="34.776969910">
<ele>824.078125</ele>
<time>2013-11-23T07:06:04Z</time>
<extensions>
<speed>0.0</speed>
<temp>0.00</temp>
<bpm>0</bpm>
<rpm>0.00</rpm>
</extensions>
</trkpt>
<trkpt lat="30.610399246" lon="34.776969910">
<ele>824.062500</ele>
<time>2013-11-23T07:06:09Z</time>
<extensions>
<speed>0.0</speed>
<temp>0.00</temp>
<bpm>0</bpm>
<rpm>0.00</rpm>
</extensions>
</trkpt>
<trkpt lat="30.610399246" lon="34.776969910">
<ele>824.062500</ele>
<time>2013-11-23T07:06:14Z</time>
<extensions>
<speed>0.0</speed>
<temp>0.00</temp>
<bpm>0</bpm>
<rpm>0.00</rpm>
</extensions>
</trkpt>
<trkpt lat="30.610399246" lon="34.776969910">
<ele>824.046875</ele>
<time>2013-11-23T07:06:19Z</time>
<extensions>
<speed>0.0</speed>
<temp>0.00</temp>
<bpm>0</bpm>
<rpm>0.00</rpm>
</extensions>
</trkpt>
<trkpt lat="30.610399246" lon="34.776969910">
<ele>824.046875</ele>
<time>2013-11-23T07:06:24Z</time>
<extensions>
<speed>0.0</speed>
<temp>0.00</temp>
<bpm>0</bpm>
<rpm>0.00</rpm>
</extensions>
</trkpt>
<trkpt lat="30.610399246" lon="34.776969910">
<ele>824.046875</ele>
<time>2013-11-23T07:06:29Z</time>
<extensions>
<speed>0.0</speed>
<temp>0.00</temp>
<bpm>0</bpm>
<rpm>0.00</rpm>
</extensions>
</trkpt>
<trkpt lat="30.610399246" lon="34.776969910">
<ele>824.046875</ele>
<time>2013-11-23T07:06:34Z</time>
<speed>0.010000</speed>
<extensions>
<speed>0.0</speed>
<temp>0.00</temp>
<bpm>0</bpm>
<rpm>0.00</rpm>
</extensions>
</trkpt>
<trkpt lat="30.610399246" lon="34.776969910">
<ele>824.046875</ele>
<time>2013-11-23T07:06:39Z</time>
<speed>0.010000</speed>
<extensions>
<speed>0.0</speed>
<temp>0.00</temp>
<bpm>0</bpm>
<rpm>0.00</rpm>
</extensions>
</trkpt>
<trkpt lat="30.610399246" lon="34.776969910">
<ele>824.046875</ele>
<time>2013-11-23T07:06:44Z</time>
<speed>0.010000</speed>
<extensions>
<speed>0.0</speed>
<temp>0.00</temp>
<bpm>0</bpm>
<rpm>0.00</rpm>
</extensions>
</trkpt>
<trkpt lat="30.610399246" lon="34.776969910">
<ele>824.031250</ele>
<time>2013-11-23T07:06:49Z</time>
<extensions>
<speed>0.0</speed>
<temp>0.00</temp>
<bpm>0</bpm>
<rpm>0.00</rpm>
</extensions>
</trkpt>
<trkpt lat="30.610399246" lon="34.776969910">
<ele>824.015625</ele>
<time>2013-11-23T07:06:54Z</time>
<extensions>
<speed>0.0</speed>
<temp>0.00</temp>
<bpm>0</bpm>
<rpm>0.00</rpm>
</extensions>
</trkpt>
<trkpt lat="30.610399246" lon="34.776969910">
<ele>824.015625</ele>
<time>2013-11-23T07:06:59Z</time>
<extensions>
<speed>0.0</speed>
<temp>0.00</temp>
<bpm>0</bpm>
<rpm>0.00</rpm>
</extensions>
</trkpt>
<trkpt lat="30.610399246" lon="34.776969910">
<ele>824.015625</ele>
<time>2013-11-23T07:07:04Z</time>
<speed>0.010000</speed>
<extensions>
<speed>0.0</speed>
<temp>0.00</temp>
<bpm>0</bpm>
<rpm>0.00</rpm>
</extensions>
</trkpt>
<trkpt lat="30.610399246" lon="34.776969910">
<ele>824.015625</ele>
<time>2013-11-23T07:07:09Z</time>
<speed>0.010000</speed>
<extensions>
<speed>0.0</speed>
<temp>0.00</temp>
<bpm>0</bpm>
<rpm>0.00</rpm>
</extensions>
</trkpt>
<trkpt lat="30.610399246" lon="34.776969910">
<ele>824.015625</ele>
<time>2013-11-23T07:07:14Z</time>
<extensions>
<speed>0.0</speed>
<temp>0.00</temp>
<bpm>0</bpm>
<rpm>0.00</rpm>
</extensions>
</trkpt>
<trkpt lat="30.610399246" lon="34.776969910">
<ele>824.000000</ele>
<time>2013-11-23T07:07:19Z</time>
<extensions>
<speed>0.0</speed>
<temp>0.00</temp>
<bpm>0</bpm>
<rpm>0.00</rpm>
</extensions>
</trkpt>
<trkpt lat="30.610399246" lon="34.776969910">
<ele>824.000000</ele>
<time>2013-11-23T07:07:24Z</time>
<extensions>
<speed>0.0</speed>
<temp>0.00</temp>
<bpm>0</bpm>
<rpm>0.00</rpm>
</extensions>
</trkpt>
<trkpt lat="30.610399246" lon="34.776969910">
<ele>823.984375</ele>
<time>2013-11-23T07:07:29Z</time>
<extensions>
<speed>0.0</speed>
<temp>0.00</temp>
<bpm>0</bpm>
<rpm>0.00</rpm>
</extensions>
</trkpt>
<trkpt lat="30.610399246" lon="34.776969910">
<ele>823.984375</ele>
<time>2013-11-23T07:07:34Z</time>
<speed>0.010000</speed>
<extensions>
<speed>0.0</speed>
<temp>0.00</temp>
<bpm>0</bpm>
<rpm>0.00</rpm>
</extensions>
</trkpt>
<trkpt lat="30.610399246" lon="34.776969910">
<ele>823.968750</ele>
<time>2013-11-23T07:07:39Z</time>
<extensions>
<speed>0.0</speed>
<temp>0.00</temp>
<bpm>0</bpm>
<rpm>0.00</rpm>
</extensions>
</trkpt>
<trkpt lat="30.610399246" lon="34.776969910">
<ele>823.953125</ele>
<time>2013-11-23T07:07:44Z</time>
<speed>0.010000</speed>
<extensions>
<speed>0.0</speed>
<temp>0.00</temp>
<bpm>0</bpm>
<rpm>0.00</rpm>
</extensions>
</trkpt>
<trkpt lat="30.610399246" lon="34.776969910">
<ele>823.953125</ele>
<time>2013-11-23T07:07:49Z</time>
<extensions>
<speed>0.0</speed>
<temp>0.00</temp>
<bpm>0</bpm>
<rpm>0.00</rpm>
</extensions>
</trkpt>
<trkpt lat="30.610399246" lon="34.776969910">
<ele>823.937500</ele>
<time>2013-11-23T07:07:54Z</time>
<extensions>
<speed>0.0</speed>
<temp>0.00</temp>
<bpm>0</bpm>
<rpm>0.00</rpm>
</extensions>
</trkpt>
<trkpt lat="30.610399246" lon="34.776969910">
<ele>823.921875</ele>
<time>2013-11-23T07:07:59Z</time>
<extensions>
<speed>0.0</speed>
<temp>0.00</temp>
<bpm>0</bpm>
<rpm>0.00</rpm>
</extensions>
</trkpt>
<trkpt lat="30.610397339" lon="34.776969910">
<ele>823.906250</ele>
<time>2013-11-23T07:08:04Z</time>
<extensions>
<speed>0.0</speed>
<temp>0.00</temp>
<bpm>0</bpm>
<rpm>0.00</rpm>
</extensions>
</trkpt>
<trkpt lat="30.610397339" lon="34.776969910">
<ele>823.890625</ele>
<time>2013-11-23T07:08:09Z</time>
<extensions>
<speed>0.0</speed>
<temp>0.00</temp>
<bpm>0</bpm>
<rpm>0.00</rpm>
</extensions>
</trkpt>
<trkpt lat="30.610397339" lon="34.776969910">
<ele>823.859375</ele>
<time>2013-11-23T07:08:14Z</time>
<speed>0.010000</speed>
<extensions>
<speed>0.0</speed>
<temp>0.00</temp>
<bpm>0</bpm>
<rpm>0.00</rpm>
</extensions>
</trkpt>
<trkpt lat="30.610397339" lon="34.776969910">
<ele>823.828125</ele>
<time>2013-11-23T07:08:19Z</time>
<extensions>
<speed>0.0</speed>
<temp>0.00</temp>
<bpm>0</bpm>
<rpm>0.00</rpm>
</extensions>
</trkpt>
<trkpt lat="30.610397339" lon="34.776969910">
<ele>823.812500</ele>
<time>2013-11-23T07:08:24Z</time>
<extensions>
<speed>0.0</speed>
<temp>0.00</temp>
<bpm>0</bpm>
<rpm>0.00</rpm>
</extensions>
</trkpt>
<trkpt lat="30.610397339" lon="34.776969910">
<ele>823.796875</ele>
<time>2013-11-23T07:08:29Z</time>
<extensions>
<speed>0.0</speed>
<temp>0.00</temp>
<bpm>0</bpm>
<rpm>0.00</rpm>
</extensions>
</trkpt>
<trkpt lat="30.610397339" lon="34.776969910">
<ele>823.781250</ele>
<time>2013-11-23T07:08:34Z</time>
<extensions>
<speed>0.0</speed>
<temp>0.00</temp>
<bpm>0</bpm>
<rpm>0.00</rpm>
</extensions>
</trkpt>
<trkpt lat="30.610397339" lon="34.776969910">
<ele>823.765625</ele>
<time>2013-11-23T07:08:39Z</time>
<speed>0.010000</speed>
<extensions>
<speed>0.0</speed>
<temp>0.00</temp>
<bpm>0</bpm>
<rpm>0.00</rpm>
</extensions>
</trkpt>
<trkpt lat="30.610397339" lon="34.776969910">
<ele>823.750000</ele>
<time>2013-11-23T07:08:44Z</time>
<extensions>
<speed>0.0</speed>
<temp>0.00</temp>
<bpm>0</bpm>
<rpm>0.00</rpm>
</extensions>
</trkpt>
<trkpt lat="30.610397339" lon="34.776969910">
<ele>823.734375</ele>
<time>2013-11-23T07:08:49Z</time>
<extensions>
<speed>0.0</speed>
<temp>0.00</temp>
<bpm>0</bpm>
<rpm>0.00</rpm>
</extensions>
</trkpt>
<trkpt lat="30.610397339" lon="34.776969910">
<ele>823.734375</ele>
<time>2013-11-23T07:08:54Z</time>
<extensions>
<speed>0.0</speed>
<temp>0.00</temp>
<bpm>0</bpm>
<rpm>0.00</rpm>
</extensions>
</trkpt>
<trkpt lat="30.610397339" lon="34.776969910">
<ele>823.718750</ele>
<time>2013-11-23T07:08:59Z</time>
<extensions>
<speed>0.0</speed>
<temp>0.00</temp>
<bpm>0</bpm>
<rpm>0.00</rpm>
</extensions>
</trkpt>
<trkpt lat="30.610395432" lon="34.776969910">
<ele>823.703125</ele>
<time>2013-11-23T07:09:04Z</time>
<speed>0.010000</speed>
<extensions>
<speed>0.0</speed>
<temp>0.00</temp>
<bpm>0</bpm>
<rpm>0.00</rpm>
</extensions>
</trkpt>
<trkpt lat="30.610395432" lon="34.776969910">
<ele>823.687500</ele>
<time>2013-11-23T07:09:09Z</time>
<extensions>
<speed>0.0</speed>
<temp>0.00</temp>
<bpm>0</bpm>
<rpm>0.00</rpm>
</extensions>
</trkpt>
<trkpt lat="30.610395432" lon="34.776969910">
<ele>823.671875</ele>
<time>2013-11-23T07:09:14Z</time>
<extensions>
<speed>0.0</speed>
<temp>0.00</temp>
<bpm>0</bpm>
<rpm>0.00</rpm>
</extensions>
</trkpt>
<trkpt lat="30.610395432" lon="34.776969910">
<ele>823.671875</ele>
<time>2013-11-23T07:09:19Z</time>
<extensions>
<speed>0.0</speed>
<temp>0.00</temp>
<bpm>0</bpm>
<rpm>0.00</rpm>
</extensions>
</trkpt>
<trkpt lat="30.610395432" lon="34.776969910">
<ele>823.656250</ele>
<time>2013-11-23T07:09:24Z</time>
<speed>0.010000</speed>
<extensions>
<speed>0.0</speed>
<temp>0.00</temp>
<bpm>0</bpm>
<rpm>0.00</rpm>
</extensions>
</trkpt>
<trkpt lat="30.610395432" lon="34.776969910">
<ele>823.656250</ele>
<time>2013-11-23T07:09:29Z</time>
<speed>0.010000</speed>
<extensions>
<speed>0.0</speed>
<temp>0.00</temp>
<bpm>0</bpm>
<rpm>0.00</rpm>
</extensions>
</trkpt>
<trkpt lat="30.610395432" lon="34.776969910">
<ele>823.640625</ele>
<time>2013-11-23T07:09:34Z</time>
<speed>0.010000</speed>
<extensions>
<speed>0.0</speed>
<temp>0.00</temp>
<bpm>0</bpm>
<rpm>0.00</rpm>
</extensions>
</trkpt>
<trkpt lat="30.610395432" lon="34.776969910">
<ele>823.640625</ele>
<time>2013-11-23T07:09:39Z</time>
<speed>0.010000</speed>
<extensions>
<speed>0.0</speed>
<temp>0.00</temp>
<bpm>0</bpm>
<rpm>0.00</rpm>
</extensions>
</trkpt>
<trkpt lat="30.610395432" lon="34.776969910">
<ele>823.625000</ele>
<time>2013-11-23T07:09:44Z</time>
<extensions>
<speed>0.0</speed>
<temp>0.00</temp>
<bpm>0</bpm>
<rpm>0.00</rpm>
</extensions>
</trkpt>
<trkpt lat="30.610395432" lon="34.776969910">
<ele>823.625000</ele>
<time>2013-11-23T07:09:49Z</time>
<extensions>
<speed>0.0</speed>
<temp>0.00</temp>
<bpm>0</bpm>
<rpm>0.00</rpm>
</extensions>
</trkpt>
<trkpt lat="30.610395432" lon="34.776969910">
<ele>823.609375</ele>
<time>2013-11-23T07:09:54Z</time>
<extensions>
<speed>0.0</speed>
<temp>0.00</temp>
<bpm>0</bpm>
<rpm>0.00</rpm>
</extensions>
</trkpt>
<trkpt lat="30.610395432" lon="34.776969910">
<ele>823.609375</ele>
<time>2013-11-23T07:09:59Z</time>
<extensions>
<speed>0.0</speed>
<temp>0.00</temp>
<bpm>0</bpm>
<rpm>0.00</rpm>
</extensions>
</trkpt>
<trkpt lat="30.610395432" lon="34.776969910">
<ele>823.593750</ele>
<time>2013-11-23T07:10:04Z</time>
<speed>0.010000</speed>
<extensions>
<speed>0.0</speed>
<temp>0.00</temp>
<bpm>0</bpm>
<rpm>0.00</rpm>
</extensions>
</trkpt>
<trkpt lat="30.610395432" lon="34.776969910">
<ele>823.593750</ele>
<time>2013-11-23T07:10:09Z</time>
<extensions>
<speed>0.0</speed>
<temp>0.00</temp>
<bpm>0</bpm>
<rpm>0.00</rpm>
</extensions>
</trkpt>
<trkpt lat="30.610395432" lon="34.776969910">
<ele>823.578125</ele>
<time>2013-11-23T07:10:14Z</time>
<extensions>
<speed>0.0</speed>
<temp>0.00</temp>
<bpm>0</bpm>
<rpm>0.00</rpm>
</extensions>
</trkpt>
<trkpt lat="30.610395432" lon="34.776969910">
<ele>823.578125</ele>
<time>2013-11-23T07:10:19Z</time>
<extensions>
<speed>0.0</speed>
<temp>0.00</temp>
<bpm>0</bpm>
<rpm>0.00</rpm>
</extensions>
</trkpt>
<trkpt lat="30.610395432" lon="34.776969910">
<ele>823.578125</ele>
<time>2013-11-23T07:10:24Z</time>
<speed>0.010000</speed>
<extensions>
<speed>0.0</speed>
<temp>0.00</temp>
<bpm>0</bpm>
<rpm>0.00</rpm>
</extensions>
</trkpt>
<trkpt lat="30.610395432" lon="34.776973724">
<ele>823.593750</ele>
<time>2013-11-23T07:10:29Z</time>
<extensions>
<speed>0.0</speed>
<temp>0.00</temp>
<bpm>0</bpm>
<rpm>0.00</rpm>
</extensions>
</trkpt>
<trkpt lat="30.610395432" lon="34.776973724">
<ele>823.593750</ele>
<time>2013-11-23T07:10:34Z</time>
<extensions>
<speed>0.0</speed>
<temp>0.00</temp>
<bpm>0</bpm>
<rpm>0.00</rpm>
</extensions>
</trkpt>
<trkpt lat="30.610395432" lon="34.776973724">
<ele>823.593750</ele>
<time>2013-11-23T07:10:39Z</time>
<extensions>
<speed>0.0</speed>
<temp>0.00</temp>
<bpm>0</bpm>
<rpm>0.00</rpm>
</extensions>
</trkpt>
<trkpt lat="30.610395432" lon="34.776973724">
<ele>823.593750</ele>
<time>2013-11-23T07:10:44Z</time>
<extensions>
<speed>0.0</speed>
<temp>0.00</temp>
<bpm>0</bpm>
<rpm>0.00</rpm>
</extensions>
</trkpt>
<trkpt lat="30.610393524" lon="34.776973724">
<ele>823.593750</ele>
<time>2013-11-23T07:10:49Z</time>
<extensions>
<speed>0.0</speed>
<temp>0.00</temp>
<bpm>0</bpm>
<rpm>0.00</rpm>
</extensions>
</trkpt>
<trkpt lat="30.610393524" lon="34.776973724">
<ele>823.593750</ele>
<time>2013-11-23T07:10:54Z</time>
<extensions>
<speed>0.0</speed>
<temp>0.00</temp>
<bpm>0</bpm>
<rpm>0.00</rpm>
</extensions>
</trkpt>
<trkpt lat="30.610393524" lon="34.776973724">
<ele>823.609375</ele>
<time>2013-11-23T07:10:59Z</time>
<extensions>
<speed>0.0</speed>
<temp>0.00</temp>
<bpm>0</bpm>
<rpm>0.00</rpm>
</extensions>
</trkpt>
<trkpt lat="30.610393524" lon="34.776973724">
<ele>823.593750</ele>
<time>2013-11-23T07:11:04Z</time>
<extensions>
<speed>0.0</speed>
<temp>0.00</temp>
<bpm>0</bpm>
<rpm>0.00</rpm>
</extensions>
</trkpt>
<trkpt lat="30.610393524" lon="34.776973724">
<ele>823.593750</ele>
<time>2013-11-23T07:11:09Z</time>
<speed>0.010000</speed>
<extensions>
<speed>0.0</speed>
<temp>0.00</temp>
<bpm>0</bpm>
<rpm>0.00</rpm>
</extensions>
</trkpt>
<trkpt lat="30.610393524" lon="34.776973724">
<ele>823.578125</ele>
<time>2013-11-23T07:11:14Z</time>
<extensions>
<speed>0.0</speed>
<temp>0.00</temp>
<bpm>0</bpm>
<rpm>0.00</rpm>
</extensions>
</trkpt>
<trkpt lat="30.610393524" lon="34.776973724">
<ele>823.578125</ele>
<time>2013-11-23T07:11:19Z</time>
<extensions>
<speed>0.0</speed>
<temp>0.00</temp>
<bpm>0</bpm>
<rpm>0.00</rpm>
</extensions>
</trkpt>
<trkpt lat="30.610393524" lon="34.776973724">
<ele>823.578125</ele>
<time>2013-11-23T07:11:24Z</time>
<extensions>
<speed>0.0</speed>
<temp>0.00</temp>
<bpm>0</bpm>
<rpm>0.00</rpm>
</extensions>
</trkpt>
<trkpt lat="30.610393524" lon="34.776973724">
<ele>823.562500</ele>
<time>2013-11-23T07:11:29Z</time>
<extensions>
<speed>0.0</speed>
<temp>0.00</temp>
<bpm>0</bpm>
<rpm>0.00</rpm>
</extensions>
</trkpt>
<trkpt lat="30.610393524" lon="34.776973724">
<ele>823.562500</ele>
<time>2013-11-23T07:11:34Z</time>
<extensions>
<speed>0.0</speed>
<temp>0.00</temp>
<bpm>0</bpm>
<rpm>0.00</rpm>
</extensions>
</trkpt>
<trkpt lat="30.610393524" lon="34.776973724">
<ele>823.546875</ele>
<time>2013-11-23T07:11:39Z</time>
<extensions>
<speed>0.0</speed>
<temp>0.00</temp>
<bpm>0</bpm>
<rpm>0.00</rpm>
</extensions>
</trkpt>
<trkpt lat="30.610393524" lon="34.776973724">
<ele>823.562500</ele>
<time>2013-11-23T07:11:44Z</time>
<extensions>
<speed>0.0</speed>
<temp>0.00</temp>
<bpm>0</bpm>
<rpm>0.00</rpm>
</extensions>
</trkpt>
<trkpt lat="30.610393524" lon="34.776973724">
<ele>823.562500</ele>
<time>2013-11-23T07:11:49Z</time>
<extensions>
<speed>0.0</speed>
<temp>0.00</temp>
<bpm>0</bpm>
<rpm>0.00</rpm>
</extensions>
</trkpt>
<trkpt lat="30.610393524" lon="34.776973724">
<ele>823.562500</ele>
<time>2013-11-23T07:11:54Z</time>
<extensions>
<speed>0.0</speed>
<temp>0.00</temp>
<bpm>0</bpm>
<rpm>0.00</rpm>
</extensions>
</trkpt>
<trkpt lat="30.610393524" lon="34.776973724">
<ele>823.562500</ele>
<time>2013-11-23T07:11:59Z</time>
<extensions>
<speed>0.0</speed>
<temp>0.00</temp>
<bpm>0</bpm>
<rpm>0.00</rpm>
</extensions>
</trkpt>
<trkpt lat="30.610393524" lon="34.776973724">
<ele>823.562500</ele>
<time>2013-11-23T07:12:04Z</time>
<extensions>
<speed>0.0</speed>
<temp>0.00</temp>
<bpm>0</bpm>
<rpm>0.00</rpm>
</extensions>
</trkpt>
<trkpt lat="30.610393524" lon="34.776973724">
<ele>823.562500</ele>
<time>2013-11-23T07:12:09Z</time>
<extensions>
<speed>0.0</speed>
<temp>0.00</temp>
<bpm>0</bpm>
<rpm>0.00</rpm>
</extensions>
</trkpt>
<trkpt lat="30.610393524" lon="34.776973724">
<ele>823.562500</ele>
<time>2013-11-23T07:12:14Z</time>
<extensions>
<speed>0.0</speed>
<temp>0.00</temp>
<bpm>0</bpm>
<rpm>0.00</rpm>
</extensions>
</trkpt>
<trkpt lat="30.610393524" lon="34.776973724">
<ele>823.562500</ele>
<time>2013-11-23T07:12:19Z</time>
<extensions>
<speed>0.0</speed>
<temp>0.00</temp>
<bpm>0</bpm>
<rpm>0.00</rpm>
</extensions>
</trkpt>
<trkpt lat="30.610393524" lon="34.776973724">
<ele>823.562500</ele>
<time>2013-11-23T07:12:24Z</time>
<extensions>
<speed>0.0</speed>
<temp>0.00</temp>
<bpm>0</bpm>
<rpm>0.00</rpm>
</extensions>
</trkpt>
<trkpt lat="30.610391617" lon="34.776973724">
<ele>823.562500</ele>
<time>2013-11-23T07:12:29Z</time>
<extensions>
<speed>0.0</speed>
<temp>0.00</temp>
<bpm>0</bpm>
<rpm>0.00</rpm>
</extensions>
</trkpt>
<trkpt lat="30.610391617" lon="34.776973724">
<ele>823.562500</ele>
<time>2013-11-23T07:12:34Z</time>
<extensions>
<speed>0.0</speed>
<temp>0.00</temp>
<bpm>0</bpm>
<rpm>0.00</rpm>
</extensions>
</trkpt>
<trkpt lat="30.610391617" lon="34.776973724">
<ele>823.562500</ele>
<time>2013-11-23T07:12:39Z</time>
<extensions>
<speed>0.0</speed>
<temp>0.00</temp>
<bpm>0</bpm>
<rpm>0.00</rpm>
</extensions>
</trkpt>
<trkpt lat="30.610391617" lon="34.776973724">
<ele>823.562500</ele>
<time>2013-11-23T07:12:44Z</time>
<extensions>
<speed>0.0</speed>
<temp>0.00</temp>
<bpm>0</bpm>
<rpm>0.00</rpm>
</extensions>
</trkpt>
<trkpt lat="30.610391617" lon="34.776973724">
<ele>823.562500</ele>
<time>2013-11-23T07:12:49Z</time>
<extensions>
<speed>0.0</speed>
<temp>0.00</temp>
<bpm>0</bpm>
<rpm>0.00</rpm>
</extensions>
</trkpt>
<trkpt lat="30.610391617" lon="34.776973724">
<ele>823.562500</ele>
<time>2013-11-23T07:12:54Z</time>
<extensions>
<speed>0.0</speed>
<temp>0.00</temp>
<bpm>0</bpm>
<rpm>0.00</rpm>
</extensions>
</trkpt>
<trkpt lat="30.610391617" lon="34.776973724">
<ele>823.546875</ele>
<time>2013-11-23T07:12:59Z</time>
<extensions>
<speed>0.0</speed>
<temp>0.00</temp>
<bpm>0</bpm>
<rpm>0.00</rpm>
</extensions>
</trkpt>
<trkpt lat="30.610391617" lon="34.776973724">
<ele>823.546875</ele>
<time>2013-11-23T07:13:04Z</time>
<extensions>
<speed>0.0</speed>
<temp>0.00</temp>
<bpm>0</bpm>
<rpm>0.00</rpm>
</extensions>
</trkpt>
<trkpt lat="30.610391617" lon="34.776973724">
<ele>823.546875</ele>
<time>2013-11-23T07:13:09Z</time>
<extensions>
<speed>0.0</speed>
<temp>0.00</temp>
<bpm>0</bpm>
<rpm>0.00</rpm>
</extensions>
</trkpt>
<trkpt lat="30.610391617" lon="34.776973724">
<ele>823.546875</ele>
<time>2013-11-23T07:13:14Z</time>
<speed>0.010000</speed>
<extensions>
<speed>0.0</speed>
<temp>0.00</temp>
<bpm>0</bpm>
<rpm>0.00</rpm>
</extensions>
</trkpt>
<trkpt lat="30.610391617" lon="34.776973724">
<ele>823.546875</ele>
<time>2013-11-23T07:13:19Z</time>
<extensions>
<speed>0.0</speed>
<temp>0.00</temp>
<bpm>0</bpm>
<rpm>0.00</rpm>
</extensions>
</trkpt>
<trkpt lat="30.610391617" lon="34.776973724">
<ele>823.546875</ele>
<time>2013-11-23T07:13:24Z</time>
<speed>0.010000</speed>
<extensions>
<speed>0.0</speed>
<temp>0.00</temp>
<bpm>0</bpm>
<rpm>0.00</rpm>
</extensions>
</trkpt>
<trkpt lat="30.610391617" lon="34.776973724">
<ele>823.546875</ele>
<time>2013-11-23T07:13:29Z</time>
<speed>0.010000</speed>
<extensions>
<speed>0.0</speed>
<temp>0.00</temp>
<bpm>0</bpm>
<rpm>0.00</rpm>
</extensions>
</trkpt>
<trkpt lat="30.610391617" lon="34.776973724">
<ele>823.546875</ele>
<time>2013-11-23T07:13:34Z</time>
<extensions>
<speed>0.0</speed>
<temp>0.00</temp>
<bpm>0</bpm>
<rpm>0.00</rpm>
</extensions>
</trkpt>
<trkpt lat="30.610391617" lon="34.776973724">
<ele>823.546875</ele>
<time>2013-11-23T07:13:39Z</time>
<extensions>
<speed>0.0</speed>
<temp>0.00</temp>
<bpm>0</bpm>
<rpm>0.00</rpm>
</extensions>
</trkpt>
<trkpt lat="30.610391617" lon="34.776973724">
<ele>823.531250</ele>
<time>2013-11-23T07:13:44Z</time>
<extensions>
<speed>0.0</speed>
<temp>0.00</temp>
<bpm>0</bpm>
<rpm>0.00</rpm>
</extensions>
</trkpt>
<trkpt lat="30.610391617" lon="34.776973724">
<ele>823.531250</ele>
<time>2013-11-23T07:13:49Z</time>
<extensions>
<speed>0.0</speed>
<temp>0.00</temp>
<bpm>0</bpm>
<rpm>0.00</rpm>
</extensions>
</trkpt>
<trkpt lat="30.610391617" lon="34.776973724">
<ele>823.531250</ele>
<time>2013-11-23T07:13:54Z</time>
<extensions>
<speed>0.0</speed>
<temp>0.00</temp>
<bpm>0</bpm>
<rpm>0.00</rpm>
</extensions>
</trkpt>
<trkpt lat="30.610391617" lon="34.776973724">
<ele>823.531250</ele>
<time>2013-11-23T07:13:59Z</time>
<speed>0.010000</speed>
<extensions>
<speed>0.0</speed>
<temp>0.00</temp>
<bpm>0</bpm>
<rpm>0.00</rpm>
</extensions>
</trkpt>
<trkpt lat="30.610391617" lon="34.776973724">
<ele>823.531250</ele>
<time>2013-11-23T07:14:04Z</time>
<extensions>
<speed>0.0</speed>
<temp>0.00</temp>
<bpm>0</bpm>
<rpm>0.00</rpm>
</extensions>
</trkpt>
<trkpt lat="30.610391617" lon="34.776973724">
<ele>823.515625</ele>
<time>2013-11-23T07:14:09Z</time>
<extensions>
<speed>0.0</speed>
<temp>0.00</temp>
<bpm>0</bpm>
<rpm>0.00</rpm>
</extensions>
</trkpt>
<trkpt lat="30.610389709" lon="34.776973724">
<ele>823.500000</ele>
<time>2013-11-23T07:14:14Z</time>
<speed>0.010000</speed>
<extensions>
<speed>0.0</speed>
<temp>0.00</temp>
<bpm>0</bpm>
<rpm>0.00</rpm>
</extensions>
</trkpt>
<trkpt lat="30.610389709" lon="34.776973724">
<ele>823.500000</ele>
<time>2013-11-23T07:14:19Z</time>
<extensions>
<speed>0.0</speed>
<temp>0.00</temp>
<bpm>0</bpm>
<rpm>0.00</rpm>
</extensions>
</trkpt>
<trkpt lat="30.610389709" lon="34.776973724">
<ele>823.484375</ele>
<time>2013-11-23T07:14:24Z</time>
<extensions>
<speed>0.0</speed>
<temp>0.00</temp>
<bpm>0</bpm>
<rpm>0.00</rpm>
</extensions>
</trkpt>
<trkpt lat="30.610389709" lon="34.776973724">
<ele>823.484375</ele>
<time>2013-11-23T07:14:29Z</time>
<extensions>
<speed>0.0</speed>
<temp>0.00</temp>
<bpm>0</bpm>
<rpm>0.00</rpm>
</extensions>
</trkpt>
<trkpt lat="30.610389709" lon="34.776973724">
<ele>823.484375</ele>
<time>2013-11-23T07:14:34Z</time>
<extensions>
<speed>0.0</speed>
<temp>0.00</temp>
<bpm>0</bpm>
<rpm>0.00</rpm>
</extensions>
</trkpt>
<trkpt lat="30.610389709" lon="34.776973724">
<ele>823.468750</ele>
<time>2013-11-23T07:14:39Z</time>
<extensions>
<speed>0.0</speed>
<temp>0.00</temp>
<bpm>0</bpm>
<rpm>0.00</rpm>
</extensions>
</trkpt>
<trkpt lat="30.610389709" lon="34.776973724">
<ele>823.468750</ele>
<time>2013-11-23T07:14:44Z</time>
<extensions>
<speed>0.0</speed>
<temp>0.00</temp>
<bpm>0</bpm>
<rpm>0.00</rpm>
</extensions>
</trkpt>
<trkpt lat="30.610389709" lon="34.776977539">
<ele>823.484375</ele>
<time>2013-11-23T07:14:49Z</time>
<extensions>
<speed>0.0</speed>
<temp>0.00</temp>
<bpm>0</bpm>
<rpm>0.00</rpm>
</extensions>
</trkpt>
<trkpt lat="30.610389709" lon="34.776977539">
<ele>823.484375</ele>
<time>2013-11-23T07:14:54Z</time>
<extensions>
<speed>0.0</speed>
<temp>0.00</temp>
<bpm>0</bpm>
<rpm>0.00</rpm>
</extensions>
</trkpt>
<trkpt lat="30.610389709" lon="34.776977539">
<ele>823.468750</ele>
<time>2013-11-23T07:14:59Z</time>
<extensions>
<speed>0.0</speed>
<temp>0.00</temp>
<bpm>0</bpm>
<rpm>0.00</rpm>
</extensions>
</trkpt>
<trkpt lat="30.610389709" lon="34.776977539">
<ele>823.468750</ele>
<time>2013-11-23T07:15:04Z</time>
<extensions>
<speed>0.0</speed>
<temp>0.00</temp>
<bpm>0</bpm>
<rpm>0.00</rpm>
</extensions>
</trkpt>
<trkpt lat="30.610389709" lon="34.776977539">
<ele>823.468750</ele>
<time>2013-11-23T07:15:09Z</time>
<extensions>
<speed>0.0</speed>
<temp>0.00</temp>
<bpm>0</bpm>
<rpm>0.00</rpm>
</extensions>
</trkpt>
<trkpt lat="30.610389709" lon="34.776977539">
<ele>823.468750</ele>
<time>2013-11-23T07:15:14Z</time>
<extensions>
<speed>0.0</speed>
<temp>0.00</temp>
<bpm>0</bpm>
<rpm>0.00</rpm>
</extensions>
</trkpt>
<trkpt lat="30.610389709" lon="34.776977539">
<ele>823.468750</ele>
<time>2013-11-23T07:15:19Z</time>
<extensions>
<speed>0.0</speed>
<temp>0.00</temp>
<bpm>0</bpm>
<rpm>0.00</rpm>
</extensions>
</trkpt>
<trkpt lat="30.610389709" lon="34.776977539">
<ele>823.468750</ele>
<time>2013-11-23T07:15:24Z</time>
<extensions>
<speed>0.0</speed>
<temp>0.00</temp>
<bpm>0</bpm>
<rpm>0.00</rpm>
</extensions>
</trkpt>
<trkpt lat="30.610389709" lon="34.776977539">
<ele>823.484375</ele>
<time>2013-11-23T07:15:29Z</time>
<speed>0.010000</speed>
<extensions>
<speed>0.0</speed>
<temp>0.00</temp>
<bpm>0</bpm>
<rpm>0.00</rpm>
</extensions>
</trkpt>
<trkpt lat="30.610389709" lon="34.776977539">
<ele>823.484375</ele>
<time>2013-11-23T07:15:34Z</time>
<speed>0.010000</speed>
<extensions>
<speed>0.0</speed>
<temp>0.00</temp>
<bpm>0</bpm>
<rpm>0.00</rpm>
</extensions>
</trkpt>
<trkpt lat="30.610389709" lon="34.776977539">
<ele>823.500000</ele>
<time>2013-11-23T07:15:39Z</time>
<extensions>
<speed>0.0</speed>
<temp>0.00</temp>
<bpm>0</bpm>
<rpm>0.00</rpm>
</extensions>
</trkpt>
<trkpt lat="30.610389709" lon="34.776977539">
<ele>823.500000</ele>
<time>2013-11-23T07:15:44Z</time>
<extensions>
<speed>0.0</speed>
<temp>0.00</temp>
<bpm>0</bpm>
<rpm>0.00</rpm>
</extensions>
</trkpt>
<trkpt lat="30.610389709" lon="34.776977539">
<ele>823.500000</ele>
<time>2013-11-23T07:15:49Z</time>
<extensions>
<speed>0.0</speed>
<temp>0.00</temp>
<bpm>0</bpm>
<rpm>0.00</rpm>
</extensions>
</trkpt>
<trkpt lat="30.610389709" lon="34.776977539">
<ele>823.500000</ele>
<time>2013-11-23T07:15:54Z</time>
<extensions>
<speed>0.0</speed>
<temp>0.00</temp>
<bpm>0</bpm>
<rpm>0.00</rpm>
</extensions>
</trkpt>
<trkpt lat="30.610389709" lon="34.776977539">
<ele>823.484375</ele>
<time>2013-11-23T07:15:59Z</time>
<extensions>
<speed>0.0</speed>
<temp>0.00</temp>
<bpm>0</bpm>
<rpm>0.00</rpm>
</extensions>
</trkpt>
<trkpt lat="30.610389709" lon="34.776977539">
<ele>823.500000</ele>
<time>2013-11-23T07:16:04Z</time>
<extensions>
<speed>0.0</speed>
<temp>0.00</temp>
<bpm>0</bpm>
<rpm>0.00</rpm>
</extensions>
</trkpt>
<trkpt lat="30.610389709" lon="34.776977539">
<ele>823.500000</ele>
<time>2013-11-23T07:16:09Z</time>
<extensions>
<speed>0.0</speed>
<temp>0.00</temp>
<bpm>0</bpm>
<rpm>0.00</rpm>
</extensions>
</trkpt>
<trkpt lat="30.610389709" lon="34.776977539">
<ele>823.500000</ele>
<time>2013-11-23T07:16:14Z</time>
<speed>0.010000</speed>
<extensions>
<speed>0.0</speed>
<temp>0.00</temp>
<bpm>0</bpm>
<rpm>0.00</rpm>
</extensions>
</trkpt>
<trkpt lat="30.610389709" lon="34.776977539">
<ele>823.500000</ele>
<time>2013-11-23T07:16:19Z</time>
<extensions>
<speed>0.0</speed>
<temp>0.00</temp>
<bpm>0</bpm>
<rpm>0.00</rpm>
</extensions>
</trkpt>
<trkpt lat="30.610389709" lon="34.776977539">
<ele>823.515625</ele>
<time>2013-11-23T07:16:24Z</time>
<extensions>
<speed>0.0</speed>
<temp>0.00</temp>
<bpm>0</bpm>
<rpm>0.00</rpm>
</extensions>
</trkpt>
<trkpt lat="30.610389709" lon="34.776977539">
<ele>823.515625</ele>
<time>2013-11-23T07:16:29Z</time>
<extensions>
<speed>0.0</speed>
<temp>0.00</temp>
<bpm>0</bpm>
<rpm>0.00</rpm>
</extensions>
</trkpt>
<trkpt lat="30.610389709" lon="34.776977539">
<ele>823.500000</ele>
<time>2013-11-23T07:16:34Z</time>
<extensions>
<speed>0.0</speed>
<temp>0.00</temp>
<bpm>0</bpm>
<rpm>0.00</rpm>
</extensions>
</trkpt>
<trkpt lat="30.610389709" lon="34.776977539">
<ele>823.515625</ele>
<time>2013-11-23T07:16:39Z</time>
<extensions>
<speed>0.0</speed>
<temp>0.00</temp>
<bpm>0</bpm>
<rpm>0.00</rpm>
</extensions>
</trkpt>
<trkpt lat="30.610389709" lon="34.776977539">
<ele>823.515625</ele>
<time>2013-11-23T07:16:44Z</time>
<extensions>
<speed>0.0</speed>
<temp>0.00</temp>
<bpm>0</bpm>
<rpm>0.00</rpm>
</extensions>
</trkpt>
<trkpt lat="30.610389709" lon="34.776977539">
<ele>823.515625</ele>
<time>2013-11-23T07:16:49Z</time>
<extensions>
<speed>0.0</speed>
<temp>0.00</temp>
<bpm>0</bpm>
<rpm>0.00</rpm>
</extensions>
</trkpt>
<trkpt lat="30.610389709" lon="34.776977539">
<ele>823.531250</ele>
<time>2013-11-23T07:16:54Z</time>
<extensions>
<speed>0.0</speed>
<temp>0.00</temp>
<bpm>0</bpm>
<rpm>0.00</rpm>
</extensions>
</trkpt>
<trkpt lat="30.610389709" lon="34.776977539">
<ele>823.546875</ele>
<time>2013-11-23T07:16:59Z</time>
<extensions>
<speed>0.0</speed>
<temp>0.00</temp>
<bpm>0</bpm>
<rpm>0.00</rpm>
</extensions>
</trkpt>
<trkpt lat="30.610389709" lon="34.776977539">
<ele>823.562500</ele>
<time>2013-11-23T07:17:04Z</time>
<extensions>
<speed>0.0</speed>
<temp>0.00</temp>
<bpm>0</bpm>
<rpm>0.00</rpm>
</extensions>
</trkpt>
<trkpt lat="30.610389709" lon="34.776977539">
<ele>823.562500</ele>
<time>2013-11-23T07:17:09Z</time>
<extensions>
<speed>0.0</speed>
<temp>0.00</temp>
<bpm>0</bpm>
<rpm>0.00</rpm>
</extensions>
</trkpt>
<trkpt lat="30.610389709" lon="34.776977539">
<ele>823.562500</ele>
<time>2013-11-23T07:17:14Z</time>
<extensions>
<speed>0.0</speed>
<temp>0.00</temp>
<bpm>0</bpm>
<rpm>0.00</rpm>
</extensions>
</trkpt>
<trkpt lat="30.610389709" lon="34.776977539">
<ele>823.562500</ele>
<time>2013-11-23T07:17:19Z</time>
<extensions>
<speed>0.0</speed>
<temp>0.00</temp>
<bpm>0</bpm>
<rpm>0.00</rpm>
</extensions>
</trkpt>
<trkpt lat="30.610389709" lon="34.776977539">
<ele>823.578125</ele>
<time>2013-11-23T07:17:24Z</time>
<extensions>
<speed>0.0</speed>
<temp>0.00</temp>
<bpm>0</bpm>
<rpm>0.00</rpm>
</extensions>
</trkpt>
<trkpt lat="30.610389709" lon="34.776977539">
<ele>823.593750</ele>
<time>2013-11-23T07:17:29Z</time>
<extensions>
<speed>0.0</speed>
<temp>0.00</temp>
<bpm>0</bpm>
<rpm>0.00</rpm>
</extensions>
</trkpt>
<trkpt lat="30.610389709" lon="34.776977539">
<ele>823.593750</ele>
<time>2013-11-23T07:17:34Z</time>
<extensions>
<speed>0.0</speed>
<temp>0.00</temp>
<bpm>0</bpm>
<rpm>0.00</rpm>
</extensions>
</trkpt>
<trkpt lat="30.610389709" lon="34.776977539">
<ele>823.593750</ele>
<time>2013-11-23T07:17:39Z</time>
<extensions>
<speed>0.0</speed>
<temp>0.00</temp>
<bpm>0</bpm>
<rpm>0.00</rpm>
</extensions>
</trkpt>
<trkpt lat="30.610389709" lon="34.776977539">
<ele>823.578125</ele>
<time>2013-11-23T07:17:44Z</time>
<extensions>
<speed>0.0</speed>
<temp>0.00</temp>
<bpm>0</bpm>
<rpm>0.00</rpm>
</extensions>
</trkpt>
<trkpt lat="30.610389709" lon="34.776977539">
<ele>823.578125</ele>
<time>2013-11-23T07:17:49Z</time>
<extensions>
<speed>0.0</speed>
<temp>0.00</temp>
<bpm>0</bpm>
<rpm>0.00</rpm>
</extensions>
</trkpt>
<trkpt lat="30.610389709" lon="34.776977539">
<ele>823.578125</ele>
<time>2013-11-23T07:17:54Z</time>
<extensions>
<speed>0.0</speed>
<temp>0.00</temp>
<bpm>0</bpm>
<rpm>0.00</rpm>
</extensions>
</trkpt>
<trkpt lat="30.610389709" lon="34.776977539">
<ele>823.578125</ele>
<time>2013-11-23T07:17:59Z</time>
<extensions>
<speed>0.0</speed>
<temp>0.00</temp>
<bpm>0</bpm>
<rpm>0.00</rpm>
</extensions>
</trkpt>
<trkpt lat="30.610389709" lon="34.776977539">
<ele>823.578125</ele>
<time>2013-11-23T07:18:04Z</time>
<extensions>
<speed>0.0</speed>
<temp>0.00</temp>
<bpm>0</bpm>
<rpm>0.00</rpm>
</extensions>
</trkpt>
<trkpt lat="30.610389709" lon="34.776977539">
<ele>823.562500</ele>
<time>2013-11-23T07:18:09Z</time>
<extensions>
<speed>0.0</speed>
<temp>0.00</temp>
<bpm>0</bpm>
<rpm>0.00</rpm>
</extensions>
</trkpt>
<trkpt lat="30.610389709" lon="34.776977539">
<ele>823.562500</ele>
<time>2013-11-23T07:18:14Z</time>
<extensions>
<speed>0.0</speed>
<temp>0.00</temp>
<bpm>0</bpm>
<rpm>0.00</rpm>
</extensions>
</trkpt>
<trkpt lat="30.610389709" lon="34.776977539">
<ele>823.562500</ele>
<time>2013-11-23T07:18:19Z</time>
<extensions>
<speed>0.0</speed>
<temp>0.00</temp>
<bpm>0</bpm>
<rpm>0.00</rpm>
</extensions>
</trkpt>
<trkpt lat="30.610389709" lon="34.776977539">
<ele>823.546875</ele>
<time>2013-11-23T07:18:24Z</time>
<extensions>
<speed>0.0</speed>
<temp>0.00</temp>
<bpm>0</bpm>
<rpm>0.00</rpm>
</extensions>
</trkpt>
<trkpt lat="30.610389709" lon="34.776977539">
<ele>823.546875</ele>
<time>2013-11-23T07:18:29Z</time>
<extensions>
<speed>0.0</speed>
<temp>0.00</temp>
<bpm>0</bpm>
<rpm>0.00</rpm>
</extensions>
</trkpt>
<trkpt lat="30.610389709" lon="34.776977539">
<ele>823.546875</ele>
<time>2013-11-23T07:18:34Z</time>
<speed>0.010000</speed>
<extensions>
<speed>0.0</speed>
<temp>0.00</temp>
<bpm>0</bpm>
<rpm>0.00</rpm>
</extensions>
</trkpt>
<trkpt lat="30.610389709" lon="34.776977539">
<ele>823.546875</ele>
<time>2013-11-23T07:18:39Z</time>
<extensions>
<speed>0.0</speed>
<temp>0.00</temp>
<bpm>0</bpm>
<rpm>0.00</rpm>
</extensions>
</trkpt>
<trkpt lat="30.610389709" lon="34.776977539">
<ele>823.546875</ele>
<time>2013-11-23T07:18:44Z</time>
<speed>0.020000</speed>
<extensions>
<speed>0.0</speed>
<temp>0.00</temp>
<bpm>0</bpm>
<rpm>0.00</rpm>
</extensions>
</trkpt>
<trkpt lat="30.610389709" lon="34.776977539">
<ele>823.546875</ele>
<time>2013-11-23T07:18:49Z</time>
<speed>0.010000</speed>
<extensions>
<speed>0.0</speed>
<temp>0.00</temp>
<bpm>0</bpm>
<rpm>0.00</rpm>
</extensions>
</trkpt>
<trkpt lat="30.610389709" lon="34.776977539">
<ele>823.546875</ele>
<time>2013-11-23T07:18:54Z</time>
<extensions>
<speed>0.0</speed>
<temp>0.00</temp>
<bpm>0</bpm>
<rpm>0.00</rpm>
</extensions>
</trkpt>
<trkpt lat="30.610389709" lon="34.776977539">
<ele>823.546875</ele>
<time>2013-11-23T07:18:59Z</time>
<extensions>
<speed>0.0</speed>
<temp>0.00</temp>
<bpm>0</bpm>
<rpm>0.00</rpm>
</extensions>
</trkpt>
<trkpt lat="30.610389709" lon="34.776977539">
<ele>823.562500</ele>
<time>2013-11-23T07:19:04Z</time>
<extensions>
<speed>0.0</speed>
<temp>0.00</temp>
<bpm>0</bpm>
<rpm>0.00</rpm>
</extensions>
</trkpt>
<trkpt lat="30.610389709" lon="34.776977539">
<ele>823.562500</ele>
<time>2013-11-23T07:19:09Z</time>
<extensions>
<speed>0.0</speed>
<temp>0.00</temp>
<bpm>0</bpm>
<rpm>0.00</rpm>
</extensions>
</trkpt>
<trkpt lat="30.610389709" lon="34.776977539">
<ele>823.578125</ele>
<time>2013-11-23T07:19:14Z</time>
<extensions>
<speed>0.0</speed>
<temp>0.00</temp>
<bpm>0</bpm>
<rpm>0.00</rpm>
</extensions>
</trkpt>
<trkpt lat="30.610389709" lon="34.776977539">
<ele>823.578125</ele>
<time>2013-11-23T07:19:19Z</time>
<extensions>
<speed>0.0</speed>
<temp>0.00</temp>
<bpm>0</bpm>
<rpm>0.00</rpm>
</extensions>
</trkpt>
<trkpt lat="30.610389709" lon="34.776977539">
<ele>823.609375</ele>
<time>2013-11-23T07:19:24Z</time>
<extensions>
<speed>0.0</speed>
<temp>0.00</temp>
<bpm>0</bpm>
<rpm>0.00</rpm>
</extensions>
</trkpt>
<trkpt lat="30.610389709" lon="34.776977539">
<ele>823.625000</ele>
<time>2013-11-23T07:19:29Z</time>
<speed>0.010000</speed>
<extensions>
<speed>0.0</speed>
<temp>0.00</temp>
<bpm>0</bpm>
<rpm>0.00</rpm>
</extensions>
</trkpt>
<trkpt lat="30.610389709" lon="34.776977539">
<ele>823.625000</ele>
<time>2013-11-23T07:19:34Z</time>
<extensions>
<speed>0.0</speed>
<temp>0.00</temp>
<bpm>0</bpm>
<rpm>0.00</rpm>
</extensions>
</trkpt>
<trkpt lat="30.610389709" lon="34.776977539">
<ele>823.640625</ele>
<time>2013-11-23T07:19:39Z</time>
<extensions>
<speed>0.0</speed>
<temp>0.00</temp>
<bpm>0</bpm>
<rpm>0.00</rpm>
</extensions>
</trkpt>
<trkpt lat="30.610389709" lon="34.776977539">
<ele>823.656250</ele>
<time>2013-11-23T07:19:44Z</time>
<extensions>
<speed>0.0</speed>
<temp>0.00</temp>
<bpm>0</bpm>
<rpm>0.00</rpm>
</extensions>
</trkpt>
<trkpt lat="30.610389709" lon="34.776977539">
<ele>823.656250</ele>
<time>2013-11-23T07:19:49Z</time>
<extensions>
<speed>0.0</speed>
<temp>0.00</temp>
<bpm>0</bpm>
<rpm>0.00</rpm>
</extensions>
</trkpt>
<trkpt lat="30.610389709" lon="34.776977539">
<ele>823.671875</ele>
<time>2013-11-23T07:19:54Z</time>
<extensions>
<speed>0.0</speed>
<temp>0.00</temp>
<bpm>0</bpm>
<rpm>0.00</rpm>
</extensions>
</trkpt>
<trkpt lat="30.610389709" lon="34.776977539">
<ele>823.671875</ele>
<time>2013-11-23T07:19:59Z</time>
<extensions>
<speed>0.0</speed>
<temp>0.00</temp>
<bpm>0</bpm>
<rpm>0.00</rpm>
</extensions>
</trkpt>
<trkpt lat="30.610389709" lon="34.776977539">
<ele>823.687500</ele>
<time>2013-11-23T07:20:04Z</time>
<extensions>
<speed>0.0</speed>
<temp>0.00</temp>
<bpm>0</bpm>
<rpm>0.00</rpm>
</extensions>
</trkpt>
<trkpt lat="30.610389709" lon="34.776977539">
<ele>823.671875</ele>
<time>2013-11-23T07:20:09Z</time>
<extensions>
<speed>0.0</speed>
<temp>0.00</temp>
<bpm>0</bpm>
<rpm>0.00</rpm>
</extensions>
</trkpt>
<trkpt lat="30.610389709" lon="34.776977539">
<ele>823.671875</ele>
<time>2013-11-23T07:20:14Z</time>
<extensions>
<speed>0.0</speed>
<temp>0.00</temp>
<bpm>0</bpm>
<rpm>0.00</rpm>
</extensions>
</trkpt>
<trkpt lat="30.610387802" lon="34.776977539">
<ele>823.671875</ele>
<time>2013-11-23T07:20:19Z</time>
<extensions>
<speed>0.0</speed>
<temp>0.00</temp>
<bpm>0</bpm>
<rpm>0.00</rpm>
</extensions>
</trkpt>
<trkpt lat="30.610387802" lon="34.776977539">
<ele>823.671875</ele>
<time>2013-11-23T07:20:24Z</time>
<extensions>
<speed>0.0</speed>
<temp>0.00</temp>
<bpm>0</bpm>
<rpm>0.00</rpm>
</extensions>
</trkpt>
<trkpt lat="30.610387802" lon="34.776977539">
<ele>823.687500</ele>
<time>2013-11-23T07:20:29Z</time>
<extensions>
<speed>0.0</speed>
<temp>0.00</temp>
<bpm>0</bpm>
<rpm>0.00</rpm>
</extensions>
</trkpt>
<trkpt lat="30.610387802" lon="34.776977539">
<ele>823.671875</ele>
<time>2013-11-23T07:20:34Z</time>
<extensions>
<speed>0.0</speed>
<temp>0.00</temp>
<bpm>0</bpm>
<rpm>0.00</rpm>
</extensions>
</trkpt>
<trkpt lat="30.610387802" lon="34.776977539">
<ele>823.671875</ele>
<time>2013-11-23T07:20:39Z</time>
<extensions>
<speed>0.0</speed>
<temp>0.00</temp>
<bpm>0</bpm>
<rpm>0.00</rpm>
</extensions>
</trkpt>
<trkpt lat="30.610387802" lon="34.776977539">
<ele>823.656250</ele>
<time>2013-11-23T07:20:44Z</time>
<extensions>
<speed>0.0</speed>
<temp>0.00</temp>
<bpm>0</bpm>
<rpm>0.00</rpm>
</extensions>
</trkpt>
<trkpt lat="30.610387802" lon="34.776977539">
<ele>823.656250</ele>
<time>2013-11-23T07:20:49Z</time>
<extensions>
<speed>0.0</speed>
<temp>0.00</temp>
<bpm>0</bpm>
<rpm>0.00</rpm>
</extensions>
</trkpt>
<trkpt lat="30.610387802" lon="34.776977539">
<ele>823.656250</ele>
<time>2013-11-23T07:20:54Z</time>
<extensions>
<speed>0.0</speed>
<temp>0.00</temp>
<bpm>0</bpm>
<rpm>0.00</rpm>
</extensions>
</trkpt>
<trkpt lat="30.610387802" lon="34.776977539">
<ele>823.671875</ele>
<time>2013-11-23T07:20:59Z</time>
<extensions>
<speed>0.0</speed>
<temp>0.00</temp>
<bpm>0</bpm>
<rpm>0.00</rpm>
</extensions>
</trkpt>
<trkpt lat="30.610387802" lon="34.776977539">
<ele>823.687500</ele>
<time>2013-11-23T07:21:04Z</time>
<extensions>
<speed>0.0</speed>
<temp>0.00</temp>
<bpm>0</bpm>
<rpm>0.00</rpm>
</extensions>
</trkpt>
<trkpt lat="30.610387802" lon="34.776977539">
<ele>823.687500</ele>
<time>2013-11-23T07:21:09Z</time>
<extensions>
<speed>0.0</speed>
<temp>0.00</temp>
<bpm>0</bpm>
<rpm>0.00</rpm>
</extensions>
</trkpt>
<trkpt lat="30.610387802" lon="34.776977539">
<ele>823.687500</ele>
<time>2013-11-23T07:21:14Z</time>
<extensions>
<speed>0.0</speed>
<temp>0.00</temp>
<bpm>0</bpm>
<rpm>0.00</rpm>
</extensions>
</trkpt>
<trkpt lat="30.610387802" lon="34.776981354">
<ele>823.703125</ele>
<time>2013-11-23T07:21:19Z</time>
<extensions>
<speed>0.0</speed>
<temp>0.00</temp>
<bpm>0</bpm>
<rpm>0.00</rpm>
</extensions>
</trkpt>
<trkpt lat="30.610387802" lon="34.776981354">
<ele>823.703125</ele>
<time>2013-11-23T07:21:24Z</time>
<extensions>
<speed>0.0</speed>
<temp>0.00</temp>
<bpm>0</bpm>
<rpm>0.00</rpm>
</extensions>
</trkpt>
<trkpt lat="30.610387802" lon="34.776981354">
<ele>823.703125</ele>
<time>2013-11-23T07:21:29Z</time>
<extensions>
<speed>0.0</speed>
<temp>0.00</temp>
<bpm>0</bpm>
<rpm>0.00</rpm>
</extensions>
</trkpt>
<trkpt lat="30.610387802" lon="34.776981354">
<ele>823.703125</ele>
<time>2013-11-23T07:21:34Z</time>
<extensions>
<speed>0.0</speed>
<temp>0.00</temp>
<bpm>0</bpm>
<rpm>0.00</rpm>
</extensions>
</trkpt>
<trkpt lat="30.610387802" lon="34.776981354">
<ele>823.718750</ele>
<time>2013-11-23T07:21:39Z</time>
<extensions>
<speed>0.0</speed>
<temp>0.00</temp>
<bpm>0</bpm>
<rpm>0.00</rpm>
</extensions>
</trkpt>
<trkpt lat="30.610387802" lon="34.776981354">
<ele>823.734375</ele>
<time>2013-11-23T07:21:44Z</time>
<extensions>
<speed>0.0</speed>
<temp>0.00</temp>
<bpm>0</bpm>
<rpm>0.00</rpm>
</extensions>
</trkpt>
<trkpt lat="30.610387802" lon="34.776981354">
<ele>823.734375</ele>
<time>2013-11-23T07:21:49Z</time>
<extensions>
<speed>0.0</speed>
<temp>0.00</temp>
<bpm>0</bpm>
<rpm>0.00</rpm>
</extensions>
</trkpt>
<trkpt lat="30.610387802" lon="34.776981354">
<ele>823.750000</ele>
<time>2013-11-23T07:21:54Z</time>
<extensions>
<speed>0.0</speed>
<temp>0.00</temp>
<bpm>0</bpm>
<rpm>0.00</rpm>
</extensions>
</trkpt>
<trkpt lat="30.610387802" lon="34.776981354">
<ele>823.734375</ele>
<time>2013-11-23T07:21:59Z</time>
<extensions>
<speed>0.0</speed>
<temp>0.00</temp>
<bpm>0</bpm>
<rpm>0.00</rpm>
</extensions>
</trkpt>
<trkpt lat="30.610385895" lon="34.776981354">
<ele>823.750000</ele>
<time>2013-11-23T07:22:04Z</time>
<extensions>
<speed>0.0</speed>
<temp>0.00</temp>
<bpm>0</bpm>
<rpm>0.00</rpm>
</extensions>
</trkpt>
<trkpt lat="30.610385895" lon="34.776981354">
<ele>823.750000</ele>
<time>2013-11-23T07:22:09Z</time>
<speed>0.010000</speed>
<extensions>
<speed>0.0</speed>
<temp>0.00</temp>
<bpm>0</bpm>
<rpm>0.00</rpm>
</extensions>
</trkpt>
<trkpt lat="30.610385895" lon="34.776981354">
<ele>823.750000</ele>
<time>2013-11-23T07:22:14Z</time>
<extensions>
<speed>0.0</speed>
<temp>0.00</temp>
<bpm>0</bpm>
<rpm>0.00</rpm>
</extensions>
</trkpt>
<trkpt lat="30.610385895" lon="34.776981354">
<ele>823.750000</ele>
<time>2013-11-23T07:22:19Z</time>
<extensions>
<speed>0.0</speed>
<temp>0.00</temp>
<bpm>0</bpm>
<rpm>0.00</rpm>
</extensions>
</trkpt>
<trkpt lat="30.610385895" lon="34.776981354">
<ele>823.750000</ele>
<time>2013-11-23T07:22:24Z</time>
<extensions>
<speed>0.0</speed>
<temp>0.00</temp>
<bpm>0</bpm>
<rpm>0.00</rpm>
</extensions>
</trkpt>
<trkpt lat="30.610385895" lon="34.776981354">
<ele>823.750000</ele>
<time>2013-11-23T07:22:29Z</time>
<extensions>
<speed>0.0</speed>
<temp>0.00</temp>
<bpm>0</bpm>
<rpm>0.00</rpm>
</extensions>
</trkpt>
<trkpt lat="30.610385895" lon="34.776981354">
<ele>823.750000</ele>
<time>2013-11-23T07:22:34Z</time>
<extensions>
<speed>0.0</speed>
<temp>0.00</temp>
<bpm>0</bpm>
<rpm>0.00</rpm>
</extensions>
</trkpt>
<trkpt lat="30.610385895" lon="34.776981354">
<ele>823.750000</ele>
<time>2013-11-23T07:22:39Z</time>
<extensions>
<speed>0.0</speed>
<temp>0.00</temp>
<bpm>0</bpm>
<rpm>0.00</rpm>
</extensions>
</trkpt>
<trkpt lat="30.610385895" lon="34.776981354">
<ele>823.750000</ele>
<time>2013-11-23T07:22:44Z</time>
<speed>0.010000</speed>
<extensions>
<speed>0.0</speed>
<temp>0.00</temp>
<bpm>0</bpm>
<rpm>0.00</rpm>
</extensions>
</trkpt>
<trkpt lat="30.610385895" lon="34.776981354">
<ele>823.765625</ele>
<time>2013-11-23T07:22:49Z</time>
<extensions>
<speed>0.0</speed>
<temp>0.00</temp>
<bpm>0</bpm>
<rpm>0.00</rpm>
</extensions>
</trkpt>
<trkpt lat="30.610385895" lon="34.776981354">
<ele>823.765625</ele>
<time>2013-11-23T07:22:54Z</time>
<extensions>
<speed>0.0</speed>
<temp>0.00</temp>
<bpm>0</bpm>
<rpm>0.00</rpm>
</extensions>
</trkpt>
<trkpt lat="30.610385895" lon="34.776981354">
<ele>823.765625</ele>
<time>2013-11-23T07:22:59Z</time>
<extensions>
<speed>0.0</speed>
<temp>0.00</temp>
<bpm>0</bpm>
<rpm>0.00</rpm>
</extensions>
</trkpt>
<trkpt lat="30.610385895" lon="34.776981354">
<ele>823.781250</ele>
<time>2013-11-23T07:23:04Z</time>
<speed>0.010000</speed>
<extensions>
<speed>0.0</speed>
<temp>0.00</temp>
<bpm>0</bpm>
<rpm>0.00</rpm>
</extensions>
</trkpt>
<trkpt lat="30.610385895" lon="34.776981354">
<ele>823.796875</ele>
<time>2013-11-23T07:23:09Z</time>
<speed>0.010000</speed>
<extensions>
<speed>0.0</speed>
<temp>0.00</temp>
<bpm>0</bpm>
<rpm>0.00</rpm>
</extensions>
</trkpt>
<trkpt lat="30.610385895" lon="34.776981354">
<ele>823.812500</ele>
<time>2013-11-23T07:23:14Z</time>
<extensions>
<speed>0.0</speed>
<temp>0.00</temp>
<bpm>0</bpm>
<rpm>0.00</rpm>
</extensions>
</trkpt>
<trkpt lat="30.610385895" lon="34.776981354">
<ele>823.828125</ele>
<time>2013-11-23T07:23:19Z</time>
<speed>0.010000</speed>
<extensions>
<speed>0.0</speed>
<temp>0.00</temp>
<bpm>0</bpm>
<rpm>0.00</rpm>
</extensions>
</trkpt>
<trkpt lat="30.610385895" lon="34.776981354">
<ele>823.812500</ele>
<time>2013-11-23T07:23:24Z</time>
<extensions>
<speed>0.0</speed>
<temp>0.00</temp>
<bpm>0</bpm>
<rpm>0.00</rpm>
</extensions>
</trkpt>
<trkpt lat="30.610385895" lon="34.776981354">
<ele>823.796875</ele>
<time>2013-11-23T07:23:29Z</time>
<extensions>
<speed>0.0</speed>
<temp>0.00</temp>
<bpm>0</bpm>
<rpm>0.00</rpm>
</extensions>
</trkpt>
<trkpt lat="30.610385895" lon="34.776981354">
<ele>823.796875</ele>
<time>2013-11-23T07:23:34Z</time>
<extensions>
<speed>0.0</speed>
<temp>0.00</temp>
<bpm>0</bpm>
<rpm>0.00</rpm>
</extensions>
</trkpt>
<trkpt lat="30.610385895" lon="34.776981354">
<ele>823.796875</ele>
<time>2013-11-23T07:23:39Z</time>
<extensions>
<speed>0.0</speed>
<temp>0.00</temp>
<bpm>0</bpm>
<rpm>0.00</rpm>
</extensions>
</trkpt>
<trkpt lat="30.610385895" lon="34.776981354">
<ele>823.796875</ele>
<time>2013-11-23T07:23:44Z</time>
<speed>0.010000</speed>
<extensions>
<speed>0.0</speed>
<temp>0.00</temp>
<bpm>0</bpm>
<rpm>0.00</rpm>
</extensions>
</trkpt>
<trkpt lat="30.610385895" lon="34.776981354">
<ele>823.796875</ele>
<time>2013-11-23T07:23:49Z</time>
<extensions>
<speed>0.0</speed>
<temp>0.00</temp>
<bpm>0</bpm>
<rpm>0.00</rpm>
</extensions>
</trkpt>
<trkpt lat="30.610383987" lon="34.776981354">
<ele>823.796875</ele>
<time>2013-11-23T07:23:54Z</time>
<speed>0.010000</speed>
<extensions>
<speed>0.0</speed>
<temp>0.00</temp>
<bpm>0</bpm>
<rpm>0.00</rpm>
</extensions>
</trkpt>
<trkpt lat="30.610383987" lon="34.776981354">
<ele>823.812500</ele>
<time>2013-11-23T07:23:59Z</time>
<speed>0.010000</speed>
<extensions>
<speed>0.0</speed>
<temp>0.00</temp>
<bpm>0</bpm>
<rpm>0.00</rpm>
</extensions>
</trkpt>
<trkpt lat="30.610383987" lon="34.776981354">
<ele>823.812500</ele>
<time>2013-11-23T07:24:04Z</time>
<extensions>
<speed>0.0</speed>
<temp>0.00</temp>
<bpm>0</bpm>
<rpm>0.00</rpm>
</extensions>
</trkpt>
<trkpt lat="30.610383987" lon="34.776981354">
<ele>823.812500</ele>
<time>2013-11-23T07:24:09Z</time>
<speed>0.010000</speed>
<extensions>
<speed>0.0</speed>
<temp>0.00</temp>
<bpm>0</bpm>
<rpm>0.00</rpm>
</extensions>
</trkpt>
<trkpt lat="30.610383987" lon="34.776981354">
<ele>823.812500</ele>
<time>2013-11-23T07:24:14Z</time>
<extensions>
<speed>0.0</speed>
<temp>0.00</temp>
<bpm>0</bpm>
<rpm>0.00</rpm>
</extensions>
</trkpt>
<trkpt lat="30.610383987" lon="34.776981354">
<ele>823.812500</ele>
<time>2013-11-23T07:24:19Z</time>
<extensions>
<speed>0.0</speed>
<temp>0.00</temp>
<bpm>0</bpm>
<rpm>0.00</rpm>
</extensions>
</trkpt>
<trkpt lat="30.610383987" lon="34.776981354">
<ele>823.843750</ele>
<time>2013-11-23T07:24:24Z</time>
<speed>0.010000</speed>
<extensions>
<speed>0.0</speed>
<temp>0.00</temp>
<bpm>0</bpm>
<rpm>0.00</rpm>
</extensions>
</trkpt>
<trkpt lat="30.610383987" lon="34.776981354">
<ele>823.859375</ele>
<time>2013-11-23T07:24:29Z</time>
<speed>0.010000</speed>
<extensions>
<speed>0.0</speed>
<temp>0.00</temp>
<bpm>0</bpm>
<rpm>0.00</rpm>
</extensions>
</trkpt>
<trkpt lat="30.610383987" lon="34.776985168">
<ele>823.875000</ele>
<time>2013-11-23T07:24:34Z</time>
<extensions>
<speed>0.0</speed>
<temp>0.00</temp>
<bpm>0</bpm>
<rpm>0.00</rpm>
</extensions>
</trkpt>
<trkpt lat="30.610383987" lon="34.776985168">
<ele>823.890625</ele>
<time>2013-11-23T07:24:39Z</time>
<extensions>
<speed>0.0</speed>
<temp>0.00</temp>
<bpm>0</bpm>
<rpm>0.00</rpm>
</extensions>
</trkpt>
<trkpt lat="30.610383987" lon="34.776985168">
<ele>823.906250</ele>
<time>2013-11-23T07:24:44Z</time>
<extensions>
<speed>0.0</speed>
<temp>0.00</temp>
<bpm>0</bpm>
<rpm>0.00</rpm>
</extensions>
</trkpt>
<trkpt lat="30.610383987" lon="34.776985168">
<ele>823.921875</ele>
<time>2013-11-23T07:24:49Z</time>
<extensions>
<speed>0.0</speed>
<temp>0.00</temp>
<bpm>0</bpm>
<rpm>0.00</rpm>
</extensions>
</trkpt>
<trkpt lat="30.610383987" lon="34.776985168">
<ele>823.921875</ele>
<time>2013-11-23T07:24:54Z</time>
<extensions>
<speed>0.0</speed>
<temp>0.00</temp>
<bpm>0</bpm>
<rpm>0.00</rpm>
</extensions>
</trkpt>
<trkpt lat="30.610382080" lon="34.776985168">
<ele>823.906250</ele>
<time>2013-11-23T07:24:59Z</time>
<extensions>
<speed>0.0</speed>
<temp>0.00</temp>
<bpm>0</bpm>
<rpm>0.00</rpm>
</extensions>
</trkpt>
<trkpt lat="30.610382080" lon="34.776985168">
<ele>823.906250</ele>
<time>2013-11-23T07:25:04Z</time>
<extensions>
<speed>0.0</speed>
<temp>0.00</temp>
<bpm>0</bpm>
<rpm>0.00</rpm>
</extensions>
</trkpt>
<trkpt lat="30.610382080" lon="34.776985168">
<ele>823.906250</ele>
<time>2013-11-23T07:25:09Z</time>
<speed>0.010000</speed>
<extensions>
<speed>0.0</speed>
<temp>0.00</temp>
<bpm>0</bpm>
<rpm>0.00</rpm>
</extensions>
</trkpt>
<trkpt lat="30.610382080" lon="34.776985168">
<ele>823.890625</ele>
<time>2013-11-23T07:25:14Z</time>
<extensions>
<speed>0.0</speed>
<temp>0.00</temp>
<bpm>0</bpm>
<rpm>0.00</rpm>
</extensions>
</trkpt>
<trkpt lat="30.610382080" lon="34.776985168">
<ele>823.890625</ele>
<time>2013-11-23T07:25:19Z</time>
<extensions>
<speed>0.0</speed>
<temp>0.00</temp>
<bpm>0</bpm>
<rpm>0.00</rpm>
</extensions>
</trkpt>
<trkpt lat="30.610382080" lon="34.776985168">
<ele>823.890625</ele>
<time>2013-11-23T07:25:24Z</time>
<speed>0.010000</speed>
<extensions>
<speed>0.0</speed>
<temp>0.00</temp>
<bpm>0</bpm>
<rpm>0.00</rpm>
</extensions>
</trkpt>
<trkpt lat="30.610382080" lon="34.776985168">
<ele>823.890625</ele>
<time>2013-11-23T07:25:29Z</time>
<extensions>
<speed>0.0</speed>
<temp>0.00</temp>
<bpm>0</bpm>
<rpm>0.00</rpm>
</extensions>
</trkpt>
<trkpt lat="30.610382080" lon="34.776985168">
<ele>823.890625</ele>
<time>2013-11-23T07:25:34Z</time>
<extensions>
<speed>0.0</speed>
<temp>0.00</temp>
<bpm>0</bpm>
<rpm>0.00</rpm>
</extensions>
</trkpt>
<trkpt lat="30.610382080" lon="34.776985168">
<ele>823.890625</ele>
<time>2013-11-23T07:25:39Z</time>
<extensions>
<speed>0.0</speed>
<temp>0.00</temp>
<bpm>0</bpm>
<rpm>0.00</rpm>
</extensions>
</trkpt>
<trkpt lat="30.610382080" lon="34.776985168">
<ele>823.906250</ele>
<time>2013-11-23T07:25:44Z</time>
<extensions>
<speed>0.0</speed>
<temp>0.00</temp>
<bpm>0</bpm>
<rpm>0.00</rpm>
</extensions>
</trkpt>
<trkpt lat="30.610382080" lon="34.776985168">
<ele>823.921875</ele>
<time>2013-11-23T07:25:49Z</time>
<extensions>
<speed>0.0</speed>
<temp>0.00</temp>
<bpm>0</bpm>
<rpm>0.00</rpm>
</extensions>
</trkpt>
<trkpt lat="30.610382080" lon="34.776985168">
<ele>823.921875</ele>
<time>2013-11-23T07:25:54Z</time>
<extensions>
<speed>0.0</speed>
<temp>0.00</temp>
<bpm>0</bpm>
<rpm>0.00</rpm>
</extensions>
</trkpt>
<trkpt lat="30.610382080" lon="34.776985168">
<ele>823.921875</ele>
<time>2013-11-23T07:25:59Z</time>
<speed>0.010000</speed>
<extensions>
<speed>0.0</speed>
<temp>0.00</temp>
<bpm>0</bpm>
<rpm>0.00</rpm>
</extensions>
</trkpt>
<trkpt lat="30.610382080" lon="34.776985168">
<ele>823.921875</ele>
<time>2013-11-23T07:26:04Z</time>
<speed>0.010000</speed>
<extensions>
<speed>0.0</speed>
<temp>0.00</temp>
<bpm>0</bpm>
<rpm>0.00</rpm>
</extensions>
</trkpt>
<trkpt lat="30.610382080" lon="34.776985168">
<ele>823.937500</ele>
<time>2013-11-23T07:26:09Z</time>
<extensions>
<speed>0.0</speed>
<temp>0.00</temp>
<bpm>0</bpm>
<rpm>0.00</rpm>
</extensions>
</trkpt>
<trkpt lat="30.610382080" lon="34.776985168">
<ele>823.937500</ele>
<time>2013-11-23T07:26:14Z</time>
<extensions>
<speed>0.0</speed>
<temp>0.00</temp>
<bpm>0</bpm>
<rpm>0.00</rpm>
</extensions>
</trkpt>
<trkpt lat="30.610380173" lon="34.776985168">
<ele>823.953125</ele>
<time>2013-11-23T07:26:19Z</time>
<extensions>
<speed>0.0</speed>
<temp>0.00</temp>
<bpm>0</bpm>
<rpm>0.00</rpm>
</extensions>
</trkpt>
<trkpt lat="30.610380173" lon="34.776985168">
<ele>823.953125</ele>
<time>2013-11-23T07:26:24Z</time>
<extensions>
<speed>0.0</speed>
<temp>0.00</temp>
<bpm>0</bpm>
<rpm>0.00</rpm>
</extensions>
</trkpt>
<trkpt lat="30.610380173" lon="34.776985168">
<ele>823.953125</ele>
<time>2013-11-23T07:26:29Z</time>
<extensions>
<speed>0.0</speed>
<temp>0.00</temp>
<bpm>0</bpm>
<rpm>0.00</rpm>
</extensions>
</trkpt>
<trkpt lat="30.610380173" lon="34.776985168">
<ele>823.953125</ele>
<time>2013-11-23T07:26:34Z</time>
<speed>0.010000</speed>
<extensions>
<speed>0.0</speed>
<temp>0.00</temp>
<bpm>0</bpm>
<rpm>0.00</rpm>
</extensions>
</trkpt>
<trkpt lat="30.610380173" lon="34.776985168">
<ele>823.953125</ele>
<time>2013-11-23T07:26:39Z</time>
<speed>0.010000</speed>
<extensions>
<speed>0.0</speed>
<temp>0.00</temp>
<bpm>0</bpm>
<rpm>0.00</rpm>
</extensions>
</trkpt>
<trkpt lat="30.610380173" lon="34.776985168">
<ele>823.937500</ele>
<time>2013-11-23T07:26:44Z</time>
<extensions>
<speed>0.0</speed>
<temp>0.00</temp>
<bpm>0</bpm>
<rpm>0.00</rpm>
</extensions>
</trkpt>
<trkpt lat="30.610380173" lon="34.776985168">
<ele>823.937500</ele>
<time>2013-11-23T07:26:49Z</time>
<extensions>
<speed>0.0</speed>
<temp>0.00</temp>
<bpm>0</bpm>
<rpm>0.00</rpm>
</extensions>
</trkpt>
<trkpt lat="30.610380173" lon="34.776988983">
<ele>823.953125</ele>
<time>2013-11-23T07:26:54Z</time>
<extensions>
<speed>0.0</speed>
<temp>0.00</temp>
<bpm>0</bpm>
<rpm>0.00</rpm>
</extensions>
</trkpt>
<trkpt lat="30.610380173" lon="34.776988983">
<ele>823.953125</ele>
<time>2013-11-23T07:26:59Z</time>
<extensions>
<speed>0.0</speed>
<temp>0.00</temp>
<bpm>0</bpm>
<rpm>0.00</rpm>
</extensions>
</trkpt>
<trkpt lat="30.610380173" lon="34.776988983">
<ele>823.953125</ele>
<time>2013-11-23T07:27:04Z</time>
<speed>0.010000</speed>
<extensions>
<speed>0.0</speed>
<temp>0.00</temp>
<bpm>0</bpm>
<rpm>0.00</rpm>
</extensions>
</trkpt>
<trkpt lat="30.610380173" lon="34.776988983">
<ele>823.968750</ele>
<time>2013-11-23T07:27:09Z</time>
<extensions>
<speed>0.0</speed>
<temp>0.00</temp>
<bpm>0</bpm>
<rpm>0.00</rpm>
</extensions>
</trkpt>
<trkpt lat="30.610380173" lon="34.776988983">
<ele>823.968750</ele>
<time>2013-11-23T07:27:14Z</time>
<extensions>
<speed>0.0</speed>
<temp>0.00</temp>
<bpm>0</bpm>
<rpm>0.00</rpm>
</extensions>
</trkpt>
<trkpt lat="30.610380173" lon="34.776988983">
<ele>823.953125</ele>
<time>2013-11-23T07:27:19Z</time>
<speed>0.010000</speed>
<extensions>
<speed>0.0</speed>
<temp>0.00</temp>
<bpm>0</bpm>
<rpm>0.00</rpm>
</extensions>
</trkpt>
<trkpt lat="30.610380173" lon="34.776988983">
<ele>823.953125</ele>
<time>2013-11-23T07:27:24Z</time>
<speed>0.010000</speed>
<extensions>
<speed>0.0</speed>
<temp>0.00</temp>
<bpm>0</bpm>
<rpm>0.00</rpm>
</extensions>
</trkpt>
<trkpt lat="30.610380173" lon="34.776988983">
<ele>823.953125</ele>
<time>2013-11-23T07:27:29Z</time>
<extensions>
<speed>0.0</speed>
<temp>0.00</temp>
<bpm>0</bpm>
<rpm>0.00</rpm>
</extensions>
</trkpt>
<trkpt lat="30.610380173" lon="34.776988983">
<ele>823.953125</ele>
<time>2013-11-23T07:27:34Z</time>
<extensions>
<speed>0.0</speed>
<temp>0.00</temp>
<bpm>0</bpm>
<rpm>0.00</rpm>
</extensions>
</trkpt>
<trkpt lat="30.610380173" lon="34.776988983">
<ele>823.953125</ele>
<time>2013-11-23T07:27:39Z</time>
<extensions>
<speed>0.0</speed>
<temp>0.00</temp>
<bpm>0</bpm>
<rpm>0.00</rpm>
</extensions>
</trkpt>
<trkpt lat="30.610380173" lon="34.776988983">
<ele>823.968750</ele>
<time>2013-11-23T07:27:44Z</time>
<extensions>
<speed>0.0</speed>
<temp>0.00</temp>
<bpm>0</bpm>
<rpm>0.00</rpm>
</extensions>
</trkpt>
<trkpt lat="30.610380173" lon="34.776988983">
<ele>823.984375</ele>
<time>2013-11-23T07:27:49Z</time>
<speed>0.010000</speed>
<extensions>
<speed>0.0</speed>
<temp>0.00</temp>
<bpm>0</bpm>
<rpm>0.00</rpm>
</extensions>
</trkpt>
<trkpt lat="30.610380173" lon="34.776988983">
<ele>823.984375</ele>
<time>2013-11-23T07:27:54Z</time>
<extensions>
<speed>0.0</speed>
<temp>0.00</temp>
<bpm>0</bpm>
<rpm>0.00</rpm>
</extensions>
</trkpt>
<trkpt lat="30.610380173" lon="34.776988983">
<ele>824.000000</ele>
<time>2013-11-23T07:27:59Z</time>
<extensions>
<speed>0.0</speed>
<temp>0.00</temp>
<bpm>0</bpm>
<rpm>0.00</rpm>
</extensions>
</trkpt>
<trkpt lat="30.610380173" lon="34.776988983">
<ele>824.031250</ele>
<time>2013-11-23T07:28:04Z</time>
<speed>0.010000</speed>
<extensions>
<speed>0.0</speed>
<temp>0.00</temp>
<bpm>0</bpm>
<rpm>0.00</rpm>
</extensions>
</trkpt>
<trkpt lat="30.610380173" lon="34.776988983">
<ele>824.031250</ele>
<time>2013-11-23T07:28:09Z</time>
<extensions>
<speed>0.0</speed>
<temp>0.00</temp>
<bpm>0</bpm>
<rpm>0.00</rpm>
</extensions>
</trkpt>
<trkpt lat="30.610380173" lon="34.776988983">
<ele>824.046875</ele>
<time>2013-11-23T07:28:14Z</time>
<extensions>
<speed>0.0</speed>
<temp>0.00</temp>
<bpm>0</bpm>
<rpm>0.00</rpm>
</extensions>
</trkpt>
<trkpt lat="30.610380173" lon="34.776988983">
<ele>824.046875</ele>
<time>2013-11-23T07:28:19Z</time>
<extensions>
<speed>0.0</speed>
<temp>0.00</temp>
<bpm>0</bpm>
<rpm>0.00</rpm>
</extensions>
</trkpt>
<trkpt lat="30.610380173" lon="34.776988983">
<ele>824.046875</ele>
<time>2013-11-23T07:28:24Z</time>
<extensions>
<speed>0.0</speed>
<temp>0.00</temp>
<bpm>0</bpm>
<rpm>0.00</rpm>
</extensions>
</trkpt>
<trkpt lat="30.610378265" lon="34.776988983">
<ele>824.062500</ele>
<time>2013-11-23T07:28:29Z</time>
<speed>0.010000</speed>
<extensions>
<speed>0.0</speed>
<temp>0.00</temp>
<bpm>0</bpm>
<rpm>0.00</rpm>
</extensions>
</trkpt>
<trkpt lat="30.610378265" lon="34.776988983">
<ele>824.062500</ele>
<time>2013-11-23T07:28:34Z</time>
<speed>0.010000</speed>
<extensions>
<speed>0.0</speed>
<temp>0.00</temp>
<bpm>0</bpm>
<rpm>0.00</rpm>
</extensions>
</trkpt>
<trkpt lat="30.610378265" lon="34.776988983">
<ele>824.046875</ele>
<time>2013-11-23T07:28:39Z</time>
<extensions>
<speed>0.0</speed>
<temp>0.00</temp>
<bpm>0</bpm>
<rpm>0.00</rpm>
</extensions>
</trkpt>
<trkpt lat="30.610378265" lon="34.776988983">
<ele>824.046875</ele>
<time>2013-11-23T07:28:44Z</time>
<extensions>
<speed>0.0</speed>
<temp>0.00</temp>
<bpm>0</bpm>
<rpm>0.00</rpm>
</extensions>
</trkpt>
<trkpt lat="30.610378265" lon="34.776988983">
<ele>824.031250</ele>
<time>2013-11-23T07:28:49Z</time>
<speed>0.010000</speed>
<extensions>
<speed>0.0</speed>
<temp>0.00</temp>
<bpm>0</bpm>
<rpm>0.00</rpm>
</extensions>
</trkpt>
<trkpt lat="30.610378265" lon="34.776988983">
<ele>824.031250</ele>
<time>2013-11-23T07:28:54Z</time>
<extensions>
<speed>0.0</speed>
<temp>0.00</temp>
<bpm>0</bpm>
<rpm>0.00</rpm>
</extensions>
</trkpt>
<trkpt lat="30.610378265" lon="34.776988983">
<ele>824.015625</ele>
<time>2013-11-23T07:28:59Z</time>
<extensions>
<speed>0.0</speed>
<temp>0.00</temp>
<bpm>0</bpm>
<rpm>0.00</rpm>
</extensions>
</trkpt>
<trkpt lat="30.610378265" lon="34.776988983">
<ele>824.015625</ele>
<time>2013-11-23T07:29:04Z</time>
<extensions>
<speed>0.0</speed>
<temp>0.00</temp>
<bpm>0</bpm>
<rpm>0.00</rpm>
</extensions>
</trkpt>
<trkpt lat="30.610378265" lon="34.776988983">
<ele>824.000000</ele>
<time>2013-11-23T07:29:09Z</time>
<extensions>
<speed>0.0</speed>
<temp>0.00</temp>
<bpm>0</bpm>
<rpm>0.00</rpm>
</extensions>
</trkpt>
<trkpt lat="30.610378265" lon="34.776988983">
<ele>824.000000</ele>
<time>2013-11-23T07:29:14Z</time>
<extensions>
<speed>0.0</speed>
<temp>0.00</temp>
<bpm>0</bpm>
<rpm>0.00</rpm>
</extensions>
</trkpt>
<trkpt lat="30.610378265" lon="34.776988983">
<ele>823.984375</ele>
<time>2013-11-23T07:29:19Z</time>
<extensions>
<speed>0.0</speed>
<temp>0.00</temp>
<bpm>0</bpm>
<rpm>0.00</rpm>
</extensions>
</trkpt>
<trkpt lat="30.610378265" lon="34.776988983">
<ele>823.984375</ele>
<time>2013-11-23T07:29:24Z</time>
<speed>0.010000</speed>
<extensions>
<speed>0.0</speed>
<temp>0.00</temp>
<bpm>0</bpm>
<rpm>0.00</rpm>
</extensions>
</trkpt>
<trkpt lat="30.610378265" lon="34.776988983">
<ele>823.968750</ele>
<time>2013-11-23T07:29:29Z</time>
<speed>0.010000</speed>
<extensions>
<speed>0.0</speed>
<temp>0.00</temp>
<bpm>0</bpm>
<rpm>0.00</rpm>
</extensions>
</trkpt>
<trkpt lat="30.610378265" lon="34.776988983">
<ele>823.953125</ele>
<time>2013-11-23T07:29:34Z</time>
<speed>0.010000</speed>
<extensions>
<speed>0.0</speed>
<temp>0.00</temp>
<bpm>0</bpm>
<rpm>0.00</rpm>
</extensions>
</trkpt>
<trkpt lat="30.610378265" lon="34.776988983">
<ele>823.937500</ele>
<time>2013-11-23T07:29:39Z</time>
<speed>0.010000</speed>
<extensions>
<speed>0.0</speed>
<temp>0.00</temp>
<bpm>0</bpm>
<rpm>0.00</rpm>
</extensions>
</trkpt>
<trkpt lat="30.610378265" lon="34.776988983">
<ele>823.937500</ele>
<time>2013-11-23T07:29:44Z</time>
<extensions>
<speed>0.0</speed>
<temp>0.00</temp>
<bpm>0</bpm>
<rpm>0.00</rpm>
</extensions>
</trkpt>
<trkpt lat="30.610378265" lon="34.776988983">
<ele>823.921875</ele>
<time>2013-11-23T07:29:49Z</time>
<speed>0.010000</speed>
<extensions>
<speed>0.0</speed>
<temp>0.00</temp>
<bpm>0</bpm>
<rpm>0.00</rpm>
</extensions>
</trkpt>
<trkpt lat="30.610378265" lon="34.776988983">
<ele>823.906250</ele>
<time>2013-11-23T07:29:54Z</time>
<extensions>
<speed>0.0</speed>
<temp>0.00</temp>
<bpm>0</bpm>
<rpm>0.00</rpm>
</extensions>
</trkpt>
<trkpt lat="30.610378265" lon="34.776988983">
<ele>823.906250</ele>
<time>2013-11-23T07:29:59Z</time>
<extensions>
<speed>0.0</speed>
<temp>0.00</temp>
<bpm>0</bpm>
<rpm>0.00</rpm>
</extensions>
</trkpt>
<trkpt lat="30.610378265" lon="34.776988983">
<ele>823.921875</ele>
<time>2013-11-23T07:30:04Z</time>
<extensions>
<speed>0.0</speed>
<temp>0.00</temp>
<bpm>0</bpm>
<rpm>0.00</rpm>
</extensions>
</trkpt>
<trkpt lat="30.610378265" lon="34.776988983">
<ele>823.937500</ele>
<time>2013-11-23T07:30:09Z</time>
<extensions>
<speed>0.0</speed>
<temp>0.00</temp>
<bpm>0</bpm>
<rpm>0.00</rpm>
</extensions>
</trkpt>
<trkpt lat="30.610378265" lon="34.776988983">
<ele>823.937500</ele>
<time>2013-11-23T07:30:14Z</time>
<extensions>
<speed>0.0</speed>
<temp>0.00</temp>
<bpm>0</bpm>
<rpm>0.00</rpm>
</extensions>
</trkpt>
<trkpt lat="30.610378265" lon="34.776988983">
<ele>823.937500</ele>
<time>2013-11-23T07:30:19Z</time>
<extensions>
<speed>0.0</speed>
<temp>0.00</temp>
<bpm>0</bpm>
<rpm>0.00</rpm>
</extensions>
</trkpt>
<trkpt lat="30.610378265" lon="34.776988983">
<ele>823.921875</ele>
<time>2013-11-23T07:30:24Z</time>
<extensions>
<speed>0.0</speed>
<temp>0.00</temp>
<bpm>0</bpm>
<rpm>0.00</rpm>
</extensions>
</trkpt>
<trkpt lat="30.610378265" lon="34.776988983">
<ele>823.921875</ele>
<time>2013-11-23T07:30:29Z</time>
<extensions>
<speed>0.0</speed>
<temp>0.00</temp>
<bpm>0</bpm>
<rpm>0.00</rpm>
</extensions>
</trkpt>
<trkpt lat="30.610378265" lon="34.776988983">
<ele>823.906250</ele>
<time>2013-11-23T07:30:34Z</time>
<extensions>
<speed>0.0</speed>
<temp>0.00</temp>
<bpm>0</bpm>
<rpm>0.00</rpm>
</extensions>
</trkpt>
<trkpt lat="30.610378265" lon="34.776988983">
<ele>823.906250</ele>
<time>2013-11-23T07:30:39Z</time>
<extensions>
<speed>0.0</speed>
<temp>0.00</temp>
<bpm>0</bpm>
<rpm>0.00</rpm>
</extensions>
</trkpt>
<trkpt lat="30.610378265" lon="34.776988983">
<ele>823.890625</ele>
<time>2013-11-23T07:30:44Z</time>
<extensions>
<speed>0.0</speed>
<temp>0.00</temp>
<bpm>0</bpm>
<rpm>0.00</rpm>
</extensions>
</trkpt>
<trkpt lat="30.610378265" lon="34.776988983">
<ele>823.906250</ele>
<time>2013-11-23T07:30:49Z</time>
<speed>0.010000</speed>
<extensions>
<speed>0.0</speed>
<temp>0.00</temp>
<bpm>0</bpm>
<rpm>0.00</rpm>
</extensions>
</trkpt>
<trkpt lat="30.610378265" lon="34.776988983">
<ele>823.921875</ele>
<time>2013-11-23T07:30:54Z</time>
<extensions>
<speed>0.0</speed>
<temp>0.00</temp>
<bpm>0</bpm>
<rpm>0.00</rpm>
</extensions>
</trkpt>
<trkpt lat="30.610378265" lon="34.776988983">
<ele>823.921875</ele>
<time>2013-11-23T07:30:59Z</time>
<extensions>
<speed>0.0</speed>
<temp>0.00</temp>
<bpm>0</bpm>
<rpm>0.00</rpm>
</extensions>
</trkpt>
<trkpt lat="30.610378265" lon="34.776988983">
<ele>823.906250</ele>
<time>2013-11-23T07:31:04Z</time>
<extensions>
<speed>0.0</speed>
<temp>0.00</temp>
<bpm>0</bpm>
<rpm>0.00</rpm>
</extensions>
</trkpt>
<trkpt lat="30.610378265" lon="34.776988983">
<ele>823.906250</ele>
<time>2013-11-23T07:31:09Z</time>
<extensions>
<speed>0.0</speed>
<temp>0.00</temp>
<bpm>0</bpm>
<rpm>0.00</rpm>
</extensions>
</trkpt>
<trkpt lat="30.610378265" lon="34.776988983">
<ele>823.890625</ele>
<time>2013-11-23T07:31:14Z</time>
<speed>0.010000</speed>
<extensions>
<speed>0.0</speed>
<temp>0.00</temp>
<bpm>0</bpm>
<rpm>0.00</rpm>
</extensions>
</trkpt>
<trkpt lat="30.610378265" lon="34.776988983">
<ele>823.890625</ele>
<time>2013-11-23T07:31:19Z</time>
<extensions>
<speed>0.0</speed>
<temp>0.00</temp>
<bpm>0</bpm>
<rpm>0.00</rpm>
</extensions>
</trkpt>
<trkpt lat="30.610378265" lon="34.776988983">
<ele>823.890625</ele>
<time>2013-11-23T07:31:24Z</time>
<speed>0.010000</speed>
<extensions>
<speed>0.0</speed>
<temp>0.00</temp>
<bpm>0</bpm>
<rpm>0.00</rpm>
</extensions>
</trkpt>
<trkpt lat="30.610378265" lon="34.776988983">
<ele>823.890625</ele>
<time>2013-11-23T07:31:29Z</time>
<extensions>
<speed>0.0</speed>
<temp>0.00</temp>
<bpm>0</bpm>
<rpm>0.00</rpm>
</extensions>
</trkpt>
<trkpt lat="30.610378265" lon="34.776988983">
<ele>823.890625</ele>
<time>2013-11-23T07:31:34Z</time>
<extensions>
<speed>0.0</speed>
<temp>0.00</temp>
<bpm>0</bpm>
<rpm>0.00</rpm>
</extensions>
</trkpt>
<trkpt lat="30.610378265" lon="34.776988983">
<ele>823.875000</ele>
<time>2013-11-23T07:31:39Z</time>
<extensions>
<speed>0.0</speed>
<temp>0.00</temp>
<bpm>0</bpm>
<rpm>0.00</rpm>
</extensions>
</trkpt>
<trkpt lat="30.610378265" lon="34.776988983">
<ele>823.875000</ele>
<time>2013-11-23T07:31:44Z</time>
<extensions>
<speed>0.0</speed>
<temp>0.00</temp>
<bpm>0</bpm>
<rpm>0.00</rpm>
</extensions>
</trkpt>
<trkpt lat="30.610378265" lon="34.776988983">
<ele>823.859375</ele>
<time>2013-11-23T07:31:49Z</time>
<extensions>
<speed>0.0</speed>
<temp>0.00</temp>
<bpm>0</bpm>
<rpm>0.00</rpm>
</extensions>
</trkpt>
<trkpt lat="30.610378265" lon="34.776988983">
<ele>823.859375</ele>
<time>2013-11-23T07:31:54Z</time>
<extensions>
<speed>0.0</speed>
<temp>0.00</temp>
<bpm>0</bpm>
<rpm>0.00</rpm>
</extensions>
</trkpt>
<trkpt lat="30.610378265" lon="34.776988983">
<ele>823.859375</ele>
<time>2013-11-23T07:31:59Z</time>
<speed>0.010000</speed>
<extensions>
<speed>0.0</speed>
<temp>0.00</temp>
<bpm>0</bpm>
<rpm>0.00</rpm>
</extensions>
</trkpt>
<trkpt lat="30.610378265" lon="34.776988983">
<ele>823.859375</ele>
<time>2013-11-23T07:32:04Z</time>
<extensions>
<speed>0.0</speed>
<temp>0.00</temp>
<bpm>0</bpm>
<rpm>0.00</rpm>
</extensions>
</trkpt>
<trkpt lat="30.610378265" lon="34.776988983">
<ele>823.859375</ele>
<time>2013-11-23T07:32:09Z</time>
<speed>0.010000</speed>
<extensions>
<speed>0.0</speed>
<temp>0.00</temp>
<bpm>0</bpm>
<rpm>0.00</rpm>
</extensions>
</trkpt>
<trkpt lat="30.610378265" lon="34.776988983">
<ele>823.859375</ele>
<time>2013-11-23T07:32:14Z</time>
<extensions>
<speed>0.0</speed>
<temp>0.00</temp>
<bpm>0</bpm>
<rpm>0.00</rpm>
</extensions>
</trkpt>
<trkpt lat="30.610378265" lon="34.776988983">
<ele>823.859375</ele>
<time>2013-11-23T07:32:19Z</time>
<extensions>
<speed>0.0</speed>
<temp>0.00</temp>
<bpm>0</bpm>
<rpm>0.00</rpm>
</extensions>
</trkpt>
<trkpt lat="30.610378265" lon="34.776988983">
<ele>823.859375</ele>
<time>2013-11-23T07:32:24Z</time>
<extensions>
<speed>0.0</speed>
<temp>0.00</temp>
<bpm>0</bpm>
<rpm>0.00</rpm>
</extensions>
</trkpt>
<trkpt lat="30.610378265" lon="34.776988983">
<ele>823.843750</ele>
<time>2013-11-23T07:32:29Z</time>
<extensions>
<speed>0.0</speed>
<temp>0.00</temp>
<bpm>0</bpm>
<rpm>0.00</rpm>
</extensions>
</trkpt>
<trkpt lat="30.610378265" lon="34.776988983">
<ele>823.843750</ele>
<time>2013-11-23T07:32:34Z</time>
<extensions>
<speed>0.0</speed>
<temp>0.00</temp>
<bpm>0</bpm>
<rpm>0.00</rpm>
</extensions>
</trkpt>
<trkpt lat="30.610378265" lon="34.776988983">
<ele>823.828125</ele>
<time>2013-11-23T07:32:39Z</time>
<speed>0.010000</speed>
<extensions>
<speed>0.0</speed>
<temp>0.00</temp>
<bpm>0</bpm>
<rpm>0.00</rpm>
</extensions>
</trkpt>
<trkpt lat="30.610378265" lon="34.776988983">
<ele>823.828125</ele>
<time>2013-11-23T07:32:44Z</time>
<speed>0.010000</speed>
<extensions>
<speed>0.0</speed>
<temp>0.00</temp>
<bpm>0</bpm>
<rpm>0.00</rpm>
</extensions>
</trkpt>
<trkpt lat="30.610378265" lon="34.776988983">
<ele>823.812500</ele>
<time>2013-11-23T07:32:49Z</time>
<extensions>
<speed>0.0</speed>
<temp>0.00</temp>
<bpm>0</bpm>
<rpm>0.00</rpm>
</extensions>
</trkpt>
<trkpt lat="30.610378265" lon="34.776988983">
<ele>823.796875</ele>
<time>2013-11-23T07:32:54Z</time>
<extensions>
<speed>0.0</speed>
<temp>0.00</temp>
<bpm>0</bpm>
<rpm>0.00</rpm>
</extensions>
</trkpt>
<trkpt lat="30.610378265" lon="34.776988983">
<ele>823.781250</ele>
<time>2013-11-23T07:32:59Z</time>
<extensions>
<speed>0.0</speed>
<temp>0.00</temp>
<bpm>0</bpm>
<rpm>0.00</rpm>
</extensions>
</trkpt>
<trkpt lat="30.610378265" lon="34.776988983">
<ele>823.781250</ele>
<time>2013-11-23T07:33:04Z</time>
<extensions>
<speed>0.0</speed>
<temp>0.00</temp>
<bpm>0</bpm>
<rpm>0.00</rpm>
</extensions>
</trkpt>
<trkpt lat="30.610378265" lon="34.776988983">
<ele>823.765625</ele>
<time>2013-11-23T07:33:09Z</time>
<extensions>
<speed>0.0</speed>
<temp>0.00</temp>
<bpm>0</bpm>
<rpm>0.00</rpm>
</extensions>
</trkpt>
<trkpt lat="30.610378265" lon="34.776988983">
<ele>823.765625</ele>
<time>2013-11-23T07:33:14Z</time>
<extensions>
<speed>0.0</speed>
<temp>0.00</temp>
<bpm>0</bpm>
<rpm>0.00</rpm>
</extensions>
</trkpt>
<trkpt lat="30.610378265" lon="34.776988983">
<ele>823.750000</ele>
<time>2013-11-23T07:33:19Z</time>
<extensions>
<speed>0.0</speed>
<temp>0.00</temp>
<bpm>0</bpm>
<rpm>0.00</rpm>
</extensions>
</trkpt>
<trkpt lat="30.610378265" lon="34.776988983">
<ele>823.734375</ele>
<time>2013-11-23T07:33:24Z</time>
<extensions>
<speed>0.0</speed>
<temp>0.00</temp>
<bpm>0</bpm>
<rpm>0.00</rpm>
</extensions>
</trkpt>
<trkpt lat="30.610378265" lon="34.776988983">
<ele>823.703125</ele>
<time>2013-11-23T07:33:29Z</time>
<extensions>
<speed>0.0</speed>
<temp>0.00</temp>
<bpm>0</bpm>
<rpm>0.00</rpm>
</extensions>
</trkpt>
<trkpt lat="30.610378265" lon="34.776988983">
<ele>823.687500</ele>
<time>2013-11-23T07:33:34Z</time>
<extensions>
<speed>0.0</speed>
<temp>0.00</temp>
<bpm>0</bpm>
<rpm>0.00</rpm>
</extensions>
</trkpt>
<trkpt lat="30.610378265" lon="34.776988983">
<ele>823.671875</ele>
<time>2013-11-23T07:33:39Z</time>
<speed>0.010000</speed>
<extensions>
<speed>0.0</speed>
<temp>0.00</temp>
<bpm>0</bpm>
<rpm>0.00</rpm>
</extensions>
</trkpt>
<trkpt lat="30.610380173" lon="34.776988983">
<ele>823.656250</ele>
<time>2013-11-23T07:33:44Z</time>
<extensions>
<speed>0.0</speed>
<temp>0.00</temp>
<bpm>0</bpm>
<rpm>0.00</rpm>
</extensions>
</trkpt>
<trkpt lat="30.610380173" lon="34.776988983">
<ele>823.656250</ele>
<time>2013-11-23T07:33:49Z</time>
<extensions>
<speed>0.0</speed>
<temp>0.00</temp>
<bpm>0</bpm>
<rpm>0.00</rpm>
</extensions>
</trkpt>
<trkpt lat="30.610380173" lon="34.776988983">
<ele>823.640625</ele>
<time>2013-11-23T07:33:54Z</time>
<speed>0.010000</speed>
<extensions>
<speed>0.0</speed>
<temp>0.00</temp>
<bpm>0</bpm>
<rpm>0.00</rpm>
</extensions>
</trkpt>
<trkpt lat="30.610380173" lon="34.776988983">
<ele>823.625000</ele>
<time>2013-11-23T07:33:59Z</time>
<extensions>
<speed>0.0</speed>
<temp>0.00</temp>
<bpm>0</bpm>
<rpm>0.00</rpm>
</extensions>
</trkpt>
<trkpt lat="30.610380173" lon="34.776988983">
<ele>823.609375</ele>
<time>2013-11-23T07:34:04Z</time>
<extensions>
<speed>0.0</speed>
<temp>0.00</temp>
<bpm>0</bpm>
<rpm>0.00</rpm>
</extensions>
</trkpt>
<trkpt lat="30.610380173" lon="34.776988983">
<ele>823.593750</ele>
<time>2013-11-23T07:34:09Z</time>
<extensions>
<speed>0.0</speed>
<temp>0.00</temp>
<bpm>0</bpm>
<rpm>0.00</rpm>
</extensions>
</trkpt>
<trkpt lat="30.610380173" lon="34.776988983">
<ele>823.593750</ele>
<time>2013-11-23T07:34:14Z</time>
<speed>0.010000</speed>
<extensions>
<speed>0.0</speed>
<temp>0.00</temp>
<bpm>0</bpm>
<rpm>0.00</rpm>
</extensions>
</trkpt>
<trkpt lat="30.610380173" lon="34.776988983">
<ele>823.593750</ele>
<time>2013-11-23T07:34:19Z</time>
<extensions>
<speed>0.0</speed>
<temp>0.00</temp>
<bpm>0</bpm>
<rpm>0.00</rpm>
</extensions>
</trkpt>
<trkpt lat="30.610380173" lon="34.776988983">
<ele>823.593750</ele>
<time>2013-11-23T07:34:24Z</time>
<extensions>
<speed>0.0</speed>
<temp>0.00</temp>
<bpm>0</bpm>
<rpm>0.00</rpm>
</extensions>
</trkpt>
<trkpt lat="30.610380173" lon="34.776988983">
<ele>823.578125</ele>
<time>2013-11-23T07:34:29Z</time>
<extensions>
<speed>0.0</speed>
<temp>0.00</temp>
<bpm>0</bpm>
<rpm>0.00</rpm>
</extensions>
</trkpt>
<trkpt lat="30.610380173" lon="34.776988983">
<ele>823.578125</ele>
<time>2013-11-23T07:34:34Z</time>
<extensions>
<speed>0.0</speed>
<temp>0.00</temp>
<bpm>0</bpm>
<rpm>0.00</rpm>
</extensions>
</trkpt>
<trkpt lat="30.610380173" lon="34.776988983">
<ele>823.578125</ele>
<time>2013-11-23T07:34:39Z</time>
<extensions>
<speed>0.0</speed>
<temp>0.00</temp>
<bpm>0</bpm>
<rpm>0.00</rpm>
</extensions>
</trkpt>
<trkpt lat="30.610380173" lon="34.776988983">
<ele>823.578125</ele>
<time>2013-11-23T07:34:44Z</time>
<extensions>
<speed>0.0</speed>
<temp>0.00</temp>
<bpm>0</bpm>
<rpm>0.00</rpm>
</extensions>
</trkpt>
<trkpt lat="30.610380173" lon="34.776988983">
<ele>823.578125</ele>
<time>2013-11-23T07:34:49Z</time>
<extensions>
<speed>0.0</speed>
<temp>0.00</temp>
<bpm>0</bpm>
<rpm>0.00</rpm>
</extensions>
</trkpt>
<trkpt lat="30.610380173" lon="34.776988983">
<ele>823.562500</ele>
<time>2013-11-23T07:34:54Z</time>
<extensions>
<speed>0.0</speed>
<temp>0.00</temp>
<bpm>0</bpm>
<rpm>0.00</rpm>
</extensions>
</trkpt>
<trkpt lat="30.610380173" lon="34.776988983">
<ele>823.562500</ele>
<time>2013-11-23T07:34:59Z</time>
<extensions>
<speed>0.0</speed>
<temp>0.00</temp>
<bpm>0</bpm>
<rpm>0.00</rpm>
</extensions>
</trkpt>
<trkpt lat="30.610380173" lon="34.776988983">
<ele>823.546875</ele>
<time>2013-11-23T07:35:04Z</time>
<extensions>
<speed>0.0</speed>
<temp>0.00</temp>
<bpm>0</bpm>
<rpm>0.00</rpm>
</extensions>
</trkpt>
<trkpt lat="30.610380173" lon="34.776988983">
<ele>823.546875</ele>
<time>2013-11-23T07:35:09Z</time>
<extensions>
<speed>0.0</speed>
<temp>0.00</temp>
<bpm>0</bpm>
<rpm>0.00</rpm>
</extensions>
</trkpt>
<trkpt lat="30.610380173" lon="34.776988983">
<ele>823.531250</ele>
<time>2013-11-23T07:35:14Z</time>
<speed>0.010000</speed>
<extensions>
<speed>0.0</speed>
<temp>0.00</temp>
<bpm>0</bpm>
<rpm>0.00</rpm>
</extensions>
</trkpt>
<trkpt lat="30.610380173" lon="34.776988983">
<ele>823.531250</ele>
<time>2013-11-23T07:35:19Z</time>
<extensions>
<speed>0.0</speed>
<temp>0.00</temp>
<bpm>0</bpm>
<rpm>0.00</rpm>
</extensions>
</trkpt>
<trkpt lat="30.610380173" lon="34.776988983">
<ele>823.515625</ele>
<time>2013-11-23T07:35:24Z</time>
<extensions>
<speed>0.0</speed>
<temp>0.00</temp>
<bpm>0</bpm>
<rpm>0.00</rpm>
</extensions>
</trkpt>
<trkpt lat="30.610380173" lon="34.776988983">
<ele>823.515625</ele>
<time>2013-11-23T07:35:29Z</time>
<speed>0.010000</speed>
<extensions>
<speed>0.0</speed>
<temp>0.00</temp>
<bpm>0</bpm>
<rpm>0.00</rpm>
</extensions>
</trkpt>
<trkpt lat="30.610380173" lon="34.776988983">
<ele>823.500000</ele>
<time>2013-11-23T07:35:34Z</time>
<extensions>
<speed>0.0</speed>
<temp>0.00</temp>
<bpm>0</bpm>
<rpm>0.00</rpm>
</extensions>
</trkpt>
<trkpt lat="30.610380173" lon="34.776988983">
<ele>823.484375</ele>
<time>2013-11-23T07:35:39Z</time>
<speed>0.010000</speed>
<extensions>
<speed>0.0</speed>
<temp>0.00</temp>
<bpm>0</bpm>
<rpm>0.00</rpm>
</extensions>
</trkpt>
<trkpt lat="30.610380173" lon="34.776988983">
<ele>823.484375</ele>
<time>2013-11-23T07:35:44Z</time>
<extensions>
<speed>0.0</speed>
<temp>0.00</temp>
<bpm>0</bpm>
<rpm>0.00</rpm>
</extensions>
</trkpt>
<trkpt lat="30.610380173" lon="34.776988983">
<ele>823.468750</ele>
<time>2013-11-23T07:35:49Z</time>
<speed>0.010000</speed>
<extensions>
<speed>0.0</speed>
<temp>0.00</temp>
<bpm>0</bpm>
<rpm>0.00</rpm>
</extensions>
</trkpt>
<trkpt lat="30.610380173" lon="34.776988983">
<ele>823.453125</ele>
<time>2013-11-23T07:35:54Z</time>
<extensions>
<speed>0.0</speed>
<temp>0.00</temp>
<bpm>0</bpm>
<rpm>0.00</rpm>
</extensions>
</trkpt>
<trkpt lat="30.610380173" lon="34.776988983">
<ele>823.437500</ele>
<time>2013-11-23T07:35:59Z</time>
<speed>0.010000</speed>
<extensions>
<speed>0.0</speed>
<temp>0.00</temp>
<bpm>0</bpm>
<rpm>0.00</rpm>
</extensions>
</trkpt>
<trkpt lat="30.610380173" lon="34.776988983">
<ele>823.437500</ele>
<time>2013-11-23T07:36:04Z</time>
<extensions>
<speed>0.0</speed>
<temp>0.00</temp>
<bpm>0</bpm>
<rpm>0.00</rpm>
</extensions>
</trkpt>
<trkpt lat="30.610380173" lon="34.776988983">
<ele>823.437500</ele>
<time>2013-11-23T07:36:09Z</time>
<extensions>
<speed>0.0</speed>
<temp>0.00</temp>
<bpm>0</bpm>
<rpm>0.00</rpm>
</extensions>
</trkpt>
<trkpt lat="30.610380173" lon="34.776988983">
<ele>823.421875</ele>
<time>2013-11-23T07:36:14Z</time>
<extensions>
<speed>0.0</speed>
<temp>0.00</temp>
<bpm>0</bpm>
<rpm>0.00</rpm>
</extensions>
</trkpt>
<trkpt lat="30.610380173" lon="34.776985168">
<ele>823.406250</ele>
<time>2013-11-23T07:36:19Z</time>
<speed>0.010000</speed>
<extensions>
<speed>0.0</speed>
<temp>0.00</temp>
<bpm>0</bpm>
<rpm>0.00</rpm>
</extensions>
</trkpt>
<trkpt lat="30.610380173" lon="34.776985168">
<ele>823.390625</ele>
<time>2013-11-23T07:36:24Z</time>
<extensions>
<speed>0.0</speed>
<temp>0.00</temp>
<bpm>0</bpm>
<rpm>0.00</rpm>
</extensions>
</trkpt>
<trkpt lat="30.610380173" lon="34.776985168">
<ele>823.375000</ele>
<time>2013-11-23T07:36:29Z</time>
<extensions>
<speed>0.0</speed>
<temp>0.00</temp>
<bpm>0</bpm>
<rpm>0.00</rpm>
</extensions>
</trkpt>
<trkpt lat="30.610380173" lon="34.776985168">
<ele>823.375000</ele>
<time>2013-11-23T07:36:34Z</time>
<speed>0.010000</speed>
<extensions>
<speed>0.0</speed>
<temp>0.00</temp>
<bpm>0</bpm>
<rpm>0.00</rpm>
</extensions>
</trkpt>
<trkpt lat="30.610380173" lon="34.776985168">
<ele>823.359375</ele>
<time>2013-11-23T07:36:39Z</time>
<extensions>
<speed>0.0</speed>
<temp>0.00</temp>
<bpm>0</bpm>
<rpm>0.00</rpm>
</extensions>
</trkpt>
<trkpt lat="30.610380173" lon="34.776985168">
<ele>823.343750</ele>
<time>2013-11-23T07:36:44Z</time>
<extensions>
<speed>0.0</speed>
<temp>0.00</temp>
<bpm>0</bpm>
<rpm>0.00</rpm>
</extensions>
</trkpt>
<trkpt lat="30.610380173" lon="34.776985168">
<ele>823.328125</ele>
<time>2013-11-23T07:36:49Z</time>
<extensions>
<speed>0.0</speed>
<temp>0.00</temp>
<bpm>0</bpm>
<rpm>0.00</rpm>
</extensions>
</trkpt>
<trkpt lat="30.610380173" lon="34.776985168">
<ele>823.328125</ele>
<time>2013-11-23T07:36:54Z</time>
<extensions>
<speed>0.0</speed>
<temp>0.00</temp>
<bpm>0</bpm>
<rpm>0.00</rpm>
</extensions>
</trkpt>
<trkpt lat="30.610380173" lon="34.776985168">
<ele>823.328125</ele>
<time>2013-11-23T07:36:59Z</time>
<extensions>
<speed>0.0</speed>
<temp>0.00</temp>
<bpm>0</bpm>
<rpm>0.00</rpm>
</extensions>
</trkpt>
<trkpt lat="30.610380173" lon="34.776985168">
<ele>823.312500</ele>
<time>2013-11-23T07:37:04Z</time>
<extensions>
<speed>0.0</speed>
<temp>0.00</temp>
<bpm>0</bpm>
<rpm>0.00</rpm>
</extensions>
</trkpt>
<trkpt lat="30.610380173" lon="34.776985168">
<ele>823.312500</ele>
<time>2013-11-23T07:37:09Z</time>
<extensions>
<speed>0.0</speed>
<temp>0.00</temp>
<bpm>0</bpm>
<rpm>0.00</rpm>
</extensions>
</trkpt>
<trkpt lat="30.610380173" lon="34.776985168">
<ele>823.312500</ele>
<time>2013-11-23T07:37:14Z</time>
<extensions>
<speed>0.0</speed>
<temp>0.00</temp>
<bpm>0</bpm>
<rpm>0.00</rpm>
</extensions>
</trkpt>
<trkpt lat="30.610380173" lon="34.776985168">
<ele>823.312500</ele>
<time>2013-11-23T07:37:19Z</time>
<extensions>
<speed>0.0</speed>
<temp>0.00</temp>
<bpm>0</bpm>
<rpm>0.00</rpm>
</extensions>
</trkpt>
<trkpt lat="30.610380173" lon="34.776985168">
<ele>823.296875</ele>
<time>2013-11-23T07:37:24Z</time>
<extensions>
<speed>0.0</speed>
<temp>0.00</temp>
<bpm>0</bpm>
<rpm>0.00</rpm>
</extensions>
</trkpt>
<trkpt lat="30.610380173" lon="34.776985168">
<ele>823.312500</ele>
<time>2013-11-23T07:37:29Z</time>
<extensions>
<speed>0.0</speed>
<temp>0.00</temp>
<bpm>0</bpm>
<rpm>0.00</rpm>
</extensions>
</trkpt>
<trkpt lat="30.610380173" lon="34.776985168">
<ele>823.312500</ele>
<time>2013-11-23T07:37:34Z</time>
<extensions>
<speed>0.0</speed>
<temp>0.00</temp>
<bpm>0</bpm>
<rpm>0.00</rpm>
</extensions>
</trkpt>
<trkpt lat="30.610380173" lon="34.776985168">
<ele>823.312500</ele>
<time>2013-11-23T07:37:39Z</time>
<extensions>
<speed>0.0</speed>
<temp>0.00</temp>
<bpm>0</bpm>
<rpm>0.00</rpm>
</extensions>
</trkpt>
<trkpt lat="30.610380173" lon="34.776985168">
<ele>823.312500</ele>
<time>2013-11-23T07:37:44Z</time>
<extensions>
<speed>0.0</speed>
<temp>0.00</temp>
<bpm>0</bpm>
<rpm>0.00</rpm>
</extensions>
</trkpt>
<trkpt lat="30.610380173" lon="34.776985168">
<ele>823.328125</ele>
<time>2013-11-23T07:37:49Z</time>
<extensions>
<speed>0.0</speed>
<temp>0.00</temp>
<bpm>0</bpm>
<rpm>0.00</rpm>
</extensions>
</trkpt>
<trkpt lat="30.610380173" lon="34.776985168">
<ele>823.328125</ele>
<time>2013-11-23T07:37:54Z</time>
<extensions>
<speed>0.0</speed>
<temp>0.00</temp>
<bpm>0</bpm>
<rpm>0.00</rpm>
</extensions>
</trkpt>
<trkpt lat="30.610380173" lon="34.776985168">
<ele>823.343750</ele>
<time>2013-11-23T07:37:59Z</time>
<extensions>
<speed>0.0</speed>
<temp>0.00</temp>
<bpm>0</bpm>
<rpm>0.00</rpm>
</extensions>
</trkpt>
<trkpt lat="30.610380173" lon="34.776985168">
<ele>823.343750</ele>
<time>2013-11-23T07:38:04Z</time>
<extensions>
<speed>0.0</speed>
<temp>0.00</temp>
<bpm>0</bpm>
<rpm>0.00</rpm>
</extensions>
</trkpt>
<trkpt lat="30.610380173" lon="34.776985168">
<ele>823.343750</ele>
<time>2013-11-23T07:38:09Z</time>
<extensions>
<speed>0.0</speed>
<temp>0.00</temp>
<bpm>0</bpm>
<rpm>0.00</rpm>
</extensions>
</trkpt>
<trkpt lat="30.610380173" lon="34.776985168">
<ele>823.359375</ele>
<time>2013-11-23T07:38:14Z</time>
<extensions>
<speed>0.0</speed>
<temp>0.00</temp>
<bpm>0</bpm>
<rpm>0.00</rpm>
</extensions>
</trkpt>
<trkpt lat="30.610380173" lon="34.776985168">
<ele>823.375000</ele>
<time>2013-11-23T07:38:19Z</time>
<extensions>
<speed>0.0</speed>
<temp>0.00</temp>
<bpm>0</bpm>
<rpm>0.00</rpm>
</extensions>
</trkpt>
<trkpt lat="30.610380173" lon="34.776985168">
<ele>823.375000</ele>
<time>2013-11-23T07:38:24Z</time>
<extensions>
<speed>0.0</speed>
<temp>0.00</temp>
<bpm>0</bpm>
<rpm>0.00</rpm>
</extensions>
</trkpt>
<trkpt lat="30.610380173" lon="34.776985168">
<ele>823.375000</ele>
<time>2013-11-23T07:38:29Z</time>
<extensions>
<speed>0.0</speed>
<temp>0.00</temp>
<bpm>0</bpm>
<rpm>0.00</rpm>
</extensions>
</trkpt>
<trkpt lat="30.610380173" lon="34.776985168">
<ele>823.375000</ele>
<time>2013-11-23T07:38:34Z</time>
<extensions>
<speed>0.0</speed>
<temp>0.00</temp>
<bpm>0</bpm>
<rpm>0.00</rpm>
</extensions>
</trkpt>
<trkpt lat="30.610380173" lon="34.776985168">
<ele>823.375000</ele>
<time>2013-11-23T07:38:39Z</time>
<extensions>
<speed>0.0</speed>
<temp>0.00</temp>
<bpm>0</bpm>
<rpm>0.00</rpm>
</extensions>
</trkpt>
<trkpt lat="30.610380173" lon="34.776985168">
<ele>823.375000</ele>
<time>2013-11-23T07:38:44Z</time>
<extensions>
<speed>0.0</speed>
<temp>0.00</temp>
<bpm>0</bpm>
<rpm>0.00</rpm>
</extensions>
</trkpt>
<trkpt lat="30.610380173" lon="34.776985168">
<ele>823.375000</ele>
<time>2013-11-23T07:38:49Z</time>
<extensions>
<speed>0.0</speed>
<temp>0.00</temp>
<bpm>0</bpm>
<rpm>0.00</rpm>
</extensions>
</trkpt>
<trkpt lat="30.610380173" lon="34.776985168">
<ele>823.359375</ele>
<time>2013-11-23T07:38:54Z</time>
<extensions>
<speed>0.0</speed>
<temp>0.00</temp>
<bpm>0</bpm>
<rpm>0.00</rpm>
</extensions>
</trkpt>
<trkpt lat="30.610380173" lon="34.776985168">
<ele>823.359375</ele>
<time>2013-11-23T07:38:59Z</time>
<extensions>
<speed>0.0</speed>
<temp>0.00</temp>
<bpm>0</bpm>
<rpm>0.00</rpm>
</extensions>
</trkpt>
<trkpt lat="30.610380173" lon="34.776985168">
<ele>823.375000</ele>
<time>2013-11-23T07:39:04Z</time>
<extensions>
<speed>0.0</speed>
<temp>0.00</temp>
<bpm>0</bpm>
<rpm>0.00</rpm>
</extensions>
</trkpt>
<trkpt lat="30.610378265" lon="34.776985168">
<ele>823.375000</ele>
<time>2013-11-23T07:39:09Z</time>
<extensions>
<speed>0.0</speed>
<temp>0.00</temp>
<bpm>0</bpm>
<rpm>0.00</rpm>
</extensions>
</trkpt>
<trkpt lat="30.610378265" lon="34.776985168">
<ele>823.375000</ele>
<time>2013-11-23T07:39:14Z</time>
<extensions>
<speed>0.0</speed>
<temp>0.00</temp>
<bpm>0</bpm>
<rpm>0.00</rpm>
</extensions>
</trkpt>
<trkpt lat="30.610378265" lon="34.776985168">
<ele>823.375000</ele>
<time>2013-11-23T07:39:19Z</time>
<extensions>
<speed>0.0</speed>
<temp>0.00</temp>
<bpm>0</bpm>
<rpm>0.00</rpm>
</extensions>
</trkpt>
<trkpt lat="30.610378265" lon="34.776985168">
<ele>823.375000</ele>
<time>2013-11-23T07:39:24Z</time>
<extensions>
<speed>0.0</speed>
<temp>0.00</temp>
<bpm>0</bpm>
<rpm>0.00</rpm>
</extensions>
</trkpt>
<trkpt lat="30.610378265" lon="34.776985168">
<ele>823.359375</ele>
<time>2013-11-23T07:39:29Z</time>
<extensions>
<speed>0.0</speed>
<temp>0.00</temp>
<bpm>0</bpm>
<rpm>0.00</rpm>
</extensions>
</trkpt>
<trkpt lat="30.610378265" lon="34.776985168">
<ele>823.359375</ele>
<time>2013-11-23T07:39:34Z</time>
<extensions>
<speed>0.0</speed>
<temp>0.00</temp>
<bpm>0</bpm>
<rpm>0.00</rpm>
</extensions>
</trkpt>
<trkpt lat="30.610378265" lon="34.776985168">
<ele>823.343750</ele>
<time>2013-11-23T07:39:39Z</time>
<extensions>
<speed>0.0</speed>
<temp>0.00</temp>
<bpm>0</bpm>
<rpm>0.00</rpm>
</extensions>
</trkpt>
<trkpt lat="30.610378265" lon="34.776985168">
<ele>823.343750</ele>
<time>2013-11-23T07:39:44Z</time>
<extensions>
<speed>0.0</speed>
<temp>0.00</temp>
<bpm>0</bpm>
<rpm>0.00</rpm>
</extensions>
</trkpt>
<trkpt lat="30.610378265" lon="34.776985168">
<ele>823.328125</ele>
<time>2013-11-23T07:39:49Z</time>
<extensions>
<speed>0.0</speed>
<temp>0.00</temp>
<bpm>0</bpm>
<rpm>0.00</rpm>
</extensions>
</trkpt>
<trkpt lat="30.610378265" lon="34.776985168">
<ele>823.328125</ele>
<time>2013-11-23T07:39:54Z</time>
<extensions>
<speed>0.0</speed>
<temp>0.00</temp>
<bpm>0</bpm>
<rpm>0.00</rpm>
</extensions>
</trkpt>
<trkpt lat="30.610378265" lon="34.776985168">
<ele>823.312500</ele>
<time>2013-11-23T07:39:59Z</time>
<extensions>
<speed>0.0</speed>
<temp>0.00</temp>
<bpm>0</bpm>
<rpm>0.00</rpm>
</extensions>
</trkpt>
<trkpt lat="30.610378265" lon="34.776985168">
<ele>823.312500</ele>
<time>2013-11-23T07:40:04Z</time>
<extensions>
<speed>0.0</speed>
<temp>0.00</temp>
<bpm>0</bpm>
<rpm>0.00</rpm>
</extensions>
</trkpt>
<trkpt lat="30.610378265" lon="34.776985168">
<ele>823.312500</ele>
<time>2013-11-23T07:40:09Z</time>
<extensions>
<speed>0.0</speed>
<temp>0.00</temp>
<bpm>0</bpm>
<rpm>0.00</rpm>
</extensions>
</trkpt>
<trkpt lat="30.610378265" lon="34.776985168">
<ele>823.296875</ele>
<time>2013-11-23T07:40:14Z</time>
<extensions>
<speed>0.0</speed>
<temp>0.00</temp>
<bpm>0</bpm>
<rpm>0.00</rpm>
</extensions>
</trkpt>
<trkpt lat="30.610378265" lon="34.776985168">
<ele>823.296875</ele>
<time>2013-11-23T07:40:19Z</time>
<extensions>
<speed>0.0</speed>
<temp>0.00</temp>
<bpm>0</bpm>
<rpm>0.00</rpm>
</extensions>
</trkpt>
<trkpt lat="30.610378265" lon="34.776985168">
<ele>823.281250</ele>
<time>2013-11-23T07:40:24Z</time>
<extensions>
<speed>0.0</speed>
<temp>0.00</temp>
<bpm>0</bpm>
<rpm>0.00</rpm>
</extensions>
</trkpt>
<trkpt lat="30.610378265" lon="34.776985168">
<ele>823.281250</ele>
<time>2013-11-23T07:40:29Z</time>
<extensions>
<speed>0.0</speed>
<temp>0.00</temp>
<bpm>0</bpm>
<rpm>0.00</rpm>
</extensions>
</trkpt>
<trkpt lat="30.610378265" lon="34.776985168">
<ele>823.281250</ele>
<time>2013-11-23T07:40:34Z</time>
<extensions>
<speed>0.0</speed>
<temp>0.00</temp>
<bpm>0</bpm>
<rpm>0.00</rpm>
</extensions>
</trkpt>
<trkpt lat="30.610378265" lon="34.776985168">
<ele>823.265625</ele>
<time>2013-11-23T07:40:39Z</time>
<extensions>
<speed>0.0</speed>
<temp>0.00</temp>
<bpm>0</bpm>
<rpm>0.00</rpm>
</extensions>
</trkpt>
<trkpt lat="30.610378265" lon="34.776985168">
<ele>823.265625</ele>
<time>2013-11-23T07:40:44Z</time>
<extensions>
<speed>0.0</speed>
<temp>0.00</temp>
<bpm>0</bpm>
<rpm>0.00</rpm>
</extensions>
</trkpt>
<trkpt lat="30.610378265" lon="34.776985168">
<ele>823.265625</ele>
<time>2013-11-23T07:40:49Z</time>
<extensions>
<speed>0.0</speed>
<temp>0.00</temp>
<bpm>0</bpm>
<rpm>0.00</rpm>
</extensions>
</trkpt>
<trkpt lat="30.610376358" lon="34.776985168">
<ele>823.265625</ele>
<time>2013-11-23T07:40:54Z</time>
<extensions>
<speed>0.0</speed>
<temp>0.00</temp>
<bpm>0</bpm>
<rpm>0.00</rpm>
</extensions>
</trkpt>
<trkpt lat="30.610376358" lon="34.776985168">
<ele>823.250000</ele>
<time>2013-11-23T07:40:59Z</time>
<extensions>
<speed>0.0</speed>
<temp>0.00</temp>
<bpm>0</bpm>
<rpm>0.00</rpm>
</extensions>
</trkpt>
<trkpt lat="30.610376358" lon="34.776985168">
<ele>823.234375</ele>
<time>2013-11-23T07:41:04Z</time>
<extensions>
<speed>0.0</speed>
<temp>0.00</temp>
<bpm>0</bpm>
<rpm>0.00</rpm>
</extensions>
</trkpt>
<trkpt lat="30.610376358" lon="34.776985168">
<ele>823.234375</ele>
<time>2013-11-23T07:41:09Z</time>
<extensions>
<speed>0.0</speed>
<temp>0.00</temp>
<bpm>0</bpm>
<rpm>0.00</rpm>
</extensions>
</trkpt>
<trkpt lat="30.610376358" lon="34.776985168">
<ele>823.234375</ele>
<time>2013-11-23T07:41:14Z</time>
<extensions>
<speed>0.0</speed>
<temp>0.00</temp>
<bpm>0</bpm>
<rpm>0.00</rpm>
</extensions>
</trkpt>
<trkpt lat="30.610376358" lon="34.776985168">
<ele>823.218750</ele>
<time>2013-11-23T07:41:19Z</time>
<extensions>
<speed>0.0</speed>
<temp>0.00</temp>
<bpm>0</bpm>
<rpm>0.00</rpm>
</extensions>
</trkpt>
<trkpt lat="30.610376358" lon="34.776985168">
<ele>823.218750</ele>
<time>2013-11-23T07:41:24Z</time>
<extensions>
<speed>0.0</speed>
<temp>0.00</temp>
<bpm>0</bpm>
<rpm>0.00</rpm>
</extensions>
</trkpt>
<trkpt lat="30.610376358" lon="34.776985168">
<ele>823.203125</ele>
<time>2013-11-23T07:41:29Z</time>
<extensions>
<speed>0.0</speed>
<temp>0.00</temp>
<bpm>0</bpm>
<rpm>0.00</rpm>
</extensions>
</trkpt>
<trkpt lat="30.610376358" lon="34.776985168">
<ele>823.187500</ele>
<time>2013-11-23T07:41:34Z</time>
<speed>0.010000</speed>
<extensions>
<speed>0.0</speed>
<temp>0.00</temp>
<bpm>0</bpm>
<rpm>0.00</rpm>
</extensions>
</trkpt>
<trkpt lat="30.610376358" lon="34.776985168">
<ele>823.187500</ele>
<time>2013-11-23T07:41:39Z</time>
<extensions>
<speed>0.0</speed>
<temp>0.00</temp>
<bpm>0</bpm>
<rpm>0.00</rpm>
</extensions>
</trkpt>
<trkpt lat="30.610376358" lon="34.776985168">
<ele>823.171875</ele>
<time>2013-11-23T07:41:44Z</time>
<extensions>
<speed>0.0</speed>
<temp>0.00</temp>
<bpm>0</bpm>
<rpm>0.00</rpm>
</extensions>
</trkpt>
<trkpt lat="30.610376358" lon="34.776985168">
<ele>823.156250</ele>
<time>2013-11-23T07:41:49Z</time>
<extensions>
<speed>0.0</speed>
<temp>0.00</temp>
<bpm>0</bpm>
<rpm>0.00</rpm>
</extensions>
</trkpt>
<trkpt lat="30.610376358" lon="34.776985168">
<ele>823.140625</ele>
<time>2013-11-23T07:41:54Z</time>
<extensions>
<speed>0.0</speed>
<temp>0.00</temp>
<bpm>0</bpm>
<rpm>0.00</rpm>
</extensions>
</trkpt>
<trkpt lat="30.610376358" lon="34.776985168">
<ele>823.125000</ele>
<time>2013-11-23T07:41:59Z</time>
<extensions>
<speed>0.0</speed>
<temp>0.00</temp>
<bpm>0</bpm>
<rpm>0.00</rpm>
</extensions>
</trkpt>
<trkpt lat="30.610376358" lon="34.776985168">
<ele>823.109375</ele>
<time>2013-11-23T07:42:04Z</time>
<extensions>
<speed>0.0</speed>
<temp>0.00</temp>
<bpm>0</bpm>
<rpm>0.00</rpm>
</extensions>
</trkpt>
<trkpt lat="30.610376358" lon="34.776985168">
<ele>823.093750</ele>
<time>2013-11-23T07:42:09Z</time>
<extensions>
<speed>0.0</speed>
<temp>0.00</temp>
<bpm>0</bpm>
<rpm>0.00</rpm>
</extensions>
</trkpt>
<trkpt lat="30.610376358" lon="34.776985168">
<ele>823.093750</ele>
<time>2013-11-23T07:42:14Z</time>
<extensions>
<speed>0.0</speed>
<temp>0.00</temp>
<bpm>0</bpm>
<rpm>0.00</rpm>
</extensions>
</trkpt>
<trkpt lat="30.610376358" lon="34.776985168">
<ele>823.093750</ele>
<time>2013-11-23T07:42:19Z</time>
<extensions>
<speed>0.0</speed>
<temp>0.00</temp>
<bpm>0</bpm>
<rpm>0.00</rpm>
</extensions>
</trkpt>
<trkpt lat="30.610376358" lon="34.776985168">
<ele>823.093750</ele>
<time>2013-11-23T07:42:24Z</time>
<extensions>
<speed>0.0</speed>
<temp>0.00</temp>
<bpm>0</bpm>
<rpm>0.00</rpm>
</extensions>
</trkpt>
<trkpt lat="30.610376358" lon="34.776985168">
<ele>823.093750</ele>
<time>2013-11-23T07:42:29Z</time>
<extensions>
<speed>0.0</speed>
<temp>0.00</temp>
<bpm>0</bpm>
<rpm>0.00</rpm>
</extensions>
</trkpt>
<trkpt lat="30.610376358" lon="34.776985168">
<ele>823.078125</ele>
<time>2013-11-23T07:42:34Z</time>
<extensions>
<speed>0.0</speed>
<temp>0.00</temp>
<bpm>0</bpm>
<rpm>0.00</rpm>
</extensions>
</trkpt>
<trkpt lat="30.610376358" lon="34.776985168">
<ele>823.078125</ele>
<time>2013-11-23T07:42:39Z</time>
<extensions>
<speed>0.0</speed>
<temp>0.00</temp>
<bpm>0</bpm>
<rpm>0.00</rpm>
</extensions>
</trkpt>
<trkpt lat="30.610376358" lon="34.776981354">
<ele>823.078125</ele>
<time>2013-11-23T07:42:44Z</time>
<extensions>
<speed>0.0</speed>
<temp>0.00</temp>
<bpm>0</bpm>
<rpm>0.00</rpm>
</extensions>
</trkpt>
<trkpt lat="30.610376358" lon="34.776981354">
<ele>823.062500</ele>
<time>2013-11-23T07:42:49Z</time>
<extensions>
<speed>0.0</speed>
<temp>0.00</temp>
<bpm>0</bpm>
<rpm>0.00</rpm>
</extensions>
</trkpt>
<trkpt lat="30.610376358" lon="34.776981354">
<ele>823.062500</ele>
<time>2013-11-23T07:42:54Z</time>
<extensions>
<speed>0.0</speed>
<temp>0.00</temp>
<bpm>0</bpm>
<rpm>0.00</rpm>
</extensions>
</trkpt>
<trkpt lat="30.610376358" lon="34.776981354">
<ele>823.046875</ele>
<time>2013-11-23T07:42:59Z</time>
<extensions>
<speed>0.0</speed>
<temp>0.00</temp>
<bpm>0</bpm>
<rpm>0.00</rpm>
</extensions>
</trkpt>
<trkpt lat="30.610376358" lon="34.776981354">
<ele>823.046875</ele>
<time>2013-11-23T07:43:04Z</time>
<extensions>
<speed>0.0</speed>
<temp>0.00</temp>
<bpm>0</bpm>
<rpm>0.00</rpm>
</extensions>
</trkpt>
<trkpt lat="30.610376358" lon="34.776981354">
<ele>823.031250</ele>
<time>2013-11-23T07:43:09Z</time>
<extensions>
<speed>0.0</speed>
<temp>0.00</temp>
<bpm>0</bpm>
<rpm>0.00</rpm>
</extensions>
</trkpt>
<trkpt lat="30.610376358" lon="34.776981354">
<ele>823.031250</ele>
<time>2013-11-23T07:43:14Z</time>
<extensions>
<speed>0.0</speed>
<temp>0.00</temp>
<bpm>0</bpm>
<rpm>0.00</rpm>
</extensions>
</trkpt>
<trkpt lat="30.610376358" lon="34.776981354">
<ele>823.031250</ele>
<time>2013-11-23T07:43:19Z</time>
<extensions>
<speed>0.0</speed>
<temp>0.00</temp>
<bpm>0</bpm>
<rpm>0.00</rpm>
</extensions>
</trkpt>
<trkpt lat="30.610376358" lon="34.776981354">
<ele>823.031250</ele>
<time>2013-11-23T07:43:24Z</time>
<extensions>
<speed>0.0</speed>
<temp>0.00</temp>
<bpm>0</bpm>
<rpm>0.00</rpm>
</extensions>
</trkpt>
<trkpt lat="30.610376358" lon="34.776985168">
<ele>823.031250</ele>
<time>2013-11-23T07:43:29Z</time>
<extensions>
<speed>0.0</speed>
<temp>0.00</temp>
<bpm>0</bpm>
<rpm>0.00</rpm>
</extensions>
</trkpt>
<trkpt lat="30.610374451" lon="34.776985168">
<ele>823.046875</ele>
<time>2013-11-23T07:43:34Z</time>
<extensions>
<speed>0.0</speed>
<temp>0.00</temp>
<bpm>0</bpm>
<rpm>0.00</rpm>
</extensions>
</trkpt>
<trkpt lat="30.610374451" lon="34.776985168">
<ele>823.046875</ele>
<time>2013-11-23T07:43:39Z</time>
<extensions>
<speed>0.0</speed>
<temp>0.00</temp>
<bpm>0</bpm>
<rpm>0.00</rpm>
</extensions>
</trkpt>
<trkpt lat="30.610374451" lon="34.776985168">
<ele>823.062500</ele>
<time>2013-11-23T07:43:44Z</time>
<extensions>
<speed>0.0</speed>
<temp>0.00</temp>
<bpm>0</bpm>
<rpm>0.00</rpm>
</extensions>
</trkpt>
<trkpt lat="30.610374451" lon="34.776985168">
<ele>823.062500</ele>
<time>2013-11-23T07:43:49Z</time>
<extensions>
<speed>0.0</speed>
<temp>0.00</temp>
<bpm>0</bpm>
<rpm>0.00</rpm>
</extensions>
</trkpt>
<trkpt lat="30.610374451" lon="34.776985168">
<ele>823.046875</ele>
<time>2013-11-23T07:43:54Z</time>
<extensions>
<speed>0.0</speed>
<temp>0.00</temp>
<bpm>0</bpm>
<rpm>0.00</rpm>
</extensions>
</trkpt>
<trkpt lat="30.610374451" lon="34.776985168">
<ele>823.046875</ele>
<time>2013-11-23T07:43:59Z</time>
<extensions>
<speed>0.0</speed>
<temp>0.00</temp>
<bpm>0</bpm>
<rpm>0.00</rpm>
</extensions>
</trkpt>
<trkpt lat="30.610374451" lon="34.776985168">
<ele>823.062500</ele>
<time>2013-11-23T07:44:04Z</time>
<extensions>
<speed>0.0</speed>
<temp>0.00</temp>
<bpm>0</bpm>
<rpm>0.00</rpm>
</extensions>
</trkpt>
<trkpt lat="30.610374451" lon="34.776985168">
<ele>823.046875</ele>
<time>2013-11-23T07:44:09Z</time>
<extensions>
<speed>0.0</speed>
<temp>0.00</temp>
<bpm>0</bpm>
<rpm>0.00</rpm>
</extensions>
</trkpt>
<trkpt lat="30.610374451" lon="34.776985168">
<ele>823.046875</ele>
<time>2013-11-23T07:44:14Z</time>
<extensions>
<speed>0.0</speed>
<temp>0.00</temp>
<bpm>0</bpm>
<rpm>0.00</rpm>
</extensions>
</trkpt>
<trkpt lat="30.610374451" lon="34.776985168">
<ele>823.046875</ele>
<time>2013-11-23T07:44:19Z</time>
<extensions>
<speed>0.0</speed>
<temp>0.00</temp>
<bpm>0</bpm>
<rpm>0.00</rpm>
</extensions>
</trkpt>
<trkpt lat="30.610374451" lon="34.776985168">
<ele>823.046875</ele>
<time>2013-11-23T07:44:24Z</time>
<extensions>
<speed>0.0</speed>
<temp>0.00</temp>
<bpm>0</bpm>
<rpm>0.00</rpm>
</extensions>
</trkpt>
<trkpt lat="30.610372543" lon="34.776985168">
<ele>823.046875</ele>
<time>2013-11-23T07:44:29Z</time>
<extensions>
<speed>0.0</speed>
<temp>0.00</temp>
<bpm>0</bpm>
<rpm>0.00</rpm>
</extensions>
</trkpt>
<trkpt lat="30.610372543" lon="34.776985168">
<ele>823.046875</ele>
<time>2013-11-23T07:44:34Z</time>
<extensions>
<speed>0.0</speed>
<temp>0.00</temp>
<bpm>0</bpm>
<rpm>0.00</rpm>
</extensions>
</trkpt>
<trkpt lat="30.610372543" lon="34.776985168">
<ele>823.046875</ele>
<time>2013-11-23T07:44:39Z</time>
<extensions>
<speed>0.0</speed>
<temp>0.00</temp>
<bpm>0</bpm>
<rpm>0.00</rpm>
</extensions>
</trkpt>
<trkpt lat="30.610372543" lon="34.776985168">
<ele>823.031250</ele>
<time>2013-11-23T07:44:44Z</time>
<extensions>
<speed>0.0</speed>
<temp>0.00</temp>
<bpm>0</bpm>
<rpm>0.00</rpm>
</extensions>
</trkpt>
<trkpt lat="30.610372543" lon="34.776985168">
<ele>823.031250</ele>
<time>2013-11-23T07:44:49Z</time>
<extensions>
<speed>0.0</speed>
<temp>0.00</temp>
<bpm>0</bpm>
<rpm>0.00</rpm>
</extensions>
</trkpt>
<trkpt lat="30.610372543" lon="34.776985168">
<ele>823.031250</ele>
<time>2013-11-23T07:44:54Z</time>
<extensions>
<speed>0.0</speed>
<temp>0.00</temp>
<bpm>0</bpm>
<rpm>0.00</rpm>
</extensions>
</trkpt>
<trkpt lat="30.610372543" lon="34.776985168">
<ele>823.031250</ele>
<time>2013-11-23T07:44:59Z</time>
<extensions>
<speed>0.0</speed>
<temp>0.00</temp>
<bpm>0</bpm>
<rpm>0.00</rpm>
</extensions>
</trkpt>
<trkpt lat="30.610372543" lon="34.776985168">
<ele>823.031250</ele>
<time>2013-11-23T07:45:04Z</time>
<extensions>
<speed>0.0</speed>
<temp>0.00</temp>
<bpm>0</bpm>
<rpm>0.00</rpm>
</extensions>
</trkpt>
<trkpt lat="30.610372543" lon="34.776985168">
<ele>823.031250</ele>
<time>2013-11-23T07:45:09Z</time>
<extensions>
<speed>0.0</speed>
<temp>0.00</temp>
<bpm>0</bpm>
<rpm>0.00</rpm>
</extensions>
</trkpt>
<trkpt lat="30.610372543" lon="34.776985168">
<ele>823.031250</ele>
<time>2013-11-23T07:45:14Z</time>
<extensions>
<speed>0.0</speed>
<temp>0.00</temp>
<bpm>0</bpm>
<rpm>0.00</rpm>
</extensions>
</trkpt>
<trkpt lat="30.610372543" lon="34.776985168">
<ele>823.031250</ele>
<time>2013-11-23T07:45:19Z</time>
<extensions>
<speed>0.0</speed>
<temp>0.00</temp>
<bpm>0</bpm>
<rpm>0.00</rpm>
</extensions>
</trkpt>
<trkpt lat="30.610372543" lon="34.776985168">
<ele>823.031250</ele>
<time>2013-11-23T07:45:24Z</time>
<extensions>
<speed>0.0</speed>
<temp>0.00</temp>
<bpm>0</bpm>
<rpm>0.00</rpm>
</extensions>
</trkpt>
<trkpt lat="30.610370636" lon="34.776985168">
<ele>823.046875</ele>
<time>2013-11-23T07:45:29Z</time>
<extensions>
<speed>0.0</speed>
<temp>0.00</temp>
<bpm>0</bpm>
<rpm>0.00</rpm>
</extensions>
</trkpt>
<trkpt lat="30.610370636" lon="34.776985168">
<ele>823.046875</ele>
<time>2013-11-23T07:45:34Z</time>
<extensions>
<speed>0.0</speed>
<temp>0.00</temp>
<bpm>0</bpm>
<rpm>0.00</rpm>
</extensions>
</trkpt>
<trkpt lat="30.610370636" lon="34.776985168">
<ele>823.062500</ele>
<time>2013-11-23T07:45:39Z</time>
<extensions>
<speed>0.0</speed>
<temp>0.00</temp>
<bpm>0</bpm>
<rpm>0.00</rpm>
</extensions>
</trkpt>
<trkpt lat="30.610370636" lon="34.776985168">
<ele>823.078125</ele>
<time>2013-11-23T07:45:44Z</time>
<extensions>
<speed>0.0</speed>
<temp>0.00</temp>
<bpm>0</bpm>
<rpm>0.00</rpm>
</extensions>
</trkpt>
<trkpt lat="30.610370636" lon="34.776985168">
<ele>823.078125</ele>
<time>2013-11-23T07:45:49Z</time>
<extensions>
<speed>0.0</speed>
<temp>0.00</temp>
<bpm>0</bpm>
<rpm>0.00</rpm>
</extensions>
</trkpt>
<trkpt lat="30.610370636" lon="34.776985168">
<ele>823.093750</ele>
<time>2013-11-23T07:45:54Z</time>
<extensions>
<speed>0.0</speed>
<temp>0.00</temp>
<bpm>0</bpm>
<rpm>0.00</rpm>
</extensions>
</trkpt>
<trkpt lat="30.610370636" lon="34.776985168">
<ele>823.109375</ele>
<time>2013-11-23T07:45:59Z</time>
<extensions>
<speed>0.0</speed>
<temp>0.00</temp>
<bpm>0</bpm>
<rpm>0.00</rpm>
</extensions>
</trkpt>
<trkpt lat="30.610370636" lon="34.776985168">
<ele>823.125000</ele>
<time>2013-11-23T07:46:04Z</time>
<extensions>
<speed>0.0</speed>
<temp>0.00</temp>
<bpm>0</bpm>
<rpm>0.00</rpm>
</extensions>
</trkpt>
<trkpt lat="30.610370636" lon="34.776985168">
<ele>823.125000</ele>
<time>2013-11-23T07:46:09Z</time>
<extensions>
<speed>0.0</speed>
<temp>0.00</temp>
<bpm>0</bpm>
<rpm>0.00</rpm>
</extensions>
</trkpt>
<trkpt lat="30.610370636" lon="34.776985168">
<ele>823.125000</ele>
<time>2013-11-23T07:46:14Z</time>
<extensions>
<speed>0.0</speed>
<temp>0.00</temp>
<bpm>0</bpm>
<rpm>0.00</rpm>
</extensions>
</trkpt>
<trkpt lat="30.610370636" lon="34.776985168">
<ele>823.140625</ele>
<time>2013-11-23T07:46:19Z</time>
<extensions>
<speed>0.0</speed>
<temp>0.00</temp>
<bpm>0</bpm>
<rpm>0.00</rpm>
</extensions>
</trkpt>
<trkpt lat="30.610370636" lon="34.776985168">
<ele>823.156250</ele>
<time>2013-11-23T07:46:24Z</time>
<extensions>
<speed>0.0</speed>
<temp>0.00</temp>
<bpm>0</bpm>
<rpm>0.00</rpm>
</extensions>
</trkpt>
<trkpt lat="30.610370636" lon="34.776985168">
<ele>823.156250</ele>
<time>2013-11-23T07:46:29Z</time>
<extensions>
<speed>0.0</speed>
<temp>0.00</temp>
<bpm>0</bpm>
<rpm>0.00</rpm>
</extensions>
</trkpt>
<trkpt lat="30.610370636" lon="34.776985168">
<ele>823.171875</ele>
<time>2013-11-23T07:46:34Z</time>
<extensions>
<speed>0.0</speed>
<temp>0.00</temp>
<bpm>0</bpm>
<rpm>0.00</rpm>
</extensions>
</trkpt>
<trkpt lat="30.610370636" lon="34.776985168">
<ele>823.171875</ele>
<time>2013-11-23T07:46:39Z</time>
<extensions>
<speed>0.0</speed>
<temp>0.00</temp>
<bpm>0</bpm>
<rpm>0.00</rpm>
</extensions>
</trkpt>
<trkpt lat="30.610370636" lon="34.776985168">
<ele>823.187500</ele>
<time>2013-11-23T07:46:44Z</time>
<extensions>
<speed>0.0</speed>
<temp>0.00</temp>
<bpm>0</bpm>
<rpm>0.00</rpm>
</extensions>
</trkpt>
<trkpt lat="30.610370636" lon="34.776985168">
<ele>823.187500</ele>
<time>2013-11-23T07:46:49Z</time>
<extensions>
<speed>0.0</speed>
<temp>0.00</temp>
<bpm>0</bpm>
<rpm>0.00</rpm>
</extensions>
</trkpt>
<trkpt lat="30.610370636" lon="34.776985168">
<ele>823.187500</ele>
<time>2013-11-23T07:46:54Z</time>
<extensions>
<speed>0.0</speed>
<temp>0.00</temp>
<bpm>0</bpm>
<rpm>0.00</rpm>
</extensions>
</trkpt>
<trkpt lat="30.610370636" lon="34.776985168">
<ele>823.187500</ele>
<time>2013-11-23T07:46:59Z</time>
<extensions>
<speed>0.0</speed>
<temp>0.00</temp>
<bpm>0</bpm>
<rpm>0.00</rpm>
</extensions>
</trkpt>
<trkpt lat="30.610370636" lon="34.776985168">
<ele>823.187500</ele>
<time>2013-11-23T07:47:04Z</time>
<extensions>
<speed>0.0</speed>
<temp>0.00</temp>
<bpm>0</bpm>
<rpm>0.00</rpm>
</extensions>
</trkpt>
<trkpt lat="30.610370636" lon="34.776985168">
<ele>823.171875</ele>
<time>2013-11-23T07:47:09Z</time>
<extensions>
<speed>0.0</speed>
<temp>0.00</temp>
<bpm>0</bpm>
<rpm>0.00</rpm>
</extensions>
</trkpt>
<trkpt lat="30.610370636" lon="34.776985168">
<ele>823.171875</ele>
<time>2013-11-23T07:47:14Z</time>
<extensions>
<speed>0.0</speed>
<temp>0.00</temp>
<bpm>0</bpm>
<rpm>0.00</rpm>
</extensions>
</trkpt>
<trkpt lat="30.610370636" lon="34.776985168">
<ele>823.171875</ele>
<time>2013-11-23T07:47:19Z</time>
<extensions>
<speed>0.0</speed>
<temp>0.00</temp>
<bpm>0</bpm>
<rpm>0.00</rpm>
</extensions>
</trkpt>
<trkpt lat="30.610370636" lon="34.776985168">
<ele>823.171875</ele>
<time>2013-11-23T07:47:24Z</time>
<extensions>
<speed>0.0</speed>
<temp>0.00</temp>
<bpm>0</bpm>
<rpm>0.00</rpm>
</extensions>
</trkpt>
<trkpt lat="30.610370636" lon="34.776985168">
<ele>823.156250</ele>
<time>2013-11-23T07:47:29Z</time>
<extensions>
<speed>0.0</speed>
<temp>0.00</temp>
<bpm>0</bpm>
<rpm>0.00</rpm>
</extensions>
</trkpt>
<trkpt lat="30.610370636" lon="34.776985168">
<ele>823.156250</ele>
<time>2013-11-23T07:47:34Z</time>
<extensions>
<speed>0.0</speed>
<temp>0.00</temp>
<bpm>0</bpm>
<rpm>0.00</rpm>
</extensions>
</trkpt>
<trkpt lat="30.610368729" lon="34.776985168">
<ele>823.140625</ele>
<time>2013-11-23T07:47:39Z</time>
<speed>0.010000</speed>
<extensions>
<speed>0.0</speed>
<temp>0.00</temp>
<bpm>0</bpm>
<rpm>0.00</rpm>
</extensions>
</trkpt>
<trkpt lat="30.610368729" lon="34.776985168">
<ele>823.140625</ele>
<time>2013-11-23T07:47:44Z</time>
<speed>0.010000</speed>
<extensions>
<speed>0.0</speed>
<temp>0.00</temp>
<bpm>0</bpm>
<rpm>0.00</rpm>
</extensions>
</trkpt>
<trkpt lat="30.610368729" lon="34.776985168">
<ele>823.140625</ele>
<time>2013-11-23T07:47:49Z</time>
<extensions>
<speed>0.0</speed>
<temp>0.00</temp>
<bpm>0</bpm>
<rpm>0.00</rpm>
</extensions>
</trkpt>
<trkpt lat="30.610368729" lon="34.776985168">
<ele>823.140625</ele>
<time>2013-11-23T07:47:54Z</time>
<speed>0.010000</speed>
<extensions>
<speed>0.0</speed>
<temp>0.00</temp>
<bpm>0</bpm>
<rpm>0.00</rpm>
</extensions>
</trkpt>
<trkpt lat="30.610368729" lon="34.776985168">
<ele>823.140625</ele>
<time>2013-11-23T07:47:59Z</time>
<extensions>
<speed>0.0</speed>
<temp>0.00</temp>
<bpm>0</bpm>
<rpm>0.00</rpm>
</extensions>
</trkpt>
<trkpt lat="30.610368729" lon="34.776985168">
<ele>823.140625</ele>
<time>2013-11-23T07:48:04Z</time>
<extensions>
<speed>0.0</speed>
<temp>0.00</temp>
<bpm>0</bpm>
<rpm>0.00</rpm>
</extensions>
</trkpt>
<trkpt lat="30.610368729" lon="34.776985168">
<ele>823.125000</ele>
<time>2013-11-23T07:48:09Z</time>
<extensions>
<speed>0.0</speed>
<temp>0.00</temp>
<bpm>0</bpm>
<rpm>0.00</rpm>
</extensions>
</trkpt>
<trkpt lat="30.610368729" lon="34.776985168">
<ele>823.109375</ele>
<time>2013-11-23T07:48:14Z</time>
<extensions>
<speed>0.0</speed>
<temp>0.00</temp>
<bpm>0</bpm>
<rpm>0.00</rpm>
</extensions>
</trkpt>
<trkpt lat="30.610368729" lon="34.776985168">
<ele>823.109375</ele>
<time>2013-11-23T07:48:19Z</time>
<extensions>
<speed>0.0</speed>
<temp>0.00</temp>
<bpm>0</bpm>
<rpm>0.00</rpm>
</extensions>
</trkpt>
<trkpt lat="30.610368729" lon="34.776985168">
<ele>823.109375</ele>
<time>2013-11-23T07:48:24Z</time>
<extensions>
<speed>0.0</speed>
<temp>0.00</temp>
<bpm>0</bpm>
<rpm>0.00</rpm>
</extensions>
</trkpt>
<trkpt lat="30.610368729" lon="34.776985168">
<ele>823.093750</ele>
<time>2013-11-23T07:48:29Z</time>
<extensions>
<speed>0.0</speed>
<temp>0.00</temp>
<bpm>0</bpm>
<rpm>0.00</rpm>
</extensions>
</trkpt>
<trkpt lat="30.610368729" lon="34.776985168">
<ele>823.093750</ele>
<time>2013-11-23T07:48:34Z</time>
<extensions>
<speed>0.0</speed>
<temp>0.00</temp>
<bpm>0</bpm>
<rpm>0.00</rpm>
</extensions>
</trkpt>
<trkpt lat="30.610368729" lon="34.776985168">
<ele>823.078125</ele>
<time>2013-11-23T07:48:39Z</time>
<extensions>
<speed>0.0</speed>
<temp>0.00</temp>
<bpm>0</bpm>
<rpm>0.00</rpm>
</extensions>
</trkpt>
<trkpt lat="30.610368729" lon="34.776985168">
<ele>823.078125</ele>
<time>2013-11-23T07:48:44Z</time>
<extensions>
<speed>0.0</speed>
<temp>0.00</temp>
<bpm>0</bpm>
<rpm>0.00</rpm>
</extensions>
</trkpt>
<trkpt lat="30.610368729" lon="34.776985168">
<ele>823.062500</ele>
<time>2013-11-23T07:48:49Z</time>
<extensions>
<speed>0.0</speed>
<temp>0.00</temp>
<bpm>0</bpm>
<rpm>0.00</rpm>
</extensions>
</trkpt>
<trkpt lat="30.610368729" lon="34.776985168">
<ele>823.046875</ele>
<time>2013-11-23T07:48:54Z</time>
<speed>0.010000</speed>
<extensions>
<speed>0.0</speed>
<temp>0.00</temp>
<bpm>0</bpm>
<rpm>0.00</rpm>
</extensions>
</trkpt>
<trkpt lat="30.610368729" lon="34.776985168">
<ele>823.046875</ele>
<time>2013-11-23T07:48:59Z</time>
<extensions>
<speed>0.0</speed>
<temp>0.00</temp>
<bpm>0</bpm>
<rpm>0.00</rpm>
</extensions>
</trkpt>
<trkpt lat="30.610368729" lon="34.776985168">
<ele>823.046875</ele>
<time>2013-11-23T07:49:04Z</time>
<extensions>
<speed>0.0</speed>
<temp>0.00</temp>
<bpm>0</bpm>
<rpm>0.00</rpm>
</extensions>
</trkpt>
<trkpt lat="30.610368729" lon="34.776985168">
<ele>823.046875</ele>
<time>2013-11-23T07:49:09Z</time>
<extensions>
<speed>0.0</speed>
<temp>0.00</temp>
<bpm>0</bpm>
<rpm>0.00</rpm>
</extensions>
</trkpt>
<trkpt lat="30.610368729" lon="34.776985168">
<ele>823.031250</ele>
<time>2013-11-23T07:49:14Z</time>
<extensions>
<speed>0.0</speed>
<temp>0.00</temp>
<bpm>0</bpm>
<rpm>0.00</rpm>
</extensions>
</trkpt>
<trkpt lat="30.610368729" lon="34.776981354">
<ele>823.031250</ele>
<time>2013-11-23T07:49:19Z</time>
<extensions>
<speed>0.0</speed>
<temp>0.00</temp>
<bpm>0</bpm>
<rpm>0.00</rpm>
</extensions>
</trkpt>
<trkpt lat="30.610366821" lon="34.776981354">
<ele>823.031250</ele>
<time>2013-11-23T07:49:24Z</time>
<extensions>
<speed>0.0</speed>
<temp>0.00</temp>
<bpm>0</bpm>
<rpm>0.00</rpm>
</extensions>
</trkpt>
<trkpt lat="30.610366821" lon="34.776981354">
<ele>823.015625</ele>
<time>2013-11-23T07:49:29Z</time>
<extensions>
<speed>0.0</speed>
<temp>0.00</temp>
<bpm>0</bpm>
<rpm>0.00</rpm>
</extensions>
</trkpt>
<trkpt lat="30.610366821" lon="34.776981354">
<ele>823.015625</ele>
<time>2013-11-23T07:49:34Z</time>
<speed>0.010000</speed>
<extensions>
<speed>0.0</speed>
<temp>0.00</temp>
<bpm>0</bpm>
<rpm>0.00</rpm>
</extensions>
</trkpt>
<trkpt lat="30.610366821" lon="34.776981354">
<ele>823.015625</ele>
<time>2013-11-23T07:49:39Z</time>
<extensions>
<speed>0.0</speed>
<temp>0.00</temp>
<bpm>0</bpm>
<rpm>0.00</rpm>
</extensions>
</trkpt>
<trkpt lat="30.610366821" lon="34.776981354">
<ele>823.015625</ele>
<time>2013-11-23T07:49:44Z</time>
<extensions>
<speed>0.0</speed>
<temp>0.00</temp>
<bpm>0</bpm>
<rpm>0.00</rpm>
</extensions>
</trkpt>
<trkpt lat="30.610366821" lon="34.776981354">
<ele>823.015625</ele>
<time>2013-11-23T07:49:49Z</time>
<extensions>
<speed>0.0</speed>
<temp>0.00</temp>
<bpm>0</bpm>
<rpm>0.00</rpm>
</extensions>
</trkpt>
<trkpt lat="30.610366821" lon="34.776981354">
<ele>823.015625</ele>
<time>2013-11-23T07:49:54Z</time>
<extensions>
<speed>0.0</speed>
<temp>0.00</temp>
<bpm>0</bpm>
<rpm>0.00</rpm>
</extensions>
</trkpt>
<trkpt lat="30.610366821" lon="34.776981354">
<ele>823.015625</ele>
<time>2013-11-23T07:49:59Z</time>
<extensions>
<speed>0.0</speed>
<temp>0.00</temp>
<bpm>0</bpm>
<rpm>0.00</rpm>
</extensions>
</trkpt>
<trkpt lat="30.610366821" lon="34.776981354">
<ele>823.000000</ele>
<time>2013-11-23T07:50:04Z</time>
<extensions>
<speed>0.0</speed>
<temp>0.00</temp>
<bpm>0</bpm>
<rpm>0.00</rpm>
</extensions>
</trkpt>
<trkpt lat="30.610366821" lon="34.776981354">
<ele>823.000000</ele>
<time>2013-11-23T07:50:09Z</time>
<extensions>
<speed>0.0</speed>
<temp>0.00</temp>
<bpm>0</bpm>
<rpm>0.00</rpm>
</extensions>
</trkpt>
<trkpt lat="30.610366821" lon="34.776981354">
<ele>823.000000</ele>
<time>2013-11-23T07:50:14Z</time>
<extensions>
<speed>0.0</speed>
<temp>0.00</temp>
<bpm>0</bpm>
<rpm>0.00</rpm>
</extensions>
</trkpt>
<trkpt lat="30.610366821" lon="34.776981354">
<ele>823.015625</ele>
<time>2013-11-23T07:50:19Z</time>
<extensions>
<speed>0.0</speed>
<temp>0.00</temp>
<bpm>0</bpm>
<rpm>0.00</rpm>
</extensions>
</trkpt>
<trkpt lat="30.610366821" lon="34.776981354">
<ele>823.015625</ele>
<time>2013-11-23T07:50:24Z</time>
<extensions>
<speed>0.0</speed>
<temp>0.00</temp>
<bpm>0</bpm>
<rpm>0.00</rpm>
</extensions>
</trkpt>
<trkpt lat="30.610366821" lon="34.776981354">
<ele>823.015625</ele>
<time>2013-11-23T07:50:29Z</time>
<extensions>
<speed>0.0</speed>
<temp>0.00</temp>
<bpm>0</bpm>
<rpm>0.00</rpm>
</extensions>
</trkpt>
<trkpt lat="30.610366821" lon="34.776981354">
<ele>823.015625</ele>
<time>2013-11-23T07:50:34Z</time>
<speed>0.010000</speed>
<extensions>
<speed>0.0</speed>
<temp>0.00</temp>
<bpm>0</bpm>
<rpm>0.00</rpm>
</extensions>
</trkpt>
<trkpt lat="30.610366821" lon="34.776981354">
<ele>823.015625</ele>
<time>2013-11-23T07:50:39Z</time>
<extensions>
<speed>0.0</speed>
<temp>0.00</temp>
<bpm>0</bpm>
<rpm>0.00</rpm>
</extensions>
</trkpt>
<trkpt lat="30.610366821" lon="34.776981354">
<ele>823.015625</ele>
<time>2013-11-23T07:50:44Z</time>
<extensions>
<speed>0.0</speed>
<temp>0.00</temp>
<bpm>0</bpm>
<rpm>0.00</rpm>
</extensions>
</trkpt>
<trkpt lat="30.610366821" lon="34.776981354">
<ele>823.015625</ele>
<time>2013-11-23T07:50:49Z</time>
<extensions>
<speed>0.0</speed>
<temp>0.00</temp>
<bpm>0</bpm>
<rpm>0.00</rpm>
</extensions>
</trkpt>
<trkpt lat="30.610366821" lon="34.776981354">
<ele>823.031250</ele>
<time>2013-11-23T07:50:54Z</time>
<extensions>
<speed>0.0</speed>
<temp>0.00</temp>
<bpm>0</bpm>
<rpm>0.00</rpm>
</extensions>
</trkpt>
<trkpt lat="30.610366821" lon="34.776981354">
<ele>823.031250</ele>
<time>2013-11-23T07:50:59Z</time>
<extensions>
<speed>0.0</speed>
<temp>0.00</temp>
<bpm>0</bpm>
<rpm>0.00</rpm>
</extensions>
</trkpt>
<trkpt lat="30.610366821" lon="34.776985168">
<ele>823.046875</ele>
<time>2013-11-23T07:51:04Z</time>
<extensions>
<speed>0.0</speed>
<temp>0.00</temp>
<bpm>0</bpm>
<rpm>0.00</rpm>
</extensions>
</trkpt>
<trkpt lat="30.610366821" lon="34.776985168">
<ele>823.046875</ele>
<time>2013-11-23T07:51:09Z</time>
<extensions>
<speed>0.0</speed>
<temp>0.00</temp>
<bpm>0</bpm>
<rpm>0.00</rpm>
</extensions>
</trkpt>
<trkpt lat="30.610366821" lon="34.776985168">
<ele>823.062500</ele>
<time>2013-11-23T07:51:14Z</time>
<extensions>
<speed>0.0</speed>
<temp>0.00</temp>
<bpm>0</bpm>
<rpm>0.00</rpm>
</extensions>
</trkpt>
<trkpt lat="30.610366821" lon="34.776985168">
<ele>823.078125</ele>
<time>2013-11-23T07:51:19Z</time>
<extensions>
<speed>0.0</speed>
<temp>0.00</temp>
<bpm>0</bpm>
<rpm>0.00</rpm>
</extensions>
</trkpt>
<trkpt lat="30.610366821" lon="34.776985168">
<ele>823.078125</ele>
<time>2013-11-23T07:51:24Z</time>
<extensions>
<speed>0.0</speed>
<temp>0.00</temp>
<bpm>0</bpm>
<rpm>0.00</rpm>
</extensions>
</trkpt>
<trkpt lat="30.610366821" lon="34.776985168">
<ele>823.093750</ele>
<time>2013-11-23T07:51:29Z</time>
<speed>0.010000</speed>
<extensions>
<speed>0.0</speed>
<temp>0.00</temp>
<bpm>0</bpm>
<rpm>0.00</rpm>
</extensions>
</trkpt>
<trkpt lat="30.610366821" lon="34.776985168">
<ele>823.093750</ele>
<time>2013-11-23T07:51:34Z</time>
<extensions>
<speed>0.0</speed>
<temp>0.00</temp>
<bpm>0</bpm>
<rpm>0.00</rpm>
</extensions>
</trkpt>
<trkpt lat="30.610366821" lon="34.776985168">
<ele>823.093750</ele>
<time>2013-11-23T07:51:39Z</time>
<speed>0.010000</speed>
<extensions>
<speed>0.0</speed>
<temp>0.00</temp>
<bpm>0</bpm>
<rpm>0.00</rpm>
</extensions>
</trkpt>
<trkpt lat="30.610366821" lon="34.776985168">
<ele>823.093750</ele>
<time>2013-11-23T07:51:44Z</time>
<extensions>
<speed>0.0</speed>
<temp>0.00</temp>
<bpm>0</bpm>
<rpm>0.00</rpm>
</extensions>
</trkpt>
<trkpt lat="30.610366821" lon="34.776985168">
<ele>823.093750</ele>
<time>2013-11-23T07:51:49Z</time>
<extensions>
<speed>0.0</speed>
<temp>0.00</temp>
<bpm>0</bpm>
<rpm>0.00</rpm>
</extensions>
</trkpt>
<trkpt lat="30.610366821" lon="34.776985168">
<ele>823.093750</ele>
<time>2013-11-23T07:51:54Z</time>
<extensions>
<speed>0.0</speed>
<temp>0.00</temp>
<bpm>0</bpm>
<rpm>0.00</rpm>
</extensions>
</trkpt>
<trkpt lat="30.610366821" lon="34.776981354">
<ele>823.093750</ele>
<time>2013-11-23T07:51:59Z</time>
<extensions>
<speed>0.0</speed>
<temp>0.00</temp>
<bpm>0</bpm>
<rpm>0.00</rpm>
</extensions>
</trkpt>
<trkpt lat="30.610366821" lon="34.776981354">
<ele>823.093750</ele>
<time>2013-11-23T07:52:04Z</time>
<extensions>
<speed>0.0</speed>
<temp>0.00</temp>
<bpm>0</bpm>
<rpm>0.00</rpm>
</extensions>
</trkpt>
<trkpt lat="30.610366821" lon="34.776981354">
<ele>823.109375</ele>
<time>2013-11-23T07:52:09Z</time>
<extensions>
<speed>0.0</speed>
<temp>0.00</temp>
<bpm>0</bpm>
<rpm>0.00</rpm>
</extensions>
</trkpt>
<trkpt lat="30.610366821" lon="34.776981354">
<ele>823.109375</ele>
<time>2013-11-23T07:52:14Z</time>
<extensions>
<speed>0.0</speed>
<temp>0.00</temp>
<bpm>0</bpm>
<rpm>0.00</rpm>
</extensions>
</trkpt>
<trkpt lat="30.610366821" lon="34.776981354">
<ele>823.109375</ele>
<time>2013-11-23T07:52:19Z</time>
<extensions>
<speed>0.0</speed>
<temp>0.00</temp>
<bpm>0</bpm>
<rpm>0.00</rpm>
</extensions>
</trkpt>
<trkpt lat="30.610364914" lon="34.776981354">
<ele>823.125000</ele>
<time>2013-11-23T07:52:24Z</time>
<extensions>
<speed>0.0</speed>
<temp>0.00</temp>
<bpm>0</bpm>
<rpm>0.00</rpm>
</extensions>
</trkpt>
<trkpt lat="30.610364914" lon="34.776981354">
<ele>823.140625</ele>
<time>2013-11-23T07:52:29Z</time>
<extensions>
<speed>0.0</speed>
<temp>0.00</temp>
<bpm>0</bpm>
<rpm>0.00</rpm>
</extensions>
</trkpt>
<trkpt lat="30.610364914" lon="34.776981354">
<ele>823.140625</ele>
<time>2013-11-23T07:52:34Z</time>
<extensions>
<speed>0.0</speed>
<temp>0.00</temp>
<bpm>0</bpm>
<rpm>0.00</rpm>
</extensions>
</trkpt>
<trkpt lat="30.610364914" lon="34.776981354">
<ele>823.140625</ele>
<time>2013-11-23T07:52:39Z</time>
<extensions>
<speed>0.0</speed>
<temp>0.00</temp>
<bpm>0</bpm>
<rpm>0.00</rpm>
</extensions>
</trkpt>
<trkpt lat="30.610364914" lon="34.776981354">
<ele>823.156250</ele>
<time>2013-11-23T07:52:44Z</time>
<extensions>
<speed>0.0</speed>
<temp>0.00</temp>
<bpm>0</bpm>
<rpm>0.00</rpm>
</extensions>
</trkpt>
<trkpt lat="30.610364914" lon="34.776981354">
<ele>823.156250</ele>
<time>2013-11-23T07:52:49Z</time>
<extensions>
<speed>0.0</speed>
<temp>0.00</temp>
<bpm>0</bpm>
<rpm>0.00</rpm>
</extensions>
</trkpt>
<trkpt lat="30.610364914" lon="34.776981354">
<ele>823.171875</ele>
<time>2013-11-23T07:52:54Z</time>
<extensions>
<speed>0.0</speed>
<temp>0.00</temp>
<bpm>0</bpm>
<rpm>0.00</rpm>
</extensions>
</trkpt>
<trkpt lat="30.610364914" lon="34.776981354">
<ele>823.156250</ele>
<time>2013-11-23T07:52:59Z</time>
<extensions>
<speed>0.0</speed>
<temp>0.00</temp>
<bpm>0</bpm>
<rpm>0.00</rpm>
</extensions>
</trkpt>
<trkpt lat="30.610364914" lon="34.776981354">
<ele>823.171875</ele>
<time>2013-11-23T07:53:04Z</time>
<extensions>
<speed>0.0</speed>
<temp>0.00</temp>
<bpm>0</bpm>
<rpm>0.00</rpm>
</extensions>
</trkpt>
<trkpt lat="30.610364914" lon="34.776981354">
<ele>823.171875</ele>
<time>2013-11-23T07:53:09Z</time>
<extensions>
<speed>0.0</speed>
<temp>0.00</temp>
<bpm>0</bpm>
<rpm>0.00</rpm>
</extensions>
</trkpt>
<trkpt lat="30.610364914" lon="34.776981354">
<ele>823.187500</ele>
<time>2013-11-23T07:53:14Z</time>
<extensions>
<speed>0.0</speed>
<temp>0.00</temp>
<bpm>0</bpm>
<rpm>0.00</rpm>
</extensions>
</trkpt>
<trkpt lat="30.610364914" lon="34.776981354">
<ele>823.187500</ele>
<time>2013-11-23T07:53:19Z</time>
<extensions>
<speed>0.0</speed>
<temp>0.00</temp>
<bpm>0</bpm>
<rpm>0.00</rpm>
</extensions>
</trkpt>
<trkpt lat="30.610364914" lon="34.776981354">
<ele>823.187500</ele>
<time>2013-11-23T07:53:24Z</time>
<extensions>
<speed>0.0</speed>
<temp>0.00</temp>
<bpm>0</bpm>
<rpm>0.00</rpm>
</extensions>
</trkpt>
<trkpt lat="30.610364914" lon="34.776981354">
<ele>823.187500</ele>
<time>2013-11-23T07:53:29Z</time>
<extensions>
<speed>0.0</speed>
<temp>0.00</temp>
<bpm>0</bpm>
<rpm>0.00</rpm>
</extensions>
</trkpt>
<trkpt lat="30.610364914" lon="34.776981354">
<ele>823.187500</ele>
<time>2013-11-23T07:53:34Z</time>
<extensions>
<speed>0.0</speed>
<temp>0.00</temp>
<bpm>0</bpm>
<rpm>0.00</rpm>
</extensions>
</trkpt>
<trkpt lat="30.610364914" lon="34.776981354">
<ele>823.171875</ele>
<time>2013-11-23T07:53:39Z</time>
<extensions>
<speed>0.0</speed>
<temp>0.00</temp>
<bpm>0</bpm>
<rpm>0.00</rpm>
</extensions>
</trkpt>
<trkpt lat="30.610364914" lon="34.776981354">
<ele>823.156250</ele>
<time>2013-11-23T07:53:44Z</time>
<speed>0.010000</speed>
<extensions>
<speed>0.0</speed>
<temp>0.00</temp>
<bpm>0</bpm>
<rpm>0.00</rpm>
</extensions>
</trkpt>
<trkpt lat="30.610364914" lon="34.776981354">
<ele>823.140625</ele>
<time>2013-11-23T07:53:49Z</time>
<extensions>
<speed>0.0</speed>
<temp>0.00</temp>
<bpm>0</bpm>
<rpm>0.00</rpm>
</extensions>
</trkpt>
<trkpt lat="30.610364914" lon="34.776981354">
<ele>823.140625</ele>
<time>2013-11-23T07:53:54Z</time>
<extensions>
<speed>0.0</speed>
<temp>0.00</temp>
<bpm>0</bpm>
<rpm>0.00</rpm>
</extensions>
</trkpt>
<trkpt lat="30.610364914" lon="34.776981354">
<ele>823.140625</ele>
<time>2013-11-23T07:53:59Z</time>
<extensions>
<speed>0.0</speed>
<temp>0.00</temp>
<bpm>0</bpm>
<rpm>0.00</rpm>
</extensions>
</trkpt>
<trkpt lat="30.610364914" lon="34.776981354">
<ele>823.140625</ele>
<time>2013-11-23T07:54:04Z</time>
<extensions>
<speed>0.0</speed>
<temp>0.00</temp>
<bpm>0</bpm>
<rpm>0.00</rpm>
</extensions>
</trkpt>
<trkpt lat="30.610364914" lon="34.776981354">
<ele>823.140625</ele>
<time>2013-11-23T07:54:09Z</time>
<extensions>
<speed>0.0</speed>
<temp>0.00</temp>
<bpm>0</bpm>
<rpm>0.00</rpm>
</extensions>
</trkpt>
<trkpt lat="30.610364914" lon="34.776981354">
<ele>823.156250</ele>
<time>2013-11-23T07:54:14Z</time>
<extensions>
<speed>0.0</speed>
<temp>0.00</temp>
<bpm>0</bpm>
<rpm>0.00</rpm>
</extensions>
</trkpt>
<trkpt lat="30.610364914" lon="34.776981354">
<ele>823.156250</ele>
<time>2013-11-23T07:54:19Z</time>
<extensions>
<speed>0.0</speed>
<temp>0.00</temp>
<bpm>0</bpm>
<rpm>0.00</rpm>
</extensions>
</trkpt>
<trkpt lat="30.610364914" lon="34.776981354">
<ele>823.156250</ele>
<time>2013-11-23T07:54:24Z</time>
<extensions>
<speed>0.0</speed>
<temp>0.00</temp>
<bpm>0</bpm>
<rpm>0.00</rpm>
</extensions>
</trkpt>
<trkpt lat="30.610363007" lon="34.776981354">
<ele>823.156250</ele>
<time>2013-11-23T07:54:29Z</time>
<extensions>
<speed>0.0</speed>
<temp>0.00</temp>
<bpm>0</bpm>
<rpm>0.00</rpm>
</extensions>
</trkpt>
<trkpt lat="30.610363007" lon="34.776981354">
<ele>823.156250</ele>
<time>2013-11-23T07:54:34Z</time>
<extensions>
<speed>0.0</speed>
<temp>0.00</temp>
<bpm>0</bpm>
<rpm>0.00</rpm>
</extensions>
</trkpt>
<trkpt lat="30.610363007" lon="34.776981354">
<ele>823.156250</ele>
<time>2013-11-23T07:54:39Z</time>
<extensions>
<speed>0.0</speed>
<temp>0.00</temp>
<bpm>0</bpm>
<rpm>0.00</rpm>
</extensions>
</trkpt>
<trkpt lat="30.610363007" lon="34.776981354">
<ele>823.156250</ele>
<time>2013-11-23T07:54:44Z</time>
<extensions>
<speed>0.0</speed>
<temp>0.00</temp>
<bpm>0</bpm>
<rpm>0.00</rpm>
</extensions>
</trkpt>
<trkpt lat="30.610363007" lon="34.776981354">
<ele>823.156250</ele>
<time>2013-11-23T07:54:49Z</time>
<speed>0.010000</speed>
<extensions>
<speed>0.0</speed>
<temp>0.00</temp>
<bpm>0</bpm>
<rpm>0.00</rpm>
</extensions>
</trkpt>
<trkpt lat="30.610363007" lon="34.776981354">
<ele>823.156250</ele>
<time>2013-11-23T07:54:54Z</time>
<extensions>
<speed>0.0</speed>
<temp>0.00</temp>
<bpm>0</bpm>
<rpm>0.00</rpm>
</extensions>
</trkpt>
<trkpt lat="30.610363007" lon="34.776981354">
<ele>823.171875</ele>
<time>2013-11-23T07:54:59Z</time>
<extensions>
<speed>0.0</speed>
<temp>0.00</temp>
<bpm>0</bpm>
<rpm>0.00</rpm>
</extensions>
</trkpt>
<trkpt lat="30.610363007" lon="34.776981354">
<ele>823.187500</ele>
<time>2013-11-23T07:55:04Z</time>
<extensions>
<speed>0.0</speed>
<temp>0.00</temp>
<bpm>0</bpm>
<rpm>0.00</rpm>
</extensions>
</trkpt>
<trkpt lat="30.610363007" lon="34.776981354">
<ele>823.187500</ele>
<time>2013-11-23T07:55:09Z</time>
<extensions>
<speed>0.0</speed>
<temp>0.00</temp>
<bpm>0</bpm>
<rpm>0.00</rpm>
</extensions>
</trkpt>
<trkpt lat="30.610363007" lon="34.776981354">
<ele>823.203125</ele>
<time>2013-11-23T07:55:14Z</time>
<extensions>
<speed>0.0</speed>
<temp>0.00</temp>
<bpm>0</bpm>
<rpm>0.00</rpm>
</extensions>
</trkpt>
<trkpt lat="30.610363007" lon="34.776981354">
<ele>823.203125</ele>
<time>2013-11-23T07:55:19Z</time>
<extensions>
<speed>0.0</speed>
<temp>0.00</temp>
<bpm>0</bpm>
<rpm>0.00</rpm>
</extensions>
</trkpt>
<trkpt lat="30.610363007" lon="34.776981354">
<ele>823.218750</ele>
<time>2013-11-23T07:55:24Z</time>
<extensions>
<speed>0.0</speed>
<temp>0.00</temp>
<bpm>0</bpm>
<rpm>0.00</rpm>
</extensions>
</trkpt>
<trkpt lat="30.610363007" lon="34.776981354">
<ele>823.218750</ele>
<time>2013-11-23T07:55:29Z</time>
<extensions>
<speed>0.0</speed>
<temp>0.00</temp>
<bpm>0</bpm>
<rpm>0.00</rpm>
</extensions>
</trkpt>
<trkpt lat="30.610363007" lon="34.776981354">
<ele>823.250000</ele>
<time>2013-11-23T07:55:34Z</time>
<speed>0.010000</speed>
<extensions>
<speed>0.0</speed>
<temp>0.00</temp>
<bpm>0</bpm>
<rpm>0.00</rpm>
</extensions>
</trkpt>
<trkpt lat="30.610363007" lon="34.776981354">
<ele>823.250000</ele>
<time>2013-11-23T07:55:39Z</time>
<extensions>
<speed>0.0</speed>
<temp>0.00</temp>
<bpm>0</bpm>
<rpm>0.00</rpm>
</extensions>
</trkpt>
<trkpt lat="30.610363007" lon="34.776981354">
<ele>823.250000</ele>
<time>2013-11-23T07:55:44Z</time>
<extensions>
<speed>0.0</speed>
<temp>0.00</temp>
<bpm>0</bpm>
<rpm>0.00</rpm>
</extensions>
</trkpt>
<trkpt lat="30.610363007" lon="34.776981354">
<ele>823.265625</ele>
<time>2013-11-23T07:55:49Z</time>
<extensions>
<speed>0.0</speed>
<temp>0.00</temp>
<bpm>0</bpm>
<rpm>0.00</rpm>
</extensions>
</trkpt>
<trkpt lat="30.610361099" lon="34.776981354">
<ele>823.265625</ele>
<time>2013-11-23T07:55:54Z</time>
<extensions>
<speed>0.0</speed>
<temp>0.00</temp>
<bpm>0</bpm>
<rpm>0.00</rpm>
</extensions>
</trkpt>
<trkpt lat="30.610361099" lon="34.776981354">
<ele>823.265625</ele>
<time>2013-11-23T07:55:59Z</time>
<extensions>
<speed>0.0</speed>
<temp>0.00</temp>
<bpm>0</bpm>
<rpm>0.00</rpm>
</extensions>
</trkpt>
<trkpt lat="30.610361099" lon="34.776981354">
<ele>823.250000</ele>
<time>2013-11-23T07:56:04Z</time>
<extensions>
<speed>0.0</speed>
<temp>0.00</temp>
<bpm>0</bpm>
<rpm>0.00</rpm>
</extensions>
</trkpt>
<trkpt lat="30.610361099" lon="34.776981354">
<ele>823.250000</ele>
<time>2013-11-23T07:56:09Z</time>
<extensions>
<speed>0.0</speed>
<temp>0.00</temp>
<bpm>0</bpm>
<rpm>0.00</rpm>
</extensions>
</trkpt>
<trkpt lat="30.610361099" lon="34.776981354">
<ele>823.265625</ele>
<time>2013-11-23T07:56:14Z</time>
<extensions>
<speed>0.0</speed>
<temp>0.00</temp>
<bpm>0</bpm>
<rpm>0.00</rpm>
</extensions>
</trkpt>
<trkpt lat="30.610361099" lon="34.776981354">
<ele>823.265625</ele>
<time>2013-11-23T07:56:19Z</time>
<extensions>
<speed>0.0</speed>
<temp>0.00</temp>
<bpm>0</bpm>
<rpm>0.00</rpm>
</extensions>
</trkpt>
<trkpt lat="30.610361099" lon="34.776981354">
<ele>823.265625</ele>
<time>2013-11-23T07:56:24Z</time>
<extensions>
<speed>0.0</speed>
<temp>0.00</temp>
<bpm>0</bpm>
<rpm>0.00</rpm>
</extensions>
</trkpt>
<trkpt lat="30.610361099" lon="34.776981354">
<ele>823.281250</ele>
<time>2013-11-23T07:56:29Z</time>
<extensions>
<speed>0.0</speed>
<temp>0.00</temp>
<bpm>0</bpm>
<rpm>0.00</rpm>
</extensions>
</trkpt>
<trkpt lat="30.610361099" lon="34.776981354">
<ele>823.281250</ele>
<time>2013-11-23T07:56:34Z</time>
<extensions>
<speed>0.0</speed>
<temp>0.00</temp>
<bpm>0</bpm>
<rpm>0.00</rpm>
</extensions>
</trkpt>
<trkpt lat="30.610361099" lon="34.776981354">
<ele>823.281250</ele>
<time>2013-11-23T07:56:39Z</time>
<extensions>
<speed>0.0</speed>
<temp>0.00</temp>
<bpm>0</bpm>
<rpm>0.00</rpm>
</extensions>
</trkpt>
<trkpt lat="30.610361099" lon="34.776981354">
<ele>823.281250</ele>
<time>2013-11-23T07:56:44Z</time>
<speed>0.010000</speed>
<extensions>
<speed>0.0</speed>
<temp>0.00</temp>
<bpm>0</bpm>
<rpm>0.00</rpm>
</extensions>
</trkpt>
<trkpt lat="30.610361099" lon="34.776981354">
<ele>823.281250</ele>
<time>2013-11-23T07:56:49Z</time>
<extensions>
<speed>0.0</speed>
<temp>0.00</temp>
<bpm>0</bpm>
<rpm>0.00</rpm>
</extensions>
</trkpt>
<trkpt lat="30.610361099" lon="34.776981354">
<ele>823.281250</ele>
<time>2013-11-23T07:56:54Z</time>
<extensions>
<speed>0.0</speed>
<temp>0.00</temp>
<bpm>0</bpm>
<rpm>0.00</rpm>
</extensions>
</trkpt>
<trkpt lat="30.610361099" lon="34.776981354">
<ele>823.281250</ele>
<time>2013-11-23T07:56:59Z</time>
<extensions>
<speed>0.0</speed>
<temp>0.00</temp>
<bpm>0</bpm>
<rpm>0.00</rpm>
</extensions>
</trkpt>
<trkpt lat="30.610361099" lon="34.776981354">
<ele>823.281250</ele>
<time>2013-11-23T07:57:04Z</time>
<extensions>
<speed>0.0</speed>
<temp>0.00</temp>
<bpm>0</bpm>
<rpm>0.00</rpm>
</extensions>
</trkpt>
<trkpt lat="30.610361099" lon="34.776981354">
<ele>823.281250</ele>
<time>2013-11-23T07:57:09Z</time>
<extensions>
<speed>0.0</speed>
<temp>0.00</temp>
<bpm>0</bpm>
<rpm>0.00</rpm>
</extensions>
</trkpt>
<trkpt lat="30.610361099" lon="34.776981354">
<ele>823.281250</ele>
<time>2013-11-23T07:57:14Z</time>
<extensions>
<speed>0.0</speed>
<temp>0.00</temp>
<bpm>0</bpm>
<rpm>0.00</rpm>
</extensions>
</trkpt>
<trkpt lat="30.610361099" lon="34.776981354">
<ele>823.296875</ele>
<time>2013-11-23T07:57:19Z</time>
<extensions>
<speed>0.0</speed>
<temp>0.00</temp>
<bpm>0</bpm>
<rpm>0.00</rpm>
</extensions>
</trkpt>
<trkpt lat="30.610361099" lon="34.776981354">
<ele>823.312500</ele>
<time>2013-11-23T07:57:24Z</time>
<extensions>
<speed>0.0</speed>
<temp>0.00</temp>
<bpm>0</bpm>
<rpm>0.00</rpm>
</extensions>
</trkpt>
<trkpt lat="30.610361099" lon="34.776981354">
<ele>823.312500</ele>
<time>2013-11-23T07:57:29Z</time>
<extensions>
<speed>0.0</speed>
<temp>0.00</temp>
<bpm>0</bpm>
<rpm>0.00</rpm>
</extensions>
</trkpt>
<trkpt lat="30.610361099" lon="34.776981354">
<ele>823.312500</ele>
<time>2013-11-23T07:57:34Z</time>
<extensions>
<speed>0.0</speed>
<temp>0.00</temp>
<bpm>0</bpm>
<rpm>0.00</rpm>
</extensions>
</trkpt>
<trkpt lat="30.610361099" lon="34.776981354">
<ele>823.312500</ele>
<time>2013-11-23T07:57:39Z</time>
<speed>0.010000</speed>
<extensions>
<speed>0.0</speed>
<temp>0.00</temp>
<bpm>0</bpm>
<rpm>0.00</rpm>
</extensions>
</trkpt>
<trkpt lat="30.610361099" lon="34.776981354">
<ele>823.328125</ele>
<time>2013-11-23T07:57:44Z</time>
<extensions>
<speed>0.0</speed>
<temp>0.00</temp>
<bpm>0</bpm>
<rpm>0.00</rpm>
</extensions>
</trkpt>
<trkpt lat="30.610361099" lon="34.776981354">
<ele>823.328125</ele>
<time>2013-11-23T07:57:49Z</time>
<extensions>
<speed>0.0</speed>
<temp>0.00</temp>
<bpm>0</bpm>
<rpm>0.00</rpm>
</extensions>
</trkpt>
<trkpt lat="30.610361099" lon="34.776981354">
<ele>823.312500</ele>
<time>2013-11-23T07:57:54Z</time>
<extensions>
<speed>0.0</speed>
<temp>0.00</temp>
<bpm>0</bpm>
<rpm>0.00</rpm>
</extensions>
</trkpt>
<trkpt lat="30.610361099" lon="34.776981354">
<ele>823.312500</ele>
<time>2013-11-23T07:57:59Z</time>
<extensions>
<speed>0.0</speed>
<temp>0.00</temp>
<bpm>0</bpm>
<rpm>0.00</rpm>
</extensions>
</trkpt>
<trkpt lat="30.610361099" lon="34.776981354">
<ele>823.296875</ele>
<time>2013-11-23T07:58:04Z</time>
<extensions>
<speed>0.0</speed>
<temp>0.00</temp>
<bpm>0</bpm>
<rpm>0.00</rpm>
</extensions>
</trkpt>
<trkpt lat="30.610361099" lon="34.776981354">
<ele>823.281250</ele>
<time>2013-11-23T07:58:09Z</time>
<extensions>
<speed>0.0</speed>
<temp>0.00</temp>
<bpm>0</bpm>
<rpm>0.00</rpm>
</extensions>
</trkpt>
<trkpt lat="30.610361099" lon="34.776981354">
<ele>823.265625</ele>
<time>2013-11-23T07:58:14Z</time>
<extensions>
<speed>0.0</speed>
<temp>0.00</temp>
<bpm>0</bpm>
<rpm>0.00</rpm>
</extensions>
</trkpt>
<trkpt lat="30.610359192" lon="34.776981354">
<ele>823.265625</ele>
<time>2013-11-23T07:58:19Z</time>
<extensions>
<speed>0.0</speed>
<temp>0.00</temp>
<bpm>0</bpm>
<rpm>0.00</rpm>
</extensions>
</trkpt>
<trkpt lat="30.610359192" lon="34.776981354">
<ele>823.265625</ele>
<time>2013-11-23T07:58:24Z</time>
<extensions>
<speed>0.0</speed>
<temp>0.00</temp>
<bpm>0</bpm>
<rpm>0.00</rpm>
</extensions>
</trkpt>
<trkpt lat="30.610359192" lon="34.776981354">
<ele>823.281250</ele>
<time>2013-11-23T07:58:29Z</time>
<extensions>
<speed>0.0</speed>
<temp>0.00</temp>
<bpm>0</bpm>
<rpm>0.00</rpm>
</extensions>
</trkpt>
<trkpt lat="30.610359192" lon="34.776981354">
<ele>823.281250</ele>
<time>2013-11-23T07:58:34Z</time>
<extensions>
<speed>0.0</speed>
<temp>0.00</temp>
<bpm>0</bpm>
<rpm>0.00</rpm>
</extensions>
</trkpt>
<trkpt lat="30.610359192" lon="34.776981354">
<ele>823.281250</ele>
<time>2013-11-23T07:58:39Z</time>
<extensions>
<speed>0.0</speed>
<temp>0.00</temp>
<bpm>0</bpm>
<rpm>0.00</rpm>
</extensions>
</trkpt>
<trkpt lat="30.610359192" lon="34.776981354">
<ele>823.281250</ele>
<time>2013-11-23T07:58:44Z</time>
<extensions>
<speed>0.0</speed>
<temp>0.00</temp>
<bpm>0</bpm>
<rpm>0.00</rpm>
</extensions>
</trkpt>
<trkpt lat="30.610359192" lon="34.776981354">
<ele>823.281250</ele>
<time>2013-11-23T07:58:49Z</time>
<extensions>
<speed>0.0</speed>
<temp>0.00</temp>
<bpm>0</bpm>
<rpm>0.00</rpm>
</extensions>
</trkpt>
<trkpt lat="30.610359192" lon="34.776981354">
<ele>823.265625</ele>
<time>2013-11-23T07:58:54Z</time>
<extensions>
<speed>0.0</speed>
<temp>0.00</temp>
<bpm>0</bpm>
<rpm>0.00</rpm>
</extensions>
</trkpt>
<trkpt lat="30.610359192" lon="34.776981354">
<ele>823.265625</ele>
<time>2013-11-23T07:58:59Z</time>
<extensions>
<speed>0.0</speed>
<temp>0.00</temp>
<bpm>0</bpm>
<rpm>0.00</rpm>
</extensions>
</trkpt>
<trkpt lat="30.610359192" lon="34.776981354">
<ele>823.265625</ele>
<time>2013-11-23T07:59:04Z</time>
<speed>0.010000</speed>
<extensions>
<speed>0.0</speed>
<temp>0.00</temp>
<bpm>0</bpm>
<rpm>0.00</rpm>
</extensions>
</trkpt>
<trkpt lat="30.610359192" lon="34.776981354">
<ele>823.265625</ele>
<time>2013-11-23T07:59:09Z</time>
<speed>0.010000</speed>
<extensions>
<speed>0.0</speed>
<temp>0.00</temp>
<bpm>0</bpm>
<rpm>0.00</rpm>
</extensions>
</trkpt>
<trkpt lat="30.610359192" lon="34.776981354">
<ele>823.265625</ele>
<time>2013-11-23T07:59:14Z</time>
<extensions>
<speed>0.0</speed>
<temp>0.00</temp>
<bpm>0</bpm>
<rpm>0.00</rpm>
</extensions>
</trkpt>
<trkpt lat="30.610359192" lon="34.776981354">
<ele>823.265625</ele>
<time>2013-11-23T07:59:19Z</time>
<extensions>
<speed>0.0</speed>
<temp>0.00</temp>
<bpm>0</bpm>
<rpm>0.00</rpm>
</extensions>
</trkpt>
<trkpt lat="30.610359192" lon="34.776981354">
<ele>823.250000</ele>
<time>2013-11-23T07:59:24Z</time>
<extensions>
<speed>0.0</speed>
<temp>0.00</temp>
<bpm>0</bpm>
<rpm>0.00</rpm>
</extensions>
</trkpt>
<trkpt lat="30.610359192" lon="34.776981354">
<ele>823.234375</ele>
<time>2013-11-23T07:59:29Z</time>
<speed>0.010000</speed>
<extensions>
<speed>0.0</speed>
<temp>0.00</temp>
<bpm>0</bpm>
<rpm>0.00</rpm>
</extensions>
</trkpt>
<trkpt lat="30.610359192" lon="34.776981354">
<ele>823.234375</ele>
<time>2013-11-23T07:59:34Z</time>
<speed>0.010000</speed>
<extensions>
<speed>0.0</speed>
<temp>0.00</temp>
<bpm>0</bpm>
<rpm>0.00</rpm>
</extensions>
</trkpt>
<trkpt lat="30.610359192" lon="34.776981354">
<ele>823.234375</ele>
<time>2013-11-23T07:59:39Z</time>
<extensions>
<speed>0.0</speed>
<temp>0.00</temp>
<bpm>0</bpm>
<rpm>0.00</rpm>
</extensions>
</trkpt>
<trkpt lat="30.610359192" lon="34.776981354">
<ele>823.234375</ele>
<time>2013-11-23T07:59:44Z</time>
<speed>0.010000</speed>
<extensions>
<speed>0.0</speed>
<temp>0.00</temp>
<bpm>0</bpm>
<rpm>0.00</rpm>
</extensions>
</trkpt>
<trkpt lat="30.610359192" lon="34.776981354">
<ele>823.250000</ele>
<time>2013-11-23T07:59:49Z</time>
<extensions>
<speed>0.0</speed>
<temp>0.00</temp>
<bpm>0</bpm>
<rpm>0.00</rpm>
</extensions>
</trkpt>
<trkpt lat="30.610359192" lon="34.776981354">
<ele>823.250000</ele>
<time>2013-11-23T07:59:54Z</time>
<extensions>
<speed>0.0</speed>
<temp>0.00</temp>
<bpm>0</bpm>
<rpm>0.00</rpm>
</extensions>
</trkpt>
<trkpt lat="30.610359192" lon="34.776981354">
<ele>823.250000</ele>
<time>2013-11-23T07:59:59Z</time>
<extensions>
<speed>0.0</speed>
<temp>0.00</temp>
<bpm>0</bpm>
<rpm>0.00</rpm>
</extensions>
</trkpt>
<trkpt lat="30.610359192" lon="34.776981354">
<ele>823.265625</ele>
<time>2013-11-23T08:00:04Z</time>
<extensions>
<speed>0.0</speed>
<temp>0.00</temp>
<bpm>0</bpm>
<rpm>0.00</rpm>
</extensions>
</trkpt>
<trkpt lat="30.610359192" lon="34.776981354">
<ele>823.281250</ele>
<time>2013-11-23T08:00:09Z</time>
<extensions>
<speed>0.0</speed>
<temp>0.00</temp>
<bpm>0</bpm>
<rpm>0.00</rpm>
</extensions>
</trkpt>
<trkpt lat="30.610359192" lon="34.776981354">
<ele>823.281250</ele>
<time>2013-11-23T08:00:14Z</time>
<extensions>
<speed>0.0</speed>
<temp>0.00</temp>
<bpm>0</bpm>
<rpm>0.00</rpm>
</extensions>
</trkpt>
<trkpt lat="30.610359192" lon="34.776981354">
<ele>823.281250</ele>
<time>2013-11-23T08:00:19Z</time>
<extensions>
<speed>0.0</speed>
<temp>0.00</temp>
<bpm>0</bpm>
<rpm>0.00</rpm>
</extensions>
</trkpt>
<trkpt lat="30.610359192" lon="34.776981354">
<ele>823.281250</ele>
<time>2013-11-23T08:00:24Z</time>
<extensions>
<speed>0.0</speed>
<temp>0.00</temp>
<bpm>0</bpm>
<rpm>0.00</rpm>
</extensions>
</trkpt>
<trkpt lat="30.610359192" lon="34.776981354">
<ele>823.281250</ele>
<time>2013-11-23T08:00:29Z</time>
<extensions>
<speed>0.0</speed>
<temp>0.00</temp>
<bpm>0</bpm>
<rpm>0.00</rpm>
</extensions>
</trkpt>
<trkpt lat="30.610359192" lon="34.776981354">
<ele>823.281250</ele>
<time>2013-11-23T08:00:34Z</time>
<extensions>
<speed>0.0</speed>
<temp>0.00</temp>
<bpm>0</bpm>
<rpm>0.00</rpm>
</extensions>
</trkpt>
<trkpt lat="30.610359192" lon="34.776981354">
<ele>823.265625</ele>
<time>2013-11-23T08:00:39Z</time>
<extensions>
<speed>0.0</speed>
<temp>0.00</temp>
<bpm>0</bpm>
<rpm>0.00</rpm>
</extensions>
</trkpt>
<trkpt lat="30.610359192" lon="34.776981354">
<ele>823.265625</ele>
<time>2013-11-23T08:00:44Z</time>
<extensions>
<speed>0.0</speed>
<temp>0.00</temp>
<bpm>0</bpm>
<rpm>0.00</rpm>
</extensions>
</trkpt>
<trkpt lat="30.610359192" lon="34.776981354">
<ele>823.265625</ele>
<time>2013-11-23T08:00:49Z</time>
<extensions>
<speed>0.0</speed>
<temp>0.00</temp>
<bpm>0</bpm>
<rpm>0.00</rpm>
</extensions>
</trkpt>
<trkpt lat="30.610359192" lon="34.776981354">
<ele>823.265625</ele>
<time>2013-11-23T08:00:54Z</time>
<extensions>
<speed>0.0</speed>
<temp>0.00</temp>
<bpm>0</bpm>
<rpm>0.00</rpm>
</extensions>
</trkpt>
<trkpt lat="30.610359192" lon="34.776981354">
<ele>823.281250</ele>
<time>2013-11-23T08:00:59Z</time>
<speed>0.010000</speed>
<extensions>
<speed>0.0</speed>
<temp>0.00</temp>
<bpm>0</bpm>
<rpm>0.00</rpm>
</extensions>
</trkpt>
<trkpt lat="30.610359192" lon="34.776981354">
<ele>823.281250</ele>
<time>2013-11-23T08:01:04Z</time>
<extensions>
<speed>0.0</speed>
<temp>0.00</temp>
<bpm>0</bpm>
<rpm>0.00</rpm>
</extensions>
</trkpt>
<trkpt lat="30.610359192" lon="34.776981354">
<ele>823.265625</ele>
<time>2013-11-23T08:01:09Z</time>
<extensions>
<speed>0.0</speed>
<temp>0.00</temp>
<bpm>0</bpm>
<rpm>0.00</rpm>
</extensions>
</trkpt>
<trkpt lat="30.610359192" lon="34.776981354">
<ele>823.265625</ele>
<time>2013-11-23T08:01:14Z</time>
<extensions>
<speed>0.0</speed>
<temp>0.00</temp>
<bpm>0</bpm>
<rpm>0.00</rpm>
</extensions>
</trkpt>
<trkpt lat="30.610359192" lon="34.776981354">
<ele>823.281250</ele>
<time>2013-11-23T08:01:19Z</time>
<extensions>
<speed>0.0</speed>
<temp>0.00</temp>
<bpm>0</bpm>
<rpm>0.00</rpm>
</extensions>
</trkpt>
<trkpt lat="30.610359192" lon="34.776981354">
<ele>823.281250</ele>
<time>2013-11-23T08:01:24Z</time>
<extensions>
<speed>0.0</speed>
<temp>0.00</temp>
<bpm>0</bpm>
<rpm>0.00</rpm>
</extensions>
</trkpt>
<trkpt lat="30.610359192" lon="34.776981354">
<ele>823.296875</ele>
<time>2013-11-23T08:01:29Z</time>
<extensions>
<speed>0.0</speed>
<temp>0.00</temp>
<bpm>0</bpm>
<rpm>0.00</rpm>
</extensions>
</trkpt>
<trkpt lat="30.610359192" lon="34.776981354">
<ele>823.312500</ele>
<time>2013-11-23T08:01:34Z</time>
<speed>0.010000</speed>
<extensions>
<speed>0.0</speed>
<temp>0.00</temp>
<bpm>0</bpm>
<rpm>0.00</rpm>
</extensions>
</trkpt>
<trkpt lat="30.610359192" lon="34.776981354">
<ele>823.328125</ele>
<time>2013-11-23T08:01:39Z</time>
<extensions>
<speed>0.0</speed>
<temp>0.00</temp>
<bpm>0</bpm>
<rpm>0.00</rpm>
</extensions>
</trkpt>
<trkpt lat="30.610359192" lon="34.776985168">
<ele>823.343750</ele>
<time>2013-11-23T08:01:44Z</time>
<extensions>
<speed>0.0</speed>
<temp>0.00</temp>
<bpm>0</bpm>
<rpm>0.00</rpm>
</extensions>
</trkpt>
<trkpt lat="30.610359192" lon="34.776985168">
<ele>823.343750</ele>
<time>2013-11-23T08:01:49Z</time>
<speed>0.010000</speed>
<extensions>
<speed>0.0</speed>
<temp>0.00</temp>
<bpm>0</bpm>
<rpm>0.00</rpm>
</extensions>
</trkpt>
<trkpt lat="30.610359192" lon="34.776985168">
<ele>823.343750</ele>
<time>2013-11-23T08:01:54Z</time>
<extensions>
<speed>0.0</speed>
<temp>0.00</temp>
<bpm>0</bpm>
<rpm>0.00</rpm>
</extensions>
</trkpt>
<trkpt lat="30.610359192" lon="34.776985168">
<ele>823.343750</ele>
<time>2013-11-23T08:01:59Z</time>
<extensions>
<speed>0.0</speed>
<temp>0.00</temp>
<bpm>0</bpm>
<rpm>0.00</rpm>
</extensions>
</trkpt>
<trkpt lat="30.610359192" lon="34.776985168">
<ele>823.359375</ele>
<time>2013-11-23T08:02:04Z</time>
<speed>0.010000</speed>
<extensions>
<speed>0.0</speed>
<temp>0.00</temp>
<bpm>0</bpm>
<rpm>0.00</rpm>
</extensions>
</trkpt>
<trkpt lat="30.610359192" lon="34.776985168">
<ele>823.375000</ele>
<time>2013-11-23T08:02:09Z</time>
<extensions>
<speed>0.0</speed>
<temp>0.00</temp>
<bpm>0</bpm>
<rpm>0.00</rpm>
</extensions>
</trkpt>
<trkpt lat="30.610359192" lon="34.776985168">
<ele>823.390625</ele>
<time>2013-11-23T08:02:14Z</time>
<extensions>
<speed>0.0</speed>
<temp>0.00</temp>
<bpm>0</bpm>
<rpm>0.00</rpm>
</extensions>
</trkpt>
<trkpt lat="30.610359192" lon="34.776985168">
<ele>823.390625</ele>
<time>2013-11-23T08:02:19Z</time>
<extensions>
<speed>0.0</speed>
<temp>0.00</temp>
<bpm>0</bpm>
<rpm>0.00</rpm>
</extensions>
</trkpt>
<trkpt lat="30.610359192" lon="34.776985168">
<ele>823.406250</ele>
<time>2013-11-23T08:02:24Z</time>
<speed>0.010000</speed>
<extensions>
<speed>0.0</speed>
<temp>0.00</temp>
<bpm>0</bpm>
<rpm>0.00</rpm>
</extensions>
</trkpt>
<trkpt lat="30.610359192" lon="34.776985168">
<ele>823.406250</ele>
<time>2013-11-23T08:02:29Z</time>
<extensions>
<speed>0.0</speed>
<temp>0.00</temp>
<bpm>0</bpm>
<rpm>0.00</rpm>
</extensions>
</trkpt>
<trkpt lat="30.610359192" lon="34.776985168">
<ele>823.406250</ele>
<time>2013-11-23T08:02:34Z</time>
<extensions>
<speed>0.0</speed>
<temp>0.00</temp>
<bpm>0</bpm>
<rpm>0.00</rpm>
</extensions>
</trkpt>
<trkpt lat="30.610359192" lon="34.776985168">
<ele>823.406250</ele>
<time>2013-11-23T08:02:39Z</time>
<extensions>
<speed>0.0</speed>
<temp>0.00</temp>
<bpm>0</bpm>
<rpm>0.00</rpm>
</extensions>
</trkpt>
<trkpt lat="30.610357285" lon="34.776985168">
<ele>823.421875</ele>
<time>2013-11-23T08:02:44Z</time>
<extensions>
<speed>0.0</speed>
<temp>0.00</temp>
<bpm>0</bpm>
<rpm>0.00</rpm>
</extensions>
</trkpt>
<trkpt lat="30.610357285" lon="34.776985168">
<ele>823.437500</ele>
<time>2013-11-23T08:02:49Z</time>
<extensions>
<speed>0.0</speed>
<temp>0.00</temp>
<bpm>0</bpm>
<rpm>0.00</rpm>
</extensions>
</trkpt>
<trkpt lat="30.610357285" lon="34.776985168">
<ele>823.453125</ele>
<time>2013-11-23T08:02:54Z</time>
<extensions>
<speed>0.0</speed>
<temp>0.00</temp>
<bpm>0</bpm>
<rpm>0.00</rpm>
</extensions>
</trkpt>
<trkpt lat="30.610357285" lon="34.776985168">
<ele>823.468750</ele>
<time>2013-11-23T08:02:59Z</time>
<speed>0.010000</speed>
<extensions>
<speed>0.0</speed>
<temp>0.00</temp>
<bpm>0</bpm>
<rpm>0.00</rpm>
</extensions>
</trkpt>
<trkpt lat="30.610357285" lon="34.776985168">
<ele>823.484375</ele>
<time>2013-11-23T08:03:04Z</time>
<extensions>
<speed>0.0</speed>
<temp>0.00</temp>
<bpm>0</bpm>
<rpm>0.00</rpm>
</extensions>
</trkpt>
<trkpt lat="30.610357285" lon="34.776985168">
<ele>823.500000</ele>
<time>2013-11-23T08:03:09Z</time>
<extensions>
<speed>0.0</speed>
<temp>0.00</temp>
<bpm>0</bpm>
<rpm>0.00</rpm>
</extensions>
</trkpt>
<trkpt lat="30.610357285" lon="34.776985168">
<ele>823.515625</ele>
<time>2013-11-23T08:03:14Z</time>
<extensions>
<speed>0.0</speed>
<temp>0.00</temp>
<bpm>0</bpm>
<rpm>0.00</rpm>
</extensions>
</trkpt>
<trkpt lat="30.610359192" lon="34.776985168">
<ele>823.531250</ele>
<time>2013-11-23T08:03:19Z</time>
<extensions>
<speed>0.0</speed>
<temp>0.00</temp>
<bpm>0</bpm>
<rpm>0.00</rpm>
</extensions>
</trkpt>
<trkpt lat="30.610359192" lon="34.776985168">
<ele>823.546875</ele>
<time>2013-11-23T08:03:24Z</time>
<extensions>
<speed>0.0</speed>
<temp>0.00</temp>
<bpm>0</bpm>
<rpm>0.00</rpm>
</extensions>
</trkpt>
<trkpt lat="30.610357285" lon="34.776985168">
<ele>823.562500</ele>
<time>2013-11-23T08:03:29Z</time>
<extensions>
<speed>0.0</speed>
<temp>0.00</temp>
<bpm>0</bpm>
<rpm>0.00</rpm>
</extensions>
</trkpt>
<trkpt lat="30.610359192" lon="34.776985168">
<ele>823.562500</ele>
<time>2013-11-23T08:03:34Z</time>
<extensions>
<speed>0.0</speed>
<temp>0.00</temp>
<bpm>0</bpm>
<rpm>0.00</rpm>
</extensions>
</trkpt>
<trkpt lat="30.610359192" lon="34.776985168">
<ele>823.562500</ele>
<time>2013-11-23T08:03:39Z</time>
<extensions>
<speed>0.0</speed>
<temp>0.00</temp>
<bpm>0</bpm>
<rpm>0.00</rpm>
</extensions>
</trkpt>
<trkpt lat="30.610359192" lon="34.776985168">
<ele>823.578125</ele>
<time>2013-11-23T08:03:44Z</time>
<extensions>
<speed>0.0</speed>
<temp>0.00</temp>
<bpm>0</bpm>
<rpm>0.00</rpm>
</extensions>
</trkpt>
<trkpt lat="30.610359192" lon="34.776985168">
<ele>823.593750</ele>
<time>2013-11-23T08:03:49Z</time>
<extensions>
<speed>0.0</speed>
<temp>0.00</temp>
<bpm>0</bpm>
<rpm>0.00</rpm>
</extensions>
</trkpt>
<trkpt lat="30.610359192" lon="34.776985168">
<ele>823.609375</ele>
<time>2013-11-23T08:03:54Z</time>
<extensions>
<speed>0.0</speed>
<temp>0.00</temp>
<bpm>0</bpm>
<rpm>0.00</rpm>
</extensions>
</trkpt>
<trkpt lat="30.610359192" lon="34.776985168">
<ele>823.625000</ele>
<time>2013-11-23T08:03:59Z</time>
<extensions>
<speed>0.0</speed>
<temp>0.00</temp>
<bpm>0</bpm>
<rpm>0.00</rpm>
</extensions>
</trkpt>
<trkpt lat="30.610359192" lon="34.776985168">
<ele>823.640625</ele>
<time>2013-11-23T08:04:04Z</time>
<extensions>
<speed>0.0</speed>
<temp>0.00</temp>
<bpm>0</bpm>
<rpm>0.00</rpm>
</extensions>
</trkpt>
<trkpt lat="30.610359192" lon="34.776985168">
<ele>823.640625</ele>
<time>2013-11-23T08:04:09Z</time>
<speed>0.020000</speed>
<extensions>
<speed>0.0</speed>
<temp>0.00</temp>
<bpm>0</bpm>
<rpm>0.00</rpm>
</extensions>
</trkpt>
<trkpt lat="30.610359192" lon="34.776985168">
<ele>823.640625</ele>
<time>2013-11-23T08:04:14Z</time>
<extensions>
<speed>0.0</speed>
<temp>0.00</temp>
<bpm>0</bpm>
<rpm>0.00</rpm>
</extensions>
</trkpt>
<trkpt lat="30.610359192" lon="34.776985168">
<ele>823.640625</ele>
<time>2013-11-23T08:04:19Z</time>
<extensions>
<speed>0.0</speed>
<temp>0.00</temp>
<bpm>0</bpm>
<rpm>0.00</rpm>
</extensions>
</trkpt>
<trkpt lat="30.610359192" lon="34.776985168">
<ele>823.656250</ele>
<time>2013-11-23T08:04:24Z</time>
<speed>0.010000</speed>
<extensions>
<speed>0.0</speed>
<temp>0.00</temp>
<bpm>0</bpm>
<rpm>0.00</rpm>
</extensions>
</trkpt>
<trkpt lat="30.610359192" lon="34.776985168">
<ele>823.671875</ele>
<time>2013-11-23T08:04:29Z</time>
<extensions>
<speed>0.0</speed>
<temp>0.00</temp>
<bpm>0</bpm>
<rpm>0.00</rpm>
</extensions>
</trkpt>
<trkpt lat="30.610359192" lon="34.776985168">
<ele>823.671875</ele>
<time>2013-11-23T08:04:34Z</time>
<extensions>
<speed>0.0</speed>
<temp>0.00</temp>
<bpm>0</bpm>
<rpm>0.00</rpm>
</extensions>
</trkpt>
<trkpt lat="30.610359192" lon="34.776985168">
<ele>823.687500</ele>
<time>2013-11-23T08:04:39Z</time>
<extensions>
<speed>0.0</speed>
<temp>0.00</temp>
<bpm>0</bpm>
<rpm>0.00</rpm>
</extensions>
</trkpt>
<trkpt lat="30.610359192" lon="34.776985168">
<ele>823.703125</ele>
<time>2013-11-23T08:04:44Z</time>
<extensions>
<speed>0.0</speed>
<temp>0.00</temp>
<bpm>0</bpm>
<rpm>0.00</rpm>
</extensions>
</trkpt>
<trkpt lat="30.610359192" lon="34.776985168">
<ele>823.703125</ele>
<time>2013-11-23T08:04:49Z</time>
<extensions>
<speed>0.0</speed>
<temp>0.00</temp>
<bpm>0</bpm>
<rpm>0.00</rpm>
</extensions>
</trkpt>
<trkpt lat="30.610359192" lon="34.776985168">
<ele>823.718750</ele>
<time>2013-11-23T08:04:54Z</time>
<extensions>
<speed>0.0</speed>
<temp>0.00</temp>
<bpm>0</bpm>
<rpm>0.00</rpm>
</extensions>
</trkpt>
<trkpt lat="30.610359192" lon="34.776985168">
<ele>823.734375</ele>
<time>2013-11-23T08:04:59Z</time>
<extensions>
<speed>0.0</speed>
<temp>0.00</temp>
<bpm>0</bpm>
<rpm>0.00</rpm>
</extensions>
</trkpt>
<trkpt lat="30.610359192" lon="34.776985168">
<ele>823.750000</ele>
<time>2013-11-23T08:05:04Z</time>
<extensions>
<speed>0.0</speed>
<temp>0.00</temp>
<bpm>0</bpm>
<rpm>0.00</rpm>
</extensions>
</trkpt>
<trkpt lat="30.610359192" lon="34.776985168">
<ele>823.750000</ele>
<time>2013-11-23T08:05:09Z</time>
<extensions>
<speed>0.0</speed>
<temp>0.00</temp>
<bpm>0</bpm>
<rpm>0.00</rpm>
</extensions>
</trkpt>
<trkpt lat="30.610359192" lon="34.776985168">
<ele>823.765625</ele>
<time>2013-11-23T08:05:14Z</time>
<extensions>
<speed>0.0</speed>
<temp>0.00</temp>
<bpm>0</bpm>
<rpm>0.00</rpm>
</extensions>
</trkpt>
<trkpt lat="30.610359192" lon="34.776985168">
<ele>823.765625</ele>
<time>2013-11-23T08:05:19Z</time>
<extensions>
<speed>0.0</speed>
<temp>0.00</temp>
<bpm>0</bpm>
<rpm>0.00</rpm>
</extensions>
</trkpt>
<trkpt lat="30.610359192" lon="34.776985168">
<ele>823.765625</ele>
<time>2013-11-23T08:05:24Z</time>
<extensions>
<speed>0.0</speed>
<temp>0.00</temp>
<bpm>0</bpm>
<rpm>0.00</rpm>
</extensions>
</trkpt>
<trkpt lat="30.610357285" lon="34.776985168">
<ele>823.781250</ele>
<time>2013-11-23T08:05:29Z</time>
<extensions>
<speed>0.0</speed>
<temp>0.00</temp>
<bpm>0</bpm>
<rpm>0.00</rpm>
</extensions>
</trkpt>
<trkpt lat="30.610357285" lon="34.776985168">
<ele>823.812500</ele>
<time>2013-11-23T08:05:34Z</time>
<speed>0.010000</speed>
<extensions>
<speed>0.0</speed>
<temp>0.00</temp>
<bpm>0</bpm>
<rpm>0.00</rpm>
</extensions>
</trkpt>
<trkpt lat="30.610357285" lon="34.776985168">
<ele>823.812500</ele>
<time>2013-11-23T08:05:39Z</time>
<extensions>
<speed>0.0</speed>
<temp>0.00</temp>
<bpm>0</bpm>
<rpm>0.00</rpm>
</extensions>
</trkpt>
<trkpt lat="30.610357285" lon="34.776985168">
<ele>823.812500</ele>
<time>2013-11-23T08:05:44Z</time>
<speed>0.010000</speed>
<extensions>
<speed>0.0</speed>
<temp>0.00</temp>
<bpm>0</bpm>
<rpm>0.00</rpm>
</extensions>
</trkpt>
<trkpt lat="30.610357285" lon="34.776985168">
<ele>823.828125</ele>
<time>2013-11-23T08:05:49Z</time>
<extensions>
<speed>0.0</speed>
<temp>0.00</temp>
<bpm>0</bpm>
<rpm>0.00</rpm>
</extensions>
</trkpt>
<trkpt lat="30.610357285" lon="34.776985168">
<ele>823.843750</ele>
<time>2013-11-23T08:05:54Z</time>
<extensions>
<speed>0.0</speed>
<temp>0.00</temp>
<bpm>0</bpm>
<rpm>0.00</rpm>
</extensions>
</trkpt>
<trkpt lat="30.610357285" lon="34.776985168">
<ele>823.843750</ele>
<time>2013-11-23T08:05:59Z</time>
<extensions>
<speed>0.0</speed>
<temp>0.00</temp>
<bpm>0</bpm>
<rpm>0.00</rpm>
</extensions>
</trkpt>
<trkpt lat="30.610357285" lon="34.776985168">
<ele>823.859375</ele>
<time>2013-11-23T08:06:04Z</time>
<speed>0.010000</speed>
<extensions>
<speed>0.0</speed>
<temp>0.00</temp>
<bpm>0</bpm>
<rpm>0.00</rpm>
</extensions>
</trkpt>
<trkpt lat="30.610357285" lon="34.776985168">
<ele>823.875000</ele>
<time>2013-11-23T08:06:09Z</time>
<extensions>
<speed>0.0</speed>
<temp>0.00</temp>
<bpm>0</bpm>
<rpm>0.00</rpm>
</extensions>
</trkpt>
<trkpt lat="30.610359192" lon="34.776985168">
<ele>823.875000</ele>
<time>2013-11-23T08:06:14Z</time>
<extensions>
<speed>0.0</speed>
<temp>0.00</temp>
<bpm>0</bpm>
<rpm>0.00</rpm>
</extensions>
</trkpt>
<trkpt lat="30.610359192" lon="34.776985168">
<ele>823.875000</ele>
<time>2013-11-23T08:06:19Z</time>
<extensions>
<speed>0.0</speed>
<temp>0.00</temp>
<bpm>0</bpm>
<rpm>0.00</rpm>
</extensions>
</trkpt>
<trkpt lat="30.610359192" lon="34.776985168">
<ele>823.875000</ele>
<time>2013-11-23T08:06:24Z</time>
<extensions>
<speed>0.0</speed>
<temp>0.00</temp>
<bpm>0</bpm>
<rpm>0.00</rpm>
</extensions>
</trkpt>
<trkpt lat="30.610359192" lon="34.776985168">
<ele>823.875000</ele>
<time>2013-11-23T08:06:29Z</time>
<extensions>
<speed>0.0</speed>
<temp>0.00</temp>
<bpm>0</bpm>
<rpm>0.00</rpm>
</extensions>
</trkpt>
<trkpt lat="30.610359192" lon="34.776985168">
<ele>823.890625</ele>
<time>2013-11-23T08:06:34Z</time>
<extensions>
<speed>0.0</speed>
<temp>0.00</temp>
<bpm>0</bpm>
<rpm>0.00</rpm>
</extensions>
</trkpt>
<trkpt lat="30.610359192" lon="34.776985168">
<ele>823.906250</ele>
<time>2013-11-23T08:06:39Z</time>
<speed>0.010000</speed>
<extensions>
<speed>0.0</speed>
<temp>0.00</temp>
<bpm>0</bpm>
<rpm>0.00</rpm>
</extensions>
</trkpt>
<trkpt lat="30.610359192" lon="34.776985168">
<ele>823.921875</ele>
<time>2013-11-23T08:06:44Z</time>
<extensions>
<speed>0.0</speed>
<temp>0.00</temp>
<bpm>0</bpm>
<rpm>0.00</rpm>
</extensions>
</trkpt>
<trkpt lat="30.610359192" lon="34.776985168">
<ele>823.937500</ele>
<time>2013-11-23T08:06:49Z</time>
<extensions>
<speed>0.0</speed>
<temp>0.00</temp>
<bpm>0</bpm>
<rpm>0.00</rpm>
</extensions>
</trkpt>
<trkpt lat="30.610359192" lon="34.776985168">
<ele>823.953125</ele>
<time>2013-11-23T08:06:54Z</time>
<extensions>
<speed>0.0</speed>
<temp>0.00</temp>
<bpm>0</bpm>
<rpm>0.00</rpm>
</extensions>
</trkpt>
<trkpt lat="30.610359192" lon="34.776985168">
<ele>823.968750</ele>
<time>2013-11-23T08:06:59Z</time>
<extensions>
<speed>0.0</speed>
<temp>0.00</temp>
<bpm>0</bpm>
<rpm>0.00</rpm>
</extensions>
</trkpt>
<trkpt lat="30.610359192" lon="34.776985168">
<ele>823.984375</ele>
<time>2013-11-23T08:07:04Z</time>
<speed>0.010000</speed>
<extensions>
<speed>0.0</speed>
<temp>0.00</temp>
<bpm>0</bpm>
<rpm>0.00</rpm>
</extensions>
</trkpt>
<trkpt lat="30.610359192" lon="34.776985168">
<ele>824.000000</ele>
<time>2013-11-23T08:07:09Z</time>
<extensions>
<speed>0.0</speed>
<temp>0.00</temp>
<bpm>0</bpm>
<rpm>0.00</rpm>
</extensions>
</trkpt>
<trkpt lat="30.610359192" lon="34.776985168">
<ele>824.000000</ele>
<time>2013-11-23T08:07:14Z</time>
<extensions>
<speed>0.0</speed>
<temp>0.00</temp>
<bpm>0</bpm>
<rpm>0.00</rpm>
</extensions>
</trkpt>
<trkpt lat="30.610359192" lon="34.776985168">
<ele>823.984375</ele>
<time>2013-11-23T08:07:19Z</time>
<extensions>
<speed>0.0</speed>
<temp>0.00</temp>
<bpm>0</bpm>
<rpm>0.00</rpm>
</extensions>
</trkpt>
<trkpt lat="30.610359192" lon="34.776985168">
<ele>823.984375</ele>
<time>2013-11-23T08:07:24Z</time>
<extensions>
<speed>0.0</speed>
<temp>0.00</temp>
<bpm>0</bpm>
<rpm>0.00</rpm>
</extensions>
</trkpt>
<trkpt lat="30.610359192" lon="34.776985168">
<ele>823.984375</ele>
<time>2013-11-23T08:07:29Z</time>
<speed>0.130000</speed>
<extensions>
<speed>0.1</speed>
<temp>0.00</temp>
<bpm>0</bpm>
<rpm>0.00</rpm>
</extensions>
</trkpt>
<trkpt lat="30.610353470" lon="34.776992798">
<ele>824.109375</ele>
<time>2013-11-23T08:07:34Z</time>
<speed>0.480000</speed>
<extensions>
<speed>0.5</speed>
<temp>0.00</temp>
<bpm>0</bpm>
<rpm>0.00</rpm>
</extensions>
</trkpt>
<trkpt lat="30.610357285" lon="34.777008057">
<ele>824.453125</ele>
<time>2013-11-23T08:07:39Z</time>
<speed>0.250000</speed>
<extensions>
<speed>0.2</speed>
<temp>0.00</temp>
<bpm>0</bpm>
<rpm>0.00</rpm>
</extensions>
</trkpt>
<trkpt lat="30.610359192" lon="34.777011871">
<ele>824.468750</ele>
<time>2013-11-23T08:07:44Z</time>
<speed>1.170000</speed>
<extensions>
<speed>1.2</speed>
<temp>0.00</temp>
<bpm>0</bpm>
<rpm>0.00</rpm>
</extensions>
</trkpt>
<trkpt lat="30.610357285" lon="34.777084351">
<ele>824.562500</ele>
<time>2013-11-23T08:07:49Z</time>
<speed>1.850000</speed>
<extensions>
<speed>1.8</speed>
<temp>0.00</temp>
<bpm>0</bpm>
<rpm>0.00</rpm>
</extensions>
</trkpt>
<trkpt lat="30.610345840" lon="34.777194977">
<ele>824.296875</ele>
<time>2013-11-23T08:07:54Z</time>
<speed>3.140000</speed>
<extensions>
<speed>3.1</speed>
<temp>0.00</temp>
<bpm>0</bpm>
<rpm>0.00</rpm>
</extensions>
</trkpt>
<trkpt lat="30.610246658" lon="34.777324677">
<ele>825.046875</ele>
<time>2013-11-23T08:07:59Z</time>
<speed>3.130000</speed>
<extensions>
<speed>3.1</speed>
<temp>0.00</temp>
<bpm>0</bpm>
<rpm>0.00</rpm>
</extensions>
</trkpt>
<trkpt lat="30.610181808" lon="34.777423859">
<ele>825.656250</ele>
<time>2013-11-23T08:08:04Z</time>
<speed>2.360000</speed>
<extensions>
<speed>2.4</speed>
<temp>0.00</temp>
<bpm>0</bpm>
<rpm>0.00</rpm>
</extensions>
</trkpt>
<trkpt lat="30.610095978" lon="34.777565002">
<ele>826.265625</ele>
<time>2013-11-23T08:08:09Z</time>
<speed>3.250000</speed>
<extensions>
<speed>3.2</speed>
<temp>0.00</temp>
<bpm>0</bpm>
<rpm>0.00</rpm>
</extensions>
</trkpt>
<trkpt lat="30.610017776" lon="34.777648926">
<ele>826.437500</ele>
<time>2013-11-23T08:08:14Z</time>
<speed>1.210000</speed>
<extensions>
<speed>1.2</speed>
<temp>0.00</temp>
<bpm>0</bpm>
<rpm>0.00</rpm>
</extensions>
</trkpt>
<trkpt lat="30.609996796" lon="34.777656555">
<ele>826.906250</ele>
<time>2013-11-23T08:08:19Z</time>
<speed>0.090000</speed>
<extensions>
<speed>0.1</speed>
<temp>0.00</temp>
<bpm>0</bpm>
<rpm>0.00</rpm>
</extensions>
</trkpt>
<trkpt lat="30.609991074" lon="34.777667999">
<ele>827.046875</ele>
<time>2013-11-23T08:08:24Z</time>
<speed>0.630000</speed>
<extensions>
<speed>0.6</speed>
<temp>0.00</temp>
<bpm>0</bpm>
<rpm>0.00</rpm>
</extensions>
</trkpt>
<trkpt lat="30.609973907" lon="34.777637482">
<ele>827.671875</ele>
<time>2013-11-23T08:08:29Z</time>
<speed>0.410000</speed>
<extensions>
<speed>0.4</speed>
<temp>0.00</temp>
<bpm>0</bpm>
<rpm>0.00</rpm>
</extensions>
</trkpt>
<trkpt lat="30.609899521" lon="34.777652740">
<ele>828.343750</ele>
<time>2013-11-23T08:08:34Z</time>
<speed>3.030000</speed>
<extensions>
<speed>3.0</speed>
<temp>0.00</temp>
<bpm>0</bpm>
<rpm>0.00</rpm>
</extensions>
</trkpt>
<trkpt lat="30.609760284" lon="34.777610779">
<ele>827.937500</ele>
<time>2013-11-23T08:08:39Z</time>
<speed>3.660000</speed>
<extensions>
<speed>3.7</speed>
<temp>0.00</temp>
<bpm>0</bpm>
<rpm>0.00</rpm>
</extensions>
</trkpt>
<trkpt lat="30.609584808" lon="34.777526855">
<ele>827.531250</ele>
<time>2013-11-23T08:08:44Z</time>
<speed>3.760000</speed>
<extensions>
<speed>3.8</speed>
<temp>0.00</temp>
<bpm>0</bpm>
<rpm>0.00</rpm>
</extensions>
</trkpt>
<trkpt lat="30.609451294" lon="34.777465820">
<ele>827.125000</ele>
<time>2013-11-23T08:08:49Z</time>
<speed>2.510000</speed>
<extensions>
<speed>2.5</speed>
<temp>0.00</temp>
<bpm>0</bpm>
<rpm>0.00</rpm>
</extensions>
</trkpt>
<trkpt lat="30.609354019" lon="34.777408600">
<ele>827.703125</ele>
<time>2013-11-23T08:08:54Z</time>
<speed>3.120000</speed>
<extensions>
<speed>3.1</speed>
<temp>0.00</temp>
<bpm>0</bpm>
<rpm>0.00</rpm>
</extensions>
</trkpt>
<trkpt lat="30.609201431" lon="34.777347565">
<ele>827.140625</ele>
<time>2013-11-23T08:08:59Z</time>
<speed>3.670000</speed>
<extensions>
<speed>3.7</speed>
<temp>0.00</temp>
<bpm>0</bpm>
<rpm>0.00</rpm>
</extensions>
</trkpt>
<trkpt lat="30.609010696" lon="34.777275085">
<ele>826.984375</ele>
<time>2013-11-23T08:09:04Z</time>
<speed>4.560000</speed>
<extensions>
<speed>4.6</speed>
<temp>0.00</temp>
<bpm>0</bpm>
<rpm>0.00</rpm>
</extensions>
</trkpt>
<trkpt lat="30.608793259" lon="34.777191162">
<ele>826.640625</ele>
<time>2013-11-23T08:09:09Z</time>
<speed>5.230000</speed>
<extensions>
<speed>5.2</speed>
<temp>0.00</temp>
<bpm>0</bpm>
<rpm>0.00</rpm>
</extensions>
</trkpt>
<trkpt lat="30.608570099" lon="34.777149200">
<ele>826.296875</ele>
<time>2013-11-23T08:09:14Z</time>
<speed>4.900000</speed>
<extensions>
<speed>4.9</speed>
<temp>0.00</temp>
<bpm>0</bpm>
<rpm>0.00</rpm>
</extensions>
</trkpt>
<trkpt lat="30.608400345" lon="34.777191162">
<ele>826.796875</ele>
<time>2013-11-23T08:09:19Z</time>
<speed>3.470000</speed>
<extensions>
<speed>3.5</speed>
<temp>0.00</temp>
<bpm>0</bpm>
<rpm>0.00</rpm>
</extensions>
</trkpt>
<trkpt lat="30.608268738" lon="34.777214050">
<ele>826.937500</ele>
<time>2013-11-23T08:09:24Z</time>
<speed>2.760000</speed>
<extensions>
<speed>2.8</speed>
<temp>0.00</temp>
<bpm>0</bpm>
<rpm>0.00</rpm>
</extensions>
</trkpt>
<trkpt lat="30.608110428" lon="34.777225494">
<ele>827.187500</ele>
<time>2013-11-23T08:09:29Z</time>
<speed>4.630000</speed>
<extensions>
<speed>4.6</speed>
<temp>0.00</temp>
<bpm>0</bpm>
<rpm>0.00</rpm>
</extensions>
</trkpt>
<trkpt lat="30.608005524" lon="34.777275085">
<ele>828.078125</ele>
<time>2013-11-23T08:09:34Z</time>
<speed>3.460000</speed>
<extensions>
<speed>3.5</speed>
<temp>0.00</temp>
<bpm>0</bpm>
<rpm>0.00</rpm>
</extensions>
</trkpt>
<trkpt lat="30.607856750" lon="34.777366638">
<ele>828.453125</ele>
<time>2013-11-23T08:09:39Z</time>
<speed>4.160000</speed>
<extensions>
<speed>4.2</speed>
<temp>0.00</temp>
<bpm>0</bpm>
<rpm>0.00</rpm>
</extensions>
</trkpt>
<trkpt lat="30.607728958" lon="34.777477264">
<ele>829.437500</ele>
<time>2013-11-23T08:09:44Z</time>
<speed>3.480000</speed>
<extensions>
<speed>3.5</speed>
<temp>0.00</temp>
<bpm>0</bpm>
<rpm>0.00</rpm>
</extensions>
</trkpt>
<trkpt lat="30.607643127" lon="34.777603149">
<ele>832.671875</ele>
<time>2013-11-23T08:09:49Z</time>
<speed>3.210000</speed>
<extensions>
<speed>3.2</speed>
<temp>0.00</temp>
<bpm>0</bpm>
<rpm>0.00</rpm>
</extensions>
</trkpt>
<trkpt lat="30.607536316" lon="34.777740479">
<ele>836.687500</ele>
<time>2013-11-23T08:09:54Z</time>
<speed>3.610000</speed>
<extensions>
<speed>3.6</speed>
<temp>0.00</temp>
<bpm>0</bpm>
<rpm>0.00</rpm>
</extensions>
</trkpt>
<trkpt lat="30.607397079" lon="34.777851105">
<ele>839.265625</ele>
<time>2013-11-23T08:09:59Z</time>
<speed>2.550000</speed>
<extensions>
<speed>2.6</speed>
<temp>0.00</temp>
<bpm>0</bpm>
<rpm>0.00</rpm>
</extensions>
</trkpt>
<trkpt lat="30.607297897" lon="34.777992249">
<ele>839.468750</ele>
<time>2013-11-23T08:10:04Z</time>
<speed>4.070000</speed>
<extensions>
<speed>4.1</speed>
<temp>0.00</temp>
<bpm>0</bpm>
<rpm>0.00</rpm>
</extensions>
</trkpt>
<trkpt lat="30.607219696" lon="34.778152466">
<ele>840.578125</ele>
<time>2013-11-23T08:10:09Z</time>
<speed>2.470000</speed>
<extensions>
<speed>2.5</speed>
<temp>0.00</temp>
<bpm>0</bpm>
<rpm>0.00</rpm>
</extensions>
</trkpt>
<trkpt lat="30.607206345" lon="34.778270721">
<ele>840.875000</ele>
<time>2013-11-23T08:10:14Z</time>
<speed>3.060000</speed>
<extensions>
<speed>3.1</speed>
<temp>0.00</temp>
<bpm>0</bpm>
<rpm>0.00</rpm>
</extensions>
</trkpt>
<trkpt lat="30.607187271" lon="34.778453827">
<ele>840.843750</ele>
<time>2013-11-23T08:10:19Z</time>
<speed>4.100000</speed>
<extensions>
<speed>4.1</speed>
<temp>0.00</temp>
<bpm>0</bpm>
<rpm>0.00</rpm>
</extensions>
</trkpt>
<trkpt lat="30.607156754" lon="34.778663635">
<ele>841.328125</ele>
<time>2013-11-23T08:10:24Z</time>
<speed>4.140000</speed>
<extensions>
<speed>4.1</speed>
<temp>0.00</temp>
<bpm>0</bpm>
<rpm>0.00</rpm>
</extensions>
</trkpt>
<trkpt lat="30.607133865" lon="34.778881073">
<ele>841.515625</ele>
<time>2013-11-23T08:10:29Z</time>
<speed>4.280000</speed>
<extensions>
<speed>4.3</speed>
<temp>0.00</temp>
<bpm>0</bpm>
<rpm>0.00</rpm>
</extensions>
</trkpt>
<trkpt lat="30.607080460" lon="34.779098511">
<ele>841.703125</ele>
<time>2013-11-23T08:10:34Z</time>
<speed>4.020000</speed>
<extensions>
<speed>4.0</speed>
<temp>0.00</temp>
<bpm>0</bpm>
<rpm>0.00</rpm>
</extensions>
</trkpt>
<trkpt lat="30.607009888" lon="34.779315948">
<ele>841.515625</ele>
<time>2013-11-23T08:10:39Z</time>
<speed>4.700000</speed>
<extensions>
<speed>4.7</speed>
<temp>0.00</temp>
<bpm>0</bpm>
<rpm>0.00</rpm>
</extensions>
</trkpt>
<trkpt lat="30.606903076" lon="34.779521942">
<ele>842.234375</ele>
<time>2013-11-23T08:10:44Z</time>
<speed>4.210000</speed>
<extensions>
<speed>4.2</speed>
<temp>0.00</temp>
<bpm>0</bpm>
<rpm>0.00</rpm>
</extensions>
</trkpt>
<trkpt lat="30.606817245" lon="34.779689789">
<ele>843.187500</ele>
<time>2013-11-23T08:10:49Z</time>
<speed>3.780000</speed>
<extensions>
<speed>3.8</speed>
<temp>0.00</temp>
<bpm>0</bpm>
<rpm>0.00</rpm>
</extensions>
</trkpt>
<trkpt lat="30.606733322" lon="34.779880524">
<ele>843.953125</ele>
<time>2013-11-23T08:10:54Z</time>
<speed>4.220000</speed>
<extensions>
<speed>4.2</speed>
<temp>0.00</temp>
<bpm>0</bpm>
<rpm>0.00</rpm>
</extensions>
</trkpt>
<trkpt lat="30.606655121" lon="34.780059814">
<ele>844.734375</ele>
<time>2013-11-23T08:10:59Z</time>
<speed>3.310000</speed>
<extensions>
<speed>3.3</speed>
<temp>0.00</temp>
<bpm>0</bpm>
<rpm>0.00</rpm>
</extensions>
</trkpt>
<trkpt lat="30.606601715" lon="34.780235291">
<ele>845.078125</ele>
<time>2013-11-23T08:11:04Z</time>
<speed>3.990000</speed>
<extensions>
<speed>4.0</speed>
<temp>0.00</temp>
<bpm>0</bpm>
<rpm>0.00</rpm>
</extensions>
</trkpt>
<trkpt lat="30.606580734" lon="34.780441284">
<ele>845.734375</ele>
<time>2013-11-23T08:11:09Z</time>
<speed>4.020000</speed>
<extensions>
<speed>4.0</speed>
<temp>0.00</temp>
<bpm>0</bpm>
<rpm>0.00</rpm>
</extensions>
</trkpt>
<trkpt lat="30.606582642" lon="34.780639648">
<ele>846.312500</ele>
<time>2013-11-23T08:11:14Z</time>
<speed>3.600000</speed>
<extensions>
<speed>3.6</speed>
<temp>0.00</temp>
<bpm>0</bpm>
<rpm>0.00</rpm>
</extensions>
</trkpt>
<trkpt lat="30.606594086" lon="34.780776978">
<ele>847.125000</ele>
<time>2013-11-23T08:11:19Z</time>
<speed>1.930000</speed>
<extensions>
<speed>1.9</speed>
<temp>0.00</temp>
<bpm>0</bpm>
<rpm>0.00</rpm>
</extensions>
</trkpt>
<trkpt lat="30.606590271" lon="34.780860901">
<ele>847.468750</ele>
<time>2013-11-23T08:11:24Z</time>
<speed>1.570000</speed>
<extensions>
<speed>1.6</speed>
<temp>0.00</temp>
<bpm>0</bpm>
<rpm>0.00</rpm>
</extensions>
</trkpt>
<trkpt lat="30.606586456" lon="34.780944824">
<ele>847.796875</ele>
<time>2013-11-23T08:11:29Z</time>
<speed>1.730000</speed>
<extensions>
<speed>1.7</speed>
<temp>0.00</temp>
<bpm>0</bpm>
<rpm>0.00</rpm>
</extensions>
</trkpt>
<trkpt lat="30.606580734" lon="34.781028748">
<ele>848.546875</ele>
<time>2013-11-23T08:11:34Z</time>
<speed>1.770000</speed>
<extensions>
<speed>1.8</speed>
<temp>0.00</temp>
<bpm>0</bpm>
<rpm>0.00</rpm>
</extensions>
</trkpt>
<trkpt lat="30.606571198" lon="34.781135559">
<ele>848.734375</ele>
<time>2013-11-23T08:11:39Z</time>
<speed>2.290000</speed>
<extensions>
<speed>2.3</speed>
<temp>0.00</temp>
<bpm>0</bpm>
<rpm>0.00</rpm>
</extensions>
</trkpt>
<trkpt lat="30.606550217" lon="34.781250000">
<ele>848.843750</ele>
<time>2013-11-23T08:11:44Z</time>
<speed>2.230000</speed>
<extensions>
<speed>2.2</speed>
<temp>0.00</temp>
<bpm>0</bpm>
<rpm>0.00</rpm>
</extensions>
</trkpt>
<trkpt lat="30.606529236" lon="34.781360626">
<ele>849.484375</ele>
<time>2013-11-23T08:11:49Z</time>
<speed>2.320000</speed>
<extensions>
<speed>2.3</speed>
<temp>0.00</temp>
<bpm>0</bpm>
<rpm>0.00</rpm>
</extensions>
</trkpt>
<trkpt lat="30.606496811" lon="34.781486511">
<ele>849.718750</ele>
<time>2013-11-23T08:11:54Z</time>
<speed>2.260000</speed>
<extensions>
<speed>2.3</speed>
<temp>0.00</temp>
<bpm>0</bpm>
<rpm>0.00</rpm>
</extensions>
</trkpt>
<trkpt lat="30.606460571" lon="34.781578064">
<ele>850.531250</ele>
<time>2013-11-23T08:11:59Z</time>
<speed>1.850000</speed>
<extensions>
<speed>1.8</speed>
<temp>0.00</temp>
<bpm>0</bpm>
<rpm>0.00</rpm>
</extensions>
</trkpt>
<trkpt lat="30.606426239" lon="34.781677246">
<ele>851.171875</ele>
<time>2013-11-23T08:12:04Z</time>
<speed>2.050000</speed>
<extensions>
<speed>2.1</speed>
<temp>0.00</temp>
<bpm>0</bpm>
<rpm>0.00</rpm>
</extensions>
</trkpt>
<trkpt lat="30.606395721" lon="34.781776428">
<ele>851.968750</ele>
<time>2013-11-23T08:12:09Z</time>
<speed>2.260000</speed>
<extensions>
<speed>2.3</speed>
<temp>0.00</temp>
<bpm>0</bpm>
<rpm>0.00</rpm>
</extensions>
</trkpt>
<trkpt lat="30.606348038" lon="34.781898499">
<ele>852.718750</ele>
<time>2013-11-23T08:12:14Z</time>
<speed>2.410000</speed>
<extensions>
<speed>2.4</speed>
<temp>0.00</temp>
<bpm>0</bpm>
<rpm>0.00</rpm>
</extensions>
</trkpt>
<trkpt lat="30.606296539" lon="34.782012939">
<ele>853.234375</ele>
<time>2013-11-23T08:12:19Z</time>
<speed>2.400000</speed>
<extensions>
<speed>2.4</speed>
<temp>0.00</temp>
<bpm>0</bpm>
<rpm>0.00</rpm>
</extensions>
</trkpt>
<trkpt lat="30.606227875" lon="34.782119751">
<ele>853.718750</ele>
<time>2013-11-23T08:12:24Z</time>
<speed>2.530000</speed>
<extensions>
<speed>2.5</speed>
<temp>0.00</temp>
<bpm>0</bpm>
<rpm>0.00</rpm>
</extensions>
</trkpt>
<trkpt lat="30.606147766" lon="34.782218933">
<ele>854.281250</ele>
<time>2013-11-23T08:12:29Z</time>
<speed>2.590000</speed>
<extensions>
<speed>2.6</speed>
<temp>0.00</temp>
<bpm>0</bpm>
<rpm>0.00</rpm>
</extensions>
</trkpt>
<trkpt lat="30.606052399" lon="34.782310486">
<ele>854.765625</ele>
<time>2013-11-23T08:12:34Z</time>
<speed>3.050000</speed>
<extensions>
<speed>3.0</speed>
<temp>0.00</temp>
<bpm>0</bpm>
<rpm>0.00</rpm>
</extensions>
</trkpt>
<trkpt lat="30.605949402" lon="34.782436371">
<ele>855.500000</ele>
<time>2013-11-23T08:12:39Z</time>
<speed>3.230000</speed>
<extensions>
<speed>3.2</speed>
<temp>0.00</temp>
<bpm>0</bpm>
<rpm>0.00</rpm>
</extensions>
</trkpt>
<trkpt lat="30.605836868" lon="34.782546997">
<ele>856.593750</ele>
<time>2013-11-23T08:12:44Z</time>
<speed>3.350000</speed>
<extensions>
<speed>3.4</speed>
<temp>0.00</temp>
<bpm>0</bpm>
<rpm>0.00</rpm>
</extensions>
</trkpt>
<trkpt lat="30.605731964" lon="34.782672882">
<ele>857.578125</ele>
<time>2013-11-23T08:12:49Z</time>
<speed>3.160000</speed>
<extensions>
<speed>3.2</speed>
<temp>0.00</temp>
<bpm>0</bpm>
<rpm>0.00</rpm>
</extensions>
</trkpt>
<trkpt lat="30.605621338" lon="34.782794952">
<ele>858.859375</ele>
<time>2013-11-23T08:12:54Z</time>
<speed>3.900000</speed>
<extensions>
<speed>3.9</speed>
<temp>0.00</temp>
<bpm>0</bpm>
<rpm>0.00</rpm>
</extensions>
</trkpt>
<trkpt lat="30.605476379" lon="34.782909393">
<ele>859.484375</ele>
<time>2013-11-23T08:12:59Z</time>
<speed>3.740000</speed>
<extensions>
<speed>3.7</speed>
<temp>0.00</temp>
<bpm>0</bpm>
<rpm>0.00</rpm>
</extensions>
</trkpt>
<trkpt lat="30.605302811" lon="34.782985687">
<ele>858.125000</ele>
<time>2013-11-23T08:13:04Z</time>
<speed>4.670000</speed>
<extensions>
<speed>4.7</speed>
<temp>0.00</temp>
<bpm>0</bpm>
<rpm>0.00</rpm>
</extensions>
</trkpt>
<trkpt lat="30.605064392" lon="34.783020020">
<ele>856.031250</ele>
<time>2013-11-23T08:13:09Z</time>
<speed>5.920000</speed>
<extensions>
<speed>5.9</speed>
<temp>0.00</temp>
<bpm>0</bpm>
<rpm>0.00</rpm>
</extensions>
</trkpt>
<trkpt lat="30.604782104" lon="34.782997131">
<ele>854.984375</ele>
<time>2013-11-23T08:13:14Z</time>
<speed>5.810000</speed>
<extensions>
<speed>5.8</speed>
<temp>0.00</temp>
<bpm>0</bpm>
<rpm>0.00</rpm>
</extensions>
</trkpt>
<trkpt lat="30.604526520" lon="34.782917023">
<ele>853.421875</ele>
<time>2013-11-23T08:13:19Z</time>
<speed>6.570000</speed>
<extensions>
<speed>6.6</speed>
<temp>0.00</temp>
<bpm>0</bpm>
<rpm>0.00</rpm>
</extensions>
</trkpt>
<trkpt lat="30.604209900" lon="34.782802582">
<ele>850.781250</ele>
<time>2013-11-23T08:13:24Z</time>
<speed>7.410000</speed>
<extensions>
<speed>7.4</speed>
<temp>0.00</temp>
<bpm>0</bpm>
<rpm>0.00</rpm>
</extensions>
</trkpt>
<trkpt lat="30.603870392" lon="34.782760620">
<ele>850.000000</ele>
<time>2013-11-23T08:13:29Z</time>
<speed>6.390000</speed>
<extensions>
<speed>6.4</speed>
<temp>0.00</temp>
<bpm>0</bpm>
<rpm>0.00</rpm>
</extensions>
</trkpt>
<trkpt lat="30.603597641" lon="34.782821655">
<ele>850.218750</ele>
<time>2013-11-23T08:13:34Z</time>
<speed>5.820000</speed>
<extensions>
<speed>5.8</speed>
<temp>0.00</temp>
<bpm>0</bpm>
<rpm>0.00</rpm>
</extensions>
</trkpt>
<trkpt lat="30.603389740" lon="34.782772064">
<ele>850.687500</ele>
<time>2013-11-23T08:13:39Z</time>
<speed>4.430000</speed>
<extensions>
<speed>4.4</speed>
<temp>0.00</temp>
<bpm>0</bpm>
<rpm>0.00</rpm>
</extensions>
</trkpt>
<trkpt lat="30.603199005" lon="34.782684326">
<ele>851.546875</ele>
<time>2013-11-23T08:13:44Z</time>
<speed>4.690000</speed>
<extensions>
<speed>4.7</speed>
<temp>0.00</temp>
<bpm>0</bpm>
<rpm>0.00</rpm>
</extensions>
</trkpt>
<trkpt lat="30.603015900" lon="34.782543182">
<ele>852.093750</ele>
<time>2013-11-23T08:13:49Z</time>
<speed>5.300000</speed>
<extensions>
<speed>5.3</speed>
<temp>0.00</temp>
<bpm>0</bpm>
<rpm>0.00</rpm>
</extensions>
</trkpt>
<trkpt lat="30.602872849" lon="34.782318115">
<ele>852.796875</ele>
<time>2013-11-23T08:13:54Z</time>
<speed>5.350000</speed>
<extensions>
<speed>5.4</speed>
<temp>0.00</temp>
<bpm>0</bpm>
<rpm>0.00</rpm>
</extensions>
</trkpt>
<trkpt lat="30.602787018" lon="34.782100677">
<ele>852.828125</ele>
<time>2013-11-23T08:13:59Z</time>
<speed>4.310000</speed>
<extensions>
<speed>4.3</speed>
<temp>0.00</temp>
<bpm>0</bpm>
<rpm>0.00</rpm>
</extensions>
</trkpt>
<trkpt lat="30.602718353" lon="34.781867981">
<ele>852.500000</ele>
<time>2013-11-23T08:14:04Z</time>
<speed>5.180000</speed>
<extensions>
<speed>5.2</speed>
<temp>0.00</temp>
<bpm>0</bpm>
<rpm>0.00</rpm>
</extensions>
</trkpt>
<trkpt lat="30.602649689" lon="34.781608582">
<ele>852.703125</ele>
<time>2013-11-23T08:14:09Z</time>
<speed>5.140000</speed>
<extensions>
<speed>5.1</speed>
<temp>0.00</temp>
<bpm>0</bpm>
<rpm>0.00</rpm>
</extensions>
</trkpt>
<trkpt lat="30.602573395" lon="34.781345367">
<ele>853.234375</ele>
<time>2013-11-23T08:14:14Z</time>
<speed>5.370000</speed>
<extensions>
<speed>5.4</speed>
<temp>0.00</temp>
<bpm>0</bpm>
<rpm>0.00</rpm>
</extensions>
</trkpt>
<trkpt lat="30.602483749" lon="34.781105042">
<ele>853.515625</ele>
<time>2013-11-23T08:14:19Z</time>
<speed>4.390000</speed>
<extensions>
<speed>4.4</speed>
<temp>0.00</temp>
<bpm>0</bpm>
<rpm>0.00</rpm>
</extensions>
</trkpt>
<trkpt lat="30.602363586" lon="34.780918121">
<ele>854.171875</ele>
<time>2013-11-23T08:14:24Z</time>
<speed>4.670000</speed>
<extensions>
<speed>4.7</speed>
<temp>0.00</temp>
<bpm>0</bpm>
<rpm>0.00</rpm>
</extensions>
</trkpt>
<trkpt lat="30.602228165" lon="34.780776978">
<ele>854.265625</ele>
<time>2013-11-23T08:14:29Z</time>
<speed>3.940000</speed>
<extensions>
<speed>3.9</speed>
<temp>0.00</temp>
<bpm>0</bpm>
<rpm>0.00</rpm>
</extensions>
</trkpt>
<trkpt lat="30.602069855" lon="34.780654907">
<ele>854.671875</ele>
<time>2013-11-23T08:14:34Z</time>
<speed>4.060000</speed>
<extensions>
<speed>4.1</speed>
<temp>0.00</temp>
<bpm>0</bpm>
<rpm>0.00</rpm>
</extensions>
</trkpt>
<trkpt lat="30.601903915" lon="34.780521393">
<ele>855.343750</ele>
<time>2013-11-23T08:14:39Z</time>
<speed>3.570000</speed>
<extensions>
<speed>3.6</speed>
<temp>0.00</temp>
<bpm>0</bpm>
<rpm>0.00</rpm>
</extensions>
</trkpt>
<trkpt lat="30.601783752" lon="34.780441284">
<ele>856.843750</ele>
<time>2013-11-23T08:14:44Z</time>
<speed>3.360000</speed>
<extensions>
<speed>3.4</speed>
<temp>0.00</temp>
<bpm>0</bpm>
<rpm>0.00</rpm>
</extensions>
</trkpt>
<trkpt lat="30.601659775" lon="34.780345917">
<ele>856.843750</ele>
<time>2013-11-23T08:14:49Z</time>
<speed>3.270000</speed>
<extensions>
<speed>3.3</speed>
<temp>0.00</temp>
<bpm>0</bpm>
<rpm>0.00</rpm>
</extensions>
</trkpt>
<trkpt lat="30.601533890" lon="34.780242920">
<ele>858.031250</ele>
<time>2013-11-23T08:14:54Z</time>
<speed>3.360000</speed>
<extensions>
<speed>3.4</speed>
<temp>0.00</temp>
<bpm>0</bpm>
<rpm>0.00</rpm>
</extensions>
</trkpt>
<trkpt lat="30.601421356" lon="34.780143738">
<ele>858.671875</ele>
<time>2013-11-23T08:14:59Z</time>
<speed>3.300000</speed>
<extensions>
<speed>3.3</speed>
<temp>0.00</temp>
<bpm>0</bpm>
<rpm>0.00</rpm>
</extensions>
</trkpt>
<trkpt lat="30.601301193" lon="34.780036926">
<ele>859.187500</ele>
<time>2013-11-23T08:15:04Z</time>
<speed>3.440000</speed>
<extensions>
<speed>3.4</speed>
<temp>0.00</temp>
<bpm>0</bpm>
<rpm>0.00</rpm>
</extensions>
</trkpt>
<trkpt lat="30.601188660" lon="34.779911041">
<ele>859.906250</ele>
<time>2013-11-23T08:15:09Z</time>
<speed>3.520000</speed>
<extensions>
<speed>3.5</speed>
<temp>0.00</temp>
<bpm>0</bpm>
<rpm>0.00</rpm>
</extensions>
</trkpt>
<trkpt lat="30.601087570" lon="34.779777527">
<ele>860.640625</ele>
<time>2013-11-23T08:15:14Z</time>
<speed>3.410000</speed>
<extensions>
<speed>3.4</speed>
<temp>0.00</temp>
<bpm>0</bpm>
<rpm>0.00</rpm>
</extensions>
</trkpt>
<trkpt lat="30.600986481" lon="34.779617310">
<ele>861.515625</ele>
<time>2013-11-23T08:15:19Z</time>
<speed>4.210000</speed>
<extensions>
<speed>4.2</speed>
<temp>0.00</temp>
<bpm>0</bpm>
<rpm>0.00</rpm>
</extensions>
</trkpt>
<trkpt lat="30.600896835" lon="34.779426575">
<ele>861.609375</ele>
<time>2013-11-23T08:15:24Z</time>
<speed>4.160000</speed>
<extensions>
<speed>4.2</speed>
<temp>0.00</temp>
<bpm>0</bpm>
<rpm>0.00</rpm>
</extensions>
</trkpt>
<trkpt lat="30.600801468" lon="34.779232025">
<ele>861.609375</ele>
<time>2013-11-23T08:15:29Z</time>
<speed>4.430000</speed>
<extensions>
<speed>4.4</speed>
<temp>0.00</temp>
<bpm>0</bpm>
<rpm>0.00</rpm>
</extensions>
</trkpt>
<trkpt lat="30.600708008" lon="34.779026031">
<ele>862.390625</ele>
<time>2013-11-23T08:15:34Z</time>
<speed>4.060000</speed>
<extensions>
<speed>4.1</speed>
<temp>0.00</temp>
<bpm>0</bpm>
<rpm>0.00</rpm>
</extensions>
</trkpt>
<trkpt lat="30.600646973" lon="34.778854370">
<ele>863.093750</ele>
<time>2013-11-23T08:15:39Z</time>
<speed>3.740000</speed>
<extensions>
<speed>3.7</speed>
<temp>0.00</temp>
<bpm>0</bpm>
<rpm>0.00</rpm>
</extensions>
</trkpt>
<trkpt lat="30.600591660" lon="34.778614044">
<ele>863.640625</ele>
<time>2013-11-23T08:15:44Z</time>
<speed>4.770000</speed>
<extensions>
<speed>4.8</speed>
<temp>0.00</temp>
<bpm>0</bpm>
<rpm>0.00</rpm>
</extensions>
</trkpt>
<trkpt lat="30.600622177" lon="34.778347015">
<ele>863.453125</ele>
<time>2013-11-23T08:15:49Z</time>
<speed>5.390000</speed>
<extensions>
<speed>5.4</speed>
<temp>0.00</temp>
<bpm>0</bpm>
<rpm>0.00</rpm>
</extensions>
</trkpt>
<trkpt lat="30.600740433" lon="34.778064728">
<ele>862.500000</ele>
<time>2013-11-23T08:15:54Z</time>
<speed>6.940000</speed>
<extensions>
<speed>6.9</speed>
<temp>0.00</temp>
<bpm>0</bpm>
<rpm>0.00</rpm>
</extensions>
</trkpt>
<trkpt lat="30.600965500" lon="34.777732849">
<ele>860.031250</ele>
<time>2013-11-23T08:15:59Z</time>
<speed>9.090000</speed>
<extensions>
<speed>9.1</speed>
<temp>0.00</temp>
<bpm>0</bpm>
<rpm>0.00</rpm>
</extensions>
</trkpt>
<trkpt lat="30.601263046" lon="34.777324677">
<ele>856.609375</ele>
<time>2013-11-23T08:16:04Z</time>
<speed>10.840000</speed>
<extensions>
<speed>10.8</speed>
<temp>0.00</temp>
<bpm>0</bpm>
<rpm>0.00</rpm>
</extensions>
</trkpt>
<trkpt lat="30.601593018" lon="34.776863098">
<ele>853.593750</ele>
<time>2013-11-23T08:16:09Z</time>
<speed>11.920000</speed>
<extensions>
<speed>11.9</speed>
<temp>0.00</temp>
<bpm>0</bpm>
<rpm>0.00</rpm>
</extensions>
</trkpt>
<trkpt lat="30.601934433" lon="34.776348114">
<ele>850.375000</ele>
<time>2013-11-23T08:16:14Z</time>
<speed>12.930000</speed>
<extensions>
<speed>12.9</speed>
<temp>0.00</temp>
<bpm>0</bpm>
<rpm>0.00</rpm>
</extensions>
</trkpt>
<trkpt lat="30.602266312" lon="34.775745392">
<ele>846.468750</ele>
<time>2013-11-23T08:16:19Z</time>
<speed>14.060000</speed>
<extensions>
<speed>14.1</speed>
<temp>0.00</temp>
<bpm>0</bpm>
<rpm>0.00</rpm>
</extensions>
</trkpt>
<trkpt lat="30.602327347" lon="34.775001526">
<ele>843.312500</ele>
<time>2013-11-23T08:16:24Z</time>
<speed>12.840000</speed>
<extensions>
<speed>12.8</speed>
<temp>0.00</temp>
<bpm>0</bpm>
<rpm>0.00</rpm>
</extensions>
</trkpt>
<trkpt lat="30.602102280" lon="34.774478912">
<ele>846.515625</ele>
<time>2013-11-23T08:16:29Z</time>
<speed>9.920001</speed>
<extensions>
<speed>9.9</speed>
<temp>0.00</temp>
<bpm>0</bpm>
<rpm>0.00</rpm>
</extensions>
</trkpt>
<trkpt lat="30.601865768" lon="34.774116516">
<ele>848.234375</ele>
<time>2013-11-23T08:16:34Z</time>
<speed>7.660000</speed>
<extensions>
<speed>7.7</speed>
<temp>0.00</temp>
<bpm>0</bpm>
<rpm>0.00</rpm>
</extensions>
</trkpt>
<trkpt lat="30.601655960" lon="34.773803711">
<ele>847.843750</ele>
<time>2013-11-23T08:16:39Z</time>
<speed>6.890000</speed>
<extensions>
<speed>6.9</speed>
<temp>0.00</temp>
<bpm>0</bpm>
<rpm>0.00</rpm>
</extensions>
</trkpt>
<trkpt lat="30.601459503" lon="34.773498535">
<ele>847.218750</ele>
<time>2013-11-23T08:16:44Z</time>
<speed>7.400000</speed>
<extensions>
<speed>7.4</speed>
<temp>0.00</temp>
<bpm>0</bpm>
<rpm>0.00</rpm>
</extensions>
</trkpt>
<trkpt lat="30.601272583" lon="34.773197174">
<ele>846.734375</ele>
<time>2013-11-23T08:16:49Z</time>
<speed>7.180000</speed>
<extensions>
<speed>7.2</speed>
<temp>0.00</temp>
<bpm>0</bpm>
<rpm>0.00</rpm>
</extensions>
</trkpt>
<trkpt lat="30.601108551" lon="34.772937775">
<ele>847.156250</ele>
<time>2013-11-23T08:16:54Z</time>
<speed>5.490000</speed>
<extensions>
<speed>5.5</speed>
<temp>0.00</temp>
<bpm>0</bpm>
<rpm>0.00</rpm>
</extensions>
</trkpt>
<trkpt lat="30.600967407" lon="34.772720337">
<ele>847.468750</ele>
<time>2013-11-23T08:16:59Z</time>
<speed>5.520000</speed>
<extensions>
<speed>5.5</speed>
<temp>0.00</temp>
<bpm>0</bpm>
<rpm>0.00</rpm>
</extensions>
</trkpt>
<trkpt lat="30.600782394" lon="34.772521973">
<ele>847.734375</ele>
<time>2013-11-23T08:17:04Z</time>
<speed>5.730000</speed>
<extensions>
<speed>5.7</speed>
<temp>0.00</temp>
<bpm>0</bpm>
<rpm>0.00</rpm>
</extensions>
</trkpt>
<trkpt lat="30.600570679" lon="34.772399902">
<ele>848.687500</ele>
<time>2013-11-23T08:17:09Z</time>
<speed>4.320000</speed>
<extensions>
<speed>4.3</speed>
<temp>0.00</temp>
<bpm>0</bpm>
<rpm>0.00</rpm>
</extensions>
</trkpt>
<trkpt lat="30.600387573" lon="34.772335052">
<ele>849.046875</ele>
<time>2013-11-23T08:17:14Z</time>
<speed>4.100000</speed>
<extensions>
<speed>4.1</speed>
<temp>0.00</temp>
<bpm>0</bpm>
<rpm>0.00</rpm>
</extensions>
</trkpt>
<trkpt lat="30.600206375" lon="34.772277832">
<ele>849.546875</ele>
<time>2013-11-23T08:17:19Z</time>
<speed>4.080000</speed>
<extensions>
<speed>4.1</speed>
<temp>0.00</temp>
<bpm>0</bpm>
<rpm>0.00</rpm>
</extensions>
</trkpt>
<trkpt lat="30.600015640" lon="34.772228241">
<ele>849.640625</ele>
<time>2013-11-23T08:17:24Z</time>
<speed>3.850000</speed>
<extensions>
<speed>3.8</speed>
<temp>0.00</temp>
<bpm>0</bpm>
<rpm>0.00</rpm>
</extensions>
</trkpt>
<trkpt lat="30.599880219" lon="34.772186279">
<ele>849.875000</ele>
<time>2013-11-23T08:17:29Z</time>
<speed>3.210000</speed>
<extensions>
<speed>3.2</speed>
<temp>0.00</temp>
<bpm>0</bpm>
<rpm>0.00</rpm>
</extensions>
</trkpt>
<trkpt lat="30.599731445" lon="34.772144318">
<ele>850.406250</ele>
<time>2013-11-23T08:17:34Z</time>
<speed>3.270000</speed>
<extensions>
<speed>3.3</speed>
<temp>0.00</temp>
<bpm>0</bpm>
<rpm>0.00</rpm>
</extensions>
</trkpt>
<trkpt lat="30.599626541" lon="34.772113800">
<ele>850.796875</ele>
<time>2013-11-23T08:17:39Z</time>
<speed>1.370000</speed>
<extensions>
<speed>1.4</speed>
<temp>0.00</temp>
<bpm>0</bpm>
<rpm>0.00</rpm>
</extensions>
</trkpt>
<trkpt lat="30.599563599" lon="34.772087097">
<ele>851.359375</ele>
<time>2013-11-23T08:17:44Z</time>
<speed>1.290000</speed>
<extensions>
<speed>1.3</speed>
<temp>0.00</temp>
<bpm>0</bpm>
<rpm>0.00</rpm>
</extensions>
</trkpt>
<trkpt lat="30.599475861" lon="34.772060394">
<ele>851.578125</ele>
<time>2013-11-23T08:17:49Z</time>
<speed>3.150000</speed>
<extensions>
<speed>3.2</speed>
<temp>0.00</temp>
<bpm>0</bpm>
<rpm>0.00</rpm>
</extensions>
</trkpt>
<trkpt lat="30.599319458" lon="34.772010803">
<ele>852.031250</ele>
<time>2013-11-23T08:17:54Z</time>
<speed>3.690000</speed>
<extensions>
<speed>3.7</speed>
<temp>0.00</temp>
<bpm>0</bpm>
<rpm>0.00</rpm>
</extensions>
</trkpt>
<trkpt lat="30.599145889" lon="34.771957397">
<ele>852.515625</ele>
<time>2013-11-23T08:17:59Z</time>
<speed>3.850000</speed>
<extensions>
<speed>3.8</speed>
<temp>0.00</temp>
<bpm>0</bpm>
<rpm>0.00</rpm>
</extensions>
</trkpt>
<trkpt lat="30.598976135" lon="34.771896362">
<ele>852.968750</ele>
<time>2013-11-23T08:18:04Z</time>
<speed>4.050000</speed>
<extensions>
<speed>4.0</speed>
<temp>0.00</temp>
<bpm>0</bpm>
<rpm>0.00</rpm>
</extensions>
</trkpt>
<trkpt lat="30.598812103" lon="34.771804810">
<ele>853.468750</ele>
<time>2013-11-23T08:18:09Z</time>
<speed>4.110000</speed>
<extensions>
<speed>4.1</speed>
<temp>0.00</temp>
<bpm>0</bpm>
<rpm>0.00</rpm>
</extensions>
</trkpt>
<trkpt lat="30.598657608" lon="34.771690369">
<ele>853.937500</ele>
<time>2013-11-23T08:18:14Z</time>
<speed>4.310000</speed>
<extensions>
<speed>4.3</speed>
<temp>0.00</temp>
<bpm>0</bpm>
<rpm>0.00</rpm>
</extensions>
</trkpt>
<trkpt lat="30.598545074" lon="34.771526337">
<ele>854.562500</ele>
<time>2013-11-23T08:18:19Z</time>
<speed>3.940000</speed>
<extensions>
<speed>3.9</speed>
<temp>0.00</temp>
<bpm>0</bpm>
<rpm>0.00</rpm>
</extensions>
</trkpt>
<trkpt lat="30.598470688" lon="34.771320343">
<ele>854.593750</ele>
<time>2013-11-23T08:18:24Z</time>
<speed>4.770000</speed>
<extensions>
<speed>4.8</speed>
<temp>0.00</temp>
<bpm>0</bpm>
<rpm>0.00</rpm>
</extensions>
</trkpt>
<trkpt lat="30.598409653" lon="34.771068573">
<ele>854.531250</ele>
<time>2013-11-23T08:18:29Z</time>
<speed>5.190000</speed>
<extensions>
<speed>5.2</speed>
<temp>0.00</temp>
<bpm>0</bpm>
<rpm>0.00</rpm>
</extensions>
</trkpt>
<trkpt lat="30.598354340" lon="34.770824432">
<ele>855.218750</ele>
<time>2013-11-23T08:18:34Z</time>
<speed>4.730000</speed>
<extensions>
<speed>4.7</speed>
<temp>0.00</temp>
<bpm>0</bpm>
<rpm>0.00</rpm>
</extensions>
</trkpt>
<trkpt lat="30.598285675" lon="34.770584106">
<ele>855.500000</ele>
<time>2013-11-23T08:18:39Z</time>
<speed>5.160000</speed>
<extensions>
<speed>5.2</speed>
<temp>0.00</temp>
<bpm>0</bpm>
<rpm>0.00</rpm>
</extensions>
</trkpt>
<trkpt lat="30.598217010" lon="34.770313263">
<ele>855.546875</ele>
<time>2013-11-23T08:18:44Z</time>
<speed>5.570000</speed>
<extensions>
<speed>5.6</speed>
<temp>0.00</temp>
<bpm>0</bpm>
<rpm>0.00</rpm>
</extensions>
</trkpt>
<trkpt lat="30.598152161" lon="34.770030975">
<ele>855.687500</ele>
<time>2013-11-23T08:18:49Z</time>
<speed>5.410000</speed>
<extensions>
<speed>5.4</speed>
<temp>0.00</temp>
<bpm>0</bpm>
<rpm>0.00</rpm>
</extensions>
</trkpt>
<trkpt lat="30.598114014" lon="34.769744873">
<ele>855.250000</ele>
<time>2013-11-23T08:18:54Z</time>
<speed>5.880000</speed>
<extensions>
<speed>5.9</speed>
<temp>0.00</temp>
<bpm>0</bpm>
<rpm>0.00</rpm>
</extensions>
</trkpt>
<trkpt lat="30.598136902" lon="34.769409180">
<ele>854.203125</ele>
<time>2013-11-23T08:18:59Z</time>
<speed>6.830000</speed>
<extensions>
<speed>6.8</speed>
<temp>0.00</temp>
<bpm>0</bpm>
<rpm>0.00</rpm>
</extensions>
</trkpt>
<trkpt lat="30.598207474" lon="34.769012451">
<ele>852.031250</ele>
<time>2013-11-23T08:19:04Z</time>
<speed>8.610000</speed>
<extensions>
<speed>8.6</speed>
<temp>0.00</temp>
<bpm>0</bpm>
<rpm>0.00</rpm>
</extensions>
</trkpt>
<trkpt lat="30.598295212" lon="34.768524170">
<ele>848.218750</ele>
<time>2013-11-23T08:19:09Z</time>
<speed>10.160000</speed>
<extensions>
<speed>10.2</speed>
<temp>0.00</temp>
<bpm>0</bpm>
<rpm>0.00</rpm>
</extensions>
</trkpt>
<trkpt lat="30.598390579" lon="34.767936707">
<ele>843.234375</ele>
<time>2013-11-23T08:19:14Z</time>
<speed>12.260000</speed>
<extensions>
<speed>12.3</speed>
<temp>0.00</temp>
<bpm>0</bpm>
<rpm>0.00</rpm>
</extensions>
</trkpt>
<trkpt lat="30.598487854" lon="34.767295837">
<ele>841.703125</ele>
<time>2013-11-23T08:19:19Z</time>
<speed>11.890000</speed>
<extensions>
<speed>11.9</speed>
<temp>0.00</temp>
<bpm>0</bpm>
<rpm>0.00</rpm>
</extensions>
</trkpt>
<trkpt lat="30.598630905" lon="34.766723633">
<ele>840.609375</ele>
<time>2013-11-23T08:19:24Z</time>
<speed>10.890000</speed>
<extensions>
<speed>10.9</speed>
<temp>0.00</temp>
<bpm>0</bpm>
<rpm>0.00</rpm>
</extensions>
</trkpt>
<trkpt lat="30.598754883" lon="34.766201019">
<ele>839.921875</ele>
<time>2013-11-23T08:19:29Z</time>
<speed>10.040000</speed>
<extensions>
<speed>10.0</speed>
<temp>0.00</temp>
<bpm>0</bpm>
<rpm>0.00</rpm>
</extensions>
</trkpt>
<trkpt lat="30.598754883" lon="34.765785217">
<ele>838.546875</ele>
<time>2013-11-23T08:19:34Z</time>
<speed>6.370000</speed>
<extensions>
<speed>6.4</speed>
<temp>0.00</temp>
<bpm>0</bpm>
<rpm>0.00</rpm>
</extensions>
</trkpt>
<trkpt lat="30.598634720" lon="34.765598297">
<ele>837.421875</ele>
<time>2013-11-23T08:19:39Z</time>
<speed>0.540000</speed>
<extensions>
<speed>0.5</speed>
<temp>0.00</temp>
<bpm>0</bpm>
<rpm>0.00</rpm>
</extensions>
</trkpt>
<trkpt lat="30.598634720" lon="34.765598297">
<ele>836.953125</ele>
<time>2013-11-23T08:19:44Z</time>
<speed>0.010000</speed>
<extensions>
<speed>0.0</speed>
<temp>0.00</temp>
<bpm>0</bpm>
<rpm>0.00</rpm>
</extensions>
</trkpt>
<trkpt lat="30.598632813" lon="34.765598297">
<ele>836.921875</ele>
<time>2013-11-23T08:19:49Z</time>
<speed>0.010000</speed>
<extensions>
<speed>0.0</speed>
<temp>0.00</temp>
<bpm>0</bpm>
<rpm>0.00</rpm>
</extensions>
</trkpt>
<trkpt lat="30.598634720" lon="34.765598297">
<ele>836.937500</ele>
<time>2013-11-23T08:19:54Z</time>
<speed>0.030000</speed>
<extensions>
<speed>0.0</speed>
<temp>0.00</temp>
<bpm>0</bpm>
<rpm>0.00</rpm>
</extensions>
</trkpt>
<trkpt lat="30.598634720" lon="34.765598297">
<ele>836.906250</ele>
<time>2013-11-23T08:19:59Z</time>
<speed>0.070000</speed>
<extensions>
<speed>0.1</speed>
<temp>0.00</temp>
<bpm>0</bpm>
<rpm>0.00</rpm>
</extensions>
</trkpt>
<trkpt lat="30.598632813" lon="34.765598297">
<ele>836.890625</ele>
<time>2013-11-23T08:20:04Z</time>
<speed>0.090000</speed>
<extensions>
<speed>0.1</speed>
<temp>0.00</temp>
<bpm>0</bpm>
<rpm>0.00</rpm>
</extensions>
</trkpt>
<trkpt lat="30.598632813" lon="34.765579224">
<ele>836.875000</ele>
<time>2013-11-23T08:20:09Z</time>
<speed>1.190000</speed>
<extensions>
<speed>1.2</speed>
<temp>0.00</temp>
<bpm>0</bpm>
<rpm>0.00</rpm>
</extensions>
</trkpt>
<trkpt lat="30.598682404" lon="34.765670776">
<ele>839.562500</ele>
<time>2013-11-23T08:20:14Z</time>
<speed>3.530000</speed>
<extensions>
<speed>3.5</speed>
<temp>0.00</temp>
<bpm>0</bpm>
<rpm>0.00</rpm>
</extensions>
</trkpt>
<trkpt lat="30.598745346" lon="34.765838623">
<ele>841.234375</ele>
<time>2013-11-23T08:20:19Z</time>
<speed>3.680000</speed>
<extensions>
<speed>3.7</speed>
<temp>0.00</temp>
<bpm>0</bpm>
<rpm>0.00</rpm>
</extensions>
</trkpt>
<trkpt lat="30.598743439" lon="34.766017914">
<ele>841.296875</ele>
<time>2013-11-23T08:20:24Z</time>
<speed>3.170000</speed>
<extensions>
<speed>3.2</speed>
<temp>0.00</temp>
<bpm>0</bpm>
<rpm>0.00</rpm>
</extensions>
</trkpt>
<trkpt lat="30.598724365" lon="34.766155243">
<ele>840.421875</ele>
<time>2013-11-23T08:20:29Z</time>
<speed>2.490000</speed>
<extensions>
<speed>2.5</speed>
<temp>0.00</temp>
<bpm>0</bpm>
<rpm>0.00</rpm>
</extensions>
</trkpt>
<trkpt lat="30.598669052" lon="34.766292572">
<ele>841.218750</ele>
<time>2013-11-23T08:20:34Z</time>
<speed>3.820000</speed>
<extensions>
<speed>3.8</speed>
<temp>0.00</temp>
<bpm>0</bpm>
<rpm>0.00</rpm>
</extensions>
</trkpt>
<trkpt lat="30.598602295" lon="34.766506195">
<ele>840.218750</ele>
<time>2013-11-23T08:20:39Z</time>
<speed>4.260000</speed>
<extensions>
<speed>4.3</speed>
<temp>0.00</temp>
<bpm>0</bpm>
<rpm>0.00</rpm>
</extensions>
</trkpt>
<trkpt lat="30.598533630" lon="34.766738892">
<ele>839.312500</ele>
<time>2013-11-23T08:20:44Z</time>
<speed>4.530000</speed>
<extensions>
<speed>4.5</speed>
<temp>0.00</temp>
<bpm>0</bpm>
<rpm>0.00</rpm>
</extensions>
</trkpt>
<trkpt lat="30.598461151" lon="34.766967773">
<ele>838.734375</ele>
<time>2013-11-23T08:20:49Z</time>
<speed>4.440000</speed>
<extensions>
<speed>4.4</speed>
<temp>0.00</temp>
<bpm>0</bpm>
<rpm>0.00</rpm>
</extensions>
</trkpt>
<trkpt lat="30.598411560" lon="34.767143250">
<ele>838.734375</ele>
<time>2013-11-23T08:20:54Z</time>
<speed>2.850000</speed>
<extensions>
<speed>2.9</speed>
<temp>0.00</temp>
<bpm>0</bpm>
<rpm>0.00</rpm>
</extensions>
</trkpt>
<trkpt lat="30.598379135" lon="34.767242432">
<ele>839.250000</ele>
<time>2013-11-23T08:20:59Z</time>
<speed>2.040000</speed>
<extensions>
<speed>2.0</speed>
<temp>0.00</temp>
<bpm>0</bpm>
<rpm>0.00</rpm>
</extensions>
</trkpt>
<trkpt lat="30.598342896" lon="34.767314911">
<ele>837.671875</ele>
<time>2013-11-23T08:21:04Z</time>
<speed>1.580000</speed>
<extensions>
<speed>1.6</speed>
<temp>0.00</temp>
<bpm>0</bpm>
<rpm>0.00</rpm>
</extensions>
</trkpt>
<trkpt lat="30.598318100" lon="34.767421722">
<ele>836.968750</ele>
<time>2013-11-23T08:21:09Z</time>
<speed>2.650000</speed>
<extensions>
<speed>2.6</speed>
<temp>0.00</temp>
<bpm>0</bpm>
<rpm>0.00</rpm>
</extensions>
</trkpt>
<trkpt lat="30.598287582" lon="34.767570496">
<ele>836.875000</ele>
<time>2013-11-23T08:21:14Z</time>
<speed>3.050000</speed>
<extensions>
<speed>3.0</speed>
<temp>0.00</temp>
<bpm>0</bpm>
<rpm>0.00</rpm>
</extensions>
</trkpt>
<trkpt lat="30.598264694" lon="34.767719269">
<ele>837.171875</ele>
<time>2013-11-23T08:21:19Z</time>
<speed>1.750000</speed>
<extensions>
<speed>1.8</speed>
<temp>0.00</temp>
<bpm>0</bpm>
<rpm>0.00</rpm>
</extensions>
</trkpt>
<trkpt lat="30.598237991" lon="34.767761230">
<ele>837.078125</ele>
<time>2013-11-23T08:21:24Z</time>
<speed>1.340000</speed>
<extensions>
<speed>1.3</speed>
<temp>0.00</temp>
<bpm>0</bpm>
<rpm>0.00</rpm>
</extensions>
</trkpt>
<trkpt lat="30.598222733" lon="34.767829895">
<ele>837.093750</ele>
<time>2013-11-23T08:21:29Z</time>
<speed>1.370000</speed>
<extensions>
<speed>1.4</speed>
<temp>0.00</temp>
<bpm>0</bpm>
<rpm>0.00</rpm>
</extensions>
</trkpt>
<trkpt lat="30.598228455" lon="34.767917633">
<ele>837.312500</ele>
<time>2013-11-23T08:21:34Z</time>
<speed>1.550000</speed>
<extensions>
<speed>1.5</speed>
<temp>0.00</temp>
<bpm>0</bpm>
<rpm>0.00</rpm>
</extensions>
</trkpt>
<trkpt lat="30.598222733" lon="34.767990112">
<ele>838.906250</ele>
<time>2013-11-23T08:21:39Z</time>
<speed>0.920000</speed>
<extensions>
<speed>0.9</speed>
<temp>0.00</temp>
<bpm>0</bpm>
<rpm>0.00</rpm>
</extensions>
</trkpt>
<trkpt lat="30.598234177" lon="34.768051147">
<ele>839.843750</ele>
<time>2013-11-23T08:21:44Z</time>
<speed>1.420000</speed>
<extensions>
<speed>1.4</speed>
<temp>0.00</temp>
<bpm>0</bpm>
<rpm>0.00</rpm>
</extensions>
</trkpt>
<trkpt lat="30.598321915" lon="34.768024445">
<ele>841.781250</ele>
<time>2013-11-23T08:21:49Z</time>
<speed>3.150000</speed>
<extensions>
<speed>3.2</speed>
<temp>0.00</temp>
<bpm>0</bpm>
<rpm>0.00</rpm>
</extensions>
</trkpt>
<trkpt lat="30.598445892" lon="34.767910004">
<ele>841.718750</ele>
<time>2013-11-23T08:21:54Z</time>
<speed>3.840000</speed>
<extensions>
<speed>3.8</speed>
<temp>0.00</temp>
<bpm>0</bpm>
<rpm>0.00</rpm>
</extensions>
</trkpt>
<trkpt lat="30.598606110" lon="34.767738342">
<ele>842.609375</ele>
<time>2013-11-23T08:21:59Z</time>
<speed>5.300000</speed>
<extensions>
<speed>5.3</speed>
<temp>0.00</temp>
<bpm>0</bpm>
<rpm>0.00</rpm>
</extensions>
</trkpt>
<trkpt lat="30.598733902" lon="34.767509460">
<ele>843.218750</ele>
<time>2013-11-23T08:22:04Z</time>
<speed>5.430000</speed>
<extensions>
<speed>5.4</speed>
<temp>0.00</temp>
<bpm>0</bpm>
<rpm>0.00</rpm>
</extensions>
</trkpt>
<trkpt lat="30.598743439" lon="34.767208099">
<ele>842.125000</ele>
<time>2013-11-23T08:22:09Z</time>
<speed>5.790000</speed>
<extensions>
<speed>5.8</speed>
<temp>0.00</temp>
<bpm>0</bpm>
<rpm>0.00</rpm>
</extensions>
</trkpt>
<trkpt lat="30.598815918" lon="34.766857147">
<ele>839.968750</ele>
<time>2013-11-23T08:22:14Z</time>
<speed>7.990000</speed>
<extensions>
<speed>8.0</speed>
<temp>0.00</temp>
<bpm>0</bpm>
<rpm>0.00</rpm>
</extensions>
</trkpt>
<trkpt lat="30.598997116" lon="34.766487122">
<ele>838.734375</ele>
<time>2013-11-23T08:22:19Z</time>
<speed>7.930000</speed>
<extensions>
<speed>7.9</speed>
<temp>0.00</temp>
<bpm>0</bpm>
<rpm>0.00</rpm>
</extensions>
</trkpt>
<trkpt lat="30.599210739" lon="34.766159058">
<ele>837.875000</ele>
<time>2013-11-23T08:22:24Z</time>
<speed>7.670000</speed>
<extensions>
<speed>7.7</speed>
<temp>0.00</temp>
<bpm>0</bpm>
<rpm>0.00</rpm>
</extensions>
</trkpt>
<trkpt lat="30.599473953" lon="34.765888214">
<ele>839.000000</ele>
<time>2013-11-23T08:22:29Z</time>
<speed>7.870000</speed>
<extensions>
<speed>7.9</speed>
<temp>0.00</temp>
<bpm>0</bpm>
<rpm>0.00</rpm>
</extensions>
</trkpt>
<trkpt lat="30.599693298" lon="34.765560150">
<ele>839.031250</ele>
<time>2013-11-23T08:22:34Z</time>
<speed>8.500000</speed>
<extensions>
<speed>8.5</speed>
<temp>0.00</temp>
<bpm>0</bpm>
<rpm>0.00</rpm>
</extensions>
</trkpt>
<trkpt lat="30.599832535" lon="34.765121460">
<ele>838.421875</ele>
<time>2013-11-23T08:22:39Z</time>
<speed>8.610000</speed>
<extensions>
<speed>8.6</speed>
<temp>0.00</temp>
<bpm>0</bpm>
<rpm>0.00</rpm>
</extensions>
</trkpt>
<trkpt lat="30.600107193" lon="34.764862061">
<ele>842.406250</ele>
<time>2013-11-23T08:22:44Z</time>
<speed>6.980000</speed>
<extensions>
<speed>7.0</speed>
<temp>0.00</temp>
<bpm>0</bpm>
<rpm>0.00</rpm>
</extensions>
</trkpt>
<trkpt lat="30.600339890" lon="34.764617920">
<ele>844.187500</ele>
<time>2013-11-23T08:22:49Z</time>
<speed>6.320000</speed>
<extensions>
<speed>6.3</speed>
<temp>0.00</temp>
<bpm>0</bpm>
<rpm>0.00</rpm>
</extensions>
</trkpt>
<trkpt lat="30.600484848" lon="34.764366150">
<ele>844.859375</ele>
<time>2013-11-23T08:22:54Z</time>
<speed>6.190000</speed>
<extensions>
<speed>6.2</speed>
<temp>0.00</temp>
<bpm>0</bpm>
<rpm>0.00</rpm>
</extensions>
</trkpt>
<trkpt lat="30.600664139" lon="34.764072418">
<ele>844.078125</ele>
<time>2013-11-23T08:22:59Z</time>
<speed>6.510000</speed>
<extensions>
<speed>6.5</speed>
<temp>0.00</temp>
<bpm>0</bpm>
<rpm>0.00</rpm>
</extensions>
</trkpt>
<trkpt lat="30.600811005" lon="34.763774872">
<ele>842.968750</ele>
<time>2013-11-23T08:23:04Z</time>
<speed>6.610000</speed>
<extensions>
<speed>6.6</speed>
<temp>0.00</temp>
<bpm>0</bpm>
<rpm>0.00</rpm>
</extensions>
</trkpt>
<trkpt lat="30.600906372" lon="34.763465881">
<ele>842.203125</ele>
<time>2013-11-23T08:23:09Z</time>
<speed>6.090000</speed>
<extensions>
<speed>6.1</speed>
<temp>0.00</temp>
<bpm>0</bpm>
<rpm>0.00</rpm>
</extensions>
</trkpt>
<trkpt lat="30.600975037" lon="34.763145447">
<ele>841.703125</ele>
<time>2013-11-23T08:23:14Z</time>
<speed>6.560000</speed>
<extensions>
<speed>6.6</speed>
<temp>0.00</temp>
<bpm>0</bpm>
<rpm>0.00</rpm>
</extensions>
</trkpt>
<trkpt lat="30.601057053" lon="34.762813568">
<ele>839.921875</ele>
<time>2013-11-23T08:23:19Z</time>
<speed>6.090000</speed>
<extensions>
<speed>6.1</speed>
<temp>0.00</temp>
<bpm>0</bpm>
<rpm>0.00</rpm>
</extensions>
</trkpt>
<trkpt lat="30.601123810" lon="34.762500763">
<ele>839.187500</ele>
<time>2013-11-23T08:23:24Z</time>
<speed>6.590000</speed>
<extensions>
<speed>6.6</speed>
<temp>0.00</temp>
<bpm>0</bpm>
<rpm>0.00</rpm>
</extensions>
</trkpt>
<trkpt lat="30.601186752" lon="34.762165070">
<ele>838.468750</ele>
<time>2013-11-23T08:23:29Z</time>
<speed>6.350000</speed>
<extensions>
<speed>6.4</speed>
<temp>0.00</temp>
<bpm>0</bpm>
<rpm>0.00</rpm>
</extensions>
</trkpt>
<trkpt lat="30.601257324" lon="34.761840820">
<ele>838.046875</ele>
<time>2013-11-23T08:23:34Z</time>
<speed>6.580000</speed>
<extensions>
<speed>6.6</speed>
<temp>0.00</temp>
<bpm>0</bpm>
<rpm>0.00</rpm>
</extensions>
</trkpt>
<trkpt lat="30.601316452" lon="34.761520386">
<ele>837.250000</ele>
<time>2013-11-23T08:23:39Z</time>
<speed>6.150000</speed>
<extensions>
<speed>6.1</speed>
<temp>0.00</temp>
<bpm>0</bpm>
<rpm>0.00</rpm>
</extensions>
</trkpt>
<trkpt lat="30.601406097" lon="34.761211395">
<ele>836.671875</ele>
<time>2013-11-23T08:23:44Z</time>
<speed>5.430000</speed>
<extensions>
<speed>5.4</speed>
<temp>0.00</temp>
<bpm>0</bpm>
<rpm>0.00</rpm>
</extensions>
</trkpt>
<trkpt lat="30.601554871" lon="34.761001587">
<ele>838.437500</ele>
<time>2013-11-23T08:23:49Z</time>
<speed>5.500000</speed>
<extensions>
<speed>5.5</speed>
<temp>0.00</temp>
<bpm>0</bpm>
<rpm>0.00</rpm>
</extensions>
</trkpt>
<trkpt lat="30.601665497" lon="34.760734558">
<ele>840.734375</ele>
<time>2013-11-23T08:23:54Z</time>
<speed>6.520000</speed>
<extensions>
<speed>6.5</speed>
<temp>0.00</temp>
<bpm>0</bpm>
<rpm>0.00</rpm>
</extensions>
</trkpt>
<trkpt lat="30.601779938" lon="34.760410309">
<ele>840.359375</ele>
<time>2013-11-23T08:23:59Z</time>
<speed>7.200000</speed>
<extensions>
<speed>7.2</speed>
<temp>0.00</temp>
<bpm>0</bpm>
<rpm>0.00</rpm>
</extensions>
</trkpt>
<trkpt lat="30.601886749" lon="34.760021210">
<ele>838.109375</ele>
<time>2013-11-23T08:24:04Z</time>
<speed>7.200000</speed>
<extensions>
<speed>7.2</speed>
<temp>0.00</temp>
<bpm>0</bpm>
<rpm>0.00</rpm>
</extensions>
</trkpt>
<trkpt lat="30.602041245" lon="34.759757996">
<ele>839.000000</ele>
<time>2013-11-23T08:24:09Z</time>
<speed>5.720000</speed>
<extensions>
<speed>5.7</speed>
<temp>0.00</temp>
<bpm>0</bpm>
<rpm>0.00</rpm>
</extensions>
</trkpt>
<trkpt lat="30.602239609" lon="34.759544373">
<ele>838.953125</ele>
<time>2013-11-23T08:24:14Z</time>
<speed>6.400000</speed>
<extensions>
<speed>6.4</speed>
<temp>0.00</temp>
<bpm>0</bpm>
<rpm>0.00</rpm>
</extensions>
</trkpt>
<trkpt lat="30.602382660" lon="34.759239197">
<ele>839.328125</ele>
<time>2013-11-23T08:24:19Z</time>
<speed>6.700000</speed>
<extensions>
<speed>6.7</speed>
<temp>0.00</temp>
<bpm>0</bpm>
<rpm>0.00</rpm>
</extensions>
</trkpt>
<trkpt lat="30.602502823" lon="34.758941650">
<ele>840.656250</ele>
<time>2013-11-23T08:24:24Z</time>
<speed>6.230000</speed>
<extensions>
<speed>6.2</speed>
<temp>0.00</temp>
<bpm>0</bpm>
<rpm>0.00</rpm>
</extensions>
</trkpt>
<trkpt lat="30.602571487" lon="34.758628845">
<ele>840.343750</ele>
<time>2013-11-23T08:24:29Z</time>
<speed>6.310000</speed>
<extensions>
<speed>6.3</speed>
<temp>0.00</temp>
<bpm>0</bpm>
<rpm>0.00</rpm>
</extensions>
</trkpt>
<trkpt lat="30.602590561" lon="34.758312225">
<ele>839.656250</ele>
<time>2013-11-23T08:24:34Z</time>
<speed>5.990000</speed>
<extensions>
<speed>6.0</speed>
<temp>0.00</temp>
<bpm>0</bpm>
<rpm>0.00</rpm>
</extensions>
</trkpt>
<trkpt lat="30.602586746" lon="34.757976532">
<ele>837.156250</ele>
<time>2013-11-23T08:24:39Z</time>
<speed>6.130000</speed>
<extensions>
<speed>6.1</speed>
<temp>0.00</temp>
<bpm>0</bpm>
<rpm>0.00</rpm>
</extensions>
</trkpt>
<trkpt lat="30.602535248" lon="34.757678986">
<ele>834.218750</ele>
<time>2013-11-23T08:24:44Z</time>
<speed>5.720000</speed>
<extensions>
<speed>5.7</speed>
<temp>0.00</temp>
<bpm>0</bpm>
<rpm>0.00</rpm>
</extensions>
</trkpt>
<trkpt lat="30.602457047" lon="34.757369995">
<ele>831.578125</ele>
<time>2013-11-23T08:24:49Z</time>
<speed>5.930000</speed>
<extensions>
<speed>5.9</speed>
<temp>0.00</temp>
<bpm>0</bpm>
<rpm>0.00</rpm>
</extensions>
</trkpt>
<trkpt lat="30.602390289" lon="34.757049561">
<ele>828.843750</ele>
<time>2013-11-23T08:24:54Z</time>
<speed>6.470000</speed>
<extensions>
<speed>6.5</speed>
<temp>0.00</temp>
<bpm>0</bpm>
<rpm>0.00</rpm>
</extensions>
</trkpt>
<trkpt lat="30.602321625" lon="34.756729126">
<ele>828.312500</ele>
<time>2013-11-23T08:24:59Z</time>
<speed>6.330000</speed>
<extensions>
<speed>6.3</speed>
<temp>0.00</temp>
<bpm>0</bpm>
<rpm>0.00</rpm>
</extensions>
</trkpt>
<trkpt lat="30.602294922" lon="34.756427765">
<ele>828.125000</ele>
<time>2013-11-23T08:25:04Z</time>
<speed>5.260000</speed>
<extensions>
<speed>5.3</speed>
<temp>0.00</temp>
<bpm>0</bpm>
<rpm>0.00</rpm>
</extensions>
</trkpt>
<trkpt lat="30.602344513" lon="34.756149292">
<ele>829.093750</ele>
<time>2013-11-23T08:25:09Z</time>
<speed>5.550000</speed>
<extensions>
<speed>5.5</speed>
<temp>0.00</temp>
<bpm>0</bpm>
<rpm>0.00</rpm>
</extensions>
</trkpt>
<trkpt lat="30.602388382" lon="34.755863190">
<ele>829.343750</ele>
<time>2013-11-23T08:25:14Z</time>
<speed>6.020000</speed>
<extensions>
<speed>6.0</speed>
<temp>0.00</temp>
<bpm>0</bpm>
<rpm>0.00</rpm>
</extensions>
</trkpt>
<trkpt lat="30.602447510" lon="34.755538940">
<ele>828.781250</ele>
<time>2013-11-23T08:25:19Z</time>
<speed>6.890000</speed>
<extensions>
<speed>6.9</speed>
<temp>0.00</temp>
<bpm>0</bpm>
<rpm>0.00</rpm>
</extensions>
</trkpt>
<trkpt lat="30.602634430" lon="34.755279541">
<ele>827.875000</ele>
<time>2013-11-23T08:25:24Z</time>
<speed>6.200000</speed>
<extensions>
<speed>6.2</speed>
<temp>0.00</temp>
<bpm>0</bpm>
<rpm>0.00</rpm>
</extensions>
</trkpt>
<trkpt lat="30.602878571" lon="34.755130768">
<ele>827.109375</ele>
<time>2013-11-23T08:25:29Z</time>
<speed>6.000000</speed>
<extensions>
<speed>6.0</speed>
<temp>0.00</temp>
<bpm>0</bpm>
<rpm>0.00</rpm>
</extensions>
</trkpt>
<trkpt lat="30.603097916" lon="34.754947662">
<ele>827.171875</ele>
<time>2013-11-23T08:25:34Z</time>
<speed>6.500000</speed>
<extensions>
<speed>6.5</speed>
<temp>0.00</temp>
<bpm>0</bpm>
<rpm>0.00</rpm>
</extensions>
</trkpt>
<trkpt lat="30.603296280" lon="34.754669189">
<ele>827.281250</ele>
<time>2013-11-23T08:25:39Z</time>
<speed>6.850000</speed>
<extensions>
<speed>6.8</speed>
<temp>0.00</temp>
<bpm>0</bpm>
<rpm>0.00</rpm>
</extensions>
</trkpt>
<trkpt lat="30.603445053" lon="34.754348755">
<ele>825.406250</ele>
<time>2013-11-23T08:25:44Z</time>
<speed>6.740000</speed>
<extensions>
<speed>6.7</speed>
<temp>0.00</temp>
<bpm>0</bpm>
<rpm>0.00</rpm>
</extensions>
</trkpt>
<trkpt lat="30.603614807" lon="34.754066467">
<ele>823.531250</ele>
<time>2013-11-23T08:25:49Z</time>
<speed>6.490000</speed>
<extensions>
<speed>6.5</speed>
<temp>0.00</temp>
<bpm>0</bpm>
<rpm>0.00</rpm>
</extensions>
</trkpt>
<trkpt lat="30.603820801" lon="34.753795624">
<ele>824.156250</ele>
<time>2013-11-23T08:25:54Z</time>
<speed>7.070000</speed>
<extensions>
<speed>7.1</speed>
<temp>0.00</temp>
<bpm>0</bpm>
<rpm>0.00</rpm>
</extensions>
</trkpt>
<trkpt lat="30.603967667" lon="34.753498077">
<ele>825.953125</ele>
<time>2013-11-23T08:25:59Z</time>
<speed>6.140000</speed>
<extensions>
<speed>6.1</speed>
<temp>0.00</temp>
<bpm>0</bpm>
<rpm>0.00</rpm>
</extensions>
</trkpt>
<trkpt lat="30.604078293" lon="34.753231049">
<ele>827.390625</ele>
<time>2013-11-23T08:26:04Z</time>
<speed>5.440000</speed>
<extensions>
<speed>5.4</speed>
<temp>0.00</temp>
<bpm>0</bpm>
<rpm>0.00</rpm>
</extensions>
</trkpt>
<trkpt lat="30.604198456" lon="34.752983093">
<ele>828.984375</ele>
<time>2013-11-23T08:26:09Z</time>
<speed>5.670000</speed>
<extensions>
<speed>5.7</speed>
<temp>0.00</temp>
<bpm>0</bpm>
<rpm>0.00</rpm>
</extensions>
</trkpt>
<trkpt lat="30.604331970" lon="34.752723694">
<ele>829.968750</ele>
<time>2013-11-23T08:26:14Z</time>
<speed>6.040000</speed>
<extensions>
<speed>6.0</speed>
<temp>0.00</temp>
<bpm>0</bpm>
<rpm>0.00</rpm>
</extensions>
</trkpt>
<trkpt lat="30.604490280" lon="34.752468109">
<ele>830.281250</ele>
<time>2013-11-23T08:26:19Z</time>
<speed>5.960000</speed>
<extensions>
<speed>6.0</speed>
<temp>0.00</temp>
<bpm>0</bpm>
<rpm>0.00</rpm>
</extensions>
</trkpt>
<trkpt lat="30.604663849" lon="34.752235413">
<ele>829.734375</ele>
<time>2013-11-23T08:26:24Z</time>
<speed>6.280000</speed>
<extensions>
<speed>6.3</speed>
<temp>0.00</temp>
<bpm>0</bpm>
<rpm>0.00</rpm>
</extensions>
</trkpt>
<trkpt lat="30.604825974" lon="34.751937866">
<ele>828.421875</ele>
<time>2013-11-23T08:26:29Z</time>
<speed>6.920000</speed>
<extensions>
<speed>6.9</speed>
<temp>0.00</temp>
<bpm>0</bpm>
<rpm>0.00</rpm>
</extensions>
</trkpt>
<trkpt lat="30.604955673" lon="34.751609802">
<ele>828.265625</ele>
<time>2013-11-23T08:26:34Z</time>
<speed>6.790000</speed>
<extensions>
<speed>6.8</speed>
<temp>0.00</temp>
<bpm>0</bpm>
<rpm>0.00</rpm>
</extensions>
</trkpt>
<trkpt lat="30.605125427" lon="34.751316071">
<ele>827.593750</ele>
<time>2013-11-23T08:26:39Z</time>
<speed>6.910000</speed>
<extensions>
<speed>6.9</speed>
<temp>0.00</temp>
<bpm>0</bpm>
<rpm>0.00</rpm>
</extensions>
</trkpt>
<trkpt lat="30.605342865" lon="34.751098633">
<ele>827.140625</ele>
<time>2013-11-23T08:26:44Z</time>
<speed>6.300000</speed>
<extensions>
<speed>6.3</speed>
<temp>0.00</temp>
<bpm>0</bpm>
<rpm>0.00</rpm>
</extensions>
</trkpt>
<trkpt lat="30.605598450" lon="34.750949860">
<ele>827.062500</ele>
<time>2013-11-23T08:26:49Z</time>
<speed>6.830000</speed>
<extensions>
<speed>6.8</speed>
<temp>0.00</temp>
<bpm>0</bpm>
<rpm>0.00</rpm>
</extensions>
</trkpt>
<trkpt lat="30.605857849" lon="34.750747681">
<ele>826.453125</ele>
<time>2013-11-23T08:26:54Z</time>
<speed>6.960000</speed>
<extensions>
<speed>7.0</speed>
<temp>0.00</temp>
<bpm>0</bpm>
<rpm>0.00</rpm>
</extensions>
</trkpt>
<trkpt lat="30.606069565" lon="34.750507355">
<ele>826.062500</ele>
<time>2013-11-23T08:26:59Z</time>
<speed>6.450000</speed>
<extensions>
<speed>6.4</speed>
<temp>0.00</temp>
<bpm>0</bpm>
<rpm>0.00</rpm>
</extensions>
</trkpt>
<trkpt lat="30.606254578" lon="34.750267029">
<ele>824.015625</ele>
<time>2013-11-23T08:27:04Z</time>
<speed>5.510000</speed>
<extensions>
<speed>5.5</speed>
<temp>0.00</temp>
<bpm>0</bpm>
<rpm>0.00</rpm>
</extensions>
</trkpt>
<trkpt lat="30.606445313" lon="34.750099182">
<ele>822.734375</ele>
<time>2013-11-23T08:27:09Z</time>
<speed>5.380000</speed>
<extensions>
<speed>5.4</speed>
<temp>0.00</temp>
<bpm>0</bpm>
<rpm>0.00</rpm>
</extensions>
</trkpt>
<trkpt lat="30.606651306" lon="34.749942780">
<ele>820.921875</ele>
<time>2013-11-23T08:27:14Z</time>
<speed>5.550000</speed>
<extensions>
<speed>5.5</speed>
<temp>0.00</temp>
<bpm>0</bpm>
<rpm>0.00</rpm>
</extensions>
</trkpt>
<trkpt lat="30.606836319" lon="34.749790192">
<ele>820.421875</ele>
<time>2013-11-23T08:27:19Z</time>
<speed>4.640000</speed>
<extensions>
<speed>4.6</speed>
<temp>0.00</temp>
<bpm>0</bpm>
<rpm>0.00</rpm>
</extensions>
</trkpt>
<trkpt lat="30.607000351" lon="34.749656677">
<ele>819.828125</ele>
<time>2013-11-23T08:27:24Z</time>
<speed>4.740000</speed>
<extensions>
<speed>4.7</speed>
<temp>0.00</temp>
<bpm>0</bpm>
<rpm>0.00</rpm>
</extensions>
</trkpt>
<trkpt lat="30.607172012" lon="34.749500275">
<ele>820.375000</ele>
<time>2013-11-23T08:27:29Z</time>
<speed>5.110000</speed>
<extensions>
<speed>5.1</speed>
<temp>0.00</temp>
<bpm>0</bpm>
<rpm>0.00</rpm>
</extensions>
</trkpt>
<trkpt lat="30.607378006" lon="34.749347687">
<ele>821.078125</ele>
<time>2013-11-23T08:27:34Z</time>
<speed>5.480000</speed>
<extensions>
<speed>5.5</speed>
<temp>0.00</temp>
<bpm>0</bpm>
<rpm>0.00</rpm>
</extensions>
</trkpt>
<trkpt lat="30.607519150" lon="34.749134064">
<ele>820.484375</ele>
<time>2013-11-23T08:27:39Z</time>
<speed>4.950000</speed>
<extensions>
<speed>4.9</speed>
<temp>0.00</temp>
<bpm>0</bpm>
<rpm>0.00</rpm>
</extensions>
</trkpt>
<trkpt lat="30.607707977" lon="34.749057770">
<ele>821.562500</ele>
<time>2013-11-23T08:27:44Z</time>
<speed>4.480000</speed>
<extensions>
<speed>4.5</speed>
<temp>0.00</temp>
<bpm>0</bpm>
<rpm>0.00</rpm>
</extensions>
</trkpt>
<trkpt lat="30.607934952" lon="34.749076843">
<ele>821.937500</ele>
<time>2013-11-23T08:27:49Z</time>
<speed>5.100000</speed>
<extensions>
<speed>5.1</speed>
<temp>0.00</temp>
<bpm>0</bpm>
<rpm>0.00</rpm>
</extensions>
</trkpt>
<trkpt lat="30.608188629" lon="34.749057770">
<ele>822.265625</ele>
<time>2013-11-23T08:27:54Z</time>
<speed>5.930000</speed>
<extensions>
<speed>5.9</speed>
<temp>0.00</temp>
<bpm>0</bpm>
<rpm>0.00</rpm>
</extensions>
</trkpt>
<trkpt lat="30.608486176" lon="34.749034882">
<ele>822.078125</ele>
<time>2013-11-23T08:27:59Z</time>
<speed>6.340000</speed>
<extensions>
<speed>6.3</speed>
<temp>0.00</temp>
<bpm>0</bpm>
<rpm>0.00</rpm>
</extensions>
</trkpt>
<trkpt lat="30.608774185" lon="34.749031067">
<ele>822.234375</ele>
<time>2013-11-23T08:28:04Z</time>
<speed>6.220000</speed>
<extensions>
<speed>6.2</speed>
<temp>0.00</temp>
<bpm>0</bpm>
<rpm>0.00</rpm>
</extensions>
</trkpt>
<trkpt lat="30.609046936" lon="34.748977661">
<ele>822.359375</ele>
<time>2013-11-23T08:28:09Z</time>
<speed>5.900000</speed>
<extensions>
<speed>5.9</speed>
<temp>0.00</temp>
<bpm>0</bpm>
<rpm>0.00</rpm>
</extensions>
</trkpt>
<trkpt lat="30.609306335" lon="34.748882294">
<ele>822.593750</ele>
<time>2013-11-23T08:28:14Z</time>
<speed>6.210000</speed>
<extensions>
<speed>6.2</speed>
<temp>0.00</temp>
<bpm>0</bpm>
<rpm>0.00</rpm>
</extensions>
</trkpt>
<trkpt lat="30.609565735" lon="34.748783112">
<ele>822.468750</ele>
<time>2013-11-23T08:28:19Z</time>
<speed>5.960000</speed>
<extensions>
<speed>6.0</speed>
<temp>0.00</temp>
<bpm>0</bpm>
<rpm>0.00</rpm>
</extensions>
</trkpt>
<trkpt lat="30.609811783" lon="34.748687744">
<ele>822.390625</ele>
<time>2013-11-23T08:28:24Z</time>
<speed>5.580000</speed>
<extensions>
<speed>5.6</speed>
<temp>0.00</temp>
<bpm>0</bpm>
<rpm>0.00</rpm>
</extensions>
</trkpt>
<trkpt lat="30.610046387" lon="34.748596191">
<ele>822.187500</ele>
<time>2013-11-23T08:28:29Z</time>
<speed>5.060000</speed>
<extensions>
<speed>5.1</speed>
<temp>0.00</temp>
<bpm>0</bpm>
<rpm>0.00</rpm>
</extensions>
</trkpt>
<trkpt lat="30.610212326" lon="34.748432159">
<ele>822.093750</ele>
<time>2013-11-23T08:28:34Z</time>
<speed>5.270000</speed>
<extensions>
<speed>5.3</speed>
<temp>0.00</temp>
<bpm>0</bpm>
<rpm>0.00</rpm>
</extensions>
</trkpt>
<trkpt lat="30.610221863" lon="34.748157501">
<ele>821.765625</ele>
<time>2013-11-23T08:28:39Z</time>
<speed>5.290000</speed>
<extensions>
<speed>5.3</speed>
<temp>0.00</temp>
<bpm>0</bpm>
<rpm>0.00</rpm>
</extensions>
</trkpt>
<trkpt lat="30.610170364" lon="34.747882843">
<ele>820.546875</ele>
<time>2013-11-23T08:28:44Z</time>
<speed>5.350000</speed>
<extensions>
<speed>5.4</speed>
<temp>0.00</temp>
<bpm>0</bpm>
<rpm>0.00</rpm>
</extensions>
</trkpt>
<trkpt lat="30.610090256" lon="34.747619629">
<ele>818.734375</ele>
<time>2013-11-23T08:28:49Z</time>
<speed>5.350000</speed>
<extensions>
<speed>5.4</speed>
<temp>0.00</temp>
<bpm>0</bpm>
<rpm>0.00</rpm>
</extensions>
</trkpt>
<trkpt lat="30.610000610" lon="34.747356415">
<ele>818.125000</ele>
<time>2013-11-23T08:28:54Z</time>
<speed>5.350000</speed>
<extensions>
<speed>5.4</speed>
<temp>0.00</temp>
<bpm>0</bpm>
<rpm>0.00</rpm>
</extensions>
</trkpt>
<trkpt lat="30.609895706" lon="34.747116089">
<ele>817.328125</ele>
<time>2013-11-23T08:28:59Z</time>
<speed>4.690000</speed>
<extensions>
<speed>4.7</speed>
<temp>0.00</temp>
<bpm>0</bpm>
<rpm>0.00</rpm>
</extensions>
</trkpt>
<trkpt lat="30.609806061" lon="34.746879578">
<ele>815.265625</ele>
<time>2013-11-23T08:29:04Z</time>
<speed>5.120000</speed>
<extensions>
<speed>5.1</speed>
<temp>0.00</temp>
<bpm>0</bpm>
<rpm>0.00</rpm>
</extensions>
</trkpt>
<trkpt lat="30.609760284" lon="34.746612549">
<ele>814.625000</ele>
<time>2013-11-23T08:29:09Z</time>
<speed>5.070000</speed>
<extensions>
<speed>5.1</speed>
<temp>0.00</temp>
<bpm>0</bpm>
<rpm>0.00</rpm>
</extensions>
</trkpt>
<trkpt lat="30.609725952" lon="34.746383667">
<ele>813.562500</ele>
<time>2013-11-23T08:29:14Z</time>
<speed>3.500000</speed>
<extensions>
<speed>3.5</speed>
<temp>0.00</temp>
<bpm>0</bpm>
<rpm>0.00</rpm>
</extensions>
</trkpt>
<trkpt lat="30.609699249" lon="34.746231079">
<ele>812.781250</ele>
<time>2013-11-23T08:29:19Z</time>
<speed>2.480000</speed>
<extensions>
<speed>2.5</speed>
<temp>0.00</temp>
<bpm>0</bpm>
<rpm>0.00</rpm>
</extensions>
</trkpt>
<trkpt lat="30.609642029" lon="34.746120453">
<ele>811.687500</ele>
<time>2013-11-23T08:29:24Z</time>
<speed>1.990000</speed>
<extensions>
<speed>2.0</speed>
<temp>0.00</temp>
<bpm>0</bpm>
<rpm>0.00</rpm>
</extensions>
</trkpt>
<trkpt lat="30.609588623" lon="34.746063232">
<ele>810.484375</ele>
<time>2013-11-23T08:29:29Z</time>
<speed>1.430000</speed>
<extensions>
<speed>1.4</speed>
<temp>0.00</temp>
<bpm>0</bpm>
<rpm>0.00</rpm>
</extensions>
</trkpt>
<trkpt lat="30.609525681" lon="34.745986938">
<ele>809.937500</ele>
<time>2013-11-23T08:29:34Z</time>
<speed>1.200000</speed>
<extensions>
<speed>1.2</speed>
<temp>0.00</temp>
<bpm>0</bpm>
<rpm>0.00</rpm>
</extensions>
</trkpt>
<trkpt lat="30.609468460" lon="34.745971680">
<ele>809.421875</ele>
<time>2013-11-23T08:29:39Z</time>
<speed>1.510000</speed>
<extensions>
<speed>1.5</speed>
<temp>0.00</temp>
<bpm>0</bpm>
<rpm>0.00</rpm>
</extensions>
</trkpt>
<trkpt lat="30.609376907" lon="34.745975494">
<ele>809.375000</ele>
<time>2013-11-23T08:29:44Z</time>
<speed>2.550000</speed>
<extensions>
<speed>2.6</speed>
<temp>0.00</temp>
<bpm>0</bpm>
<rpm>0.00</rpm>
</extensions>
</trkpt>
<trkpt lat="30.609235764" lon="34.745956421">
<ele>808.890625</ele>
<time>2013-11-23T08:29:49Z</time>
<speed>2.780000</speed>
<extensions>
<speed>2.8</speed>
<temp>0.00</temp>
<bpm>0</bpm>
<rpm>0.00</rpm>
</extensions>
</trkpt>
<trkpt lat="30.609123230" lon="34.745910645">
<ele>808.484375</ele>
<time>2013-11-23T08:29:54Z</time>
<speed>2.730000</speed>
<extensions>
<speed>2.7</speed>
<temp>0.00</temp>
<bpm>0</bpm>
<rpm>0.00</rpm>
</extensions>
</trkpt>
<trkpt lat="30.608987808" lon="34.745853424">
<ele>808.578125</ele>
<time>2013-11-23T08:29:59Z</time>
<speed>3.430000</speed>
<extensions>
<speed>3.4</speed>
<temp>0.00</temp>
<bpm>0</bpm>
<rpm>0.00</rpm>
</extensions>
</trkpt>
<trkpt lat="30.608840942" lon="34.745765686">
<ele>809.187500</ele>
<time>2013-11-23T08:30:04Z</time>
<speed>3.550000</speed>
<extensions>
<speed>3.5</speed>
<temp>0.00</temp>
<bpm>0</bpm>
<rpm>0.00</rpm>
</extensions>
</trkpt>
<trkpt lat="30.608718872" lon="34.745670319">
<ele>809.312500</ele>
<time>2013-11-23T08:30:09Z</time>
<speed>3.290000</speed>
<extensions>
<speed>3.3</speed>
<temp>0.00</temp>
<bpm>0</bpm>
<rpm>0.00</rpm>
</extensions>
</trkpt>
<trkpt lat="30.608570099" lon="34.745594025">
<ele>808.250000</ele>
<time>2013-11-23T08:30:14Z</time>
<speed>3.900000</speed>
<extensions>
<speed>3.9</speed>
<temp>0.00</temp>
<bpm>0</bpm>
<rpm>0.00</rpm>
</extensions>
</trkpt>
<trkpt lat="30.608421326" lon="34.745525360">
<ele>808.187500</ele>
<time>2013-11-23T08:30:19Z</time>
<speed>3.090000</speed>
<extensions>
<speed>3.1</speed>
<temp>0.00</temp>
<bpm>0</bpm>
<rpm>0.00</rpm>
</extensions>
</trkpt>
<trkpt lat="30.608276367" lon="34.745433807">
<ele>808.468750</ele>
<time>2013-11-23T08:30:24Z</time>
<speed>3.710000</speed>
<extensions>
<speed>3.7</speed>
<temp>0.00</temp>
<bpm>0</bpm>
<rpm>0.00</rpm>
</extensions>
</trkpt>
<trkpt lat="30.608127594" lon="34.745361328">
<ele>808.859375</ele>
<time>2013-11-23T08:30:29Z</time>
<speed>3.180000</speed>
<extensions>
<speed>3.2</speed>
<temp>0.00</temp>
<bpm>0</bpm>
<rpm>0.00</rpm>
</extensions>
</trkpt>
<trkpt lat="30.607995987" lon="34.745285034">
<ele>808.796875</ele>
<time>2013-11-23T08:30:34Z</time>
<speed>3.110000</speed>
<extensions>
<speed>3.1</speed>
<temp>0.00</temp>
<bpm>0</bpm>
<rpm>0.00</rpm>
</extensions>
</trkpt>
<trkpt lat="30.607872009" lon="34.745182037">
<ele>808.593750</ele>
<time>2013-11-23T08:30:39Z</time>
<speed>3.580000</speed>
<extensions>
<speed>3.6</speed>
<temp>0.00</temp>
<bpm>0</bpm>
<rpm>0.00</rpm>
</extensions>
</trkpt>
<trkpt lat="30.607721329" lon="34.745082855">
<ele>808.515625</ele>
<time>2013-11-23T08:30:44Z</time>
<speed>4.380000</speed>
<extensions>
<speed>4.4</speed>
<temp>0.00</temp>
<bpm>0</bpm>
<rpm>0.00</rpm>
</extensions>
</trkpt>
<trkpt lat="30.607553482" lon="34.744953156">
<ele>808.531250</ele>
<time>2013-11-23T08:30:49Z</time>
<speed>3.720000</speed>
<extensions>
<speed>3.7</speed>
<temp>0.00</temp>
<bpm>0</bpm>
<rpm>0.00</rpm>
</extensions>
</trkpt>
<trkpt lat="30.607393265" lon="34.744850159">
<ele>808.546875</ele>
<time>2013-11-23T08:30:54Z</time>
<speed>4.420000</speed>
<extensions>
<speed>4.4</speed>
<temp>0.00</temp>
<bpm>0</bpm>
<rpm>0.00</rpm>
</extensions>
</trkpt>
<trkpt lat="30.607206345" lon="34.744728088">
<ele>808.031250</ele>
<time>2013-11-23T08:30:59Z</time>
<speed>4.470000</speed>
<extensions>
<speed>4.5</speed>
<temp>0.00</temp>
<bpm>0</bpm>
<rpm>0.00</rpm>
</extensions>
</trkpt>
<trkpt lat="30.607032776" lon="34.744613647">
<ele>808.062500</ele>
<time>2013-11-23T08:31:04Z</time>
<speed>4.580000</speed>
<extensions>
<speed>4.6</speed>
<temp>0.00</temp>
<bpm>0</bpm>
<rpm>0.00</rpm>
</extensions>
</trkpt>
<trkpt lat="30.606828690" lon="34.744541168">
<ele>808.296875</ele>
<time>2013-11-23T08:31:09Z</time>
<speed>4.830000</speed>
<extensions>
<speed>4.8</speed>
<temp>0.00</temp>
<bpm>0</bpm>
<rpm>0.00</rpm>
</extensions>
</trkpt>
<trkpt lat="30.606636047" lon="34.744510651">
<ele>808.500000</ele>
<time>2013-11-23T08:31:14Z</time>
<speed>3.550000</speed>
<extensions>
<speed>3.5</speed>
<temp>0.00</temp>
<bpm>0</bpm>
<rpm>0.00</rpm>
</extensions>
</trkpt>
<trkpt lat="30.606498718" lon="34.744503021">
<ele>808.796875</ele>
<time>2013-11-23T08:31:19Z</time>
<speed>3.270000</speed>
<extensions>
<speed>3.3</speed>
<temp>0.00</temp>
<bpm>0</bpm>
<rpm>0.00</rpm>
</extensions>
</trkpt>
<trkpt lat="30.606355667" lon="34.744449615">
<ele>809.328125</ele>
<time>2013-11-23T08:31:24Z</time>
<speed>2.850000</speed>
<extensions>
<speed>2.9</speed>
<temp>0.00</temp>
<bpm>0</bpm>
<rpm>0.00</rpm>
</extensions>
</trkpt>
<trkpt lat="30.606222153" lon="34.744403839">
<ele>809.890625</ele>
<time>2013-11-23T08:31:29Z</time>
<speed>3.590000</speed>
<extensions>
<speed>3.6</speed>
<temp>0.00</temp>
<bpm>0</bpm>
<rpm>0.00</rpm>
</extensions>
</trkpt>
<trkpt lat="30.606058121" lon="34.744361877">
<ele>810.250000</ele>
<time>2013-11-23T08:31:34Z</time>
<speed>3.940000</speed>
<extensions>
<speed>3.9</speed>
<temp>0.00</temp>
<bpm>0</bpm>
<rpm>0.00</rpm>
</extensions>
</trkpt>
<trkpt lat="30.605945587" lon="34.744319916">
<ele>811.406250</ele>
<time>2013-11-23T08:31:39Z</time>
<speed>1.780000</speed>
<extensions>
<speed>1.8</speed>
<temp>0.00</temp>
<bpm>0</bpm>
<rpm>0.00</rpm>
</extensions>
</trkpt>
<trkpt lat="30.605840683" lon="34.744285583">
<ele>812.343750</ele>
<time>2013-11-23T08:31:44Z</time>
<speed>2.380000</speed>
<extensions>
<speed>2.4</speed>
<temp>0.00</temp>
<bpm>0</bpm>
<rpm>0.00</rpm>
</extensions>
</trkpt>
<trkpt lat="30.605697632" lon="34.744228363">
<ele>812.125000</ele>
<time>2013-11-23T08:31:49Z</time>
<speed>3.710000</speed>
<extensions>
<speed>3.7</speed>
<temp>0.00</temp>
<bpm>0</bpm>
<rpm>0.00</rpm>
</extensions>
</trkpt>
<trkpt lat="30.605539322" lon="34.744159698">
<ele>811.968750</ele>
<time>2013-11-23T08:31:54Z</time>
<speed>3.790000</speed>
<extensions>
<speed>3.8</speed>
<temp>0.00</temp>
<bpm>0</bpm>
<rpm>0.00</rpm>
</extensions>
</trkpt>
<trkpt lat="30.605356216" lon="34.744113922">
<ele>812.171875</ele>
<time>2013-11-23T08:31:59Z</time>
<speed>4.710000</speed>
<extensions>
<speed>4.7</speed>
<temp>0.00</temp>
<bpm>0</bpm>
<rpm>0.00</rpm>
</extensions>
</trkpt>
<trkpt lat="30.605184555" lon="34.744026184">
<ele>812.234375</ele>
<time>2013-11-23T08:32:04Z</time>
<speed>3.650000</speed>
<extensions>
<speed>3.7</speed>
<temp>0.00</temp>
<bpm>0</bpm>
<rpm>0.00</rpm>
</extensions>
</trkpt>
<trkpt lat="30.605020523" lon="34.743942261">
<ele>812.078125</ele>
<time>2013-11-23T08:32:09Z</time>
<speed>4.030000</speed>
<extensions>
<speed>4.0</speed>
<temp>0.00</temp>
<bpm>0</bpm>
<rpm>0.00</rpm>
</extensions>
</trkpt>
<trkpt lat="30.604862213" lon="34.743938446">
<ele>811.859375</ele>
<time>2013-11-23T08:32:14Z</time>
<speed>3.870000</speed>
<extensions>
<speed>3.9</speed>
<temp>0.00</temp>
<bpm>0</bpm>
<rpm>0.00</rpm>
</extensions>
</trkpt>
<trkpt lat="30.604688644" lon="34.743904114">
<ele>811.937500</ele>
<time>2013-11-23T08:32:19Z</time>
<speed>3.430000</speed>
<extensions>
<speed>3.4</speed>
<temp>0.00</temp>
<bpm>0</bpm>
<rpm>0.00</rpm>
</extensions>
</trkpt>
<trkpt lat="30.604553223" lon="34.743888855">
<ele>812.203125</ele>
<time>2013-11-23T08:32:24Z</time>
<speed>3.340000</speed>
<extensions>
<speed>3.3</speed>
<temp>0.00</temp>
<bpm>0</bpm>
<rpm>0.00</rpm>
</extensions>
</trkpt>
<trkpt lat="30.604404449" lon="34.743785858">
<ele>811.843750</ele>
<time>2013-11-23T08:32:29Z</time>
<speed>4.090000</speed>
<extensions>
<speed>4.1</speed>
<temp>0.00</temp>
<bpm>0</bpm>
<rpm>0.00</rpm>
</extensions>
</trkpt>
<trkpt lat="30.604290009" lon="34.743831635">
<ele>812.453125</ele>
<time>2013-11-23T08:32:34Z</time>
<speed>2.770000</speed>
<extensions>
<speed>2.8</speed>
<temp>0.00</temp>
<bpm>0</bpm>
<rpm>0.00</rpm>
</extensions>
</trkpt>
<trkpt lat="30.604164124" lon="34.743927002">
<ele>812.562500</ele>
<time>2013-11-23T08:32:39Z</time>
<speed>3.640000</speed>
<extensions>
<speed>3.6</speed>
<temp>0.00</temp>
<bpm>0</bpm>
<rpm>0.00</rpm>
</extensions>
</trkpt>
<trkpt lat="30.603992462" lon="34.743942261">
<ele>813.203125</ele>
<time>2013-11-23T08:32:44Z</time>
<speed>3.950000</speed>
<extensions>
<speed>4.0</speed>
<temp>0.00</temp>
<bpm>0</bpm>
<rpm>0.00</rpm>
</extensions>
</trkpt>
<trkpt lat="30.603813171" lon="34.743888855">
<ele>812.765625</ele>
<time>2013-11-23T08:32:49Z</time>
<speed>4.420000</speed>
<extensions>
<speed>4.4</speed>
<temp>0.00</temp>
<bpm>0</bpm>
<rpm>0.00</rpm>
</extensions>
</trkpt>
<trkpt lat="30.603677750" lon="34.743736267">
<ele>812.734375</ele>
<time>2013-11-23T08:32:54Z</time>
<speed>4.390000</speed>
<extensions>
<speed>4.4</speed>
<temp>0.00</temp>
<bpm>0</bpm>
<rpm>0.00</rpm>
</extensions>
</trkpt>
<trkpt lat="30.603569031" lon="34.743534088">
<ele>813.015625</ele>
<time>2013-11-23T08:32:59Z</time>
<speed>4.000000</speed>
<extensions>
<speed>4.0</speed>
<temp>0.00</temp>
<bpm>0</bpm>
<rpm>0.00</rpm>
</extensions>
</trkpt>
<trkpt lat="30.603445053" lon="34.743373871">
<ele>812.953125</ele>
<time>2013-11-23T08:33:04Z</time>
<speed>4.430000</speed>
<extensions>
<speed>4.4</speed>
<temp>0.00</temp>
<bpm>0</bpm>
<rpm>0.00</rpm>
</extensions>
</trkpt>
<trkpt lat="30.603319168" lon="34.743171692">
<ele>813.218750</ele>
<time>2013-11-23T08:33:09Z</time>
<speed>4.590000</speed>
<extensions>
<speed>4.6</speed>
<temp>0.00</temp>
<bpm>0</bpm>
<rpm>0.00</rpm>
</extensions>
</trkpt>
<trkpt lat="30.603210449" lon="34.742996216">
<ele>812.921875</ele>
<time>2013-11-23T08:33:14Z</time>
<speed>4.120000</speed>
<extensions>
<speed>4.1</speed>
<temp>0.00</temp>
<bpm>0</bpm>
<rpm>0.00</rpm>
</extensions>
</trkpt>
<trkpt lat="30.603090286" lon="34.742874146">
<ele>813.468750</ele>
<time>2013-11-23T08:33:19Z</time>
<speed>3.120000</speed>
<extensions>
<speed>3.1</speed>
<temp>0.00</temp>
<bpm>0</bpm>
<rpm>0.00</rpm>
</extensions>
</trkpt>
<trkpt lat="30.602987289" lon="34.742771149">
<ele>813.984375</ele>
<time>2013-11-23T08:33:24Z</time>
<speed>3.330000</speed>
<extensions>
<speed>3.3</speed>
<temp>0.00</temp>
<bpm>0</bpm>
<rpm>0.00</rpm>
</extensions>
</trkpt>
<trkpt lat="30.602870941" lon="34.742645264">
<ele>814.187500</ele>
<time>2013-11-23T08:33:29Z</time>
<speed>3.500000</speed>
<extensions>
<speed>3.5</speed>
<temp>0.00</temp>
<bpm>0</bpm>
<rpm>0.00</rpm>
</extensions>
</trkpt>
<trkpt lat="30.602737427" lon="34.742530823">
<ele>814.375000</ele>
<time>2013-11-23T08:33:34Z</time>
<speed>3.680000</speed>
<extensions>
<speed>3.7</speed>
<temp>0.00</temp>
<bpm>0</bpm>
<rpm>0.00</rpm>
</extensions>
</trkpt>
<trkpt lat="30.602575302" lon="34.742443085">
<ele>814.937500</ele>
<time>2013-11-23T08:33:39Z</time>
<speed>4.100000</speed>
<extensions>
<speed>4.1</speed>
<temp>0.00</temp>
<bpm>0</bpm>
<rpm>0.00</rpm>
</extensions>
</trkpt>
<trkpt lat="30.602413177" lon="34.742370605">
<ele>815.421875</ele>
<time>2013-11-23T08:33:44Z</time>
<speed>3.590000</speed>
<extensions>
<speed>3.6</speed>
<temp>0.00</temp>
<bpm>0</bpm>
<rpm>0.00</rpm>
</extensions>
</trkpt>
<trkpt lat="30.602266312" lon="34.742317200">
<ele>815.000000</ele>
<time>2013-11-23T08:33:49Z</time>
<speed>3.590000</speed>
<extensions>
<speed>3.6</speed>
<temp>0.00</temp>
<bpm>0</bpm>
<rpm>0.00</rpm>
</extensions>
</trkpt>
<trkpt lat="30.602071762" lon="34.742298126">
<ele>815.921875</ele>
<time>2013-11-23T08:33:54Z</time>
<speed>4.370000</speed>
<extensions>
<speed>4.4</speed>
<temp>0.00</temp>
<bpm>0</bpm>
<rpm>0.00</rpm>
</extensions>
</trkpt>
<trkpt lat="30.601892471" lon="34.742244720">
<ele>816.500000</ele>
<time>2013-11-23T08:33:59Z</time>
<speed>3.510000</speed>
<extensions>
<speed>3.5</speed>
<temp>0.00</temp>
<bpm>0</bpm>
<rpm>0.00</rpm>
</extensions>
</trkpt>
<trkpt lat="30.601747513" lon="34.742168427">
<ele>817.546875</ele>
<time>2013-11-23T08:34:04Z</time>
<speed>2.510000</speed>
<extensions>
<speed>2.5</speed>
<temp>0.00</temp>
<bpm>0</bpm>
<rpm>0.00</rpm>
</extensions>
</trkpt>
<trkpt lat="30.601596832" lon="34.742156982">
<ele>817.187500</ele>
<time>2013-11-23T08:34:09Z</time>
<speed>3.300000</speed>
<extensions>
<speed>3.3</speed>
<temp>0.00</temp>
<bpm>0</bpm>
<rpm>0.00</rpm>
</extensions>
</trkpt>
<trkpt lat="30.601465225" lon="34.742172241">
<ele>817.718750</ele>
<time>2013-11-23T08:34:14Z</time>
<speed>3.190000</speed>
<extensions>
<speed>3.2</speed>
<temp>0.00</temp>
<bpm>0</bpm>
<rpm>0.00</rpm>
</extensions>
</trkpt>
<trkpt lat="30.601356506" lon="34.742065430">
<ele>817.171875</ele>
<time>2013-11-23T08:34:19Z</time>
<speed>3.220000</speed>
<extensions>
<speed>3.2</speed>
<temp>0.00</temp>
<bpm>0</bpm>
<rpm>0.00</rpm>
</extensions>
</trkpt>
<trkpt lat="30.601337433" lon="34.741874695">
<ele>816.796875</ele>
<time>2013-11-23T08:34:24Z</time>
<speed>3.640000</speed>
<extensions>
<speed>3.6</speed>
<temp>0.00</temp>
<bpm>0</bpm>
<rpm>0.00</rpm>
</extensions>
</trkpt>
<trkpt lat="30.601293564" lon="34.741710663">
<ele>816.171875</ele>
<time>2013-11-23T08:34:29Z</time>
<speed>2.200000</speed>
<extensions>
<speed>2.2</speed>
<temp>0.00</temp>
<bpm>0</bpm>
<rpm>0.00</rpm>
</extensions>
</trkpt>
<trkpt lat="30.601249695" lon="34.741542816">
<ele>815.656250</ele>
<time>2013-11-23T08:34:34Z</time>
<speed>3.650000</speed>
<extensions>
<speed>3.7</speed>
<temp>0.00</temp>
<bpm>0</bpm>
<rpm>0.00</rpm>
</extensions>
</trkpt>
<trkpt lat="30.601179123" lon="34.741447449">
<ele>815.921875</ele>
<time>2013-11-23T08:34:39Z</time>
<speed>2.360000</speed>
<extensions>
<speed>2.4</speed>
<temp>0.00</temp>
<bpm>0</bpm>
<rpm>0.00</rpm>
</extensions>
</trkpt>
<trkpt lat="30.601076126" lon="34.741333008">
<ele>815.921875</ele>
<time>2013-11-23T08:34:44Z</time>
<speed>3.560000</speed>
<extensions>
<speed>3.6</speed>
<temp>0.00</temp>
<bpm>0</bpm>
<rpm>0.00</rpm>
</extensions>
</trkpt>
<trkpt lat="30.600944519" lon="34.741210938">
<ele>816.093750</ele>
<time>2013-11-23T08:34:49Z</time>
<speed>3.600000</speed>
<extensions>
<speed>3.6</speed>
<temp>0.00</temp>
<bpm>0</bpm>
<rpm>0.00</rpm>
</extensions>
</trkpt>
<trkpt lat="30.600828171" lon="34.741085052">
<ele>816.265625</ele>
<time>2013-11-23T08:34:54Z</time>
<speed>3.270000</speed>
<extensions>
<speed>3.3</speed>
<temp>0.00</temp>
<bpm>0</bpm>
<rpm>0.00</rpm>
</extensions>
</trkpt>
<trkpt lat="30.600749969" lon="34.741024017">
<ele>816.406250</ele>
<time>2013-11-23T08:34:59Z</time>
<speed>1.600000</speed>
<extensions>
<speed>1.6</speed>
<temp>0.00</temp>
<bpm>0</bpm>
<rpm>0.00</rpm>
</extensions>
</trkpt>
<trkpt lat="30.600690842" lon="34.740982056">
<ele>816.312500</ele>
<time>2013-11-23T08:35:04Z</time>
<speed>2.030000</speed>
<extensions>
<speed>2.0</speed>
<temp>0.00</temp>
<bpm>0</bpm>
<rpm>0.00</rpm>
</extensions>
</trkpt>
<trkpt lat="30.600599289" lon="34.740913391">
<ele>815.765625</ele>
<time>2013-11-23T08:35:09Z</time>
<speed>2.680000</speed>
<extensions>
<speed>2.7</speed>
<temp>0.00</temp>
<bpm>0</bpm>
<rpm>0.00</rpm>
</extensions>
</trkpt>
<trkpt lat="30.600502014" lon="34.740787506">
<ele>815.437500</ele>
<time>2013-11-23T08:35:14Z</time>
<speed>3.970000</speed>
<extensions>
<speed>4.0</speed>
<temp>0.00</temp>
<bpm>0</bpm>
<rpm>0.00</rpm>
</extensions>
</trkpt>
<trkpt lat="30.600406647" lon="34.740596771">
<ele>814.734375</ele>
<time>2013-11-23T08:35:19Z</time>
<speed>3.900000</speed>
<extensions>
<speed>3.9</speed>
<temp>0.00</temp>
<bpm>0</bpm>
<rpm>0.00</rpm>
</extensions>
</trkpt>
<trkpt lat="30.600301743" lon="34.740444183">
<ele>814.531250</ele>
<time>2013-11-23T08:35:24Z</time>
<speed>4.270000</speed>
<extensions>
<speed>4.3</speed>
<temp>0.00</temp>
<bpm>0</bpm>
<rpm>0.00</rpm>
</extensions>
</trkpt>
<trkpt lat="30.600158691" lon="34.740283966">
<ele>814.250000</ele>
<time>2013-11-23T08:35:29Z</time>
<speed>3.820000</speed>
<extensions>
<speed>3.8</speed>
<temp>0.00</temp>
<bpm>0</bpm>
<rpm>0.00</rpm>
</extensions>
</trkpt>
<trkpt lat="30.600065231" lon="34.740169525">
<ele>813.671875</ele>
<time>2013-11-23T08:35:34Z</time>
<speed>3.280000</speed>
<extensions>
<speed>3.3</speed>
<temp>0.00</temp>
<bpm>0</bpm>
<rpm>0.00</rpm>
</extensions>
</trkpt>
<trkpt lat="30.599943161" lon="34.740058899">
<ele>814.109375</ele>
<time>2013-11-23T08:35:39Z</time>
<speed>3.340000</speed>
<extensions>
<speed>3.3</speed>
<temp>0.00</temp>
<bpm>0</bpm>
<rpm>0.00</rpm>
</extensions>
</trkpt>
<trkpt lat="30.599809647" lon="34.740028381">
<ele>813.859375</ele>
<time>2013-11-23T08:35:44Z</time>
<speed>3.210000</speed>
<extensions>
<speed>3.2</speed>
<temp>0.00</temp>
<bpm>0</bpm>
<rpm>0.00</rpm>
</extensions>
</trkpt>
<trkpt lat="30.599679947" lon="34.739990234">
<ele>813.640625</ele>
<time>2013-11-23T08:35:49Z</time>
<speed>3.490000</speed>
<extensions>
<speed>3.5</speed>
<temp>0.00</temp>
<bpm>0</bpm>
<rpm>0.00</rpm>
</extensions>
</trkpt>
<trkpt lat="30.599575043" lon="34.739841461">
<ele>812.921875</ele>
<time>2013-11-23T08:35:54Z</time>
<speed>2.750000</speed>
<extensions>
<speed>2.7</speed>
<temp>0.00</temp>
<bpm>0</bpm>
<rpm>0.00</rpm>
</extensions>
</trkpt>
<trkpt lat="30.599475861" lon="34.739784241">
<ele>813.656250</ele>
<time>2013-11-23T08:35:59Z</time>
<speed>2.950000</speed>
<extensions>
<speed>2.9</speed>
<temp>0.00</temp>
<bpm>0</bpm>
<rpm>0.00</rpm>
</extensions>
</trkpt>
<trkpt lat="30.599334717" lon="34.739768982">
<ele>814.375000</ele>
<time>2013-11-23T08:36:04Z</time>
<speed>3.160000</speed>
<extensions>
<speed>3.2</speed>
<temp>0.00</temp>
<bpm>0</bpm>
<rpm>0.00</rpm>
</extensions>
</trkpt>
<trkpt lat="30.599212646" lon="34.739807129">
<ele>814.156250</ele>
<time>2013-11-23T08:36:09Z</time>
<speed>2.850000</speed>
<extensions>
<speed>2.9</speed>
<temp>0.00</temp>
<bpm>0</bpm>
<rpm>0.00</rpm>
</extensions>
</trkpt>
<trkpt lat="30.599054337" lon="34.739810944">
<ele>814.265625</ele>
<time>2013-11-23T08:36:14Z</time>
<speed>3.750000</speed>
<extensions>
<speed>3.8</speed>
<temp>0.00</temp>
<bpm>0</bpm>
<rpm>0.00</rpm>
</extensions>
</trkpt>
<trkpt lat="30.598892212" lon="34.739791870">
<ele>815.312500</ele>
<time>2013-11-23T08:36:19Z</time>
<speed>3.300000</speed>
<extensions>
<speed>3.3</speed>
<temp>0.00</temp>
<bpm>0</bpm>
<rpm>0.00</rpm>
</extensions>
</trkpt>
<trkpt lat="30.598735809" lon="34.739723206">
<ele>816.328125</ele>
<time>2013-11-23T08:36:24Z</time>
<speed>4.030000</speed>
<extensions>
<speed>4.0</speed>
<temp>0.00</temp>
<bpm>0</bpm>
<rpm>0.00</rpm>
</extensions>
</trkpt>
<trkpt lat="30.598621368" lon="34.739593506">
<ele>816.453125</ele>
<time>2013-11-23T08:36:29Z</time>
<speed>3.310000</speed>
<extensions>
<speed>3.3</speed>
<temp>0.00</temp>
<bpm>0</bpm>
<rpm>0.00</rpm>
</extensions>
</trkpt>
<trkpt lat="30.598529816" lon="34.739421844">
<ele>816.468750</ele>
<time>2013-11-23T08:36:34Z</time>
<speed>4.150000</speed>
<extensions>
<speed>4.1</speed>
<temp>0.00</temp>
<bpm>0</bpm>
<rpm>0.00</rpm>
</extensions>
</trkpt>
<trkpt lat="30.598407745" lon="34.739288330">
<ele>817.187500</ele>
<time>2013-11-23T08:36:39Z</time>
<speed>2.880000</speed>
<extensions>
<speed>2.9</speed>
<temp>0.00</temp>
<bpm>0</bpm>
<rpm>0.00</rpm>
</extensions>
</trkpt>
<trkpt lat="30.598348618" lon="34.739204407">
<ele>817.625000</ele>
<time>2013-11-23T08:36:44Z</time>
<speed>1.950000</speed>
<extensions>
<speed>1.9</speed>
<temp>0.00</temp>
<bpm>0</bpm>
<rpm>0.00</rpm>
</extensions>
</trkpt>
<trkpt lat="30.598293304" lon="34.739112854">
<ele>817.640625</ele>
<time>2013-11-23T08:36:49Z</time>
<speed>2.080000</speed>
<extensions>
<speed>2.1</speed>
<temp>0.00</temp>
<bpm>0</bpm>
<rpm>0.00</rpm>
</extensions>
</trkpt>
<trkpt lat="30.598247528" lon="34.738994598">
<ele>817.515625</ele>
<time>2013-11-23T08:36:54Z</time>
<speed>2.630000</speed>
<extensions>
<speed>2.6</speed>
<temp>0.00</temp>
<bpm>0</bpm>
<rpm>0.00</rpm>
</extensions>
</trkpt>
<trkpt lat="30.598203659" lon="34.738887787">
<ele>817.593750</ele>
<time>2013-11-23T08:36:59Z</time>
<speed>2.440000</speed>
<extensions>
<speed>2.4</speed>
<temp>0.00</temp>
<bpm>0</bpm>
<rpm>0.00</rpm>
</extensions>
</trkpt>
<trkpt lat="30.598169327" lon="34.738780975">
<ele>817.734375</ele>
<time>2013-11-23T08:37:04Z</time>
<speed>1.740000</speed>
<extensions>
<speed>1.7</speed>
<temp>0.00</temp>
<bpm>0</bpm>
<rpm>0.00</rpm>
</extensions>
</trkpt>
<trkpt lat="30.598146439" lon="34.738754272">
<ele>817.421875</ele>
<time>2013-11-23T08:37:09Z</time>
<extensions>
<speed>0.0</speed>
<temp>0.00</temp>
<bpm>0</bpm>
<rpm>0.00</rpm>
</extensions>
</trkpt>
<trkpt lat="30.598146439" lon="34.738758087">
<ele>817.296875</ele>
<time>2013-11-23T08:37:14Z</time>
<extensions>
<speed>0.0</speed>
<temp>0.00</temp>
<bpm>0</bpm>
<rpm>0.00</rpm>
</extensions>
</trkpt>
<trkpt lat="30.598146439" lon="34.738758087">
<ele>817.296875</ele>
<time>2013-11-23T08:37:19Z</time>
<speed>0.010000</speed>
<extensions>
<speed>0.0</speed>
<temp>0.00</temp>
<bpm>0</bpm>
<rpm>0.00</rpm>
</extensions>
</trkpt>
<trkpt lat="30.598146439" lon="34.738758087">
<ele>817.312500</ele>
<time>2013-11-23T08:37:24Z</time>
<extensions>
<speed>0.0</speed>
<temp>0.00</temp>
<bpm>0</bpm>
<rpm>0.00</rpm>
</extensions>
</trkpt>
<trkpt lat="30.598146439" lon="34.738758087">
<ele>817.328125</ele>
<time>2013-11-23T08:37:29Z</time>
<extensions>
<speed>0.0</speed>
<temp>0.00</temp>
<bpm>0</bpm>
<rpm>0.00</rpm>
</extensions>
</trkpt>
<trkpt lat="30.598146439" lon="34.738758087">
<ele>817.312500</ele>
<time>2013-11-23T08:37:34Z</time>
<speed>0.020000</speed>
<extensions>
<speed>0.0</speed>
<temp>0.00</temp>
<bpm>0</bpm>
<rpm>0.00</rpm>
</extensions>
</trkpt>
<trkpt lat="30.598102570" lon="34.738697052">
<ele>817.906250</ele>
<time>2013-11-23T08:37:39Z</time>
<speed>2.840000</speed>
<extensions>
<speed>2.8</speed>
<temp>0.00</temp>
<bpm>0</bpm>
<rpm>0.00</rpm>
</extensions>
</trkpt>
<trkpt lat="30.598001480" lon="34.738582611">
<ele>819.328125</ele>
<time>2013-11-23T08:37:44Z</time>
<speed>3.420000</speed>
<extensions>
<speed>3.4</speed>
<temp>0.00</temp>
<bpm>0</bpm>
<rpm>0.00</rpm>
</extensions>
</trkpt>
<trkpt lat="30.597936630" lon="34.738414764">
<ele>819.906250</ele>
<time>2013-11-23T08:37:49Z</time>
<speed>3.300000</speed>
<extensions>
<speed>3.3</speed>
<temp>0.00</temp>
<bpm>0</bpm>
<rpm>0.00</rpm>
</extensions>
</trkpt>
<trkpt lat="30.597898483" lon="34.738243103">
<ele>820.593750</ele>
<time>2013-11-23T08:37:54Z</time>
<speed>3.370000</speed>
<extensions>
<speed>3.4</speed>
<temp>0.00</temp>
<bpm>0</bpm>
<rpm>0.00</rpm>
</extensions>
</trkpt>
<trkpt lat="30.597873688" lon="34.738040924">
<ele>821.125000</ele>
<time>2013-11-23T08:37:59Z</time>
<speed>3.770000</speed>
<extensions>
<speed>3.8</speed>
<temp>0.00</temp>
<bpm>0</bpm>
<rpm>0.00</rpm>
</extensions>
</trkpt>
<trkpt lat="30.597806931" lon="34.737834930">
<ele>821.250000</ele>
<time>2013-11-23T08:38:04Z</time>
<speed>3.680000</speed>
<extensions>
<speed>3.7</speed>
<temp>0.00</temp>
<bpm>0</bpm>
<rpm>0.00</rpm>
</extensions>
</trkpt>
<trkpt lat="30.597724915" lon="34.737670898">
<ele>821.328125</ele>
<time>2013-11-23T08:38:09Z</time>
<speed>4.140000</speed>
<extensions>
<speed>4.1</speed>
<temp>0.00</temp>
<bpm>0</bpm>
<rpm>0.00</rpm>
</extensions>
</trkpt>
<trkpt lat="30.597568512" lon="34.737609863">
<ele>820.984375</ele>
<time>2013-11-23T08:38:14Z</time>
<speed>3.490000</speed>
<extensions>
<speed>3.5</speed>
<temp>0.00</temp>
<bpm>0</bpm>
<rpm>0.00</rpm>
</extensions>
</trkpt>
<trkpt lat="30.597438812" lon="34.737586975">
<ele>820.921875</ele>
<time>2013-11-23T08:38:19Z</time>
<speed>2.540000</speed>
<extensions>
<speed>2.5</speed>
<temp>0.00</temp>
<bpm>0</bpm>
<rpm>0.00</rpm>
</extensions>
</trkpt>
<trkpt lat="30.597307205" lon="34.737552643">
<ele>820.750000</ele>
<time>2013-11-23T08:38:24Z</time>
<speed>2.940000</speed>
<extensions>
<speed>2.9</speed>
<temp>0.00</temp>
<bpm>0</bpm>
<rpm>0.00</rpm>
</extensions>
</trkpt>
<trkpt lat="30.597160339" lon="34.737522125">
<ele>821.078125</ele>
<time>2013-11-23T08:38:29Z</time>
<speed>3.360000</speed>
<extensions>
<speed>3.4</speed>
<temp>0.00</temp>
<bpm>0</bpm>
<rpm>0.00</rpm>
</extensions>
</trkpt>
<trkpt lat="30.597003937" lon="34.737506866">
<ele>821.531250</ele>
<time>2013-11-23T08:38:34Z</time>
<speed>3.390000</speed>
<extensions>
<speed>3.4</speed>
<temp>0.00</temp>
<bpm>0</bpm>
<rpm>0.00</rpm>
</extensions>
</trkpt>
<trkpt lat="30.596837997" lon="34.737522125">
<ele>822.687500</ele>
<time>2013-11-23T08:38:39Z</time>
<speed>3.910000</speed>
<extensions>
<speed>3.9</speed>
<temp>0.00</temp>
<bpm>0</bpm>
<rpm>0.00</rpm>
</extensions>
</trkpt>
<trkpt lat="30.596647263" lon="34.737548828">
<ele>823.375000</ele>
<time>2013-11-23T08:38:44Z</time>
<speed>4.210000</speed>
<extensions>
<speed>4.2</speed>
<temp>0.00</temp>
<bpm>0</bpm>
<rpm>0.00</rpm>
</extensions>
</trkpt>
<trkpt lat="30.596477509" lon="34.737567902">
<ele>824.203125</ele>
<time>2013-11-23T08:38:49Z</time>
<speed>3.510000</speed>
<extensions>
<speed>3.5</speed>
<temp>0.00</temp>
<bpm>0</bpm>
<rpm>0.00</rpm>
</extensions>
</trkpt>
<trkpt lat="30.596319199" lon="34.737586975">
<ele>824.437500</ele>
<time>2013-11-23T08:38:54Z</time>
<speed>2.680000</speed>
<extensions>
<speed>2.7</speed>
<temp>0.00</temp>
<bpm>0</bpm>
<rpm>0.00</rpm>
</extensions>
</trkpt>
<trkpt lat="30.596166611" lon="34.737548828">
<ele>825.359375</ele>
<time>2013-11-23T08:38:59Z</time>
<speed>4.020000</speed>
<extensions>
<speed>4.0</speed>
<temp>0.00</temp>
<bpm>0</bpm>
<rpm>0.00</rpm>
</extensions>
</trkpt>
<trkpt lat="30.596017838" lon="34.737480164">
<ele>825.640625</ele>
<time>2013-11-23T08:39:04Z</time>
<speed>3.200000</speed>
<extensions>
<speed>3.2</speed>
<temp>0.00</temp>
<bpm>0</bpm>
<rpm>0.00</rpm>
</extensions>
</trkpt>
<trkpt lat="30.595855713" lon="34.737453461">
<ele>826.187500</ele>
<time>2013-11-23T08:39:09Z</time>
<speed>3.910000</speed>
<extensions>
<speed>3.9</speed>
<temp>0.00</temp>
<bpm>0</bpm>
<rpm>0.00</rpm>
</extensions>
</trkpt>
<trkpt lat="30.595695496" lon="34.737400055">
<ele>827.656250</ele>
<time>2013-11-23T08:39:14Z</time>
<speed>3.810000</speed>
<extensions>
<speed>3.8</speed>
<temp>0.00</temp>
<bpm>0</bpm>
<rpm>0.00</rpm>
</extensions>
</trkpt>
<trkpt lat="30.595537186" lon="34.737277985">
<ele>828.109375</ele>
<time>2013-11-23T08:39:19Z</time>
<speed>4.010000</speed>
<extensions>
<speed>4.0</speed>
<temp>0.00</temp>
<bpm>0</bpm>
<rpm>0.00</rpm>
</extensions>
</trkpt>
<trkpt lat="30.595422745" lon="34.737194061">
<ele>829.109375</ele>
<time>2013-11-23T08:39:24Z</time>
<speed>2.480000</speed>
<extensions>
<speed>2.5</speed>
<temp>0.00</temp>
<bpm>0</bpm>
<rpm>0.00</rpm>
</extensions>
</trkpt>
<trkpt lat="30.595369339" lon="34.737129211">
<ele>829.312500</ele>
<time>2013-11-23T08:39:29Z</time>
<speed>2.080000</speed>
<extensions>
<speed>2.1</speed>
<temp>0.00</temp>
<bpm>0</bpm>
<rpm>0.00</rpm>
</extensions>
</trkpt>
<trkpt lat="30.595314026" lon="34.736999512">
<ele>828.984375</ele>
<time>2013-11-23T08:39:34Z</time>
<speed>2.820000</speed>
<extensions>
<speed>2.8</speed>
<temp>0.00</temp>
<bpm>0</bpm>
<rpm>0.00</rpm>
</extensions>
</trkpt>
<trkpt lat="30.595230103" lon="34.736835480">
<ele>829.046875</ele>
<time>2013-11-23T08:39:39Z</time>
<speed>4.030000</speed>
<extensions>
<speed>4.0</speed>
<temp>0.00</temp>
<bpm>0</bpm>
<rpm>0.00</rpm>
</extensions>
</trkpt>
<trkpt lat="30.595111847" lon="34.736717224">
<ele>829.625000</ele>
<time>2013-11-23T08:39:44Z</time>
<speed>2.900000</speed>
<extensions>
<speed>2.9</speed>
<temp>0.00</temp>
<bpm>0</bpm>
<rpm>0.00</rpm>
</extensions>
</trkpt>
<trkpt lat="30.594980240" lon="34.736610413">
<ele>830.296875</ele>
<time>2013-11-23T08:39:49Z</time>
<speed>4.420000</speed>
<extensions>
<speed>4.4</speed>
<temp>0.00</temp>
<bpm>0</bpm>
<rpm>0.00</rpm>
</extensions>
</trkpt>
<trkpt lat="30.594879150" lon="34.736476898">
<ele>831.218750</ele>
<time>2013-11-23T08:39:54Z</time>
<speed>3.180000</speed>
<extensions>
<speed>3.2</speed>
<temp>0.00</temp>
<bpm>0</bpm>
<rpm>0.00</rpm>
</extensions>
</trkpt>
<trkpt lat="30.594747543" lon="34.736339569">
<ele>831.578125</ele>
<time>2013-11-23T08:39:59Z</time>
<speed>4.250000</speed>
<extensions>
<speed>4.3</speed>
<temp>0.00</temp>
<bpm>0</bpm>
<rpm>0.00</rpm>
</extensions>
</trkpt>
<trkpt lat="30.594617844" lon="34.736228943">
<ele>832.218750</ele>
<time>2013-11-23T08:40:04Z</time>
<speed>3.360000</speed>
<extensions>
<speed>3.4</speed>
<temp>0.00</temp>
<bpm>0</bpm>
<rpm>0.00</rpm>
</extensions>
</trkpt>
<trkpt lat="30.594491959" lon="34.736129761">
<ele>833.093750</ele>
<time>2013-11-23T08:40:09Z</time>
<speed>3.970000</speed>
<extensions>
<speed>4.0</speed>
<temp>0.00</temp>
<bpm>0</bpm>
<rpm>0.00</rpm>
</extensions>
</trkpt>
<trkpt lat="30.594318390" lon="34.736038208">
<ele>833.546875</ele>
<time>2013-11-23T08:40:14Z</time>
<speed>3.750000</speed>
<extensions>
<speed>3.8</speed>
<temp>0.00</temp>
<bpm>0</bpm>
<rpm>0.00</rpm>
</extensions>
</trkpt>
<trkpt lat="30.594144821" lon="34.735980988">
<ele>833.812500</ele>
<time>2013-11-23T08:40:19Z</time>
<speed>4.620000</speed>
<extensions>
<speed>4.6</speed>
<temp>0.00</temp>
<bpm>0</bpm>
<rpm>0.00</rpm>
</extensions>
</trkpt>
<trkpt lat="30.593938828" lon="34.735897064">
<ele>834.406250</ele>
<time>2013-11-23T08:40:24Z</time>
<speed>4.390000</speed>
<extensions>
<speed>4.4</speed>
<temp>0.00</temp>
<bpm>0</bpm>
<rpm>0.00</rpm>
</extensions>
</trkpt>
<trkpt lat="30.593763351" lon="34.735809326">
<ele>834.984375</ele>
<time>2013-11-23T08:40:29Z</time>
<speed>5.020000</speed>
<extensions>
<speed>5.0</speed>
<temp>0.00</temp>
<bpm>0</bpm>
<rpm>0.00</rpm>
</extensions>
</trkpt>
<trkpt lat="30.593566895" lon="34.735729218">
<ele>834.578125</ele>
<time>2013-11-23T08:40:34Z</time>
<speed>4.380000</speed>
<extensions>
<speed>4.4</speed>
<temp>0.00</temp>
<bpm>0</bpm>
<rpm>0.00</rpm>
</extensions>
</trkpt>
<trkpt lat="30.593374252" lon="34.735702515">
<ele>834.343750</ele>
<time>2013-11-23T08:40:39Z</time>
<speed>3.810000</speed>
<extensions>
<speed>3.8</speed>
<temp>0.00</temp>
<bpm>0</bpm>
<rpm>0.00</rpm>
</extensions>
</trkpt>
<trkpt lat="30.593204498" lon="34.735694885">
<ele>835.203125</ele>
<time>2013-11-23T08:40:44Z</time>
<speed>3.680000</speed>
<extensions>
<speed>3.7</speed>
<temp>0.00</temp>
<bpm>0</bpm>
<rpm>0.00</rpm>
</extensions>
</trkpt>
<trkpt lat="30.593042374" lon="34.735675812">
<ele>835.515625</ele>
<time>2013-11-23T08:40:49Z</time>
<speed>3.160000</speed>
<extensions>
<speed>3.2</speed>
<temp>0.00</temp>
<bpm>0</bpm>
<rpm>0.00</rpm>
</extensions>
</trkpt>
<trkpt lat="30.592895508" lon="34.735664368">
<ele>835.375000</ele>
<time>2013-11-23T08:40:54Z</time>
<speed>2.500000</speed>
<extensions>
<speed>2.5</speed>
<temp>0.00</temp>
<bpm>0</bpm>
<rpm>0.00</rpm>
</extensions>
</trkpt>
<trkpt lat="30.592767715" lon="34.735645294">
<ele>835.765625</ele>
<time>2013-11-23T08:40:59Z</time>
<speed>3.380000</speed>
<extensions>
<speed>3.4</speed>
<temp>0.00</temp>
<bpm>0</bpm>
<rpm>0.00</rpm>
</extensions>
</trkpt>
<trkpt lat="30.592622757" lon="34.735588074">
<ele>835.718750</ele>
<time>2013-11-23T08:41:04Z</time>
<speed>3.820000</speed>
<extensions>
<speed>3.8</speed>
<temp>0.00</temp>
<bpm>0</bpm>
<rpm>0.00</rpm>
</extensions>
</trkpt>
<trkpt lat="30.592447281" lon="34.735576630">
<ele>835.812500</ele>
<time>2013-11-23T08:41:09Z</time>
<speed>3.230000</speed>
<extensions>
<speed>3.2</speed>
<temp>0.00</temp>
<bpm>0</bpm>
<rpm>0.00</rpm>
</extensions>
</trkpt>
<trkpt lat="30.592344284" lon="34.735607147">
<ele>835.609375</ele>
<time>2013-11-23T08:41:14Z</time>
<speed>1.570000</speed>
<extensions>
<speed>1.6</speed>
<temp>0.00</temp>
<bpm>0</bpm>
<rpm>0.00</rpm>
</extensions>
</trkpt>
<trkpt lat="30.592266083" lon="34.735630035">
<ele>835.796875</ele>
<time>2013-11-23T08:41:19Z</time>
<speed>2.010000</speed>
<extensions>
<speed>2.0</speed>
<temp>0.00</temp>
<bpm>0</bpm>
<rpm>0.00</rpm>
</extensions>
</trkpt>
<trkpt lat="30.592142105" lon="34.735675812">
<ele>835.656250</ele>
<time>2013-11-23T08:41:24Z</time>
<speed>3.120000</speed>
<extensions>
<speed>3.1</speed>
<temp>0.00</temp>
<bpm>0</bpm>
<rpm>0.00</rpm>
</extensions>
</trkpt>
<trkpt lat="30.592006683" lon="34.735698700">
<ele>836.046875</ele>
<time>2013-11-23T08:41:29Z</time>
<speed>2.260000</speed>
<extensions>
<speed>2.3</speed>
<temp>0.00</temp>
<bpm>0</bpm>
<rpm>0.00</rpm>
</extensions>
</trkpt>
<trkpt lat="30.591873169" lon="34.735721588">
<ele>836.421875</ele>
<time>2013-11-23T08:41:34Z</time>
<speed>3.450000</speed>
<extensions>
<speed>3.5</speed>
<temp>0.00</temp>
<bpm>0</bpm>
<rpm>0.00</rpm>
</extensions>
</trkpt>
<trkpt lat="30.591760635" lon="34.735774994">
<ele>837.406250</ele>
<time>2013-11-23T08:41:39Z</time>
<speed>2.490000</speed>
<extensions>
<speed>2.5</speed>
<temp>0.00</temp>
<bpm>0</bpm>
<rpm>0.00</rpm>
</extensions>
</trkpt>
<trkpt lat="30.591630936" lon="34.735813141">
<ele>836.984375</ele>
<time>2013-11-23T08:41:44Z</time>
<speed>3.530000</speed>
<extensions>
<speed>3.5</speed>
<temp>0.00</temp>
<bpm>0</bpm>
<rpm>0.00</rpm>
</extensions>
</trkpt>
<trkpt lat="30.591495514" lon="34.735870361">
<ele>836.765625</ele>
<time>2013-11-23T08:41:49Z</time>
<speed>2.780000</speed>
<extensions>
<speed>2.8</speed>
<temp>0.00</temp>
<bpm>0</bpm>
<rpm>0.00</rpm>
</extensions>
</trkpt>
<trkpt lat="30.591360092" lon="34.735942841">
<ele>837.375000</ele>
<time>2013-11-23T08:41:54Z</time>
<speed>3.310000</speed>
<extensions>
<speed>3.3</speed>
<temp>0.00</temp>
<bpm>0</bpm>
<rpm>0.00</rpm>
</extensions>
</trkpt>
<trkpt lat="30.591218948" lon="34.736011505">
<ele>838.109375</ele>
<time>2013-11-23T08:41:59Z</time>
<speed>3.180000</speed>
<extensions>
<speed>3.2</speed>
<temp>0.00</temp>
<bpm>0</bpm>
<rpm>0.00</rpm>
</extensions>
</trkpt>
<trkpt lat="30.591096878" lon="34.736076355">
<ele>838.765625</ele>
<time>2013-11-23T08:42:04Z</time>
<speed>3.360000</speed>
<extensions>
<speed>3.4</speed>
<temp>0.00</temp>
<bpm>0</bpm>
<rpm>0.00</rpm>
</extensions>
</trkpt>
<trkpt lat="30.590948105" lon="34.736160278">
<ele>838.609375</ele>
<time>2013-11-23T08:42:09Z</time>
<speed>3.630000</speed>
<extensions>
<speed>3.6</speed>
<temp>0.00</temp>
<bpm>0</bpm>
<rpm>0.00</rpm>
</extensions>
</trkpt>
<trkpt lat="30.590793610" lon="34.736251831">
<ele>838.609375</ele>
<time>2013-11-23T08:42:14Z</time>
<speed>3.990000</speed>
<extensions>
<speed>4.0</speed>
<temp>0.00</temp>
<bpm>0</bpm>
<rpm>0.00</rpm>
</extensions>
</trkpt>
<trkpt lat="30.590637207" lon="34.736351013">
<ele>839.578125</ele>
<time>2013-11-23T08:42:19Z</time>
<speed>3.710000</speed>
<extensions>
<speed>3.7</speed>
<temp>0.00</temp>
<bpm>0</bpm>
<rpm>0.00</rpm>
</extensions>
</trkpt>
<trkpt lat="30.590475082" lon="34.736423492">
<ele>840.296875</ele>
<time>2013-11-23T08:42:24Z</time>
<speed>4.090000</speed>
<extensions>
<speed>4.1</speed>
<temp>0.00</temp>
<bpm>0</bpm>
<rpm>0.00</rpm>
</extensions>
</trkpt>
<trkpt lat="30.590316772" lon="34.736522675">
<ele>840.656250</ele>
<time>2013-11-23T08:42:29Z</time>
<speed>3.370000</speed>
<extensions>
<speed>3.4</speed>
<temp>0.00</temp>
<bpm>0</bpm>
<rpm>0.00</rpm>
</extensions>
</trkpt>
<trkpt lat="30.590160370" lon="34.736618042">
<ele>840.859375</ele>
<time>2013-11-23T08:42:34Z</time>
<speed>4.150000</speed>
<extensions>
<speed>4.1</speed>
<temp>0.00</temp>
<bpm>0</bpm>
<rpm>0.00</rpm>
</extensions>
</trkpt>
<trkpt lat="30.589984894" lon="34.736625671">
<ele>841.421875</ele>
<time>2013-11-23T08:42:39Z</time>
<speed>3.240000</speed>
<extensions>
<speed>3.2</speed>
<temp>0.00</temp>
<bpm>0</bpm>
<rpm>0.00</rpm>
</extensions>
</trkpt>
<trkpt lat="30.589843750" lon="34.736576080">
<ele>841.328125</ele>
<time>2013-11-23T08:42:44Z</time>
<speed>3.870000</speed>
<extensions>
<speed>3.9</speed>
<temp>0.00</temp>
<bpm>0</bpm>
<rpm>0.00</rpm>
</extensions>
</trkpt>
<trkpt lat="30.589662552" lon="34.736511230">
<ele>841.109375</ele>
<time>2013-11-23T08:42:49Z</time>
<speed>4.040000</speed>
<extensions>
<speed>4.0</speed>
<temp>0.00</temp>
<bpm>0</bpm>
<rpm>0.00</rpm>
</extensions>
</trkpt>
<trkpt lat="30.589527130" lon="34.736431122">
<ele>841.125000</ele>
<time>2013-11-23T08:42:54Z</time>
<speed>3.180000</speed>
<extensions>
<speed>3.2</speed>
<temp>0.00</temp>
<bpm>0</bpm>
<rpm>0.00</rpm>
</extensions>
</trkpt>
<trkpt lat="30.589403152" lon="34.736320496">
<ele>841.406250</ele>
<time>2013-11-23T08:42:59Z</time>
<speed>3.860000</speed>
<extensions>
<speed>3.9</speed>
<temp>0.00</temp>
<bpm>0</bpm>
<rpm>0.00</rpm>
</extensions>
</trkpt>
<trkpt lat="30.589248657" lon="34.736209869">
<ele>841.531250</ele>
<time>2013-11-23T08:43:04Z</time>
<speed>3.970000</speed>
<extensions>
<speed>4.0</speed>
<temp>0.00</temp>
<bpm>0</bpm>
<rpm>0.00</rpm>
</extensions>
</trkpt>
<trkpt lat="30.589090347" lon="34.736137390">
<ele>841.890625</ele>
<time>2013-11-23T08:43:09Z</time>
<speed>3.310000</speed>
<extensions>
<speed>3.3</speed>
<temp>0.00</temp>
<bpm>0</bpm>
<rpm>0.00</rpm>
</extensions>
</trkpt>
<trkpt lat="30.588953018" lon="34.736114502">
<ele>842.375000</ele>
<time>2013-11-23T08:43:14Z</time>
<speed>2.880000</speed>
<extensions>
<speed>2.9</speed>
<temp>0.00</temp>
<bpm>0</bpm>
<rpm>0.00</rpm>
</extensions>
</trkpt>
<trkpt lat="30.588808060" lon="34.736099243">
<ele>843.031250</ele>
<time>2013-11-23T08:43:19Z</time>
<speed>3.460000</speed>
<extensions>
<speed>3.5</speed>
<temp>0.00</temp>
<bpm>0</bpm>
<rpm>0.00</rpm>
</extensions>
</trkpt>
<trkpt lat="30.588649750" lon="34.736034393">
<ele>843.062500</ele>
<time>2013-11-23T08:43:24Z</time>
<speed>3.910000</speed>
<extensions>
<speed>3.9</speed>
<temp>0.00</temp>
<bpm>0</bpm>
<rpm>0.00</rpm>
</extensions>
</trkpt>
<trkpt lat="30.588489532" lon="34.735984802">
<ele>843.687500</ele>
<time>2013-11-23T08:43:29Z</time>
<speed>3.390000</speed>
<extensions>
<speed>3.4</speed>
<temp>0.00</temp>
<bpm>0</bpm>
<rpm>0.00</rpm>
</extensions>
</trkpt>
<trkpt lat="30.588350296" lon="34.735980988">
<ele>844.984375</ele>
<time>2013-11-23T08:43:34Z</time>
<speed>2.880000</speed>
<extensions>
<speed>2.9</speed>
<temp>0.00</temp>
<bpm>0</bpm>
<rpm>0.00</rpm>
</extensions>
</trkpt>
<trkpt lat="30.588209152" lon="34.735988617">
<ele>845.984375</ele>
<time>2013-11-23T08:43:39Z</time>
<speed>3.390000</speed>
<extensions>
<speed>3.4</speed>
<temp>0.00</temp>
<bpm>0</bpm>
<rpm>0.00</rpm>
</extensions>
</trkpt>
<trkpt lat="30.588047028" lon="34.736015320">
<ele>846.812500</ele>
<time>2013-11-23T08:43:44Z</time>
<speed>3.710000</speed>
<extensions>
<speed>3.7</speed>
<temp>0.00</temp>
<bpm>0</bpm>
<rpm>0.00</rpm>
</extensions>
</trkpt>
<trkpt lat="30.587867737" lon="34.736011505">
<ele>847.500000</ele>
<time>2013-11-23T08:43:49Z</time>
<speed>4.090000</speed>
<extensions>
<speed>4.1</speed>
<temp>0.00</temp>
<bpm>0</bpm>
<rpm>0.00</rpm>
</extensions>
</trkpt>
<trkpt lat="30.587690353" lon="34.735973358">
<ele>848.750000</ele>
<time>2013-11-23T08:43:54Z</time>
<speed>2.870000</speed>
<extensions>
<speed>2.9</speed>
<temp>0.00</temp>
<bpm>0</bpm>
<rpm>0.00</rpm>
</extensions>
</trkpt>
<trkpt lat="30.587558746" lon="34.735954285">
<ele>850.484375</ele>
<time>2013-11-23T08:43:59Z</time>
<speed>2.870000</speed>
<extensions>
<speed>2.9</speed>
<temp>0.00</temp>
<bpm>0</bpm>
<rpm>0.00</rpm>
</extensions>
</trkpt>
<trkpt lat="30.587409973" lon="34.735965729">
<ele>851.625000</ele>
<time>2013-11-23T08:44:04Z</time>
<speed>3.300000</speed>
<extensions>
<speed>3.3</speed>
<temp>0.00</temp>
<bpm>0</bpm>
<rpm>0.00</rpm>
</extensions>
</trkpt>
<trkpt lat="30.587306976" lon="34.735984802">
<ele>851.718750</ele>
<time>2013-11-23T08:44:09Z</time>
<speed>2.520000</speed>
<extensions>
<speed>2.5</speed>
<temp>0.00</temp>
<bpm>0</bpm>
<rpm>0.00</rpm>
</extensions>
</trkpt>
<trkpt lat="30.587186813" lon="34.736030579">
<ele>851.640625</ele>
<time>2013-11-23T08:44:14Z</time>
<speed>3.050000</speed>
<extensions>
<speed>3.0</speed>
<temp>0.00</temp>
<bpm>0</bpm>
<rpm>0.00</rpm>
</extensions>
</trkpt>
<trkpt lat="30.587043762" lon="34.736076355">
<ele>851.765625</ele>
<time>2013-11-23T08:44:19Z</time>
<speed>3.810000</speed>
<extensions>
<speed>3.8</speed>
<temp>0.00</temp>
<bpm>0</bpm>
<rpm>0.00</rpm>
</extensions>
</trkpt>
<trkpt lat="30.586894989" lon="34.736110687">
<ele>851.859375</ele>
<time>2013-11-23T08:44:24Z</time>
<speed>2.650000</speed>
<extensions>
<speed>2.6</speed>
<temp>0.00</temp>
<bpm>0</bpm>
<rpm>0.00</rpm>
</extensions>
</trkpt>
<trkpt lat="30.586772919" lon="34.736137390">
<ele>851.937500</ele>
<time>2013-11-23T08:44:29Z</time>
<speed>2.850000</speed>
<extensions>
<speed>2.9</speed>
<temp>0.00</temp>
<bpm>0</bpm>
<rpm>0.00</rpm>
</extensions>
</trkpt>
<trkpt lat="30.586675644" lon="34.736148834">
<ele>851.328125</ele>
<time>2013-11-23T08:44:34Z</time>
<speed>2.210000</speed>
<extensions>
<speed>2.2</speed>
<temp>0.00</temp>
<bpm>0</bpm>
<rpm>0.00</rpm>
</extensions>
</trkpt>
<trkpt lat="30.586565018" lon="34.736160278">
<ele>851.046875</ele>
<time>2013-11-23T08:44:39Z</time>
<speed>2.100000</speed>
<extensions>
<speed>2.1</speed>
<temp>0.00</temp>
<bpm>0</bpm>
<rpm>0.00</rpm>
</extensions>
</trkpt>
<trkpt lat="30.586467743" lon="34.736171722">
<ele>851.343750</ele>
<time>2013-11-23T08:44:44Z</time>
<speed>2.550000</speed>
<extensions>
<speed>2.6</speed>
<temp>0.00</temp>
<bpm>0</bpm>
<rpm>0.00</rpm>
</extensions>
</trkpt>
<trkpt lat="30.586360931" lon="34.736217499">
<ele>852.515625</ele>
<time>2013-11-23T08:44:49Z</time>
<speed>2.580000</speed>
<extensions>
<speed>2.6</speed>
<temp>0.00</temp>
<bpm>0</bpm>
<rpm>0.00</rpm>
</extensions>
</trkpt>
<trkpt lat="30.586261749" lon="34.736305237">
<ele>853.281250</ele>
<time>2013-11-23T08:44:54Z</time>
<speed>2.750000</speed>
<extensions>
<speed>2.7</speed>
<temp>0.00</temp>
<bpm>0</bpm>
<rpm>0.00</rpm>
</extensions>
</trkpt>
<trkpt lat="30.586168289" lon="34.736400604">
<ele>854.109375</ele>
<time>2013-11-23T08:44:59Z</time>
<speed>2.150000</speed>
<extensions>
<speed>2.1</speed>
<temp>0.00</temp>
<bpm>0</bpm>
<rpm>0.00</rpm>
</extensions>
</trkpt>
<trkpt lat="30.586080551" lon="34.736518860">
<ele>854.031250</ele>
<time>2013-11-23T08:45:04Z</time>
<speed>2.400000</speed>
<extensions>
<speed>2.4</speed>
<temp>0.00</temp>
<bpm>0</bpm>
<rpm>0.00</rpm>
</extensions>
</trkpt>
<trkpt lat="30.586021423" lon="34.736614227">
<ele>854.281250</ele>
<time>2013-11-23T08:45:09Z</time>
<speed>2.520000</speed>
<extensions>
<speed>2.5</speed>
<temp>0.00</temp>
<bpm>0</bpm>
<rpm>0.00</rpm>
</extensions>
</trkpt>
<trkpt lat="30.585998535" lon="34.736724854">
<ele>854.328125</ele>
<time>2013-11-23T08:45:14Z</time>
<speed>2.500000</speed>
<extensions>
<speed>2.5</speed>
<temp>0.00</temp>
<bpm>0</bpm>
<rpm>0.00</rpm>
</extensions>
</trkpt>
<trkpt lat="30.585933685" lon="34.736824036">
<ele>854.687500</ele>
<time>2013-11-23T08:45:19Z</time>
<speed>2.570000</speed>
<extensions>
<speed>2.6</speed>
<temp>0.00</temp>
<bpm>0</bpm>
<rpm>0.00</rpm>
</extensions>
</trkpt>
<trkpt lat="30.585878372" lon="34.736946106">
<ele>855.171875</ele>
<time>2013-11-23T08:45:24Z</time>
<speed>2.500000</speed>
<extensions>
<speed>2.5</speed>
<temp>0.00</temp>
<bpm>0</bpm>
<rpm>0.00</rpm>
</extensions>
</trkpt>
<trkpt lat="30.585836411" lon="34.737049103">
<ele>855.375000</ele>
<time>2013-11-23T08:45:29Z</time>
<speed>1.350000</speed>
<extensions>
<speed>1.4</speed>
<temp>0.00</temp>
<bpm>0</bpm>
<rpm>0.00</rpm>
</extensions>
</trkpt>
<trkpt lat="30.585811615" lon="34.737110138">
<ele>855.468750</ele>
<time>2013-11-23T08:45:34Z</time>
<speed>1.390000</speed>
<extensions>
<speed>1.4</speed>
<temp>0.00</temp>
<bpm>0</bpm>
<rpm>0.00</rpm>
</extensions>
</trkpt>
<trkpt lat="30.585783005" lon="34.737171173">
<ele>855.296875</ele>
<time>2013-11-23T08:45:39Z</time>
<speed>1.270000</speed>
<extensions>
<speed>1.3</speed>
<temp>0.00</temp>
<bpm>0</bpm>
<rpm>0.00</rpm>
</extensions>
</trkpt>
<trkpt lat="30.585754395" lon="34.737220764">
<ele>855.468750</ele>
<time>2013-11-23T08:45:44Z</time>
<speed>1.500000</speed>
<extensions>
<speed>1.5</speed>
<temp>0.00</temp>
<bpm>0</bpm>
<rpm>0.00</rpm>
</extensions>
</trkpt>
<trkpt lat="30.585718155" lon="34.737266541">
<ele>856.328125</ele>
<time>2013-11-23T08:45:49Z</time>
<speed>1.190000</speed>
<extensions>
<speed>1.2</speed>
<temp>0.00</temp>
<bpm>0</bpm>
<rpm>0.00</rpm>
</extensions>
</trkpt>
<trkpt lat="30.585672379" lon="34.737323761">
<ele>857.000000</ele>
<time>2013-11-23T08:45:54Z</time>
<speed>1.360000</speed>
<extensions>
<speed>1.4</speed>
<temp>0.00</temp>
<bpm>0</bpm>
<rpm>0.00</rpm>
</extensions>
</trkpt>
<trkpt lat="30.585628510" lon="34.737373352">
<ele>857.296875</ele>
<time>2013-11-23T08:45:59Z</time>
<speed>1.210000</speed>
<extensions>
<speed>1.2</speed>
<temp>0.00</temp>
<bpm>0</bpm>
<rpm>0.00</rpm>
</extensions>
</trkpt>
<trkpt lat="30.585582733" lon="34.737415314">
<ele>857.671875</ele>
<time>2013-11-23T08:46:04Z</time>
<speed>1.160000</speed>
<extensions>
<speed>1.2</speed>
<temp>0.00</temp>
<bpm>0</bpm>
<rpm>0.00</rpm>
</extensions>
</trkpt>
<trkpt lat="30.585542679" lon="34.737461090">
<ele>857.875000</ele>
<time>2013-11-23T08:46:09Z</time>
<speed>1.210000</speed>
<extensions>
<speed>1.2</speed>
<temp>0.00</temp>
<bpm>0</bpm>
<rpm>0.00</rpm>
</extensions>
</trkpt>
<trkpt lat="30.585496902" lon="34.737510681">
<ele>858.468750</ele>
<time>2013-11-23T08:46:14Z</time>
<speed>1.380000</speed>
<extensions>
<speed>1.4</speed>
<temp>0.00</temp>
<bpm>0</bpm>
<rpm>0.00</rpm>
</extensions>
</trkpt>
<trkpt lat="30.585456848" lon="34.737564087">
<ele>859.078125</ele>
<time>2013-11-23T08:46:19Z</time>
<speed>1.610000</speed>
<extensions>
<speed>1.6</speed>
<temp>0.00</temp>
<bpm>0</bpm>
<rpm>0.00</rpm>
</extensions>
</trkpt>
<trkpt lat="30.585395813" lon="34.737621307">
<ele>859.328125</ele>
<time>2013-11-23T08:46:24Z</time>
<speed>1.390000</speed>
<extensions>
<speed>1.4</speed>
<temp>0.00</temp>
<bpm>0</bpm>
<rpm>0.00</rpm>
</extensions>
</trkpt>
<trkpt lat="30.585321426" lon="34.737663269">
<ele>859.890625</ele>
<time>2013-11-23T08:46:29Z</time>
<speed>1.800000</speed>
<extensions>
<speed>1.8</speed>
<temp>0.00</temp>
<bpm>0</bpm>
<rpm>0.00</rpm>
</extensions>
</trkpt>
<trkpt lat="30.585233688" lon="34.737689972">
<ele>859.687500</ele>
<time>2013-11-23T08:46:34Z</time>
<speed>2.090000</speed>
<extensions>
<speed>2.1</speed>
<temp>0.00</temp>
<bpm>0</bpm>
<rpm>0.00</rpm>
</extensions>
</trkpt>
<trkpt lat="30.585149765" lon="34.737728119">
<ele>859.546875</ele>
<time>2013-11-23T08:46:39Z</time>
<speed>2.010000</speed>
<extensions>
<speed>2.0</speed>
<temp>0.00</temp>
<bpm>0</bpm>
<rpm>0.00</rpm>
</extensions>
</trkpt>
<trkpt lat="30.585084915" lon="34.737785339">
<ele>859.765625</ele>
<time>2013-11-23T08:46:44Z</time>
<speed>1.900000</speed>
<extensions>
<speed>1.9</speed>
<temp>0.00</temp>
<bpm>0</bpm>
<rpm>0.00</rpm>
</extensions>
</trkpt>
<trkpt lat="30.585006714" lon="34.737831116">
<ele>859.984375</ele>
<time>2013-11-23T08:46:49Z</time>
<speed>2.070000</speed>
<extensions>
<speed>2.1</speed>
<temp>0.00</temp>
<bpm>0</bpm>
<rpm>0.00</rpm>
</extensions>
</trkpt>
<trkpt lat="30.584918976" lon="34.737873077">
<ele>860.156250</ele>
<time>2013-11-23T08:46:54Z</time>
<speed>2.080000</speed>
<extensions>
<speed>2.1</speed>
<temp>0.00</temp>
<bpm>0</bpm>
<rpm>0.00</rpm>
</extensions>
</trkpt>
<trkpt lat="30.584827423" lon="34.737888336">
<ele>860.531250</ele>
<time>2013-11-23T08:46:59Z</time>
<speed>2.260000</speed>
<extensions>
<speed>2.3</speed>
<temp>0.00</temp>
<bpm>0</bpm>
<rpm>0.00</rpm>
</extensions>
</trkpt>
<trkpt lat="30.584720612" lon="34.737892151">
<ele>860.984375</ele>
<time>2013-11-23T08:47:04Z</time>
<speed>2.280000</speed>
<extensions>
<speed>2.3</speed>
<temp>0.00</temp>
<bpm>0</bpm>
<rpm>0.00</rpm>
</extensions>
</trkpt>
<trkpt lat="30.584627151" lon="34.737880707">
<ele>860.656250</ele>
<time>2013-11-23T08:47:09Z</time>
<speed>2.140000</speed>
<extensions>
<speed>2.1</speed>
<temp>0.00</temp>
<bpm>0</bpm>
<rpm>0.00</rpm>
</extensions>
</trkpt>
<trkpt lat="30.584547043" lon="34.737842560">
<ele>860.015625</ele>
<time>2013-11-23T08:47:14Z</time>
<speed>1.680000</speed>
<extensions>
<speed>1.7</speed>
<temp>0.00</temp>
<bpm>0</bpm>
<rpm>0.00</rpm>
</extensions>
</trkpt>
<trkpt lat="30.584445953" lon="34.737781525">
<ele>859.171875</ele>
<time>2013-11-23T08:47:19Z</time>
<speed>3.220000</speed>
<extensions>
<speed>3.2</speed>
<temp>0.00</temp>
<bpm>0</bpm>
<rpm>0.00</rpm>
</extensions>
</trkpt>
<trkpt lat="30.584346771" lon="34.737709045">
<ele>858.406250</ele>
<time>2013-11-23T08:47:24Z</time>
<speed>2.220000</speed>
<extensions>
<speed>2.2</speed>
<temp>0.00</temp>
<bpm>0</bpm>
<rpm>0.00</rpm>
</extensions>
</trkpt>
<trkpt lat="30.584325790" lon="34.737701416">
<ele>857.953125</ele>
<time>2013-11-23T08:47:29Z</time>
<extensions>
<speed>0.0</speed>
<temp>0.00</temp>
<bpm>0</bpm>
<rpm>0.00</rpm>
</extensions>
</trkpt>
<trkpt lat="30.584323883" lon="34.737701416">
<ele>857.953125</ele>
<time>2013-11-23T08:47:34Z</time>
<speed>0.010000</speed>
<extensions>
<speed>0.0</speed>
<temp>0.00</temp>
<bpm>0</bpm>
<rpm>0.00</rpm>
</extensions>
</trkpt>
<trkpt lat="30.584325790" lon="34.737701416">
<ele>857.984375</ele>
<time>2013-11-23T08:47:39Z</time>
<speed>0.010000</speed>
<extensions>
<speed>0.0</speed>
<temp>0.00</temp>
<bpm>0</bpm>
<rpm>0.00</rpm>
</extensions>
</trkpt>
<trkpt lat="30.584325790" lon="34.737705231">
<ele>857.984375</ele>
<time>2013-11-23T08:47:44Z</time>
<speed>0.020000</speed>
<extensions>
<speed>0.0</speed>
<temp>0.00</temp>
<bpm>0</bpm>
<rpm>0.00</rpm>
</extensions>
</trkpt>
<trkpt lat="30.584323883" lon="34.737701416">
<ele>857.890625</ele>
<time>2013-11-23T08:47:49Z</time>
<speed>0.090000</speed>
<extensions>
<speed>0.1</speed>
<temp>0.00</temp>
<bpm>0</bpm>
<rpm>0.00</rpm>
</extensions>
</trkpt>
<trkpt lat="30.584318161" lon="34.737701416">
<ele>857.375000</ele>
<time>2013-11-23T08:47:54Z</time>
<speed>0.170000</speed>
<extensions>
<speed>0.2</speed>
<temp>0.00</temp>
<bpm>0</bpm>
<rpm>0.00</rpm>
</extensions>
</trkpt>
<trkpt lat="30.584316254" lon="34.737693787">
<ele>857.031250</ele>
<time>2013-11-23T08:47:59Z</time>
<speed>0.150000</speed>
<extensions>
<speed>0.2</speed>
<temp>0.00</temp>
<bpm>0</bpm>
<rpm>0.00</rpm>
</extensions>
</trkpt>
<trkpt lat="30.584312439" lon="34.737693787">
<ele>856.859375</ele>
<time>2013-11-23T08:48:04Z</time>
<speed>0.200000</speed>
<extensions>
<speed>0.2</speed>
<temp>0.00</temp>
<bpm>0</bpm>
<rpm>0.00</rpm>
</extensions>
</trkpt>
<trkpt lat="30.584308624" lon="34.737693787">
<ele>856.703125</ele>
<time>2013-11-23T08:48:09Z</time>
<speed>0.210000</speed>
<extensions>
<speed>0.2</speed>
<temp>0.00</temp>
<bpm>0</bpm>
<rpm>0.00</rpm>
</extensions>
</trkpt>
<trkpt lat="30.584308624" lon="34.737689972">
<ele>856.609375</ele>
<time>2013-11-23T08:48:14Z</time>
<extensions>
<speed>0.0</speed>
<temp>0.00</temp>
<bpm>0</bpm>
<rpm>0.00</rpm>
</extensions>
</trkpt>
<trkpt lat="30.584308624" lon="34.737689972">
<ele>856.609375</ele>
<time>2013-11-23T08:48:19Z</time>
<speed>0.190000</speed>
<extensions>
<speed>0.2</speed>
<temp>0.00</temp>
<bpm>0</bpm>
<rpm>0.00</rpm>
</extensions>
</trkpt>
<trkpt lat="30.584304810" lon="34.737686157">
<ele>856.578125</ele>
<time>2013-11-23T08:48:24Z</time>
<speed>0.120000</speed>
<extensions>
<speed>0.1</speed>
<temp>0.00</temp>
<bpm>0</bpm>
<rpm>0.00</rpm>
</extensions>
</trkpt>
<trkpt lat="30.584302902" lon="34.737686157">
<ele>856.515625</ele>
<time>2013-11-23T08:48:29Z</time>
<speed>0.020000</speed>
<extensions>
<speed>0.0</speed>
<temp>0.00</temp>
<bpm>0</bpm>
<rpm>0.00</rpm>
</extensions>
</trkpt>
<trkpt lat="30.584302902" lon="34.737686157">
<ele>856.500000</ele>
<time>2013-11-23T08:48:34Z</time>
<extensions>
<speed>0.0</speed>
<temp>0.00</temp>
<bpm>0</bpm>
<rpm>0.00</rpm>
</extensions>
</trkpt>
<trkpt lat="30.584302902" lon="34.737686157">
<ele>856.500000</ele>
<time>2013-11-23T08:48:39Z</time>
<extensions>
<speed>0.0</speed>
<temp>0.00</temp>
<bpm>0</bpm>
<rpm>0.00</rpm>
</extensions>
</trkpt>
<trkpt lat="30.584302902" lon="34.737686157">
<ele>856.500000</ele>
<time>2013-11-23T08:48:44Z</time>
<extensions>
<speed>0.0</speed>
<temp>0.00</temp>
<bpm>0</bpm>
<rpm>0.00</rpm>
</extensions>
</trkpt>
<trkpt lat="30.584302902" lon="34.737686157">
<ele>856.500000</ele>
<time>2013-11-23T08:48:49Z</time>
<extensions>
<speed>0.0</speed>
<temp>0.00</temp>
<bpm>0</bpm>
<rpm>0.00</rpm>
</extensions>
</trkpt>
<trkpt lat="30.584302902" lon="34.737686157">
<ele>856.484375</ele>
<time>2013-11-23T08:48:54Z</time>
<speed>0.010000</speed>
<extensions>
<speed>0.0</speed>
<temp>0.00</temp>
<bpm>0</bpm>
<rpm>0.00</rpm>
</extensions>
</trkpt>
<trkpt lat="30.584302902" lon="34.737686157">
<ele>856.484375</ele>
<time>2013-11-23T08:48:59Z</time>
<speed>0.010000</speed>
<extensions>
<speed>0.0</speed>
<temp>0.00</temp>
<bpm>0</bpm>
<rpm>0.00</rpm>
</extensions>
</trkpt>
<trkpt lat="30.584302902" lon="34.737686157">
<ele>856.500000</ele>
<time>2013-11-23T08:49:04Z</time>
<extensions>
<speed>0.0</speed>
<temp>0.00</temp>
<bpm>0</bpm>
<rpm>0.00</rpm>
</extensions>
</trkpt>
<trkpt lat="30.584302902" lon="34.737686157">
<ele>856.500000</ele>
<time>2013-11-23T08:49:09Z</time>
<speed>0.010000</speed>
<extensions>
<speed>0.0</speed>
<temp>0.00</temp>
<bpm>0</bpm>
<rpm>0.00</rpm>
</extensions>
</trkpt>
<trkpt lat="30.584302902" lon="34.737686157">
<ele>856.484375</ele>
<time>2013-11-23T08:49:14Z</time>
<extensions>
<speed>0.0</speed>
<temp>0.00</temp>
<bpm>0</bpm>
<rpm>0.00</rpm>
</extensions>
</trkpt>
<trkpt lat="30.584302902" lon="34.737686157">
<ele>856.484375</ele>
<time>2013-11-23T08:49:19Z</time>
<extensions>
<speed>0.0</speed>
<temp>0.00</temp>
<bpm>0</bpm>
<rpm>0.00</rpm>
</extensions>
</trkpt>
<trkpt lat="30.584302902" lon="34.737686157">
<ele>856.484375</ele>
<time>2013-11-23T08:49:24Z</time>
<extensions>
<speed>0.0</speed>
<temp>0.00</temp>
<bpm>0</bpm>
<rpm>0.00</rpm>
</extensions>
</trkpt>
<trkpt lat="30.584302902" lon="34.737686157">
<ele>856.484375</ele>
<time>2013-11-23T08:49:29Z</time>
<extensions>
<speed>0.0</speed>
<temp>0.00</temp>
<bpm>0</bpm>
<rpm>0.00</rpm>
</extensions>
</trkpt>
<trkpt lat="30.584302902" lon="34.737686157">
<ele>856.484375</ele>
<time>2013-11-23T08:49:34Z</time>
<extensions>
<speed>0.0</speed>
<temp>0.00</temp>
<bpm>0</bpm>
<rpm>0.00</rpm>
</extensions>
</trkpt>
<trkpt lat="30.584302902" lon="34.737686157">
<ele>856.484375</ele>
<time>2013-11-23T08:49:39Z</time>
<speed>0.010000</speed>
<extensions>
<speed>0.0</speed>
<temp>0.00</temp>
<bpm>0</bpm>
<rpm>0.00</rpm>
</extensions>
</trkpt>
<trkpt lat="30.584302902" lon="34.737686157">
<ele>856.484375</ele>
<time>2013-11-23T08:49:44Z</time>
<extensions>
<speed>0.0</speed>
<temp>0.00</temp>
<bpm>0</bpm>
<rpm>0.00</rpm>
</extensions>
</trkpt>
<trkpt lat="30.584302902" lon="34.737686157">
<ele>856.484375</ele>
<time>2013-11-23T08:49:49Z</time>
<speed>0.140000</speed>
<extensions>
<speed>0.1</speed>
<temp>0.00</temp>
<bpm>0</bpm>
<rpm>0.00</rpm>
</extensions>
</trkpt>
<trkpt lat="30.584293365" lon="34.737682343">
<ele>856.359375</ele>
<time>2013-11-23T08:49:54Z</time>
<speed>0.140000</speed>
<extensions>
<speed>0.1</speed>
<temp>0.00</temp>
<bpm>0</bpm>
<rpm>0.00</rpm>
</extensions>
</trkpt>
<trkpt lat="30.584293365" lon="34.737682343">
<ele>856.156250</ele>
<time>2013-11-23T08:49:59Z</time>
<extensions>
<speed>0.0</speed>
<temp>0.00</temp>
<bpm>0</bpm>
<rpm>0.00</rpm>
</extensions>
</trkpt>
<trkpt lat="30.584302902" lon="34.737689972">
<ele>855.265625</ele>
<time>2013-11-23T08:50:04Z</time>
<speed>0.110000</speed>
<extensions>
<speed>0.1</speed>
<temp>0.00</temp>
<bpm>0</bpm>
<rpm>0.00</rpm>
</extensions>
</trkpt>
<trkpt lat="30.584306717" lon="34.737686157">
<ele>854.671875</ele>
<time>2013-11-23T08:50:09Z</time>
<speed>0.110000</speed>
<extensions>
<speed>0.1</speed>
<temp>0.00</temp>
<bpm>0</bpm>
<rpm>0.00</rpm>
</extensions>
</trkpt>
<trkpt lat="30.584304810" lon="34.737678528">
<ele>854.921875</ele>
<time>2013-11-23T08:50:14Z</time>
<speed>0.120000</speed>
<extensions>
<speed>0.1</speed>
<temp>0.00</temp>
<bpm>0</bpm>
<rpm>0.00</rpm>
</extensions>
</trkpt>
<trkpt lat="30.584304810" lon="34.737682343">
<ele>854.953125</ele>
<time>2013-11-23T08:50:19Z</time>
<speed>0.110000</speed>
<extensions>
<speed>0.1</speed>
<temp>0.00</temp>
<bpm>0</bpm>
<rpm>0.00</rpm>
</extensions>
</trkpt>
<trkpt lat="30.584304810" lon="34.737686157">
<ele>855.000000</ele>
<time>2013-11-23T08:50:24Z</time>
<speed>0.010000</speed>
<extensions>
<speed>0.0</speed>
<temp>0.00</temp>
<bpm>0</bpm>
<rpm>0.00</rpm>
</extensions>
</trkpt>
<trkpt lat="30.584304810" lon="34.737686157">
<ele>855.062500</ele>
<time>2013-11-23T08:50:29Z</time>
<extensions>
<speed>0.0</speed>
<temp>0.00</temp>
<bpm>0</bpm>
<rpm>0.00</rpm>
</extensions>
</trkpt>
<trkpt lat="30.584304810" lon="34.737686157">
<ele>855.093750</ele>
<time>2013-11-23T08:50:34Z</time>
<extensions>
<speed>0.0</speed>
<temp>0.00</temp>
<bpm>0</bpm>
<rpm>0.00</rpm>
</extensions>
</trkpt>
<trkpt lat="30.584304810" lon="34.737686157">
<ele>855.125000</ele>
<time>2013-11-23T08:50:39Z</time>
<extensions>
<speed>0.0</speed>
<temp>0.00</temp>
<bpm>0</bpm>
<rpm>0.00</rpm>
</extensions>
</trkpt>
<trkpt lat="30.584306717" lon="34.737686157">
<ele>855.171875</ele>
<time>2013-11-23T08:50:44Z</time>
<extensions>
<speed>0.0</speed>
<temp>0.00</temp>
<bpm>0</bpm>
<rpm>0.00</rpm>
</extensions>
</trkpt>
<trkpt lat="30.584306717" lon="34.737686157">
<ele>855.203125</ele>
<time>2013-11-23T08:50:49Z</time>
<extensions>
<speed>0.0</speed>
<temp>0.00</temp>
<bpm>0</bpm>
<rpm>0.00</rpm>
</extensions>
</trkpt>
<trkpt lat="30.584306717" lon="34.737686157">
<ele>855.234375</ele>
<time>2013-11-23T08:50:54Z</time>
<extensions>
<speed>0.0</speed>
<temp>0.00</temp>
<bpm>0</bpm>
<rpm>0.00</rpm>
</extensions>
</trkpt>
<trkpt lat="30.584306717" lon="34.737686157">
<ele>855.250000</ele>
<time>2013-11-23T08:50:59Z</time>
<extensions>
<speed>0.0</speed>
<temp>0.00</temp>
<bpm>0</bpm>
<rpm>0.00</rpm>
</extensions>
</trkpt>
<trkpt lat="30.584306717" lon="34.737686157">
<ele>855.265625</ele>
<time>2013-11-23T08:51:04Z</time>
<speed>0.010000</speed>
<extensions>
<speed>0.0</speed>
<temp>0.00</temp>
<bpm>0</bpm>
<rpm>0.00</rpm>
</extensions>
</trkpt>
<trkpt lat="30.584306717" lon="34.737686157">
<ele>855.296875</ele>
<time>2013-11-23T08:51:09Z</time>
<extensions>
<speed>0.0</speed>
<temp>0.00</temp>
<bpm>0</bpm>
<rpm>0.00</rpm>
</extensions>
</trkpt>
<trkpt lat="30.584306717" lon="34.737686157">
<ele>855.312500</ele>
<time>2013-11-23T08:51:14Z</time>
<speed>0.050000</speed>
<extensions>
<speed>0.1</speed>
<temp>0.00</temp>
<bpm>0</bpm>
<rpm>0.00</rpm>
</extensions>
</trkpt>
<trkpt lat="30.584306717" lon="34.737686157">
<ele>855.328125</ele>
<time>2013-11-23T08:51:19Z</time>
<speed>0.020000</speed>
<extensions>
<speed>0.0</speed>
<temp>0.00</temp>
<bpm>0</bpm>
<rpm>0.00</rpm>
</extensions>
</trkpt>
<trkpt lat="30.584306717" lon="34.737686157">
<ele>855.343750</ele>
<time>2013-11-23T08:51:24Z</time>
<speed>0.010000</speed>
<extensions>
<speed>0.0</speed>
<temp>0.00</temp>
<bpm>0</bpm>
<rpm>0.00</rpm>
</extensions>
</trkpt>
<trkpt lat="30.584306717" lon="34.737686157">
<ele>855.359375</ele>
<time>2013-11-23T08:51:29Z</time>
<speed>0.010000</speed>
<extensions>
<speed>0.0</speed>
<temp>0.00</temp>
<bpm>0</bpm>
<rpm>0.00</rpm>
</extensions>
</trkpt>
<trkpt lat="30.584306717" lon="34.737686157">
<ele>855.343750</ele>
<time>2013-11-23T08:51:34Z</time>
<extensions>
<speed>0.0</speed>
<temp>0.00</temp>
<bpm>0</bpm>
<rpm>0.00</rpm>
</extensions>
</trkpt>
<trkpt lat="30.584306717" lon="34.737686157">
<ele>855.343750</ele>
<time>2013-11-23T08:51:39Z</time>
<speed>0.270000</speed>
<extensions>
<speed>0.3</speed>
<temp>0.00</temp>
<bpm>0</bpm>
<rpm>0.00</rpm>
</extensions>
</trkpt>
<trkpt lat="30.584304810" lon="34.737686157">
<ele>855.234375</ele>
<time>2013-11-23T08:51:44Z</time>
<extensions>
<speed>0.0</speed>
<temp>0.00</temp>
<bpm>0</bpm>
<rpm>0.00</rpm>
</extensions>
</trkpt>
<trkpt lat="30.584304810" lon="34.737686157">
<ele>855.265625</ele>
<time>2013-11-23T08:51:49Z</time>
<speed>0.010000</speed>
<extensions>
<speed>0.0</speed>
<temp>0.00</temp>
<bpm>0</bpm>
<rpm>0.00</rpm>
</extensions>
</trkpt>
<trkpt lat="30.584304810" lon="34.737686157">
<ele>855.265625</ele>
<time>2013-11-23T08:51:54Z</time>
<speed>0.020000</speed>
<extensions>
<speed>0.0</speed>
<temp>0.00</temp>
<bpm>0</bpm>
<rpm>0.00</rpm>
</extensions>
</trkpt>
<trkpt lat="30.584260941" lon="34.737689972">
<ele>854.859375</ele>
<time>2013-11-23T08:51:59Z</time>
<speed>1.400000</speed>
<extensions>
<speed>1.4</speed>
<temp>0.00</temp>
<bpm>0</bpm>
<rpm>0.00</rpm>
</extensions>
</trkpt>
<trkpt lat="30.584228516" lon="34.737693787">
<ele>854.984375</ele>
<time>2013-11-23T08:52:04Z</time>
<speed>0.090000</speed>
<extensions>
<speed>0.1</speed>
<temp>0.00</temp>
<bpm>0</bpm>
<rpm>0.00</rpm>
</extensions>
</trkpt>
<trkpt lat="30.584230423" lon="34.737689972">
<ele>855.109375</ele>
<time>2013-11-23T08:52:09Z</time>
<speed>0.080000</speed>
<extensions>
<speed>0.1</speed>
<temp>0.00</temp>
<bpm>0</bpm>
<rpm>0.00</rpm>
</extensions>
</trkpt>
<trkpt lat="30.584194183" lon="34.737689972">
<ele>854.781250</ele>
<time>2013-11-23T08:52:14Z</time>
<speed>1.280000</speed>
<extensions>
<speed>1.3</speed>
<temp>0.00</temp>
<bpm>0</bpm>
<rpm>0.00</rpm>
</extensions>
</trkpt>
<trkpt lat="30.584135056" lon="34.737693787">
<ele>854.109375</ele>
<time>2013-11-23T08:52:19Z</time>
<speed>1.400000</speed>
<extensions>
<speed>1.4</speed>
<temp>0.00</temp>
<bpm>0</bpm>
<rpm>0.00</rpm>
</extensions>
</trkpt>
<trkpt lat="30.584098816" lon="34.737689972">
<ele>853.640625</ele>
<time>2013-11-23T08:52:24Z</time>
<speed>0.160000</speed>
<extensions>
<speed>0.2</speed>
<temp>0.00</temp>
<bpm>0</bpm>
<rpm>0.00</rpm>
</extensions>
</trkpt>
<trkpt lat="30.584096909" lon="34.737689972">
<ele>853.750000</ele>
<time>2013-11-23T08:52:29Z</time>
<speed>0.300000</speed>
<extensions>
<speed>0.3</speed>
<temp>0.00</temp>
<bpm>0</bpm>
<rpm>0.00</rpm>
</extensions>
</trkpt>
<trkpt lat="30.584089279" lon="34.737705231">
<ele>854.093750</ele>
<time>2013-11-23T08:52:34Z</time>
<speed>0.150000</speed>
<extensions>
<speed>0.2</speed>
<temp>0.00</temp>
<bpm>0</bpm>
<rpm>0.00</rpm>
</extensions>
</trkpt>
<trkpt lat="30.584066391" lon="34.737770081">
<ele>853.937500</ele>
<time>2013-11-23T08:52:39Z</time>
<speed>1.770000</speed>
<extensions>
<speed>1.8</speed>
<temp>0.00</temp>
<bpm>0</bpm>
<rpm>0.00</rpm>
</extensions>
</trkpt>
<trkpt lat="30.584047318" lon="34.737838745">
<ele>853.828125</ele>
<time>2013-11-23T08:52:44Z</time>
<speed>1.250000</speed>
<extensions>
<speed>1.3</speed>
<temp>0.00</temp>
<bpm>0</bpm>
<rpm>0.00</rpm>
</extensions>
</trkpt>
<trkpt lat="30.583982468" lon="34.737873077">
<ele>852.984375</ele>
<time>2013-11-23T08:52:49Z</time>
<speed>1.000000</speed>
<extensions>
<speed>1.0</speed>
<temp>0.00</temp>
<bpm>0</bpm>
<rpm>0.00</rpm>
</extensions>
</trkpt>
<trkpt lat="30.583944321" lon="34.737892151">
<ele>852.500000</ele>
<time>2013-11-23T08:52:54Z</time>
<speed>1.310000</speed>
<extensions>
<speed>1.3</speed>
<temp>0.00</temp>
<bpm>0</bpm>
<rpm>0.00</rpm>
</extensions>
</trkpt>
<trkpt lat="30.583902359" lon="34.737915039">
<ele>851.703125</ele>
<time>2013-11-23T08:52:59Z</time>
<speed>0.010000</speed>
<extensions>
<speed>0.0</speed>
<temp>0.00</temp>
<bpm>0</bpm>
<rpm>0.00</rpm>
</extensions>
</trkpt>
<trkpt lat="30.583902359" lon="34.737915039">
<ele>851.656250</ele>
<time>2013-11-23T08:53:04Z</time>
<extensions>
<speed>0.0</speed>
<temp>0.00</temp>
<bpm>0</bpm>
<rpm>0.00</rpm>
</extensions>
</trkpt>
<trkpt lat="30.583902359" lon="34.737915039">
<ele>851.656250</ele>
<time>2013-11-23T08:53:09Z</time>
<extensions>
<speed>0.0</speed>
<temp>0.00</temp>
<bpm>0</bpm>
<rpm>0.00</rpm>
</extensions>
</trkpt>
<trkpt lat="30.583902359" lon="34.737915039">
<ele>851.671875</ele>
<time>2013-11-23T08:53:14Z</time>
<speed>0.560000</speed>
<extensions>
<speed>0.6</speed>
<temp>0.00</temp>
<bpm>0</bpm>
<rpm>0.00</rpm>
</extensions>
</trkpt>
<trkpt lat="30.583839417" lon="34.737964630">
<ele>851.062500</ele>
<time>2013-11-23T08:53:19Z</time>
<speed>2.020000</speed>
<extensions>
<speed>2.0</speed>
<temp>0.00</temp>
<bpm>0</bpm>
<rpm>0.00</rpm>
</extensions>
</trkpt>
<trkpt lat="30.583753586" lon="34.738029480">
<ele>850.203125</ele>
<time>2013-11-23T08:53:24Z</time>
<speed>2.080000</speed>
<extensions>
<speed>2.1</speed>
<temp>0.00</temp>
<bpm>0</bpm>
<rpm>0.00</rpm>
</extensions>
</trkpt>
<trkpt lat="30.583669662" lon="34.738105774">
<ele>848.531250</ele>
<time>2013-11-23T08:53:29Z</time>
<speed>2.040000</speed>
<extensions>
<speed>2.0</speed>
<temp>0.00</temp>
<bpm>0</bpm>
<rpm>0.00</rpm>
</extensions>
</trkpt>
<trkpt lat="30.583591461" lon="34.738197327">
<ele>847.406250</ele>
<time>2013-11-23T08:53:34Z</time>
<speed>2.230000</speed>
<extensions>
<speed>2.2</speed>
<temp>0.00</temp>
<bpm>0</bpm>
<rpm>0.00</rpm>
</extensions>
</trkpt>
<trkpt lat="30.583528519" lon="34.738265991">
<ele>846.203125</ele>
<time>2013-11-23T08:53:39Z</time>
<speed>1.500000</speed>
<extensions>
<speed>1.5</speed>
<temp>0.00</temp>
<bpm>0</bpm>
<rpm>0.00</rpm>
</extensions>
</trkpt>
<trkpt lat="30.583484650" lon="34.738346100">
<ele>844.796875</ele>
<time>2013-11-23T08:53:44Z</time>
<speed>1.900000</speed>
<extensions>
<speed>1.9</speed>
<temp>0.00</temp>
<bpm>0</bpm>
<rpm>0.00</rpm>
</extensions>
</trkpt>
<trkpt lat="30.583452225" lon="34.738430023">
<ele>843.593750</ele>
<time>2013-11-23T08:53:49Z</time>
<speed>1.500000</speed>
<extensions>
<speed>1.5</speed>
<temp>0.00</temp>
<bpm>0</bpm>
<rpm>0.00</rpm>
</extensions>
</trkpt>
<trkpt lat="30.583429337" lon="34.738533020">
<ele>842.046875</ele>
<time>2013-11-23T08:53:54Z</time>
<speed>1.900000</speed>
<extensions>
<speed>1.9</speed>
<temp>0.00</temp>
<bpm>0</bpm>
<rpm>0.00</rpm>
</extensions>
</trkpt>
<trkpt lat="30.583393097" lon="34.738628387">
<ele>840.453125</ele>
<time>2013-11-23T08:53:59Z</time>
<speed>2.530000</speed>
<extensions>
<speed>2.5</speed>
<temp>0.00</temp>
<bpm>0</bpm>
<rpm>0.00</rpm>
</extensions>
</trkpt>
<trkpt lat="30.583328247" lon="34.738765717">
<ele>839.015625</ele>
<time>2013-11-23T08:54:04Z</time>
<speed>2.860000</speed>
<extensions>
<speed>2.9</speed>
<temp>0.00</temp>
<bpm>0</bpm>
<rpm>0.00</rpm>
</extensions>
</trkpt>
<trkpt lat="30.583292007" lon="34.738918304">
<ele>838.140625</ele>
<time>2013-11-23T08:54:09Z</time>
<speed>3.010000</speed>
<extensions>
<speed>3.0</speed>
<temp>0.00</temp>
<bpm>0</bpm>
<rpm>0.00</rpm>
</extensions>
</trkpt>
<trkpt lat="30.583246231" lon="34.739074707">
<ele>837.437500</ele>
<time>2013-11-23T08:54:14Z</time>
<speed>3.790000</speed>
<extensions>
<speed>3.8</speed>
<temp>0.00</temp>
<bpm>0</bpm>
<rpm>0.00</rpm>
</extensions>
</trkpt>
<trkpt lat="30.583223343" lon="34.739246368">
<ele>836.937500</ele>
<time>2013-11-23T08:54:19Z</time>
<speed>2.790000</speed>
<extensions>
<speed>2.8</speed>
<temp>0.00</temp>
<bpm>0</bpm>
<rpm>0.00</rpm>
</extensions>
</trkpt>
<trkpt lat="30.583143234" lon="34.739353180">
<ele>836.234375</ele>
<time>2013-11-23T08:54:24Z</time>
<speed>3.980000</speed>
<extensions>
<speed>4.0</speed>
<temp>0.00</temp>
<bpm>0</bpm>
<rpm>0.00</rpm>
</extensions>
</trkpt>
<trkpt lat="30.583013535" lon="34.739494324">
<ele>835.593750</ele>
<time>2013-11-23T08:54:29Z</time>
<speed>3.310000</speed>
<extensions>
<speed>3.3</speed>
<temp>0.00</temp>
<bpm>0</bpm>
<rpm>0.00</rpm>
</extensions>
</trkpt>
<trkpt lat="30.582902908" lon="34.739631653">
<ele>835.078125</ele>
<time>2013-11-23T08:54:34Z</time>
<speed>3.630000</speed>
<extensions>
<speed>3.6</speed>
<temp>0.00</temp>
<bpm>0</bpm>
<rpm>0.00</rpm>
</extensions>
</trkpt>
<trkpt lat="30.582836151" lon="34.739833832">
<ele>834.296875</ele>
<time>2013-11-23T08:54:39Z</time>
<speed>4.150000</speed>
<extensions>
<speed>4.1</speed>
<temp>0.00</temp>
<bpm>0</bpm>
<rpm>0.00</rpm>
</extensions>
</trkpt>
<trkpt lat="30.582756042" lon="34.739986420">
<ele>833.203125</ele>
<time>2013-11-23T08:54:44Z</time>
<speed>3.040000</speed>
<extensions>
<speed>3.0</speed>
<temp>0.00</temp>
<bpm>0</bpm>
<rpm>0.00</rpm>
</extensions>
</trkpt>
<trkpt lat="30.582689285" lon="34.740085602">
<ele>832.093750</ele>
<time>2013-11-23T08:54:49Z</time>
<speed>1.830000</speed>
<extensions>
<speed>1.8</speed>
<temp>0.00</temp>
<bpm>0</bpm>
<rpm>0.00</rpm>
</extensions>
</trkpt>
<trkpt lat="30.582578659" lon="34.740112305">
<ele>830.125000</ele>
<time>2013-11-23T08:54:54Z</time>
<speed>2.470000</speed>
<extensions>
<speed>2.5</speed>
<temp>0.00</temp>
<bpm>0</bpm>
<rpm>0.00</rpm>
</extensions>
</trkpt>
<trkpt lat="30.582468033" lon="34.740173340">
<ele>828.125000</ele>
<time>2013-11-23T08:54:59Z</time>
<speed>2.110000</speed>
<extensions>
<speed>2.1</speed>
<temp>0.00</temp>
<bpm>0</bpm>
<rpm>0.00</rpm>
</extensions>
</trkpt>
<trkpt lat="30.582372665" lon="34.740238190">
<ele>826.765625</ele>
<time>2013-11-23T08:55:04Z</time>
<speed>2.810000</speed>
<extensions>
<speed>2.8</speed>
<temp>0.00</temp>
<bpm>0</bpm>
<rpm>0.00</rpm>
</extensions>
</trkpt>
<trkpt lat="30.582309723" lon="34.740310669">
<ele>826.546875</ele>
<time>2013-11-23T08:55:09Z</time>
<speed>1.930000</speed>
<extensions>
<speed>1.9</speed>
<temp>0.00</temp>
<bpm>0</bpm>
<rpm>0.00</rpm>
</extensions>
</trkpt>
<trkpt lat="30.582300186" lon="34.740329742">
<ele>826.859375</ele>
<time>2013-11-23T08:55:14Z</time>
<speed>0.080000</speed>
<extensions>
<speed>0.1</speed>
<temp>0.00</temp>
<bpm>0</bpm>
<rpm>0.00</rpm>
</extensions>
</trkpt>
<trkpt lat="30.582290649" lon="34.740345001">
<ele>826.484375</ele>
<time>2013-11-23T08:55:19Z</time>
<speed>1.360000</speed>
<extensions>
<speed>1.4</speed>
<temp>0.00</temp>
<bpm>0</bpm>
<rpm>0.00</rpm>
</extensions>
</trkpt>
<trkpt lat="30.582252502" lon="34.740386963">
<ele>825.890625</ele>
<time>2013-11-23T08:55:24Z</time>
<speed>1.010000</speed>
<extensions>
<speed>1.0</speed>
<temp>0.00</temp>
<bpm>0</bpm>
<rpm>0.00</rpm>
</extensions>
</trkpt>
<trkpt lat="30.582252502" lon="34.740440369">
<ele>825.593750</ele>
<time>2013-11-23T08:55:29Z</time>
<speed>0.410000</speed>
<extensions>
<speed>0.4</speed>
<temp>0.00</temp>
<bpm>0</bpm>
<rpm>0.00</rpm>
</extensions>
</trkpt>
<trkpt lat="30.582269669" lon="34.740470886">
<ele>825.781250</ele>
<time>2013-11-23T08:55:34Z</time>
<speed>0.190000</speed>
<extensions>
<speed>0.2</speed>
<temp>0.00</temp>
<bpm>0</bpm>
<rpm>0.00</rpm>
</extensions>
</trkpt>
<trkpt lat="30.582262039" lon="34.740478516">
<ele>825.953125</ele>
<time>2013-11-23T08:55:39Z</time>
<speed>0.110000</speed>
<extensions>
<speed>0.1</speed>
<temp>0.00</temp>
<bpm>0</bpm>
<rpm>0.00</rpm>
</extensions>
</trkpt>
<trkpt lat="30.582244873" lon="34.740493774">
<ele>825.578125</ele>
<time>2013-11-23T08:55:44Z</time>
<speed>0.810000</speed>
<extensions>
<speed>0.8</speed>
<temp>0.00</temp>
<bpm>0</bpm>
<rpm>0.00</rpm>
</extensions>
</trkpt>
<trkpt lat="30.582241058" lon="34.740512848">
<ele>825.468750</ele>
<time>2013-11-23T08:55:49Z</time>
<speed>1.070000</speed>
<extensions>
<speed>1.1</speed>
<temp>0.00</temp>
<bpm>0</bpm>
<rpm>0.00</rpm>
</extensions>
</trkpt>
<trkpt lat="30.582256317" lon="34.740581512">
<ele>824.031250</ele>
<time>2013-11-23T08:55:54Z</time>
<speed>0.830000</speed>
<extensions>
<speed>0.8</speed>
<temp>0.00</temp>
<bpm>0</bpm>
<rpm>0.00</rpm>
</extensions>
</trkpt>
<trkpt lat="30.582258224" lon="34.740612030">
<ele>823.109375</ele>
<time>2013-11-23T08:55:59Z</time>
<speed>0.100000</speed>
<extensions>
<speed>0.1</speed>
<temp>0.00</temp>
<bpm>0</bpm>
<rpm>0.00</rpm>
</extensions>
</trkpt>
<trkpt lat="30.582258224" lon="34.740627289">
<ele>822.812500</ele>
<time>2013-11-23T08:56:04Z</time>
<speed>1.070000</speed>
<extensions>
<speed>1.1</speed>
<temp>0.00</temp>
<bpm>0</bpm>
<rpm>0.00</rpm>
</extensions>
</trkpt>
<trkpt lat="30.582208633" lon="34.740703583">
<ele>821.109375</ele>
<time>2013-11-23T08:56:09Z</time>
<speed>2.060000</speed>
<extensions>
<speed>2.1</speed>
<temp>0.00</temp>
<bpm>0</bpm>
<rpm>0.00</rpm>
</extensions>
</trkpt>
<trkpt lat="30.582149506" lon="34.740707397">
<ele>819.734375</ele>
<time>2013-11-23T08:56:14Z</time>
<speed>0.540000</speed>
<extensions>
<speed>0.5</speed>
<temp>0.00</temp>
<bpm>0</bpm>
<rpm>0.00</rpm>
</extensions>
</trkpt>
<trkpt lat="30.582157135" lon="34.740718842">
<ele>818.718750</ele>
<time>2013-11-23T08:56:19Z</time>
<speed>0.010000</speed>
<extensions>
<speed>0.0</speed>
<temp>0.00</temp>
<bpm>0</bpm>
<rpm>0.00</rpm>
</extensions>
</trkpt>
<trkpt lat="30.582155228" lon="34.740718842">
<ele>818.671875</ele>
<time>2013-11-23T08:56:24Z</time>
<extensions>
<speed>0.0</speed>
<temp>0.00</temp>
<bpm>0</bpm>
<rpm>0.00</rpm>
</extensions>
</trkpt>
<trkpt lat="30.582153320" lon="34.740707397">
<ele>818.390625</ele>
<time>2013-11-23T08:56:29Z</time>
<speed>0.330000</speed>
<extensions>
<speed>0.3</speed>
<temp>0.00</temp>
<bpm>0</bpm>
<rpm>0.00</rpm>
</extensions>
</trkpt>
<trkpt lat="30.582141876" lon="34.740673065">
<ele>817.546875</ele>
<time>2013-11-23T08:56:34Z</time>
<speed>0.360000</speed>
<extensions>
<speed>0.4</speed>
<temp>0.00</temp>
<bpm>0</bpm>
<rpm>0.00</rpm>
</extensions>
</trkpt>
<trkpt lat="30.582096100" lon="34.740627289">
<ele>815.984375</ele>
<time>2013-11-23T08:56:39Z</time>
<speed>2.410000</speed>
<extensions>
<speed>2.4</speed>
<temp>0.00</temp>
<bpm>0</bpm>
<rpm>0.00</rpm>
</extensions>
</trkpt>
<trkpt lat="30.582025528" lon="34.740550995">
<ele>814.015625</ele>
<time>2013-11-23T08:56:44Z</time>
<speed>2.160000</speed>
<extensions>
<speed>2.2</speed>
<temp>0.00</temp>
<bpm>0</bpm>
<rpm>0.00</rpm>
</extensions>
</trkpt>
<trkpt lat="30.581962585" lon="34.740470886">
<ele>812.671875</ele>
<time>2013-11-23T08:56:49Z</time>
<speed>2.180000</speed>
<extensions>
<speed>2.2</speed>
<temp>0.00</temp>
<bpm>0</bpm>
<rpm>0.00</rpm>
</extensions>
</trkpt>
<trkpt lat="30.581888199" lon="34.740413666">
<ele>811.156250</ele>
<time>2013-11-23T08:56:54Z</time>
<speed>1.730000</speed>
<extensions>
<speed>1.7</speed>
<temp>0.00</temp>
<bpm>0</bpm>
<rpm>0.00</rpm>
</extensions>
</trkpt>
<trkpt lat="30.581842422" lon="34.740390778">
<ele>810.359375</ele>
<time>2013-11-23T08:56:59Z</time>
<speed>0.180000</speed>
<extensions>
<speed>0.2</speed>
<temp>0.00</temp>
<bpm>0</bpm>
<rpm>0.00</rpm>
</extensions>
</trkpt>
<trkpt lat="30.581842422" lon="34.740386963">
<ele>810.109375</ele>
<time>2013-11-23T08:57:04Z</time>
<extensions>
<speed>0.0</speed>
<temp>0.00</temp>
<bpm>0</bpm>
<rpm>0.00</rpm>
</extensions>
</trkpt>
<trkpt lat="30.581842422" lon="34.740390778">
<ele>810.078125</ele>
<time>2013-11-23T08:57:09Z</time>
<extensions>
<speed>0.0</speed>
<temp>0.00</temp>
<bpm>0</bpm>
<rpm>0.00</rpm>
</extensions>
</trkpt>
<trkpt lat="30.581842422" lon="34.740390778">
<ele>810.031250</ele>
<time>2013-11-23T08:57:14Z</time>
<extensions>
<speed>0.0</speed>
<temp>0.00</temp>
<bpm>0</bpm>
<rpm>0.00</rpm>
</extensions>
</trkpt>
<trkpt lat="30.581842422" lon="34.740390778">
<ele>810.015625</ele>
<time>2013-11-23T08:57:19Z</time>
<speed>0.220000</speed>
<extensions>
<speed>0.2</speed>
<temp>0.00</temp>
<bpm>0</bpm>
<rpm>0.00</rpm>
</extensions>
</trkpt>
<trkpt lat="30.581766129" lon="34.740375519">
<ele>808.609375</ele>
<time>2013-11-23T08:57:24Z</time>
<speed>1.780000</speed>
<extensions>
<speed>1.8</speed>
<temp>0.00</temp>
<bpm>0</bpm>
<rpm>0.00</rpm>
</extensions>
</trkpt>
<trkpt lat="30.581691742" lon="34.740402222">
<ele>806.921875</ele>
<time>2013-11-23T08:57:29Z</time>
<speed>1.580000</speed>
<extensions>
<speed>1.6</speed>
<temp>0.00</temp>
<bpm>0</bpm>
<rpm>0.00</rpm>
</extensions>
</trkpt>
<trkpt lat="30.581605911" lon="34.740402222">
<ele>805.703125</ele>
<time>2013-11-23T08:57:34Z</time>
<speed>1.260000</speed>
<extensions>
<speed>1.3</speed>
<temp>0.00</temp>
<bpm>0</bpm>
<rpm>0.00</rpm>
</extensions>
</trkpt>
<trkpt lat="30.581525803" lon="34.740394592">
<ele>804.359375</ele>
<time>2013-11-23T08:57:39Z</time>
<speed>2.010000</speed>
<extensions>
<speed>2.0</speed>
<temp>0.00</temp>
<bpm>0</bpm>
<rpm>0.00</rpm>
</extensions>
</trkpt>
<trkpt lat="30.581426620" lon="34.740390778">
<ele>802.937500</ele>
<time>2013-11-23T08:57:44Z</time>
<speed>1.800000</speed>
<extensions>
<speed>1.8</speed>
<temp>0.00</temp>
<bpm>0</bpm>
<rpm>0.00</rpm>
</extensions>
</trkpt>
<trkpt lat="30.581352234" lon="34.740402222">
<ele>802.484375</ele>
<time>2013-11-23T08:57:49Z</time>
<speed>2.020000</speed>
<extensions>
<speed>2.0</speed>
<temp>0.00</temp>
<bpm>0</bpm>
<rpm>0.00</rpm>
</extensions>
</trkpt>
<trkpt lat="30.581272125" lon="34.740428925">
<ele>801.437500</ele>
<time>2013-11-23T08:57:54Z</time>
<speed>1.680000</speed>
<extensions>
<speed>1.7</speed>
<temp>0.00</temp>
<bpm>0</bpm>
<rpm>0.00</rpm>
</extensions>
</trkpt>
<trkpt lat="30.581235886" lon="34.740444183">
<ele>800.812500</ele>
<time>2013-11-23T08:57:59Z</time>
<speed>0.190000</speed>
<extensions>
<speed>0.2</speed>
<temp>0.00</temp>
<bpm>0</bpm>
<rpm>0.00</rpm>
</extensions>
</trkpt>
<trkpt lat="30.581226349" lon="34.740455627">
<ele>801.265625</ele>
<time>2013-11-23T08:58:04Z</time>
<speed>0.260000</speed>
<extensions>
<speed>0.3</speed>
<temp>0.00</temp>
<bpm>0</bpm>
<rpm>0.00</rpm>
</extensions>
</trkpt>
<trkpt lat="30.581209183" lon="34.740493774">
<ele>801.890625</ele>
<time>2013-11-23T08:58:09Z</time>
<speed>1.190000</speed>
<extensions>
<speed>1.2</speed>
<temp>0.00</temp>
<bpm>0</bpm>
<rpm>0.00</rpm>
</extensions>
</trkpt>
<trkpt lat="30.581190109" lon="34.740524292">
<ele>802.781250</ele>
<time>2013-11-23T08:58:14Z</time>
<speed>0.560000</speed>
<extensions>
<speed>0.6</speed>
<temp>0.00</temp>
<bpm>0</bpm>
<rpm>0.00</rpm>
</extensions>
</trkpt>
<trkpt lat="30.581174850" lon="34.740509033">
<ele>802.203125</ele>
<time>2013-11-23T08:58:19Z</time>
<speed>0.760000</speed>
<extensions>
<speed>0.8</speed>
<temp>0.00</temp>
<bpm>0</bpm>
<rpm>0.00</rpm>
</extensions>
</trkpt>
<trkpt lat="30.581171036" lon="34.740482330">
<ele>801.906250</ele>
<time>2013-11-23T08:58:24Z</time>
<speed>0.030000</speed>
<extensions>
<speed>0.0</speed>
<temp>0.00</temp>
<bpm>0</bpm>
<rpm>0.00</rpm>
</extensions>
</trkpt>
<trkpt lat="30.581176758" lon="34.740489960">
<ele>801.781250</ele>
<time>2013-11-23T08:58:29Z</time>
<speed>0.030000</speed>
<extensions>
<speed>0.0</speed>
<temp>0.00</temp>
<bpm>0</bpm>
<rpm>0.00</rpm>
</extensions>
</trkpt>
<trkpt lat="30.581176758" lon="34.740489960">
<ele>801.750000</ele>
<time>2013-11-23T08:58:34Z</time>
<speed>0.040000</speed>
<extensions>
<speed>0.0</speed>
<temp>0.00</temp>
<bpm>0</bpm>
<rpm>0.00</rpm>
</extensions>
</trkpt>
<trkpt lat="30.581174850" lon="34.740486145">
<ele>801.734375</ele>
<time>2013-11-23T08:58:39Z</time>
<speed>0.560000</speed>
<extensions>
<speed>0.6</speed>
<temp>0.00</temp>
<bpm>0</bpm>
<rpm>0.00</rpm>
</extensions>
</trkpt>
<trkpt lat="30.581197739" lon="34.740463257">
<ele>801.531250</ele>
<time>2013-11-23T08:58:44Z</time>
<speed>0.690000</speed>
<extensions>
<speed>0.7</speed>
<temp>0.00</temp>
<bpm>0</bpm>
<rpm>0.00</rpm>
</extensions>
</trkpt>
<trkpt lat="30.581195831" lon="34.740455627">
<ele>801.812500</ele>
<time>2013-11-23T08:58:49Z</time>
<speed>0.050000</speed>
<extensions>
<speed>0.1</speed>
<temp>0.00</temp>
<bpm>0</bpm>
<rpm>0.00</rpm>
</extensions>
</trkpt>
<trkpt lat="30.581195831" lon="34.740451813">
<ele>801.609375</ele>
<time>2013-11-23T08:58:54Z</time>
<speed>0.210000</speed>
<extensions>
<speed>0.2</speed>
<temp>0.00</temp>
<bpm>0</bpm>
<rpm>0.00</rpm>
</extensions>
</trkpt>
<trkpt lat="30.581195831" lon="34.740440369">
<ele>801.468750</ele>
<time>2013-11-23T08:58:59Z</time>
<speed>0.010000</speed>
<extensions>
<speed>0.0</speed>
<temp>0.00</temp>
<bpm>0</bpm>
<rpm>0.00</rpm>
</extensions>
</trkpt>
<trkpt lat="30.581195831" lon="34.740440369">
<ele>801.421875</ele>
<time>2013-11-23T08:59:04Z</time>
<extensions>
<speed>0.0</speed>
<temp>0.00</temp>
<bpm>0</bpm>
<rpm>0.00</rpm>
</extensions>
</trkpt>
<trkpt lat="30.581195831" lon="34.740440369">
<ele>801.375000</ele>
<time>2013-11-23T08:59:09Z</time>
<extensions>
<speed>0.0</speed>
<temp>0.00</temp>
<bpm>0</bpm>
<rpm>0.00</rpm>
</extensions>
</trkpt>
<trkpt lat="30.581197739" lon="34.740432739">
<ele>801.281250</ele>
<time>2013-11-23T08:59:14Z</time>
<speed>0.230000</speed>
<extensions>
<speed>0.2</speed>
<temp>0.00</temp>
<bpm>0</bpm>
<rpm>0.00</rpm>
</extensions>
</trkpt>
<trkpt lat="30.581201553" lon="34.740413666">
<ele>800.546875</ele>
<time>2013-11-23T08:59:19Z</time>
<speed>0.180000</speed>
<extensions>
<speed>0.2</speed>
<temp>0.00</temp>
<bpm>0</bpm>
<rpm>0.00</rpm>
</extensions>
</trkpt>
<trkpt lat="30.581201553" lon="34.740390778">
<ele>799.640625</ele>
<time>2013-11-23T08:59:24Z</time>
<speed>1.120000</speed>
<extensions>
<speed>1.1</speed>
<temp>0.00</temp>
<bpm>0</bpm>
<rpm>0.00</rpm>
</extensions>
</trkpt>
<trkpt lat="30.581180573" lon="34.740360260">
<ele>799.000000</ele>
<time>2013-11-23T08:59:29Z</time>
<speed>0.280000</speed>
<extensions>
<speed>0.3</speed>
<temp>0.00</temp>
<bpm>0</bpm>
<rpm>0.00</rpm>
</extensions>
</trkpt>
<trkpt lat="30.581172943" lon="34.740348816">
<ele>798.875000</ele>
<time>2013-11-23T08:59:34Z</time>
<speed>0.040000</speed>
<extensions>
<speed>0.0</speed>
<temp>0.00</temp>
<bpm>0</bpm>
<rpm>0.00</rpm>
</extensions>
</trkpt>
<trkpt lat="30.581153870" lon="34.740337372">
<ele>798.546875</ele>
<time>2013-11-23T08:59:39Z</time>
<speed>0.620000</speed>
<extensions>
<speed>0.6</speed>
<temp>0.00</temp>
<bpm>0</bpm>
<rpm>0.00</rpm>
</extensions>
</trkpt>
<trkpt lat="30.581136703" lon="34.740329742">
<ele>798.031250</ele>
<time>2013-11-23T08:59:44Z</time>
<speed>0.280000</speed>
<extensions>
<speed>0.3</speed>
<temp>0.00</temp>
<bpm>0</bpm>
<rpm>0.00</rpm>
</extensions>
</trkpt>
<trkpt lat="30.581121445" lon="34.740322113">
<ele>797.218750</ele>
<time>2013-11-23T08:59:49Z</time>
<speed>0.190000</speed>
<extensions>
<speed>0.2</speed>
<temp>0.00</temp>
<bpm>0</bpm>
<rpm>0.00</rpm>
</extensions>
</trkpt>
<trkpt lat="30.581119537" lon="34.740322113">
<ele>797.359375</ele>
<time>2013-11-23T08:59:54Z</time>
<speed>0.300000</speed>
<extensions>
<speed>0.3</speed>
<temp>0.00</temp>
<bpm>0</bpm>
<rpm>0.00</rpm>
</extensions>
</trkpt>
<trkpt lat="30.581104279" lon="34.740299225">
<ele>796.640625</ele>
<time>2013-11-23T08:59:59Z</time>
<speed>0.750000</speed>
<extensions>
<speed>0.8</speed>
<temp>0.00</temp>
<bpm>0</bpm>
<rpm>0.00</rpm>
</extensions>
</trkpt>
<trkpt lat="30.581075668" lon="34.740276337">
<ele>796.250000</ele>
<time>2013-11-23T09:00:04Z</time>
<speed>0.020000</speed>
<extensions>
<speed>0.0</speed>
<temp>0.00</temp>
<bpm>0</bpm>
<rpm>0.00</rpm>
</extensions>
</trkpt>
<trkpt lat="30.581073761" lon="34.740276337">
<ele>796.500000</ele>
<time>2013-11-23T09:00:09Z</time>
<extensions>
<speed>0.0</speed>
<temp>0.00</temp>
<bpm>0</bpm>
<rpm>0.00</rpm>
</extensions>
</trkpt>
<trkpt lat="30.581073761" lon="34.740276337">
<ele>796.484375</ele>
<time>2013-11-23T09:00:14Z</time>
<extensions>
<speed>0.0</speed>
<temp>0.00</temp>
<bpm>0</bpm>
<rpm>0.00</rpm>
</extensions>
</trkpt>
<trkpt lat="30.581073761" lon="34.740276337">
<ele>796.484375</ele>
<time>2013-11-23T09:00:19Z</time>
<extensions>
<speed>0.0</speed>
<temp>0.00</temp>
<bpm>0</bpm>
<rpm>0.00</rpm>
</extensions>
</trkpt>
<trkpt lat="30.581073761" lon="34.740276337">
<ele>796.468750</ele>
<time>2013-11-23T09:00:24Z</time>
<speed>0.270000</speed>
<extensions>
<speed>0.3</speed>
<temp>0.00</temp>
<bpm>0</bpm>
<rpm>0.00</rpm>
</extensions>
</trkpt>
<trkpt lat="30.581052780" lon="34.740276337">
<ele>796.156250</ele>
<time>2013-11-23T09:00:29Z</time>
<speed>0.910000</speed>
<extensions>
<speed>0.9</speed>
<temp>0.00</temp>
<bpm>0</bpm>
<rpm>0.00</rpm>
</extensions>
</trkpt>
<trkpt lat="30.580980301" lon="34.740310669">
<ele>795.468750</ele>
<time>2013-11-23T09:00:34Z</time>
<speed>2.570000</speed>
<extensions>
<speed>2.6</speed>
<temp>0.00</temp>
<bpm>0</bpm>
<rpm>0.00</rpm>
</extensions>
</trkpt>
<trkpt lat="30.580911636" lon="34.740421295">
<ele>795.265625</ele>
<time>2013-11-23T09:00:39Z</time>
<speed>2.450000</speed>
<extensions>
<speed>2.4</speed>
<temp>0.00</temp>
<bpm>0</bpm>
<rpm>0.00</rpm>
</extensions>
</trkpt>
<trkpt lat="30.580888748" lon="34.740539551">
<ele>795.984375</ele>
<time>2013-11-23T09:00:44Z</time>
<speed>2.060000</speed>
<extensions>
<speed>2.1</speed>
<temp>0.00</temp>
<bpm>0</bpm>
<rpm>0.00</rpm>
</extensions>
</trkpt>
<trkpt lat="30.580848694" lon="34.740631104">
<ele>796.140625</ele>
<time>2013-11-23T09:00:49Z</time>
<speed>2.030000</speed>
<extensions>
<speed>2.0</speed>
<temp>0.00</temp>
<bpm>0</bpm>
<rpm>0.00</rpm>
</extensions>
</trkpt>
<trkpt lat="30.580789566" lon="34.740684509">
<ele>795.296875</ele>
<time>2013-11-23T09:00:54Z</time>
<speed>1.760000</speed>
<extensions>
<speed>1.8</speed>
<temp>0.00</temp>
<bpm>0</bpm>
<rpm>0.00</rpm>
</extensions>
</trkpt>
<trkpt lat="30.580724716" lon="34.740734100">
<ele>794.171875</ele>
<time>2013-11-23T09:00:59Z</time>
<speed>1.890000</speed>
<extensions>
<speed>1.9</speed>
<temp>0.00</temp>
<bpm>0</bpm>
<rpm>0.00</rpm>
</extensions>
</trkpt>
<trkpt lat="30.580646515" lon="34.740791321">
<ele>792.031250</ele>
<time>2013-11-23T09:01:04Z</time>
<speed>2.040000</speed>
<extensions>
<speed>2.0</speed>
<temp>0.00</temp>
<bpm>0</bpm>
<rpm>0.00</rpm>
</extensions>
</trkpt>
<trkpt lat="30.580575943" lon="34.740840912">
<ele>790.406250</ele>
<time>2013-11-23T09:01:09Z</time>
<speed>2.110000</speed>
<extensions>
<speed>2.1</speed>
<temp>0.00</temp>
<bpm>0</bpm>
<rpm>0.00</rpm>
</extensions>
</trkpt>
<trkpt lat="30.580490112" lon="34.740894318">
<ele>787.765625</ele>
<time>2013-11-23T09:01:14Z</time>
<speed>1.960000</speed>
<extensions>
<speed>2.0</speed>
<temp>0.00</temp>
<bpm>0</bpm>
<rpm>0.00</rpm>
</extensions>
</trkpt>
<trkpt lat="30.580425262" lon="34.740890503">
<ele>785.984375</ele>
<time>2013-11-23T09:01:19Z</time>
<speed>1.040000</speed>
<extensions>
<speed>1.0</speed>
<temp>0.00</temp>
<bpm>0</bpm>
<rpm>0.00</rpm>
</extensions>
</trkpt>
<trkpt lat="30.580368042" lon="34.740863800">
<ele>783.656250</ele>
<time>2013-11-23T09:01:24Z</time>
<speed>1.550000</speed>
<extensions>
<speed>1.5</speed>
<temp>0.00</temp>
<bpm>0</bpm>
<rpm>0.00</rpm>
</extensions>
</trkpt>
<trkpt lat="30.580348969" lon="34.740856171">
<ele>783.000000</ele>
<time>2013-11-23T09:01:29Z</time>
<speed>0.020000</speed>
<extensions>
<speed>0.0</speed>
<temp>0.00</temp>
<bpm>0</bpm>
<rpm>0.00</rpm>
</extensions>
</trkpt>
<trkpt lat="30.580348969" lon="34.740856171">
<ele>782.953125</ele>
<time>2013-11-23T09:01:34Z</time>
<speed>0.090000</speed>
<extensions>
<speed>0.1</speed>
<temp>0.00</temp>
<bpm>0</bpm>
<rpm>0.00</rpm>
</extensions>
</trkpt>
<trkpt lat="30.580320358" lon="34.740825653">
<ele>781.625000</ele>
<time>2013-11-23T09:01:39Z</time>
<speed>1.500000</speed>
<extensions>
<speed>1.5</speed>
<temp>0.00</temp>
<bpm>0</bpm>
<rpm>0.00</rpm>
</extensions>
</trkpt>
<trkpt lat="30.580270767" lon="34.740753174">
<ele>779.718750</ele>
<time>2013-11-23T09:01:44Z</time>
<speed>2.090000</speed>
<extensions>
<speed>2.1</speed>
<temp>0.00</temp>
<bpm>0</bpm>
<rpm>0.00</rpm>
</extensions>
</trkpt>
<trkpt lat="30.580236435" lon="34.740638733">
<ele>777.562500</ele>
<time>2013-11-23T09:01:49Z</time>
<speed>2.440000</speed>
<extensions>
<speed>2.4</speed>
<temp>0.00</temp>
<bpm>0</bpm>
<rpm>0.00</rpm>
</extensions>
</trkpt>
<trkpt lat="30.580242157" lon="34.740516663">
<ele>775.343750</ele>
<time>2013-11-23T09:01:54Z</time>
<speed>2.900000</speed>
<extensions>
<speed>2.9</speed>
<temp>0.00</temp>
<bpm>0</bpm>
<rpm>0.00</rpm>
</extensions>
</trkpt>
<trkpt lat="30.580224991" lon="34.740360260">
<ele>772.140625</ele>
<time>2013-11-23T09:01:59Z</time>
<speed>4.150000</speed>
<extensions>
<speed>4.1</speed>
<temp>0.00</temp>
<bpm>0</bpm>
<rpm>0.00</rpm>
</extensions>
</trkpt>
<trkpt lat="30.580242157" lon="34.740070343">
<ele>769.140625</ele>
<time>2013-11-23T09:02:04Z</time>
<speed>6.630000</speed>
<extensions>
<speed>6.6</speed>
<temp>0.00</temp>
<bpm>0</bpm>
<rpm>0.00</rpm>
</extensions>
</trkpt>
<trkpt lat="30.580236435" lon="34.739749908">
<ele>769.078125</ele>
<time>2013-11-23T09:02:09Z</time>
<speed>4.740000</speed>
<extensions>
<speed>4.7</speed>
<temp>0.00</temp>
<bpm>0</bpm>
<rpm>0.00</rpm>
</extensions>
</trkpt>
<trkpt lat="30.580177307" lon="34.739559174">
<ele>769.203125</ele>
<time>2013-11-23T09:02:14Z</time>
<speed>3.440000</speed>
<extensions>
<speed>3.4</speed>
<temp>0.00</temp>
<bpm>0</bpm>
<rpm>0.00</rpm>
</extensions>
</trkpt>
<trkpt lat="30.580120087" lon="34.739459991">
<ele>769.437500</ele>
<time>2013-11-23T09:02:19Z</time>
<speed>2.020000</speed>
<extensions>
<speed>2.0</speed>
<temp>0.00</temp>
<bpm>0</bpm>
<rpm>0.00</rpm>
</extensions>
</trkpt>
<trkpt lat="30.580072403" lon="34.739437103">
<ele>769.375000</ele>
<time>2013-11-23T09:02:24Z</time>
<speed>0.020000</speed>
<extensions>
<speed>0.0</speed>
<temp>0.00</temp>
<bpm>0</bpm>
<rpm>0.00</rpm>
</extensions>
</trkpt>
<trkpt lat="30.580020905" lon="34.739395142">
<ele>769.390625</ele>
<time>2013-11-23T09:02:29Z</time>
<speed>2.040000</speed>
<extensions>
<speed>2.0</speed>
<temp>0.00</temp>
<bpm>0</bpm>
<rpm>0.00</rpm>
</extensions>
</trkpt>
<trkpt lat="30.579956055" lon="34.739337921">
<ele>769.250000</ele>
<time>2013-11-23T09:02:34Z</time>
<speed>1.740000</speed>
<extensions>
<speed>1.7</speed>
<temp>0.00</temp>
<bpm>0</bpm>
<rpm>0.00</rpm>
</extensions>
</trkpt>
<trkpt lat="30.579944611" lon="34.739261627">
<ele>768.328125</ele>
<time>2013-11-23T09:02:39Z</time>
<speed>1.180000</speed>
<extensions>
<speed>1.2</speed>
<temp>0.00</temp>
<bpm>0</bpm>
<rpm>0.00</rpm>
</extensions>
</trkpt>
<trkpt lat="30.579933167" lon="34.739246368">
<ele>768.500000</ele>
<time>2013-11-23T09:02:44Z</time>
<speed>0.480000</speed>
<extensions>
<speed>0.5</speed>
<temp>0.00</temp>
<bpm>0</bpm>
<rpm>0.00</rpm>
</extensions>
</trkpt>
<trkpt lat="30.579906464" lon="34.739238739">
<ele>768.687500</ele>
<time>2013-11-23T09:02:49Z</time>
<speed>0.040000</speed>
<extensions>
<speed>0.0</speed>
<temp>0.00</temp>
<bpm>0</bpm>
<rpm>0.00</rpm>
</extensions>
</trkpt>
<trkpt lat="30.579904556" lon="34.739238739">
<ele>768.671875</ele>
<time>2013-11-23T09:02:54Z</time>
<speed>0.010000</speed>
<extensions>
<speed>0.0</speed>
<temp>0.00</temp>
<bpm>0</bpm>
<rpm>0.00</rpm>
</extensions>
</trkpt>
<trkpt lat="30.579904556" lon="34.739238739">
<ele>768.656250</ele>
<time>2013-11-23T09:02:59Z</time>
<speed>0.100000</speed>
<extensions>
<speed>0.1</speed>
<temp>0.00</temp>
<bpm>0</bpm>
<rpm>0.00</rpm>
</extensions>
</trkpt>
<trkpt lat="30.579875946" lon="34.739219666">
<ele>767.906250</ele>
<time>2013-11-23T09:03:04Z</time>
<speed>1.340000</speed>
<extensions>
<speed>1.3</speed>
<temp>0.00</temp>
<bpm>0</bpm>
<rpm>0.00</rpm>
</extensions>
</trkpt>
<trkpt lat="30.579849243" lon="34.739170074">
<ele>766.250000</ele>
<time>2013-11-23T09:03:09Z</time>
<speed>1.790000</speed>
<extensions>
<speed>1.8</speed>
<temp>0.00</temp>
<bpm>0</bpm>
<rpm>0.00</rpm>
</extensions>
</trkpt>
<trkpt lat="30.579772949" lon="34.739135742">
<ele>764.062500</ele>
<time>2013-11-23T09:03:14Z</time>
<speed>0.850000</speed>
<extensions>
<speed>0.8</speed>
<temp>0.00</temp>
<bpm>0</bpm>
<rpm>0.00</rpm>
</extensions>
</trkpt>
<trkpt lat="30.579761505" lon="34.739128113">
<ele>763.671875</ele>
<time>2013-11-23T09:03:19Z</time>
<speed>0.930000</speed>
<extensions>
<speed>0.9</speed>
<temp>0.00</temp>
<bpm>0</bpm>
<rpm>0.00</rpm>
</extensions>
</trkpt>
<trkpt lat="30.579729080" lon="34.739109039">
<ele>763.156250</ele>
<time>2013-11-23T09:03:24Z</time>
<speed>0.500000</speed>
<extensions>
<speed>0.5</speed>
<temp>0.00</temp>
<bpm>0</bpm>
<rpm>0.00</rpm>
</extensions>
</trkpt>
<trkpt lat="30.579696655" lon="34.739082336">
<ele>762.250000</ele>
<time>2013-11-23T09:03:29Z</time>
<speed>0.860000</speed>
<extensions>
<speed>0.9</speed>
<temp>0.00</temp>
<bpm>0</bpm>
<rpm>0.00</rpm>
</extensions>
</trkpt>
<trkpt lat="30.579662323" lon="34.739059448">
<ele>761.265625</ele>
<time>2013-11-23T09:03:34Z</time>
<speed>0.420000</speed>
<extensions>
<speed>0.4</speed>
<temp>0.00</temp>
<bpm>0</bpm>
<rpm>0.00</rpm>
</extensions>
</trkpt>
<trkpt lat="30.579654694" lon="34.739059448">
<ele>760.812500</ele>
<time>2013-11-23T09:03:39Z</time>
<extensions>
<speed>0.0</speed>
<temp>0.00</temp>
<bpm>0</bpm>
<rpm>0.00</rpm>
</extensions>
</trkpt>
<trkpt lat="30.579654694" lon="34.739059448">
<ele>760.796875</ele>
<time>2013-11-23T09:03:44Z</time>
<speed>0.010000</speed>
<extensions>
<speed>0.0</speed>
<temp>0.00</temp>
<bpm>0</bpm>
<rpm>0.00</rpm>
</extensions>
</trkpt>
<trkpt lat="30.579654694" lon="34.739059448">
<ele>760.765625</ele>
<time>2013-11-23T09:03:49Z</time>
<extensions>
<speed>0.0</speed>
<temp>0.00</temp>
<bpm>0</bpm>
<rpm>0.00</rpm>
</extensions>
</trkpt>
<trkpt lat="30.579654694" lon="34.739059448">
<ele>760.765625</ele>
<time>2013-11-23T09:03:54Z</time>
<extensions>
<speed>0.0</speed>
<temp>0.00</temp>
<bpm>0</bpm>
<rpm>0.00</rpm>
</extensions>
</trkpt>
<trkpt lat="30.579654694" lon="34.739059448">
<ele>760.781250</ele>
<time>2013-11-23T09:03:59Z</time>
<extensions>
<speed>0.0</speed>
<temp>0.00</temp>
<bpm>0</bpm>
<rpm>0.00</rpm>
</extensions>
</trkpt>
<trkpt lat="30.579654694" lon="34.739059448">
<ele>760.781250</ele>
<time>2013-11-23T09:04:04Z</time>
<extensions>
<speed>0.0</speed>
<temp>0.00</temp>
<bpm>0</bpm>
<rpm>0.00</rpm>
</extensions>
</trkpt>
<trkpt lat="30.579654694" lon="34.739059448">
<ele>760.765625</ele>
<time>2013-11-23T09:04:09Z</time>
<extensions>
<speed>0.0</speed>
<temp>0.00</temp>
<bpm>0</bpm>
<rpm>0.00</rpm>
</extensions>
</trkpt>
<trkpt lat="30.579654694" lon="34.739059448">
<ele>760.765625</ele>
<time>2013-11-23T09:04:14Z</time>
<extensions>
<speed>0.0</speed>
<temp>0.00</temp>
<bpm>0</bpm>
<rpm>0.00</rpm>
</extensions>
</trkpt>
<trkpt lat="30.579654694" lon="34.739059448">
<ele>760.765625</ele>
<time>2013-11-23T09:04:19Z</time>
<extensions>
<speed>0.0</speed>
<temp>0.00</temp>
<bpm>0</bpm>
<rpm>0.00</rpm>
</extensions>
</trkpt>
<trkpt lat="30.579654694" lon="34.739059448">
<ele>760.765625</ele>
<time>2013-11-23T09:04:24Z</time>
<speed>0.010000</speed>
<extensions>
<speed>0.0</speed>
<temp>0.00</temp>
<bpm>0</bpm>
<rpm>0.00</rpm>
</extensions>
</trkpt>
<trkpt lat="30.579654694" lon="34.739059448">
<ele>760.750000</ele>
<time>2013-11-23T09:04:29Z</time>
<extensions>
<speed>0.0</speed>
<temp>0.00</temp>
<bpm>0</bpm>
<rpm>0.00</rpm>
</extensions>
</trkpt>
<trkpt lat="30.579654694" lon="34.739059448">
<ele>760.750000</ele>
<time>2013-11-23T09:04:34Z</time>
<extensions>
<speed>0.0</speed>
<temp>0.00</temp>
<bpm>0</bpm>
<rpm>0.00</rpm>
</extensions>
</trkpt>
<trkpt lat="30.579654694" lon="34.739059448">
<ele>760.734375</ele>
<time>2013-11-23T09:04:39Z</time>
<extensions>
<speed>0.0</speed>
<temp>0.00</temp>
<bpm>0</bpm>
<rpm>0.00</rpm>
</extensions>
</trkpt>
<trkpt lat="30.579654694" lon="34.739059448">
<ele>760.734375</ele>
<time>2013-11-23T09:04:44Z</time>
<extensions>
<speed>0.0</speed>
<temp>0.00</temp>
<bpm>0</bpm>
<rpm>0.00</rpm>
</extensions>
</trkpt>
<trkpt lat="30.579654694" lon="34.739059448">
<ele>760.718750</ele>
<time>2013-11-23T09:04:49Z</time>
<extensions>
<speed>0.0</speed>
<temp>0.00</temp>
<bpm>0</bpm>
<rpm>0.00</rpm>
</extensions>
</trkpt>
<trkpt lat="30.579652786" lon="34.739059448">
<ele>760.718750</ele>
<time>2013-11-23T09:04:54Z</time>
<speed>0.010000</speed>
<extensions>
<speed>0.0</speed>
<temp>0.00</temp>
<bpm>0</bpm>
<rpm>0.00</rpm>
</extensions>
</trkpt>
<trkpt lat="30.579652786" lon="34.739059448">
<ele>760.718750</ele>
<time>2013-11-23T09:04:59Z</time>
<extensions>
<speed>0.0</speed>
<temp>0.00</temp>
<bpm>0</bpm>
<rpm>0.00</rpm>
</extensions>
</trkpt>
<trkpt lat="30.579654694" lon="34.739059448">
<ele>760.718750</ele>
<time>2013-11-23T09:05:04Z</time>
<extensions>
<speed>0.0</speed>
<temp>0.00</temp>
<bpm>0</bpm>
<rpm>0.00</rpm>
</extensions>
</trkpt>
<trkpt lat="30.579654694" lon="34.739059448">
<ele>760.703125</ele>
<time>2013-11-23T09:05:09Z</time>
<extensions>
<speed>0.0</speed>
<temp>0.00</temp>
<bpm>0</bpm>
<rpm>0.00</rpm>
</extensions>
</trkpt>
<trkpt lat="30.579652786" lon="34.739059448">
<ele>760.703125</ele>
<time>2013-11-23T09:05:14Z</time>
<speed>0.040000</speed>
<extensions>
<speed>0.0</speed>
<temp>0.00</temp>
<bpm>0</bpm>
<rpm>0.00</rpm>
</extensions>
</trkpt>
<trkpt lat="30.579652786" lon="34.739059448">
<ele>760.687500</ele>
<time>2013-11-23T09:05:19Z</time>
<speed>0.010000</speed>
<extensions>
<speed>0.0</speed>
<temp>0.00</temp>
<bpm>0</bpm>
<rpm>0.00</rpm>
</extensions>
</trkpt>
<trkpt lat="30.579652786" lon="34.739059448">
<ele>760.703125</ele>
<time>2013-11-23T09:05:24Z</time>
<extensions>
<speed>0.0</speed>
<temp>0.00</temp>
<bpm>0</bpm>
<rpm>0.00</rpm>
</extensions>
</trkpt>
<trkpt lat="30.579652786" lon="34.739063263">
<ele>760.703125</ele>
<time>2013-11-23T09:05:29Z</time>
<speed>0.050000</speed>
<extensions>
<speed>0.1</speed>
<temp>0.00</temp>
<bpm>0</bpm>
<rpm>0.00</rpm>
</extensions>
</trkpt>
<trkpt lat="30.579637527" lon="34.739059448">
<ele>760.765625</ele>
<time>2013-11-23T09:05:34Z</time>
<speed>0.790000</speed>
<extensions>
<speed>0.8</speed>
<temp>0.00</temp>
<bpm>0</bpm>
<rpm>0.00</rpm>
</extensions>
</trkpt>
<trkpt lat="30.579607010" lon="34.739059448">
<ele>761.000000</ele>
<time>2013-11-23T09:05:39Z</time>
<speed>1.130000</speed>
<extensions>
<speed>1.1</speed>
<temp>0.00</temp>
<bpm>0</bpm>
<rpm>0.00</rpm>
</extensions>
</trkpt>
<trkpt lat="30.579547882" lon="34.739044189">
<ele>760.531250</ele>
<time>2013-11-23T09:05:44Z</time>
<speed>0.350000</speed>
<extensions>
<speed>0.3</speed>
<temp>0.00</temp>
<bpm>0</bpm>
<rpm>0.00</rpm>
</extensions>
</trkpt>
<trkpt lat="30.579536438" lon="34.739040375">
<ele>760.546875</ele>
<time>2013-11-23T09:05:49Z</time>
<speed>0.230000</speed>
<extensions>
<speed>0.2</speed>
<temp>0.00</temp>
<bpm>0</bpm>
<rpm>0.00</rpm>
</extensions>
</trkpt>
<trkpt lat="30.579523087" lon="34.739040375">
<ele>760.328125</ele>
<time>2013-11-23T09:05:54Z</time>
<extensions>
<speed>0.0</speed>
<temp>0.00</temp>
<bpm>0</bpm>
<rpm>0.00</rpm>
</extensions>
</trkpt>
<trkpt lat="30.579523087" lon="34.739040375">
<ele>760.296875</ele>
<time>2013-11-23T09:05:59Z</time>
<speed>0.360000</speed>
<extensions>
<speed>0.4</speed>
<temp>0.00</temp>
<bpm>0</bpm>
<rpm>0.00</rpm>
</extensions>
</trkpt>
<trkpt lat="30.579504013" lon="34.739032745">
<ele>760.171875</ele>
<time>2013-11-23T09:06:04Z</time>
<speed>0.750000</speed>
<extensions>
<speed>0.8</speed>
<temp>0.00</temp>
<bpm>0</bpm>
<rpm>0.00</rpm>
</extensions>
</trkpt>
<trkpt lat="30.579467773" lon="34.739017487">
<ele>759.593750</ele>
<time>2013-11-23T09:06:09Z</time>
<speed>0.800000</speed>
<extensions>
<speed>0.8</speed>
<temp>0.00</temp>
<bpm>0</bpm>
<rpm>0.00</rpm>
</extensions>
</trkpt>
<trkpt lat="30.579442978" lon="34.739006042">
<ele>760.046875</ele>
<time>2013-11-23T09:06:14Z</time>
<speed>0.580000</speed>
<extensions>
<speed>0.6</speed>
<temp>0.00</temp>
<bpm>0</bpm>
<rpm>0.00</rpm>
</extensions>
</trkpt>
<trkpt lat="30.579412460" lon="34.738994598">
<ele>759.859375</ele>
<time>2013-11-23T09:06:19Z</time>
<speed>0.720000</speed>
<extensions>
<speed>0.7</speed>
<temp>0.00</temp>
<bpm>0</bpm>
<rpm>0.00</rpm>
</extensions>
</trkpt>
<trkpt lat="30.579383850" lon="34.738994598">
<ele>760.500000</ele>
<time>2013-11-23T09:06:24Z</time>
<speed>0.720000</speed>
<extensions>
<speed>0.7</speed>
<temp>0.00</temp>
<bpm>0</bpm>
<rpm>0.00</rpm>
</extensions>
</trkpt>
<trkpt lat="30.579370499" lon="34.739013672">
<ele>759.718750</ele>
<time>2013-11-23T09:06:29Z</time>
<speed>0.110000</speed>
<extensions>
<speed>0.1</speed>
<temp>0.00</temp>
<bpm>0</bpm>
<rpm>0.00</rpm>
</extensions>
</trkpt>
<trkpt lat="30.579359055" lon="34.739036560">
<ele>760.343750</ele>
<time>2013-11-23T09:06:34Z</time>
<speed>0.110000</speed>
<extensions>
<speed>0.1</speed>
<temp>0.00</temp>
<bpm>0</bpm>
<rpm>0.00</rpm>
</extensions>
</trkpt>
<trkpt lat="30.579339981" lon="34.739048004">
<ele>760.890625</ele>
<time>2013-11-23T09:06:39Z</time>
<speed>0.800000</speed>
<extensions>
<speed>0.8</speed>
<temp>0.00</temp>
<bpm>0</bpm>
<rpm>0.00</rpm>
</extensions>
</trkpt>
<trkpt lat="30.579313278" lon="34.739051819">
<ele>760.328125</ele>
<time>2013-11-23T09:06:44Z</time>
<speed>0.150000</speed>
<extensions>
<speed>0.2</speed>
<temp>0.00</temp>
<bpm>0</bpm>
<rpm>0.00</rpm>
</extensions>
</trkpt>
<trkpt lat="30.579277039" lon="34.739070892">
<ele>760.593750</ele>
<time>2013-11-23T09:06:49Z</time>
<speed>1.800000</speed>
<extensions>
<speed>1.8</speed>
<temp>0.00</temp>
<bpm>0</bpm>
<rpm>0.00</rpm>
</extensions>
</trkpt>
<trkpt lat="30.579202652" lon="34.739101410">
<ele>759.312500</ele>
<time>2013-11-23T09:06:54Z</time>
<speed>1.630000</speed>
<extensions>
<speed>1.6</speed>
<temp>0.00</temp>
<bpm>0</bpm>
<rpm>0.00</rpm>
</extensions>
</trkpt>
<trkpt lat="30.579137802" lon="34.739093781">
<ele>757.312500</ele>
<time>2013-11-23T09:06:59Z</time>
<speed>1.630000</speed>
<extensions>
<speed>1.6</speed>
<temp>0.00</temp>
<bpm>0</bpm>
<rpm>0.00</rpm>
</extensions>
</trkpt>
<trkpt lat="30.579071045" lon="34.739044189">
<ele>754.359375</ele>
<time>2013-11-23T09:07:04Z</time>
<speed>1.430000</speed>
<extensions>
<speed>1.4</speed>
<temp>0.00</temp>
<bpm>0</bpm>
<rpm>0.00</rpm>
</extensions>
</trkpt>
<trkpt lat="30.579011917" lon="34.738990784">
<ele>752.250000</ele>
<time>2013-11-23T09:07:09Z</time>
<speed>1.710000</speed>
<extensions>
<speed>1.7</speed>
<temp>0.00</temp>
<bpm>0</bpm>
<rpm>0.00</rpm>
</extensions>
</trkpt>
<trkpt lat="30.578937531" lon="34.738964081">
<ele>750.625000</ele>
<time>2013-11-23T09:07:14Z</time>
<speed>1.560000</speed>
<extensions>
<speed>1.6</speed>
<temp>0.00</temp>
<bpm>0</bpm>
<rpm>0.00</rpm>
</extensions>
</trkpt>
<trkpt lat="30.578927994" lon="34.738967896">
<ele>750.687500</ele>
<time>2013-11-23T09:07:19Z</time>
<speed>0.490000</speed>
<extensions>
<speed>0.5</speed>
<temp>0.00</temp>
<bpm>0</bpm>
<rpm>0.00</rpm>
</extensions>
</trkpt>
<trkpt lat="30.578927994" lon="34.738960266">
<ele>750.609375</ele>
<time>2013-11-23T09:07:24Z</time>
<speed>0.710000</speed>
<extensions>
<speed>0.7</speed>
<temp>0.00</temp>
<bpm>0</bpm>
<rpm>0.00</rpm>
</extensions>
</trkpt>
<trkpt lat="30.578927994" lon="34.738948822">
<ele>749.828125</ele>
<time>2013-11-23T09:07:29Z</time>
<speed>0.720000</speed>
<extensions>
<speed>0.7</speed>
<temp>0.00</temp>
<bpm>0</bpm>
<rpm>0.00</rpm>
</extensions>
</trkpt>
<trkpt lat="30.578939438" lon="34.738918304">
<ele>749.125000</ele>
<time>2013-11-23T09:07:34Z</time>
<speed>0.560000</speed>
<extensions>
<speed>0.6</speed>
<temp>0.00</temp>
<bpm>0</bpm>
<rpm>0.00</rpm>
</extensions>
</trkpt>
<trkpt lat="30.578929901" lon="34.738887787">
<ele>748.671875</ele>
<time>2013-11-23T09:07:39Z</time>
<speed>0.430000</speed>
<extensions>
<speed>0.4</speed>
<temp>0.00</temp>
<bpm>0</bpm>
<rpm>0.00</rpm>
</extensions>
</trkpt>
<trkpt lat="30.578929901" lon="34.738849640">
<ele>747.953125</ele>
<time>2013-11-23T09:07:44Z</time>
<speed>0.650000</speed>
<extensions>
<speed>0.6</speed>
<temp>0.00</temp>
<bpm>0</bpm>
<rpm>0.00</rpm>
</extensions>
</trkpt>
<trkpt lat="30.578927994" lon="34.738815308">
<ele>747.437500</ele>
<time>2013-11-23T09:07:49Z</time>
<speed>0.640000</speed>
<extensions>
<speed>0.6</speed>
<temp>0.00</temp>
<bpm>0</bpm>
<rpm>0.00</rpm>
</extensions>
</trkpt>
<trkpt lat="30.578926086" lon="34.738773346">
<ele>746.578125</ele>
<time>2013-11-23T09:07:54Z</time>
<speed>0.510000</speed>
<extensions>
<speed>0.5</speed>
<temp>0.00</temp>
<bpm>0</bpm>
<rpm>0.00</rpm>
</extensions>
</trkpt>
<trkpt lat="30.578931808" lon="34.738735199">
<ele>745.515625</ele>
<time>2013-11-23T09:07:59Z</time>
<speed>0.660000</speed>
<extensions>
<speed>0.7</speed>
<temp>0.00</temp>
<bpm>0</bpm>
<rpm>0.00</rpm>
</extensions>
</trkpt>
<trkpt lat="30.578929901" lon="34.738700867">
<ele>744.578125</ele>
<time>2013-11-23T09:08:04Z</time>
<speed>0.450000</speed>
<extensions>
<speed>0.5</speed>
<temp>0.00</temp>
<bpm>0</bpm>
<rpm>0.00</rpm>
</extensions>
</trkpt>
<trkpt lat="30.578933716" lon="34.738670349">
<ele>744.109375</ele>
<time>2013-11-23T09:08:09Z</time>
<speed>0.280000</speed>
<extensions>
<speed>0.3</speed>
<temp>0.00</temp>
<bpm>0</bpm>
<rpm>0.00</rpm>
</extensions>
</trkpt>
<trkpt lat="30.578931808" lon="34.738628387">
<ele>743.359375</ele>
<time>2013-11-23T09:08:14Z</time>
<speed>0.480000</speed>
<extensions>
<speed>0.5</speed>
<temp>0.00</temp>
<bpm>0</bpm>
<rpm>0.00</rpm>
</extensions>
</trkpt>
<trkpt lat="30.578929901" lon="34.738586426">
<ele>742.453125</ele>
<time>2013-11-23T09:08:19Z</time>
<speed>0.680000</speed>
<extensions>
<speed>0.7</speed>
<temp>0.00</temp>
<bpm>0</bpm>
<rpm>0.00</rpm>
</extensions>
</trkpt>
<trkpt lat="30.578948975" lon="34.738548279">
<ele>741.953125</ele>
<time>2013-11-23T09:08:24Z</time>
<speed>1.080000</speed>
<extensions>
<speed>1.1</speed>
<temp>0.00</temp>
<bpm>0</bpm>
<rpm>0.00</rpm>
</extensions>
</trkpt>
<trkpt lat="30.578954697" lon="34.738525391">
<ele>741.375000</ele>
<time>2013-11-23T09:08:29Z</time>
<speed>0.100000</speed>
<extensions>
<speed>0.1</speed>
<temp>0.00</temp>
<bpm>0</bpm>
<rpm>0.00</rpm>
</extensions>
</trkpt>
<trkpt lat="30.578947067" lon="34.738525391">
<ele>741.546875</ele>
<time>2013-11-23T09:08:34Z</time>
<speed>0.100000</speed>
<extensions>
<speed>0.1</speed>
<temp>0.00</temp>
<bpm>0</bpm>
<rpm>0.00</rpm>
</extensions>
</trkpt>
<trkpt lat="30.578948975" lon="34.738521576">
<ele>741.546875</ele>
<time>2013-11-23T09:08:39Z</time>
<speed>0.090000</speed>
<extensions>
<speed>0.1</speed>
<temp>0.00</temp>
<bpm>0</bpm>
<rpm>0.00</rpm>
</extensions>
</trkpt>
<trkpt lat="30.578950882" lon="34.738521576">
<ele>741.546875</ele>
<time>2013-11-23T09:08:44Z</time>
<speed>0.080000</speed>
<extensions>
<speed>0.1</speed>
<temp>0.00</temp>
<bpm>0</bpm>
<rpm>0.00</rpm>
</extensions>
</trkpt>
<trkpt lat="30.578950882" lon="34.738502502">
<ele>741.421875</ele>
<time>2013-11-23T09:08:49Z</time>
<speed>1.990000</speed>
<extensions>
<speed>2.0</speed>
<temp>0.00</temp>
<bpm>0</bpm>
<rpm>0.00</rpm>
</extensions>
</trkpt>
<trkpt lat="30.578886032" lon="34.738430023">
<ele>739.312500</ele>
<time>2013-11-23T09:08:54Z</time>
<speed>2.140000</speed>
<extensions>
<speed>2.1</speed>
<temp>0.00</temp>
<bpm>0</bpm>
<rpm>0.00</rpm>
</extensions>
</trkpt>
<trkpt lat="30.578807831" lon="34.738353729">
<ele>736.703125</ele>
<time>2013-11-23T09:08:59Z</time>
<speed>2.210000</speed>
<extensions>
<speed>2.2</speed>
<temp>0.00</temp>
<bpm>0</bpm>
<rpm>0.00</rpm>
</extensions>
</trkpt>
<trkpt lat="30.578729630" lon="34.738292694">
<ele>734.687500</ele>
<time>2013-11-23T09:09:04Z</time>
<speed>1.480000</speed>
<extensions>
<speed>1.5</speed>
<temp>0.00</temp>
<bpm>0</bpm>
<rpm>0.00</rpm>
</extensions>
</trkpt>
<trkpt lat="30.578655243" lon="34.738224030">
<ele>732.140625</ele>
<time>2013-11-23T09:09:09Z</time>
<speed>2.360000</speed>
<extensions>
<speed>2.4</speed>
<temp>0.00</temp>
<bpm>0</bpm>
<rpm>0.00</rpm>
</extensions>
</trkpt>
<trkpt lat="30.578552246" lon="34.738151550">
<ele>729.046875</ele>
<time>2013-11-23T09:09:14Z</time>
<speed>2.720000</speed>
<extensions>
<speed>2.7</speed>
<temp>0.00</temp>
<bpm>0</bpm>
<rpm>0.00</rpm>
</extensions>
</trkpt>
<trkpt lat="30.578477859" lon="34.738155365">
<ele>727.218750</ele>
<time>2013-11-23T09:09:19Z</time>
<speed>0.820000</speed>
<extensions>
<speed>0.8</speed>
<temp>0.00</temp>
<bpm>0</bpm>
<rpm>0.00</rpm>
</extensions>
</trkpt>
<trkpt lat="30.578453064" lon="34.738178253">
<ele>727.046875</ele>
<time>2013-11-23T09:09:24Z</time>
<speed>0.720000</speed>
<extensions>
<speed>0.7</speed>
<temp>0.00</temp>
<bpm>0</bpm>
<rpm>0.00</rpm>
</extensions>
</trkpt>
<trkpt lat="30.578422546" lon="34.738178253">
<ele>726.500000</ele>
<time>2013-11-23T09:09:29Z</time>
<speed>0.380000</speed>
<extensions>
<speed>0.4</speed>
<temp>0.00</temp>
<bpm>0</bpm>
<rpm>0.00</rpm>
</extensions>
</trkpt>
<trkpt lat="30.578411102" lon="34.738174438">
<ele>726.171875</ele>
<time>2013-11-23T09:09:34Z</time>
<speed>0.470000</speed>
<extensions>
<speed>0.5</speed>
<temp>0.00</temp>
<bpm>0</bpm>
<rpm>0.00</rpm>
</extensions>
</trkpt>
<trkpt lat="30.578395844" lon="34.738170624">
<ele>725.515625</ele>
<time>2013-11-23T09:09:39Z</time>
<speed>0.180000</speed>
<extensions>
<speed>0.2</speed>
<temp>0.00</temp>
<bpm>0</bpm>
<rpm>0.00</rpm>
</extensions>
</trkpt>
<trkpt lat="30.578390121" lon="34.738166809">
<ele>725.390625</ele>
<time>2013-11-23T09:09:44Z</time>
<speed>0.060000</speed>
<extensions>
<speed>0.1</speed>
<temp>0.00</temp>
<bpm>0</bpm>
<rpm>0.00</rpm>
</extensions>
</trkpt>
<trkpt lat="30.578384399" lon="34.738170624">
<ele>725.265625</ele>
<time>2013-11-23T09:09:49Z</time>
<speed>0.100000</speed>
<extensions>
<speed>0.1</speed>
<temp>0.00</temp>
<bpm>0</bpm>
<rpm>0.00</rpm>
</extensions>
</trkpt>
<trkpt lat="30.578369141" lon="34.738162994">
<ele>724.593750</ele>
<time>2013-11-23T09:09:54Z</time>
<speed>1.090000</speed>
<extensions>
<speed>1.1</speed>
<temp>0.00</temp>
<bpm>0</bpm>
<rpm>0.00</rpm>
</extensions>
</trkpt>
<trkpt lat="30.578308105" lon="34.738090515">
<ele>722.046875</ele>
<time>2013-11-23T09:09:59Z</time>
<speed>1.900000</speed>
<extensions>
<speed>1.9</speed>
<temp>0.00</temp>
<bpm>0</bpm>
<rpm>0.00</rpm>
</extensions>
</trkpt>
<trkpt lat="30.578245163" lon="34.738021851">
<ele>719.828125</ele>
<time>2013-11-23T09:10:04Z</time>
<speed>2.450000</speed>
<extensions>
<speed>2.4</speed>
<temp>0.00</temp>
<bpm>0</bpm>
<rpm>0.00</rpm>
</extensions>
</trkpt>
<trkpt lat="30.578182220" lon="34.737949371">
<ele>718.031250</ele>
<time>2013-11-23T09:10:09Z</time>
<speed>1.650000</speed>
<extensions>
<speed>1.7</speed>
<temp>0.00</temp>
<bpm>0</bpm>
<rpm>0.00</rpm>
</extensions>
</trkpt>
<trkpt lat="30.578151703" lon="34.737911224">
<ele>717.171875</ele>
<time>2013-11-23T09:10:14Z</time>
<speed>1.540000</speed>
<extensions>
<speed>1.5</speed>
<temp>0.00</temp>
<bpm>0</bpm>
<rpm>0.00</rpm>
</extensions>
</trkpt>
<trkpt lat="30.578090668" lon="34.737865448">
<ele>715.671875</ele>
<time>2013-11-23T09:10:19Z</time>
<speed>1.750000</speed>
<extensions>
<speed>1.8</speed>
<temp>0.00</temp>
<bpm>0</bpm>
<rpm>0.00</rpm>
</extensions>
</trkpt>
<trkpt lat="30.578035355" lon="34.737823486">
<ele>714.125000</ele>
<time>2013-11-23T09:10:24Z</time>
<speed>1.120000</speed>
<extensions>
<speed>1.1</speed>
<temp>0.00</temp>
<bpm>0</bpm>
<rpm>0.00</rpm>
</extensions>
</trkpt>
<trkpt lat="30.578012466" lon="34.737796783">
<ele>713.625000</ele>
<time>2013-11-23T09:10:29Z</time>
<speed>1.040000</speed>
<extensions>
<speed>1.0</speed>
<temp>0.00</temp>
<bpm>0</bpm>
<rpm>0.00</rpm>
</extensions>
</trkpt>
<trkpt lat="30.577955246" lon="34.737743378">
<ele>712.500000</ele>
<time>2013-11-23T09:10:34Z</time>
<speed>1.820000</speed>
<extensions>
<speed>1.8</speed>
<temp>0.00</temp>
<bpm>0</bpm>
<rpm>0.00</rpm>
</extensions>
</trkpt>
<trkpt lat="30.577898026" lon="34.737693787">
<ele>711.531250</ele>
<time>2013-11-23T09:10:39Z</time>
<speed>1.910000</speed>
<extensions>
<speed>1.9</speed>
<temp>0.00</temp>
<bpm>0</bpm>
<rpm>0.00</rpm>
</extensions>
</trkpt>
<trkpt lat="30.577825546" lon="34.737606049">
<ele>710.375000</ele>
<time>2013-11-23T09:10:44Z</time>
<speed>2.650000</speed>
<extensions>
<speed>2.6</speed>
<temp>0.00</temp>
<bpm>0</bpm>
<rpm>0.00</rpm>
</extensions>
</trkpt>
<trkpt lat="30.577774048" lon="34.737510681">
<ele>709.531250</ele>
<time>2013-11-23T09:10:49Z</time>
<speed>1.740000</speed>
<extensions>
<speed>1.7</speed>
<temp>0.00</temp>
<bpm>0</bpm>
<rpm>0.00</rpm>
</extensions>
</trkpt>
<trkpt lat="30.577711105" lon="34.737457275">
<ele>708.234375</ele>
<time>2013-11-23T09:10:54Z</time>
<speed>2.170000</speed>
<extensions>
<speed>2.2</speed>
<temp>0.00</temp>
<bpm>0</bpm>
<rpm>0.00</rpm>
</extensions>
</trkpt>
<trkpt lat="30.577627182" lon="34.737430573">
<ele>706.843750</ele>
<time>2013-11-23T09:10:59Z</time>
<speed>1.980000</speed>
<extensions>
<speed>2.0</speed>
<temp>0.00</temp>
<bpm>0</bpm>
<rpm>0.00</rpm>
</extensions>
</trkpt>
<trkpt lat="30.577545166" lon="34.737365723">
<ele>705.250000</ele>
<time>2013-11-23T09:11:04Z</time>
<speed>1.980000</speed>
<extensions>
<speed>2.0</speed>
<temp>0.00</temp>
<bpm>0</bpm>
<rpm>0.00</rpm>
</extensions>
</trkpt>
<trkpt lat="30.577465057" lon="34.737297058">
<ele>703.437500</ele>
<time>2013-11-23T09:11:09Z</time>
<speed>2.140000</speed>
<extensions>
<speed>2.1</speed>
<temp>0.00</temp>
<bpm>0</bpm>
<rpm>0.00</rpm>
</extensions>
</trkpt>
<trkpt lat="30.577383041" lon="34.737239838">
<ele>702.062500</ele>
<time>2013-11-23T09:11:14Z</time>
<speed>2.520000</speed>
<extensions>
<speed>2.5</speed>
<temp>0.00</temp>
<bpm>0</bpm>
<rpm>0.00</rpm>
</extensions>
</trkpt>
<trkpt lat="30.577291489" lon="34.737201691">
<ele>700.203125</ele>
<time>2013-11-23T09:11:19Z</time>
<speed>2.340000</speed>
<extensions>
<speed>2.3</speed>
<temp>0.00</temp>
<bpm>0</bpm>
<rpm>0.00</rpm>
</extensions>
</trkpt>
<trkpt lat="30.577215195" lon="34.737121582">
<ele>698.593750</ele>
<time>2013-11-23T09:11:24Z</time>
<speed>2.440000</speed>
<extensions>
<speed>2.4</speed>
<temp>0.00</temp>
<bpm>0</bpm>
<rpm>0.00</rpm>
</extensions>
</trkpt>
<trkpt lat="30.577163696" lon="34.737030029">
<ele>697.500000</ele>
<time>2013-11-23T09:11:29Z</time>
<speed>1.760000</speed>
<extensions>
<speed>1.8</speed>
<temp>0.00</temp>
<bpm>0</bpm>
<rpm>0.00</rpm>
</extensions>
</trkpt>
<trkpt lat="30.577144623" lon="34.736991882">
<ele>697.390625</ele>
<time>2013-11-23T09:11:34Z</time>
<speed>0.020000</speed>
<extensions>
<speed>0.0</speed>
<temp>0.00</temp>
<bpm>0</bpm>
<rpm>0.00</rpm>
</extensions>
</trkpt>
<trkpt lat="30.577146530" lon="34.736991882">
<ele>697.406250</ele>
<time>2013-11-23T09:11:39Z</time>
<speed>0.040000</speed>
<extensions>
<speed>0.0</speed>
<temp>0.00</temp>
<bpm>0</bpm>
<rpm>0.00</rpm>
</extensions>
</trkpt>
<trkpt lat="30.577146530" lon="34.736991882">
<ele>697.437500</ele>
<time>2013-11-23T09:11:44Z</time>
<speed>0.020000</speed>
<extensions>
<speed>0.0</speed>
<temp>0.00</temp>
<bpm>0</bpm>
<rpm>0.00</rpm>
</extensions>
</trkpt>
<trkpt lat="30.577144623" lon="34.736976624">
<ele>697.328125</ele>
<time>2013-11-23T09:11:49Z</time>
<speed>1.920000</speed>
<extensions>
<speed>1.9</speed>
<temp>0.00</temp>
<bpm>0</bpm>
<rpm>0.00</rpm>
</extensions>
</trkpt>
<trkpt lat="30.577102661" lon="34.736877441">
<ele>696.265625</ele>
<time>2013-11-23T09:11:54Z</time>
<speed>1.500000</speed>
<extensions>
<speed>1.5</speed>
<temp>0.00</temp>
<bpm>0</bpm>
<rpm>0.00</rpm>
</extensions>
</trkpt>
<trkpt lat="30.577066422" lon="34.736808777">
<ele>695.718750</ele>
<time>2013-11-23T09:11:59Z</time>
<speed>1.490000</speed>
<extensions>
<speed>1.5</speed>
<temp>0.00</temp>
<bpm>0</bpm>
<rpm>0.00</rpm>
</extensions>
</trkpt>
<trkpt lat="30.577018738" lon="34.736743927">
<ele>694.796875</ele>
<time>2013-11-23T09:12:04Z</time>
<speed>2.050000</speed>
<extensions>
<speed>2.1</speed>
<temp>0.00</temp>
<bpm>0</bpm>
<rpm>0.00</rpm>
</extensions>
</trkpt>
<trkpt lat="30.576934814" lon="34.736667633">
<ele>693.359375</ele>
<time>2013-11-23T09:12:09Z</time>
<speed>2.430000</speed>
<extensions>
<speed>2.4</speed>
<temp>0.00</temp>
<bpm>0</bpm>
<rpm>0.00</rpm>
</extensions>
</trkpt>
<trkpt lat="30.576829910" lon="34.736663818">
<ele>692.515625</ele>
<time>2013-11-23T09:12:14Z</time>
<speed>2.150000</speed>
<extensions>
<speed>2.1</speed>
<temp>0.00</temp>
<bpm>0</bpm>
<rpm>0.00</rpm>
</extensions>
</trkpt>
<trkpt lat="30.576747894" lon="34.736698151">
<ele>692.062500</ele>
<time>2013-11-23T09:12:19Z</time>
<speed>1.990000</speed>
<extensions>
<speed>2.0</speed>
<temp>0.00</temp>
<bpm>0</bpm>
<rpm>0.00</rpm>
</extensions>
</trkpt>
<trkpt lat="30.576673508" lon="34.736713409">
<ele>690.937500</ele>
<time>2013-11-23T09:12:24Z</time>
<speed>0.930000</speed>
<extensions>
<speed>0.9</speed>
<temp>0.00</temp>
<bpm>0</bpm>
<rpm>0.00</rpm>
</extensions>
</trkpt>
<trkpt lat="30.576650620" lon="34.736656189">
<ele>689.218750</ele>
<time>2013-11-23T09:12:29Z</time>
<speed>1.750000</speed>
<extensions>
<speed>1.8</speed>
<temp>0.00</temp>
<bpm>0</bpm>
<rpm>0.00</rpm>
</extensions>
</trkpt>
<trkpt lat="30.576572418" lon="34.736610413">
<ele>687.171875</ele>
<time>2013-11-23T09:12:34Z</time>
<speed>1.430000</speed>
<extensions>
<speed>1.4</speed>
<temp>0.00</temp>
<bpm>0</bpm>
<rpm>0.00</rpm>
</extensions>
</trkpt>
<trkpt lat="30.576505661" lon="34.736598969">
<ele>686.203125</ele>
<time>2013-11-23T09:12:39Z</time>
<speed>1.280000</speed>
<extensions>
<speed>1.3</speed>
<temp>0.00</temp>
<bpm>0</bpm>
<rpm>0.00</rpm>
</extensions>
</trkpt>
<trkpt lat="30.576475143" lon="34.736579895">
<ele>685.687500</ele>
<time>2013-11-23T09:12:44Z</time>
<speed>0.350000</speed>
<extensions>
<speed>0.3</speed>
<temp>0.00</temp>
<bpm>0</bpm>
<rpm>0.00</rpm>
</extensions>
</trkpt>
<trkpt lat="30.576461792" lon="34.736579895">
<ele>685.406250</ele>
<time>2013-11-23T09:12:49Z</time>
<speed>0.030000</speed>
<extensions>
<speed>0.0</speed>
<temp>0.00</temp>
<bpm>0</bpm>
<rpm>0.00</rpm>
</extensions>
</trkpt>
<trkpt lat="30.576461792" lon="34.736579895">
<ele>685.140625</ele>
<time>2013-11-23T09:12:54Z</time>
<speed>0.020000</speed>
<extensions>
<speed>0.0</speed>
<temp>0.00</temp>
<bpm>0</bpm>
<rpm>0.00</rpm>
</extensions>
</trkpt>
<trkpt lat="30.576459885" lon="34.736579895">
<ele>684.906250</ele>
<time>2013-11-23T09:12:59Z</time>
<speed>0.030000</speed>
<extensions>
<speed>0.0</speed>
<temp>0.00</temp>
<bpm>0</bpm>
<rpm>0.00</rpm>
</extensions>
</trkpt>
<trkpt lat="30.576457977" lon="34.736579895">
<ele>684.625000</ele>
<time>2013-11-23T09:13:04Z</time>
<speed>0.110000</speed>
<extensions>
<speed>0.1</speed>
<temp>0.00</temp>
<bpm>0</bpm>
<rpm>0.00</rpm>
</extensions>
</trkpt>
<trkpt lat="30.576452255" lon="34.736576080">
<ele>684.375000</ele>
<time>2013-11-23T09:13:09Z</time>
<speed>0.230000</speed>
<extensions>
<speed>0.2</speed>
<temp>0.00</temp>
<bpm>0</bpm>
<rpm>0.00</rpm>
</extensions>
</trkpt>
<trkpt lat="30.576402664" lon="34.736557007">
<ele>684.203125</ele>
<time>2013-11-23T09:13:14Z</time>
<speed>1.850000</speed>
<extensions>
<speed>1.8</speed>
<temp>0.00</temp>
<bpm>0</bpm>
<rpm>0.00</rpm>
</extensions>
</trkpt>
<trkpt lat="30.576351166" lon="34.736465454">
<ele>682.453125</ele>
<time>2013-11-23T09:13:19Z</time>
<speed>2.400000</speed>
<extensions>
<speed>2.4</speed>
<temp>0.00</temp>
<bpm>0</bpm>
<rpm>0.00</rpm>
</extensions>
</trkpt>
<trkpt lat="30.576330185" lon="34.736343384">
<ele>680.593750</ele>
<time>2013-11-23T09:13:24Z</time>
<speed>2.820000</speed>
<extensions>
<speed>2.8</speed>
<temp>0.00</temp>
<bpm>0</bpm>
<rpm>0.00</rpm>
</extensions>
</trkpt>
<trkpt lat="30.576339722" lon="34.736209869">
<ele>679.703125</ele>
<time>2013-11-23T09:13:29Z</time>
<speed>2.610000</speed>
<extensions>
<speed>2.6</speed>
<temp>0.00</temp>
<bpm>0</bpm>
<rpm>0.00</rpm>
</extensions>
</trkpt>
<trkpt lat="30.576353073" lon="34.736118317">
<ele>678.953125</ele>
<time>2013-11-23T09:13:34Z</time>
<speed>0.370000</speed>
<extensions>
<speed>0.4</speed>
<temp>0.00</temp>
<bpm>0</bpm>
<rpm>0.00</rpm>
</extensions>
</trkpt>
<trkpt lat="30.576385498" lon="34.736042023">
<ele>677.656250</ele>
<time>2013-11-23T09:13:39Z</time>
<speed>3.240000</speed>
<extensions>
<speed>3.2</speed>
<temp>0.00</temp>
<bpm>0</bpm>
<rpm>0.00</rpm>
</extensions>
</trkpt>
<trkpt lat="30.576490402" lon="34.735881805">
<ele>674.968750</ele>
<time>2013-11-23T09:13:44Z</time>
<speed>3.760000</speed>
<extensions>
<speed>3.8</speed>
<temp>0.00</temp>
<bpm>0</bpm>
<rpm>0.00</rpm>
</extensions>
</trkpt>
<trkpt lat="30.576562881" lon="34.735721588">
<ele>672.171875</ele>
<time>2013-11-23T09:13:49Z</time>
<speed>3.520000</speed>
<extensions>
<speed>3.5</speed>
<temp>0.00</temp>
<bpm>0</bpm>
<rpm>0.00</rpm>
</extensions>
</trkpt>
<trkpt lat="30.576559067" lon="34.735523224">
<ele>668.234375</ele>
<time>2013-11-23T09:13:54Z</time>
<speed>4.180000</speed>
<extensions>
<speed>4.2</speed>
<temp>0.00</temp>
<bpm>0</bpm>
<rpm>0.00</rpm>
</extensions>
</trkpt>
<trkpt lat="30.576492310" lon="34.735290527">
<ele>663.656250</ele>
<time>2013-11-23T09:13:59Z</time>
<speed>4.870000</speed>
<extensions>
<speed>4.9</speed>
<temp>0.00</temp>
<bpm>0</bpm>
<rpm>0.00</rpm>
</extensions>
</trkpt>
<trkpt lat="30.576332092" lon="34.735115051">
<ele>660.968750</ele>
<time>2013-11-23T09:14:04Z</time>
<speed>5.210000</speed>
<extensions>
<speed>5.2</speed>
<temp>0.00</temp>
<bpm>0</bpm>
<rpm>0.00</rpm>
</extensions>
</trkpt>
<trkpt lat="30.576108932" lon="34.735046387">
<ele>658.890625</ele>
<time>2013-11-23T09:14:09Z</time>
<speed>4.410000</speed>
<extensions>
<speed>4.4</speed>
<temp>0.00</temp>
<bpm>0</bpm>
<rpm>0.00</rpm>
</extensions>
</trkpt>
<trkpt lat="30.575920105" lon="34.734977722">
<ele>657.062500</ele>
<time>2013-11-23T09:14:14Z</time>
<speed>3.870000</speed>
<extensions>
<speed>3.9</speed>
<temp>0.00</temp>
<bpm>0</bpm>
<rpm>0.00</rpm>
</extensions>
</trkpt>
<trkpt lat="30.575786591" lon="34.734935760">
<ele>655.734375</ele>
<time>2013-11-23T09:14:19Z</time>
<speed>2.480000</speed>
<extensions>
<speed>2.5</speed>
<temp>0.00</temp>
<bpm>0</bpm>
<rpm>0.00</rpm>
</extensions>
</trkpt>
<trkpt lat="30.575748444" lon="34.734931946">
<ele>655.156250</ele>
<time>2013-11-23T09:14:24Z</time>
<speed>0.750000</speed>
<extensions>
<speed>0.8</speed>
<temp>0.00</temp>
<bpm>0</bpm>
<rpm>0.00</rpm>
</extensions>
</trkpt>
<trkpt lat="30.575656891" lon="34.734954834">
<ele>653.968750</ele>
<time>2013-11-23T09:14:29Z</time>
<speed>2.630000</speed>
<extensions>
<speed>2.6</speed>
<temp>0.00</temp>
<bpm>0</bpm>
<rpm>0.00</rpm>
</extensions>
</trkpt>
<trkpt lat="30.575519562" lon="34.734947205">
<ele>652.671875</ele>
<time>2013-11-23T09:14:34Z</time>
<speed>3.810000</speed>
<extensions>
<speed>3.8</speed>
<temp>0.00</temp>
<bpm>0</bpm>
<rpm>0.00</rpm>
</extensions>
</trkpt>
<trkpt lat="30.575439453" lon="34.735076904">
<ele>651.640625</ele>
<time>2013-11-23T09:14:39Z</time>
<speed>3.450000</speed>
<extensions>
<speed>3.5</speed>
<temp>0.00</temp>
<bpm>0</bpm>
<rpm>0.00</rpm>
</extensions>
</trkpt>
<trkpt lat="30.575351715" lon="34.735260010">
<ele>650.031250</ele>
<time>2013-11-23T09:14:44Z</time>
<speed>5.100000</speed>
<extensions>
<speed>5.1</speed>
<temp>0.00</temp>
<bpm>0</bpm>
<rpm>0.00</rpm>
</extensions>
</trkpt>
<trkpt lat="30.575185776" lon="34.735378265">
<ele>649.234375</ele>
<time>2013-11-23T09:14:49Z</time>
<speed>4.100000</speed>
<extensions>
<speed>4.1</speed>
<temp>0.00</temp>
<bpm>0</bpm>
<rpm>0.00</rpm>
</extensions>
</trkpt>
<trkpt lat="30.575086594" lon="34.735614777">
<ele>647.250000</ele>
<time>2013-11-23T09:14:54Z</time>
<speed>5.290000</speed>
<extensions>
<speed>5.3</speed>
<temp>0.00</temp>
<bpm>0</bpm>
<rpm>0.00</rpm>
</extensions>
</trkpt>
<trkpt lat="30.575006485" lon="34.735832214">
<ele>648.031250</ele>
<time>2013-11-23T09:14:59Z</time>
<speed>4.290000</speed>
<extensions>
<speed>4.3</speed>
<temp>0.00</temp>
<bpm>0</bpm>
<rpm>0.00</rpm>
</extensions>
</trkpt>
<trkpt lat="30.574922562" lon="34.736034393">
<ele>648.500000</ele>
<time>2013-11-23T09:15:04Z</time>
<speed>4.280000</speed>
<extensions>
<speed>4.3</speed>
<temp>0.00</temp>
<bpm>0</bpm>
<rpm>0.00</rpm>
</extensions>
</trkpt>
<trkpt lat="30.574954987" lon="34.736274719">
<ele>647.921875</ele>
<time>2013-11-23T09:15:09Z</time>
<speed>4.900000</speed>
<extensions>
<speed>4.9</speed>
<temp>0.00</temp>
<bpm>0</bpm>
<rpm>0.00</rpm>
</extensions>
</trkpt>
<trkpt lat="30.575056076" lon="34.736312866">
<ele>650.218750</ele>
<time>2013-11-23T09:15:14Z</time>
<speed>0.350000</speed>
<extensions>
<speed>0.3</speed>
<temp>0.00</temp>
<bpm>0</bpm>
<rpm>0.00</rpm>
</extensions>
</trkpt>
<trkpt lat="30.575067520" lon="34.736324310">
<ele>650.453125</ele>
<time>2013-11-23T09:15:19Z</time>
<speed>0.770000</speed>
<extensions>
<speed>0.8</speed>
<temp>0.00</temp>
<bpm>0</bpm>
<rpm>0.00</rpm>
</extensions>
</trkpt>
<trkpt lat="30.575092316" lon="34.736351013">
<ele>651.156250</ele>
<time>2013-11-23T09:15:24Z</time>
<speed>0.850000</speed>
<extensions>
<speed>0.8</speed>
<temp>0.00</temp>
<bpm>0</bpm>
<rpm>0.00</rpm>
</extensions>
</trkpt>
<trkpt lat="30.575111389" lon="34.736396790">
<ele>652.984375</ele>
<time>2013-11-23T09:15:29Z</time>
<speed>1.160000</speed>
<extensions>
<speed>1.2</speed>
<temp>0.00</temp>
<bpm>0</bpm>
<rpm>0.00</rpm>
</extensions>
</trkpt>
<trkpt lat="30.575119019" lon="34.736446381">
<ele>654.843750</ele>
<time>2013-11-23T09:15:34Z</time>
<speed>0.900000</speed>
<extensions>
<speed>0.9</speed>
<temp>0.00</temp>
<bpm>0</bpm>
<rpm>0.00</rpm>
</extensions>
</trkpt>
<trkpt lat="30.575098038" lon="34.736541748">
<ele>655.812500</ele>
<time>2013-11-23T09:15:39Z</time>
<speed>2.760000</speed>
<extensions>
<speed>2.8</speed>
<temp>0.00</temp>
<bpm>0</bpm>
<rpm>0.00</rpm>
</extensions>
</trkpt>
<trkpt lat="30.575071335" lon="34.736709595">
<ele>655.593750</ele>
<time>2013-11-23T09:15:44Z</time>
<speed>3.920000</speed>
<extensions>
<speed>3.9</speed>
<temp>0.00</temp>
<bpm>0</bpm>
<rpm>0.00</rpm>
</extensions>
</trkpt>
<trkpt lat="30.575052261" lon="34.736949921">
<ele>655.281250</ele>
<time>2013-11-23T09:15:49Z</time>
<speed>4.690000</speed>
<extensions>
<speed>4.7</speed>
<temp>0.00</temp>
<bpm>0</bpm>
<rpm>0.00</rpm>
</extensions>
</trkpt>
<trkpt lat="30.574962616" lon="34.737171173">
<ele>654.546875</ele>
<time>2013-11-23T09:15:54Z</time>
<speed>4.810000</speed>
<extensions>
<speed>4.8</speed>
<temp>0.00</temp>
<bpm>0</bpm>
<rpm>0.00</rpm>
</extensions>
</trkpt>
<trkpt lat="30.574834824" lon="34.737400055">
<ele>653.421875</ele>
<time>2013-11-23T09:15:59Z</time>
<speed>5.450000</speed>
<extensions>
<speed>5.5</speed>
<temp>0.00</temp>
<bpm>0</bpm>
<rpm>0.00</rpm>
</extensions>
</trkpt>
<trkpt lat="30.574747086" lon="34.737594604">
<ele>652.921875</ele>
<time>2013-11-23T09:16:04Z</time>
<speed>2.890000</speed>
<extensions>
<speed>2.9</speed>
<temp>0.00</temp>
<bpm>0</bpm>
<rpm>0.00</rpm>
</extensions>
</trkpt>
<trkpt lat="30.574657440" lon="34.737644196">
<ele>649.484375</ele>
<time>2013-11-23T09:16:09Z</time>
<speed>0.250000</speed>
<extensions>
<speed>0.2</speed>
<temp>0.00</temp>
<bpm>0</bpm>
<rpm>0.00</rpm>
</extensions>
</trkpt>
<trkpt lat="30.574663162" lon="34.737648010">
<ele>649.109375</ele>
<time>2013-11-23T09:16:14Z</time>
<speed>0.020000</speed>
<extensions>
<speed>0.0</speed>
<temp>0.00</temp>
<bpm>0</bpm>
<rpm>0.00</rpm>
</extensions>
</trkpt>
<trkpt lat="30.574661255" lon="34.737648010">
<ele>648.875000</ele>
<time>2013-11-23T09:16:19Z</time>
<speed>0.060000</speed>
<extensions>
<speed>0.1</speed>
<temp>0.00</temp>
<bpm>0</bpm>
<rpm>0.00</rpm>
</extensions>
</trkpt>
<trkpt lat="30.574661255" lon="34.737648010">
<ele>648.718750</ele>
<time>2013-11-23T09:16:24Z</time>
<speed>0.020000</speed>
<extensions>
<speed>0.0</speed>
<temp>0.00</temp>
<bpm>0</bpm>
<rpm>0.00</rpm>
</extensions>
</trkpt>
<trkpt lat="30.574659348" lon="34.737648010">
<ele>648.671875</ele>
<time>2013-11-23T09:16:29Z</time>
<speed>0.010000</speed>
<extensions>
<speed>0.0</speed>
<temp>0.00</temp>
<bpm>0</bpm>
<rpm>0.00</rpm>
</extensions>
</trkpt>
<trkpt lat="30.574659348" lon="34.737648010">
<ele>648.609375</ele>
<time>2013-11-23T09:16:34Z</time>
<speed>0.020000</speed>
<extensions>
<speed>0.0</speed>
<temp>0.00</temp>
<bpm>0</bpm>
<rpm>0.00</rpm>
</extensions>
</trkpt>
<trkpt lat="30.574659348" lon="34.737648010">
<ele>648.546875</ele>
<time>2013-11-23T09:16:39Z</time>
<speed>0.080000</speed>
<extensions>
<speed>0.1</speed>
<temp>0.00</temp>
<bpm>0</bpm>
<rpm>0.00</rpm>
</extensions>
</trkpt>
<trkpt lat="30.574642181" lon="34.737689972">
<ele>648.046875</ele>
<time>2013-11-23T09:16:44Z</time>
<speed>2.810000</speed>
<extensions>
<speed>2.8</speed>
<temp>0.00</temp>
<bpm>0</bpm>
<rpm>0.00</rpm>
</extensions>
</trkpt>
<trkpt lat="30.574623108" lon="34.737865448">
<ele>647.390625</ele>
<time>2013-11-23T09:16:49Z</time>
<speed>3.900000</speed>
<extensions>
<speed>3.9</speed>
<temp>0.00</temp>
<bpm>0</bpm>
<rpm>0.00</rpm>
</extensions>
</trkpt>
<trkpt lat="30.574575424" lon="34.738082886">
<ele>646.218750</ele>
<time>2013-11-23T09:16:54Z</time>
<speed>4.600000</speed>
<extensions>
<speed>4.6</speed>
<temp>0.00</temp>
<bpm>0</bpm>
<rpm>0.00</rpm>
</extensions>
</trkpt>
<trkpt lat="30.574497223" lon="34.738285065">
<ele>645.375000</ele>
<time>2013-11-23T09:16:59Z</time>
<speed>3.800000</speed>
<extensions>
<speed>3.8</speed>
<temp>0.00</temp>
<bpm>0</bpm>
<rpm>0.00</rpm>
</extensions>
</trkpt>
<trkpt lat="30.574357986" lon="34.738422394">
<ele>644.046875</ele>
<time>2013-11-23T09:17:04Z</time>
<speed>3.580000</speed>
<extensions>
<speed>3.6</speed>
<temp>0.00</temp>
<bpm>0</bpm>
<rpm>0.00</rpm>
</extensions>
</trkpt>
<trkpt lat="30.574254990" lon="34.738529205">
<ele>642.937500</ele>
<time>2013-11-23T09:17:09Z</time>
<speed>2.430000</speed>
<extensions>
<speed>2.4</speed>
<temp>0.00</temp>
<bpm>0</bpm>
<rpm>0.00</rpm>
</extensions>
</trkpt>
<trkpt lat="30.574131012" lon="34.738590240">
<ele>641.421875</ele>
<time>2013-11-23T09:17:14Z</time>
<speed>3.180000</speed>
<extensions>
<speed>3.2</speed>
<temp>0.00</temp>
<bpm>0</bpm>
<rpm>0.00</rpm>
</extensions>
</trkpt>
<trkpt lat="30.574001312" lon="34.738628387">
<ele>640.250000</ele>
<time>2013-11-23T09:17:19Z</time>
<speed>3.520000</speed>
<extensions>
<speed>3.5</speed>
<temp>0.00</temp>
<bpm>0</bpm>
<rpm>0.00</rpm>
</extensions>
</trkpt>
<trkpt lat="30.573907852" lon="34.738796234">
<ele>639.593750</ele>
<time>2013-11-23T09:17:24Z</time>
<speed>3.830000</speed>
<extensions>
<speed>3.8</speed>
<temp>0.00</temp>
<bpm>0</bpm>
<rpm>0.00</rpm>
</extensions>
</trkpt>
<trkpt lat="30.573780060" lon="34.738948822">
<ele>638.671875</ele>
<time>2013-11-23T09:17:29Z</time>
<speed>4.300000</speed>
<extensions>
<speed>4.3</speed>
<temp>0.00</temp>
<bpm>0</bpm>
<rpm>0.00</rpm>
</extensions>
</trkpt>
<trkpt lat="30.573602676" lon="34.739086151">
<ele>637.203125</ele>
<time>2013-11-23T09:17:34Z</time>
<speed>4.500000</speed>
<extensions>
<speed>4.5</speed>
<temp>0.00</temp>
<bpm>0</bpm>
<rpm>0.00</rpm>
</extensions>
</trkpt>
<trkpt lat="30.573423386" lon="34.739135742">
<ele>635.171875</ele>
<time>2013-11-23T09:17:39Z</time>
<speed>3.540000</speed>
<extensions>
<speed>3.5</speed>
<temp>0.00</temp>
<bpm>0</bpm>
<rpm>0.00</rpm>
</extensions>
</trkpt>
<trkpt lat="30.573310852" lon="34.739242554">
<ele>634.500000</ele>
<time>2013-11-23T09:17:44Z</time>
<speed>4.350000</speed>
<extensions>
<speed>4.3</speed>
<temp>0.00</temp>
<bpm>0</bpm>
<rpm>0.00</rpm>
</extensions>
</trkpt>
<trkpt lat="30.573343277" lon="34.739463806">
<ele>635.421875</ele>
<time>2013-11-23T09:17:49Z</time>
<speed>4.180000</speed>
<extensions>
<speed>4.2</speed>
<temp>0.00</temp>
<bpm>0</bpm>
<rpm>0.00</rpm>
</extensions>
</trkpt>
<trkpt lat="30.573278427" lon="34.739658356">
<ele>634.734375</ele>
<time>2013-11-23T09:17:54Z</time>
<speed>3.870000</speed>
<extensions>
<speed>3.9</speed>
<temp>0.00</temp>
<bpm>0</bpm>
<rpm>0.00</rpm>
</extensions>
</trkpt>
<trkpt lat="30.573184967" lon="34.739780426">
<ele>634.250000</ele>
<time>2013-11-23T09:17:59Z</time>
<speed>2.680000</speed>
<extensions>
<speed>2.7</speed>
<temp>0.00</temp>
<bpm>0</bpm>
<rpm>0.00</rpm>
</extensions>
</trkpt>
<trkpt lat="30.573114395" lon="34.739902496">
<ele>634.593750</ele>
<time>2013-11-23T09:18:04Z</time>
<speed>3.630000</speed>
<extensions>
<speed>3.6</speed>
<temp>0.00</temp>
<bpm>0</bpm>
<rpm>0.00</rpm>
</extensions>
</trkpt>
<trkpt lat="30.573015213" lon="34.740024567">
<ele>634.546875</ele>
<time>2013-11-23T09:18:09Z</time>
<speed>2.660000</speed>
<extensions>
<speed>2.7</speed>
<temp>0.00</temp>
<bpm>0</bpm>
<rpm>0.00</rpm>
</extensions>
</trkpt>
<trkpt lat="30.572908401" lon="34.740070343">
<ele>633.671875</ele>
<time>2013-11-23T09:18:14Z</time>
<speed>2.130000</speed>
<extensions>
<speed>2.1</speed>
<temp>0.00</temp>
<bpm>0</bpm>
<rpm>0.00</rpm>
</extensions>
</trkpt>
<trkpt lat="30.572814941" lon="34.740135193">
<ele>632.718750</ele>
<time>2013-11-23T09:18:19Z</time>
<speed>2.470000</speed>
<extensions>
<speed>2.5</speed>
<temp>0.00</temp>
<bpm>0</bpm>
<rpm>0.00</rpm>
</extensions>
</trkpt>
<trkpt lat="30.572729111" lon="34.740203857">
<ele>631.500000</ele>
<time>2013-11-23T09:18:24Z</time>
<speed>2.070000</speed>
<extensions>
<speed>2.1</speed>
<temp>0.00</temp>
<bpm>0</bpm>
<rpm>0.00</rpm>
</extensions>
</trkpt>
<trkpt lat="30.572677612" lon="34.740272522">
<ele>631.984375</ele>
<time>2013-11-23T09:18:29Z</time>
<speed>1.380000</speed>
<extensions>
<speed>1.4</speed>
<temp>0.00</temp>
<bpm>0</bpm>
<rpm>0.00</rpm>
</extensions>
</trkpt>
<trkpt lat="30.572633743" lon="34.740337372">
<ele>631.937500</ele>
<time>2013-11-23T09:18:34Z</time>
<speed>1.270000</speed>
<extensions>
<speed>1.3</speed>
<temp>0.00</temp>
<bpm>0</bpm>
<rpm>0.00</rpm>
</extensions>
</trkpt>
<trkpt lat="30.572599411" lon="34.740367889">
<ele>632.218750</ele>
<time>2013-11-23T09:18:39Z</time>
<speed>0.900000</speed>
<extensions>
<speed>0.9</speed>
<temp>0.00</temp>
<bpm>0</bpm>
<rpm>0.00</rpm>
</extensions>
</trkpt>
<trkpt lat="30.572559357" lon="34.740413666">
<ele>632.531250</ele>
<time>2013-11-23T09:18:44Z</time>
<speed>1.920000</speed>
<extensions>
<speed>1.9</speed>
<temp>0.00</temp>
<bpm>0</bpm>
<rpm>0.00</rpm>
</extensions>
</trkpt>
<trkpt lat="30.572475433" lon="34.740482330">
<ele>632.875000</ele>
<time>2013-11-23T09:18:49Z</time>
<speed>2.180000</speed>
<extensions>
<speed>2.2</speed>
<temp>0.00</temp>
<bpm>0</bpm>
<rpm>0.00</rpm>
</extensions>
</trkpt>
<trkpt lat="30.572401047" lon="34.740528107">
<ele>632.562500</ele>
<time>2013-11-23T09:18:54Z</time>
<speed>1.670000</speed>
<extensions>
<speed>1.7</speed>
<temp>0.00</temp>
<bpm>0</bpm>
<rpm>0.00</rpm>
</extensions>
</trkpt>
<trkpt lat="30.572330475" lon="34.740566254">
<ele>631.671875</ele>
<time>2013-11-23T09:18:59Z</time>
<speed>1.930000</speed>
<extensions>
<speed>1.9</speed>
<temp>0.00</temp>
<bpm>0</bpm>
<rpm>0.00</rpm>
</extensions>
</trkpt>
<trkpt lat="30.572223663" lon="34.740657806">
<ele>631.265625</ele>
<time>2013-11-23T09:19:04Z</time>
<speed>3.760000</speed>
<extensions>
<speed>3.8</speed>
<temp>0.00</temp>
<bpm>0</bpm>
<rpm>0.00</rpm>
</extensions>
</trkpt>
<trkpt lat="30.572114944" lon="34.740840912">
<ele>630.218750</ele>
<time>2013-11-23T09:19:09Z</time>
<speed>5.380000</speed>
<extensions>
<speed>5.4</speed>
<temp>0.00</temp>
<bpm>0</bpm>
<rpm>0.00</rpm>
</extensions>
</trkpt>
<trkpt lat="30.572004318" lon="34.741069794">
<ele>629.953125</ele>
<time>2013-11-23T09:19:14Z</time>
<speed>4.240000</speed>
<extensions>
<speed>4.2</speed>
<temp>0.00</temp>
<bpm>0</bpm>
<rpm>0.00</rpm>
</extensions>
</trkpt>
<trkpt lat="30.571874619" lon="34.741153717">
<ele>628.609375</ele>
<time>2013-11-23T09:19:19Z</time>
<speed>3.490000</speed>
<extensions>
<speed>3.5</speed>
<temp>0.00</temp>
<bpm>0</bpm>
<rpm>0.00</rpm>
</extensions>
</trkpt>
<trkpt lat="30.571729660" lon="34.741207123">
<ele>628.171875</ele>
<time>2013-11-23T09:19:24Z</time>
<speed>3.280000</speed>
<extensions>
<speed>3.3</speed>
<temp>0.00</temp>
<bpm>0</bpm>
<rpm>0.00</rpm>
</extensions>
</trkpt>
<trkpt lat="30.571603775" lon="34.741283417">
<ele>626.296875</ele>
<time>2013-11-23T09:19:29Z</time>
<speed>3.300000</speed>
<extensions>
<speed>3.3</speed>
<temp>0.00</temp>
<bpm>0</bpm>
<rpm>0.00</rpm>
</extensions>
</trkpt>
<trkpt lat="30.571475983" lon="34.741359711">
<ele>625.500000</ele>
<time>2013-11-23T09:19:34Z</time>
<speed>3.120000</speed>
<extensions>
<speed>3.1</speed>
<temp>0.00</temp>
<bpm>0</bpm>
<rpm>0.00</rpm>
</extensions>
</trkpt>
<trkpt lat="30.571352005" lon="34.741439819">
<ele>624.625000</ele>
<time>2013-11-23T09:19:39Z</time>
<speed>3.040000</speed>
<extensions>
<speed>3.0</speed>
<temp>0.00</temp>
<bpm>0</bpm>
<rpm>0.00</rpm>
</extensions>
</trkpt>
<trkpt lat="30.571231842" lon="34.741500854">
<ele>623.921875</ele>
<time>2013-11-23T09:19:44Z</time>
<speed>2.690000</speed>
<extensions>
<speed>2.7</speed>
<temp>0.00</temp>
<bpm>0</bpm>
<rpm>0.00</rpm>
</extensions>
</trkpt>
<trkpt lat="30.571104050" lon="34.741565704">
<ele>621.734375</ele>
<time>2013-11-23T09:19:49Z</time>
<speed>2.930000</speed>
<extensions>
<speed>2.9</speed>
<temp>0.00</temp>
<bpm>0</bpm>
<rpm>0.00</rpm>
</extensions>
</trkpt>
<trkpt lat="30.570993423" lon="34.741630554">
<ele>621.500000</ele>
<time>2013-11-23T09:19:54Z</time>
<speed>3.070000</speed>
<extensions>
<speed>3.1</speed>
<temp>0.00</temp>
<bpm>0</bpm>
<rpm>0.00</rpm>
</extensions>
</trkpt>
<trkpt lat="30.570869446" lon="34.741729736">
<ele>622.484375</ele>
<time>2013-11-23T09:19:59Z</time>
<speed>3.020000</speed>
<extensions>
<speed>3.0</speed>
<temp>0.00</temp>
<bpm>0</bpm>
<rpm>0.00</rpm>
</extensions>
</trkpt>
<trkpt lat="30.570737839" lon="34.741783142">
<ele>620.750000</ele>
<time>2013-11-23T09:20:04Z</time>
<speed>3.240000</speed>
<extensions>
<speed>3.2</speed>
<temp>0.00</temp>
<bpm>0</bpm>
<rpm>0.00</rpm>
</extensions>
</trkpt>
<trkpt lat="30.570632935" lon="34.741840363">
<ele>622.281250</ele>
<time>2013-11-23T09:20:09Z</time>
<speed>3.210000</speed>
<extensions>
<speed>3.2</speed>
<temp>0.00</temp>
<bpm>0</bpm>
<rpm>0.00</rpm>
</extensions>
</trkpt>
<trkpt lat="30.570503235" lon="34.741950989">
<ele>621.671875</ele>
<time>2013-11-23T09:20:14Z</time>
<speed>3.580000</speed>
<extensions>
<speed>3.6</speed>
<temp>0.00</temp>
<bpm>0</bpm>
<rpm>0.00</rpm>
</extensions>
</trkpt>
<trkpt lat="30.570386887" lon="34.742053986">
<ele>620.984375</ele>
<time>2013-11-23T09:20:19Z</time>
<speed>3.030000</speed>
<extensions>
<speed>3.0</speed>
<temp>0.00</temp>
<bpm>0</bpm>
<rpm>0.00</rpm>
</extensions>
</trkpt>
<trkpt lat="30.570241928" lon="34.742122650">
<ele>619.265625</ele>
<time>2013-11-23T09:20:24Z</time>
<speed>3.180000</speed>
<extensions>
<speed>3.2</speed>
<temp>0.00</temp>
<bpm>0</bpm>
<rpm>0.00</rpm>
</extensions>
</trkpt>
<trkpt lat="30.570121765" lon="34.742183685">
<ele>617.421875</ele>
<time>2013-11-23T09:20:29Z</time>
<speed>2.820000</speed>
<extensions>
<speed>2.8</speed>
<temp>0.00</temp>
<bpm>0</bpm>
<rpm>0.00</rpm>
</extensions>
</trkpt>
<trkpt lat="30.570009232" lon="34.742256165">
<ele>616.390625</ele>
<time>2013-11-23T09:20:34Z</time>
<speed>2.400000</speed>
<extensions>
<speed>2.4</speed>
<temp>0.00</temp>
<bpm>0</bpm>
<rpm>0.00</rpm>
</extensions>
</trkpt>
<trkpt lat="30.569921494" lon="34.742298126">
<ele>615.109375</ele>
<time>2013-11-23T09:20:39Z</time>
<speed>2.130000</speed>
<extensions>
<speed>2.1</speed>
<temp>0.00</temp>
<bpm>0</bpm>
<rpm>0.00</rpm>
</extensions>
</trkpt>
<trkpt lat="30.569797516" lon="34.742366791">
<ele>613.937500</ele>
<time>2013-11-23T09:20:44Z</time>
<speed>3.510000</speed>
<extensions>
<speed>3.5</speed>
<temp>0.00</temp>
<bpm>0</bpm>
<rpm>0.00</rpm>
</extensions>
</trkpt>
<trkpt lat="30.569669724" lon="34.742446899">
<ele>612.578125</ele>
<time>2013-11-23T09:20:49Z</time>
<speed>2.710000</speed>
<extensions>
<speed>2.7</speed>
<temp>0.00</temp>
<bpm>0</bpm>
<rpm>0.00</rpm>
</extensions>
</trkpt>
<trkpt lat="30.569557190" lon="34.742496490">
<ele>611.187500</ele>
<time>2013-11-23T09:20:54Z</time>
<speed>2.680000</speed>
<extensions>
<speed>2.7</speed>
<temp>0.00</temp>
<bpm>0</bpm>
<rpm>0.00</rpm>
</extensions>
</trkpt>
<trkpt lat="30.569461823" lon="34.742599487">
<ele>610.718750</ele>
<time>2013-11-23T09:20:59Z</time>
<speed>3.220000</speed>
<extensions>
<speed>3.2</speed>
<temp>0.00</temp>
<bpm>0</bpm>
<rpm>0.00</rpm>
</extensions>
</trkpt>
<trkpt lat="30.569353104" lon="34.742767334">
<ele>610.265625</ele>
<time>2013-11-23T09:21:04Z</time>
<speed>5.150000</speed>
<extensions>
<speed>5.2</speed>
<temp>0.00</temp>
<bpm>0</bpm>
<rpm>0.00</rpm>
</extensions>
</trkpt>
<trkpt lat="30.569223404" lon="34.743000031">
<ele>609.750000</ele>
<time>2013-11-23T09:21:09Z</time>
<speed>5.420000</speed>
<extensions>
<speed>5.4</speed>
<temp>0.00</temp>
<bpm>0</bpm>
<rpm>0.00</rpm>
</extensions>
</trkpt>
<trkpt lat="30.569097519" lon="34.743236542">
<ele>609.500000</ele>
<time>2013-11-23T09:21:14Z</time>
<speed>5.370000</speed>
<extensions>
<speed>5.4</speed>
<temp>0.00</temp>
<bpm>0</bpm>
<rpm>0.00</rpm>
</extensions>
</trkpt>
<trkpt lat="30.568994522" lon="34.743476868">
<ele>610.265625</ele>
<time>2013-11-23T09:21:19Z</time>
<speed>4.670000</speed>
<extensions>
<speed>4.7</speed>
<temp>0.00</temp>
<bpm>0</bpm>
<rpm>0.00</rpm>
</extensions>
</trkpt>
<trkpt lat="30.568920135" lon="34.743701935">
<ele>608.515625</ele>
<time>2013-11-23T09:21:24Z</time>
<speed>4.830000</speed>
<extensions>
<speed>4.8</speed>
<temp>0.00</temp>
<bpm>0</bpm>
<rpm>0.00</rpm>
</extensions>
</trkpt>
<trkpt lat="30.568857193" lon="34.743881226">
<ele>608.671875</ele>
<time>2013-11-23T09:21:29Z</time>
<speed>2.030000</speed>
<extensions>
<speed>2.0</speed>
<temp>0.00</temp>
<bpm>0</bpm>
<rpm>0.00</rpm>
</extensions>
</trkpt>
<trkpt lat="30.568834305" lon="34.743976593">
<ele>610.406250</ele>
<time>2013-11-23T09:21:34Z</time>
<speed>2.000000</speed>
<extensions>
<speed>2.0</speed>
<temp>0.00</temp>
<bpm>0</bpm>
<rpm>0.00</rpm>
</extensions>
</trkpt>
<trkpt lat="30.568807602" lon="34.744106293">
<ele>610.546875</ele>
<time>2013-11-23T09:21:39Z</time>
<speed>2.990000</speed>
<extensions>
<speed>3.0</speed>
<temp>0.00</temp>
<bpm>0</bpm>
<rpm>0.00</rpm>
</extensions>
</trkpt>
<trkpt lat="30.568756104" lon="34.744262695">
<ele>611.234375</ele>
<time>2013-11-23T09:21:44Z</time>
<speed>3.330000</speed>
<extensions>
<speed>3.3</speed>
<temp>0.00</temp>
<bpm>0</bpm>
<rpm>0.00</rpm>
</extensions>
</trkpt>
<trkpt lat="30.568685532" lon="34.744441986">
<ele>611.000000</ele>
<time>2013-11-23T09:21:49Z</time>
<speed>3.760000</speed>
<extensions>
<speed>3.8</speed>
<temp>0.00</temp>
<bpm>0</bpm>
<rpm>0.00</rpm>
</extensions>
</trkpt>
<trkpt lat="30.568580627" lon="34.744609833">
<ele>610.281250</ele>
<time>2013-11-23T09:21:54Z</time>
<speed>4.160000</speed>
<extensions>
<speed>4.2</speed>
<temp>0.00</temp>
<bpm>0</bpm>
<rpm>0.00</rpm>
</extensions>
</trkpt>
<trkpt lat="30.568473816" lon="34.744773865">
<ele>609.937500</ele>
<time>2013-11-23T09:21:59Z</time>
<speed>3.660000</speed>
<extensions>
<speed>3.7</speed>
<temp>0.00</temp>
<bpm>0</bpm>
<rpm>0.00</rpm>
</extensions>
</trkpt>
<trkpt lat="30.568405151" lon="34.744930267">
<ele>609.921875</ele>
<time>2013-11-23T09:22:04Z</time>
<speed>3.170000</speed>
<extensions>
<speed>3.2</speed>
<temp>0.00</temp>
<bpm>0</bpm>
<rpm>0.00</rpm>
</extensions>
</trkpt>
<trkpt lat="30.568344116" lon="34.745071411">
<ele>609.296875</ele>
<time>2013-11-23T09:22:09Z</time>
<speed>3.470000</speed>
<extensions>
<speed>3.5</speed>
<temp>0.00</temp>
<bpm>0</bpm>
<rpm>0.00</rpm>
</extensions>
</trkpt>
<trkpt lat="30.568262100" lon="34.745220184">
<ele>608.703125</ele>
<time>2013-11-23T09:22:14Z</time>
<speed>3.320000</speed>
<extensions>
<speed>3.3</speed>
<temp>0.00</temp>
<bpm>0</bpm>
<rpm>0.00</rpm>
</extensions>
</trkpt>
<trkpt lat="30.568166733" lon="34.745357513">
<ele>607.328125</ele>
<time>2013-11-23T09:22:19Z</time>
<speed>3.480000</speed>
<extensions>
<speed>3.5</speed>
<temp>0.00</temp>
<bpm>0</bpm>
<rpm>0.00</rpm>
</extensions>
</trkpt>
<trkpt lat="30.568031311" lon="34.745494843">
<ele>605.125000</ele>
<time>2013-11-23T09:22:24Z</time>
<speed>4.260000</speed>
<extensions>
<speed>4.3</speed>
<temp>0.00</temp>
<bpm>0</bpm>
<rpm>0.00</rpm>
</extensions>
</trkpt>
<trkpt lat="30.567884445" lon="34.745628357">
<ele>603.703125</ele>
<time>2013-11-23T09:22:29Z</time>
<speed>3.860000</speed>
<extensions>
<speed>3.9</speed>
<temp>0.00</temp>
<bpm>0</bpm>
<rpm>0.00</rpm>
</extensions>
</trkpt>
<trkpt lat="30.567770004" lon="34.745723724">
<ele>603.062500</ele>
<time>2013-11-23T09:22:34Z</time>
<speed>2.840000</speed>
<extensions>
<speed>2.8</speed>
<temp>0.00</temp>
<bpm>0</bpm>
<rpm>0.00</rpm>
</extensions>
</trkpt>
<trkpt lat="30.567684174" lon="34.745788574">
<ele>602.031250</ele>
<time>2013-11-23T09:22:39Z</time>
<speed>1.780000</speed>
<extensions>
<speed>1.8</speed>
<temp>0.00</temp>
<bpm>0</bpm>
<rpm>0.00</rpm>
</extensions>
</trkpt>
<trkpt lat="30.567625046" lon="34.745822906">
<ele>601.937500</ele>
<time>2013-11-23T09:22:44Z</time>
<speed>1.960000</speed>
<extensions>
<speed>2.0</speed>
<temp>0.00</temp>
<bpm>0</bpm>
<rpm>0.00</rpm>
</extensions>
</trkpt>
<trkpt lat="30.567525864" lon="34.745948792">
<ele>600.515625</ele>
<time>2013-11-23T09:22:49Z</time>
<speed>3.330000</speed>
<extensions>
<speed>3.3</speed>
<temp>0.00</temp>
<bpm>0</bpm>
<rpm>0.00</rpm>
</extensions>
</trkpt>
<trkpt lat="30.567411423" lon="34.746021271">
<ele>599.750000</ele>
<time>2013-11-23T09:22:54Z</time>
<speed>2.740000</speed>
<extensions>
<speed>2.7</speed>
<temp>0.00</temp>
<bpm>0</bpm>
<rpm>0.00</rpm>
</extensions>
</trkpt>
<trkpt lat="30.567283630" lon="34.746124268">
<ele>599.156250</ele>
<time>2013-11-23T09:22:59Z</time>
<speed>3.570000</speed>
<extensions>
<speed>3.6</speed>
<temp>0.00</temp>
<bpm>0</bpm>
<rpm>0.00</rpm>
</extensions>
</trkpt>
<trkpt lat="30.567220688" lon="34.746242523">
<ele>600.437500</ele>
<time>2013-11-23T09:23:04Z</time>
<speed>2.500000</speed>
<extensions>
<speed>2.5</speed>
<temp>0.00</temp>
<bpm>0</bpm>
<rpm>0.00</rpm>
</extensions>
</trkpt>
<trkpt lat="30.567190170" lon="34.746337891">
<ele>601.890625</ele>
<time>2013-11-23T09:23:09Z</time>
<speed>1.740000</speed>
<extensions>
<speed>1.7</speed>
<temp>0.00</temp>
<bpm>0</bpm>
<rpm>0.00</rpm>
</extensions>
</trkpt>
<trkpt lat="30.567169189" lon="34.746444702">
<ele>603.421875</ele>
<time>2013-11-23T09:23:14Z</time>
<speed>1.880000</speed>
<extensions>
<speed>1.9</speed>
<temp>0.00</temp>
<bpm>0</bpm>
<rpm>0.00</rpm>
</extensions>
</trkpt>
<trkpt lat="30.567165375" lon="34.746509552">
<ele>604.796875</ele>
<time>2013-11-23T09:23:19Z</time>
<speed>1.570000</speed>
<extensions>
<speed>1.6</speed>
<temp>0.00</temp>
<bpm>0</bpm>
<rpm>0.00</rpm>
</extensions>
</trkpt>
<trkpt lat="30.567161560" lon="34.746574402">
<ele>606.765625</ele>
<time>2013-11-23T09:23:24Z</time>
<speed>1.070000</speed>
<extensions>
<speed>1.1</speed>
<temp>0.00</temp>
<bpm>0</bpm>
<rpm>0.00</rpm>
</extensions>
</trkpt>
<trkpt lat="30.567169189" lon="34.746612549">
<ele>608.015625</ele>
<time>2013-11-23T09:23:29Z</time>
<speed>0.890000</speed>
<extensions>
<speed>0.9</speed>
<temp>0.00</temp>
<bpm>0</bpm>
<rpm>0.00</rpm>
</extensions>
</trkpt>
<trkpt lat="30.567169189" lon="34.746662140">
<ele>608.828125</ele>
<time>2013-11-23T09:23:34Z</time>
<speed>0.850000</speed>
<extensions>
<speed>0.8</speed>
<temp>0.00</temp>
<bpm>0</bpm>
<rpm>0.00</rpm>
</extensions>
</trkpt>
<trkpt lat="30.567159653" lon="34.746730804">
<ele>607.921875</ele>
<time>2013-11-23T09:23:39Z</time>
<speed>1.210000</speed>
<extensions>
<speed>1.2</speed>
<temp>0.00</temp>
<bpm>0</bpm>
<rpm>0.00</rpm>
</extensions>
</trkpt>
<trkpt lat="30.567148209" lon="34.746768951">
<ele>608.328125</ele>
<time>2013-11-23T09:23:44Z</time>
<speed>0.220000</speed>
<extensions>
<speed>0.2</speed>
<temp>0.00</temp>
<bpm>0</bpm>
<rpm>0.00</rpm>
</extensions>
</trkpt>
<trkpt lat="30.567138672" lon="34.746841431">
<ele>608.609375</ele>
<time>2013-11-23T09:23:49Z</time>
<speed>1.480000</speed>
<extensions>
<speed>1.5</speed>
<temp>0.00</temp>
<bpm>0</bpm>
<rpm>0.00</rpm>
</extensions>
</trkpt>
<trkpt lat="30.567129135" lon="34.746944427">
<ele>609.187500</ele>
<time>2013-11-23T09:23:54Z</time>
<speed>2.420000</speed>
<extensions>
<speed>2.4</speed>
<temp>0.00</temp>
<bpm>0</bpm>
<rpm>0.00</rpm>
</extensions>
</trkpt>
<trkpt lat="30.567121506" lon="34.747081757">
<ele>609.796875</ele>
<time>2013-11-23T09:23:59Z</time>
<speed>2.760000</speed>
<extensions>
<speed>2.8</speed>
<temp>0.00</temp>
<bpm>0</bpm>
<rpm>0.00</rpm>
</extensions>
</trkpt>
<trkpt lat="30.567115784" lon="34.747200012">
<ele>610.687500</ele>
<time>2013-11-23T09:24:04Z</time>
<speed>2.410000</speed>
<extensions>
<speed>2.4</speed>
<temp>0.00</temp>
<bpm>0</bpm>
<rpm>0.00</rpm>
</extensions>
</trkpt>
<trkpt lat="30.567111969" lon="34.747333527">
<ele>610.453125</ele>
<time>2013-11-23T09:24:09Z</time>
<speed>2.640000</speed>
<extensions>
<speed>2.6</speed>
<temp>0.00</temp>
<bpm>0</bpm>
<rpm>0.00</rpm>
</extensions>
</trkpt>
<trkpt lat="30.567096710" lon="34.747455597">
<ele>611.015625</ele>
<time>2013-11-23T09:24:14Z</time>
<speed>2.380000</speed>
<extensions>
<speed>2.4</speed>
<temp>0.00</temp>
<bpm>0</bpm>
<rpm>0.00</rpm>
</extensions>
</trkpt>
<trkpt lat="30.567085266" lon="34.747581482">
<ele>611.875000</ele>
<time>2013-11-23T09:24:19Z</time>
<speed>2.560000</speed>
<extensions>
<speed>2.6</speed>
<temp>0.00</temp>
<bpm>0</bpm>
<rpm>0.00</rpm>
</extensions>
</trkpt>
<trkpt lat="30.567075729" lon="34.747722626">
<ele>612.468750</ele>
<time>2013-11-23T09:24:24Z</time>
<speed>2.740000</speed>
<extensions>
<speed>2.7</speed>
<temp>0.00</temp>
<bpm>0</bpm>
<rpm>0.00</rpm>
</extensions>
</trkpt>
<trkpt lat="30.567064285" lon="34.747890472">
<ele>612.765625</ele>
<time>2013-11-23T09:24:29Z</time>
<speed>3.070000</speed>
<extensions>
<speed>3.1</speed>
<temp>0.00</temp>
<bpm>0</bpm>
<rpm>0.00</rpm>
</extensions>
</trkpt>
<trkpt lat="30.567039490" lon="34.748043060">
<ele>612.718750</ele>
<time>2013-11-23T09:24:34Z</time>
<speed>2.450000</speed>
<extensions>
<speed>2.4</speed>
<temp>0.00</temp>
<bpm>0</bpm>
<rpm>0.00</rpm>
</extensions>
</trkpt>
<trkpt lat="30.567024231" lon="34.748157501">
<ele>612.437500</ele>
<time>2013-11-23T09:24:39Z</time>
<speed>2.430000</speed>
<extensions>
<speed>2.4</speed>
<temp>0.00</temp>
<bpm>0</bpm>
<rpm>0.00</rpm>
</extensions>
</trkpt>
<trkpt lat="30.567005157" lon="34.748317719">
<ele>612.062500</ele>
<time>2013-11-23T09:24:44Z</time>
<speed>3.620000</speed>
<extensions>
<speed>3.6</speed>
<temp>0.00</temp>
<bpm>0</bpm>
<rpm>0.00</rpm>
</extensions>
</trkpt>
<trkpt lat="30.566967010" lon="34.748527527">
<ele>611.546875</ele>
<time>2013-11-23T09:24:49Z</time>
<speed>4.470000</speed>
<extensions>
<speed>4.5</speed>
<temp>0.00</temp>
<bpm>0</bpm>
<rpm>0.00</rpm>
</extensions>
</trkpt>
<trkpt lat="30.566919327" lon="34.748779297">
<ele>609.890625</ele>
<time>2013-11-23T09:24:54Z</time>
<speed>5.410000</speed>
<extensions>
<speed>5.4</speed>
<temp>0.00</temp>
<bpm>0</bpm>
<rpm>0.00</rpm>
</extensions>
</trkpt>
<trkpt lat="30.566886902" lon="34.749061584">
<ele>608.140625</ele>
<time>2013-11-23T09:24:59Z</time>
<speed>5.490000</speed>
<extensions>
<speed>5.5</speed>
<temp>0.00</temp>
<bpm>0</bpm>
<rpm>0.00</rpm>
</extensions>
</trkpt>
<trkpt lat="30.566837311" lon="34.749362946">
<ele>606.140625</ele>
<time>2013-11-23T09:25:04Z</time>
<speed>6.230000</speed>
<extensions>
<speed>6.2</speed>
<temp>0.00</temp>
<bpm>0</bpm>
<rpm>0.00</rpm>
</extensions>
</trkpt>
<trkpt lat="30.566867828" lon="34.749698639">
<ele>604.718750</ele>
<time>2013-11-23T09:25:09Z</time>
<speed>6.720000</speed>
<extensions>
<speed>6.7</speed>
<temp>0.00</temp>
<bpm>0</bpm>
<rpm>0.00</rpm>
</extensions>
</trkpt>
<trkpt lat="30.566871643" lon="34.750053406">
<ele>602.921875</ele>
<time>2013-11-23T09:25:14Z</time>
<speed>6.660000</speed>
<extensions>
<speed>6.7</speed>
<temp>0.00</temp>
<bpm>0</bpm>
<rpm>0.00</rpm>
</extensions>
</trkpt>
<trkpt lat="30.566841125" lon="34.750389099">
<ele>603.531250</ele>
<time>2013-11-23T09:25:19Z</time>
<speed>5.630000</speed>
<extensions>
<speed>5.6</speed>
<temp>0.00</temp>
<bpm>0</bpm>
<rpm>0.00</rpm>
</extensions>
</trkpt>
<trkpt lat="30.566835403" lon="34.750595093">
<ele>605.062500</ele>
<time>2013-11-23T09:25:24Z</time>
<speed>2.680000</speed>
<extensions>
<speed>2.7</speed>
<temp>0.00</temp>
<bpm>0</bpm>
<rpm>0.00</rpm>
</extensions>
</trkpt>
<trkpt lat="30.566829681" lon="34.750709534">
<ele>606.078125</ele>
<time>2013-11-23T09:25:29Z</time>
<speed>2.470000</speed>
<extensions>
<speed>2.5</speed>
<temp>0.00</temp>
<bpm>0</bpm>
<rpm>0.00</rpm>
</extensions>
</trkpt>
<trkpt lat="30.566816330" lon="34.750854492">
<ele>606.250000</ele>
<time>2013-11-23T09:25:34Z</time>
<speed>2.820000</speed>
<extensions>
<speed>2.8</speed>
<temp>0.00</temp>
<bpm>0</bpm>
<rpm>0.00</rpm>
</extensions>
</trkpt>
<trkpt lat="30.566852570" lon="34.751052856">
<ele>603.906250</ele>
<time>2013-11-23T09:25:39Z</time>
<speed>5.770000</speed>
<extensions>
<speed>5.8</speed>
<temp>0.00</temp>
<bpm>0</bpm>
<rpm>0.00</rpm>
</extensions>
</trkpt>
<trkpt lat="30.566925049" lon="34.751388550">
<ele>601.921875</ele>
<time>2013-11-23T09:25:44Z</time>
<speed>6.340000</speed>
<extensions>
<speed>6.3</speed>
<temp>0.00</temp>
<bpm>0</bpm>
<rpm>0.00</rpm>
</extensions>
</trkpt>
<trkpt lat="30.567008972" lon="34.751663208">
<ele>602.531250</ele>
<time>2013-11-23T09:25:49Z</time>
<speed>4.330000</speed>
<extensions>
<speed>4.3</speed>
<temp>0.00</temp>
<bpm>0</bpm>
<rpm>0.00</rpm>
</extensions>
</trkpt>
<trkpt lat="30.567035675" lon="34.751808167">
<ele>603.796875</ele>
<time>2013-11-23T09:25:54Z</time>
<speed>1.980000</speed>
<extensions>
<speed>2.0</speed>
<temp>0.00</temp>
<bpm>0</bpm>
<rpm>0.00</rpm>
</extensions>
</trkpt>
<trkpt lat="30.567050934" lon="34.751892090">
<ele>605.171875</ele>
<time>2013-11-23T09:25:59Z</time>
<speed>1.350000</speed>
<extensions>
<speed>1.4</speed>
<temp>0.00</temp>
<bpm>0</bpm>
<rpm>0.00</rpm>
</extensions>
</trkpt>
<trkpt lat="30.567056656" lon="34.751968384">
<ele>605.625000</ele>
<time>2013-11-23T09:26:04Z</time>
<speed>1.780000</speed>
<extensions>
<speed>1.8</speed>
<temp>0.00</temp>
<bpm>0</bpm>
<rpm>0.00</rpm>
</extensions>
</trkpt>
<trkpt lat="30.567066193" lon="34.752067566">
<ele>605.640625</ele>
<time>2013-11-23T09:26:09Z</time>
<speed>1.490000</speed>
<extensions>
<speed>1.5</speed>
<temp>0.00</temp>
<bpm>0</bpm>
<rpm>0.00</rpm>
</extensions>
</trkpt>
<trkpt lat="30.567071915" lon="34.752094269">
<ele>605.343750</ele>
<time>2013-11-23T09:26:14Z</time>
<speed>0.050000</speed>
<extensions>
<speed>0.1</speed>
<temp>0.00</temp>
<bpm>0</bpm>
<rpm>0.00</rpm>
</extensions>
</trkpt>
<trkpt lat="30.567071915" lon="34.752094269">
<ele>605.296875</ele>
<time>2013-11-23T09:26:19Z</time>
<speed>0.030000</speed>
<extensions>
<speed>0.0</speed>
<temp>0.00</temp>
<bpm>0</bpm>
<rpm>0.00</rpm>
</extensions>
</trkpt>
<trkpt lat="30.567071915" lon="34.752094269">
<ele>605.234375</ele>
<time>2013-11-23T09:26:24Z</time>
<extensions>
<speed>0.0</speed>
<temp>0.00</temp>
<bpm>0</bpm>
<rpm>0.00</rpm>
</extensions>
</trkpt>
<trkpt lat="30.567071915" lon="34.752094269">
<ele>605.156250</ele>
<time>2013-11-23T09:26:29Z</time>
<speed>0.010000</speed>
<extensions>
<speed>0.0</speed>
<temp>0.00</temp>
<bpm>0</bpm>
<rpm>0.00</rpm>
</extensions>
</trkpt>
<trkpt lat="30.567073822" lon="34.752094269">
<ele>605.031250</ele>
<time>2013-11-23T09:26:34Z</time>
<speed>0.060000</speed>
<extensions>
<speed>0.1</speed>
<temp>0.00</temp>
<bpm>0</bpm>
<rpm>0.00</rpm>
</extensions>
</trkpt>
<trkpt lat="30.567073822" lon="34.752094269">
<ele>604.906250</ele>
<time>2013-11-23T09:26:39Z</time>
<speed>0.040000</speed>
<extensions>
<speed>0.0</speed>
<temp>0.00</temp>
<bpm>0</bpm>
<rpm>0.00</rpm>
</extensions>
</trkpt>
<trkpt lat="30.567075729" lon="34.752094269">
<ele>604.796875</ele>
<time>2013-11-23T09:26:44Z</time>
<speed>0.010000</speed>
<extensions>
<speed>0.0</speed>
<temp>0.00</temp>
<bpm>0</bpm>
<rpm>0.00</rpm>
</extensions>
</trkpt>
<trkpt lat="30.567075729" lon="34.752094269">
<ele>604.734375</ele>
<time>2013-11-23T09:26:49Z</time>
<speed>0.010000</speed>
<extensions>
<speed>0.0</speed>
<temp>0.00</temp>
<bpm>0</bpm>
<rpm>0.00</rpm>
</extensions>
</trkpt>
<trkpt lat="30.567075729" lon="34.752094269">
<ele>604.718750</ele>
<time>2013-11-23T09:26:54Z</time>
<extensions>
<speed>0.0</speed>
<temp>0.00</temp>
<bpm>0</bpm>
<rpm>0.00</rpm>
</extensions>
</trkpt>
<trkpt lat="30.567075729" lon="34.752094269">
<ele>604.687500</ele>
<time>2013-11-23T09:26:59Z</time>
<speed>0.010000</speed>
<extensions>
<speed>0.0</speed>
<temp>0.00</temp>
<bpm>0</bpm>
<rpm>0.00</rpm>
</extensions>
</trkpt>
<trkpt lat="30.567075729" lon="34.752094269">
<ele>604.656250</ele>
<time>2013-11-23T09:27:04Z</time>
<speed>0.020000</speed>
<extensions>
<speed>0.0</speed>
<temp>0.00</temp>
<bpm>0</bpm>
<rpm>0.00</rpm>
</extensions>
</trkpt>
<trkpt lat="30.567075729" lon="34.752094269">
<ele>604.640625</ele>
<time>2013-11-23T09:27:09Z</time>
<extensions>
<speed>0.0</speed>
<temp>0.00</temp>
<bpm>0</bpm>
<rpm>0.00</rpm>
</extensions>
</trkpt>
<trkpt lat="30.567075729" lon="34.752094269">
<ele>604.640625</ele>
<time>2013-11-23T09:27:14Z</time>
<extensions>
<speed>0.0</speed>
<temp>0.00</temp>
<bpm>0</bpm>
<rpm>0.00</rpm>
</extensions>
</trkpt>
<trkpt lat="30.567075729" lon="34.752094269">
<ele>604.640625</ele>
<time>2013-11-23T09:27:19Z</time>
<extensions>
<speed>0.0</speed>
<temp>0.00</temp>
<bpm>0</bpm>
<rpm>0.00</rpm>
</extensions>
</trkpt>
<trkpt lat="30.567075729" lon="34.752094269">
<ele>604.609375</ele>
<time>2013-11-23T09:27:24Z</time>
<extensions>
<speed>0.0</speed>
<temp>0.00</temp>
<bpm>0</bpm>
<rpm>0.00</rpm>
</extensions>
</trkpt>
<trkpt lat="30.567075729" lon="34.752094269">
<ele>604.609375</ele>
<time>2013-11-23T09:27:29Z</time>
<extensions>
<speed>0.0</speed>
<temp>0.00</temp>
<bpm>0</bpm>
<rpm>0.00</rpm>
</extensions>
</trkpt>
<trkpt lat="30.567075729" lon="34.752094269">
<ele>604.578125</ele>
<time>2013-11-23T09:27:34Z</time>
<extensions>
<speed>0.0</speed>
<temp>0.00</temp>
<bpm>0</bpm>
<rpm>0.00</rpm>
</extensions>
</trkpt>
<trkpt lat="30.567075729" lon="34.752094269">
<ele>604.562500</ele>
<time>2013-11-23T09:27:39Z</time>
<extensions>
<speed>0.0</speed>
<temp>0.00</temp>
<bpm>0</bpm>
<rpm>0.00</rpm>
</extensions>
</trkpt>
<trkpt lat="30.567077637" lon="34.752094269">
<ele>604.562500</ele>
<time>2013-11-23T09:27:44Z</time>
<speed>0.020000</speed>
<extensions>
<speed>0.0</speed>
<temp>0.00</temp>
<bpm>0</bpm>
<rpm>0.00</rpm>
</extensions>
</trkpt>
<trkpt lat="30.567077637" lon="34.752094269">
<ele>604.546875</ele>
<time>2013-11-23T09:27:49Z</time>
<extensions>
<speed>0.0</speed>
<temp>0.00</temp>
<bpm>0</bpm>
<rpm>0.00</rpm>
</extensions>
</trkpt>
<trkpt lat="30.567077637" lon="34.752094269">
<ele>604.531250</ele>
<time>2013-11-23T09:27:54Z</time>
<speed>0.010000</speed>
<extensions>
<speed>0.0</speed>
<temp>0.00</temp>
<bpm>0</bpm>
<rpm>0.00</rpm>
</extensions>
</trkpt>
<trkpt lat="30.567077637" lon="34.752098083">
<ele>604.515625</ele>
<time>2013-11-23T09:27:59Z</time>
<speed>0.410000</speed>
<extensions>
<speed>0.4</speed>
<temp>0.00</temp>
<bpm>0</bpm>
<rpm>0.00</rpm>
</extensions>
</trkpt>
<trkpt lat="30.567089081" lon="34.752231598">
<ele>603.812500</ele>
<time>2013-11-23T09:28:04Z</time>
<speed>3.610000</speed>
<extensions>
<speed>3.6</speed>
<temp>0.00</temp>
<bpm>0</bpm>
<rpm>0.00</rpm>
</extensions>
</trkpt>
<trkpt lat="30.567100525" lon="34.752445221">
<ele>602.796875</ele>
<time>2013-11-23T09:28:09Z</time>
<speed>4.160000</speed>
<extensions>
<speed>4.2</speed>
<temp>0.00</temp>
<bpm>0</bpm>
<rpm>0.00</rpm>
</extensions>
</trkpt>
<trkpt lat="30.567123413" lon="34.752635956">
<ele>601.890625</ele>
<time>2013-11-23T09:28:14Z</time>
<speed>3.460000</speed>
<extensions>
<speed>3.5</speed>
<temp>0.00</temp>
<bpm>0</bpm>
<rpm>0.00</rpm>
</extensions>
</trkpt>
<trkpt lat="30.567138672" lon="34.752826691">
<ele>602.109375</ele>
<time>2013-11-23T09:28:19Z</time>
<speed>3.650000</speed>
<extensions>
<speed>3.7</speed>
<temp>0.00</temp>
<bpm>0</bpm>
<rpm>0.00</rpm>
</extensions>
</trkpt>
<trkpt lat="30.567157745" lon="34.753005981">
<ele>601.953125</ele>
<time>2013-11-23T09:28:24Z</time>
<speed>3.150000</speed>
<extensions>
<speed>3.2</speed>
<temp>0.00</temp>
<bpm>0</bpm>
<rpm>0.00</rpm>
</extensions>
</trkpt>
<trkpt lat="30.567173004" lon="34.753154755">
<ele>601.406250</ele>
<time>2013-11-23T09:28:29Z</time>
<speed>3.080000</speed>
<extensions>
<speed>3.1</speed>
<temp>0.00</temp>
<bpm>0</bpm>
<rpm>0.00</rpm>
</extensions>
</trkpt>
<trkpt lat="30.567182541" lon="34.753341675">
<ele>601.625000</ele>
<time>2013-11-23T09:28:34Z</time>
<speed>4.130000</speed>
<extensions>
<speed>4.1</speed>
<temp>0.00</temp>
<bpm>0</bpm>
<rpm>0.00</rpm>
</extensions>
</trkpt>
<trkpt lat="30.567184448" lon="34.753551483">
<ele>601.500000</ele>
<time>2013-11-23T09:28:39Z</time>
<speed>3.790000</speed>
<extensions>
<speed>3.8</speed>
<temp>0.00</temp>
<bpm>0</bpm>
<rpm>0.00</rpm>
</extensions>
</trkpt>
<trkpt lat="30.567169189" lon="34.753746033">
<ele>601.640625</ele>
<time>2013-11-23T09:28:44Z</time>
<speed>3.430000</speed>
<extensions>
<speed>3.4</speed>
<temp>0.00</temp>
<bpm>0</bpm>
<rpm>0.00</rpm>
</extensions>
</trkpt>
<trkpt lat="30.567155838" lon="34.753940582">
<ele>601.125000</ele>
<time>2013-11-23T09:28:49Z</time>
<speed>3.790000</speed>
<extensions>
<speed>3.8</speed>
<temp>0.00</temp>
<bpm>0</bpm>
<rpm>0.00</rpm>
</extensions>
</trkpt>
<trkpt lat="30.567110062" lon="34.754146576">
<ele>600.203125</ele>
<time>2013-11-23T09:28:54Z</time>
<speed>4.150000</speed>
<extensions>
<speed>4.1</speed>
<temp>0.00</temp>
<bpm>0</bpm>
<rpm>0.00</rpm>
</extensions>
</trkpt>
<trkpt lat="30.567062378" lon="34.754356384">
<ele>599.531250</ele>
<time>2013-11-23T09:28:59Z</time>
<speed>4.100000</speed>
<extensions>
<speed>4.1</speed>
<temp>0.00</temp>
<bpm>0</bpm>
<rpm>0.00</rpm>
</extensions>
</trkpt>
<trkpt lat="30.567007065" lon="34.754554749">
<ele>597.593750</ele>
<time>2013-11-23T09:29:04Z</time>
<speed>3.750000</speed>
<extensions>
<speed>3.8</speed>
<temp>0.00</temp>
<bpm>0</bpm>
<rpm>0.00</rpm>
</extensions>
</trkpt>
<trkpt lat="30.566909790" lon="34.754741669">
<ele>597.515625</ele>
<time>2013-11-23T09:29:09Z</time>
<speed>4.420000</speed>
<extensions>
<speed>4.4</speed>
<temp>0.00</temp>
<bpm>0</bpm>
<rpm>0.00</rpm>
</extensions>
</trkpt>
<trkpt lat="30.566787720" lon="34.754890442">
<ele>596.953125</ele>
<time>2013-11-23T09:29:14Z</time>
<speed>3.430000</speed>
<extensions>
<speed>3.4</speed>
<temp>0.00</temp>
<bpm>0</bpm>
<rpm>0.00</rpm>
</extensions>
</trkpt>
<trkpt lat="30.566658020" lon="34.755008698">
<ele>595.625000</ele>
<time>2013-11-23T09:29:19Z</time>
<speed>3.190000</speed>
<extensions>
<speed>3.2</speed>
<temp>0.00</temp>
<bpm>0</bpm>
<rpm>0.00</rpm>
</extensions>
</trkpt>
<trkpt lat="30.566528320" lon="34.755054474">
<ele>594.250000</ele>
<time>2013-11-23T09:29:24Z</time>
<speed>2.660000</speed>
<extensions>
<speed>2.7</speed>
<temp>0.00</temp>
<bpm>0</bpm>
<rpm>0.00</rpm>
</extensions>
</trkpt>
<trkpt lat="30.566375732" lon="34.755104065">
<ele>591.937500</ele>
<time>2013-11-23T09:29:29Z</time>
<speed>3.900000</speed>
<extensions>
<speed>3.9</speed>
<temp>0.00</temp>
<bpm>0</bpm>
<rpm>0.00</rpm>
</extensions>
</trkpt>
<trkpt lat="30.566202164" lon="34.755165100">
<ele>590.546875</ele>
<time>2013-11-23T09:29:34Z</time>
<speed>3.150000</speed>
<extensions>
<speed>3.2</speed>
<temp>0.00</temp>
<bpm>0</bpm>
<rpm>0.00</rpm>
</extensions>
</trkpt>
<trkpt lat="30.566076279" lon="34.755161285">
<ele>590.203125</ele>
<time>2013-11-23T09:29:39Z</time>
<speed>2.560000</speed>
<extensions>
<speed>2.6</speed>
<temp>0.00</temp>
<bpm>0</bpm>
<rpm>0.00</rpm>
</extensions>
</trkpt>
<trkpt lat="30.565940857" lon="34.755275726">
<ele>586.484375</ele>
<time>2013-11-23T09:29:44Z</time>
<speed>5.120000</speed>
<extensions>
<speed>5.1</speed>
<temp>0.00</temp>
<bpm>0</bpm>
<rpm>0.00</rpm>
</extensions>
</trkpt>
<trkpt lat="30.565834045" lon="34.755489349">
<ele>585.812500</ele>
<time>2013-11-23T09:29:49Z</time>
<speed>4.980000</speed>
<extensions>
<speed>5.0</speed>
<temp>0.00</temp>
<bpm>0</bpm>
<rpm>0.00</rpm>
</extensions>
</trkpt>
<trkpt lat="30.565881729" lon="34.755714417">
<ele>587.140625</ele>
<time>2013-11-23T09:29:54Z</time>
<speed>3.640000</speed>
<extensions>
<speed>3.6</speed>
<temp>0.00</temp>
<bpm>0</bpm>
<rpm>0.00</rpm>
</extensions>
</trkpt>
<trkpt lat="30.565942764" lon="34.755870819">
<ele>588.312500</ele>
<time>2013-11-23T09:29:59Z</time>
<speed>3.160000</speed>
<extensions>
<speed>3.2</speed>
<temp>0.00</temp>
<bpm>0</bpm>
<rpm>0.00</rpm>
</extensions>
</trkpt>
<trkpt lat="30.566043854" lon="34.755970001">
<ele>588.531250</ele>
<time>2013-11-23T09:30:04Z</time>
<speed>3.220000</speed>
<extensions>
<speed>3.2</speed>
<temp>0.00</temp>
<bpm>0</bpm>
<rpm>0.00</rpm>
</extensions>
</trkpt>
<trkpt lat="30.566066742" lon="34.756141663">
<ele>588.234375</ele>
<time>2013-11-23T09:30:09Z</time>
<speed>2.820000</speed>
<extensions>
<speed>2.8</speed>
<temp>0.00</temp>
<bpm>0</bpm>
<rpm>0.00</rpm>
</extensions>
</trkpt>
<trkpt lat="30.566114426" lon="34.756301880">
<ele>589.750000</ele>
<time>2013-11-23T09:30:14Z</time>
<speed>3.490000</speed>
<extensions>
<speed>3.5</speed>
<temp>0.00</temp>
<bpm>0</bpm>
<rpm>0.00</rpm>
</extensions>
</trkpt>
<trkpt lat="30.566177368" lon="34.756477356">
<ele>590.828125</ele>
<time>2013-11-23T09:30:19Z</time>
<speed>3.960000</speed>
<extensions>
<speed>4.0</speed>
<temp>0.00</temp>
<bpm>0</bpm>
<rpm>0.00</rpm>
</extensions>
</trkpt>
<trkpt lat="30.566238403" lon="34.756694794">
<ele>591.890625</ele>
<time>2013-11-23T09:30:24Z</time>
<speed>4.460000</speed>
<extensions>
<speed>4.5</speed>
<temp>0.00</temp>
<bpm>0</bpm>
<rpm>0.00</rpm>
</extensions>
</trkpt>
<trkpt lat="30.566257477" lon="34.756877899">
<ele>592.093750</ele>
<time>2013-11-23T09:30:29Z</time>
<speed>3.380000</speed>
<extensions>
<speed>3.4</speed>
<temp>0.00</temp>
<bpm>0</bpm>
<rpm>0.00</rpm>
</extensions>
</trkpt>
<trkpt lat="30.566267014" lon="34.757019043">
<ele>592.250000</ele>
<time>2013-11-23T09:30:34Z</time>
<speed>1.940000</speed>
<extensions>
<speed>1.9</speed>
<temp>0.00</temp>
<bpm>0</bpm>
<rpm>0.00</rpm>
</extensions>
</trkpt>
<trkpt lat="30.566286087" lon="34.757122040">
<ele>592.562500</ele>
<time>2013-11-23T09:30:39Z</time>
<speed>1.610000</speed>
<extensions>
<speed>1.6</speed>
<temp>0.00</temp>
<bpm>0</bpm>
<rpm>0.00</rpm>
</extensions>
</trkpt>
<trkpt lat="30.566297531" lon="34.757221222">
<ele>592.234375</ele>
<time>2013-11-23T09:30:44Z</time>
<speed>2.150000</speed>
<extensions>
<speed>2.1</speed>
<temp>0.00</temp>
<bpm>0</bpm>
<rpm>0.00</rpm>
</extensions>
</trkpt>
<trkpt lat="30.566322327" lon="34.757335663">
<ele>591.937500</ele>
<time>2013-11-23T09:30:49Z</time>
<speed>2.700000</speed>
<extensions>
<speed>2.7</speed>
<temp>0.00</temp>
<bpm>0</bpm>
<rpm>0.00</rpm>
</extensions>
</trkpt>
<trkpt lat="30.566343307" lon="34.757492065">
<ele>591.750000</ele>
<time>2013-11-23T09:30:54Z</time>
<speed>3.380000</speed>
<extensions>
<speed>3.4</speed>
<temp>0.00</temp>
<bpm>0</bpm>
<rpm>0.00</rpm>
</extensions>
</trkpt>
<trkpt lat="30.566392899" lon="34.757682800">
<ele>591.609375</ele>
<time>2013-11-23T09:30:59Z</time>
<speed>4.250000</speed>
<extensions>
<speed>4.3</speed>
<temp>0.00</temp>
<bpm>0</bpm>
<rpm>0.00</rpm>
</extensions>
</trkpt>
<trkpt lat="30.566482544" lon="34.757888794">
<ele>590.968750</ele>
<time>2013-11-23T09:31:04Z</time>
<speed>4.340000</speed>
<extensions>
<speed>4.3</speed>
<temp>0.00</temp>
<bpm>0</bpm>
<rpm>0.00</rpm>
</extensions>
</trkpt>
<trkpt lat="30.566534042" lon="34.758090973">
<ele>590.906250</ele>
<time>2013-11-23T09:31:09Z</time>
<speed>3.800000</speed>
<extensions>
<speed>3.8</speed>
<temp>0.00</temp>
<bpm>0</bpm>
<rpm>0.00</rpm>
</extensions>
</trkpt>
<trkpt lat="30.566499710" lon="34.758235931">
<ele>591.078125</ele>
<time>2013-11-23T09:31:14Z</time>
<speed>3.180000</speed>
<extensions>
<speed>3.2</speed>
<temp>0.00</temp>
<bpm>0</bpm>
<rpm>0.00</rpm>
</extensions>
</trkpt>
<trkpt lat="30.566362381" lon="34.758327484">
<ele>589.968750</ele>
<time>2013-11-23T09:31:19Z</time>
<speed>3.060000</speed>
<extensions>
<speed>3.1</speed>
<temp>0.00</temp>
<bpm>0</bpm>
<rpm>0.00</rpm>
</extensions>
</trkpt>
<trkpt lat="30.566312790" lon="34.758480072">
<ele>589.156250</ele>
<time>2013-11-23T09:31:24Z</time>
<speed>3.770000</speed>
<extensions>
<speed>3.8</speed>
<temp>0.00</temp>
<bpm>0</bpm>
<rpm>0.00</rpm>
</extensions>
</trkpt>
<trkpt lat="30.566406250" lon="34.758640289">
<ele>589.984375</ele>
<time>2013-11-23T09:31:29Z</time>
<speed>2.900000</speed>
<extensions>
<speed>2.9</speed>
<temp>0.00</temp>
<bpm>0</bpm>
<rpm>0.00</rpm>
</extensions>
</trkpt>
<trkpt lat="30.566478729" lon="34.758739471">
<ele>592.578125</ele>
<time>2013-11-23T09:31:34Z</time>
<speed>2.550000</speed>
<extensions>
<speed>2.6</speed>
<temp>0.00</temp>
<bpm>0</bpm>
<rpm>0.00</rpm>
</extensions>
</trkpt>
<trkpt lat="30.566553116" lon="34.758842468">
<ele>592.750000</ele>
<time>2013-11-23T09:31:39Z</time>
<speed>2.920000</speed>
<extensions>
<speed>2.9</speed>
<temp>0.00</temp>
<bpm>0</bpm>
<rpm>0.00</rpm>
</extensions>
</trkpt>
<trkpt lat="30.566629410" lon="34.758941650">
<ele>594.593750</ele>
<time>2013-11-23T09:31:44Z</time>
<speed>2.470000</speed>
<extensions>
<speed>2.5</speed>
<temp>0.00</temp>
<bpm>0</bpm>
<rpm>0.00</rpm>
</extensions>
</trkpt>
<trkpt lat="30.566705704" lon="34.759017944">
<ele>596.734375</ele>
<time>2013-11-23T09:31:49Z</time>
<speed>2.510000</speed>
<extensions>
<speed>2.5</speed>
<temp>0.00</temp>
<bpm>0</bpm>
<rpm>0.00</rpm>
</extensions>
</trkpt>
<trkpt lat="30.566785812" lon="34.759117126">
<ele>596.609375</ele>
<time>2013-11-23T09:31:54Z</time>
<speed>2.770000</speed>
<extensions>
<speed>2.8</speed>
<temp>0.00</temp>
<bpm>0</bpm>
<rpm>0.00</rpm>
</extensions>
</trkpt>
<trkpt lat="30.566843033" lon="34.759227753">
<ele>598.296875</ele>
<time>2013-11-23T09:31:59Z</time>
<speed>2.280000</speed>
<extensions>
<speed>2.3</speed>
<temp>0.00</temp>
<bpm>0</bpm>
<rpm>0.00</rpm>
</extensions>
</trkpt>
<trkpt lat="30.566900253" lon="34.759353638">
<ele>596.750000</ele>
<time>2013-11-23T09:32:04Z</time>
<speed>3.360000</speed>
<extensions>
<speed>3.4</speed>
<temp>0.00</temp>
<bpm>0</bpm>
<rpm>0.00</rpm>
</extensions>
</trkpt>
<trkpt lat="30.566934586" lon="34.759494781">
<ele>596.984375</ele>
<time>2013-11-23T09:32:09Z</time>
<speed>2.190000</speed>
<extensions>
<speed>2.2</speed>
<temp>0.00</temp>
<bpm>0</bpm>
<rpm>0.00</rpm>
</extensions>
</trkpt>
<trkpt lat="30.566961288" lon="34.759647369">
<ele>597.296875</ele>
<time>2013-11-23T09:32:14Z</time>
<speed>3.620000</speed>
<extensions>
<speed>3.6</speed>
<temp>0.00</temp>
<bpm>0</bpm>
<rpm>0.00</rpm>
</extensions>
</trkpt>
<trkpt lat="30.567026138" lon="34.759792328">
<ele>596.031250</ele>
<time>2013-11-23T09:32:19Z</time>
<speed>2.590000</speed>
<extensions>
<speed>2.6</speed>
<temp>0.00</temp>
<bpm>0</bpm>
<rpm>0.00</rpm>
</extensions>
</trkpt>
<trkpt lat="30.567056656" lon="34.759929657">
<ele>597.546875</ele>
<time>2013-11-23T09:32:24Z</time>
<speed>3.480000</speed>
<extensions>
<speed>3.5</speed>
<temp>0.00</temp>
<bpm>0</bpm>
<rpm>0.00</rpm>
</extensions>
</trkpt>
<trkpt lat="30.567081451" lon="34.760108948">
<ele>596.921875</ele>
<time>2013-11-23T09:32:29Z</time>
<speed>3.420000</speed>
<extensions>
<speed>3.4</speed>
<temp>0.00</temp>
<bpm>0</bpm>
<rpm>0.00</rpm>
</extensions>
</trkpt>
<trkpt lat="30.567096710" lon="34.760272980">
<ele>594.343750</ele>
<time>2013-11-23T09:32:34Z</time>
<speed>3.200000</speed>
<extensions>
<speed>3.2</speed>
<temp>0.00</temp>
<bpm>0</bpm>
<rpm>0.00</rpm>
</extensions>
</trkpt>
<trkpt lat="30.567096710" lon="34.760452271">
<ele>594.484375</ele>
<time>2013-11-23T09:32:39Z</time>
<speed>3.990000</speed>
<extensions>
<speed>4.0</speed>
<temp>0.00</temp>
<bpm>0</bpm>
<rpm>0.00</rpm>
</extensions>
</trkpt>
<trkpt lat="30.567092896" lon="34.760654449">
<ele>596.359375</ele>
<time>2013-11-23T09:32:44Z</time>
<speed>3.100000</speed>
<extensions>
<speed>3.1</speed>
<temp>0.00</temp>
<bpm>0</bpm>
<rpm>0.00</rpm>
</extensions>
</trkpt>
<trkpt lat="30.567081451" lon="34.760776520">
<ele>597.140625</ele>
<time>2013-11-23T09:32:49Z</time>
<speed>2.730000</speed>
<extensions>
<speed>2.7</speed>
<temp>0.00</temp>
<bpm>0</bpm>
<rpm>0.00</rpm>
</extensions>
</trkpt>
<trkpt lat="30.567073822" lon="34.760929108">
<ele>595.843750</ele>
<time>2013-11-23T09:32:54Z</time>
<speed>2.830000</speed>
<extensions>
<speed>2.8</speed>
<temp>0.00</temp>
<bpm>0</bpm>
<rpm>0.00</rpm>
</extensions>
</trkpt>
<trkpt lat="30.567073822" lon="34.761054993">
<ele>593.468750</ele>
<time>2013-11-23T09:32:59Z</time>
<speed>2.630000</speed>
<extensions>
<speed>2.6</speed>
<temp>0.00</temp>
<bpm>0</bpm>
<rpm>0.00</rpm>
</extensions>
</trkpt>
<trkpt lat="30.567070007" lon="34.761215210">
<ele>591.281250</ele>
<time>2013-11-23T09:33:04Z</time>
<speed>3.430000</speed>
<extensions>
<speed>3.4</speed>
<temp>0.00</temp>
<bpm>0</bpm>
<rpm>0.00</rpm>
</extensions>
</trkpt>
<trkpt lat="30.567050934" lon="34.761379242">
<ele>590.609375</ele>
<time>2013-11-23T09:33:09Z</time>
<speed>3.450000</speed>
<extensions>
<speed>3.5</speed>
<temp>0.00</temp>
<bpm>0</bpm>
<rpm>0.00</rpm>
</extensions>
</trkpt>
<trkpt lat="30.567012787" lon="34.761581421">
<ele>590.421875</ele>
<time>2013-11-23T09:33:14Z</time>
<speed>3.420000</speed>
<extensions>
<speed>3.4</speed>
<temp>0.00</temp>
<bpm>0</bpm>
<rpm>0.00</rpm>
</extensions>
</trkpt>
<trkpt lat="30.566986084" lon="34.761753082">
<ele>590.171875</ele>
<time>2013-11-23T09:33:19Z</time>
<speed>4.010000</speed>
<extensions>
<speed>4.0</speed>
<temp>0.00</temp>
<bpm>0</bpm>
<rpm>0.00</rpm>
</extensions>
</trkpt>
<trkpt lat="30.566999435" lon="34.761951447">
<ele>589.734375</ele>
<time>2013-11-23T09:33:24Z</time>
<speed>3.320000</speed>
<extensions>
<speed>3.3</speed>
<temp>0.00</temp>
<bpm>0</bpm>
<rpm>0.00</rpm>
</extensions>
</trkpt>
<trkpt lat="30.567012787" lon="34.762096405">
<ele>588.953125</ele>
<time>2013-11-23T09:33:29Z</time>
<speed>2.630000</speed>
<extensions>
<speed>2.6</speed>
<temp>0.00</temp>
<bpm>0</bpm>
<rpm>0.00</rpm>
</extensions>
</trkpt>
<trkpt lat="30.567024231" lon="34.762252808">
<ele>589.921875</ele>
<time>2013-11-23T09:33:34Z</time>
<speed>3.270000</speed>
<extensions>
<speed>3.3</speed>
<temp>0.00</temp>
<bpm>0</bpm>
<rpm>0.00</rpm>
</extensions>
</trkpt>
<trkpt lat="30.567014694" lon="34.762401581">
<ele>592.171875</ele>
<time>2013-11-23T09:33:39Z</time>
<speed>2.330000</speed>
<extensions>
<speed>2.3</speed>
<temp>0.00</temp>
<bpm>0</bpm>
<rpm>0.00</rpm>
</extensions>
</trkpt>
<trkpt lat="30.566995621" lon="34.762447357">
<ele>593.468750</ele>
<time>2013-11-23T09:33:44Z</time>
<speed>0.010000</speed>
<extensions>
<speed>0.0</speed>
<temp>0.00</temp>
<bpm>0</bpm>
<rpm>0.00</rpm>
</extensions>
</trkpt>
<trkpt lat="30.566995621" lon="34.762447357">
<ele>593.484375</ele>
<time>2013-11-23T09:33:49Z</time>
<speed>0.020000</speed>
<extensions>
<speed>0.0</speed>
<temp>0.00</temp>
<bpm>0</bpm>
<rpm>0.00</rpm>
</extensions>
</trkpt>
<trkpt lat="30.566995621" lon="34.762447357">
<ele>593.421875</ele>
<time>2013-11-23T09:33:54Z</time>
<speed>0.040000</speed>
<extensions>
<speed>0.0</speed>
<temp>0.00</temp>
<bpm>0</bpm>
<rpm>0.00</rpm>
</extensions>
</trkpt>
<trkpt lat="30.566997528" lon="34.762447357">
<ele>593.296875</ele>
<time>2013-11-23T09:33:59Z</time>
<speed>0.020000</speed>
<extensions>
<speed>0.0</speed>
<temp>0.00</temp>
<bpm>0</bpm>
<rpm>0.00</rpm>
</extensions>
</trkpt>
<trkpt lat="30.566997528" lon="34.762447357">
<ele>593.281250</ele>
<time>2013-11-23T09:34:04Z</time>
<speed>0.030000</speed>
<extensions>
<speed>0.0</speed>
<temp>0.00</temp>
<bpm>0</bpm>
<rpm>0.00</rpm>
</extensions>
</trkpt>
<trkpt lat="30.566997528" lon="34.762447357">
<ele>593.281250</ele>
<time>2013-11-23T09:34:09Z</time>
<speed>0.020000</speed>
<extensions>
<speed>0.0</speed>
<temp>0.00</temp>
<bpm>0</bpm>
<rpm>0.00</rpm>
</extensions>
</trkpt>
<trkpt lat="30.566995621" lon="34.762451172">
<ele>593.187500</ele>
<time>2013-11-23T09:34:14Z</time>
<speed>1.150000</speed>
<extensions>
<speed>1.1</speed>
<temp>0.00</temp>
<bpm>0</bpm>
<rpm>0.00</rpm>
</extensions>
</trkpt>
<trkpt lat="30.566949844" lon="34.762554169">
<ele>593.390625</ele>
<time>2013-11-23T09:34:19Z</time>
<speed>2.950000</speed>
<extensions>
<speed>2.9</speed>
<temp>0.00</temp>
<bpm>0</bpm>
<rpm>0.00</rpm>
</extensions>
</trkpt>
<trkpt lat="30.566844940" lon="34.762744904">
<ele>590.796875</ele>
<time>2013-11-23T09:34:24Z</time>
<speed>5.440000</speed>
<extensions>
<speed>5.4</speed>
<temp>0.00</temp>
<bpm>0</bpm>
<rpm>0.00</rpm>
</extensions>
</trkpt>
<trkpt lat="30.566707611" lon="34.763008118">
<ele>590.359375</ele>
<time>2013-11-23T09:34:29Z</time>
<speed>4.940000</speed>
<extensions>
<speed>4.9</speed>
<temp>0.00</temp>
<bpm>0</bpm>
<rpm>0.00</rpm>
</extensions>
</trkpt>
<trkpt lat="30.566637039" lon="34.763221741">
<ele>590.140625</ele>
<time>2013-11-23T09:34:34Z</time>
<speed>3.870000</speed>
<extensions>
<speed>3.9</speed>
<temp>0.00</temp>
<bpm>0</bpm>
<rpm>0.00</rpm>
</extensions>
</trkpt>
<trkpt lat="30.566574097" lon="34.763389587">
<ele>590.984375</ele>
<time>2013-11-23T09:34:39Z</time>
<speed>3.650000</speed>
<extensions>
<speed>3.7</speed>
<temp>0.00</temp>
<bpm>0</bpm>
<rpm>0.00</rpm>
</extensions>
</trkpt>
<trkpt lat="30.566503525" lon="34.763511658">
<ele>590.531250</ele>
<time>2013-11-23T09:34:44Z</time>
<speed>1.460000</speed>
<extensions>
<speed>1.5</speed>
<temp>0.00</temp>
<bpm>0</bpm>
<rpm>0.00</rpm>
</extensions>
</trkpt>
<trkpt lat="30.566492081" lon="34.763526917">
<ele>590.875000</ele>
<time>2013-11-23T09:34:49Z</time>
<speed>0.060000</speed>
<extensions>
<speed>0.1</speed>
<temp>0.00</temp>
<bpm>0</bpm>
<rpm>0.00</rpm>
</extensions>
</trkpt>
<trkpt lat="30.566482544" lon="34.763538361">
<ele>590.921875</ele>
<time>2013-11-23T09:34:54Z</time>
<speed>0.950000</speed>
<extensions>
<speed>1.0</speed>
<temp>0.00</temp>
<bpm>0</bpm>
<rpm>0.00</rpm>
</extensions>
</trkpt>
<trkpt lat="30.566461563" lon="34.763580322">
<ele>591.609375</ele>
<time>2013-11-23T09:34:59Z</time>
<speed>0.840000</speed>
<extensions>
<speed>0.8</speed>
<temp>0.00</temp>
<bpm>0</bpm>
<rpm>0.00</rpm>
</extensions>
</trkpt>
<trkpt lat="30.566457748" lon="34.763622284">
<ele>592.125000</ele>
<time>2013-11-23T09:35:04Z</time>
<speed>1.080000</speed>
<extensions>
<speed>1.1</speed>
<temp>0.00</temp>
<bpm>0</bpm>
<rpm>0.00</rpm>
</extensions>
</trkpt>
<trkpt lat="30.566461563" lon="34.763660431">
<ele>592.671875</ele>
<time>2013-11-23T09:35:09Z</time>
<speed>1.080000</speed>
<extensions>
<speed>1.1</speed>
<temp>0.00</temp>
<bpm>0</bpm>
<rpm>0.00</rpm>
</extensions>
</trkpt>
<trkpt lat="30.566473007" lon="34.763710022">
<ele>593.500000</ele>
<time>2013-11-23T09:35:14Z</time>
<speed>0.720000</speed>
<extensions>
<speed>0.7</speed>
<temp>0.00</temp>
<bpm>0</bpm>
<rpm>0.00</rpm>
</extensions>
</trkpt>
<trkpt lat="30.566486359" lon="34.763748169">
<ele>595.640625</ele>
<time>2013-11-23T09:35:19Z</time>
<speed>1.310000</speed>
<extensions>
<speed>1.3</speed>
<temp>0.00</temp>
<bpm>0</bpm>
<rpm>0.00</rpm>
</extensions>
</trkpt>
<trkpt lat="30.566522598" lon="34.763820648">
<ele>596.703125</ele>
<time>2013-11-23T09:35:24Z</time>
<speed>2.230000</speed>
<extensions>
<speed>2.2</speed>
<temp>0.00</temp>
<bpm>0</bpm>
<rpm>0.00</rpm>
</extensions>
</trkpt>
<trkpt lat="30.566606522" lon="34.763935089">
<ele>597.406250</ele>
<time>2013-11-23T09:35:29Z</time>
<speed>2.590000</speed>
<extensions>
<speed>2.6</speed>
<temp>0.00</temp>
<bpm>0</bpm>
<rpm>0.00</rpm>
</extensions>
</trkpt>
<trkpt lat="30.566688538" lon="34.764030457">
<ele>597.921875</ele>
<time>2013-11-23T09:35:34Z</time>
<speed>2.700000</speed>
<extensions>
<speed>2.7</speed>
<temp>0.00</temp>
<bpm>0</bpm>
<rpm>0.00</rpm>
</extensions>
</trkpt>
<trkpt lat="30.566776276" lon="34.764137268">
<ele>598.093750</ele>
<time>2013-11-23T09:35:39Z</time>
<speed>2.540000</speed>
<extensions>
<speed>2.5</speed>
<temp>0.00</temp>
<bpm>0</bpm>
<rpm>0.00</rpm>
</extensions>
</trkpt>
<trkpt lat="30.566886902" lon="34.764244080">
<ele>598.203125</ele>
<time>2013-11-23T09:35:44Z</time>
<speed>3.110000</speed>
<extensions>
<speed>3.1</speed>
<temp>0.00</temp>
<bpm>0</bpm>
<rpm>0.00</rpm>
</extensions>
</trkpt>
<trkpt lat="30.566961288" lon="34.764358521">
<ele>598.750000</ele>
<time>2013-11-23T09:35:49Z</time>
<speed>2.420000</speed>
<extensions>
<speed>2.4</speed>
<temp>0.00</temp>
<bpm>0</bpm>
<rpm>0.00</rpm>
</extensions>
</trkpt>
<trkpt lat="30.567041397" lon="34.764446259">
<ele>599.046875</ele>
<time>2013-11-23T09:35:54Z</time>
<speed>2.250000</speed>
<extensions>
<speed>2.3</speed>
<temp>0.00</temp>
<bpm>0</bpm>
<rpm>0.00</rpm>
</extensions>
</trkpt>
<trkpt lat="30.567102432" lon="34.764518738">
<ele>599.265625</ele>
<time>2013-11-23T09:35:59Z</time>
<speed>1.770000</speed>
<extensions>
<speed>1.8</speed>
<temp>0.00</temp>
<bpm>0</bpm>
<rpm>0.00</rpm>
</extensions>
</trkpt>
<trkpt lat="30.567163467" lon="34.764614105">
<ele>598.968750</ele>
<time>2013-11-23T09:36:04Z</time>
<speed>3.140000</speed>
<extensions>
<speed>3.1</speed>
<temp>0.00</temp>
<bpm>0</bpm>
<rpm>0.00</rpm>
</extensions>
</trkpt>
<trkpt lat="30.567211151" lon="34.764751434">
<ele>597.968750</ele>
<time>2013-11-23T09:36:09Z</time>
<speed>2.820000</speed>
<extensions>
<speed>2.8</speed>
<temp>0.00</temp>
<bpm>0</bpm>
<rpm>0.00</rpm>
</extensions>
</trkpt>
<trkpt lat="30.567232132" lon="34.764881134">
<ele>597.093750</ele>
<time>2013-11-23T09:36:14Z</time>
<speed>2.660000</speed>
<extensions>
<speed>2.7</speed>
<temp>0.00</temp>
<bpm>0</bpm>
<rpm>0.00</rpm>
</extensions>
</trkpt>
<trkpt lat="30.567260742" lon="34.765029907">
<ele>596.687500</ele>
<time>2013-11-23T09:36:19Z</time>
<speed>3.270000</speed>
<extensions>
<speed>3.3</speed>
<temp>0.00</temp>
<bpm>0</bpm>
<rpm>0.00</rpm>
</extensions>
</trkpt>
<trkpt lat="30.567262650" lon="34.765197754">
<ele>596.015625</ele>
<time>2013-11-23T09:36:24Z</time>
<speed>3.560000</speed>
<extensions>
<speed>3.6</speed>
<temp>0.00</temp>
<bpm>0</bpm>
<rpm>0.00</rpm>
</extensions>
</trkpt>
<trkpt lat="30.567243576" lon="34.765426636">
<ele>593.937500</ele>
<time>2013-11-23T09:36:29Z</time>
<speed>5.350000</speed>
<extensions>
<speed>5.4</speed>
<temp>0.00</temp>
<bpm>0</bpm>
<rpm>0.00</rpm>
</extensions>
</trkpt>
<trkpt lat="30.567230225" lon="34.765678406">
<ele>593.125000</ele>
<time>2013-11-23T09:36:34Z</time>
<speed>4.160000</speed>
<extensions>
<speed>4.2</speed>
<temp>0.00</temp>
<bpm>0</bpm>
<rpm>0.00</rpm>
</extensions>
</trkpt>
<trkpt lat="30.567270279" lon="34.765830994">
<ele>594.062500</ele>
<time>2013-11-23T09:36:39Z</time>
<speed>3.240000</speed>
<extensions>
<speed>3.2</speed>
<temp>0.00</temp>
<bpm>0</bpm>
<rpm>0.00</rpm>
</extensions>
</trkpt>
<trkpt lat="30.567302704" lon="34.766006470">
<ele>595.156250</ele>
<time>2013-11-23T09:36:44Z</time>
<speed>3.920000</speed>
<extensions>
<speed>3.9</speed>
<temp>0.00</temp>
<bpm>0</bpm>
<rpm>0.00</rpm>
</extensions>
</trkpt>
<trkpt lat="30.567323685" lon="34.766189575">
<ele>594.750000</ele>
<time>2013-11-23T09:36:49Z</time>
<speed>2.920000</speed>
<extensions>
<speed>2.9</speed>
<temp>0.00</temp>
<bpm>0</bpm>
<rpm>0.00</rpm>
</extensions>
</trkpt>
<trkpt lat="30.567337036" lon="34.766365051">
<ele>594.984375</ele>
<time>2013-11-23T09:36:54Z</time>
<speed>3.810000</speed>
<extensions>
<speed>3.8</speed>
<temp>0.00</temp>
<bpm>0</bpm>
<rpm>0.00</rpm>
</extensions>
</trkpt>
<trkpt lat="30.567356110" lon="34.766555786">
<ele>596.046875</ele>
<time>2013-11-23T09:36:59Z</time>
<speed>3.400000</speed>
<extensions>
<speed>3.4</speed>
<temp>0.00</temp>
<bpm>0</bpm>
<rpm>0.00</rpm>
</extensions>
</trkpt>
<trkpt lat="30.567388535" lon="34.766757965">
<ele>596.265625</ele>
<time>2013-11-23T09:37:04Z</time>
<speed>3.950000</speed>
<extensions>
<speed>4.0</speed>
<temp>0.00</temp>
<bpm>0</bpm>
<rpm>0.00</rpm>
</extensions>
</trkpt>
<trkpt lat="30.567443848" lon="34.766948700">
<ele>596.562500</ele>
<time>2013-11-23T09:37:09Z</time>
<speed>3.230000</speed>
<extensions>
<speed>3.2</speed>
<temp>0.00</temp>
<bpm>0</bpm>
<rpm>0.00</rpm>
</extensions>
</trkpt>
<trkpt lat="30.567493439" lon="34.767108917">
<ele>596.609375</ele>
<time>2013-11-23T09:37:14Z</time>
<speed>2.800000</speed>
<extensions>
<speed>2.8</speed>
<temp>0.00</temp>
<bpm>0</bpm>
<rpm>0.00</rpm>
</extensions>
</trkpt>
<trkpt lat="30.567554474" lon="34.767318726">
<ele>594.406250</ele>
<time>2013-11-23T09:37:19Z</time>
<speed>5.380000</speed>
<extensions>
<speed>5.4</speed>
<temp>0.00</temp>
<bpm>0</bpm>
<rpm>0.00</rpm>
</extensions>
</trkpt>
<trkpt lat="30.567655563" lon="34.767547607">
<ele>593.234375</ele>
<time>2013-11-23T09:37:24Z</time>
<speed>4.360000</speed>
<extensions>
<speed>4.4</speed>
<temp>0.00</temp>
<bpm>0</bpm>
<rpm>0.00</rpm>
</extensions>
</trkpt>
<trkpt lat="30.567722321" lon="34.767681122">
<ele>593.890625</ele>
<time>2013-11-23T09:37:29Z</time>
<speed>1.970000</speed>
<extensions>
<speed>2.0</speed>
<temp>0.00</temp>
<bpm>0</bpm>
<rpm>0.00</rpm>
</extensions>
</trkpt>
<trkpt lat="30.567785263" lon="34.767803192">
<ele>594.515625</ele>
<time>2013-11-23T09:37:34Z</time>
<speed>3.370000</speed>
<extensions>
<speed>3.4</speed>
<temp>0.00</temp>
<bpm>0</bpm>
<rpm>0.00</rpm>
</extensions>
</trkpt>
<trkpt lat="30.567876816" lon="34.767978668">
<ele>595.171875</ele>
<time>2013-11-23T09:37:39Z</time>
<speed>3.840000</speed>
<extensions>
<speed>3.8</speed>
<temp>0.00</temp>
<bpm>0</bpm>
<rpm>0.00</rpm>
</extensions>
</trkpt>
<trkpt lat="30.567953110" lon="34.768180847">
<ele>593.812500</ele>
<time>2013-11-23T09:37:44Z</time>
<speed>4.400000</speed>
<extensions>
<speed>4.4</speed>
<temp>0.00</temp>
<bpm>0</bpm>
<rpm>0.00</rpm>
</extensions>
</trkpt>
<trkpt lat="30.568010330" lon="34.768356323">
<ele>594.265625</ele>
<time>2013-11-23T09:37:49Z</time>
<speed>2.860000</speed>
<extensions>
<speed>2.9</speed>
<temp>0.00</temp>
<bpm>0</bpm>
<rpm>0.00</rpm>
</extensions>
</trkpt>
<trkpt lat="30.568054199" lon="34.768486023">
<ele>595.125000</ele>
<time>2013-11-23T09:37:54Z</time>
<speed>3.070000</speed>
<extensions>
<speed>3.1</speed>
<temp>0.00</temp>
<bpm>0</bpm>
<rpm>0.00</rpm>
</extensions>
</trkpt>
<trkpt lat="30.568117142" lon="34.768630981">
<ele>596.125000</ele>
<time>2013-11-23T09:37:59Z</time>
<speed>2.800000</speed>
<extensions>
<speed>2.8</speed>
<temp>0.00</temp>
<bpm>0</bpm>
<rpm>0.00</rpm>
</extensions>
</trkpt>
<trkpt lat="30.568166733" lon="34.768764496">
<ele>597.484375</ele>
<time>2013-11-23T09:38:04Z</time>
<speed>3.110000</speed>
<extensions>
<speed>3.1</speed>
<temp>0.00</temp>
<bpm>0</bpm>
<rpm>0.00</rpm>
</extensions>
</trkpt>
<trkpt lat="30.568229675" lon="34.768947601">
<ele>597.531250</ele>
<time>2013-11-23T09:38:09Z</time>
<speed>3.930000</speed>
<extensions>
<speed>3.9</speed>
<temp>0.00</temp>
<bpm>0</bpm>
<rpm>0.00</rpm>
</extensions>
</trkpt>
<trkpt lat="30.568277359" lon="34.769153595">
<ele>597.031250</ele>
<time>2013-11-23T09:38:14Z</time>
<speed>4.260000</speed>
<extensions>
<speed>4.3</speed>
<temp>0.00</temp>
<bpm>0</bpm>
<rpm>0.00</rpm>
</extensions>
</trkpt>
<trkpt lat="30.568330765" lon="34.769351959">
<ele>596.609375</ele>
<time>2013-11-23T09:38:19Z</time>
<speed>3.910000</speed>
<extensions>
<speed>3.9</speed>
<temp>0.00</temp>
<bpm>0</bpm>
<rpm>0.00</rpm>
</extensions>
</trkpt>
<trkpt lat="30.568399429" lon="34.769550323">
<ele>596.015625</ele>
<time>2013-11-23T09:38:24Z</time>
<speed>3.840000</speed>
<extensions>
<speed>3.8</speed>
<temp>0.00</temp>
<bpm>0</bpm>
<rpm>0.00</rpm>
</extensions>
</trkpt>
<trkpt lat="30.568460464" lon="34.769744873">
<ele>595.750000</ele>
<time>2013-11-23T09:38:29Z</time>
<speed>4.440000</speed>
<extensions>
<speed>4.4</speed>
<temp>0.00</temp>
<bpm>0</bpm>
<rpm>0.00</rpm>
</extensions>
</trkpt>
<trkpt lat="30.568523407" lon="34.769947052">
<ele>595.796875</ele>
<time>2013-11-23T09:38:34Z</time>
<speed>4.130000</speed>
<extensions>
<speed>4.1</speed>
<temp>0.00</temp>
<bpm>0</bpm>
<rpm>0.00</rpm>
</extensions>
</trkpt>
<trkpt lat="30.568605423" lon="34.770172119">
<ele>596.062500</ele>
<time>2013-11-23T09:38:39Z</time>
<speed>4.850000</speed>
<extensions>
<speed>4.8</speed>
<temp>0.00</temp>
<bpm>0</bpm>
<rpm>0.00</rpm>
</extensions>
</trkpt>
<trkpt lat="30.568691254" lon="34.770389557">
<ele>596.562500</ele>
<time>2013-11-23T09:38:44Z</time>
<speed>5.000000</speed>
<extensions>
<speed>5.0</speed>
<temp>0.00</temp>
<bpm>0</bpm>
<rpm>0.00</rpm>
</extensions>
</trkpt>
<trkpt lat="30.568790436" lon="34.770572662">
<ele>595.953125</ele>
<time>2013-11-23T09:38:49Z</time>
<speed>3.610000</speed>
<extensions>
<speed>3.6</speed>
<temp>0.00</temp>
<bpm>0</bpm>
<rpm>0.00</rpm>
</extensions>
</trkpt>
<trkpt lat="30.568864822" lon="34.770721436">
<ele>595.281250</ele>
<time>2013-11-23T09:38:54Z</time>
<speed>3.260000</speed>
<extensions>
<speed>3.3</speed>
<temp>0.00</temp>
<bpm>0</bpm>
<rpm>0.00</rpm>
</extensions>
</trkpt>
<trkpt lat="30.568933487" lon="34.770835876">
<ele>594.546875</ele>
<time>2013-11-23T09:38:59Z</time>
<speed>2.560000</speed>
<extensions>
<speed>2.6</speed>
<temp>0.00</temp>
<bpm>0</bpm>
<rpm>0.00</rpm>
</extensions>
</trkpt>
<trkpt lat="30.569011688" lon="34.770980835">
<ele>591.687500</ele>
<time>2013-11-23T09:39:04Z</time>
<speed>4.230000</speed>
<extensions>
<speed>4.2</speed>
<temp>0.00</temp>
<bpm>0</bpm>
<rpm>0.00</rpm>
</extensions>
</trkpt>
<trkpt lat="30.569015503" lon="34.771240234">
<ele>587.984375</ele>
<time>2013-11-23T09:39:09Z</time>
<speed>5.730000</speed>
<extensions>
<speed>5.7</speed>
<temp>0.00</temp>
<bpm>0</bpm>
<rpm>0.00</rpm>
</extensions>
</trkpt>
<trkpt lat="30.568986893" lon="34.771492004">
<ele>587.859375</ele>
<time>2013-11-23T09:39:14Z</time>
<speed>3.600000</speed>
<extensions>
<speed>3.6</speed>
<temp>0.00</temp>
<bpm>0</bpm>
<rpm>0.00</rpm>
</extensions>
</trkpt>
<trkpt lat="30.568977356" lon="34.771598816">
<ele>587.484375</ele>
<time>2013-11-23T09:39:19Z</time>
<speed>2.040000</speed>
<extensions>
<speed>2.0</speed>
<temp>0.00</temp>
<bpm>0</bpm>
<rpm>0.00</rpm>
</extensions>
</trkpt>
<trkpt lat="30.569002151" lon="34.771705627">
<ele>588.578125</ele>
<time>2013-11-23T09:39:24Z</time>
<speed>1.640000</speed>
<extensions>
<speed>1.6</speed>
<temp>0.00</temp>
<bpm>0</bpm>
<rpm>0.00</rpm>
</extensions>
</trkpt>
<trkpt lat="30.569028854" lon="34.771774292">
<ele>589.625000</ele>
<time>2013-11-23T09:39:29Z</time>
<speed>1.110000</speed>
<extensions>
<speed>1.1</speed>
<temp>0.00</temp>
<bpm>0</bpm>
<rpm>0.00</rpm>
</extensions>
</trkpt>
<trkpt lat="30.569059372" lon="34.771835327">
<ele>590.140625</ele>
<time>2013-11-23T09:39:34Z</time>
<speed>1.330000</speed>
<extensions>
<speed>1.3</speed>
<temp>0.00</temp>
<bpm>0</bpm>
<rpm>0.00</rpm>
</extensions>
</trkpt>
<trkpt lat="30.569084167" lon="34.771903992">
<ele>591.343750</ele>
<time>2013-11-23T09:39:39Z</time>
<speed>1.610000</speed>
<extensions>
<speed>1.6</speed>
<temp>0.00</temp>
<bpm>0</bpm>
<rpm>0.00</rpm>
</extensions>
</trkpt>
<trkpt lat="30.569126129" lon="34.771976471">
<ele>591.921875</ele>
<time>2013-11-23T09:39:44Z</time>
<speed>1.680000</speed>
<extensions>
<speed>1.7</speed>
<temp>0.00</temp>
<bpm>0</bpm>
<rpm>0.00</rpm>
</extensions>
</trkpt>
<trkpt lat="30.569166183" lon="34.772056580">
<ele>591.156250</ele>
<time>2013-11-23T09:39:49Z</time>
<speed>1.900000</speed>
<extensions>
<speed>1.9</speed>
<temp>0.00</temp>
<bpm>0</bpm>
<rpm>0.00</rpm>
</extensions>
</trkpt>
<trkpt lat="30.569217682" lon="34.772144318">
<ele>591.671875</ele>
<time>2013-11-23T09:39:54Z</time>
<speed>2.000000</speed>
<extensions>
<speed>2.0</speed>
<temp>0.00</temp>
<bpm>0</bpm>
<rpm>0.00</rpm>
</extensions>
</trkpt>
<trkpt lat="30.569269180" lon="34.772247314">
<ele>592.109375</ele>
<time>2013-11-23T09:39:59Z</time>
<speed>2.590000</speed>
<extensions>
<speed>2.6</speed>
<temp>0.00</temp>
<bpm>0</bpm>
<rpm>0.00</rpm>
</extensions>
</trkpt>
<trkpt lat="30.569314957" lon="34.772380829">
<ele>592.859375</ele>
<time>2013-11-23T09:40:04Z</time>
<speed>2.870000</speed>
<extensions>
<speed>2.9</speed>
<temp>0.00</temp>
<bpm>0</bpm>
<rpm>0.00</rpm>
</extensions>
</trkpt>
<trkpt lat="30.569362640" lon="34.772548676">
<ele>593.890625</ele>
<time>2013-11-23T09:40:09Z</time>
<speed>3.510000</speed>
<extensions>
<speed>3.5</speed>
<temp>0.00</temp>
<bpm>0</bpm>
<rpm>0.00</rpm>
</extensions>
</trkpt>
<trkpt lat="30.569412231" lon="34.772731781">
<ele>593.031250</ele>
<time>2013-11-23T09:40:14Z</time>
<speed>4.120000</speed>
<extensions>
<speed>4.1</speed>
<temp>0.00</temp>
<bpm>0</bpm>
<rpm>0.00</rpm>
</extensions>
</trkpt>
<trkpt lat="30.569450378" lon="34.772926331">
<ele>593.468750</ele>
<time>2013-11-23T09:40:19Z</time>
<speed>3.470000</speed>
<extensions>
<speed>3.5</speed>
<temp>0.00</temp>
<bpm>0</bpm>
<rpm>0.00</rpm>
</extensions>
</trkpt>
<trkpt lat="30.569486618" lon="34.773105621">
<ele>593.890625</ele>
<time>2013-11-23T09:40:24Z</time>
<speed>3.020000</speed>
<extensions>
<speed>3.0</speed>
<temp>0.00</temp>
<bpm>0</bpm>
<rpm>0.00</rpm>
</extensions>
</trkpt>
<trkpt lat="30.569490433" lon="34.773273468">
<ele>592.921875</ele>
<time>2013-11-23T09:40:29Z</time>
<speed>4.210000</speed>
<extensions>
<speed>4.2</speed>
<temp>0.00</temp>
<bpm>0</bpm>
<rpm>0.00</rpm>
</extensions>
</trkpt>
<trkpt lat="30.569513321" lon="34.773483276">
<ele>592.828125</ele>
<time>2013-11-23T09:40:34Z</time>
<speed>3.450000</speed>
<extensions>
<speed>3.5</speed>
<temp>0.00</temp>
<bpm>0</bpm>
<rpm>0.00</rpm>
</extensions>
</trkpt>
<trkpt lat="30.569545746" lon="34.773666382">
<ele>592.390625</ele>
<time>2013-11-23T09:40:39Z</time>
<speed>4.100000</speed>
<extensions>
<speed>4.1</speed>
<temp>0.00</temp>
<bpm>0</bpm>
<rpm>0.00</rpm>
</extensions>
</trkpt>
<trkpt lat="30.569606781" lon="34.773887634">
<ele>592.859375</ele>
<time>2013-11-23T09:40:44Z</time>
<speed>4.090000</speed>
<extensions>
<speed>4.1</speed>
<temp>0.00</temp>
<bpm>0</bpm>
<rpm>0.00</rpm>
</extensions>
</trkpt>
<trkpt lat="30.569627762" lon="34.774074554">
<ele>592.750000</ele>
<time>2013-11-23T09:40:49Z</time>
<speed>3.730000</speed>
<extensions>
<speed>3.7</speed>
<temp>0.00</temp>
<bpm>0</bpm>
<rpm>0.00</rpm>
</extensions>
</trkpt>
<trkpt lat="30.569671631" lon="34.774276733">
<ele>591.312500</ele>
<time>2013-11-23T09:40:54Z</time>
<speed>3.800000</speed>
<extensions>
<speed>3.8</speed>
<temp>0.00</temp>
<bpm>0</bpm>
<rpm>0.00</rpm>
</extensions>
</trkpt>
<trkpt lat="30.569707870" lon="34.774456024">
<ele>590.718750</ele>
<time>2013-11-23T09:40:59Z</time>
<speed>3.920000</speed>
<extensions>
<speed>3.9</speed>
<temp>0.00</temp>
<bpm>0</bpm>
<rpm>0.00</rpm>
</extensions>
</trkpt>
<trkpt lat="30.569747925" lon="34.774681091">
<ele>590.562500</ele>
<time>2013-11-23T09:41:04Z</time>
<speed>4.580000</speed>
<extensions>
<speed>4.6</speed>
<temp>0.00</temp>
<bpm>0</bpm>
<rpm>0.00</rpm>
</extensions>
</trkpt>
<trkpt lat="30.569778442" lon="34.774906158">
<ele>591.015625</ele>
<time>2013-11-23T09:41:09Z</time>
<speed>3.810000</speed>
<extensions>
<speed>3.8</speed>
<temp>0.00</temp>
<bpm>0</bpm>
<rpm>0.00</rpm>
</extensions>
</trkpt>
<trkpt lat="30.569803238" lon="34.775089264">
<ele>591.281250</ele>
<time>2013-11-23T09:41:14Z</time>
<speed>3.610000</speed>
<extensions>
<speed>3.6</speed>
<temp>0.00</temp>
<bpm>0</bpm>
<rpm>0.00</rpm>
</extensions>
</trkpt>
<trkpt lat="30.569820404" lon="34.775291443">
<ele>590.703125</ele>
<time>2013-11-23T09:41:19Z</time>
<speed>4.360000</speed>
<extensions>
<speed>4.4</speed>
<temp>0.00</temp>
<bpm>0</bpm>
<rpm>0.00</rpm>
</extensions>
</trkpt>
<trkpt lat="30.569818497" lon="34.775505066">
<ele>590.546875</ele>
<time>2013-11-23T09:41:24Z</time>
<speed>4.040000</speed>
<extensions>
<speed>4.0</speed>
<temp>0.00</temp>
<bpm>0</bpm>
<rpm>0.00</rpm>
</extensions>
</trkpt>
<trkpt lat="30.569801331" lon="34.775726318">
<ele>589.328125</ele>
<time>2013-11-23T09:41:29Z</time>
<speed>3.930000</speed>
<extensions>
<speed>3.9</speed>
<temp>0.00</temp>
<bpm>0</bpm>
<rpm>0.00</rpm>
</extensions>
</trkpt>
<trkpt lat="30.569793701" lon="34.775924683">
<ele>589.625000</ele>
<time>2013-11-23T09:41:34Z</time>
<speed>3.880000</speed>
<extensions>
<speed>3.9</speed>
<temp>0.00</temp>
<bpm>0</bpm>
<rpm>0.00</rpm>
</extensions>
</trkpt>
<trkpt lat="30.569782257" lon="34.776142120">
<ele>590.062500</ele>
<time>2013-11-23T09:41:39Z</time>
<speed>4.110000</speed>
<extensions>
<speed>4.1</speed>
<temp>0.00</temp>
<bpm>0</bpm>
<rpm>0.00</rpm>
</extensions>
</trkpt>
<trkpt lat="30.569765091" lon="34.776355743">
<ele>589.515625</ele>
<time>2013-11-23T09:41:44Z</time>
<speed>4.170000</speed>
<extensions>
<speed>4.2</speed>
<temp>0.00</temp>
<bpm>0</bpm>
<rpm>0.00</rpm>
</extensions>
</trkpt>
<trkpt lat="30.569755554" lon="34.776576996">
<ele>589.312500</ele>
<time>2013-11-23T09:41:49Z</time>
<speed>4.510000</speed>
<extensions>
<speed>4.5</speed>
<temp>0.00</temp>
<bpm>0</bpm>
<rpm>0.00</rpm>
</extensions>
</trkpt>
<trkpt lat="30.569717407" lon="34.776794434">
<ele>588.062500</ele>
<time>2013-11-23T09:41:54Z</time>
<speed>3.970000</speed>
<extensions>
<speed>4.0</speed>
<temp>0.00</temp>
<bpm>0</bpm>
<rpm>0.00</rpm>
</extensions>
</trkpt>
<trkpt lat="30.569705963" lon="34.777000427">
<ele>586.875000</ele>
<time>2013-11-23T09:41:59Z</time>
<speed>4.220000</speed>
<extensions>
<speed>4.2</speed>
<temp>0.00</temp>
<bpm>0</bpm>
<rpm>0.00</rpm>
</extensions>
</trkpt>
<trkpt lat="30.569721222" lon="34.777248383">
<ele>586.515625</ele>
<time>2013-11-23T09:42:04Z</time>
<speed>4.570000</speed>
<extensions>
<speed>4.6</speed>
<temp>0.00</temp>
<bpm>0</bpm>
<rpm>0.00</rpm>
</extensions>
</trkpt>
<trkpt lat="30.569732666" lon="34.777492523">
<ele>585.593750</ele>
<time>2013-11-23T09:42:09Z</time>
<speed>5.100000</speed>
<extensions>
<speed>5.1</speed>
<temp>0.00</temp>
<bpm>0</bpm>
<rpm>0.00</rpm>
</extensions>
</trkpt>
<trkpt lat="30.569776535" lon="34.777763367">
<ele>584.468750</ele>
<time>2013-11-23T09:42:14Z</time>
<speed>5.560000</speed>
<extensions>
<speed>5.6</speed>
<temp>0.00</temp>
<bpm>0</bpm>
<rpm>0.00</rpm>
</extensions>
</trkpt>
<trkpt lat="30.569839478" lon="34.777980804">
<ele>586.562500</ele>
<time>2013-11-23T09:42:19Z</time>
<speed>2.420000</speed>
<extensions>
<speed>2.4</speed>
<temp>0.00</temp>
<bpm>0</bpm>
<rpm>0.00</rpm>
</extensions>
</trkpt>
<trkpt lat="30.569898605" lon="34.778079987">
<ele>587.359375</ele>
<time>2013-11-23T09:42:24Z</time>
<speed>2.860000</speed>
<extensions>
<speed>2.9</speed>
<temp>0.00</temp>
<bpm>0</bpm>
<rpm>0.00</rpm>
</extensions>
</trkpt>
<trkpt lat="30.569948196" lon="34.778232574">
<ele>587.640625</ele>
<time>2013-11-23T09:42:29Z</time>
<speed>3.070000</speed>
<extensions>
<speed>3.1</speed>
<temp>0.00</temp>
<bpm>0</bpm>
<rpm>0.00</rpm>
</extensions>
</trkpt>
<trkpt lat="30.569982529" lon="34.778396606">
<ele>586.953125</ele>
<time>2013-11-23T09:42:34Z</time>
<speed>3.510000</speed>
<extensions>
<speed>3.5</speed>
<temp>0.00</temp>
<bpm>0</bpm>
<rpm>0.00</rpm>
</extensions>
</trkpt>
<trkpt lat="30.570016861" lon="34.778572083">
<ele>586.843750</ele>
<time>2013-11-23T09:42:39Z</time>
<speed>3.550000</speed>
<extensions>
<speed>3.5</speed>
<temp>0.00</temp>
<bpm>0</bpm>
<rpm>0.00</rpm>
</extensions>
</trkpt>
<trkpt lat="30.570056915" lon="34.778774261">
<ele>585.593750</ele>
<time>2013-11-23T09:42:44Z</time>
<speed>4.690000</speed>
<extensions>
<speed>4.7</speed>
<temp>0.00</temp>
<bpm>0</bpm>
<rpm>0.00</rpm>
</extensions>
</trkpt>
<trkpt lat="30.570102692" lon="34.778999329">
<ele>584.765625</ele>
<time>2013-11-23T09:42:49Z</time>
<speed>4.160000</speed>
<extensions>
<speed>4.2</speed>
<temp>0.00</temp>
<bpm>0</bpm>
<rpm>0.00</rpm>
</extensions>
</trkpt>
<trkpt lat="30.570117950" lon="34.779190063">
<ele>584.437500</ele>
<time>2013-11-23T09:42:54Z</time>
<speed>3.790000</speed>
<extensions>
<speed>3.8</speed>
<temp>0.00</temp>
<bpm>0</bpm>
<rpm>0.00</rpm>
</extensions>
</trkpt>
<trkpt lat="30.570156097" lon="34.779399872">
<ele>584.265625</ele>
<time>2013-11-23T09:42:59Z</time>
<speed>4.310000</speed>
<extensions>
<speed>4.3</speed>
<temp>0.00</temp>
<bpm>0</bpm>
<rpm>0.00</rpm>
</extensions>
</trkpt>
<trkpt lat="30.570236206" lon="34.779613495">
<ele>583.562500</ele>
<time>2013-11-23T09:43:04Z</time>
<speed>3.980000</speed>
<extensions>
<speed>4.0</speed>
<temp>0.00</temp>
<bpm>0</bpm>
<rpm>0.00</rpm>
</extensions>
</trkpt>
<trkpt lat="30.570308685" lon="34.779773712">
<ele>583.750000</ele>
<time>2013-11-23T09:43:09Z</time>
<speed>3.170000</speed>
<extensions>
<speed>3.2</speed>
<temp>0.00</temp>
<bpm>0</bpm>
<rpm>0.00</rpm>
</extensions>
</trkpt>
<trkpt lat="30.570392609" lon="34.779937744">
<ele>584.671875</ele>
<time>2013-11-23T09:43:14Z</time>
<speed>3.520000</speed>
<extensions>
<speed>3.5</speed>
<temp>0.00</temp>
<bpm>0</bpm>
<rpm>0.00</rpm>
</extensions>
</trkpt>
<trkpt lat="30.570478439" lon="34.780097961">
<ele>585.468750</ele>
<time>2013-11-23T09:43:19Z</time>
<speed>3.690000</speed>
<extensions>
<speed>3.7</speed>
<temp>0.00</temp>
<bpm>0</bpm>
<rpm>0.00</rpm>
</extensions>
</trkpt>
<trkpt lat="30.570562363" lon="34.780242920">
<ele>585.703125</ele>
<time>2013-11-23T09:43:24Z</time>
<speed>3.580000</speed>
<extensions>
<speed>3.6</speed>
<temp>0.00</temp>
<bpm>0</bpm>
<rpm>0.00</rpm>
</extensions>
</trkpt>
<trkpt lat="30.570667267" lon="34.780403137">
<ele>585.671875</ele>
<time>2013-11-23T09:43:29Z</time>
<speed>3.950000</speed>
<extensions>
<speed>4.0</speed>
<temp>0.00</temp>
<bpm>0</bpm>
<rpm>0.00</rpm>
</extensions>
</trkpt>
<trkpt lat="30.570770264" lon="34.780582428">
<ele>585.546875</ele>
<time>2013-11-23T09:43:34Z</time>
<speed>4.130000</speed>
<extensions>
<speed>4.1</speed>
<temp>0.00</temp>
<bpm>0</bpm>
<rpm>0.00</rpm>
</extensions>
</trkpt>
<trkpt lat="30.570863724" lon="34.780754089">
<ele>585.359375</ele>
<time>2013-11-23T09:43:39Z</time>
<speed>3.320000</speed>
<extensions>
<speed>3.3</speed>
<temp>0.00</temp>
<bpm>0</bpm>
<rpm>0.00</rpm>
</extensions>
</trkpt>
<trkpt lat="30.570936203" lon="34.780906677">
<ele>584.953125</ele>
<time>2013-11-23T09:43:44Z</time>
<speed>3.130000</speed>
<extensions>
<speed>3.1</speed>
<temp>0.00</temp>
<bpm>0</bpm>
<rpm>0.00</rpm>
</extensions>
</trkpt>
<trkpt lat="30.571004868" lon="34.781040192">
<ele>584.953125</ele>
<time>2013-11-23T09:43:49Z</time>
<speed>3.820000</speed>
<extensions>
<speed>3.8</speed>
<temp>0.00</temp>
<bpm>0</bpm>
<rpm>0.00</rpm>
</extensions>
</trkpt>
<trkpt lat="30.571155548" lon="34.781215668">
<ele>583.171875</ele>
<time>2013-11-23T09:43:54Z</time>
<speed>4.260000</speed>
<extensions>
<speed>4.3</speed>
<temp>0.00</temp>
<bpm>0</bpm>
<rpm>0.00</rpm>
</extensions>
</trkpt>
<trkpt lat="30.571189880" lon="34.781398773">
<ele>582.718750</ele>
<time>2013-11-23T09:43:59Z</time>
<speed>3.510000</speed>
<extensions>
<speed>3.5</speed>
<temp>0.00</temp>
<bpm>0</bpm>
<rpm>0.00</rpm>
</extensions>
</trkpt>
<trkpt lat="30.571132660" lon="34.781566620">
<ele>580.984375</ele>
<time>2013-11-23T09:44:04Z</time>
<speed>2.390000</speed>
<extensions>
<speed>2.4</speed>
<temp>0.00</temp>
<bpm>0</bpm>
<rpm>0.00</rpm>
</extensions>
</trkpt>
<trkpt lat="30.571113586" lon="34.781600952">
<ele>580.593750</ele>
<time>2013-11-23T09:44:09Z</time>
<speed>0.840000</speed>
<extensions>
<speed>0.8</speed>
<temp>0.00</temp>
<bpm>0</bpm>
<rpm>0.00</rpm>
</extensions>
</trkpt>
<trkpt lat="30.571096420" lon="34.781639099">
<ele>581.718750</ele>
<time>2013-11-23T09:44:14Z</time>
<speed>0.720000</speed>
<extensions>
<speed>0.7</speed>
<temp>0.00</temp>
<bpm>0</bpm>
<rpm>0.00</rpm>
</extensions>
</trkpt>
<trkpt lat="30.571092606" lon="34.781650543">
<ele>582.015625</ele>
<time>2013-11-23T09:44:19Z</time>
<speed>0.080000</speed>
<extensions>
<speed>0.1</speed>
<temp>0.00</temp>
<bpm>0</bpm>
<rpm>0.00</rpm>
</extensions>
</trkpt>
<trkpt lat="30.571094513" lon="34.781661987">
<ele>582.390625</ele>
<time>2013-11-23T09:44:24Z</time>
<speed>1.040000</speed>
<extensions>
<speed>1.0</speed>
<temp>0.00</temp>
<bpm>0</bpm>
<rpm>0.00</rpm>
</extensions>
</trkpt>
<trkpt lat="30.571121216" lon="34.781761169">
<ele>582.546875</ele>
<time>2013-11-23T09:44:29Z</time>
<speed>2.300000</speed>
<extensions>
<speed>2.3</speed>
<temp>0.00</temp>
<bpm>0</bpm>
<rpm>0.00</rpm>
</extensions>
</trkpt>
<trkpt lat="30.571149826" lon="34.781898499">
<ele>582.343750</ele>
<time>2013-11-23T09:44:34Z</time>
<speed>2.870000</speed>
<extensions>
<speed>2.9</speed>
<temp>0.00</temp>
<bpm>0</bpm>
<rpm>0.00</rpm>
</extensions>
</trkpt>
<trkpt lat="30.571172714" lon="34.782043457">
<ele>582.359375</ele>
<time>2013-11-23T09:44:39Z</time>
<speed>2.790000</speed>
<extensions>
<speed>2.8</speed>
<temp>0.00</temp>
<bpm>0</bpm>
<rpm>0.00</rpm>
</extensions>
</trkpt>
<trkpt lat="30.571208954" lon="34.782188416">
<ele>582.375000</ele>
<time>2013-11-23T09:44:44Z</time>
<speed>2.360000</speed>
<extensions>
<speed>2.4</speed>
<temp>0.00</temp>
<bpm>0</bpm>
<rpm>0.00</rpm>
</extensions>
</trkpt>
<trkpt lat="30.571256638" lon="34.782314301">
<ele>582.765625</ele>
<time>2013-11-23T09:44:49Z</time>
<speed>3.320000</speed>
<extensions>
<speed>3.3</speed>
<temp>0.00</temp>
<bpm>0</bpm>
<rpm>0.00</rpm>
</extensions>
</trkpt>
<trkpt lat="30.571338654" lon="34.782451630">
<ele>583.203125</ele>
<time>2013-11-23T09:44:54Z</time>
<speed>2.970000</speed>
<extensions>
<speed>3.0</speed>
<temp>0.00</temp>
<bpm>0</bpm>
<rpm>0.00</rpm>
</extensions>
</trkpt>
<trkpt lat="30.571430206" lon="34.782585144">
<ele>583.062500</ele>
<time>2013-11-23T09:44:59Z</time>
<speed>3.630000</speed>
<extensions>
<speed>3.6</speed>
<temp>0.00</temp>
<bpm>0</bpm>
<rpm>0.00</rpm>
</extensions>
</trkpt>
<trkpt lat="30.571556091" lon="34.782772064">
<ele>582.734375</ele>
<time>2013-11-23T09:45:04Z</time>
<speed>5.040000</speed>
<extensions>
<speed>5.0</speed>
<temp>0.00</temp>
<bpm>0</bpm>
<rpm>0.00</rpm>
</extensions>
</trkpt>
<trkpt lat="30.571746826" lon="34.782939911">
<ele>582.640625</ele>
<time>2013-11-23T09:45:09Z</time>
<speed>5.340000</speed>
<extensions>
<speed>5.3</speed>
<temp>0.00</temp>
<bpm>0</bpm>
<rpm>0.00</rpm>
</extensions>
</trkpt>
<trkpt lat="30.571908951" lon="34.783126831">
<ele>581.015625</ele>
<time>2013-11-23T09:45:14Z</time>
<speed>4.160000</speed>
<extensions>
<speed>4.2</speed>
<temp>0.00</temp>
<bpm>0</bpm>
<rpm>0.00</rpm>
</extensions>
</trkpt>
<trkpt lat="30.572013855" lon="34.783271790">
<ele>580.234375</ele>
<time>2013-11-23T09:45:19Z</time>
<speed>3.730000</speed>
<extensions>
<speed>3.7</speed>
<temp>0.00</temp>
<bpm>0</bpm>
<rpm>0.00</rpm>
</extensions>
</trkpt>
<trkpt lat="30.572084427" lon="34.783416748">
<ele>580.218750</ele>
<time>2013-11-23T09:45:24Z</time>
<speed>3.230000</speed>
<extensions>
<speed>3.2</speed>
<temp>0.00</temp>
<bpm>0</bpm>
<rpm>0.00</rpm>
</extensions>
</trkpt>
<trkpt lat="30.572162628" lon="34.783531189">
<ele>580.328125</ele>
<time>2013-11-23T09:45:29Z</time>
<speed>2.760000</speed>
<extensions>
<speed>2.8</speed>
<temp>0.00</temp>
<bpm>0</bpm>
<rpm>0.00</rpm>
</extensions>
</trkpt>
<trkpt lat="30.572235107" lon="34.783641815">
<ele>580.093750</ele>
<time>2013-11-23T09:45:34Z</time>
<speed>3.310000</speed>
<extensions>
<speed>3.3</speed>
<temp>0.00</temp>
<bpm>0</bpm>
<rpm>0.00</rpm>
</extensions>
</trkpt>
<trkpt lat="30.572271347" lon="34.783817291">
<ele>581.140625</ele>
<time>2013-11-23T09:45:39Z</time>
<speed>3.850000</speed>
<extensions>
<speed>3.8</speed>
<temp>0.00</temp>
<bpm>0</bpm>
<rpm>0.00</rpm>
</extensions>
</trkpt>
<trkpt lat="30.572305679" lon="34.784011841">
<ele>580.937500</ele>
<time>2013-11-23T09:45:44Z</time>
<speed>3.480000</speed>
<extensions>
<speed>3.5</speed>
<temp>0.00</temp>
<bpm>0</bpm>
<rpm>0.00</rpm>
</extensions>
</trkpt>
<trkpt lat="30.572366714" lon="34.784152985">
<ele>580.218750</ele>
<time>2013-11-23T09:45:49Z</time>
<speed>2.800000</speed>
<extensions>
<speed>2.8</speed>
<temp>0.00</temp>
<bpm>0</bpm>
<rpm>0.00</rpm>
</extensions>
</trkpt>
<trkpt lat="30.572433472" lon="34.784267426">
<ele>581.234375</ele>
<time>2013-11-23T09:45:54Z</time>
<speed>2.670000</speed>
<extensions>
<speed>2.7</speed>
<temp>0.00</temp>
<bpm>0</bpm>
<rpm>0.00</rpm>
</extensions>
</trkpt>
<trkpt lat="30.572465897" lon="34.784397125">
<ele>581.765625</ele>
<time>2013-11-23T09:45:59Z</time>
<speed>2.990000</speed>
<extensions>
<speed>3.0</speed>
<temp>0.00</temp>
<bpm>0</bpm>
<rpm>0.00</rpm>
</extensions>
</trkpt>
<trkpt lat="30.572505951" lon="34.784523010">
<ele>581.703125</ele>
<time>2013-11-23T09:46:04Z</time>
<speed>2.320000</speed>
<extensions>
<speed>2.3</speed>
<temp>0.00</temp>
<bpm>0</bpm>
<rpm>0.00</rpm>
</extensions>
</trkpt>
<trkpt lat="30.572511673" lon="34.784553528">
<ele>581.328125</ele>
<time>2013-11-23T09:46:09Z</time>
<speed>0.010000</speed>
<extensions>
<speed>0.0</speed>
<temp>0.00</temp>
<bpm>0</bpm>
<rpm>0.00</rpm>
</extensions>
</trkpt>
<trkpt lat="30.572511673" lon="34.784553528">
<ele>581.265625</ele>
<time>2013-11-23T09:46:14Z</time>
<speed>0.020000</speed>
<extensions>
<speed>0.0</speed>
<temp>0.00</temp>
<bpm>0</bpm>
<rpm>0.00</rpm>
</extensions>
</trkpt>
<trkpt lat="30.572511673" lon="34.784549713">
<ele>581.296875</ele>
<time>2013-11-23T09:46:19Z</time>
<speed>0.010000</speed>
<extensions>
<speed>0.0</speed>
<temp>0.00</temp>
<bpm>0</bpm>
<rpm>0.00</rpm>
</extensions>
</trkpt>
<trkpt lat="30.572511673" lon="34.784549713">
<ele>581.312500</ele>
<time>2013-11-23T09:46:24Z</time>
<speed>0.030000</speed>
<extensions>
<speed>0.0</speed>
<temp>0.00</temp>
<bpm>0</bpm>
<rpm>0.00</rpm>
</extensions>
</trkpt>
<trkpt lat="30.572513580" lon="34.784561157">
<ele>581.375000</ele>
<time>2013-11-23T09:46:29Z</time>
<speed>1.480000</speed>
<extensions>
<speed>1.5</speed>
<temp>0.00</temp>
<bpm>0</bpm>
<rpm>0.00</rpm>
</extensions>
</trkpt>
<trkpt lat="30.572544098" lon="34.784675598">
<ele>581.546875</ele>
<time>2013-11-23T09:46:34Z</time>
<speed>2.720000</speed>
<extensions>
<speed>2.7</speed>
<temp>0.00</temp>
<bpm>0</bpm>
<rpm>0.00</rpm>
</extensions>
</trkpt>
<trkpt lat="30.572595596" lon="34.784816742">
<ele>581.171875</ele>
<time>2013-11-23T09:46:39Z</time>
<speed>2.960000</speed>
<extensions>
<speed>3.0</speed>
<temp>0.00</temp>
<bpm>0</bpm>
<rpm>0.00</rpm>
</extensions>
</trkpt>
<trkpt lat="30.572704315" lon="34.784973145">
<ele>581.796875</ele>
<time>2013-11-23T09:46:44Z</time>
<speed>3.550000</speed>
<extensions>
<speed>3.5</speed>
<temp>0.00</temp>
<bpm>0</bpm>
<rpm>0.00</rpm>
</extensions>
</trkpt>
<trkpt lat="30.572788239" lon="34.785156250">
<ele>582.015625</ele>
<time>2013-11-23T09:46:49Z</time>
<speed>4.240000</speed>
<extensions>
<speed>4.2</speed>
<temp>0.00</temp>
<bpm>0</bpm>
<rpm>0.00</rpm>
</extensions>
</trkpt>
<trkpt lat="30.572885513" lon="34.785339355">
<ele>583.312500</ele>
<time>2013-11-23T09:46:54Z</time>
<speed>3.420000</speed>
<extensions>
<speed>3.4</speed>
<temp>0.00</temp>
<bpm>0</bpm>
<rpm>0.00</rpm>
</extensions>
</trkpt>
<trkpt lat="30.572963715" lon="34.785499573">
<ele>583.343750</ele>
<time>2013-11-23T09:46:59Z</time>
<speed>3.870000</speed>
<extensions>
<speed>3.9</speed>
<temp>0.00</temp>
<bpm>0</bpm>
<rpm>0.00</rpm>
</extensions>
</trkpt>
<trkpt lat="30.573038101" lon="34.785697937">
<ele>582.984375</ele>
<time>2013-11-23T09:47:04Z</time>
<speed>4.160000</speed>
<extensions>
<speed>4.2</speed>
<temp>0.00</temp>
<bpm>0</bpm>
<rpm>0.00</rpm>
</extensions>
</trkpt>
<trkpt lat="30.573095322" lon="34.785888672">
<ele>582.046875</ele>
<time>2013-11-23T09:47:09Z</time>
<speed>4.090000</speed>
<extensions>
<speed>4.1</speed>
<temp>0.00</temp>
<bpm>0</bpm>
<rpm>0.00</rpm>
</extensions>
</trkpt>
<trkpt lat="30.573276520" lon="34.786041260">
<ele>580.781250</ele>
<time>2013-11-23T09:47:14Z</time>
<speed>4.900000</speed>
<extensions>
<speed>4.9</speed>
<temp>0.00</temp>
<bpm>0</bpm>
<rpm>0.00</rpm>
</extensions>
</trkpt>
<trkpt lat="30.573423386" lon="34.786163330">
<ele>581.578125</ele>
<time>2013-11-23T09:47:19Z</time>
<speed>4.000000</speed>
<extensions>
<speed>4.0</speed>
<temp>0.00</temp>
<bpm>0</bpm>
<rpm>0.00</rpm>
</extensions>
</trkpt>
<trkpt lat="30.573560715" lon="34.786334991">
<ele>582.578125</ele>
<time>2013-11-23T09:47:24Z</time>
<speed>4.700000</speed>
<extensions>
<speed>4.7</speed>
<temp>0.00</temp>
<bpm>0</bpm>
<rpm>0.00</rpm>
</extensions>
</trkpt>
<trkpt lat="30.573663712" lon="34.786552429">
<ele>583.156250</ele>
<time>2013-11-23T09:47:29Z</time>
<speed>4.720000</speed>
<extensions>
<speed>4.7</speed>
<temp>0.00</temp>
<bpm>0</bpm>
<rpm>0.00</rpm>
</extensions>
</trkpt>
<trkpt lat="30.573720932" lon="34.786754608">
<ele>584.156250</ele>
<time>2013-11-23T09:47:34Z</time>
<speed>3.180000</speed>
<extensions>
<speed>3.2</speed>
<temp>0.00</temp>
<bpm>0</bpm>
<rpm>0.00</rpm>
</extensions>
</trkpt>
<trkpt lat="30.573762894" lon="34.786903381">
<ele>584.906250</ele>
<time>2013-11-23T09:47:39Z</time>
<speed>2.970000</speed>
<extensions>
<speed>3.0</speed>
<temp>0.00</temp>
<bpm>0</bpm>
<rpm>0.00</rpm>
</extensions>
</trkpt>
<trkpt lat="30.573823929" lon="34.787044525">
<ele>583.828125</ele>
<time>2013-11-23T09:47:44Z</time>
<speed>3.260000</speed>
<extensions>
<speed>3.3</speed>
<temp>0.00</temp>
<bpm>0</bpm>
<rpm>0.00</rpm>
</extensions>
</trkpt>
<trkpt lat="30.573915482" lon="34.787185669">
<ele>582.750000</ele>
<time>2013-11-23T09:47:49Z</time>
<speed>4.150000</speed>
<extensions>
<speed>4.1</speed>
<temp>0.00</temp>
<bpm>0</bpm>
<rpm>0.00</rpm>
</extensions>
</trkpt>
<trkpt lat="30.574083328" lon="34.787384033">
<ele>580.703125</ele>
<time>2013-11-23T09:47:54Z</time>
<speed>6.040000</speed>
<extensions>
<speed>6.0</speed>
<temp>0.00</temp>
<bpm>0</bpm>
<rpm>0.00</rpm>
</extensions>
</trkpt>
<trkpt lat="30.574224472" lon="34.787567139">
<ele>579.843750</ele>
<time>2013-11-23T09:47:59Z</time>
<speed>3.840000</speed>
<extensions>
<speed>3.8</speed>
<temp>0.00</temp>
<bpm>0</bpm>
<rpm>0.00</rpm>
</extensions>
</trkpt>
<trkpt lat="30.574256897" lon="34.787750244">
<ele>577.437500</ele>
<time>2013-11-23T09:48:04Z</time>
<speed>2.860000</speed>
<extensions>
<speed>2.9</speed>
<temp>0.00</temp>
<bpm>0</bpm>
<rpm>0.00</rpm>
</extensions>
</trkpt>
<trkpt lat="30.574199677" lon="34.787940979">
<ele>574.281250</ele>
<time>2013-11-23T09:48:09Z</time>
<speed>5.380000</speed>
<extensions>
<speed>5.4</speed>
<temp>0.00</temp>
<bpm>0</bpm>
<rpm>0.00</rpm>
</extensions>
</trkpt>
<trkpt lat="30.574125290" lon="34.788219452">
<ele>572.656250</ele>
<time>2013-11-23T09:48:14Z</time>
<speed>5.280000</speed>
<extensions>
<speed>5.3</speed>
<temp>0.00</temp>
<bpm>0</bpm>
<rpm>0.00</rpm>
</extensions>
</trkpt>
<trkpt lat="30.574230194" lon="34.788341522">
<ele>572.250000</ele>
<time>2013-11-23T09:48:19Z</time>
<speed>3.490000</speed>
<extensions>
<speed>3.5</speed>
<temp>0.00</temp>
<bpm>0</bpm>
<rpm>0.00</rpm>
</extensions>
</trkpt>
<trkpt lat="30.574384689" lon="34.788402557">
<ele>572.968750</ele>
<time>2013-11-23T09:48:24Z</time>
<speed>3.650000</speed>
<extensions>
<speed>3.7</speed>
<temp>0.00</temp>
<bpm>0</bpm>
<rpm>0.00</rpm>
</extensions>
</trkpt>
<trkpt lat="30.574539185" lon="34.788433075">
<ele>573.140625</ele>
<time>2013-11-23T09:48:29Z</time>
<speed>3.460000</speed>
<extensions>
<speed>3.5</speed>
<temp>0.00</temp>
<bpm>0</bpm>
<rpm>0.00</rpm>
</extensions>
</trkpt>
<trkpt lat="30.574705124" lon="34.788482666">
<ele>573.718750</ele>
<time>2013-11-23T09:48:34Z</time>
<speed>3.820000</speed>
<extensions>
<speed>3.8</speed>
<temp>0.00</temp>
<bpm>0</bpm>
<rpm>0.00</rpm>
</extensions>
</trkpt>
<trkpt lat="30.574840546" lon="34.788528442">
<ele>573.453125</ele>
<time>2013-11-23T09:48:39Z</time>
<speed>2.560000</speed>
<extensions>
<speed>2.6</speed>
<temp>0.00</temp>
<bpm>0</bpm>
<rpm>0.00</rpm>
</extensions>
</trkpt>
<trkpt lat="30.574958801" lon="34.788558960">
<ele>573.515625</ele>
<time>2013-11-23T09:48:44Z</time>
<speed>2.080000</speed>
<extensions>
<speed>2.1</speed>
<temp>0.00</temp>
<bpm>0</bpm>
<rpm>0.00</rpm>
</extensions>
</trkpt>
<trkpt lat="30.574989319" lon="34.788581848">
<ele>574.140625</ele>
<time>2013-11-23T09:48:49Z</time>
<speed>0.120000</speed>
<extensions>
<speed>0.1</speed>
<temp>0.00</temp>
<bpm>0</bpm>
<rpm>0.00</rpm>
</extensions>
</trkpt>
<trkpt lat="30.574985504" lon="34.788581848">
<ele>574.453125</ele>
<time>2013-11-23T09:48:54Z</time>
<speed>0.020000</speed>
<extensions>
<speed>0.0</speed>
<temp>0.00</temp>
<bpm>0</bpm>
<rpm>0.00</rpm>
</extensions>
</trkpt>
<trkpt lat="30.574985504" lon="34.788581848">
<ele>574.500000</ele>
<time>2013-11-23T09:48:59Z</time>
<speed>0.040000</speed>
<extensions>
<speed>0.0</speed>
<temp>0.00</temp>
<bpm>0</bpm>
<rpm>0.00</rpm>
</extensions>
</trkpt>
<trkpt lat="30.574985504" lon="34.788578033">
<ele>574.500000</ele>
<time>2013-11-23T09:49:04Z</time>
<speed>0.070000</speed>
<extensions>
<speed>0.1</speed>
<temp>0.00</temp>
<bpm>0</bpm>
<rpm>0.00</rpm>
</extensions>
</trkpt>
<trkpt lat="30.574987411" lon="34.788574219">
<ele>574.234375</ele>
<time>2013-11-23T09:49:09Z</time>
<speed>0.010000</speed>
<extensions>
<speed>0.0</speed>
<temp>0.00</temp>
<bpm>0</bpm>
<rpm>0.00</rpm>
</extensions>
</trkpt>
<trkpt lat="30.574987411" lon="34.788574219">
<ele>574.031250</ele>
<time>2013-11-23T09:49:14Z</time>
<speed>0.010000</speed>
<extensions>
<speed>0.0</speed>
<temp>0.00</temp>
<bpm>0</bpm>
<rpm>0.00</rpm>
</extensions>
</trkpt>
<trkpt lat="30.574985504" lon="34.788574219">
<ele>573.859375</ele>
<time>2013-11-23T09:49:19Z</time>
<speed>0.010000</speed>
<extensions>
<speed>0.0</speed>
<temp>0.00</temp>
<bpm>0</bpm>
<rpm>0.00</rpm>
</extensions>
</trkpt>
<trkpt lat="30.574985504" lon="34.788574219">
<ele>573.718750</ele>
<time>2013-11-23T09:49:24Z</time>
<extensions>
<speed>0.0</speed>
<temp>0.00</temp>
<bpm>0</bpm>
<rpm>0.00</rpm>
</extensions>
</trkpt>
<trkpt lat="30.574985504" lon="34.788574219">
<ele>573.671875</ele>
<time>2013-11-23T09:49:29Z</time>
<extensions>
<speed>0.0</speed>
<temp>0.00</temp>
<bpm>0</bpm>
<rpm>0.00</rpm>
</extensions>
</trkpt>
<trkpt lat="30.574985504" lon="34.788574219">
<ele>573.640625</ele>
<time>2013-11-23T09:49:34Z</time>
<extensions>
<speed>0.0</speed>
<temp>0.00</temp>
<bpm>0</bpm>
<rpm>0.00</rpm>
</extensions>
</trkpt>
<trkpt lat="30.574985504" lon="34.788574219">
<ele>573.593750</ele>
<time>2013-11-23T09:49:39Z</time>
<extensions>
<speed>0.0</speed>
<temp>0.00</temp>
<bpm>0</bpm>
<rpm>0.00</rpm>
</extensions>
</trkpt>
<trkpt lat="30.574985504" lon="34.788570404">
<ele>573.546875</ele>
<time>2013-11-23T09:49:44Z</time>
<extensions>
<speed>0.0</speed>
<temp>0.00</temp>
<bpm>0</bpm>
<rpm>0.00</rpm>
</extensions>
</trkpt>
<trkpt lat="30.574985504" lon="34.788570404">
<ele>573.500000</ele>
<time>2013-11-23T09:49:49Z</time>
<extensions>
<speed>0.0</speed>
<temp>0.00</temp>
<bpm>0</bpm>
<rpm>0.00</rpm>
</extensions>
</trkpt>
<trkpt lat="30.574985504" lon="34.788574219">
<ele>573.453125</ele>
<time>2013-11-23T09:49:54Z</time>
<extensions>
<speed>0.0</speed>
<temp>0.00</temp>
<bpm>0</bpm>
<rpm>0.00</rpm>
</extensions>
</trkpt>
<trkpt lat="30.574985504" lon="34.788570404">
<ele>573.421875</ele>
<time>2013-11-23T09:49:59Z</time>
<extensions>
<speed>0.0</speed>
<temp>0.00</temp>
<bpm>0</bpm>
<rpm>0.00</rpm>
</extensions>
</trkpt>
<trkpt lat="30.574983597" lon="34.788574219">
<ele>573.375000</ele>
<time>2013-11-23T09:50:04Z</time>
<extensions>
<speed>0.0</speed>
<temp>0.00</temp>
<bpm>0</bpm>
<rpm>0.00</rpm>
</extensions>
</trkpt>
<trkpt lat="30.574983597" lon="34.788570404">
<ele>573.343750</ele>
<time>2013-11-23T09:50:09Z</time>
<extensions>
<speed>0.0</speed>
<temp>0.00</temp>
<bpm>0</bpm>
<rpm>0.00</rpm>
</extensions>
</trkpt>
<trkpt lat="30.574983597" lon="34.788570404">
<ele>573.312500</ele>
<time>2013-11-23T09:50:14Z</time>
<extensions>
<speed>0.0</speed>
<temp>0.00</temp>
<bpm>0</bpm>
<rpm>0.00</rpm>
</extensions>
</trkpt>
<trkpt lat="30.574983597" lon="34.788570404">
<ele>573.265625</ele>
<time>2013-11-23T09:50:19Z</time>
<extensions>
<speed>0.0</speed>
<temp>0.00</temp>
<bpm>0</bpm>
<rpm>0.00</rpm>
</extensions>
</trkpt>
<trkpt lat="30.574983597" lon="34.788570404">
<ele>573.234375</ele>
<time>2013-11-23T09:50:24Z</time>
<extensions>
<speed>0.0</speed>
<temp>0.00</temp>
<bpm>0</bpm>
<rpm>0.00</rpm>
</extensions>
</trkpt>
<trkpt lat="30.574983597" lon="34.788570404">
<ele>573.187500</ele>
<time>2013-11-23T09:50:29Z</time>
<extensions>
<speed>0.0</speed>
<temp>0.00</temp>
<bpm>0</bpm>
<rpm>0.00</rpm>
</extensions>
</trkpt>
<trkpt lat="30.574983597" lon="34.788570404">
<ele>573.156250</ele>
<time>2013-11-23T09:50:34Z</time>
<speed>0.010000</speed>
<extensions>
<speed>0.0</speed>
<temp>0.00</temp>
<bpm>0</bpm>
<rpm>0.00</rpm>
</extensions>
</trkpt>
<trkpt lat="30.574983597" lon="34.788570404">
<ele>573.109375</ele>
<time>2013-11-23T09:50:39Z</time>
<extensions>
<speed>0.0</speed>
<temp>0.00</temp>
<bpm>0</bpm>
<rpm>0.00</rpm>
</extensions>
</trkpt>
<trkpt lat="30.574983597" lon="34.788570404">
<ele>573.062500</ele>
<time>2013-11-23T09:50:44Z</time>
<extensions>
<speed>0.0</speed>
<temp>0.00</temp>
<bpm>0</bpm>
<rpm>0.00</rpm>
</extensions>
</trkpt>
<trkpt lat="30.574981689" lon="34.788570404">
<ele>573.031250</ele>
<time>2013-11-23T09:50:49Z</time>
<extensions>
<speed>0.0</speed>
<temp>0.00</temp>
<bpm>0</bpm>
<rpm>0.00</rpm>
</extensions>
</trkpt>
<trkpt lat="30.574981689" lon="34.788570404">
<ele>573.000000</ele>
<time>2013-11-23T09:50:54Z</time>
<extensions>
<speed>0.0</speed>
<temp>0.00</temp>
<bpm>0</bpm>
<rpm>0.00</rpm>
</extensions>
</trkpt>
<trkpt lat="30.574981689" lon="34.788570404">
<ele>572.968750</ele>
<time>2013-11-23T09:50:59Z</time>
<extensions>
<speed>0.0</speed>
<temp>0.00</temp>
<bpm>0</bpm>
<rpm>0.00</rpm>
</extensions>
</trkpt>
<trkpt lat="30.574981689" lon="34.788570404">
<ele>572.953125</ele>
<time>2013-11-23T09:51:04Z</time>
<extensions>
<speed>0.0</speed>
<temp>0.00</temp>
<bpm>0</bpm>
<rpm>0.00</rpm>
</extensions>
</trkpt>
<trkpt lat="30.574981689" lon="34.788570404">
<ele>572.937500</ele>
<time>2013-11-23T09:51:09Z</time>
<extensions>
<speed>0.0</speed>
<temp>0.00</temp>
<bpm>0</bpm>
<rpm>0.00</rpm>
</extensions>
</trkpt>
<trkpt lat="30.574981689" lon="34.788570404">
<ele>572.921875</ele>
<time>2013-11-23T09:51:14Z</time>
<extensions>
<speed>0.0</speed>
<temp>0.00</temp>
<bpm>0</bpm>
<rpm>0.00</rpm>
</extensions>
</trkpt>
<trkpt lat="30.574981689" lon="34.788570404">
<ele>572.875000</ele>
<time>2013-11-23T09:51:19Z</time>
<extensions>
<speed>0.0</speed>
<temp>0.00</temp>
<bpm>0</bpm>
<rpm>0.00</rpm>
</extensions>
</trkpt>
<trkpt lat="30.574981689" lon="34.788570404">
<ele>572.828125</ele>
<time>2013-11-23T09:51:24Z</time>
<extensions>
<speed>0.0</speed>
<temp>0.00</temp>
<bpm>0</bpm>
<rpm>0.00</rpm>
</extensions>
</trkpt>
<trkpt lat="30.574981689" lon="34.788570404">
<ele>572.796875</ele>
<time>2013-11-23T09:51:29Z</time>
<extensions>
<speed>0.0</speed>
<temp>0.00</temp>
<bpm>0</bpm>
<rpm>0.00</rpm>
</extensions>
</trkpt>
<trkpt lat="30.574981689" lon="34.788570404">
<ele>572.750000</ele>
<time>2013-11-23T09:51:34Z</time>
<extensions>
<speed>0.0</speed>
<temp>0.00</temp>
<bpm>0</bpm>
<rpm>0.00</rpm>
</extensions>
</trkpt>
<trkpt lat="30.574981689" lon="34.788570404">
<ele>572.734375</ele>
<time>2013-11-23T09:51:39Z</time>
<extensions>
<speed>0.0</speed>
<temp>0.00</temp>
<bpm>0</bpm>
<rpm>0.00</rpm>
</extensions>
</trkpt>
<trkpt lat="30.574981689" lon="34.788570404">
<ele>572.703125</ele>
<time>2013-11-23T09:51:44Z</time>
<extensions>
<speed>0.0</speed>
<temp>0.00</temp>
<bpm>0</bpm>
<rpm>0.00</rpm>
</extensions>
</trkpt>
<trkpt lat="30.574979782" lon="34.788570404">
<ele>572.656250</ele>
<time>2013-11-23T09:51:49Z</time>
<extensions>
<speed>0.0</speed>
<temp>0.00</temp>
<bpm>0</bpm>
<rpm>0.00</rpm>
</extensions>
</trkpt>
<trkpt lat="30.574979782" lon="34.788570404">
<ele>572.640625</ele>
<time>2013-11-23T09:51:54Z</time>
<extensions>
<speed>0.0</speed>
<temp>0.00</temp>
<bpm>0</bpm>
<rpm>0.00</rpm>
</extensions>
</trkpt>
<trkpt lat="30.574979782" lon="34.788570404">
<ele>572.609375</ele>
<time>2013-11-23T09:51:59Z</time>
<extensions>
<speed>0.0</speed>
<temp>0.00</temp>
<bpm>0</bpm>
<rpm>0.00</rpm>
</extensions>
</trkpt>
<trkpt lat="30.574979782" lon="34.788570404">
<ele>572.578125</ele>
<time>2013-11-23T09:52:04Z</time>
<extensions>
<speed>0.0</speed>
<temp>0.00</temp>
<bpm>0</bpm>
<rpm>0.00</rpm>
</extensions>
</trkpt>
<trkpt lat="30.574979782" lon="34.788570404">
<ele>572.531250</ele>
<time>2013-11-23T09:52:09Z</time>
<extensions>
<speed>0.0</speed>
<temp>0.00</temp>
<bpm>0</bpm>
<rpm>0.00</rpm>
</extensions>
</trkpt>
<trkpt lat="30.574979782" lon="34.788570404">
<ele>572.500000</ele>
<time>2013-11-23T09:52:14Z</time>
<extensions>
<speed>0.0</speed>
<temp>0.00</temp>
<bpm>0</bpm>
<rpm>0.00</rpm>
</extensions>
</trkpt>
<trkpt lat="30.574979782" lon="34.788570404">
<ele>572.453125</ele>
<time>2013-11-23T09:52:19Z</time>
<extensions>
<speed>0.0</speed>
<temp>0.00</temp>
<bpm>0</bpm>
<rpm>0.00</rpm>
</extensions>
</trkpt>
<trkpt lat="30.574979782" lon="34.788570404">
<ele>572.421875</ele>
<time>2013-11-23T09:52:24Z</time>
<extensions>
<speed>0.0</speed>
<temp>0.00</temp>
<bpm>0</bpm>
<rpm>0.00</rpm>
</extensions>
</trkpt>
<trkpt lat="30.574979782" lon="34.788570404">
<ele>572.375000</ele>
<time>2013-11-23T09:52:29Z</time>
<extensions>
<speed>0.0</speed>
<temp>0.00</temp>
<bpm>0</bpm>
<rpm>0.00</rpm>
</extensions>
</trkpt>
<trkpt lat="30.574979782" lon="34.788570404">
<ele>572.328125</ele>
<time>2013-11-23T09:52:34Z</time>
<extensions>
<speed>0.0</speed>
<temp>0.00</temp>
<bpm>0</bpm>
<rpm>0.00</rpm>
</extensions>
</trkpt>
<trkpt lat="30.574979782" lon="34.788570404">
<ele>572.296875</ele>
<time>2013-11-23T09:52:39Z</time>
<extensions>
<speed>0.0</speed>
<temp>0.00</temp>
<bpm>0</bpm>
<rpm>0.00</rpm>
</extensions>
</trkpt>
<trkpt lat="30.574979782" lon="34.788570404">
<ele>572.265625</ele>
<time>2013-11-23T09:52:44Z</time>
<extensions>
<speed>0.0</speed>
<temp>0.00</temp>
<bpm>0</bpm>
<rpm>0.00</rpm>
</extensions>
</trkpt>
<trkpt lat="30.574979782" lon="34.788570404">
<ele>572.234375</ele>
<time>2013-11-23T09:52:49Z</time>
<extensions>
<speed>0.0</speed>
<temp>0.00</temp>
<bpm>0</bpm>
<rpm>0.00</rpm>
</extensions>
</trkpt>
<trkpt lat="30.574977875" lon="34.788570404">
<ele>572.203125</ele>
<time>2013-11-23T09:52:54Z</time>
<extensions>
<speed>0.0</speed>
<temp>0.00</temp>
<bpm>0</bpm>
<rpm>0.00</rpm>
</extensions>
</trkpt>
<trkpt lat="30.574977875" lon="34.788570404">
<ele>572.171875</ele>
<time>2013-11-23T09:52:59Z</time>
<extensions>
<speed>0.0</speed>
<temp>0.00</temp>
<bpm>0</bpm>
<rpm>0.00</rpm>
</extensions>
</trkpt>
<trkpt lat="30.574977875" lon="34.788570404">
<ele>572.140625</ele>
<time>2013-11-23T09:53:04Z</time>
<extensions>
<speed>0.0</speed>
<temp>0.00</temp>
<bpm>0</bpm>
<rpm>0.00</rpm>
</extensions>
</trkpt>
<trkpt lat="30.574977875" lon="34.788570404">
<ele>572.093750</ele>
<time>2013-11-23T09:53:09Z</time>
<extensions>
<speed>0.0</speed>
<temp>0.00</temp>
<bpm>0</bpm>
<rpm>0.00</rpm>
</extensions>
</trkpt>
<trkpt lat="30.574977875" lon="34.788570404">
<ele>572.062500</ele>
<time>2013-11-23T09:53:14Z</time>
<extensions>
<speed>0.0</speed>
<temp>0.00</temp>
<bpm>0</bpm>
<rpm>0.00</rpm>
</extensions>
</trkpt>
<trkpt lat="30.574977875" lon="34.788570404">
<ele>572.031250</ele>
<time>2013-11-23T09:53:19Z</time>
<speed>0.010000</speed>
<extensions>
<speed>0.0</speed>
<temp>0.00</temp>
<bpm>0</bpm>
<rpm>0.00</rpm>
</extensions>
</trkpt>
<trkpt lat="30.574977875" lon="34.788570404">
<ele>571.984375</ele>
<time>2013-11-23T09:53:24Z</time>
<extensions>
<speed>0.0</speed>
<temp>0.00</temp>
<bpm>0</bpm>
<rpm>0.00</rpm>
</extensions>
</trkpt>
<trkpt lat="30.574977875" lon="34.788570404">
<ele>571.968750</ele>
<time>2013-11-23T09:53:29Z</time>
<extensions>
<speed>0.0</speed>
<temp>0.00</temp>
<bpm>0</bpm>
<rpm>0.00</rpm>
</extensions>
</trkpt>
<trkpt lat="30.574977875" lon="34.788570404">
<ele>571.937500</ele>
<time>2013-11-23T09:53:34Z</time>
<extensions>
<speed>0.0</speed>
<temp>0.00</temp>
<bpm>0</bpm>
<rpm>0.00</rpm>
</extensions>
</trkpt>
<trkpt lat="30.574977875" lon="34.788570404">
<ele>571.906250</ele>
<time>2013-11-23T09:53:39Z</time>
<extensions>
<speed>0.0</speed>
<temp>0.00</temp>
<bpm>0</bpm>
<rpm>0.00</rpm>
</extensions>
</trkpt>
<trkpt lat="30.574977875" lon="34.788570404">
<ele>571.859375</ele>
<time>2013-11-23T09:53:44Z</time>
<extensions>
<speed>0.0</speed>
<temp>0.00</temp>
<bpm>0</bpm>
<rpm>0.00</rpm>
</extensions>
</trkpt>
<trkpt lat="30.574975967" lon="34.788570404">
<ele>571.828125</ele>
<time>2013-11-23T09:53:49Z</time>
<extensions>
<speed>0.0</speed>
<temp>0.00</temp>
<bpm>0</bpm>
<rpm>0.00</rpm>
</extensions>
</trkpt>
<trkpt lat="30.574975967" lon="34.788570404">
<ele>571.796875</ele>
<time>2013-11-23T09:53:54Z</time>
<speed>0.010000</speed>
<extensions>
<speed>0.0</speed>
<temp>0.00</temp>
<bpm>0</bpm>
<rpm>0.00</rpm>
</extensions>
</trkpt>
<trkpt lat="30.574975967" lon="34.788570404">
<ele>571.750000</ele>
<time>2013-11-23T09:53:59Z</time>
<extensions>
<speed>0.0</speed>
<temp>0.00</temp>
<bpm>0</bpm>
<rpm>0.00</rpm>
</extensions>
</trkpt>
<trkpt lat="30.574975967" lon="34.788570404">
<ele>571.718750</ele>
<time>2013-11-23T09:54:04Z</time>
<extensions>
<speed>0.0</speed>
<temp>0.00</temp>
<bpm>0</bpm>
<rpm>0.00</rpm>
</extensions>
</trkpt>
<trkpt lat="30.574975967" lon="34.788570404">
<ele>571.687500</ele>
<time>2013-11-23T09:54:09Z</time>
<extensions>
<speed>0.0</speed>
<temp>0.00</temp>
<bpm>0</bpm>
<rpm>0.00</rpm>
</extensions>
</trkpt>
<trkpt lat="30.574975967" lon="34.788570404">
<ele>571.671875</ele>
<time>2013-11-23T09:54:14Z</time>
<extensions>
<speed>0.0</speed>
<temp>0.00</temp>
<bpm>0</bpm>
<rpm>0.00</rpm>
</extensions>
</trkpt>
<trkpt lat="30.574975967" lon="34.788570404">
<ele>571.640625</ele>
<time>2013-11-23T09:54:19Z</time>
<extensions>
<speed>0.0</speed>
<temp>0.00</temp>
<bpm>0</bpm>
<rpm>0.00</rpm>
</extensions>
</trkpt>
<trkpt lat="30.574975967" lon="34.788570404">
<ele>571.609375</ele>
<time>2013-11-23T09:54:24Z</time>
<extensions>
<speed>0.0</speed>
<temp>0.00</temp>
<bpm>0</bpm>
<rpm>0.00</rpm>
</extensions>
</trkpt>
<trkpt lat="30.574975967" lon="34.788570404">
<ele>571.578125</ele>
<time>2013-11-23T09:54:29Z</time>
<extensions>
<speed>0.0</speed>
<temp>0.00</temp>
<bpm>0</bpm>
<rpm>0.00</rpm>
</extensions>
</trkpt>
<trkpt lat="30.574975967" lon="34.788570404">
<ele>571.546875</ele>
<time>2013-11-23T09:54:34Z</time>
<extensions>
<speed>0.0</speed>
<temp>0.00</temp>
<bpm>0</bpm>
<rpm>0.00</rpm>
</extensions>
</trkpt>
<trkpt lat="30.574975967" lon="34.788570404">
<ele>571.515625</ele>
<time>2013-11-23T09:54:39Z</time>
<extensions>
<speed>0.0</speed>
<temp>0.00</temp>
<bpm>0</bpm>
<rpm>0.00</rpm>
</extensions>
</trkpt>
<trkpt lat="30.574974060" lon="34.788570404">
<ele>571.484375</ele>
<time>2013-11-23T09:54:44Z</time>
<extensions>
<speed>0.0</speed>
<temp>0.00</temp>
<bpm>0</bpm>
<rpm>0.00</rpm>
</extensions>
</trkpt>
<trkpt lat="30.574974060" lon="34.788570404">
<ele>571.453125</ele>
<time>2013-11-23T09:54:49Z</time>
<extensions>
<speed>0.0</speed>
<temp>0.00</temp>
<bpm>0</bpm>
<rpm>0.00</rpm>
</extensions>
</trkpt>
<trkpt lat="30.574974060" lon="34.788570404">
<ele>571.421875</ele>
<time>2013-11-23T09:54:54Z</time>
<extensions>
<speed>0.0</speed>
<temp>0.00</temp>
<bpm>0</bpm>
<rpm>0.00</rpm>
</extensions>
</trkpt>
<trkpt lat="30.574974060" lon="34.788570404">
<ele>571.390625</ele>
<time>2013-11-23T09:54:59Z</time>
<extensions>
<speed>0.0</speed>
<temp>0.00</temp>
<bpm>0</bpm>
<rpm>0.00</rpm>
</extensions>
</trkpt>
<trkpt lat="30.574974060" lon="34.788570404">
<ele>571.375000</ele>
<time>2013-11-23T09:55:04Z</time>
<extensions>
<speed>0.0</speed>
<temp>0.00</temp>
<bpm>0</bpm>
<rpm>0.00</rpm>
</extensions>
</trkpt>
<trkpt lat="30.574974060" lon="34.788570404">
<ele>571.343750</ele>
<time>2013-11-23T09:55:09Z</time>
<extensions>
<speed>0.0</speed>
<temp>0.00</temp>
<bpm>0</bpm>
<rpm>0.00</rpm>
</extensions>
</trkpt>
<trkpt lat="30.574974060" lon="34.788570404">
<ele>571.328125</ele>
<time>2013-11-23T09:55:14Z</time>
<extensions>
<speed>0.0</speed>
<temp>0.00</temp>
<bpm>0</bpm>
<rpm>0.00</rpm>
</extensions>
</trkpt>
<trkpt lat="30.574974060" lon="34.788570404">
<ele>571.296875</ele>
<time>2013-11-23T09:55:19Z</time>
<extensions>
<speed>0.0</speed>
<temp>0.00</temp>
<bpm>0</bpm>
<rpm>0.00</rpm>
</extensions>
</trkpt>
<trkpt lat="30.574974060" lon="34.788570404">
<ele>571.265625</ele>
<time>2013-11-23T09:55:24Z</time>
<extensions>
<speed>0.0</speed>
<temp>0.00</temp>
<bpm>0</bpm>
<rpm>0.00</rpm>
</extensions>
</trkpt>
<trkpt lat="30.574974060" lon="34.788570404">
<ele>571.234375</ele>
<time>2013-11-23T09:55:29Z</time>
<extensions>
<speed>0.0</speed>
<temp>0.00</temp>
<bpm>0</bpm>
<rpm>0.00</rpm>
</extensions>
</trkpt>
<trkpt lat="30.574974060" lon="34.788570404">
<ele>571.203125</ele>
<time>2013-11-23T09:55:34Z</time>
<extensions>
<speed>0.0</speed>
<temp>0.00</temp>
<bpm>0</bpm>
<rpm>0.00</rpm>
</extensions>
</trkpt>
<trkpt lat="30.574972153" lon="34.788570404">
<ele>571.171875</ele>
<time>2013-11-23T09:55:39Z</time>
<extensions>
<speed>0.0</speed>
<temp>0.00</temp>
<bpm>0</bpm>
<rpm>0.00</rpm>
</extensions>
</trkpt>
<trkpt lat="30.574972153" lon="34.788570404">
<ele>571.125000</ele>
<time>2013-11-23T09:55:44Z</time>
<extensions>
<speed>0.0</speed>
<temp>0.00</temp>
<bpm>0</bpm>
<rpm>0.00</rpm>
</extensions>
</trkpt>
<trkpt lat="30.574972153" lon="34.788570404">
<ele>571.093750</ele>
<time>2013-11-23T09:55:49Z</time>
<extensions>
<speed>0.0</speed>
<temp>0.00</temp>
<bpm>0</bpm>
<rpm>0.00</rpm>
</extensions>
</trkpt>
<trkpt lat="30.574972153" lon="34.788570404">
<ele>571.062500</ele>
<time>2013-11-23T09:55:54Z</time>
<extensions>
<speed>0.0</speed>
<temp>0.00</temp>
<bpm>0</bpm>
<rpm>0.00</rpm>
</extensions>
</trkpt>
<trkpt lat="30.574972153" lon="34.788570404">
<ele>571.031250</ele>
<time>2013-11-23T09:55:59Z</time>
<extensions>
<speed>0.0</speed>
<temp>0.00</temp>
<bpm>0</bpm>
<rpm>0.00</rpm>
</extensions>
</trkpt>
<trkpt lat="30.574972153" lon="34.788570404">
<ele>571.000000</ele>
<time>2013-11-23T09:56:04Z</time>
<extensions>
<speed>0.0</speed>
<temp>0.00</temp>
<bpm>0</bpm>
<rpm>0.00</rpm>
</extensions>
</trkpt>
<trkpt lat="30.574972153" lon="34.788570404">
<ele>570.968750</ele>
<time>2013-11-23T09:56:09Z</time>
<extensions>
<speed>0.0</speed>
<temp>0.00</temp>
<bpm>0</bpm>
<rpm>0.00</rpm>
</extensions>
</trkpt>
<trkpt lat="30.574972153" lon="34.788570404">
<ele>570.937500</ele>
<time>2013-11-23T09:56:14Z</time>
<extensions>
<speed>0.0</speed>
<temp>0.00</temp>
<bpm>0</bpm>
<rpm>0.00</rpm>
</extensions>
</trkpt>
<trkpt lat="30.574972153" lon="34.788570404">
<ele>570.890625</ele>
<time>2013-11-23T09:56:19Z</time>
<extensions>
<speed>0.0</speed>
<temp>0.00</temp>
<bpm>0</bpm>
<rpm>0.00</rpm>
</extensions>
</trkpt>
<trkpt lat="30.574972153" lon="34.788570404">
<ele>570.859375</ele>
<time>2013-11-23T09:56:24Z</time>
<extensions>
<speed>0.0</speed>
<temp>0.00</temp>
<bpm>0</bpm>
<rpm>0.00</rpm>
</extensions>
</trkpt>
<trkpt lat="30.574972153" lon="34.788570404">
<ele>570.828125</ele>
<time>2013-11-23T09:56:29Z</time>
<extensions>
<speed>0.0</speed>
<temp>0.00</temp>
<bpm>0</bpm>
<rpm>0.00</rpm>
</extensions>
</trkpt>
<trkpt lat="30.574972153" lon="34.788570404">
<ele>570.796875</ele>
<time>2013-11-23T09:56:34Z</time>
<extensions>
<speed>0.0</speed>
<temp>0.00</temp>
<bpm>0</bpm>
<rpm>0.00</rpm>
</extensions>
</trkpt>
<trkpt lat="30.574972153" lon="34.788570404">
<ele>570.781250</ele>
<time>2013-11-23T09:56:39Z</time>
<extensions>
<speed>0.0</speed>
<temp>0.00</temp>
<bpm>0</bpm>
<rpm>0.00</rpm>
</extensions>
</trkpt>
<trkpt lat="30.574972153" lon="34.788570404">
<ele>570.750000</ele>
<time>2013-11-23T09:56:44Z</time>
<extensions>
<speed>0.0</speed>
<temp>0.00</temp>
<bpm>0</bpm>
<rpm>0.00</rpm>
</extensions>
</trkpt>
<trkpt lat="30.574972153" lon="34.788570404">
<ele>570.734375</ele>
<time>2013-11-23T09:56:49Z</time>
<extensions>
<speed>0.0</speed>
<temp>0.00</temp>
<bpm>0</bpm>
<rpm>0.00</rpm>
</extensions>
</trkpt>
<trkpt lat="30.574972153" lon="34.788570404">
<ele>570.703125</ele>
<time>2013-11-23T09:56:54Z</time>
<extensions>
<speed>0.0</speed>
<temp>0.00</temp>
<bpm>0</bpm>
<rpm>0.00</rpm>
</extensions>
</trkpt>
<trkpt lat="30.574972153" lon="34.788570404">
<ele>570.687500</ele>
<time>2013-11-23T09:56:59Z</time>
<extensions>
<speed>0.0</speed>
<temp>0.00</temp>
<bpm>0</bpm>
<rpm>0.00</rpm>
</extensions>
</trkpt>
<trkpt lat="30.574970245" lon="34.788570404">
<ele>570.656250</ele>
<time>2013-11-23T09:57:04Z</time>
<extensions>
<speed>0.0</speed>
<temp>0.00</temp>
<bpm>0</bpm>
<rpm>0.00</rpm>
</extensions>
</trkpt>
<trkpt lat="30.574970245" lon="34.788570404">
<ele>570.625000</ele>
<time>2013-11-23T09:57:09Z</time>
<extensions>
<speed>0.0</speed>
<temp>0.00</temp>
<bpm>0</bpm>
<rpm>0.00</rpm>
</extensions>
</trkpt>
<trkpt lat="30.574970245" lon="34.788570404">
<ele>570.593750</ele>
<time>2013-11-23T09:57:14Z</time>
<extensions>
<speed>0.0</speed>
<temp>0.00</temp>
<bpm>0</bpm>
<rpm>0.00</rpm>
</extensions>
</trkpt>
<trkpt lat="30.574970245" lon="34.788570404">
<ele>570.562500</ele>
<time>2013-11-23T09:57:19Z</time>
<extensions>
<speed>0.0</speed>
<temp>0.00</temp>
<bpm>0</bpm>
<rpm>0.00</rpm>
</extensions>
</trkpt>
<trkpt lat="30.574970245" lon="34.788570404">
<ele>570.546875</ele>
<time>2013-11-23T09:57:24Z</time>
<extensions>
<speed>0.0</speed>
<temp>0.00</temp>
<bpm>0</bpm>
<rpm>0.00</rpm>
</extensions>
</trkpt>
<trkpt lat="30.574970245" lon="34.788570404">
<ele>570.531250</ele>
<time>2013-11-23T09:57:29Z</time>
<extensions>
<speed>0.0</speed>
<temp>0.00</temp>
<bpm>0</bpm>
<rpm>0.00</rpm>
</extensions>
</trkpt>
<trkpt lat="30.574970245" lon="34.788570404">
<ele>570.500000</ele>
<time>2013-11-23T09:57:34Z</time>
<extensions>
<speed>0.0</speed>
<temp>0.00</temp>
<bpm>0</bpm>
<rpm>0.00</rpm>
</extensions>
</trkpt>
<trkpt lat="30.574970245" lon="34.788570404">
<ele>570.484375</ele>
<time>2013-11-23T09:57:39Z</time>
<extensions>
<speed>0.0</speed>
<temp>0.00</temp>
<bpm>0</bpm>
<rpm>0.00</rpm>
</extensions>
</trkpt>
<trkpt lat="30.574970245" lon="34.788570404">
<ele>570.453125</ele>
<time>2013-11-23T09:57:44Z</time>
<extensions>
<speed>0.0</speed>
<temp>0.00</temp>
<bpm>0</bpm>
<rpm>0.00</rpm>
</extensions>
</trkpt>
<trkpt lat="30.574970245" lon="34.788570404">
<ele>570.437500</ele>
<time>2013-11-23T09:57:49Z</time>
<extensions>
<speed>0.0</speed>
<temp>0.00</temp>
<bpm>0</bpm>
<rpm>0.00</rpm>
</extensions>
</trkpt>
<trkpt lat="30.574970245" lon="34.788570404">
<ele>570.421875</ele>
<time>2013-11-23T09:57:54Z</time>
<extensions>
<speed>0.0</speed>
<temp>0.00</temp>
<bpm>0</bpm>
<rpm>0.00</rpm>
</extensions>
</trkpt>
<trkpt lat="30.574970245" lon="34.788570404">
<ele>570.390625</ele>
<time>2013-11-23T09:57:59Z</time>
<extensions>
<speed>0.0</speed>
<temp>0.00</temp>
<bpm>0</bpm>
<rpm>0.00</rpm>
</extensions>
</trkpt>
<trkpt lat="30.574970245" lon="34.788570404">
<ele>570.375000</ele>
<time>2013-11-23T09:58:04Z</time>
<speed>0.010000</speed>
<extensions>
<speed>0.0</speed>
<temp>0.00</temp>
<bpm>0</bpm>
<rpm>0.00</rpm>
</extensions>
</trkpt>
<trkpt lat="30.574970245" lon="34.788570404">
<ele>570.343750</ele>
<time>2013-11-23T09:58:09Z</time>
<extensions>
<speed>0.0</speed>
<temp>0.00</temp>
<bpm>0</bpm>
<rpm>0.00</rpm>
</extensions>
</trkpt>
<trkpt lat="30.574970245" lon="34.788570404">
<ele>570.312500</ele>
<time>2013-11-23T09:58:14Z</time>
<extensions>
<speed>0.0</speed>
<temp>0.00</temp>
<bpm>0</bpm>
<rpm>0.00</rpm>
</extensions>
</trkpt>
<trkpt lat="30.574970245" lon="34.788570404">
<ele>570.296875</ele>
<time>2013-11-23T09:58:19Z</time>
<extensions>
<speed>0.0</speed>
<temp>0.00</temp>
<bpm>0</bpm>
<rpm>0.00</rpm>
</extensions>
</trkpt>
<trkpt lat="30.574970245" lon="34.788570404">
<ele>570.265625</ele>
<time>2013-11-23T09:58:24Z</time>
<extensions>
<speed>0.0</speed>
<temp>0.00</temp>
<bpm>0</bpm>
<rpm>0.00</rpm>
</extensions>
</trkpt>
<trkpt lat="30.574970245" lon="34.788570404">
<ele>570.218750</ele>
<time>2013-11-23T09:58:29Z</time>
<extensions>
<speed>0.0</speed>
<temp>0.00</temp>
<bpm>0</bpm>
<rpm>0.00</rpm>
</extensions>
</trkpt>
<trkpt lat="30.574970245" lon="34.788570404">
<ele>570.203125</ele>
<time>2013-11-23T09:58:34Z</time>
<extensions>
<speed>0.0</speed>
<temp>0.00</temp>
<bpm>0</bpm>
<rpm>0.00</rpm>
</extensions>
</trkpt>
<trkpt lat="30.574968338" lon="34.788570404">
<ele>570.156250</ele>
<time>2013-11-23T09:58:39Z</time>
<extensions>
<speed>0.0</speed>
<temp>0.00</temp>
<bpm>0</bpm>
<rpm>0.00</rpm>
</extensions>
</trkpt>
<trkpt lat="30.574968338" lon="34.788570404">
<ele>570.140625</ele>
<time>2013-11-23T09:58:44Z</time>
<extensions>
<speed>0.0</speed>
<temp>0.00</temp>
<bpm>0</bpm>
<rpm>0.00</rpm>
</extensions>
</trkpt>
<trkpt lat="30.574968338" lon="34.788570404">
<ele>570.093750</ele>
<time>2013-11-23T09:58:49Z</time>
<extensions>
<speed>0.0</speed>
<temp>0.00</temp>
<bpm>0</bpm>
<rpm>0.00</rpm>
</extensions>
</trkpt>
<trkpt lat="30.574968338" lon="34.788570404">
<ele>570.078125</ele>
<time>2013-11-23T09:58:54Z</time>
<extensions>
<speed>0.0</speed>
<temp>0.00</temp>
<bpm>0</bpm>
<rpm>0.00</rpm>
</extensions>
</trkpt>
<trkpt lat="30.574968338" lon="34.788570404">
<ele>570.046875</ele>
<time>2013-11-23T09:58:59Z</time>
<extensions>
<speed>0.0</speed>
<temp>0.00</temp>
<bpm>0</bpm>
<rpm>0.00</rpm>
</extensions>
</trkpt>
<trkpt lat="30.574968338" lon="34.788570404">
<ele>570.031250</ele>
<time>2013-11-23T09:59:04Z</time>
<extensions>
<speed>0.0</speed>
<temp>0.00</temp>
<bpm>0</bpm>
<rpm>0.00</rpm>
</extensions>
</trkpt>
<trkpt lat="30.574968338" lon="34.788570404">
<ele>570.000000</ele>
<time>2013-11-23T09:59:09Z</time>
<extensions>
<speed>0.0</speed>
<temp>0.00</temp>
<bpm>0</bpm>
<rpm>0.00</rpm>
</extensions>
</trkpt>
<trkpt lat="30.574968338" lon="34.788570404">
<ele>569.984375</ele>
<time>2013-11-23T09:59:14Z</time>
<speed>0.010000</speed>
<extensions>
<speed>0.0</speed>
<temp>0.00</temp>
<bpm>0</bpm>
<rpm>0.00</rpm>
</extensions>
</trkpt>
<trkpt lat="30.574968338" lon="34.788570404">
<ele>569.953125</ele>
<time>2013-11-23T09:59:19Z</time>
<extensions>
<speed>0.0</speed>
<temp>0.00</temp>
<bpm>0</bpm>
<rpm>0.00</rpm>
</extensions>
</trkpt>
<trkpt lat="30.574968338" lon="34.788570404">
<ele>569.921875</ele>
<time>2013-11-23T09:59:24Z</time>
<extensions>
<speed>0.0</speed>
<temp>0.00</temp>
<bpm>0</bpm>
<rpm>0.00</rpm>
</extensions>
</trkpt>
<trkpt lat="30.574968338" lon="34.788566589">
<ele>569.890625</ele>
<time>2013-11-23T09:59:29Z</time>
<extensions>
<speed>0.0</speed>
<temp>0.00</temp>
<bpm>0</bpm>
<rpm>0.00</rpm>
</extensions>
</trkpt>
<trkpt lat="30.574968338" lon="34.788566589">
<ele>569.859375</ele>
<time>2013-11-23T09:59:34Z</time>
<extensions>
<speed>0.0</speed>
<temp>0.00</temp>
<bpm>0</bpm>
<rpm>0.00</rpm>
</extensions>
</trkpt>
<trkpt lat="30.574968338" lon="34.788566589">
<ele>569.828125</ele>
<time>2013-11-23T09:59:39Z</time>
<extensions>
<speed>0.0</speed>
<temp>0.00</temp>
<bpm>0</bpm>
<rpm>0.00</rpm>
</extensions>
</trkpt>
<trkpt lat="30.574968338" lon="34.788566589">
<ele>569.812500</ele>
<time>2013-11-23T09:59:44Z</time>
<extensions>
<speed>0.0</speed>
<temp>0.00</temp>
<bpm>0</bpm>
<rpm>0.00</rpm>
</extensions>
</trkpt>
<trkpt lat="30.574968338" lon="34.788566589">
<ele>569.781250</ele>
<time>2013-11-23T09:59:49Z</time>
<extensions>
<speed>0.0</speed>
<temp>0.00</temp>
<bpm>0</bpm>
<rpm>0.00</rpm>
</extensions>
</trkpt>
<trkpt lat="30.574968338" lon="34.788566589">
<ele>569.734375</ele>
<time>2013-11-23T09:59:54Z</time>
<extensions>
<speed>0.0</speed>
<temp>0.00</temp>
<bpm>0</bpm>
<rpm>0.00</rpm>
</extensions>
</trkpt>
<trkpt lat="30.574968338" lon="34.788566589">
<ele>569.703125</ele>
<time>2013-11-23T09:59:59Z</time>
<speed>0.010000</speed>
<extensions>
<speed>0.0</speed>
<temp>0.00</temp>
<bpm>0</bpm>
<rpm>0.00</rpm>
</extensions>
</trkpt>
<trkpt lat="30.574968338" lon="34.788566589">
<ele>569.671875</ele>
<time>2013-11-23T10:00:04Z</time>
<extensions>
<speed>0.0</speed>
<temp>0.00</temp>
<bpm>0</bpm>
<rpm>0.00</rpm>
</extensions>
</trkpt>
<trkpt lat="30.574968338" lon="34.788566589">
<ele>569.640625</ele>
<time>2013-11-23T10:00:09Z</time>
<extensions>
<speed>0.0</speed>
<temp>0.00</temp>
<bpm>0</bpm>
<rpm>0.00</rpm>
</extensions>
</trkpt>
<trkpt lat="30.574968338" lon="34.788566589">
<ele>569.609375</ele>
<time>2013-11-23T10:00:14Z</time>
<extensions>
<speed>0.0</speed>
<temp>0.00</temp>
<bpm>0</bpm>
<rpm>0.00</rpm>
</extensions>
</trkpt>
<trkpt lat="30.574968338" lon="34.788566589">
<ele>569.578125</ele>
<time>2013-11-23T10:00:19Z</time>
<extensions>
<speed>0.0</speed>
<temp>0.00</temp>
<bpm>0</bpm>
<rpm>0.00</rpm>
</extensions>
</trkpt>
<trkpt lat="30.574968338" lon="34.788566589">
<ele>569.546875</ele>
<time>2013-11-23T10:00:24Z</time>
<extensions>
<speed>0.0</speed>
<temp>0.00</temp>
<bpm>0</bpm>
<rpm>0.00</rpm>
</extensions>
</trkpt>
<trkpt lat="30.574968338" lon="34.788566589">
<ele>569.515625</ele>
<time>2013-11-23T10:00:29Z</time>
<extensions>
<speed>0.0</speed>
<temp>0.00</temp>
<bpm>0</bpm>
<rpm>0.00</rpm>
</extensions>
</trkpt>
<trkpt lat="30.574968338" lon="34.788566589">
<ele>569.484375</ele>
<time>2013-11-23T10:00:34Z</time>
<extensions>
<speed>0.0</speed>
<temp>0.00</temp>
<bpm>0</bpm>
<rpm>0.00</rpm>
</extensions>
</trkpt>
<trkpt lat="30.574966431" lon="34.788566589">
<ele>569.453125</ele>
<time>2013-11-23T10:00:39Z</time>
<extensions>
<speed>0.0</speed>
<temp>0.00</temp>
<bpm>0</bpm>
<rpm>0.00</rpm>
</extensions>
</trkpt>
<trkpt lat="30.574966431" lon="34.788566589">
<ele>569.421875</ele>
<time>2013-11-23T10:00:44Z</time>
<extensions>
<speed>0.0</speed>
<temp>0.00</temp>
<bpm>0</bpm>
<rpm>0.00</rpm>
</extensions>
</trkpt>
<trkpt lat="30.574966431" lon="34.788566589">
<ele>569.390625</ele>
<time>2013-11-23T10:00:49Z</time>
<extensions>
<speed>0.0</speed>
<temp>0.00</temp>
<bpm>0</bpm>
<rpm>0.00</rpm>
</extensions>
</trkpt>
<trkpt lat="30.574966431" lon="34.788566589">
<ele>569.375000</ele>
<time>2013-11-23T10:00:54Z</time>
<speed>0.060000</speed>
<extensions>
<speed>0.1</speed>
<temp>0.00</temp>
<bpm>0</bpm>
<rpm>0.00</rpm>
</extensions>
</trkpt>
<trkpt lat="30.574968338" lon="34.788566589">
<ele>569.390625</ele>
<time>2013-11-23T10:00:59Z</time>
<extensions>
<speed>0.0</speed>
<temp>0.00</temp>
<bpm>0</bpm>
<rpm>0.00</rpm>
</extensions>
</trkpt>
<trkpt lat="30.574968338" lon="34.788566589">
<ele>569.390625</ele>
<time>2013-11-23T10:01:04Z</time>
<speed>0.040000</speed>
<extensions>
<speed>0.0</speed>
<temp>0.00</temp>
<bpm>0</bpm>
<rpm>0.00</rpm>
</extensions>
</trkpt>
<trkpt lat="30.574968338" lon="34.788566589">
<ele>569.406250</ele>
<time>2013-11-23T10:01:09Z</time>
<extensions>
<speed>0.0</speed>
<temp>0.00</temp>
<bpm>0</bpm>
<rpm>0.00</rpm>
</extensions>
</trkpt>
<trkpt lat="30.574968338" lon="34.788566589">
<ele>569.406250</ele>
<time>2013-11-23T10:01:14Z</time>
<extensions>
<speed>0.0</speed>
<temp>0.00</temp>
<bpm>0</bpm>
<rpm>0.00</rpm>
</extensions>
</trkpt>
<trkpt lat="30.574968338" lon="34.788566589">
<ele>569.406250</ele>
<time>2013-11-23T10:01:19Z</time>
<speed>0.020000</speed>
<extensions>
<speed>0.0</speed>
<temp>0.00</temp>
<bpm>0</bpm>
<rpm>0.00</rpm>
</extensions>
</trkpt>
<trkpt lat="30.574968338" lon="34.788566589">
<ele>569.437500</ele>
<time>2013-11-23T10:01:24Z</time>
<speed>0.010000</speed>
<extensions>
<speed>0.0</speed>
<temp>0.00</temp>
<bpm>0</bpm>
<rpm>0.00</rpm>
</extensions>
</trkpt>
<trkpt lat="30.574968338" lon="34.788566589">
<ele>569.484375</ele>
<time>2013-11-23T10:01:29Z</time>
<extensions>
<speed>0.0</speed>
<temp>0.00</temp>
<bpm>0</bpm>
<rpm>0.00</rpm>
</extensions>
</trkpt>
<trkpt lat="30.574968338" lon="34.788566589">
<ele>569.531250</ele>
<time>2013-11-23T10:01:34Z</time>
<speed>0.790000</speed>
<extensions>
<speed>0.8</speed>
<temp>0.00</temp>
<bpm>0</bpm>
<rpm>0.00</rpm>
</extensions>
</trkpt>
<trkpt lat="30.575056076" lon="34.788616180">
<ele>569.515625</ele>
<time>2013-11-23T10:01:39Z</time>
<speed>2.280000</speed>
<extensions>
<speed>2.3</speed>
<temp>0.00</temp>
<bpm>0</bpm>
<rpm>0.00</rpm>
</extensions>
</trkpt>
<trkpt lat="30.575141907" lon="34.788650513">
<ele>569.515625</ele>
<time>2013-11-23T10:01:44Z</time>
<speed>1.670000</speed>
<extensions>
<speed>1.7</speed>
<temp>0.00</temp>
<bpm>0</bpm>
<rpm>0.00</rpm>
</extensions>
</trkpt>
<trkpt lat="30.575223923" lon="34.788681030">
<ele>569.593750</ele>
<time>2013-11-23T10:01:49Z</time>
<speed>1.790000</speed>
<extensions>
<speed>1.8</speed>
<temp>0.00</temp>
<bpm>0</bpm>
<rpm>0.00</rpm>
</extensions>
</trkpt>
<trkpt lat="30.575300217" lon="34.788700104">
<ele>569.875000</ele>
<time>2013-11-23T10:01:54Z</time>
<speed>1.540000</speed>
<extensions>
<speed>1.5</speed>
<temp>0.00</temp>
<bpm>0</bpm>
<rpm>0.00</rpm>
</extensions>
</trkpt>
<trkpt lat="30.575374603" lon="34.788707733">
<ele>570.671875</ele>
<time>2013-11-23T10:01:59Z</time>
<speed>1.680000</speed>
<extensions>
<speed>1.7</speed>
<temp>0.00</temp>
<bpm>0</bpm>
<rpm>0.00</rpm>
</extensions>
</trkpt>
<trkpt lat="30.575443268" lon="34.788738251">
<ele>573.250000</ele>
<time>2013-11-23T10:02:04Z</time>
<speed>1.900000</speed>
<extensions>
<speed>1.9</speed>
<temp>0.00</temp>
<bpm>0</bpm>
<rpm>0.00</rpm>
</extensions>
</trkpt>
<trkpt lat="30.575546265" lon="34.788776398">
<ele>574.515625</ele>
<time>2013-11-23T10:02:09Z</time>
<speed>2.550000</speed>
<extensions>
<speed>2.6</speed>
<temp>0.00</temp>
<bpm>0</bpm>
<rpm>0.00</rpm>
</extensions>
</trkpt>
<trkpt lat="30.575647354" lon="34.788806915">
<ele>576.593750</ele>
<time>2013-11-23T10:02:14Z</time>
<speed>2.490000</speed>
<extensions>
<speed>2.5</speed>
<temp>0.00</temp>
<bpm>0</bpm>
<rpm>0.00</rpm>
</extensions>
</trkpt>
<trkpt lat="30.575748444" lon="34.788806915">
<ele>577.406250</ele>
<time>2013-11-23T10:02:19Z</time>
<speed>1.780000</speed>
<extensions>
<speed>1.8</speed>
<temp>0.00</temp>
<bpm>0</bpm>
<rpm>0.00</rpm>
</extensions>
</trkpt>
<trkpt lat="30.575845718" lon="34.788791656">
<ele>577.750000</ele>
<time>2013-11-23T10:02:24Z</time>
<speed>2.260000</speed>
<extensions>
<speed>2.3</speed>
<temp>0.00</temp>
<bpm>0</bpm>
<rpm>0.00</rpm>
</extensions>
</trkpt>
<trkpt lat="30.575962067" lon="34.788780212">
<ele>577.734375</ele>
<time>2013-11-23T10:02:29Z</time>
<speed>2.250000</speed>
<extensions>
<speed>2.3</speed>
<temp>0.00</temp>
<bpm>0</bpm>
<rpm>0.00</rpm>
</extensions>
</trkpt>
<trkpt lat="30.576051712" lon="34.788776398">
<ele>577.421875</ele>
<time>2013-11-23T10:02:34Z</time>
<speed>1.990000</speed>
<extensions>
<speed>2.0</speed>
<temp>0.00</temp>
<bpm>0</bpm>
<rpm>0.00</rpm>
</extensions>
</trkpt>
<trkpt lat="30.576133728" lon="34.788776398">
<ele>577.718750</ele>
<time>2013-11-23T10:02:39Z</time>
<speed>1.920000</speed>
<extensions>
<speed>1.9</speed>
<temp>0.00</temp>
<bpm>0</bpm>
<rpm>0.00</rpm>
</extensions>
</trkpt>
<trkpt lat="30.576204300" lon="34.788772583">
<ele>577.484375</ele>
<time>2013-11-23T10:02:44Z</time>
<speed>1.410000</speed>
<extensions>
<speed>1.4</speed>
<temp>0.00</temp>
<bpm>0</bpm>
<rpm>0.00</rpm>
</extensions>
</trkpt>
<trkpt lat="30.576280594" lon="34.788780212">
<ele>577.406250</ele>
<time>2013-11-23T10:02:49Z</time>
<speed>1.940000</speed>
<extensions>
<speed>1.9</speed>
<temp>0.00</temp>
<bpm>0</bpm>
<rpm>0.00</rpm>
</extensions>
</trkpt>
<trkpt lat="30.576353073" lon="34.788795471">
<ele>577.203125</ele>
<time>2013-11-23T10:02:54Z</time>
<speed>1.530000</speed>
<extensions>
<speed>1.5</speed>
<temp>0.00</temp>
<bpm>0</bpm>
<rpm>0.00</rpm>
</extensions>
</trkpt>
<trkpt lat="30.576427460" lon="34.788822174">
<ele>577.328125</ele>
<time>2013-11-23T10:02:59Z</time>
<speed>1.610000</speed>
<extensions>
<speed>1.6</speed>
<temp>0.00</temp>
<bpm>0</bpm>
<rpm>0.00</rpm>
</extensions>
</trkpt>
<trkpt lat="30.576427460" lon="34.788829803">
<ele>577.265625</ele>
<time>2013-11-23T10:03:04Z</time>
<speed>0.020000</speed>
<extensions>
<speed>0.0</speed>
<temp>0.00</temp>
<bpm>0</bpm>
<rpm>0.00</rpm>
</extensions>
</trkpt>
<trkpt lat="30.576427460" lon="34.788833618">
<ele>577.265625</ele>
<time>2013-11-23T10:03:09Z</time>
<speed>0.010000</speed>
<extensions>
<speed>0.0</speed>
<temp>0.00</temp>
<bpm>0</bpm>
<rpm>0.00</rpm>
</extensions>
</trkpt>
<trkpt lat="30.576427460" lon="34.788833618">
<ele>577.203125</ele>
<time>2013-11-23T10:03:14Z</time>
<extensions>
<speed>0.0</speed>
<temp>0.00</temp>
<bpm>0</bpm>
<rpm>0.00</rpm>
</extensions>
</trkpt>
<trkpt lat="30.576427460" lon="34.788833618">
<ele>577.171875</ele>
<time>2013-11-23T10:03:19Z</time>
<extensions>
<speed>0.0</speed>
<temp>0.00</temp>
<bpm>0</bpm>
<rpm>0.00</rpm>
</extensions>
</trkpt>
<trkpt lat="30.576427460" lon="34.788833618">
<ele>577.156250</ele>
<time>2013-11-23T10:03:24Z</time>
<extensions>
<speed>0.0</speed>
<temp>0.00</temp>
<bpm>0</bpm>
<rpm>0.00</rpm>
</extensions>
</trkpt>
<trkpt lat="30.576427460" lon="34.788833618">
<ele>577.156250</ele>
<time>2013-11-23T10:03:29Z</time>
<extensions>
<speed>0.0</speed>
<temp>0.00</temp>
<bpm>0</bpm>
<rpm>0.00</rpm>
</extensions>
</trkpt>
<trkpt lat="30.576429367" lon="34.788833618">
<ele>577.156250</ele>
<time>2013-11-23T10:03:34Z</time>
<speed>1.400000</speed>
<extensions>
<speed>1.4</speed>
<temp>0.00</temp>
<bpm>0</bpm>
<rpm>0.00</rpm>
</extensions>
</trkpt>
<trkpt lat="30.576536179" lon="34.788852692">
<ele>577.031250</ele>
<time>2013-11-23T10:03:39Z</time>
<speed>2.600000</speed>
<extensions>
<speed>2.6</speed>
<temp>0.00</temp>
<bpm>0</bpm>
<rpm>0.00</rpm>
</extensions>
</trkpt>
<trkpt lat="30.576677322" lon="34.788887024">
<ele>576.796875</ele>
<time>2013-11-23T10:03:44Z</time>
<speed>3.250000</speed>
<extensions>
<speed>3.2</speed>
<temp>0.00</temp>
<bpm>0</bpm>
<rpm>0.00</rpm>
</extensions>
</trkpt>
<trkpt lat="30.576816559" lon="34.788921356">
<ele>576.781250</ele>
<time>2013-11-23T10:03:49Z</time>
<speed>2.810000</speed>
<extensions>
<speed>2.8</speed>
<temp>0.00</temp>
<bpm>0</bpm>
<rpm>0.00</rpm>
</extensions>
</trkpt>
<trkpt lat="30.576932907" lon="34.788951874">
<ele>576.562500</ele>
<time>2013-11-23T10:03:54Z</time>
<speed>3.130000</speed>
<extensions>
<speed>3.1</speed>
<temp>0.00</temp>
<bpm>0</bpm>
<rpm>0.00</rpm>
</extensions>
</trkpt>
<trkpt lat="30.577072144" lon="34.788982391">
<ele>576.578125</ele>
<time>2013-11-23T10:03:59Z</time>
<speed>3.100000</speed>
<extensions>
<speed>3.1</speed>
<temp>0.00</temp>
<bpm>0</bpm>
<rpm>0.00</rpm>
</extensions>
</trkpt>
<trkpt lat="30.577224731" lon="34.789005280">
<ele>576.390625</ele>
<time>2013-11-23T10:04:04Z</time>
<speed>3.130000</speed>
<extensions>
<speed>3.1</speed>
<temp>0.00</temp>
<bpm>0</bpm>
<rpm>0.00</rpm>
</extensions>
</trkpt>
<trkpt lat="30.577352524" lon="34.789016724">
<ele>575.718750</ele>
<time>2013-11-23T10:04:09Z</time>
<speed>2.820000</speed>
<extensions>
<speed>2.8</speed>
<temp>0.00</temp>
<bpm>0</bpm>
<rpm>0.00</rpm>
</extensions>
</trkpt>
<trkpt lat="30.577484131" lon="34.789035797">
<ele>575.312500</ele>
<time>2013-11-23T10:04:14Z</time>
<speed>3.040000</speed>
<extensions>
<speed>3.0</speed>
<temp>0.00</temp>
<bpm>0</bpm>
<rpm>0.00</rpm>
</extensions>
</trkpt>
<trkpt lat="30.577636719" lon="34.789047241">
<ele>574.500000</ele>
<time>2013-11-23T10:04:19Z</time>
<speed>3.690000</speed>
<extensions>
<speed>3.7</speed>
<temp>0.00</temp>
<bpm>0</bpm>
<rpm>0.00</rpm>
</extensions>
</trkpt>
<trkpt lat="30.577861786" lon="34.789039612">
<ele>571.640625</ele>
<time>2013-11-23T10:04:24Z</time>
<speed>6.090000</speed>
<extensions>
<speed>6.1</speed>
<temp>0.00</temp>
<bpm>0</bpm>
<rpm>0.00</rpm>
</extensions>
</trkpt>
<trkpt lat="30.578172684" lon="34.789081573">
<ele>568.812500</ele>
<time>2013-11-23T10:04:29Z</time>
<speed>7.550000</speed>
<extensions>
<speed>7.6</speed>
<temp>0.00</temp>
<bpm>0</bpm>
<rpm>0.00</rpm>
</extensions>
</trkpt>
<trkpt lat="30.578479767" lon="34.789272308">
<ele>569.546875</ele>
<time>2013-11-23T10:04:34Z</time>
<speed>7.710000</speed>
<extensions>
<speed>7.7</speed>
<temp>0.00</temp>
<bpm>0</bpm>
<rpm>0.00</rpm>
</extensions>
</trkpt>
<trkpt lat="30.578788757" lon="34.789405823">
<ele>570.375000</ele>
<time>2013-11-23T10:04:39Z</time>
<speed>6.890000</speed>
<extensions>
<speed>6.9</speed>
<temp>0.00</temp>
<bpm>0</bpm>
<rpm>0.00</rpm>
</extensions>
</trkpt>
<trkpt lat="30.579071045" lon="34.789527893">
<ele>569.953125</ele>
<time>2013-11-23T10:04:44Z</time>
<speed>6.750000</speed>
<extensions>
<speed>6.7</speed>
<temp>0.00</temp>
<bpm>0</bpm>
<rpm>0.00</rpm>
</extensions>
</trkpt>
<trkpt lat="30.579353333" lon="34.789642334">
<ele>567.375000</ele>
<time>2013-11-23T10:04:49Z</time>
<speed>6.590000</speed>
<extensions>
<speed>6.6</speed>
<temp>0.00</temp>
<bpm>0</bpm>
<rpm>0.00</rpm>
</extensions>
</trkpt>
<trkpt lat="30.579620361" lon="34.789833069">
<ele>565.750000</ele>
<time>2013-11-23T10:04:54Z</time>
<speed>6.820000</speed>
<extensions>
<speed>6.8</speed>
<temp>0.00</temp>
<bpm>0</bpm>
<rpm>0.00</rpm>
</extensions>
</trkpt>
<trkpt lat="30.579771042" lon="34.790023804">
<ele>566.625000</ele>
<time>2013-11-23T10:04:59Z</time>
<speed>2.900000</speed>
<extensions>
<speed>2.9</speed>
<temp>0.00</temp>
<bpm>0</bpm>
<rpm>0.00</rpm>
</extensions>
</trkpt>
<trkpt lat="30.579818726" lon="34.790107727">
<ele>567.375000</ele>
<time>2013-11-23T10:05:04Z</time>
<speed>1.890000</speed>
<extensions>
<speed>1.9</speed>
<temp>0.00</temp>
<bpm>0</bpm>
<rpm>0.00</rpm>
</extensions>
</trkpt>
<trkpt lat="30.579874039" lon="34.790203094">
<ele>568.078125</ele>
<time>2013-11-23T10:05:09Z</time>
<speed>2.860000</speed>
<extensions>
<speed>2.9</speed>
<temp>0.00</temp>
<bpm>0</bpm>
<rpm>0.00</rpm>
</extensions>
</trkpt>
<trkpt lat="30.579936981" lon="34.790313721">
<ele>569.343750</ele>
<time>2013-11-23T10:05:14Z</time>
<speed>2.340000</speed>
<extensions>
<speed>2.3</speed>
<temp>0.00</temp>
<bpm>0</bpm>
<rpm>0.00</rpm>
</extensions>
</trkpt>
<trkpt lat="30.579982758" lon="34.790409088">
<ele>570.390625</ele>
<time>2013-11-23T10:05:19Z</time>
<speed>2.150000</speed>
<extensions>
<speed>2.1</speed>
<temp>0.00</temp>
<bpm>0</bpm>
<rpm>0.00</rpm>
</extensions>
</trkpt>
<trkpt lat="30.580028534" lon="34.790496826">
<ele>571.109375</ele>
<time>2013-11-23T10:05:24Z</time>
<speed>2.060000</speed>
<extensions>
<speed>2.1</speed>
<temp>0.00</temp>
<bpm>0</bpm>
<rpm>0.00</rpm>
</extensions>
</trkpt>
<trkpt lat="30.580068588" lon="34.790584564">
<ele>571.734375</ele>
<time>2013-11-23T10:05:29Z</time>
<speed>1.770000</speed>
<extensions>
<speed>1.8</speed>
<temp>0.00</temp>
<bpm>0</bpm>
<rpm>0.00</rpm>
</extensions>
</trkpt>
<trkpt lat="30.580101013" lon="34.790672302">
<ele>572.859375</ele>
<time>2013-11-23T10:05:34Z</time>
<speed>1.880000</speed>
<extensions>
<speed>1.9</speed>
<temp>0.00</temp>
<bpm>0</bpm>
<rpm>0.00</rpm>
</extensions>
</trkpt>
<trkpt lat="30.580118179" lon="34.790767670">
<ele>573.265625</ele>
<time>2013-11-23T10:05:39Z</time>
<speed>1.620000</speed>
<extensions>
<speed>1.6</speed>
<temp>0.00</temp>
<bpm>0</bpm>
<rpm>0.00</rpm>
</extensions>
</trkpt>
<trkpt lat="30.580144882" lon="34.790885925">
<ele>573.218750</ele>
<time>2013-11-23T10:05:44Z</time>
<speed>3.020000</speed>
<extensions>
<speed>3.0</speed>
<temp>0.00</temp>
<bpm>0</bpm>
<rpm>0.00</rpm>
</extensions>
</trkpt>
<trkpt lat="30.580183029" lon="34.791027069">
<ele>573.125000</ele>
<time>2013-11-23T10:05:49Z</time>
<speed>2.440000</speed>
<extensions>
<speed>2.4</speed>
<temp>0.00</temp>
<bpm>0</bpm>
<rpm>0.00</rpm>
</extensions>
</trkpt>
<trkpt lat="30.580234528" lon="34.791183472">
<ele>572.796875</ele>
<time>2013-11-23T10:05:54Z</time>
<speed>3.410000</speed>
<extensions>
<speed>3.4</speed>
<temp>0.00</temp>
<bpm>0</bpm>
<rpm>0.00</rpm>
</extensions>
</trkpt>
<trkpt lat="30.580257416" lon="34.791339874">
<ele>571.953125</ele>
<time>2013-11-23T10:05:59Z</time>
<speed>2.860000</speed>
<extensions>
<speed>2.9</speed>
<temp>0.00</temp>
<bpm>0</bpm>
<rpm>0.00</rpm>
</extensions>
</trkpt>
<trkpt lat="30.580280304" lon="34.791522980">
<ele>569.546875</ele>
<time>2013-11-23T10:06:04Z</time>
<speed>3.980000</speed>
<extensions>
<speed>4.0</speed>
<temp>0.00</temp>
<bpm>0</bpm>
<rpm>0.00</rpm>
</extensions>
</trkpt>
<trkpt lat="30.580318451" lon="34.791748047">
<ele>567.187500</ele>
<time>2013-11-23T10:06:09Z</time>
<speed>4.110000</speed>
<extensions>
<speed>4.1</speed>
<temp>0.00</temp>
<bpm>0</bpm>
<rpm>0.00</rpm>
</extensions>
</trkpt>
<trkpt lat="30.580354691" lon="34.791931152">
<ele>565.328125</ele>
<time>2013-11-23T10:06:14Z</time>
<speed>3.600000</speed>
<extensions>
<speed>3.6</speed>
<temp>0.00</temp>
<bpm>0</bpm>
<rpm>0.00</rpm>
</extensions>
</trkpt>
<trkpt lat="30.580373764" lon="34.792171478">
<ele>561.250000</ele>
<time>2013-11-23T10:06:19Z</time>
<speed>5.770000</speed>
<extensions>
<speed>5.8</speed>
<temp>0.00</temp>
<bpm>0</bpm>
<rpm>0.00</rpm>
</extensions>
</trkpt>
<trkpt lat="30.580404282" lon="34.792560577">
<ele>557.093750</ele>
<time>2013-11-23T10:06:24Z</time>
<speed>7.930000</speed>
<extensions>
<speed>7.9</speed>
<temp>0.00</temp>
<bpm>0</bpm>
<rpm>0.00</rpm>
</extensions>
</trkpt>
<trkpt lat="30.580381393" lon="34.792926788">
<ele>556.718750</ele>
<time>2013-11-23T10:06:29Z</time>
<speed>6.400000</speed>
<extensions>
<speed>6.4</speed>
<temp>0.00</temp>
<bpm>0</bpm>
<rpm>0.00</rpm>
</extensions>
</trkpt>
<trkpt lat="30.580310822" lon="34.793258667">
<ele>555.187500</ele>
<time>2013-11-23T10:06:34Z</time>
<speed>6.520000</speed>
<extensions>
<speed>6.5</speed>
<temp>0.00</temp>
<bpm>0</bpm>
<rpm>0.00</rpm>
</extensions>
</trkpt>
<trkpt lat="30.580270767" lon="34.793582916">
<ele>553.812500</ele>
<time>2013-11-23T10:06:39Z</time>
<speed>6.490000</speed>
<extensions>
<speed>6.5</speed>
<temp>0.00</temp>
<bpm>0</bpm>
<rpm>0.00</rpm>
</extensions>
</trkpt>
<trkpt lat="30.580169678" lon="34.793899536">
<ele>552.578125</ele>
<time>2013-11-23T10:06:44Z</time>
<speed>6.530000</speed>
<extensions>
<speed>6.5</speed>
<temp>0.00</temp>
<bpm>0</bpm>
<rpm>0.00</rpm>
</extensions>
</trkpt>
<trkpt lat="30.580104828" lon="34.794254303">
<ele>549.921875</ele>
<time>2013-11-23T10:06:49Z</time>
<speed>6.650000</speed>
<extensions>
<speed>6.7</speed>
<temp>0.00</temp>
<bpm>0</bpm>
<rpm>0.00</rpm>
</extensions>
</trkpt>
<trkpt lat="30.580059052" lon="34.794490814">
<ele>550.203125</ele>
<time>2013-11-23T10:06:54Z</time>
<speed>3.710000</speed>
<extensions>
<speed>3.7</speed>
<temp>0.00</temp>
<bpm>0</bpm>
<rpm>0.00</rpm>
</extensions>
</trkpt>
<trkpt lat="30.580026627" lon="34.794658661">
<ele>550.093750</ele>
<time>2013-11-23T10:06:59Z</time>
<speed>2.760000</speed>
<extensions>
<speed>2.8</speed>
<temp>0.00</temp>
<bpm>0</bpm>
<rpm>0.00</rpm>
</extensions>
</trkpt>
<trkpt lat="30.580005646" lon="34.794773102">
<ele>550.250000</ele>
<time>2013-11-23T10:07:04Z</time>
<speed>2.060000</speed>
<extensions>
<speed>2.1</speed>
<temp>0.00</temp>
<bpm>0</bpm>
<rpm>0.00</rpm>
</extensions>
</trkpt>
<trkpt lat="30.579980850" lon="34.794891357">
<ele>549.812500</ele>
<time>2013-11-23T10:07:09Z</time>
<speed>2.600000</speed>
<extensions>
<speed>2.6</speed>
<temp>0.00</temp>
<bpm>0</bpm>
<rpm>0.00</rpm>
</extensions>
</trkpt>
<trkpt lat="30.579952240" lon="34.795051575">
<ele>549.062500</ele>
<time>2013-11-23T10:07:14Z</time>
<speed>3.730000</speed>
<extensions>
<speed>3.7</speed>
<temp>0.00</temp>
<bpm>0</bpm>
<rpm>0.00</rpm>
</extensions>
</trkpt>
<trkpt lat="30.579902649" lon="34.795204163">
<ele>549.015625</ele>
<time>2013-11-23T10:07:19Z</time>
<speed>2.030000</speed>
<extensions>
<speed>2.0</speed>
<temp>0.00</temp>
<bpm>0</bpm>
<rpm>0.00</rpm>
</extensions>
</trkpt>
<trkpt lat="30.579885483" lon="34.795246124">
<ele>549.875000</ele>
<time>2013-11-23T10:07:24Z</time>
<speed>0.180000</speed>
<extensions>
<speed>0.2</speed>
<temp>0.00</temp>
<bpm>0</bpm>
<rpm>0.00</rpm>
</extensions>
</trkpt>
<trkpt lat="30.579877853" lon="34.795299530">
<ele>549.437500</ele>
<time>2013-11-23T10:07:29Z</time>
<speed>2.140000</speed>
<extensions>
<speed>2.1</speed>
<temp>0.00</temp>
<bpm>0</bpm>
<rpm>0.00</rpm>
</extensions>
</trkpt>
<trkpt lat="30.579853058" lon="34.795448303">
<ele>548.578125</ele>
<time>2013-11-23T10:07:34Z</time>
<speed>2.660000</speed>
<extensions>
<speed>2.7</speed>
<temp>0.00</temp>
<bpm>0</bpm>
<rpm>0.00</rpm>
</extensions>
</trkpt>
<trkpt lat="30.579828262" lon="34.795578003">
<ele>547.531250</ele>
<time>2013-11-23T10:07:39Z</time>
<speed>3.110000</speed>
<extensions>
<speed>3.1</speed>
<temp>0.00</temp>
<bpm>0</bpm>
<rpm>0.00</rpm>
</extensions>
</trkpt>
<trkpt lat="30.579795837" lon="34.795722961">
<ele>548.281250</ele>
<time>2013-11-23T10:07:44Z</time>
<speed>1.870000</speed>
<extensions>
<speed>1.9</speed>
<temp>0.00</temp>
<bpm>0</bpm>
<rpm>0.00</rpm>
</extensions>
</trkpt>
<trkpt lat="30.579763412" lon="34.795833588">
<ele>548.328125</ele>
<time>2013-11-23T10:07:49Z</time>
<speed>2.630000</speed>
<extensions>
<speed>2.6</speed>
<temp>0.00</temp>
<bpm>0</bpm>
<rpm>0.00</rpm>
</extensions>
</trkpt>
<trkpt lat="30.579746246" lon="34.795963287">
<ele>549.640625</ele>
<time>2013-11-23T10:07:54Z</time>
<speed>2.570000</speed>
<extensions>
<speed>2.6</speed>
<temp>0.00</temp>
<bpm>0</bpm>
<rpm>0.00</rpm>
</extensions>
</trkpt>
<trkpt lat="30.579715729" lon="34.796085358">
<ele>549.828125</ele>
<time>2013-11-23T10:07:59Z</time>
<speed>2.020000</speed>
<extensions>
<speed>2.0</speed>
<temp>0.00</temp>
<bpm>0</bpm>
<rpm>0.00</rpm>
</extensions>
</trkpt>
<trkpt lat="30.579692841" lon="34.796165466">
<ele>550.828125</ele>
<time>2013-11-23T10:08:04Z</time>
<speed>1.650000</speed>
<extensions>
<speed>1.7</speed>
<temp>0.00</temp>
<bpm>0</bpm>
<rpm>0.00</rpm>
</extensions>
</trkpt>
<trkpt lat="30.579673767" lon="34.796264648">
<ele>551.984375</ele>
<time>2013-11-23T10:08:09Z</time>
<speed>1.920000</speed>
<extensions>
<speed>1.9</speed>
<temp>0.00</temp>
<bpm>0</bpm>
<rpm>0.00</rpm>
</extensions>
</trkpt>
<trkpt lat="30.579648972" lon="34.796386719">
<ele>552.046875</ele>
<time>2013-11-23T10:08:14Z</time>
<speed>3.100000</speed>
<extensions>
<speed>3.1</speed>
<temp>0.00</temp>
<bpm>0</bpm>
<rpm>0.00</rpm>
</extensions>
</trkpt>
<trkpt lat="30.579647064" lon="34.796520233">
<ele>553.062500</ele>
<time>2013-11-23T10:08:19Z</time>
<speed>2.410000</speed>
<extensions>
<speed>2.4</speed>
<temp>0.00</temp>
<bpm>0</bpm>
<rpm>0.00</rpm>
</extensions>
</trkpt>
<trkpt lat="30.579641342" lon="34.796657562">
<ele>553.671875</ele>
<time>2013-11-23T10:08:24Z</time>
<speed>2.640000</speed>
<extensions>
<speed>2.6</speed>
<temp>0.00</temp>
<bpm>0</bpm>
<rpm>0.00</rpm>
</extensions>
</trkpt>
<trkpt lat="30.579643250" lon="34.796791077">
<ele>553.468750</ele>
<time>2013-11-23T10:08:29Z</time>
<speed>2.370000</speed>
<extensions>
<speed>2.4</speed>
<temp>0.00</temp>
<bpm>0</bpm>
<rpm>0.00</rpm>
</extensions>
</trkpt>
<trkpt lat="30.579645157" lon="34.796905518">
<ele>553.921875</ele>
<time>2013-11-23T10:08:34Z</time>
<speed>2.350000</speed>
<extensions>
<speed>2.4</speed>
<temp>0.00</temp>
<bpm>0</bpm>
<rpm>0.00</rpm>
</extensions>
</trkpt>
<trkpt lat="30.579631805" lon="34.797031403">
<ele>555.187500</ele>
<time>2013-11-23T10:08:39Z</time>
<speed>2.340000</speed>
<extensions>
<speed>2.3</speed>
<temp>0.00</temp>
<bpm>0</bpm>
<rpm>0.00</rpm>
</extensions>
</trkpt>
<trkpt lat="30.579614639" lon="34.797157288">
<ele>556.156250</ele>
<time>2013-11-23T10:08:44Z</time>
<speed>2.790000</speed>
<extensions>
<speed>2.8</speed>
<temp>0.00</temp>
<bpm>0</bpm>
<rpm>0.00</rpm>
</extensions>
</trkpt>
<trkpt lat="30.579626083" lon="34.797309875">
<ele>557.062500</ele>
<time>2013-11-23T10:08:49Z</time>
<speed>3.390000</speed>
<extensions>
<speed>3.4</speed>
<temp>0.00</temp>
<bpm>0</bpm>
<rpm>0.00</rpm>
</extensions>
</trkpt>
<trkpt lat="30.579643250" lon="34.797489166">
<ele>557.250000</ele>
<time>2013-11-23T10:08:54Z</time>
<speed>3.180000</speed>
<extensions>
<speed>3.2</speed>
<temp>0.00</temp>
<bpm>0</bpm>
<rpm>0.00</rpm>
</extensions>
</trkpt>
<trkpt lat="30.579668045" lon="34.797679901">
<ele>558.171875</ele>
<time>2013-11-23T10:08:59Z</time>
<speed>3.970000</speed>
<extensions>
<speed>4.0</speed>
<temp>0.00</temp>
<bpm>0</bpm>
<rpm>0.00</rpm>
</extensions>
</trkpt>
<trkpt lat="30.579708099" lon="34.797885895">
<ele>558.562500</ele>
<time>2013-11-23T10:09:04Z</time>
<speed>3.690000</speed>
<extensions>
<speed>3.7</speed>
<temp>0.00</temp>
<bpm>0</bpm>
<rpm>0.00</rpm>
</extensions>
</trkpt>
<trkpt lat="30.579713821" lon="34.798084259">
<ele>559.156250</ele>
<time>2013-11-23T10:09:09Z</time>
<speed>3.980000</speed>
<extensions>
<speed>4.0</speed>
<temp>0.00</temp>
<bpm>0</bpm>
<rpm>0.00</rpm>
</extensions>
</trkpt>
<trkpt lat="30.579750061" lon="34.798316956">
<ele>559.531250</ele>
<time>2013-11-23T10:09:14Z</time>
<speed>4.800000</speed>
<extensions>
<speed>4.8</speed>
<temp>0.00</temp>
<bpm>0</bpm>
<rpm>0.00</rpm>
</extensions>
</trkpt>
<trkpt lat="30.579757690" lon="34.798530579">
<ele>559.390625</ele>
<time>2013-11-23T10:09:19Z</time>
<speed>3.420000</speed>
<extensions>
<speed>3.4</speed>
<temp>0.00</temp>
<bpm>0</bpm>
<rpm>0.00</rpm>
</extensions>
</trkpt>
<trkpt lat="30.579734802" lon="34.798744202">
<ele>559.218750</ele>
<time>2013-11-23T10:09:24Z</time>
<speed>4.360000</speed>
<extensions>
<speed>4.4</speed>
<temp>0.00</temp>
<bpm>0</bpm>
<rpm>0.00</rpm>
</extensions>
</trkpt>
<trkpt lat="30.579702377" lon="34.798965454">
<ele>558.968750</ele>
<time>2013-11-23T10:09:29Z</time>
<speed>3.850000</speed>
<extensions>
<speed>3.8</speed>
<temp>0.00</temp>
<bpm>0</bpm>
<rpm>0.00</rpm>
</extensions>
</trkpt>
<trkpt lat="30.579668045" lon="34.799125671">
<ele>559.171875</ele>
<time>2013-11-23T10:09:34Z</time>
<speed>2.940000</speed>
<extensions>
<speed>2.9</speed>
<temp>0.00</temp>
<bpm>0</bpm>
<rpm>0.00</rpm>
</extensions>
</trkpt>
<trkpt lat="30.579622269" lon="34.799297333">
<ele>559.312500</ele>
<time>2013-11-23T10:09:39Z</time>
<speed>3.640000</speed>
<extensions>
<speed>3.6</speed>
<temp>0.00</temp>
<bpm>0</bpm>
<rpm>0.00</rpm>
</extensions>
</trkpt>
<trkpt lat="30.579582214" lon="34.799484253">
<ele>558.906250</ele>
<time>2013-11-23T10:09:44Z</time>
<speed>3.770000</speed>
<extensions>
<speed>3.8</speed>
<temp>0.00</temp>
<bpm>0</bpm>
<rpm>0.00</rpm>
</extensions>
</trkpt>
<trkpt lat="30.579595566" lon="34.799659729">
<ele>559.796875</ele>
<time>2013-11-23T10:09:49Z</time>
<speed>4.020000</speed>
<extensions>
<speed>4.0</speed>
<temp>0.00</temp>
<bpm>0</bpm>
<rpm>0.00</rpm>
</extensions>
</trkpt>
<trkpt lat="30.579708099" lon="34.799839020">
<ele>559.625000</ele>
<time>2013-11-23T10:09:54Z</time>
<speed>4.150000</speed>
<extensions>
<speed>4.1</speed>
<temp>0.00</temp>
<bpm>0</bpm>
<rpm>0.00</rpm>
</extensions>
</trkpt>
<trkpt lat="30.579828262" lon="34.799987793">
<ele>560.046875</ele>
<time>2013-11-23T10:09:59Z</time>
<speed>3.820000</speed>
<extensions>
<speed>3.8</speed>
<temp>0.00</temp>
<bpm>0</bpm>
<rpm>0.00</rpm>
</extensions>
</trkpt>
<trkpt lat="30.579927444" lon="34.800121307">
<ele>560.281250</ele>
<time>2013-11-23T10:10:04Z</time>
<speed>3.220000</speed>
<extensions>
<speed>3.2</speed>
<temp>0.00</temp>
<bpm>0</bpm>
<rpm>0.00</rpm>
</extensions>
</trkpt>
<trkpt lat="30.580020905" lon="34.800243378">
<ele>559.656250</ele>
<time>2013-11-23T10:10:09Z</time>
<speed>3.320000</speed>
<extensions>
<speed>3.3</speed>
<temp>0.00</temp>
<bpm>0</bpm>
<rpm>0.00</rpm>
</extensions>
</trkpt>
<trkpt lat="30.580116272" lon="34.800365448">
<ele>560.609375</ele>
<time>2013-11-23T10:10:14Z</time>
<speed>3.480000</speed>
<extensions>
<speed>3.5</speed>
<temp>0.00</temp>
<bpm>0</bpm>
<rpm>0.00</rpm>
</extensions>
</trkpt>
<trkpt lat="30.580219269" lon="34.800498962">
<ele>560.656250</ele>
<time>2013-11-23T10:10:19Z</time>
<speed>3.070000</speed>
<extensions>
<speed>3.1</speed>
<temp>0.00</temp>
<bpm>0</bpm>
<rpm>0.00</rpm>
</extensions>
</trkpt>
<trkpt lat="30.580291748" lon="34.800617218">
<ele>560.890625</ele>
<time>2013-11-23T10:10:24Z</time>
<speed>2.760000</speed>
<extensions>
<speed>2.8</speed>
<temp>0.00</temp>
<bpm>0</bpm>
<rpm>0.00</rpm>
</extensions>
</trkpt>
<trkpt lat="30.580364227" lon="34.800727844">
<ele>561.437500</ele>
<time>2013-11-23T10:10:29Z</time>
<speed>2.760000</speed>
<extensions>
<speed>2.8</speed>
<temp>0.00</temp>
<bpm>0</bpm>
<rpm>0.00</rpm>
</extensions>
</trkpt>
<trkpt lat="30.580446243" lon="34.800849915">
<ele>561.312500</ele>
<time>2013-11-23T10:10:34Z</time>
<speed>2.910000</speed>
<extensions>
<speed>2.9</speed>
<temp>0.00</temp>
<bpm>0</bpm>
<rpm>0.00</rpm>
</extensions>
</trkpt>
<trkpt lat="30.580549240" lon="34.800983429">
<ele>561.625000</ele>
<time>2013-11-23T10:10:39Z</time>
<speed>4.200000</speed>
<extensions>
<speed>4.2</speed>
<temp>0.00</temp>
<bpm>0</bpm>
<rpm>0.00</rpm>
</extensions>
</trkpt>
<trkpt lat="30.580671310" lon="34.801143646">
<ele>561.937500</ele>
<time>2013-11-23T10:10:44Z</time>
<speed>3.910000</speed>
<extensions>
<speed>3.9</speed>
<temp>0.00</temp>
<bpm>0</bpm>
<rpm>0.00</rpm>
</extensions>
</trkpt>
<trkpt lat="30.580791473" lon="34.801280975">
<ele>560.968750</ele>
<time>2013-11-23T10:10:49Z</time>
<speed>2.990000</speed>
<extensions>
<speed>3.0</speed>
<temp>0.00</temp>
<bpm>0</bpm>
<rpm>0.00</rpm>
</extensions>
</trkpt>
<trkpt lat="30.580894470" lon="34.801406860">
<ele>560.953125</ele>
<time>2013-11-23T10:10:54Z</time>
<speed>3.740000</speed>
<extensions>
<speed>3.7</speed>
<temp>0.00</temp>
<bpm>0</bpm>
<rpm>0.00</rpm>
</extensions>
</trkpt>
<trkpt lat="30.581012726" lon="34.801578522">
<ele>559.406250</ele>
<time>2013-11-23T10:10:59Z</time>
<speed>4.170000</speed>
<extensions>
<speed>4.2</speed>
<temp>0.00</temp>
<bpm>0</bpm>
<rpm>0.00</rpm>
</extensions>
</trkpt>
<trkpt lat="30.581132889" lon="34.801742554">
<ele>559.781250</ele>
<time>2013-11-23T10:11:04Z</time>
<speed>4.450000</speed>
<extensions>
<speed>4.5</speed>
<temp>0.00</temp>
<bpm>0</bpm>
<rpm>0.00</rpm>
</extensions>
</trkpt>
<trkpt lat="30.581285477" lon="34.801883698">
<ele>558.734375</ele>
<time>2013-11-23T10:11:09Z</time>
<speed>4.400000</speed>
<extensions>
<speed>4.4</speed>
<temp>0.00</temp>
<bpm>0</bpm>
<rpm>0.00</rpm>
</extensions>
</trkpt>
<trkpt lat="30.581405640" lon="34.802082062">
<ele>557.671875</ele>
<time>2013-11-23T10:11:14Z</time>
<speed>4.900000</speed>
<extensions>
<speed>4.9</speed>
<temp>0.00</temp>
<bpm>0</bpm>
<rpm>0.00</rpm>
</extensions>
</trkpt>
<trkpt lat="30.581520081" lon="34.802291870">
<ele>557.015625</ele>
<time>2013-11-23T10:11:19Z</time>
<speed>4.520000</speed>
<extensions>
<speed>4.5</speed>
<temp>0.00</temp>
<bpm>0</bpm>
<rpm>0.00</rpm>
</extensions>
</trkpt>
<trkpt lat="30.581636429" lon="34.802467346">
<ele>557.515625</ele>
<time>2013-11-23T10:11:24Z</time>
<speed>3.990000</speed>
<extensions>
<speed>4.0</speed>
<temp>0.00</temp>
<bpm>0</bpm>
<rpm>0.00</rpm>
</extensions>
</trkpt>
<trkpt lat="30.581756592" lon="34.802585602">
<ele>558.140625</ele>
<time>2013-11-23T10:11:29Z</time>
<speed>2.750000</speed>
<extensions>
<speed>2.7</speed>
<temp>0.00</temp>
<bpm>0</bpm>
<rpm>0.00</rpm>
</extensions>
</trkpt>
<trkpt lat="30.581832886" lon="34.802639008">
<ele>558.781250</ele>
<time>2013-11-23T10:11:34Z</time>
<speed>0.250000</speed>
<extensions>
<speed>0.2</speed>
<temp>0.00</temp>
<bpm>0</bpm>
<rpm>0.00</rpm>
</extensions>
</trkpt>
<trkpt lat="30.581832886" lon="34.802639008">
<ele>558.406250</ele>
<time>2013-11-23T10:11:39Z</time>
<speed>0.010000</speed>
<extensions>
<speed>0.0</speed>
<temp>0.00</temp>
<bpm>0</bpm>
<rpm>0.00</rpm>
</extensions>
</trkpt>
<trkpt lat="30.581832886" lon="34.802639008">
<ele>558.328125</ele>
<time>2013-11-23T10:11:44Z</time>
<speed>0.010000</speed>
<extensions>
<speed>0.0</speed>
<temp>0.00</temp>
<bpm>0</bpm>
<rpm>0.00</rpm>
</extensions>
</trkpt>
<trkpt lat="30.581830978" lon="34.802639008">
<ele>558.281250</ele>
<time>2013-11-23T10:11:49Z</time>
<extensions>
<speed>0.0</speed>
<temp>0.00</temp>
<bpm>0</bpm>
<rpm>0.00</rpm>
</extensions>
</trkpt>
<trkpt lat="30.581830978" lon="34.802639008">
<ele>558.296875</ele>
<time>2013-11-23T10:11:54Z</time>
<extensions>
<speed>0.0</speed>
<temp>0.00</temp>
<bpm>0</bpm>
<rpm>0.00</rpm>
</extensions>
</trkpt>
<trkpt lat="30.581832886" lon="34.802639008">
<ele>558.234375</ele>
<time>2013-11-23T10:11:59Z</time>
<speed>0.130000</speed>
<extensions>
<speed>0.1</speed>
<temp>0.00</temp>
<bpm>0</bpm>
<rpm>0.00</rpm>
</extensions>
</trkpt>
<trkpt lat="30.581886292" lon="34.802684784">
<ele>558.203125</ele>
<time>2013-11-23T10:12:04Z</time>
<speed>2.970000</speed>
<extensions>
<speed>3.0</speed>
<temp>0.00</temp>
<bpm>0</bpm>
<rpm>0.00</rpm>
</extensions>
</trkpt>
<trkpt lat="30.581972122" lon="34.802776337">
<ele>557.671875</ele>
<time>2013-11-23T10:12:09Z</time>
<speed>2.360000</speed>
<extensions>
<speed>2.4</speed>
<temp>0.00</temp>
<bpm>0</bpm>
<rpm>0.00</rpm>
</extensions>
</trkpt>
<trkpt lat="30.582099915" lon="34.802860260">
<ele>556.875000</ele>
<time>2013-11-23T10:12:14Z</time>
<speed>3.750000</speed>
<extensions>
<speed>3.8</speed>
<temp>0.00</temp>
<bpm>0</bpm>
<rpm>0.00</rpm>
</extensions>
</trkpt>
<trkpt lat="30.582248688" lon="34.802936554">
<ele>556.281250</ele>
<time>2013-11-23T10:12:19Z</time>
<speed>3.370000</speed>
<extensions>
<speed>3.4</speed>
<temp>0.00</temp>
<bpm>0</bpm>
<rpm>0.00</rpm>
</extensions>
</trkpt>
<trkpt lat="30.582384109" lon="34.802993774">
<ele>556.062500</ele>
<time>2013-11-23T10:12:24Z</time>
<speed>3.190000</speed>
<extensions>
<speed>3.2</speed>
<temp>0.00</temp>
<bpm>0</bpm>
<rpm>0.00</rpm>
</extensions>
</trkpt>
<trkpt lat="30.582540512" lon="34.803077698">
<ele>555.390625</ele>
<time>2013-11-23T10:12:29Z</time>
<speed>3.880000</speed>
<extensions>
<speed>3.9</speed>
<temp>0.00</temp>
<bpm>0</bpm>
<rpm>0.00</rpm>
</extensions>
</trkpt>
<trkpt lat="30.582683563" lon="34.803176880">
<ele>555.515625</ele>
<time>2013-11-23T10:12:34Z</time>
<speed>3.580000</speed>
<extensions>
<speed>3.6</speed>
<temp>0.00</temp>
<bpm>0</bpm>
<rpm>0.00</rpm>
</extensions>
</trkpt>
<trkpt lat="30.582826614" lon="34.803264618">
<ele>555.421875</ele>
<time>2013-11-23T10:12:39Z</time>
<speed>3.730000</speed>
<extensions>
<speed>3.7</speed>
<temp>0.00</temp>
<bpm>0</bpm>
<rpm>0.00</rpm>
</extensions>
</trkpt>
<trkpt lat="30.582956314" lon="34.803356171">
<ele>554.953125</ele>
<time>2013-11-23T10:12:44Z</time>
<speed>3.260000</speed>
<extensions>
<speed>3.3</speed>
<temp>0.00</temp>
<bpm>0</bpm>
<rpm>0.00</rpm>
</extensions>
</trkpt>
<trkpt lat="30.583105087" lon="34.803451538">
<ele>554.328125</ele>
<time>2013-11-23T10:12:49Z</time>
<speed>3.980000</speed>
<extensions>
<speed>4.0</speed>
<temp>0.00</temp>
<bpm>0</bpm>
<rpm>0.00</rpm>
</extensions>
</trkpt>
<trkpt lat="30.583250046" lon="34.803554535">
<ele>554.265625</ele>
<time>2013-11-23T10:12:54Z</time>
<speed>3.500000</speed>
<extensions>
<speed>3.5</speed>
<temp>0.00</temp>
<bpm>0</bpm>
<rpm>0.00</rpm>
</extensions>
</trkpt>
<trkpt lat="30.583385468" lon="34.803642273">
<ele>554.156250</ele>
<time>2013-11-23T10:12:59Z</time>
<speed>3.460000</speed>
<extensions>
<speed>3.5</speed>
<temp>0.00</temp>
<bpm>0</bpm>
<rpm>0.00</rpm>
</extensions>
</trkpt>
<trkpt lat="30.583513260" lon="34.803733826">
<ele>553.453125</ele>
<time>2013-11-23T10:13:04Z</time>
<speed>3.180000</speed>
<extensions>
<speed>3.2</speed>
<temp>0.00</temp>
<bpm>0</bpm>
<rpm>0.00</rpm>
</extensions>
</trkpt>
<trkpt lat="30.583620071" lon="34.803821564">
<ele>553.609375</ele>
<time>2013-11-23T10:13:09Z</time>
<speed>2.760000</speed>
<extensions>
<speed>2.8</speed>
<temp>0.00</temp>
<bpm>0</bpm>
<rpm>0.00</rpm>
</extensions>
</trkpt>
<trkpt lat="30.583751678" lon="34.803943634">
<ele>553.265625</ele>
<time>2013-11-23T10:13:14Z</time>
<speed>4.010000</speed>
<extensions>
<speed>4.0</speed>
<temp>0.00</temp>
<bpm>0</bpm>
<rpm>0.00</rpm>
</extensions>
</trkpt>
<trkpt lat="30.583875656" lon="34.804084778">
<ele>552.968750</ele>
<time>2013-11-23T10:13:19Z</time>
<speed>3.790000</speed>
<extensions>
<speed>3.8</speed>
<temp>0.00</temp>
<bpm>0</bpm>
<rpm>0.00</rpm>
</extensions>
</trkpt>
<trkpt lat="30.584014893" lon="34.804222107">
<ele>551.906250</ele>
<time>2013-11-23T10:13:24Z</time>
<speed>4.090000</speed>
<extensions>
<speed>4.1</speed>
<temp>0.00</temp>
<bpm>0</bpm>
<rpm>0.00</rpm>
</extensions>
</trkpt>
<trkpt lat="30.584154129" lon="34.804344177">
<ele>551.734375</ele>
<time>2013-11-23T10:13:29Z</time>
<speed>3.580000</speed>
<extensions>
<speed>3.6</speed>
<temp>0.00</temp>
<bpm>0</bpm>
<rpm>0.00</rpm>
</extensions>
</trkpt>
<trkpt lat="30.584287643" lon="34.804470062">
<ele>551.218750</ele>
<time>2013-11-23T10:13:34Z</time>
<speed>3.960000</speed>
<extensions>
<speed>4.0</speed>
<temp>0.00</temp>
<bpm>0</bpm>
<rpm>0.00</rpm>
</extensions>
</trkpt>
<trkpt lat="30.584413528" lon="34.804607391">
<ele>550.343750</ele>
<time>2013-11-23T10:13:39Z</time>
<speed>3.640000</speed>
<extensions>
<speed>3.6</speed>
<temp>0.00</temp>
<bpm>0</bpm>
<rpm>0.00</rpm>
</extensions>
</trkpt>
<trkpt lat="30.584539413" lon="34.804729462">
<ele>550.062500</ele>
<time>2013-11-23T10:13:44Z</time>
<speed>3.800000</speed>
<extensions>
<speed>3.8</speed>
<temp>0.00</temp>
<bpm>0</bpm>
<rpm>0.00</rpm>
</extensions>
</trkpt>
<trkpt lat="30.584642410" lon="34.804897308">
<ele>549.625000</ele>
<time>2013-11-23T10:13:49Z</time>
<speed>4.270000</speed>
<extensions>
<speed>4.3</speed>
<temp>0.00</temp>
<bpm>0</bpm>
<rpm>0.00</rpm>
</extensions>
</trkpt>
<trkpt lat="30.584735870" lon="34.805103302">
<ele>549.218750</ele>
<time>2013-11-23T10:13:54Z</time>
<speed>4.300000</speed>
<extensions>
<speed>4.3</speed>
<temp>0.00</temp>
<bpm>0</bpm>
<rpm>0.00</rpm>
</extensions>
</trkpt>
<trkpt lat="30.584806442" lon="34.805294037">
<ele>548.734375</ele>
<time>2013-11-23T10:13:59Z</time>
<speed>3.870000</speed>
<extensions>
<speed>3.9</speed>
<temp>0.00</temp>
<bpm>0</bpm>
<rpm>0.00</rpm>
</extensions>
</trkpt>
<trkpt lat="30.584867477" lon="34.805465698">
<ele>547.593750</ele>
<time>2013-11-23T10:14:04Z</time>
<speed>3.150000</speed>
<extensions>
<speed>3.2</speed>
<temp>0.00</temp>
<bpm>0</bpm>
<rpm>0.00</rpm>
</extensions>
</trkpt>
<trkpt lat="30.584892273" lon="34.805595398">
<ele>546.031250</ele>
<time>2013-11-23T10:14:09Z</time>
<speed>1.960000</speed>
<extensions>
<speed>2.0</speed>
<temp>0.00</temp>
<bpm>0</bpm>
<rpm>0.00</rpm>
</extensions>
</trkpt>
<trkpt lat="30.584890366" lon="34.805709839">
<ele>543.812500</ele>
<time>2013-11-23T10:14:14Z</time>
<speed>2.220000</speed>
<extensions>
<speed>2.2</speed>
<temp>0.00</temp>
<bpm>0</bpm>
<rpm>0.00</rpm>
</extensions>
</trkpt>
<trkpt lat="30.584884644" lon="34.805835724">
<ele>540.734375</ele>
<time>2013-11-23T10:14:19Z</time>
<speed>2.290000</speed>
<extensions>
<speed>2.3</speed>
<temp>0.00</temp>
<bpm>0</bpm>
<rpm>0.00</rpm>
</extensions>
</trkpt>
<trkpt lat="30.584886551" lon="34.805969238">
<ele>538.328125</ele>
<time>2013-11-23T10:14:24Z</time>
<speed>2.950000</speed>
<extensions>
<speed>2.9</speed>
<temp>0.00</temp>
<bpm>0</bpm>
<rpm>0.00</rpm>
</extensions>
</trkpt>
<trkpt lat="30.584970474" lon="34.806083679">
<ele>536.375000</ele>
<time>2013-11-23T10:14:29Z</time>
<speed>2.760000</speed>
<extensions>
<speed>2.8</speed>
<temp>0.00</temp>
<bpm>0</bpm>
<rpm>0.00</rpm>
</extensions>
</trkpt>
<trkpt lat="30.585088730" lon="34.806152344">
<ele>535.250000</ele>
<time>2013-11-23T10:14:34Z</time>
<speed>3.060000</speed>
<extensions>
<speed>3.1</speed>
<temp>0.00</temp>
<bpm>0</bpm>
<rpm>0.00</rpm>
</extensions>
</trkpt>
<trkpt lat="30.585258484" lon="34.806175232">
<ele>534.390625</ele>
<time>2013-11-23T10:14:39Z</time>
<speed>4.470000</speed>
<extensions>
<speed>4.5</speed>
<temp>0.00</temp>
<bpm>0</bpm>
<rpm>0.00</rpm>
</extensions>
</trkpt>
<trkpt lat="30.585443497" lon="34.806324005">
<ele>535.203125</ele>
<time>2013-11-23T10:14:44Z</time>
<speed>5.070000</speed>
<extensions>
<speed>5.1</speed>
<temp>0.00</temp>
<bpm>0</bpm>
<rpm>0.00</rpm>
</extensions>
</trkpt>
<trkpt lat="30.585672379" lon="34.806358337">
<ele>535.234375</ele>
<time>2013-11-23T10:14:49Z</time>
<speed>4.880000</speed>
<extensions>
<speed>4.9</speed>
<temp>0.00</temp>
<bpm>0</bpm>
<rpm>0.00</rpm>
</extensions>
</trkpt>
<trkpt lat="30.585880280" lon="34.806350708">
<ele>534.687500</ele>
<time>2013-11-23T10:14:54Z</time>
<speed>3.680000</speed>
<extensions>
<speed>3.7</speed>
<temp>0.00</temp>
<bpm>0</bpm>
<rpm>0.00</rpm>
</extensions>
</trkpt>
<trkpt lat="30.585979462" lon="34.806415558">
<ele>534.640625</ele>
<time>2013-11-23T10:14:59Z</time>
<speed>2.630000</speed>
<extensions>
<speed>2.6</speed>
<temp>0.00</temp>
<bpm>0</bpm>
<rpm>0.00</rpm>
</extensions>
</trkpt>
<trkpt lat="30.586002350" lon="34.806560516">
<ele>534.250000</ele>
<time>2013-11-23T10:15:04Z</time>
<speed>2.750000</speed>
<extensions>
<speed>2.7</speed>
<temp>0.00</temp>
<bpm>0</bpm>
<rpm>0.00</rpm>
</extensions>
</trkpt>
<trkpt lat="30.586027145" lon="34.806697845">
<ele>534.234375</ele>
<time>2013-11-23T10:15:09Z</time>
<speed>2.210000</speed>
<extensions>
<speed>2.2</speed>
<temp>0.00</temp>
<bpm>0</bpm>
<rpm>0.00</rpm>
</extensions>
</trkpt>
<trkpt lat="30.586053848" lon="34.806793213">
<ele>534.625000</ele>
<time>2013-11-23T10:15:14Z</time>
<speed>2.410000</speed>
<extensions>
<speed>2.4</speed>
<temp>0.00</temp>
<bpm>0</bpm>
<rpm>0.00</rpm>
</extensions>
</trkpt>
<trkpt lat="30.586118698" lon="34.806919098">
<ele>533.500000</ele>
<time>2013-11-23T10:15:19Z</time>
<speed>4.100000</speed>
<extensions>
<speed>4.1</speed>
<temp>0.00</temp>
<bpm>0</bpm>
<rpm>0.00</rpm>
</extensions>
</trkpt>
<trkpt lat="30.586261749" lon="34.807067871">
<ele>533.937500</ele>
<time>2013-11-23T10:15:24Z</time>
<speed>3.840000</speed>
<extensions>
<speed>3.8</speed>
<temp>0.00</temp>
<bpm>0</bpm>
<rpm>0.00</rpm>
</extensions>
</trkpt>
<trkpt lat="30.586385727" lon="34.807170868">
<ele>533.156250</ele>
<time>2013-11-23T10:15:29Z</time>
<speed>3.390000</speed>
<extensions>
<speed>3.4</speed>
<temp>0.00</temp>
<bpm>0</bpm>
<rpm>0.00</rpm>
</extensions>
</trkpt>
<trkpt lat="30.586462021" lon="34.807315826">
<ele>533.312500</ele>
<time>2013-11-23T10:15:34Z</time>
<speed>2.760000</speed>
<extensions>
<speed>2.8</speed>
<temp>0.00</temp>
<bpm>0</bpm>
<rpm>0.00</rpm>
</extensions>
</trkpt>
<trkpt lat="30.586494446" lon="34.807415009">
<ele>533.953125</ele>
<time>2013-11-23T10:15:39Z</time>
<speed>1.850000</speed>
<extensions>
<speed>1.8</speed>
<temp>0.00</temp>
<bpm>0</bpm>
<rpm>0.00</rpm>
</extensions>
</trkpt>
<trkpt lat="30.586513519" lon="34.807491302">
<ele>534.921875</ele>
<time>2013-11-23T10:15:44Z</time>
<speed>1.540000</speed>
<extensions>
<speed>1.5</speed>
<temp>0.00</temp>
<bpm>0</bpm>
<rpm>0.00</rpm>
</extensions>
</trkpt>
<trkpt lat="30.586532593" lon="34.807537079">
<ele>535.000000</ele>
<time>2013-11-23T10:15:49Z</time>
<speed>0.040000</speed>
<extensions>
<speed>0.0</speed>
<temp>0.00</temp>
<bpm>0</bpm>
<rpm>0.00</rpm>
</extensions>
</trkpt>
<trkpt lat="30.586532593" lon="34.807548523">
<ele>534.421875</ele>
<time>2013-11-23T10:15:54Z</time>
<speed>0.240000</speed>
<extensions>
<speed>0.2</speed>
<temp>0.00</temp>
<bpm>0</bpm>
<rpm>0.00</rpm>
</extensions>
</trkpt>
<trkpt lat="30.586528778" lon="34.807563782">
<ele>534.515625</ele>
<time>2013-11-23T10:15:59Z</time>
<speed>0.810000</speed>
<extensions>
<speed>0.8</speed>
<temp>0.00</temp>
<bpm>0</bpm>
<rpm>0.00</rpm>
</extensions>
</trkpt>
<trkpt lat="30.586526871" lon="34.807601929">
<ele>535.046875</ele>
<time>2013-11-23T10:16:04Z</time>
<speed>0.870000</speed>
<extensions>
<speed>0.9</speed>
<temp>0.00</temp>
<bpm>0</bpm>
<rpm>0.00</rpm>
</extensions>
</trkpt>
<trkpt lat="30.586511612" lon="34.807640076">
<ele>535.812500</ele>
<time>2013-11-23T10:16:09Z</time>
<speed>0.870000</speed>
<extensions>
<speed>0.9</speed>
<temp>0.00</temp>
<bpm>0</bpm>
<rpm>0.00</rpm>
</extensions>
</trkpt>
<trkpt lat="30.586490631" lon="34.807678223">
<ele>536.593750</ele>
<time>2013-11-23T10:16:14Z</time>
<speed>0.830000</speed>
<extensions>
<speed>0.8</speed>
<temp>0.00</temp>
<bpm>0</bpm>
<rpm>0.00</rpm>
</extensions>
</trkpt>
<trkpt lat="30.586473465" lon="34.807712555">
<ele>537.046875</ele>
<time>2013-11-23T10:16:19Z</time>
<speed>0.690000</speed>
<extensions>
<speed>0.7</speed>
<temp>0.00</temp>
<bpm>0</bpm>
<rpm>0.00</rpm>
</extensions>
</trkpt>
<trkpt lat="30.586460114" lon="34.807739258">
<ele>537.359375</ele>
<time>2013-11-23T10:16:24Z</time>
<speed>0.730000</speed>
<extensions>
<speed>0.7</speed>
<temp>0.00</temp>
<bpm>0</bpm>
<rpm>0.00</rpm>
</extensions>
</trkpt>
<trkpt lat="30.586446762" lon="34.807773590">
<ele>537.734375</ele>
<time>2013-11-23T10:16:29Z</time>
<speed>0.870000</speed>
<extensions>
<speed>0.9</speed>
<temp>0.00</temp>
<bpm>0</bpm>
<rpm>0.00</rpm>
</extensions>
</trkpt>
<trkpt lat="30.586433411" lon="34.807807922">
<ele>538.203125</ele>
<time>2013-11-23T10:16:34Z</time>
<speed>0.620000</speed>
<extensions>
<speed>0.6</speed>
<temp>0.00</temp>
<bpm>0</bpm>
<rpm>0.00</rpm>
</extensions>
</trkpt>
<trkpt lat="30.586421967" lon="34.807838440">
<ele>538.562500</ele>
<time>2013-11-23T10:16:39Z</time>
<speed>0.630000</speed>
<extensions>
<speed>0.6</speed>
<temp>0.00</temp>
<bpm>0</bpm>
<rpm>0.00</rpm>
</extensions>
</trkpt>
<trkpt lat="30.586414337" lon="34.807872772">
<ele>539.171875</ele>
<time>2013-11-23T10:16:44Z</time>
<speed>0.360000</speed>
<extensions>
<speed>0.4</speed>
<temp>0.00</temp>
<bpm>0</bpm>
<rpm>0.00</rpm>
</extensions>
</trkpt>
<trkpt lat="30.586416245" lon="34.807903290">
<ele>539.625000</ele>
<time>2013-11-23T10:16:49Z</time>
<speed>0.880000</speed>
<extensions>
<speed>0.9</speed>
<temp>0.00</temp>
<bpm>0</bpm>
<rpm>0.00</rpm>
</extensions>
</trkpt>
<trkpt lat="30.586420059" lon="34.807949066">
<ele>540.171875</ele>
<time>2013-11-23T10:16:54Z</time>
<speed>0.930000</speed>
<extensions>
<speed>0.9</speed>
<temp>0.00</temp>
<bpm>0</bpm>
<rpm>0.00</rpm>
</extensions>
</trkpt>
<trkpt lat="30.586435318" lon="34.807994843">
<ele>540.937500</ele>
<time>2013-11-23T10:16:59Z</time>
<speed>1.100000</speed>
<extensions>
<speed>1.1</speed>
<temp>0.00</temp>
<bpm>0</bpm>
<rpm>0.00</rpm>
</extensions>
</trkpt>
<trkpt lat="30.586462021" lon="34.808048248">
<ele>541.828125</ele>
<time>2013-11-23T10:17:04Z</time>
<speed>0.970000</speed>
<extensions>
<speed>1.0</speed>
<temp>0.00</temp>
<bpm>0</bpm>
<rpm>0.00</rpm>
</extensions>
</trkpt>
<trkpt lat="30.586486816" lon="34.808078766">
<ele>542.781250</ele>
<time>2013-11-23T10:17:09Z</time>
<speed>0.710000</speed>
<extensions>
<speed>0.7</speed>
<temp>0.00</temp>
<bpm>0</bpm>
<rpm>0.00</rpm>
</extensions>
</trkpt>
<trkpt lat="30.586498260" lon="34.808086395">
<ele>542.296875</ele>
<time>2013-11-23T10:17:14Z</time>
<speed>0.470000</speed>
<extensions>
<speed>0.5</speed>
<temp>0.00</temp>
<bpm>0</bpm>
<rpm>0.00</rpm>
</extensions>
</trkpt>
<trkpt lat="30.586524963" lon="34.808113098">
<ele>542.578125</ele>
<time>2013-11-23T10:17:19Z</time>
<speed>1.640000</speed>
<extensions>
<speed>1.6</speed>
<temp>0.00</temp>
<bpm>0</bpm>
<rpm>0.00</rpm>
</extensions>
</trkpt>
<trkpt lat="30.586595535" lon="34.808170319">
<ele>542.375000</ele>
<time>2013-11-23T10:17:24Z</time>
<speed>2.480000</speed>
<extensions>
<speed>2.5</speed>
<temp>0.00</temp>
<bpm>0</bpm>
<rpm>0.00</rpm>
</extensions>
</trkpt>
<trkpt lat="30.586677551" lon="34.808238983">
<ele>542.078125</ele>
<time>2013-11-23T10:17:29Z</time>
<speed>1.480000</speed>
<extensions>
<speed>1.5</speed>
<temp>0.00</temp>
<bpm>0</bpm>
<rpm>0.00</rpm>
</extensions>
</trkpt>
<trkpt lat="30.586721420" lon="34.808284760">
<ele>542.046875</ele>
<time>2013-11-23T10:17:34Z</time>
<speed>1.440000</speed>
<extensions>
<speed>1.4</speed>
<temp>0.00</temp>
<bpm>0</bpm>
<rpm>0.00</rpm>
</extensions>
</trkpt>
<trkpt lat="30.586769104" lon="34.808391571">
<ele>542.171875</ele>
<time>2013-11-23T10:17:39Z</time>
<speed>2.470000</speed>
<extensions>
<speed>2.5</speed>
<temp>0.00</temp>
<bpm>0</bpm>
<rpm>0.00</rpm>
</extensions>
</trkpt>
<trkpt lat="30.586807251" lon="34.808532715">
<ele>541.312500</ele>
<time>2013-11-23T10:17:44Z</time>
<speed>3.190000</speed>
<extensions>
<speed>3.2</speed>
<temp>0.00</temp>
<bpm>0</bpm>
<rpm>0.00</rpm>
</extensions>
</trkpt>
<trkpt lat="30.586828232" lon="34.808696747">
<ele>541.078125</ele>
<time>2013-11-23T10:17:49Z</time>
<speed>3.400000</speed>
<extensions>
<speed>3.4</speed>
<temp>0.00</temp>
<bpm>0</bpm>
<rpm>0.00</rpm>
</extensions>
</trkpt>
<trkpt lat="30.586847305" lon="34.808876038">
<ele>540.593750</ele>
<time>2013-11-23T10:17:54Z</time>
<speed>3.300000</speed>
<extensions>
<speed>3.3</speed>
<temp>0.00</temp>
<bpm>0</bpm>
<rpm>0.00</rpm>
</extensions>
</trkpt>
<trkpt lat="30.586868286" lon="34.809051514">
<ele>540.312500</ele>
<time>2013-11-23T10:17:59Z</time>
<speed>3.560000</speed>
<extensions>
<speed>3.6</speed>
<temp>0.00</temp>
<bpm>0</bpm>
<rpm>0.00</rpm>
</extensions>
</trkpt>
<trkpt lat="30.586952209" lon="34.809276581">
<ele>538.781250</ele>
<time>2013-11-23T10:18:04Z</time>
<speed>5.640000</speed>
<extensions>
<speed>5.6</speed>
<temp>0.00</temp>
<bpm>0</bpm>
<rpm>0.00</rpm>
</extensions>
</trkpt>
<trkpt lat="30.587089539" lon="34.809570313">
<ele>538.203125</ele>
<time>2013-11-23T10:18:09Z</time>
<speed>6.710000</speed>
<extensions>
<speed>6.7</speed>
<temp>0.00</temp>
<bpm>0</bpm>
<rpm>0.00</rpm>
</extensions>
</trkpt>
<trkpt lat="30.587217331" lon="34.809867859">
<ele>538.312500</ele>
<time>2013-11-23T10:18:14Z</time>
<speed>5.790000</speed>
<extensions>
<speed>5.8</speed>
<temp>0.00</temp>
<bpm>0</bpm>
<rpm>0.00</rpm>
</extensions>
</trkpt>
<trkpt lat="30.587293625" lon="34.810142517">
<ele>538.125000</ele>
<time>2013-11-23T10:18:19Z</time>
<speed>5.060000</speed>
<extensions>
<speed>5.1</speed>
<temp>0.00</temp>
<bpm>0</bpm>
<rpm>0.00</rpm>
</extensions>
</trkpt>
<trkpt lat="30.587335587" lon="34.810401917">
<ele>536.156250</ele>
<time>2013-11-23T10:18:24Z</time>
<speed>4.180000</speed>
<extensions>
<speed>4.2</speed>
<temp>0.00</temp>
<bpm>0</bpm>
<rpm>0.00</rpm>
</extensions>
</trkpt>
<trkpt lat="30.587354660" lon="34.810596466">
<ele>534.984375</ele>
<time>2013-11-23T10:18:29Z</time>
<speed>3.060000</speed>
<extensions>
<speed>3.1</speed>
<temp>0.00</temp>
<bpm>0</bpm>
<rpm>0.00</rpm>
</extensions>
</trkpt>
<trkpt lat="30.587398529" lon="34.810768127">
<ele>535.750000</ele>
<time>2013-11-23T10:18:34Z</time>
<speed>3.670000</speed>
<extensions>
<speed>3.7</speed>
<temp>0.00</temp>
<bpm>0</bpm>
<rpm>0.00</rpm>
</extensions>
</trkpt>
<trkpt lat="30.587450027" lon="34.810951233">
<ele>535.921875</ele>
<time>2013-11-23T10:18:39Z</time>
<speed>3.740000</speed>
<extensions>
<speed>3.7</speed>
<temp>0.00</temp>
<bpm>0</bpm>
<rpm>0.00</rpm>
</extensions>
</trkpt>
<trkpt lat="30.587522507" lon="34.811122894">
<ele>535.578125</ele>
<time>2013-11-23T10:18:44Z</time>
<speed>2.870000</speed>
<extensions>
<speed>2.9</speed>
<temp>0.00</temp>
<bpm>0</bpm>
<rpm>0.00</rpm>
</extensions>
</trkpt>
<trkpt lat="30.587560654" lon="34.811244965">
<ele>535.421875</ele>
<time>2013-11-23T10:18:49Z</time>
<speed>2.730000</speed>
<extensions>
<speed>2.7</speed>
<temp>0.00</temp>
<bpm>0</bpm>
<rpm>0.00</rpm>
</extensions>
</trkpt>
<trkpt lat="30.587587357" lon="34.811363220">
<ele>535.109375</ele>
<time>2013-11-23T10:18:54Z</time>
<speed>2.720000</speed>
<extensions>
<speed>2.7</speed>
<temp>0.00</temp>
<bpm>0</bpm>
<rpm>0.00</rpm>
</extensions>
</trkpt>
<trkpt lat="30.587656021" lon="34.811504364">
<ele>534.531250</ele>
<time>2013-11-23T10:18:59Z</time>
<speed>3.740000</speed>
<extensions>
<speed>3.7</speed>
<temp>0.00</temp>
<bpm>0</bpm>
<rpm>0.00</rpm>
</extensions>
</trkpt>
<trkpt lat="30.587738037" lon="34.811664581">
<ele>531.921875</ele>
<time>2013-11-23T10:19:04Z</time>
<speed>3.850000</speed>
<extensions>
<speed>3.8</speed>
<temp>0.00</temp>
<bpm>0</bpm>
<rpm>0.00</rpm>
</extensions>
</trkpt>
<trkpt lat="30.587856293" lon="34.812004089">
<ele>526.203125</ele>
<time>2013-11-23T10:19:09Z</time>
<speed>8.920000</speed>
<extensions>
<speed>8.9</speed>
<temp>0.00</temp>
<bpm>0</bpm>
<rpm>0.00</rpm>
</extensions>
</trkpt>
<trkpt lat="30.588050842" lon="34.812408447">
<ele>524.578125</ele>
<time>2013-11-23T10:19:14Z</time>
<speed>8.420000</speed>
<extensions>
<speed>8.4</speed>
<temp>0.00</temp>
<bpm>0</bpm>
<rpm>0.00</rpm>
</extensions>
</trkpt>
<trkpt lat="30.588212967" lon="34.812767029">
<ele>524.406250</ele>
<time>2013-11-23T10:19:19Z</time>
<speed>7.050000</speed>
<extensions>
<speed>7.0</speed>
<temp>0.00</temp>
<bpm>0</bpm>
<rpm>0.00</rpm>
</extensions>
</trkpt>
<trkpt lat="30.588279724" lon="34.813060760">
<ele>524.390625</ele>
<time>2013-11-23T10:19:24Z</time>
<speed>4.560000</speed>
<extensions>
<speed>4.6</speed>
<temp>0.00</temp>
<bpm>0</bpm>
<rpm>0.00</rpm>
</extensions>
</trkpt>
<trkpt lat="30.588308334" lon="34.813251495">
<ele>524.515625</ele>
<time>2013-11-23T10:19:29Z</time>
<speed>2.940000</speed>
<extensions>
<speed>2.9</speed>
<temp>0.00</temp>
<bpm>0</bpm>
<rpm>0.00</rpm>
</extensions>
</trkpt>
<trkpt lat="30.588342667" lon="34.813442230">
<ele>525.031250</ele>
<time>2013-11-23T10:19:34Z</time>
<speed>4.550000</speed>
<extensions>
<speed>4.5</speed>
<temp>0.00</temp>
<bpm>0</bpm>
<rpm>0.00</rpm>
</extensions>
</trkpt>
<trkpt lat="30.588401794" lon="34.813667297">
<ele>523.312500</ele>
<time>2013-11-23T10:19:39Z</time>
<speed>3.860000</speed>
<extensions>
<speed>3.9</speed>
<temp>0.00</temp>
<bpm>0</bpm>
<rpm>0.00</rpm>
</extensions>
</trkpt>
<trkpt lat="30.588439941" lon="34.813858032">
<ele>524.421875</ele>
<time>2013-11-23T10:19:44Z</time>
<speed>4.180000</speed>
<extensions>
<speed>4.2</speed>
<temp>0.00</temp>
<bpm>0</bpm>
<rpm>0.00</rpm>
</extensions>
</trkpt>
<trkpt lat="30.588449478" lon="34.814067841">
<ele>522.031250</ele>
<time>2013-11-23T10:19:49Z</time>
<speed>3.640000</speed>
<extensions>
<speed>3.6</speed>
<temp>0.00</temp>
<bpm>0</bpm>
<rpm>0.00</rpm>
</extensions>
</trkpt>
<trkpt lat="30.588459015" lon="34.814250946">
<ele>522.906250</ele>
<time>2013-11-23T10:19:54Z</time>
<speed>3.520000</speed>
<extensions>
<speed>3.5</speed>
<temp>0.00</temp>
<bpm>0</bpm>
<rpm>0.00</rpm>
</extensions>
</trkpt>
<trkpt lat="30.588459015" lon="34.814468384">
<ele>522.203125</ele>
<time>2013-11-23T10:19:59Z</time>
<speed>4.220000</speed>
<extensions>
<speed>4.2</speed>
<temp>0.00</temp>
<bpm>0</bpm>
<rpm>0.00</rpm>
</extensions>
</trkpt>
<trkpt lat="30.588457108" lon="34.814666748">
<ele>522.640625</ele>
<time>2013-11-23T10:20:04Z</time>
<speed>3.580000</speed>
<extensions>
<speed>3.6</speed>
<temp>0.00</temp>
<bpm>0</bpm>
<rpm>0.00</rpm>
</extensions>
</trkpt>
<trkpt lat="30.588466644" lon="34.814880371">
<ele>523.921875</ele>
<time>2013-11-23T10:20:09Z</time>
<speed>4.360000</speed>
<extensions>
<speed>4.4</speed>
<temp>0.00</temp>
<bpm>0</bpm>
<rpm>0.00</rpm>
</extensions>
</trkpt>
<trkpt lat="30.588497162" lon="34.815078735">
<ele>522.312500</ele>
<time>2013-11-23T10:20:14Z</time>
<speed>3.330000</speed>
<extensions>
<speed>3.3</speed>
<temp>0.00</temp>
<bpm>0</bpm>
<rpm>0.00</rpm>
</extensions>
</trkpt>
<trkpt lat="30.588529587" lon="34.815235138">
<ele>523.687500</ele>
<time>2013-11-23T10:20:19Z</time>
<speed>3.020000</speed>
<extensions>
<speed>3.0</speed>
<temp>0.00</temp>
<bpm>0</bpm>
<rpm>0.00</rpm>
</extensions>
</trkpt>
<trkpt lat="30.588558197" lon="34.815368652">
<ele>524.859375</ele>
<time>2013-11-23T10:20:24Z</time>
<speed>2.600000</speed>
<extensions>
<speed>2.6</speed>
<temp>0.00</temp>
<bpm>0</bpm>
<rpm>0.00</rpm>
</extensions>
</trkpt>
<trkpt lat="30.588588715" lon="34.815551758">
<ele>522.406250</ele>
<time>2013-11-23T10:20:29Z</time>
<speed>4.230000</speed>
<extensions>
<speed>4.2</speed>
<temp>0.00</temp>
<bpm>0</bpm>
<rpm>0.00</rpm>
</extensions>
</trkpt>
<trkpt lat="30.588592529" lon="34.815788269">
<ele>521.265625</ele>
<time>2013-11-23T10:20:34Z</time>
<speed>4.680000</speed>
<extensions>
<speed>4.7</speed>
<temp>0.00</temp>
<bpm>0</bpm>
<rpm>0.00</rpm>
</extensions>
</trkpt>
<trkpt lat="30.588598251" lon="34.816043854">
<ele>522.296875</ele>
<time>2013-11-23T10:20:39Z</time>
<speed>4.970000</speed>
<extensions>
<speed>5.0</speed>
<temp>0.00</temp>
<bpm>0</bpm>
<rpm>0.00</rpm>
</extensions>
</trkpt>
<trkpt lat="30.588619232" lon="34.816326141">
<ele>523.796875</ele>
<time>2013-11-23T10:20:44Z</time>
<speed>5.950000</speed>
<extensions>
<speed>6.0</speed>
<temp>0.00</temp>
<bpm>0</bpm>
<rpm>0.00</rpm>
</extensions>
</trkpt>
<trkpt lat="30.588626862" lon="34.816658020">
<ele>526.187500</ele>
<time>2013-11-23T10:20:49Z</time>
<speed>6.440000</speed>
<extensions>
<speed>6.4</speed>
<temp>0.00</temp>
<bpm>0</bpm>
<rpm>0.00</rpm>
</extensions>
</trkpt>
<trkpt lat="30.588573456" lon="34.817005157">
<ele>526.218750</ele>
<time>2013-11-23T10:20:54Z</time>
<speed>7.030000</speed>
<extensions>
<speed>7.0</speed>
<temp>0.00</temp>
<bpm>0</bpm>
<rpm>0.00</rpm>
</extensions>
</trkpt>
<trkpt lat="30.588537216" lon="34.817348480">
<ele>525.890625</ele>
<time>2013-11-23T10:20:59Z</time>
<speed>5.890000</speed>
<extensions>
<speed>5.9</speed>
<temp>0.00</temp>
<bpm>0</bpm>
<rpm>0.00</rpm>
</extensions>
</trkpt>
<trkpt lat="30.588569641" lon="34.817661285">
<ele>527.468750</ele>
<time>2013-11-23T10:21:04Z</time>
<speed>6.670000</speed>
<extensions>
<speed>6.7</speed>
<temp>0.00</temp>
<bpm>0</bpm>
<rpm>0.00</rpm>
</extensions>
</trkpt>
<trkpt lat="30.588649750" lon="34.817985535">
<ele>527.765625</ele>
<time>2013-11-23T10:21:09Z</time>
<speed>5.800000</speed>
<extensions>
<speed>5.8</speed>
<temp>0.00</temp>
<bpm>0</bpm>
<rpm>0.00</rpm>
</extensions>
</trkpt>
<trkpt lat="30.588705063" lon="34.818202972">
<ele>530.250000</ele>
<time>2013-11-23T10:21:14Z</time>
<speed>3.380000</speed>
<extensions>
<speed>3.4</speed>
<temp>0.00</temp>
<bpm>0</bpm>
<rpm>0.00</rpm>
</extensions>
</trkpt>
<trkpt lat="30.588760376" lon="34.818313599">
<ele>530.625000</ele>
<time>2013-11-23T10:21:19Z</time>
<speed>2.510000</speed>
<extensions>
<speed>2.5</speed>
<temp>0.00</temp>
<bpm>0</bpm>
<rpm>0.00</rpm>
</extensions>
</trkpt>
<trkpt lat="30.588811874" lon="34.818443298">
<ele>530.796875</ele>
<time>2013-11-23T10:21:24Z</time>
<speed>2.900000</speed>
<extensions>
<speed>2.9</speed>
<temp>0.00</temp>
<bpm>0</bpm>
<rpm>0.00</rpm>
</extensions>
</trkpt>
<trkpt lat="30.588882446" lon="34.818607330">
<ele>529.937500</ele>
<time>2013-11-23T10:21:29Z</time>
<speed>3.900000</speed>
<extensions>
<speed>3.9</speed>
<temp>0.00</temp>
<bpm>0</bpm>
<rpm>0.00</rpm>
</extensions>
</trkpt>
<trkpt lat="30.588970184" lon="34.818832397">
<ele>527.093750</ele>
<time>2013-11-23T10:21:34Z</time>
<speed>4.850000</speed>
<extensions>
<speed>4.8</speed>
<temp>0.00</temp>
<bpm>0</bpm>
<rpm>0.00</rpm>
</extensions>
</trkpt>
<trkpt lat="30.589071274" lon="34.819049835">
<ele>526.265625</ele>
<time>2013-11-23T10:21:39Z</time>
<speed>4.820000</speed>
<extensions>
<speed>4.8</speed>
<temp>0.00</temp>
<bpm>0</bpm>
<rpm>0.00</rpm>
</extensions>
</trkpt>
<trkpt lat="30.589187622" lon="34.819252014">
<ele>527.500000</ele>
<time>2013-11-23T10:21:44Z</time>
<speed>4.660000</speed>
<extensions>
<speed>4.7</speed>
<temp>0.00</temp>
<bpm>0</bpm>
<rpm>0.00</rpm>
</extensions>
</trkpt>
<trkpt lat="30.589296341" lon="34.819484711">
<ele>526.843750</ele>
<time>2013-11-23T10:21:49Z</time>
<speed>5.430000</speed>
<extensions>
<speed>5.4</speed>
<temp>0.00</temp>
<bpm>0</bpm>
<rpm>0.00</rpm>
</extensions>
</trkpt>
<trkpt lat="30.589353561" lon="34.819793701">
<ele>524.656250</ele>
<time>2013-11-23T10:21:54Z</time>
<speed>6.210000</speed>
<extensions>
<speed>6.2</speed>
<temp>0.00</temp>
<bpm>0</bpm>
<rpm>0.00</rpm>
</extensions>
</trkpt>
<trkpt lat="30.589389801" lon="34.820102692">
<ele>526.625000</ele>
<time>2013-11-23T10:21:59Z</time>
<speed>5.540000</speed>
<extensions>
<speed>5.5</speed>
<temp>0.00</temp>
<bpm>0</bpm>
<rpm>0.00</rpm>
</extensions>
</trkpt>
<trkpt lat="30.589448929" lon="34.820369720">
<ele>526.562500</ele>
<time>2013-11-23T10:22:04Z</time>
<speed>5.130000</speed>
<extensions>
<speed>5.1</speed>
<temp>0.00</temp>
<bpm>0</bpm>
<rpm>0.00</rpm>
</extensions>
</trkpt>
<trkpt lat="30.589511871" lon="34.820590973">
<ele>525.750000</ele>
<time>2013-11-23T10:22:09Z</time>
<speed>2.230000</speed>
<extensions>
<speed>2.2</speed>
<temp>0.00</temp>
<bpm>0</bpm>
<rpm>0.00</rpm>
</extensions>
</trkpt>
<trkpt lat="30.589542389" lon="34.820701599">
<ele>527.625000</ele>
<time>2013-11-23T10:22:14Z</time>
<speed>2.160000</speed>
<extensions>
<speed>2.2</speed>
<temp>0.00</temp>
<bpm>0</bpm>
<rpm>0.00</rpm>
</extensions>
</trkpt>
<trkpt lat="30.589572906" lon="34.820831299">
<ele>525.656250</ele>
<time>2013-11-23T10:22:19Z</time>
<speed>3.120000</speed>
<extensions>
<speed>3.1</speed>
<temp>0.00</temp>
<bpm>0</bpm>
<rpm>0.00</rpm>
</extensions>
</trkpt>
<trkpt lat="30.589584351" lon="34.820983887">
<ele>526.203125</ele>
<time>2013-11-23T10:22:24Z</time>
<speed>3.620000</speed>
<extensions>
<speed>3.6</speed>
<temp>0.00</temp>
<bpm>0</bpm>
<rpm>0.00</rpm>
</extensions>
</trkpt>
<trkpt lat="30.589618683" lon="34.821201324">
<ele>524.781250</ele>
<time>2013-11-23T10:22:29Z</time>
<speed>4.440000</speed>
<extensions>
<speed>4.4</speed>
<temp>0.00</temp>
<bpm>0</bpm>
<rpm>0.00</rpm>
</extensions>
</trkpt>
<trkpt lat="30.589670181" lon="34.821441650">
<ele>523.265625</ele>
<time>2013-11-23T10:22:34Z</time>
<speed>4.550000</speed>
<extensions>
<speed>4.5</speed>
<temp>0.00</temp>
<bpm>0</bpm>
<rpm>0.00</rpm>
</extensions>
</trkpt>
<trkpt lat="30.589719772" lon="34.821678162">
<ele>523.218750</ele>
<time>2013-11-23T10:22:39Z</time>
<speed>5.300000</speed>
<extensions>
<speed>5.3</speed>
<temp>0.00</temp>
<bpm>0</bpm>
<rpm>0.00</rpm>
</extensions>
</trkpt>
<trkpt lat="30.589754105" lon="34.821979523">
<ele>521.796875</ele>
<time>2013-11-23T10:22:44Z</time>
<speed>5.930000</speed>
<extensions>
<speed>5.9</speed>
<temp>0.00</temp>
<bpm>0</bpm>
<rpm>0.00</rpm>
</extensions>
</trkpt>
<trkpt lat="30.589805603" lon="34.822273254">
<ele>520.046875</ele>
<time>2013-11-23T10:22:49Z</time>
<speed>5.740000</speed>
<extensions>
<speed>5.7</speed>
<temp>0.00</temp>
<bpm>0</bpm>
<rpm>0.00</rpm>
</extensions>
</trkpt>
<trkpt lat="30.589839935" lon="34.822525024">
<ele>521.000000</ele>
<time>2013-11-23T10:22:54Z</time>
<speed>4.410000</speed>
<extensions>
<speed>4.4</speed>
<temp>0.00</temp>
<bpm>0</bpm>
<rpm>0.00</rpm>
</extensions>
</trkpt>
<trkpt lat="30.589866638" lon="34.822776794">
<ele>520.921875</ele>
<time>2013-11-23T10:22:59Z</time>
<speed>4.930000</speed>
<extensions>
<speed>4.9</speed>
<temp>0.00</temp>
<bpm>0</bpm>
<rpm>0.00</rpm>
</extensions>
</trkpt>
<trkpt lat="30.589881897" lon="34.823032379">
<ele>522.156250</ele>
<time>2013-11-23T10:23:04Z</time>
<speed>4.570000</speed>
<extensions>
<speed>4.6</speed>
<temp>0.00</temp>
<bpm>0</bpm>
<rpm>0.00</rpm>
</extensions>
</trkpt>
<trkpt lat="30.589899063" lon="34.823253632">
<ele>522.703125</ele>
<time>2013-11-23T10:23:09Z</time>
<speed>3.650000</speed>
<extensions>
<speed>3.7</speed>
<temp>0.00</temp>
<bpm>0</bpm>
<rpm>0.00</rpm>
</extensions>
</trkpt>
<trkpt lat="30.589920044" lon="34.823459625">
<ele>523.265625</ele>
<time>2013-11-23T10:23:14Z</time>
<speed>3.990000</speed>
<extensions>
<speed>4.0</speed>
<temp>0.00</temp>
<bpm>0</bpm>
<rpm>0.00</rpm>
</extensions>
</trkpt>
<trkpt lat="30.589946747" lon="34.823654175">
<ele>522.750000</ele>
<time>2013-11-23T10:23:19Z</time>
<speed>3.960000</speed>
<extensions>
<speed>4.0</speed>
<temp>0.00</temp>
<bpm>0</bpm>
<rpm>0.00</rpm>
</extensions>
</trkpt>
<trkpt lat="30.589946747" lon="34.823879242">
<ele>523.375000</ele>
<time>2013-11-23T10:23:24Z</time>
<speed>4.660000</speed>
<extensions>
<speed>4.7</speed>
<temp>0.00</temp>
<bpm>0</bpm>
<rpm>0.00</rpm>
</extensions>
</trkpt>
<trkpt lat="30.589948654" lon="34.824123383">
<ele>523.921875</ele>
<time>2013-11-23T10:23:29Z</time>
<speed>4.080000</speed>
<extensions>
<speed>4.1</speed>
<temp>0.00</temp>
<bpm>0</bpm>
<rpm>0.00</rpm>
</extensions>
</trkpt>
<trkpt lat="30.589956284" lon="34.824340820">
<ele>524.484375</ele>
<time>2013-11-23T10:23:34Z</time>
<speed>4.710000</speed>
<extensions>
<speed>4.7</speed>
<temp>0.00</temp>
<bpm>0</bpm>
<rpm>0.00</rpm>
</extensions>
</trkpt>
<trkpt lat="30.589984894" lon="34.824600220">
<ele>524.593750</ele>
<time>2013-11-23T10:23:39Z</time>
<speed>4.730000</speed>
<extensions>
<speed>4.7</speed>
<temp>0.00</temp>
<bpm>0</bpm>
<rpm>0.00</rpm>
</extensions>
</trkpt>
<trkpt lat="30.589996338" lon="34.824848175">
<ele>524.562500</ele>
<time>2013-11-23T10:23:44Z</time>
<speed>4.440000</speed>
<extensions>
<speed>4.4</speed>
<temp>0.00</temp>
<bpm>0</bpm>
<rpm>0.00</rpm>
</extensions>
</trkpt>
<trkpt lat="30.589965820" lon="34.825054169">
<ele>525.343750</ele>
<time>2013-11-23T10:23:49Z</time>
<speed>4.230000</speed>
<extensions>
<speed>4.2</speed>
<temp>0.00</temp>
<bpm>0</bpm>
<rpm>0.00</rpm>
</extensions>
</trkpt>
<trkpt lat="30.589872360" lon="34.825256348">
<ele>525.437500</ele>
<time>2013-11-23T10:23:54Z</time>
<speed>4.810000</speed>
<extensions>
<speed>4.8</speed>
<temp>0.00</temp>
<bpm>0</bpm>
<rpm>0.00</rpm>
</extensions>
</trkpt>
<trkpt lat="30.589740753" lon="34.825408936">
<ele>525.234375</ele>
<time>2013-11-23T10:23:59Z</time>
<speed>3.630000</speed>
<extensions>
<speed>3.6</speed>
<temp>0.00</temp>
<bpm>0</bpm>
<rpm>0.00</rpm>
</extensions>
</trkpt>
<trkpt lat="30.589658737" lon="34.825515747">
<ele>524.421875</ele>
<time>2013-11-23T10:24:04Z</time>
<speed>2.750000</speed>
<extensions>
<speed>2.7</speed>
<temp>0.00</temp>
<bpm>0</bpm>
<rpm>0.00</rpm>
</extensions>
</trkpt>
<trkpt lat="30.589622498" lon="34.825603485">
<ele>524.937500</ele>
<time>2013-11-23T10:24:09Z</time>
<speed>1.480000</speed>
<extensions>
<speed>1.5</speed>
<temp>0.00</temp>
<bpm>0</bpm>
<rpm>0.00</rpm>
</extensions>
</trkpt>
<trkpt lat="30.589586258" lon="34.825698853">
<ele>526.312500</ele>
<time>2013-11-23T10:24:14Z</time>
<speed>2.580000</speed>
<extensions>
<speed>2.6</speed>
<temp>0.00</temp>
<bpm>0</bpm>
<rpm>0.00</rpm>
</extensions>
</trkpt>
<trkpt lat="30.589574814" lon="34.825836182">
<ele>526.734375</ele>
<time>2013-11-23T10:24:19Z</time>
<speed>1.790000</speed>
<extensions>
<speed>1.8</speed>
<temp>0.00</temp>
<bpm>0</bpm>
<rpm>0.00</rpm>
</extensions>
</trkpt>
<trkpt lat="30.589593887" lon="34.825950623">
<ele>527.062500</ele>
<time>2013-11-23T10:24:24Z</time>
<speed>3.130000</speed>
<extensions>
<speed>3.1</speed>
<temp>0.00</temp>
<bpm>0</bpm>
<rpm>0.00</rpm>
</extensions>
</trkpt>
<trkpt lat="30.589607239" lon="34.826152802">
<ele>527.375000</ele>
<time>2013-11-23T10:24:29Z</time>
<speed>4.130000</speed>
<extensions>
<speed>4.1</speed>
<temp>0.00</temp>
<bpm>0</bpm>
<rpm>0.00</rpm>
</extensions>
</trkpt>
<trkpt lat="30.589635849" lon="34.826351166">
<ele>527.390625</ele>
<time>2013-11-23T10:24:34Z</time>
<speed>3.540000</speed>
<extensions>
<speed>3.5</speed>
<temp>0.00</temp>
<bpm>0</bpm>
<rpm>0.00</rpm>
</extensions>
</trkpt>
<trkpt lat="30.589666367" lon="34.826534271">
<ele>527.000000</ele>
<time>2013-11-23T10:24:39Z</time>
<speed>3.990000</speed>
<extensions>
<speed>4.0</speed>
<temp>0.00</temp>
<bpm>0</bpm>
<rpm>0.00</rpm>
</extensions>
</trkpt>
<trkpt lat="30.589708328" lon="34.826755524">
<ele>526.437500</ele>
<time>2013-11-23T10:24:44Z</time>
<speed>4.100000</speed>
<extensions>
<speed>4.1</speed>
<temp>0.00</temp>
<bpm>0</bpm>
<rpm>0.00</rpm>
</extensions>
</trkpt>
<trkpt lat="30.589759827" lon="34.826972961">
<ele>526.359375</ele>
<time>2013-11-23T10:24:49Z</time>
<speed>4.870000</speed>
<extensions>
<speed>4.9</speed>
<temp>0.00</temp>
<bpm>0</bpm>
<rpm>0.00</rpm>
</extensions>
</trkpt>
<trkpt lat="30.589828491" lon="34.827209473">
<ele>526.812500</ele>
<time>2013-11-23T10:24:54Z</time>
<speed>4.560000</speed>
<extensions>
<speed>4.6</speed>
<temp>0.00</temp>
<bpm>0</bpm>
<rpm>0.00</rpm>
</extensions>
</trkpt>
<trkpt lat="30.589878082" lon="34.827442169">
<ele>526.343750</ele>
<time>2013-11-23T10:24:59Z</time>
<speed>4.390000</speed>
<extensions>
<speed>4.4</speed>
<temp>0.00</temp>
<bpm>0</bpm>
<rpm>0.00</rpm>
</extensions>
</trkpt>
<trkpt lat="30.589918137" lon="34.827663422">
<ele>526.375000</ele>
<time>2013-11-23T10:25:04Z</time>
<speed>4.260000</speed>
<extensions>
<speed>4.3</speed>
<temp>0.00</temp>
<bpm>0</bpm>
<rpm>0.00</rpm>
</extensions>
</trkpt>
<trkpt lat="30.589963913" lon="34.827880859">
<ele>526.968750</ele>
<time>2013-11-23T10:25:09Z</time>
<speed>4.720000</speed>
<extensions>
<speed>4.7</speed>
<temp>0.00</temp>
<bpm>0</bpm>
<rpm>0.00</rpm>
</extensions>
</trkpt>
<trkpt lat="30.590070724" lon="34.828102112">
<ele>527.015625</ele>
<time>2013-11-23T10:25:14Z</time>
<speed>4.990000</speed>
<extensions>
<speed>5.0</speed>
<temp>0.00</temp>
<bpm>0</bpm>
<rpm>0.00</rpm>
</extensions>
</trkpt>
<trkpt lat="30.590232849" lon="34.828273773">
<ele>525.312500</ele>
<time>2013-11-23T10:25:19Z</time>
<speed>4.330000</speed>
<extensions>
<speed>4.3</speed>
<temp>0.00</temp>
<bpm>0</bpm>
<rpm>0.00</rpm>
</extensions>
</trkpt>
<trkpt lat="30.590448380" lon="34.828426361">
<ele>522.453125</ele>
<time>2013-11-23T10:25:24Z</time>
<speed>6.460000</speed>
<extensions>
<speed>6.5</speed>
<temp>0.00</temp>
<bpm>0</bpm>
<rpm>0.00</rpm>
</extensions>
</trkpt>
<trkpt lat="30.590579987" lon="34.828655243">
<ele>521.593750</ele>
<time>2013-11-23T10:25:29Z</time>
<speed>5.390000</speed>
<extensions>
<speed>5.4</speed>
<temp>0.00</temp>
<bpm>0</bpm>
<rpm>0.00</rpm>
</extensions>
</trkpt>
<trkpt lat="30.590581894" lon="34.828926086">
<ele>521.218750</ele>
<time>2013-11-23T10:25:34Z</time>
<speed>4.920000</speed>
<extensions>
<speed>4.9</speed>
<temp>0.00</temp>
<bpm>0</bpm>
<rpm>0.00</rpm>
</extensions>
</trkpt>
<trkpt lat="30.590578079" lon="34.829166412">
<ele>520.546875</ele>
<time>2013-11-23T10:25:39Z</time>
<speed>4.310000</speed>
<extensions>
<speed>4.3</speed>
<temp>0.00</temp>
<bpm>0</bpm>
<rpm>0.00</rpm>
</extensions>
</trkpt>
<trkpt lat="30.590555191" lon="34.829380035">
<ele>518.656250</ele>
<time>2013-11-23T10:25:44Z</time>
<speed>4.010000</speed>
<extensions>
<speed>4.0</speed>
<temp>0.00</temp>
<bpm>0</bpm>
<rpm>0.00</rpm>
</extensions>
</trkpt>
<trkpt lat="30.590557098" lon="34.829566956">
<ele>517.078125</ele>
<time>2013-11-23T10:25:49Z</time>
<speed>3.270000</speed>
<extensions>
<speed>3.3</speed>
<temp>0.00</temp>
<bpm>0</bpm>
<rpm>0.00</rpm>
</extensions>
</trkpt>
<trkpt lat="30.590604782" lon="34.829692841">
<ele>516.796875</ele>
<time>2013-11-23T10:25:54Z</time>
<speed>2.530000</speed>
<extensions>
<speed>2.5</speed>
<temp>0.00</temp>
<bpm>0</bpm>
<rpm>0.00</rpm>
</extensions>
</trkpt>
<trkpt lat="30.590677261" lon="34.829814911">
<ele>516.125000</ele>
<time>2013-11-23T10:25:59Z</time>
<speed>3.420000</speed>
<extensions>
<speed>3.4</speed>
<temp>0.00</temp>
<bpm>0</bpm>
<rpm>0.00</rpm>
</extensions>
</trkpt>
<trkpt lat="30.590803146" lon="34.829929352">
<ele>515.796875</ele>
<time>2013-11-23T10:26:04Z</time>
<speed>3.560000</speed>
<extensions>
<speed>3.6</speed>
<temp>0.00</temp>
<bpm>0</bpm>
<rpm>0.00</rpm>
</extensions>
</trkpt>
<trkpt lat="30.590959549" lon="34.829963684">
<ele>516.156250</ele>
<time>2013-11-23T10:26:09Z</time>
<speed>2.490000</speed>
<extensions>
<speed>2.5</speed>
<temp>0.00</temp>
<bpm>0</bpm>
<rpm>0.00</rpm>
</extensions>
</trkpt>
<trkpt lat="30.591039658" lon="34.830039978">
<ele>518.078125</ele>
<time>2013-11-23T10:26:14Z</time>
<speed>3.310000</speed>
<extensions>
<speed>3.3</speed>
<temp>0.00</temp>
<bpm>0</bpm>
<rpm>0.00</rpm>
</extensions>
</trkpt>
<trkpt lat="30.591152191" lon="34.830192566">
<ele>518.515625</ele>
<time>2013-11-23T10:26:19Z</time>
<speed>3.310000</speed>
<extensions>
<speed>3.3</speed>
<temp>0.00</temp>
<bpm>0</bpm>
<rpm>0.00</rpm>
</extensions>
</trkpt>
<trkpt lat="30.591228485" lon="34.830318451">
<ele>518.234375</ele>
<time>2013-11-23T10:26:24Z</time>
<speed>2.880000</speed>
<extensions>
<speed>2.9</speed>
<temp>0.00</temp>
<bpm>0</bpm>
<rpm>0.00</rpm>
</extensions>
</trkpt>
<trkpt lat="30.591302872" lon="34.830463409">
<ele>518.421875</ele>
<time>2013-11-23T10:26:29Z</time>
<speed>3.870000</speed>
<extensions>
<speed>3.9</speed>
<temp>0.00</temp>
<bpm>0</bpm>
<rpm>0.00</rpm>
</extensions>
</trkpt>
<trkpt lat="30.591346741" lon="34.830638885">
<ele>518.578125</ele>
<time>2013-11-23T10:26:34Z</time>
<speed>3.730000</speed>
<extensions>
<speed>3.7</speed>
<temp>0.00</temp>
<bpm>0</bpm>
<rpm>0.00</rpm>
</extensions>
</trkpt>
<trkpt lat="30.591382980" lon="34.830852509">
<ele>518.234375</ele>
<time>2013-11-23T10:26:39Z</time>
<speed>4.260000</speed>
<extensions>
<speed>4.3</speed>
<temp>0.00</temp>
<bpm>0</bpm>
<rpm>0.00</rpm>
</extensions>
</trkpt>
<trkpt lat="30.591377258" lon="34.831020355">
<ele>517.953125</ele>
<time>2013-11-23T10:26:44Z</time>
<speed>3.240000</speed>
<extensions>
<speed>3.2</speed>
<temp>0.00</temp>
<bpm>0</bpm>
<rpm>0.00</rpm>
</extensions>
</trkpt>
<trkpt lat="30.591396332" lon="34.831165314">
<ele>516.796875</ele>
<time>2013-11-23T10:26:49Z</time>
<speed>2.020000</speed>
<extensions>
<speed>2.0</speed>
<temp>0.00</temp>
<bpm>0</bpm>
<rpm>0.00</rpm>
</extensions>
</trkpt>
<trkpt lat="30.591402054" lon="34.831302643">
<ele>516.015625</ele>
<time>2013-11-23T10:26:54Z</time>
<speed>3.030000</speed>
<extensions>
<speed>3.0</speed>
<temp>0.00</temp>
<bpm>0</bpm>
<rpm>0.00</rpm>
</extensions>
</trkpt>
<trkpt lat="30.591390610" lon="34.831478119">
<ele>514.734375</ele>
<time>2013-11-23T10:26:59Z</time>
<speed>3.230000</speed>
<extensions>
<speed>3.2</speed>
<temp>0.00</temp>
<bpm>0</bpm>
<rpm>0.00</rpm>
</extensions>
</trkpt>
<trkpt lat="30.591394424" lon="34.831642151">
<ele>514.218750</ele>
<time>2013-11-23T10:27:04Z</time>
<speed>2.830000</speed>
<extensions>
<speed>2.8</speed>
<temp>0.00</temp>
<bpm>0</bpm>
<rpm>0.00</rpm>
</extensions>
</trkpt>
<trkpt lat="30.591407776" lon="34.831745148">
<ele>512.828125</ele>
<time>2013-11-23T10:27:09Z</time>
<speed>1.270000</speed>
<extensions>
<speed>1.3</speed>
<temp>0.00</temp>
<bpm>0</bpm>
<rpm>0.00</rpm>
</extensions>
</trkpt>
<trkpt lat="30.591424942" lon="34.831787109">
<ele>512.000000</ele>
<time>2013-11-23T10:27:14Z</time>
<speed>0.380000</speed>
<extensions>
<speed>0.4</speed>
<temp>0.00</temp>
<bpm>0</bpm>
<rpm>0.00</rpm>
</extensions>
</trkpt>
<trkpt lat="30.591444016" lon="34.831809998">
<ele>511.023438</ele>
<time>2013-11-23T10:27:19Z</time>
<speed>0.680000</speed>
<extensions>
<speed>0.7</speed>
<temp>0.00</temp>
<bpm>0</bpm>
<rpm>0.00</rpm>
</extensions>
</trkpt>
<trkpt lat="30.591453552" lon="34.831817627">
<ele>511.156250</ele>
<time>2013-11-23T10:27:24Z</time>
<speed>0.140000</speed>
<extensions>
<speed>0.1</speed>
<temp>0.00</temp>
<bpm>0</bpm>
<rpm>0.00</rpm>
</extensions>
</trkpt>
<trkpt lat="30.591453552" lon="34.831817627">
<ele>511.218750</ele>
<time>2013-11-23T10:27:29Z</time>
<speed>0.020000</speed>
<extensions>
<speed>0.0</speed>
<temp>0.00</temp>
<bpm>0</bpm>
<rpm>0.00</rpm>
</extensions>
</trkpt>
<trkpt lat="30.591453552" lon="34.831817627">
<ele>511.179688</ele>
<time>2013-11-23T10:27:34Z</time>
<extensions>
<speed>0.0</speed>
<temp>0.00</temp>
<bpm>0</bpm>
<rpm>0.00</rpm>
</extensions>
</trkpt>
<trkpt lat="30.591453552" lon="34.831817627">
<ele>511.203125</ele>
<time>2013-11-23T10:27:39Z</time>
<extensions>
<speed>0.0</speed>
<temp>0.00</temp>
<bpm>0</bpm>
<rpm>0.00</rpm>
</extensions>
</trkpt>
<trkpt lat="30.591453552" lon="34.831817627">
<ele>511.218750</ele>
<time>2013-11-23T10:27:44Z</time>
<extensions>
<speed>0.0</speed>
<temp>0.00</temp>
<bpm>0</bpm>
<rpm>0.00</rpm>
</extensions>
</trkpt>
<trkpt lat="30.591453552" lon="34.831817627">
<ele>511.242188</ele>
<time>2013-11-23T10:27:49Z</time>
<speed>0.010000</speed>
<extensions>
<speed>0.0</speed>
<temp>0.00</temp>
<bpm>0</bpm>
<rpm>0.00</rpm>
</extensions>
</trkpt>
<trkpt lat="30.591453552" lon="34.831817627">
<ele>511.250000</ele>
<time>2013-11-23T10:27:54Z</time>
<speed>0.110000</speed>
<extensions>
<speed>0.1</speed>
<temp>0.00</temp>
<bpm>0</bpm>
<rpm>0.00</rpm>
</extensions>
</trkpt>
<trkpt lat="30.591457367" lon="34.831878662">
<ele>511.265625</ele>
<time>2013-11-23T10:27:59Z</time>
<speed>1.860000</speed>
<extensions>
<speed>1.9</speed>
<temp>0.00</temp>
<bpm>0</bpm>
<rpm>0.00</rpm>
</extensions>
</trkpt>
<trkpt lat="30.591453552" lon="34.832000732">
<ele>511.203125</ele>
<time>2013-11-23T10:28:04Z</time>
<speed>3.010000</speed>
<extensions>
<speed>3.0</speed>
<temp>0.00</temp>
<bpm>0</bpm>
<rpm>0.00</rpm>
</extensions>
</trkpt>
<trkpt lat="30.591457367" lon="34.832180023">
<ele>510.367188</ele>
<time>2013-11-23T10:28:09Z</time>
<speed>3.230000</speed>
<extensions>
<speed>3.2</speed>
<temp>0.00</temp>
<bpm>0</bpm>
<rpm>0.00</rpm>
</extensions>
</trkpt>
<trkpt lat="30.591474533" lon="34.832340240">
<ele>510.078125</ele>
<time>2013-11-23T10:28:14Z</time>
<speed>3.150000</speed>
<extensions>
<speed>3.2</speed>
<temp>0.00</temp>
<bpm>0</bpm>
<rpm>0.00</rpm>
</extensions>
</trkpt>
<trkpt lat="30.591501236" lon="34.832500458">
<ele>510.109375</ele>
<time>2013-11-23T10:28:19Z</time>
<speed>2.820000</speed>
<extensions>
<speed>2.8</speed>
<temp>0.00</temp>
<bpm>0</bpm>
<rpm>0.00</rpm>
</extensions>
</trkpt>
<trkpt lat="30.591529846" lon="34.832660675">
<ele>510.406250</ele>
<time>2013-11-23T10:28:24Z</time>
<speed>3.190000</speed>
<extensions>
<speed>3.2</speed>
<temp>0.00</temp>
<bpm>0</bpm>
<rpm>0.00</rpm>
</extensions>
</trkpt>
<trkpt lat="30.591562271" lon="34.832847595">
<ele>511.695313</ele>
<time>2013-11-23T10:28:29Z</time>
<speed>3.690000</speed>
<extensions>
<speed>3.7</speed>
<temp>0.00</temp>
<bpm>0</bpm>
<rpm>0.00</rpm>
</extensions>
</trkpt>
<trkpt lat="30.591596603" lon="34.833000183">
<ele>513.531250</ele>
<time>2013-11-23T10:28:34Z</time>
<speed>2.900000</speed>
<extensions>
<speed>2.9</speed>
<temp>0.00</temp>
<bpm>0</bpm>
<rpm>0.00</rpm>
</extensions>
</trkpt>
<trkpt lat="30.591661453" lon="34.833160400">
<ele>514.093750</ele>
<time>2013-11-23T10:28:39Z</time>
<speed>3.230000</speed>
<extensions>
<speed>3.2</speed>
<temp>0.00</temp>
<bpm>0</bpm>
<rpm>0.00</rpm>
</extensions>
</trkpt>
<trkpt lat="30.591724396" lon="34.833301544">
<ele>514.015625</ele>
<time>2013-11-23T10:28:44Z</time>
<speed>2.450000</speed>
<extensions>
<speed>2.4</speed>
<temp>0.00</temp>
<bpm>0</bpm>
<rpm>0.00</rpm>
</extensions>
</trkpt>
<trkpt lat="30.591766357" lon="34.833442688">
<ele>515.015625</ele>
<time>2013-11-23T10:28:49Z</time>
<speed>2.770000</speed>
<extensions>
<speed>2.8</speed>
<temp>0.00</temp>
<bpm>0</bpm>
<rpm>0.00</rpm>
</extensions>
</trkpt>
<trkpt lat="30.591772079" lon="34.833576202">
<ele>515.156250</ele>
<time>2013-11-23T10:28:54Z</time>
<speed>2.220000</speed>
<extensions>
<speed>2.2</speed>
<temp>0.00</temp>
<bpm>0</bpm>
<rpm>0.00</rpm>
</extensions>
</trkpt>
<trkpt lat="30.591720581" lon="34.833705902">
<ele>515.312500</ele>
<time>2013-11-23T10:28:59Z</time>
<speed>3.460000</speed>
<extensions>
<speed>3.5</speed>
<temp>0.00</temp>
<bpm>0</bpm>
<rpm>0.00</rpm>
</extensions>
</trkpt>
<trkpt lat="30.591697693" lon="34.833831787">
<ele>515.828125</ele>
<time>2013-11-23T10:29:04Z</time>
<speed>0.920000</speed>
<extensions>
<speed>0.9</speed>
<temp>0.00</temp>
<bpm>0</bpm>
<rpm>0.00</rpm>
</extensions>
</trkpt>
<trkpt lat="30.591693878" lon="34.833824158">
<ele>516.390625</ele>
<time>2013-11-23T10:29:09Z</time>
<extensions>
<speed>0.0</speed>
<temp>0.00</temp>
<bpm>0</bpm>
<rpm>0.00</rpm>
</extensions>
</trkpt>
<trkpt lat="30.591693878" lon="34.833820343">
<ele>516.406250</ele>
<time>2013-11-23T10:29:14Z</time>
<speed>0.040000</speed>
<extensions>
<speed>0.0</speed>
<temp>0.00</temp>
<bpm>0</bpm>
<rpm>0.00</rpm>
</extensions>
</trkpt>
<trkpt lat="30.591693878" lon="34.833820343">
<ele>516.468750</ele>
<time>2013-11-23T10:29:19Z</time>
<extensions>
<speed>0.0</speed>
<temp>0.00</temp>
<bpm>0</bpm>
<rpm>0.00</rpm>
</extensions>
</trkpt>
<trkpt lat="30.591693878" lon="34.833820343">
<ele>516.453125</ele>
<time>2013-11-23T10:29:24Z</time>
<extensions>
<speed>0.0</speed>
<temp>0.00</temp>
<bpm>0</bpm>
<rpm>0.00</rpm>
</extensions>
</trkpt>
<trkpt lat="30.591691971" lon="34.833820343">
<ele>516.453125</ele>
<time>2013-11-23T10:29:29Z</time>
<speed>0.010000</speed>
<extensions>
<speed>0.0</speed>
<temp>0.00</temp>
<bpm>0</bpm>
<rpm>0.00</rpm>
</extensions>
</trkpt>
<trkpt lat="30.591691971" lon="34.833820343">
<ele>516.484375</ele>
<time>2013-11-23T10:29:34Z</time>
<speed>0.050000</speed>
<extensions>
<speed>0.1</speed>
<temp>0.00</temp>
<bpm>0</bpm>
<rpm>0.00</rpm>
</extensions>
</trkpt>
<trkpt lat="30.591688156" lon="34.833885193">
<ele>516.562500</ele>
<time>2013-11-23T10:29:39Z</time>
<speed>2.600000</speed>
<extensions>
<speed>2.6</speed>
<temp>0.00</temp>
<bpm>0</bpm>
<rpm>0.00</rpm>
</extensions>
</trkpt>
<trkpt lat="30.591646194" lon="34.834049225">
<ele>516.906250</ele>
<time>2013-11-23T10:29:44Z</time>
<speed>3.710000</speed>
<extensions>
<speed>3.7</speed>
<temp>0.00</temp>
<bpm>0</bpm>
<rpm>0.00</rpm>
</extensions>
</trkpt>
<trkpt lat="30.591562271" lon="34.834194183">
<ele>517.296875</ele>
<time>2013-11-23T10:29:49Z</time>
<speed>3.390000</speed>
<extensions>
<speed>3.4</speed>
<temp>0.00</temp>
<bpm>0</bpm>
<rpm>0.00</rpm>
</extensions>
</trkpt>
<trkpt lat="30.591512680" lon="34.834377289">
<ele>516.859375</ele>
<time>2013-11-23T10:29:54Z</time>
<speed>3.340000</speed>
<extensions>
<speed>3.3</speed>
<temp>0.00</temp>
<bpm>0</bpm>
<rpm>0.00</rpm>
</extensions>
</trkpt>
<trkpt lat="30.591531754" lon="34.834487915">
<ele>517.437500</ele>
<time>2013-11-23T10:29:59Z</time>
<speed>1.380000</speed>
<extensions>
<speed>1.4</speed>
<temp>0.00</temp>
<bpm>0</bpm>
<rpm>0.00</rpm>
</extensions>
</trkpt>
<trkpt lat="30.591554642" lon="34.834571838">
<ele>518.609375</ele>
<time>2013-11-23T10:30:04Z</time>
<speed>1.510000</speed>
<extensions>
<speed>1.5</speed>
<temp>0.00</temp>
<bpm>0</bpm>
<rpm>0.00</rpm>
</extensions>
</trkpt>
<trkpt lat="30.591560364" lon="34.834579468">
<ele>518.890625</ele>
<time>2013-11-23T10:30:09Z</time>
<speed>0.010000</speed>
<extensions>
<speed>0.0</speed>
<temp>0.00</temp>
<bpm>0</bpm>
<rpm>0.00</rpm>
</extensions>
</trkpt>
<trkpt lat="30.591560364" lon="34.834579468">
<ele>518.937500</ele>
<time>2013-11-23T10:30:14Z</time>
<speed>0.020000</speed>
<extensions>
<speed>0.0</speed>
<temp>0.00</temp>
<bpm>0</bpm>
<rpm>0.00</rpm>
</extensions>
</trkpt>
<trkpt lat="30.591560364" lon="34.834575653">
<ele>518.984375</ele>
<time>2013-11-23T10:30:19Z</time>
<extensions>
<speed>0.0</speed>
<temp>0.00</temp>
<bpm>0</bpm>
<rpm>0.00</rpm>
</extensions>
</trkpt>
<trkpt lat="30.591567993" lon="34.834598541">
<ele>519.500000</ele>
<time>2013-11-23T10:30:24Z</time>
<speed>1.360000</speed>
<extensions>
<speed>1.4</speed>
<temp>0.00</temp>
<bpm>0</bpm>
<rpm>0.00</rpm>
</extensions>
</trkpt>
<trkpt lat="30.591577530" lon="34.834686279">
<ele>520.718750</ele>
<time>2013-11-23T10:30:29Z</time>
<speed>1.620000</speed>
<extensions>
<speed>1.6</speed>
<temp>0.00</temp>
<bpm>0</bpm>
<rpm>0.00</rpm>
</extensions>
</trkpt>
<trkpt lat="30.591581345" lon="34.834766388">
<ele>521.750000</ele>
<time>2013-11-23T10:30:34Z</time>
<speed>1.840000</speed>
<extensions>
<speed>1.8</speed>
<temp>0.00</temp>
<bpm>0</bpm>
<rpm>0.00</rpm>
</extensions>
</trkpt>
<trkpt lat="30.591573715" lon="34.834865570">
<ele>522.421875</ele>
<time>2013-11-23T10:30:39Z</time>
<speed>1.820000</speed>
<extensions>
<speed>1.8</speed>
<temp>0.00</temp>
<bpm>0</bpm>
<rpm>0.00</rpm>
</extensions>
</trkpt>
<trkpt lat="30.591548920" lon="34.834953308">
<ele>523.203125</ele>
<time>2013-11-23T10:30:44Z</time>
<speed>1.720000</speed>
<extensions>
<speed>1.7</speed>
<temp>0.00</temp>
<bpm>0</bpm>
<rpm>0.00</rpm>
</extensions>
</trkpt>
<trkpt lat="30.591516495" lon="34.835021973">
<ele>523.296875</ele>
<time>2013-11-23T10:30:49Z</time>
<speed>1.510000</speed>
<extensions>
<speed>1.5</speed>
<temp>0.00</temp>
<bpm>0</bpm>
<rpm>0.00</rpm>
</extensions>
</trkpt>
<trkpt lat="30.591489792" lon="34.835086823">
<ele>524.046875</ele>
<time>2013-11-23T10:30:54Z</time>
<speed>1.640000</speed>
<extensions>
<speed>1.6</speed>
<temp>0.00</temp>
<bpm>0</bpm>
<rpm>0.00</rpm>
</extensions>
</trkpt>
<trkpt lat="30.591468811" lon="34.835174561">
<ele>524.890625</ele>
<time>2013-11-23T10:30:59Z</time>
<speed>1.930000</speed>
<extensions>
<speed>1.9</speed>
<temp>0.00</temp>
<bpm>0</bpm>
<rpm>0.00</rpm>
</extensions>
</trkpt>
<trkpt lat="30.591424942" lon="34.835269928">
<ele>524.843750</ele>
<time>2013-11-23T10:31:04Z</time>
<speed>2.260000</speed>
<extensions>
<speed>2.3</speed>
<temp>0.00</temp>
<bpm>0</bpm>
<rpm>0.00</rpm>
</extensions>
</trkpt>
<trkpt lat="30.591367722" lon="34.835372925">
<ele>525.171875</ele>
<time>2013-11-23T10:31:09Z</time>
<speed>2.480000</speed>
<extensions>
<speed>2.5</speed>
<temp>0.00</temp>
<bpm>0</bpm>
<rpm>0.00</rpm>
</extensions>
</trkpt>
<trkpt lat="30.591293335" lon="34.835472107">
<ele>525.984375</ele>
<time>2013-11-23T10:31:14Z</time>
<speed>2.760000</speed>
<extensions>
<speed>2.8</speed>
<temp>0.00</temp>
<bpm>0</bpm>
<rpm>0.00</rpm>
</extensions>
</trkpt>
<trkpt lat="30.591205597" lon="34.835571289">
<ele>526.937500</ele>
<time>2013-11-23T10:31:19Z</time>
<speed>2.430000</speed>
<extensions>
<speed>2.4</speed>
<temp>0.00</temp>
<bpm>0</bpm>
<rpm>0.00</rpm>
</extensions>
</trkpt>
<trkpt lat="30.591135025" lon="34.835678101">
<ele>527.750000</ele>
<time>2013-11-23T10:31:24Z</time>
<speed>2.680000</speed>
<extensions>
<speed>2.7</speed>
<temp>0.00</temp>
<bpm>0</bpm>
<rpm>0.00</rpm>
</extensions>
</trkpt>
<trkpt lat="30.591075897" lon="34.835777283">
<ele>528.390625</ele>
<time>2013-11-23T10:31:29Z</time>
<speed>1.540000</speed>
<extensions>
<speed>1.5</speed>
<temp>0.00</temp>
<bpm>0</bpm>
<rpm>0.00</rpm>
</extensions>
</trkpt>
<trkpt lat="30.591028214" lon="34.835872650">
<ele>528.453125</ele>
<time>2013-11-23T10:31:34Z</time>
<speed>2.640000</speed>
<extensions>
<speed>2.6</speed>
<temp>0.00</temp>
<bpm>0</bpm>
<rpm>0.00</rpm>
</extensions>
</trkpt>
<trkpt lat="30.590980530" lon="34.835998535">
<ele>529.953125</ele>
<time>2013-11-23T10:31:39Z</time>
<speed>2.530000</speed>
<extensions>
<speed>2.5</speed>
<temp>0.00</temp>
<bpm>0</bpm>
<rpm>0.00</rpm>
</extensions>
</trkpt>
<trkpt lat="30.590911865" lon="34.836097717">
<ele>529.875000</ele>
<time>2013-11-23T10:31:44Z</time>
<speed>2.700000</speed>
<extensions>
<speed>2.7</speed>
<temp>0.00</temp>
<bpm>0</bpm>
<rpm>0.00</rpm>
</extensions>
</trkpt>
<trkpt lat="30.590837479" lon="34.836208344">
<ele>530.656250</ele>
<time>2013-11-23T10:31:49Z</time>
<speed>2.680000</speed>
<extensions>
<speed>2.7</speed>
<temp>0.00</temp>
<bpm>0</bpm>
<rpm>0.00</rpm>
</extensions>
</trkpt>
<trkpt lat="30.590747833" lon="34.836315155">
<ele>531.421875</ele>
<time>2013-11-23T10:31:54Z</time>
<speed>2.730000</speed>
<extensions>
<speed>2.7</speed>
<temp>0.00</temp>
<bpm>0</bpm>
<rpm>0.00</rpm>
</extensions>
</trkpt>
<trkpt lat="30.590648651" lon="34.836406708">
<ele>531.546875</ele>
<time>2013-11-23T10:31:59Z</time>
<speed>2.560000</speed>
<extensions>
<speed>2.6</speed>
<temp>0.00</temp>
<bpm>0</bpm>
<rpm>0.00</rpm>
</extensions>
</trkpt>
<trkpt lat="30.590557098" lon="34.836479187">
<ele>531.765625</ele>
<time>2013-11-23T10:32:04Z</time>
<speed>2.780000</speed>
<extensions>
<speed>2.8</speed>
<temp>0.00</temp>
<bpm>0</bpm>
<rpm>0.00</rpm>
</extensions>
</trkpt>
<trkpt lat="30.590456009" lon="34.836563110">
<ele>532.031250</ele>
<time>2013-11-23T10:32:09Z</time>
<speed>2.560000</speed>
<extensions>
<speed>2.6</speed>
<temp>0.00</temp>
<bpm>0</bpm>
<rpm>0.00</rpm>
</extensions>
</trkpt>
<trkpt lat="30.590387344" lon="34.836620331">
<ele>533.109375</ele>
<time>2013-11-23T10:32:14Z</time>
<speed>1.600000</speed>
<extensions>
<speed>1.6</speed>
<temp>0.00</temp>
<bpm>0</bpm>
<rpm>0.00</rpm>
</extensions>
</trkpt>
<trkpt lat="30.590297699" lon="34.836692810">
<ele>533.468750</ele>
<time>2013-11-23T10:32:19Z</time>
<speed>3.150000</speed>
<extensions>
<speed>3.2</speed>
<temp>0.00</temp>
<bpm>0</bpm>
<rpm>0.00</rpm>
</extensions>
</trkpt>
<trkpt lat="30.590190887" lon="34.836818695">
<ele>532.562500</ele>
<time>2013-11-23T10:32:24Z</time>
<speed>3.190000</speed>
<extensions>
<speed>3.2</speed>
<temp>0.00</temp>
<bpm>0</bpm>
<rpm>0.00</rpm>
</extensions>
</trkpt>
<trkpt lat="30.590106964" lon="34.837005615">
<ele>533.015625</ele>
<time>2013-11-23T10:32:29Z</time>
<speed>3.770000</speed>
<extensions>
<speed>3.8</speed>
<temp>0.00</temp>
<bpm>0</bpm>
<rpm>0.00</rpm>
</extensions>
</trkpt>
<trkpt lat="30.590013504" lon="34.837184906">
<ele>532.203125</ele>
<time>2013-11-23T10:32:34Z</time>
<speed>3.600000</speed>
<extensions>
<speed>3.6</speed>
<temp>0.00</temp>
<bpm>0</bpm>
<rpm>0.00</rpm>
</extensions>
</trkpt>
<trkpt lat="30.589958191" lon="34.837295532">
<ele>531.921875</ele>
<time>2013-11-23T10:32:39Z</time>
<speed>2.130000</speed>
<extensions>
<speed>2.1</speed>
<temp>0.00</temp>
<bpm>0</bpm>
<rpm>0.00</rpm>
</extensions>
</trkpt>
<trkpt lat="30.589876175" lon="34.837417603">
<ele>530.187500</ele>
<time>2013-11-23T10:32:44Z</time>
<speed>3.320000</speed>
<extensions>
<speed>3.3</speed>
<temp>0.00</temp>
<bpm>0</bpm>
<rpm>0.00</rpm>
</extensions>
</trkpt>
<trkpt lat="30.589729309" lon="34.837512970">
<ele>527.781250</ele>
<time>2013-11-23T10:32:49Z</time>
<speed>4.060000</speed>
<extensions>
<speed>4.1</speed>
<temp>0.00</temp>
<bpm>0</bpm>
<rpm>0.00</rpm>
</extensions>
</trkpt>
<trkpt lat="30.589523315" lon="34.837589264">
<ele>525.093750</ele>
<time>2013-11-23T10:32:54Z</time>
<speed>6.040000</speed>
<extensions>
<speed>6.0</speed>
<temp>0.00</temp>
<bpm>0</bpm>
<rpm>0.00</rpm>
</extensions>
</trkpt>
<trkpt lat="30.589263916" lon="34.837734222">
<ele>522.984375</ele>
<time>2013-11-23T10:32:59Z</time>
<speed>5.580000</speed>
<extensions>
<speed>5.6</speed>
<temp>0.00</temp>
<bpm>0</bpm>
<rpm>0.00</rpm>
</extensions>
</trkpt>
<trkpt lat="30.589179993" lon="34.837924957">
<ele>523.343750</ele>
<time>2013-11-23T10:33:04Z</time>
<speed>3.420000</speed>
<extensions>
<speed>3.4</speed>
<temp>0.00</temp>
<bpm>0</bpm>
<rpm>0.00</rpm>
</extensions>
</trkpt>
<trkpt lat="30.589113235" lon="34.838043213">
<ele>523.937500</ele>
<time>2013-11-23T10:33:09Z</time>
<speed>2.110000</speed>
<extensions>
<speed>2.1</speed>
<temp>0.00</temp>
<bpm>0</bpm>
<rpm>0.00</rpm>
</extensions>
</trkpt>
<trkpt lat="30.589023590" lon="34.838111877">
<ele>524.734375</ele>
<time>2013-11-23T10:33:14Z</time>
<speed>2.510000</speed>
<extensions>
<speed>2.5</speed>
<temp>0.00</temp>
<bpm>0</bpm>
<rpm>0.00</rpm>
</extensions>
</trkpt>
<trkpt lat="30.588916779" lon="34.838165283">
<ele>525.421875</ele>
<time>2013-11-23T10:33:19Z</time>
<speed>3.460000</speed>
<extensions>
<speed>3.5</speed>
<temp>0.00</temp>
<bpm>0</bpm>
<rpm>0.00</rpm>
</extensions>
</trkpt>
<trkpt lat="30.588806152" lon="34.838214874">
<ele>526.453125</ele>
<time>2013-11-23T10:33:24Z</time>
<speed>2.250000</speed>
<extensions>
<speed>2.3</speed>
<temp>0.00</temp>
<bpm>0</bpm>
<rpm>0.00</rpm>
</extensions>
</trkpt>
<trkpt lat="30.588724136" lon="34.838256836">
<ele>526.859375</ele>
<time>2013-11-23T10:33:29Z</time>
<speed>2.330000</speed>
<extensions>
<speed>2.3</speed>
<temp>0.00</temp>
<bpm>0</bpm>
<rpm>0.00</rpm>
</extensions>
</trkpt>
<trkpt lat="30.588628769" lon="34.838317871">
<ele>527.218750</ele>
<time>2013-11-23T10:33:34Z</time>
<speed>2.480000</speed>
<extensions>
<speed>2.5</speed>
<temp>0.00</temp>
<bpm>0</bpm>
<rpm>0.00</rpm>
</extensions>
</trkpt>
<trkpt lat="30.588565826" lon="34.838382721">
<ele>526.890625</ele>
<time>2013-11-23T10:33:39Z</time>
<speed>1.480000</speed>
<extensions>
<speed>1.5</speed>
<temp>0.00</temp>
<bpm>0</bpm>
<rpm>0.00</rpm>
</extensions>
</trkpt>
<trkpt lat="30.588523865" lon="34.838451385">
<ele>527.984375</ele>
<time>2013-11-23T10:33:44Z</time>
<speed>1.770000</speed>
<extensions>
<speed>1.8</speed>
<temp>0.00</temp>
<bpm>0</bpm>
<rpm>0.00</rpm>
</extensions>
</trkpt>
<trkpt lat="30.588483810" lon="34.838523865">
<ele>528.890625</ele>
<time>2013-11-23T10:33:49Z</time>
<speed>1.440000</speed>
<extensions>
<speed>1.4</speed>
<temp>0.00</temp>
<bpm>0</bpm>
<rpm>0.00</rpm>
</extensions>
</trkpt>
<trkpt lat="30.588447571" lon="34.838592529">
<ele>529.328125</ele>
<time>2013-11-23T10:33:54Z</time>
<speed>1.500000</speed>
<extensions>
<speed>1.5</speed>
<temp>0.00</temp>
<bpm>0</bpm>
<rpm>0.00</rpm>
</extensions>
</trkpt>
<trkpt lat="30.588420868" lon="34.838668823">
<ele>529.734375</ele>
<time>2013-11-23T10:33:59Z</time>
<speed>1.350000</speed>
<extensions>
<speed>1.4</speed>
<temp>0.00</temp>
<bpm>0</bpm>
<rpm>0.00</rpm>
</extensions>
</trkpt>
<trkpt lat="30.588394165" lon="34.838729858">
<ele>531.062500</ele>
<time>2013-11-23T10:34:04Z</time>
<speed>1.310000</speed>
<extensions>
<speed>1.3</speed>
<temp>0.00</temp>
<bpm>0</bpm>
<rpm>0.00</rpm>
</extensions>
</trkpt>
<trkpt lat="30.588359833" lon="34.838783264">
<ele>531.406250</ele>
<time>2013-11-23T10:34:09Z</time>
<speed>1.580000</speed>
<extensions>
<speed>1.6</speed>
<temp>0.00</temp>
<bpm>0</bpm>
<rpm>0.00</rpm>
</extensions>
</trkpt>
<trkpt lat="30.588336945" lon="34.838859558">
<ele>533.109375</ele>
<time>2013-11-23T10:34:14Z</time>
<speed>1.110000</speed>
<extensions>
<speed>1.1</speed>
<temp>0.00</temp>
<bpm>0</bpm>
<rpm>0.00</rpm>
</extensions>
</trkpt>
<trkpt lat="30.588321686" lon="34.838912964">
<ele>535.984375</ele>
<time>2013-11-23T10:34:19Z</time>
<speed>1.070000</speed>
<extensions>
<speed>1.1</speed>
<temp>0.00</temp>
<bpm>0</bpm>
<rpm>0.00</rpm>
</extensions>
</trkpt>
<trkpt lat="30.588308334" lon="34.838973999">
<ele>537.890625</ele>
<time>2013-11-23T10:34:24Z</time>
<speed>1.130000</speed>
<extensions>
<speed>1.1</speed>
<temp>0.00</temp>
<bpm>0</bpm>
<rpm>0.00</rpm>
</extensions>
</trkpt>
<trkpt lat="30.588285446" lon="34.839035034">
<ele>539.718750</ele>
<time>2013-11-23T10:34:29Z</time>
<speed>1.230000</speed>
<extensions>
<speed>1.2</speed>
<temp>0.00</temp>
<bpm>0</bpm>
<rpm>0.00</rpm>
</extensions>
</trkpt>
<trkpt lat="30.588268280" lon="34.839099884">
<ele>541.562500</ele>
<time>2013-11-23T10:34:34Z</time>
<speed>1.120000</speed>
<extensions>
<speed>1.1</speed>
<temp>0.00</temp>
<bpm>0</bpm>
<rpm>0.00</rpm>
</extensions>
</trkpt>
<trkpt lat="30.588249207" lon="34.839168549">
<ele>542.484375</ele>
<time>2013-11-23T10:34:39Z</time>
<speed>1.660000</speed>
<extensions>
<speed>1.7</speed>
<temp>0.00</temp>
<bpm>0</bpm>
<rpm>0.00</rpm>
</extensions>
</trkpt>
<trkpt lat="30.588207245" lon="34.839244843">
<ele>543.968750</ele>
<time>2013-11-23T10:34:44Z</time>
<speed>1.860000</speed>
<extensions>
<speed>1.9</speed>
<temp>0.00</temp>
<bpm>0</bpm>
<rpm>0.00</rpm>
</extensions>
</trkpt>
<trkpt lat="30.588146210" lon="34.839336395">
<ele>544.406250</ele>
<time>2013-11-23T10:34:49Z</time>
<speed>2.490000</speed>
<extensions>
<speed>2.5</speed>
<temp>0.00</temp>
<bpm>0</bpm>
<rpm>0.00</rpm>
</extensions>
</trkpt>
<trkpt lat="30.588088989" lon="34.839443207">
<ele>545.140625</ele>
<time>2013-11-23T10:34:54Z</time>
<speed>1.840000</speed>
<extensions>
<speed>1.8</speed>
<temp>0.00</temp>
<bpm>0</bpm>
<rpm>0.00</rpm>
</extensions>
</trkpt>
<trkpt lat="30.588048935" lon="34.839530945">
<ele>546.093750</ele>
<time>2013-11-23T10:34:59Z</time>
<speed>2.560000</speed>
<extensions>
<speed>2.6</speed>
<temp>0.00</temp>
<bpm>0</bpm>
<rpm>0.00</rpm>
</extensions>
</trkpt>
<trkpt lat="30.588001251" lon="34.839664459">
<ele>546.343750</ele>
<time>2013-11-23T10:35:04Z</time>
<speed>2.310000</speed>
<extensions>
<speed>2.3</speed>
<temp>0.00</temp>
<bpm>0</bpm>
<rpm>0.00</rpm>
</extensions>
</trkpt>
<trkpt lat="30.587936401" lon="34.839794159">
<ele>546.484375</ele>
<time>2013-11-23T10:35:09Z</time>
<speed>2.690000</speed>
<extensions>
<speed>2.7</speed>
<temp>0.00</temp>
<bpm>0</bpm>
<rpm>0.00</rpm>
</extensions>
</trkpt>
<trkpt lat="30.587873459" lon="34.839900970">
<ele>546.515625</ele>
<time>2013-11-23T10:35:14Z</time>
<speed>2.520000</speed>
<extensions>
<speed>2.5</speed>
<temp>0.00</temp>
<bpm>0</bpm>
<rpm>0.00</rpm>
</extensions>
</trkpt>
<trkpt lat="30.587789536" lon="34.840019226">
<ele>545.609375</ele>
<time>2013-11-23T10:35:19Z</time>
<speed>3.900000</speed>
<extensions>
<speed>3.9</speed>
<temp>0.00</temp>
<bpm>0</bpm>
<rpm>0.00</rpm>
</extensions>
</trkpt>
<trkpt lat="30.587677002" lon="34.840167999">
<ele>542.093750</ele>
<time>2013-11-23T10:35:24Z</time>
<speed>3.970000</speed>
<extensions>
<speed>4.0</speed>
<temp>0.00</temp>
<bpm>0</bpm>
<rpm>0.00</rpm>
</extensions>
</trkpt>
<trkpt lat="30.587589264" lon="34.840404510">
<ele>538.906250</ele>
<time>2013-11-23T10:35:29Z</time>
<speed>5.980000</speed>
<extensions>
<speed>6.0</speed>
<temp>0.00</temp>
<bpm>0</bpm>
<rpm>0.00</rpm>
</extensions>
</trkpt>
<trkpt lat="30.587501526" lon="34.840728760">
<ele>537.812500</ele>
<time>2013-11-23T10:35:34Z</time>
<speed>4.910000</speed>
<extensions>
<speed>4.9</speed>
<temp>0.00</temp>
<bpm>0</bpm>
<rpm>0.00</rpm>
</extensions>
</trkpt>
<trkpt lat="30.587493896" lon="34.840927124">
<ele>538.093750</ele>
<time>2013-11-23T10:35:39Z</time>
<speed>3.350000</speed>
<extensions>
<speed>3.4</speed>
<temp>0.00</temp>
<bpm>0</bpm>
<rpm>0.00</rpm>
</extensions>
</trkpt>
<trkpt lat="30.587448120" lon="34.841102600">
<ele>537.281250</ele>
<time>2013-11-23T10:35:44Z</time>
<speed>3.370000</speed>
<extensions>
<speed>3.4</speed>
<temp>0.00</temp>
<bpm>0</bpm>
<rpm>0.00</rpm>
</extensions>
</trkpt>
<trkpt lat="30.587387085" lon="34.841255188">
<ele>536.625000</ele>
<time>2013-11-23T10:35:49Z</time>
<speed>2.810000</speed>
<extensions>
<speed>2.8</speed>
<temp>0.00</temp>
<bpm>0</bpm>
<rpm>0.00</rpm>
</extensions>
</trkpt>
<trkpt lat="30.587329865" lon="34.841388702">
<ele>536.281250</ele>
<time>2013-11-23T10:35:54Z</time>
<speed>2.590000</speed>
<extensions>
<speed>2.6</speed>
<temp>0.00</temp>
<bpm>0</bpm>
<rpm>0.00</rpm>
</extensions>
</trkpt>
<trkpt lat="30.587257385" lon="34.841503143">
<ele>536.718750</ele>
<time>2013-11-23T10:35:59Z</time>
<speed>3.310000</speed>
<extensions>
<speed>3.3</speed>
<temp>0.00</temp>
<bpm>0</bpm>
<rpm>0.00</rpm>
</extensions>
</trkpt>
<trkpt lat="30.587163925" lon="34.841613770">
<ele>537.781250</ele>
<time>2013-11-23T10:36:04Z</time>
<speed>2.960000</speed>
<extensions>
<speed>3.0</speed>
<temp>0.00</temp>
<bpm>0</bpm>
<rpm>0.00</rpm>
</extensions>
</trkpt>
<trkpt lat="30.587051392" lon="34.841674805">
<ele>536.468750</ele>
<time>2013-11-23T10:36:09Z</time>
<speed>2.660000</speed>
<extensions>
<speed>2.7</speed>
<temp>0.00</temp>
<bpm>0</bpm>
<rpm>0.00</rpm>
</extensions>
</trkpt>
<trkpt lat="30.586910248" lon="34.841808319">
<ele>534.359375</ele>
<time>2013-11-23T10:36:14Z</time>
<speed>5.080000</speed>
<extensions>
<speed>5.1</speed>
<temp>0.00</temp>
<bpm>0</bpm>
<rpm>0.00</rpm>
</extensions>
</trkpt>
<trkpt lat="30.586750031" lon="34.841960907">
<ele>534.046875</ele>
<time>2013-11-23T10:36:19Z</time>
<speed>3.650000</speed>
<extensions>
<speed>3.7</speed>
<temp>0.00</temp>
<bpm>0</bpm>
<rpm>0.00</rpm>
</extensions>
</trkpt>
<trkpt lat="30.586635590" lon="34.842052460">
<ele>533.921875</ele>
<time>2013-11-23T10:36:24Z</time>
<speed>3.110000</speed>
<extensions>
<speed>3.1</speed>
<temp>0.00</temp>
<bpm>0</bpm>
<rpm>0.00</rpm>
</extensions>
</trkpt>
<trkpt lat="30.586553574" lon="34.842178345">
<ele>535.015625</ele>
<time>2013-11-23T10:36:29Z</time>
<speed>2.330000</speed>
<extensions>
<speed>2.3</speed>
<temp>0.00</temp>
<bpm>0</bpm>
<rpm>0.00</rpm>
</extensions>
</trkpt>
<trkpt lat="30.586528778" lon="34.842357635">
<ele>534.390625</ele>
<time>2013-11-23T10:36:34Z</time>
<speed>3.690000</speed>
<extensions>
<speed>3.7</speed>
<temp>0.00</temp>
<bpm>0</bpm>
<rpm>0.00</rpm>
</extensions>
</trkpt>
<trkpt lat="30.586498260" lon="34.842533112">
<ele>534.609375</ele>
<time>2013-11-23T10:36:39Z</time>
<speed>2.370000</speed>
<extensions>
<speed>2.4</speed>
<temp>0.00</temp>
<bpm>0</bpm>
<rpm>0.00</rpm>
</extensions>
</trkpt>
<trkpt lat="30.586423874" lon="34.842681885">
<ele>532.890625</ele>
<time>2013-11-23T10:36:44Z</time>
<speed>4.270000</speed>
<extensions>
<speed>4.3</speed>
<temp>0.00</temp>
<bpm>0</bpm>
<rpm>0.00</rpm>
</extensions>
</trkpt>
<trkpt lat="30.586277008" lon="34.842815399">
<ele>532.296875</ele>
<time>2013-11-23T10:36:49Z</time>
<speed>3.600000</speed>
<extensions>
<speed>3.6</speed>
<temp>0.00</temp>
<bpm>0</bpm>
<rpm>0.00</rpm>
</extensions>
</trkpt>
<trkpt lat="30.586118698" lon="34.842872620">
<ele>532.671875</ele>
<time>2013-11-23T10:36:54Z</time>
<speed>3.370000</speed>
<extensions>
<speed>3.4</speed>
<temp>0.00</temp>
<bpm>0</bpm>
<rpm>0.00</rpm>
</extensions>
</trkpt>
<trkpt lat="30.585954666" lon="34.842948914">
<ele>532.093750</ele>
<time>2013-11-23T10:36:59Z</time>
<speed>3.900000</speed>
<extensions>
<speed>3.9</speed>
<temp>0.00</temp>
<bpm>0</bpm>
<rpm>0.00</rpm>
</extensions>
</trkpt>
<trkpt lat="30.585811615" lon="34.843063354">
<ele>531.906250</ele>
<time>2013-11-23T10:37:04Z</time>
<speed>3.050000</speed>
<extensions>
<speed>3.0</speed>
<temp>0.00</temp>
<bpm>0</bpm>
<rpm>0.00</rpm>
</extensions>
</trkpt>
<trkpt lat="30.585695267" lon="34.843166351">
<ele>531.843750</ele>
<time>2013-11-23T10:37:09Z</time>
<speed>3.520000</speed>
<extensions>
<speed>3.5</speed>
<temp>0.00</temp>
<bpm>0</bpm>
<rpm>0.00</rpm>
</extensions>
</trkpt>
<trkpt lat="30.585554123" lon="34.843212128">
<ele>532.281250</ele>
<time>2013-11-23T10:37:14Z</time>
<speed>2.900000</speed>
<extensions>
<speed>2.9</speed>
<temp>0.00</temp>
<bpm>0</bpm>
<rpm>0.00</rpm>
</extensions>
</trkpt>
<trkpt lat="30.585412979" lon="34.843223572">
<ele>532.609375</ele>
<time>2013-11-23T10:37:19Z</time>
<speed>3.590000</speed>
<extensions>
<speed>3.6</speed>
<temp>0.00</temp>
<bpm>0</bpm>
<rpm>0.00</rpm>
</extensions>
</trkpt>
<trkpt lat="30.585247040" lon="34.843246460">
<ele>533.421875</ele>
<time>2013-11-23T10:37:24Z</time>
<speed>2.920000</speed>
<extensions>
<speed>2.9</speed>
<temp>0.00</temp>
<bpm>0</bpm>
<rpm>0.00</rpm>
</extensions>
</trkpt>
<trkpt lat="30.585100174" lon="34.843273163">
<ele>534.031250</ele>
<time>2013-11-23T10:37:29Z</time>
<speed>3.740000</speed>
<extensions>
<speed>3.7</speed>
<temp>0.00</temp>
<bpm>0</bpm>
<rpm>0.00</rpm>
</extensions>
</trkpt>
<trkpt lat="30.584930420" lon="34.843273163">
<ele>534.593750</ele>
<time>2013-11-23T10:37:34Z</time>
<speed>3.780000</speed>
<extensions>
<speed>3.8</speed>
<temp>0.00</temp>
<bpm>0</bpm>
<rpm>0.00</rpm>
</extensions>
</trkpt>
<trkpt lat="30.584800720" lon="34.843276978">
<ele>534.515625</ele>
<time>2013-11-23T10:37:39Z</time>
<speed>2.200000</speed>
<extensions>
<speed>2.2</speed>
<temp>0.00</temp>
<bpm>0</bpm>
<rpm>0.00</rpm>
</extensions>
</trkpt>
<trkpt lat="30.584714890" lon="34.843280792">
<ele>534.625000</ele>
<time>2013-11-23T10:37:44Z</time>
<speed>2.350000</speed>
<extensions>
<speed>2.4</speed>
<temp>0.00</temp>
<bpm>0</bpm>
<rpm>0.00</rpm>
</extensions>
</trkpt>
<trkpt lat="30.584573746" lon="34.843315125">
<ele>534.171875</ele>
<time>2013-11-23T10:37:49Z</time>
<speed>3.620000</speed>
<extensions>
<speed>3.6</speed>
<temp>0.00</temp>
<bpm>0</bpm>
<rpm>0.00</rpm>
</extensions>
</trkpt>
<trkpt lat="30.584461212" lon="34.843357086">
<ele>535.062500</ele>
<time>2013-11-23T10:37:54Z</time>
<speed>2.330000</speed>
<extensions>
<speed>2.3</speed>
<temp>0.00</temp>
<bpm>0</bpm>
<rpm>0.00</rpm>
</extensions>
</trkpt>
<trkpt lat="30.584333420" lon="34.843402863">
<ele>535.312500</ele>
<time>2013-11-23T10:37:59Z</time>
<speed>3.550000</speed>
<extensions>
<speed>3.5</speed>
<temp>0.00</temp>
<bpm>0</bpm>
<rpm>0.00</rpm>
</extensions>
</trkpt>
<trkpt lat="30.584211349" lon="34.843456268">
<ele>535.437500</ele>
<time>2013-11-23T10:38:04Z</time>
<speed>2.330000</speed>
<extensions>
<speed>2.3</speed>
<temp>0.00</temp>
<bpm>0</bpm>
<rpm>0.00</rpm>
</extensions>
</trkpt>
<trkpt lat="30.584123611" lon="34.843479156">
<ele>535.406250</ele>
<time>2013-11-23T10:38:09Z</time>
<speed>2.010000</speed>
<extensions>
<speed>2.0</speed>
<temp>0.00</temp>
<bpm>0</bpm>
<rpm>0.00</rpm>
</extensions>
</trkpt>
<trkpt lat="30.584005356" lon="34.843528748">
<ele>536.296875</ele>
<time>2013-11-23T10:38:14Z</time>
<speed>3.100000</speed>
<extensions>
<speed>3.1</speed>
<temp>0.00</temp>
<bpm>0</bpm>
<rpm>0.00</rpm>
</extensions>
</trkpt>
<trkpt lat="30.583873749" lon="34.843589783">
<ele>536.578125</ele>
<time>2013-11-23T10:38:19Z</time>
<speed>2.640000</speed>
<extensions>
<speed>2.6</speed>
<temp>0.00</temp>
<bpm>0</bpm>
<rpm>0.00</rpm>
</extensions>
</trkpt>
<trkpt lat="30.583789825" lon="34.843643188">
<ele>537.109375</ele>
<time>2013-11-23T10:38:24Z</time>
<speed>2.520000</speed>
<extensions>
<speed>2.5</speed>
<temp>0.00</temp>
<bpm>0</bpm>
<rpm>0.00</rpm>
</extensions>
</trkpt>
<trkpt lat="30.583698273" lon="34.843708038">
<ele>536.968750</ele>
<time>2013-11-23T10:38:29Z</time>
<speed>2.610000</speed>
<extensions>
<speed>2.6</speed>
<temp>0.00</temp>
<bpm>0</bpm>
<rpm>0.00</rpm>
</extensions>
</trkpt>
<trkpt lat="30.583602905" lon="34.843772888">
<ele>537.375000</ele>
<time>2013-11-23T10:38:34Z</time>
<speed>1.800000</speed>
<extensions>
<speed>1.8</speed>
<temp>0.00</temp>
<bpm>0</bpm>
<rpm>0.00</rpm>
</extensions>
</trkpt>
<trkpt lat="30.583498001" lon="34.843826294">
<ele>537.265625</ele>
<time>2013-11-23T10:38:39Z</time>
<speed>3.490000</speed>
<extensions>
<speed>3.5</speed>
<temp>0.00</temp>
<bpm>0</bpm>
<rpm>0.00</rpm>
</extensions>
</trkpt>
<trkpt lat="30.583330154" lon="34.843860626">
<ele>537.265625</ele>
<time>2013-11-23T10:38:44Z</time>
<speed>3.930000</speed>
<extensions>
<speed>3.9</speed>
<temp>0.00</temp>
<bpm>0</bpm>
<rpm>0.00</rpm>
</extensions>
</trkpt>
<trkpt lat="30.583116531" lon="34.843875885">
<ele>535.234375</ele>
<time>2013-11-23T10:38:49Z</time>
<speed>5.900000</speed>
<extensions>
<speed>5.9</speed>
<temp>0.00</temp>
<bpm>0</bpm>
<rpm>0.00</rpm>
</extensions>
</trkpt>
<trkpt lat="30.582897186" lon="34.843955994">
<ele>534.984375</ele>
<time>2013-11-23T10:38:54Z</time>
<speed>4.390000</speed>
<extensions>
<speed>4.4</speed>
<temp>0.00</temp>
<bpm>0</bpm>
<rpm>0.00</rpm>
</extensions>
</trkpt>
<trkpt lat="30.582735062" lon="34.844036102">
<ele>535.812500</ele>
<time>2013-11-23T10:38:59Z</time>
<speed>3.910000</speed>
<extensions>
<speed>3.9</speed>
<temp>0.00</temp>
<bpm>0</bpm>
<rpm>0.00</rpm>
</extensions>
</trkpt>
<trkpt lat="30.582601547" lon="34.844188690">
<ele>536.328125</ele>
<time>2013-11-23T10:39:04Z</time>
<speed>4.330000</speed>
<extensions>
<speed>4.3</speed>
<temp>0.00</temp>
<bpm>0</bpm>
<rpm>0.00</rpm>
</extensions>
</trkpt>
<trkpt lat="30.582485199" lon="34.844329834">
<ele>536.546875</ele>
<time>2013-11-23T10:39:09Z</time>
<speed>2.790000</speed>
<extensions>
<speed>2.8</speed>
<temp>0.00</temp>
<bpm>0</bpm>
<rpm>0.00</rpm>
</extensions>
</trkpt>
<trkpt lat="30.582384109" lon="34.844413757">
<ele>536.984375</ele>
<time>2013-11-23T10:39:14Z</time>
<speed>3.250000</speed>
<extensions>
<speed>3.2</speed>
<temp>0.00</temp>
<bpm>0</bpm>
<rpm>0.00</rpm>
</extensions>
</trkpt>
<trkpt lat="30.582248688" lon="34.844463348">
<ele>538.140625</ele>
<time>2013-11-23T10:39:19Z</time>
<speed>2.940000</speed>
<extensions>
<speed>2.9</speed>
<temp>0.00</temp>
<bpm>0</bpm>
<rpm>0.00</rpm>
</extensions>
</trkpt>
<trkpt lat="30.582118988" lon="34.844539642">
<ele>537.609375</ele>
<time>2013-11-23T10:39:24Z</time>
<speed>3.460000</speed>
<extensions>
<speed>3.5</speed>
<temp>0.00</temp>
<bpm>0</bpm>
<rpm>0.00</rpm>
</extensions>
</trkpt>
<trkpt lat="30.582010269" lon="34.844676971">
<ele>537.421875</ele>
<time>2013-11-23T10:39:29Z</time>
<speed>2.900000</speed>
<extensions>
<speed>2.9</speed>
<temp>0.00</temp>
<bpm>0</bpm>
<rpm>0.00</rpm>
</extensions>
</trkpt>
<trkpt lat="30.581911087" lon="34.844768524">
<ele>537.468750</ele>
<time>2013-11-23T10:39:34Z</time>
<speed>3.200000</speed>
<extensions>
<speed>3.2</speed>
<temp>0.00</temp>
<bpm>0</bpm>
<rpm>0.00</rpm>
</extensions>
</trkpt>
<trkpt lat="30.581764221" lon="34.844856262">
<ele>537.906250</ele>
<time>2013-11-23T10:39:39Z</time>
<speed>3.890000</speed>
<extensions>
<speed>3.9</speed>
<temp>0.00</temp>
<bpm>0</bpm>
<rpm>0.00</rpm>
</extensions>
</trkpt>
<trkpt lat="30.581628799" lon="34.844936371">
<ele>537.468750</ele>
<time>2013-11-23T10:39:44Z</time>
<speed>3.690000</speed>
<extensions>
<speed>3.7</speed>
<temp>0.00</temp>
<bpm>0</bpm>
<rpm>0.00</rpm>
</extensions>
</trkpt>
<trkpt lat="30.581474304" lon="34.845043182">
<ele>537.687500</ele>
<time>2013-11-23T10:39:49Z</time>
<speed>4.150000</speed>
<extensions>
<speed>4.1</speed>
<temp>0.00</temp>
<bpm>0</bpm>
<rpm>0.00</rpm>
</extensions>
</trkpt>
<trkpt lat="30.581346512" lon="34.845149994">
<ele>537.656250</ele>
<time>2013-11-23T10:39:54Z</time>
<speed>3.210000</speed>
<extensions>
<speed>3.2</speed>
<temp>0.00</temp>
<bpm>0</bpm>
<rpm>0.00</rpm>
</extensions>
</trkpt>
<trkpt lat="30.581226349" lon="34.845264435">
<ele>537.812500</ele>
<time>2013-11-23T10:39:59Z</time>
<speed>2.840000</speed>
<extensions>
<speed>2.8</speed>
<temp>0.00</temp>
<bpm>0</bpm>
<rpm>0.00</rpm>
</extensions>
</trkpt>
<trkpt lat="30.581121445" lon="34.845336914">
<ele>538.015625</ele>
<time>2013-11-23T10:40:04Z</time>
<speed>3.290000</speed>
<extensions>
<speed>3.3</speed>
<temp>0.00</temp>
<bpm>0</bpm>
<rpm>0.00</rpm>
</extensions>
</trkpt>
<trkpt lat="30.580984116" lon="34.845420837">
<ele>538.437500</ele>
<time>2013-11-23T10:40:09Z</time>
<speed>3.700000</speed>
<extensions>
<speed>3.7</speed>
<temp>0.00</temp>
<bpm>0</bpm>
<rpm>0.00</rpm>
</extensions>
</trkpt>
<trkpt lat="30.580856323" lon="34.845527649">
<ele>537.968750</ele>
<time>2013-11-23T10:40:14Z</time>
<speed>2.940000</speed>
<extensions>
<speed>2.9</speed>
<temp>0.00</temp>
<bpm>0</bpm>
<rpm>0.00</rpm>
</extensions>
</trkpt>
<trkpt lat="30.580799103" lon="34.845573425">
<ele>539.046875</ele>
<time>2013-11-23T10:40:19Z</time>
<speed>0.070000</speed>
<extensions>
<speed>0.1</speed>
<temp>0.00</temp>
<bpm>0</bpm>
<rpm>0.00</rpm>
</extensions>
</trkpt>
<trkpt lat="30.580801010" lon="34.845569611">
<ele>538.984375</ele>
<time>2013-11-23T10:40:24Z</time>
<extensions>
<speed>0.0</speed>
<temp>0.00</temp>
<bpm>0</bpm>
<rpm>0.00</rpm>
</extensions>
</trkpt>
<trkpt lat="30.580801010" lon="34.845569611">
<ele>539.031250</ele>
<time>2013-11-23T10:40:29Z</time>
<speed>0.030000</speed>
<extensions>
<speed>0.0</speed>
<temp>0.00</temp>
<bpm>0</bpm>
<rpm>0.00</rpm>
</extensions>
</trkpt>
<trkpt lat="30.580801010" lon="34.845569611">
<ele>539.093750</ele>
<time>2013-11-23T10:40:34Z</time>
<speed>0.010000</speed>
<extensions>
<speed>0.0</speed>
<temp>0.00</temp>
<bpm>0</bpm>
<rpm>0.00</rpm>
</extensions>
</trkpt>
<trkpt lat="30.580801010" lon="34.845569611">
<ele>539.140625</ele>
<time>2013-11-23T10:40:39Z</time>
<speed>0.010000</speed>
<extensions>
<speed>0.0</speed>
<temp>0.00</temp>
<bpm>0</bpm>
<rpm>0.00</rpm>
</extensions>
</trkpt>
<trkpt lat="30.580802917" lon="34.845569611">
<ele>539.187500</ele>
<time>2013-11-23T10:40:44Z</time>
<speed>0.010000</speed>
<extensions>
<speed>0.0</speed>
<temp>0.00</temp>
<bpm>0</bpm>
<rpm>0.00</rpm>
</extensions>
</trkpt>
<trkpt lat="30.580802917" lon="34.845569611">
<ele>539.234375</ele>
<time>2013-11-23T10:40:49Z</time>
<speed>0.040000</speed>
<extensions>
<speed>0.0</speed>
<temp>0.00</temp>
<bpm>0</bpm>
<rpm>0.00</rpm>
</extensions>
</trkpt>
<trkpt lat="30.580802917" lon="34.845569611">
<ele>539.265625</ele>
<time>2013-11-23T10:40:54Z</time>
<speed>0.030000</speed>
<extensions>
<speed>0.0</speed>
<temp>0.00</temp>
<bpm>0</bpm>
<rpm>0.00</rpm>
</extensions>
</trkpt>
<trkpt lat="30.580802917" lon="34.845569611">
<ele>539.265625</ele>
<time>2013-11-23T10:40:59Z</time>
<extensions>
<speed>0.0</speed>
<temp>0.00</temp>
<bpm>0</bpm>
<rpm>0.00</rpm>
</extensions>
</trkpt>
<trkpt lat="30.580802917" lon="34.845569611">
<ele>539.265625</ele>
<time>2013-11-23T10:41:04Z</time>
<extensions>
<speed>0.0</speed>
<temp>0.00</temp>
<bpm>0</bpm>
<rpm>0.00</rpm>
</extensions>
</trkpt>
<trkpt lat="30.580802917" lon="34.845569611">
<ele>539.265625</ele>
<time>2013-11-23T10:41:09Z</time>
<speed>0.010000</speed>
<extensions>
<speed>0.0</speed>
<temp>0.00</temp>
<bpm>0</bpm>
<rpm>0.00</rpm>
</extensions>
</trkpt>
<trkpt lat="30.580802917" lon="34.845569611">
<ele>539.265625</ele>
<time>2013-11-23T10:41:14Z</time>
<extensions>
<speed>0.0</speed>
<temp>0.00</temp>
<bpm>0</bpm>
<rpm>0.00</rpm>
</extensions>
</trkpt>
<trkpt lat="30.580802917" lon="34.845569611">
<ele>539.265625</ele>
<time>2013-11-23T10:41:19Z</time>
<speed>0.270000</speed>
<extensions>
<speed>0.3</speed>
<temp>0.00</temp>
<bpm>0</bpm>
<rpm>0.00</rpm>
</extensions>
</trkpt>
<trkpt lat="30.580747604" lon="34.845615387">
<ele>539.609375</ele>
<time>2013-11-23T10:41:24Z</time>
<speed>2.130000</speed>
<extensions>
<speed>2.1</speed>
<temp>0.00</temp>
<bpm>0</bpm>
<rpm>0.00</rpm>
</extensions>
</trkpt>
<trkpt lat="30.580636978" lon="34.845657349">
<ele>540.125000</ele>
<time>2013-11-23T10:41:29Z</time>
<speed>2.930000</speed>
<extensions>
<speed>2.9</speed>
<temp>0.00</temp>
<bpm>0</bpm>
<rpm>0.00</rpm>
</extensions>
</trkpt>
<trkpt lat="30.580516815" lon="34.845691681">
<ele>541.531250</ele>
<time>2013-11-23T10:41:34Z</time>
<speed>2.940000</speed>
<extensions>
<speed>2.9</speed>
<temp>0.00</temp>
<bpm>0</bpm>
<rpm>0.00</rpm>
</extensions>
</trkpt>
<trkpt lat="30.580406189" lon="34.845767975">
<ele>542.625000</ele>
<time>2013-11-23T10:41:39Z</time>
<speed>2.730000</speed>
<extensions>
<speed>2.7</speed>
<temp>0.00</temp>
<bpm>0</bpm>
<rpm>0.00</rpm>
</extensions>
</trkpt>
<trkpt lat="30.580293655" lon="34.845821381">
<ele>544.218750</ele>
<time>2013-11-23T10:41:44Z</time>
<speed>2.980000</speed>
<extensions>
<speed>3.0</speed>
<temp>0.00</temp>
<bpm>0</bpm>
<rpm>0.00</rpm>
</extensions>
</trkpt>
<trkpt lat="30.580163956" lon="34.845825195">
<ele>544.109375</ele>
<time>2013-11-23T10:41:49Z</time>
<speed>2.650000</speed>
<extensions>
<speed>2.6</speed>
<temp>0.00</temp>
<bpm>0</bpm>
<rpm>0.00</rpm>
</extensions>
</trkpt>
<trkpt lat="30.580032349" lon="34.845787048">
<ele>543.828125</ele>
<time>2013-11-23T10:41:54Z</time>
<speed>2.950000</speed>
<extensions>
<speed>2.9</speed>
<temp>0.00</temp>
<bpm>0</bpm>
<rpm>0.00</rpm>
</extensions>
</trkpt>
<trkpt lat="30.579896927" lon="34.845779419">
<ele>544.875000</ele>
<time>2013-11-23T10:41:59Z</time>
<speed>3.130000</speed>
<extensions>
<speed>3.1</speed>
<temp>0.00</temp>
<bpm>0</bpm>
<rpm>0.00</rpm>
</extensions>
</trkpt>
<trkpt lat="30.579750061" lon="34.845840454">
<ele>545.453125</ele>
<time>2013-11-23T10:42:04Z</time>
<speed>3.110000</speed>
<extensions>
<speed>3.1</speed>
<temp>0.00</temp>
<bpm>0</bpm>
<rpm>0.00</rpm>
</extensions>
</trkpt>
<trkpt lat="30.579671860" lon="34.845920563">
<ele>546.062500</ele>
<time>2013-11-23T10:42:09Z</time>
<speed>2.220000</speed>
<extensions>
<speed>2.2</speed>
<temp>0.00</temp>
<bpm>0</bpm>
<rpm>0.00</rpm>
</extensions>
</trkpt>
<trkpt lat="30.579587936" lon="34.846035004">
<ele>546.609375</ele>
<time>2013-11-23T10:42:14Z</time>
<speed>3.110000</speed>
<extensions>
<speed>3.1</speed>
<temp>0.00</temp>
<bpm>0</bpm>
<rpm>0.00</rpm>
</extensions>
</trkpt>
<trkpt lat="30.579504013" lon="34.846153259">
<ele>547.171875</ele>
<time>2013-11-23T10:42:19Z</time>
<speed>2.300000</speed>
<extensions>
<speed>2.3</speed>
<temp>0.00</temp>
<bpm>0</bpm>
<rpm>0.00</rpm>
</extensions>
</trkpt>
<trkpt lat="30.579460144" lon="34.846210480">
<ele>547.046875</ele>
<time>2013-11-23T10:42:24Z</time>
<speed>1.050000</speed>
<extensions>
<speed>1.0</speed>
<temp>0.00</temp>
<bpm>0</bpm>
<rpm>0.00</rpm>
</extensions>
</trkpt>
<trkpt lat="30.579439163" lon="34.846252441">
<ele>547.250000</ele>
<time>2013-11-23T10:42:29Z</time>
<speed>1.230000</speed>
<extensions>
<speed>1.2</speed>
<temp>0.00</temp>
<bpm>0</bpm>
<rpm>0.00</rpm>
</extensions>
</trkpt>
<trkpt lat="30.579383850" lon="34.846309662">
<ele>547.593750</ele>
<time>2013-11-23T10:42:34Z</time>
<speed>2.220000</speed>
<extensions>
<speed>2.2</speed>
<temp>0.00</temp>
<bpm>0</bpm>
<rpm>0.00</rpm>
</extensions>
</trkpt>
<trkpt lat="30.579315186" lon="34.846389771">
<ele>548.250000</ele>
<time>2013-11-23T10:42:39Z</time>
<speed>2.340000</speed>
<extensions>
<speed>2.3</speed>
<temp>0.00</temp>
<bpm>0</bpm>
<rpm>0.00</rpm>
</extensions>
</trkpt>
<trkpt lat="30.579219818" lon="34.846488953">
<ele>548.859375</ele>
<time>2013-11-23T10:42:44Z</time>
<speed>3.340000</speed>
<extensions>
<speed>3.3</speed>
<temp>0.00</temp>
<bpm>0</bpm>
<rpm>0.00</rpm>
</extensions>
</trkpt>
<trkpt lat="30.579128265" lon="34.846599579">
<ele>549.203125</ele>
<time>2013-11-23T10:42:49Z</time>
<speed>2.200000</speed>
<extensions>
<speed>2.2</speed>
<temp>0.00</temp>
<bpm>0</bpm>
<rpm>0.00</rpm>
</extensions>
</trkpt>
<trkpt lat="30.579078674" lon="34.846664429">
<ele>549.531250</ele>
<time>2013-11-23T10:42:54Z</time>
<speed>1.980000</speed>
<extensions>
<speed>2.0</speed>
<temp>0.00</temp>
<bpm>0</bpm>
<rpm>0.00</rpm>
</extensions>
</trkpt>
<trkpt lat="30.579006195" lon="34.846767426">
<ele>549.859375</ele>
<time>2013-11-23T10:42:59Z</time>
<speed>2.970000</speed>
<extensions>
<speed>3.0</speed>
<temp>0.00</temp>
<bpm>0</bpm>
<rpm>0.00</rpm>
</extensions>
</trkpt>
<trkpt lat="30.578922272" lon="34.846866608">
<ele>550.593750</ele>
<time>2013-11-23T10:43:04Z</time>
<speed>1.930000</speed>
<extensions>
<speed>1.9</speed>
<temp>0.00</temp>
<bpm>0</bpm>
<rpm>0.00</rpm>
</extensions>
</trkpt>
<trkpt lat="30.578844070" lon="34.846954346">
<ele>551.093750</ele>
<time>2013-11-23T10:43:09Z</time>
<speed>2.570000</speed>
<extensions>
<speed>2.6</speed>
<temp>0.00</temp>
<bpm>0</bpm>
<rpm>0.00</rpm>
</extensions>
</trkpt>
<trkpt lat="30.578760147" lon="34.847061157">
<ele>551.671875</ele>
<time>2013-11-23T10:43:14Z</time>
<speed>3.040000</speed>
<extensions>
<speed>3.0</speed>
<temp>0.00</temp>
<bpm>0</bpm>
<rpm>0.00</rpm>
</extensions>
</trkpt>
<trkpt lat="30.578653336" lon="34.847183228">
<ele>551.890625</ele>
<time>2013-11-23T10:43:19Z</time>
<speed>2.760000</speed>
<extensions>
<speed>2.8</speed>
<temp>0.00</temp>
<bpm>0</bpm>
<rpm>0.00</rpm>
</extensions>
</trkpt>
<trkpt lat="30.578575134" lon="34.847263336">
<ele>552.296875</ele>
<time>2013-11-23T10:43:24Z</time>
<speed>2.790000</speed>
<extensions>
<speed>2.8</speed>
<temp>0.00</temp>
<bpm>0</bpm>
<rpm>0.00</rpm>
</extensions>
</trkpt>
<trkpt lat="30.578481674" lon="34.847358704">
<ele>552.562500</ele>
<time>2013-11-23T10:43:29Z</time>
<speed>2.310000</speed>
<extensions>
<speed>2.3</speed>
<temp>0.00</temp>
<bpm>0</bpm>
<rpm>0.00</rpm>
</extensions>
</trkpt>
<trkpt lat="30.578422546" lon="34.847419739">
<ele>552.562500</ele>
<time>2013-11-23T10:43:34Z</time>
<speed>1.080000</speed>
<extensions>
<speed>1.1</speed>
<temp>0.00</temp>
<bpm>0</bpm>
<rpm>0.00</rpm>
</extensions>
</trkpt>
<trkpt lat="30.578382492" lon="34.847457886">
<ele>552.562500</ele>
<time>2013-11-23T10:43:39Z</time>
<speed>1.530000</speed>
<extensions>
<speed>1.5</speed>
<temp>0.00</temp>
<bpm>0</bpm>
<rpm>0.00</rpm>
</extensions>
</trkpt>
<trkpt lat="30.578321457" lon="34.847515106">
<ele>552.750000</ele>
<time>2013-11-23T10:43:44Z</time>
<speed>1.980000</speed>
<extensions>
<speed>2.0</speed>
<temp>0.00</temp>
<bpm>0</bpm>
<rpm>0.00</rpm>
</extensions>
</trkpt>
<trkpt lat="30.578252792" lon="34.847595215">
<ele>553.046875</ele>
<time>2013-11-23T10:43:49Z</time>
<speed>2.430000</speed>
<extensions>
<speed>2.4</speed>
<temp>0.00</temp>
<bpm>0</bpm>
<rpm>0.00</rpm>
</extensions>
</trkpt>
<trkpt lat="30.578159332" lon="34.847690582">
<ele>553.281250</ele>
<time>2013-11-23T10:43:54Z</time>
<speed>2.560000</speed>
<extensions>
<speed>2.6</speed>
<temp>0.00</temp>
<bpm>0</bpm>
<rpm>0.00</rpm>
</extensions>
</trkpt>
<trkpt lat="30.578086853" lon="34.847747803">
<ele>553.906250</ele>
<time>2013-11-23T10:43:59Z</time>
<speed>1.680000</speed>
<extensions>
<speed>1.7</speed>
<temp>0.00</temp>
<bpm>0</bpm>
<rpm>0.00</rpm>
</extensions>
</trkpt>
<trkpt lat="30.578002930" lon="34.847824097">
<ele>553.625000</ele>
<time>2013-11-23T10:44:04Z</time>
<speed>2.870000</speed>
<extensions>
<speed>2.9</speed>
<temp>0.00</temp>
<bpm>0</bpm>
<rpm>0.00</rpm>
</extensions>
</trkpt>
<trkpt lat="30.577913284" lon="34.847927094">
<ele>554.109375</ele>
<time>2013-11-23T10:44:09Z</time>
<speed>2.920000</speed>
<extensions>
<speed>2.9</speed>
<temp>0.00</temp>
<bpm>0</bpm>
<rpm>0.00</rpm>
</extensions>
</trkpt>
<trkpt lat="30.577823639" lon="34.848037720">
<ele>554.390625</ele>
<time>2013-11-23T10:44:14Z</time>
<speed>2.850000</speed>
<extensions>
<speed>2.9</speed>
<temp>0.00</temp>
<bpm>0</bpm>
<rpm>0.00</rpm>
</extensions>
</trkpt>
<trkpt lat="30.577739716" lon="34.848163605">
<ele>554.656250</ele>
<time>2013-11-23T10:44:19Z</time>
<speed>3.140000</speed>
<extensions>
<speed>3.1</speed>
<temp>0.00</temp>
<bpm>0</bpm>
<rpm>0.00</rpm>
</extensions>
</trkpt>
<trkpt lat="30.577665329" lon="34.848304749">
<ele>554.609375</ele>
<time>2013-11-23T10:44:24Z</time>
<speed>2.960000</speed>
<extensions>
<speed>3.0</speed>
<temp>0.00</temp>
<bpm>0</bpm>
<rpm>0.00</rpm>
</extensions>
</trkpt>
<trkpt lat="30.577610016" lon="34.848453522">
<ele>555.296875</ele>
<time>2013-11-23T10:44:29Z</time>
<speed>3.080000</speed>
<extensions>
<speed>3.1</speed>
<temp>0.00</temp>
<bpm>0</bpm>
<rpm>0.00</rpm>
</extensions>
</trkpt>
<trkpt lat="30.577550888" lon="34.848606110">
<ele>555.750000</ele>
<time>2013-11-23T10:44:34Z</time>
<speed>3.080000</speed>
<extensions>
<speed>3.1</speed>
<temp>0.00</temp>
<bpm>0</bpm>
<rpm>0.00</rpm>
</extensions>
</trkpt>
<trkpt lat="30.577470779" lon="34.848747253">
<ele>556.000000</ele>
<time>2013-11-23T10:44:39Z</time>
<speed>3.450000</speed>
<extensions>
<speed>3.5</speed>
<temp>0.00</temp>
<bpm>0</bpm>
<rpm>0.00</rpm>
</extensions>
</trkpt>
<trkpt lat="30.577404022" lon="34.848896027">
<ele>556.500000</ele>
<time>2013-11-23T10:44:44Z</time>
<speed>3.170000</speed>
<extensions>
<speed>3.2</speed>
<temp>0.00</temp>
<bpm>0</bpm>
<rpm>0.00</rpm>
</extensions>
</trkpt>
<trkpt lat="30.577329636" lon="34.849048615">
<ele>557.015625</ele>
<time>2013-11-23T10:44:49Z</time>
<speed>3.240000</speed>
<extensions>
<speed>3.2</speed>
<temp>0.00</temp>
<bpm>0</bpm>
<rpm>0.00</rpm>
</extensions>
</trkpt>
<trkpt lat="30.577268600" lon="34.849231720">
<ele>556.125000</ele>
<time>2013-11-23T10:44:54Z</time>
<speed>3.510000</speed>
<extensions>
<speed>3.5</speed>
<temp>0.00</temp>
<bpm>0</bpm>
<rpm>0.00</rpm>
</extensions>
</trkpt>
<trkpt lat="30.577255249" lon="34.849365234">
<ele>555.937500</ele>
<time>2013-11-23T10:44:59Z</time>
<speed>2.310000</speed>
<extensions>
<speed>2.3</speed>
<temp>0.00</temp>
<bpm>0</bpm>
<rpm>0.00</rpm>
</extensions>
</trkpt>
<trkpt lat="30.577230453" lon="34.849529266">
<ele>555.625000</ele>
<time>2013-11-23T10:45:04Z</time>
<speed>3.390000</speed>
<extensions>
<speed>3.4</speed>
<temp>0.00</temp>
<bpm>0</bpm>
<rpm>0.00</rpm>
</extensions>
</trkpt>
<trkpt lat="30.577180862" lon="34.849666595">
<ele>555.796875</ele>
<time>2013-11-23T10:45:09Z</time>
<speed>2.000000</speed>
<extensions>
<speed>2.0</speed>
<temp>0.00</temp>
<bpm>0</bpm>
<rpm>0.00</rpm>
</extensions>
</trkpt>
<trkpt lat="30.577150345" lon="34.849716187">
<ele>555.765625</ele>
<time>2013-11-23T10:45:14Z</time>
<speed>1.640000</speed>
<extensions>
<speed>1.6</speed>
<temp>0.00</temp>
<bpm>0</bpm>
<rpm>0.00</rpm>
</extensions>
</trkpt>
<trkpt lat="30.577102661" lon="34.849807739">
<ele>555.937500</ele>
<time>2013-11-23T10:45:19Z</time>
<speed>2.490000</speed>
<extensions>
<speed>2.5</speed>
<temp>0.00</temp>
<bpm>0</bpm>
<rpm>0.00</rpm>
</extensions>
</trkpt>
<trkpt lat="30.577037811" lon="34.849941254">
<ele>555.437500</ele>
<time>2013-11-23T10:45:24Z</time>
<speed>2.980000</speed>
<extensions>
<speed>3.0</speed>
<temp>0.00</temp>
<bpm>0</bpm>
<rpm>0.00</rpm>
</extensions>
</trkpt>
<trkpt lat="30.576980591" lon="34.850074768">
<ele>555.312500</ele>
<time>2013-11-23T10:45:29Z</time>
<speed>2.520000</speed>
<extensions>
<speed>2.5</speed>
<temp>0.00</temp>
<bpm>0</bpm>
<rpm>0.00</rpm>
</extensions>
</trkpt>
<trkpt lat="30.576908112" lon="34.850242615">
<ele>554.000000</ele>
<time>2013-11-23T10:45:34Z</time>
<speed>3.920000</speed>
<extensions>
<speed>3.9</speed>
<temp>0.00</temp>
<bpm>0</bpm>
<rpm>0.00</rpm>
</extensions>
</trkpt>
<trkpt lat="30.576852798" lon="34.850368500">
<ele>555.656250</ele>
<time>2013-11-23T10:45:39Z</time>
<speed>1.840000</speed>
<extensions>
<speed>1.8</speed>
<temp>0.00</temp>
<bpm>0</bpm>
<rpm>0.00</rpm>
</extensions>
</trkpt>
<trkpt lat="30.576814651" lon="34.850486755">
<ele>555.906250</ele>
<time>2013-11-23T10:45:44Z</time>
<speed>2.740000</speed>
<extensions>
<speed>2.7</speed>
<temp>0.00</temp>
<bpm>0</bpm>
<rpm>0.00</rpm>
</extensions>
</trkpt>
<trkpt lat="30.576803207" lon="34.850620270">
<ele>555.250000</ele>
<time>2013-11-23T10:45:49Z</time>
<speed>1.790000</speed>
<extensions>
<speed>1.8</speed>
<temp>0.00</temp>
<bpm>0</bpm>
<rpm>0.00</rpm>
</extensions>
</trkpt>
<trkpt lat="30.576789856" lon="34.850723267">
<ele>555.734375</ele>
<time>2013-11-23T10:45:54Z</time>
<speed>2.380000</speed>
<extensions>
<speed>2.4</speed>
<temp>0.00</temp>
<bpm>0</bpm>
<rpm>0.00</rpm>
</extensions>
</trkpt>
<trkpt lat="30.576791763" lon="34.850803375">
<ele>556.750000</ele>
<time>2013-11-23T10:45:59Z</time>
<speed>1.080000</speed>
<extensions>
<speed>1.1</speed>
<temp>0.00</temp>
<bpm>0</bpm>
<rpm>0.00</rpm>
</extensions>
</trkpt>
<trkpt lat="30.576787949" lon="34.850910187">
<ele>556.359375</ele>
<time>2013-11-23T10:46:04Z</time>
<speed>2.320000</speed>
<extensions>
<speed>2.3</speed>
<temp>0.00</temp>
<bpm>0</bpm>
<rpm>0.00</rpm>
</extensions>
</trkpt>
<trkpt lat="30.576770782" lon="34.851028442">
<ele>556.906250</ele>
<time>2013-11-23T10:46:09Z</time>
<speed>2.490000</speed>
<extensions>
<speed>2.5</speed>
<temp>0.00</temp>
<bpm>0</bpm>
<rpm>0.00</rpm>
</extensions>
</trkpt>
<trkpt lat="30.576734543" lon="34.851177216">
<ele>556.781250</ele>
<time>2013-11-23T10:46:14Z</time>
<speed>2.630000</speed>
<extensions>
<speed>2.6</speed>
<temp>0.00</temp>
<bpm>0</bpm>
<rpm>0.00</rpm>
</extensions>
</trkpt>
<trkpt lat="30.576696396" lon="34.851299286">
<ele>556.953125</ele>
<time>2013-11-23T10:46:19Z</time>
<speed>2.650000</speed>
<extensions>
<speed>2.6</speed>
<temp>0.00</temp>
<bpm>0</bpm>
<rpm>0.00</rpm>
</extensions>
</trkpt>
<trkpt lat="30.576684952" lon="34.851482391">
<ele>555.828125</ele>
<time>2013-11-23T10:46:24Z</time>
<speed>3.440000</speed>
<extensions>
<speed>3.4</speed>
<temp>0.00</temp>
<bpm>0</bpm>
<rpm>0.00</rpm>
</extensions>
</trkpt>
<trkpt lat="30.576728821" lon="34.851631165">
<ele>556.265625</ele>
<time>2013-11-23T10:46:29Z</time>
<speed>2.970000</speed>
<extensions>
<speed>3.0</speed>
<temp>0.00</temp>
<bpm>0</bpm>
<rpm>0.00</rpm>
</extensions>
</trkpt>
<trkpt lat="30.576837540" lon="34.851734161">
<ele>556.265625</ele>
<time>2013-11-23T10:46:34Z</time>
<speed>3.480000</speed>
<extensions>
<speed>3.5</speed>
<temp>0.00</temp>
<bpm>0</bpm>
<rpm>0.00</rpm>
</extensions>
</trkpt>
<trkpt lat="30.576959610" lon="34.851779938">
<ele>557.437500</ele>
<time>2013-11-23T10:46:39Z</time>
<speed>2.130000</speed>
<extensions>
<speed>2.1</speed>
<temp>0.00</temp>
<bpm>0</bpm>
<rpm>0.00</rpm>
</extensions>
</trkpt>
<trkpt lat="30.577039719" lon="34.851791382">
<ele>557.125000</ele>
<time>2013-11-23T10:46:44Z</time>
<speed>1.750000</speed>
<extensions>
<speed>1.8</speed>
<temp>0.00</temp>
<bpm>0</bpm>
<rpm>0.00</rpm>
</extensions>
</trkpt>
<trkpt lat="30.577117920" lon="34.851886749">
<ele>555.500000</ele>
<time>2013-11-23T10:46:49Z</time>
<speed>0.540000</speed>
<extensions>
<speed>0.5</speed>
<temp>0.00</temp>
<bpm>0</bpm>
<rpm>0.00</rpm>
</extensions>
</trkpt>
<trkpt lat="30.577140808" lon="34.851894379">
<ele>556.250000</ele>
<time>2013-11-23T10:46:54Z</time>
<speed>0.750000</speed>
<extensions>
<speed>0.8</speed>
<temp>0.00</temp>
<bpm>0</bpm>
<rpm>0.00</rpm>
</extensions>
</trkpt>
<trkpt lat="30.577177048" lon="34.851902008">
<ele>556.984375</ele>
<time>2013-11-23T10:46:59Z</time>
<speed>1.090000</speed>
<extensions>
<speed>1.1</speed>
<temp>0.00</temp>
<bpm>0</bpm>
<rpm>0.00</rpm>
</extensions>
</trkpt>
<trkpt lat="30.577194214" lon="34.851905823">
<ele>557.640625</ele>
<time>2013-11-23T10:47:04Z</time>
<speed>0.050000</speed>
<extensions>
<speed>0.1</speed>
<temp>0.00</temp>
<bpm>0</bpm>
<rpm>0.00</rpm>
</extensions>
</trkpt>
<trkpt lat="30.577194214" lon="34.851905823">
<ele>557.687500</ele>
<time>2013-11-23T10:47:09Z</time>
<speed>0.030000</speed>
<extensions>
<speed>0.0</speed>
<temp>0.00</temp>
<bpm>0</bpm>
<rpm>0.00</rpm>
</extensions>
</trkpt>
<trkpt lat="30.577194214" lon="34.851905823">
<ele>557.750000</ele>
<time>2013-11-23T10:47:14Z</time>
<speed>0.030000</speed>
<extensions>
<speed>0.0</speed>
<temp>0.00</temp>
<bpm>0</bpm>
<rpm>0.00</rpm>
</extensions>
</trkpt>
<trkpt lat="30.577194214" lon="34.851905823">
<ele>557.750000</ele>
<time>2013-11-23T10:47:19Z</time>
<extensions>
<speed>0.0</speed>
<temp>0.00</temp>
<bpm>0</bpm>
<rpm>0.00</rpm>
</extensions>
</trkpt>
<trkpt lat="30.577194214" lon="34.851905823">
<ele>557.750000</ele>
<time>2013-11-23T10:47:24Z</time>
<extensions>
<speed>0.0</speed>
<temp>0.00</temp>
<bpm>0</bpm>
<rpm>0.00</rpm>
</extensions>
</trkpt>
<trkpt lat="30.577194214" lon="34.851905823">
<ele>557.750000</ele>
<time>2013-11-23T10:47:29Z</time>
<extensions>
<speed>0.0</speed>
<temp>0.00</temp>
<bpm>0</bpm>
<rpm>0.00</rpm>
</extensions>
</trkpt>
<trkpt lat="30.577194214" lon="34.851905823">
<ele>557.750000</ele>
<time>2013-11-23T10:47:34Z</time>
<extensions>
<speed>0.0</speed>
<temp>0.00</temp>
<bpm>0</bpm>
<rpm>0.00</rpm>
</extensions>
</trkpt>
<trkpt lat="30.577194214" lon="34.851905823">
<ele>557.750000</ele>
<time>2013-11-23T10:47:39Z</time>
<extensions>
<speed>0.0</speed>
<temp>0.00</temp>
<bpm>0</bpm>
<rpm>0.00</rpm>
</extensions>
</trkpt>
<trkpt lat="30.577194214" lon="34.851905823">
<ele>557.765625</ele>
<time>2013-11-23T10:47:44Z</time>
<speed>0.060000</speed>
<extensions>
<speed>0.1</speed>
<temp>0.00</temp>
<bpm>0</bpm>
<rpm>0.00</rpm>
</extensions>
</trkpt>
<trkpt lat="30.577199936" lon="34.851913452">
<ele>557.750000</ele>
<time>2013-11-23T10:47:49Z</time>
<speed>0.950000</speed>
<extensions>
<speed>1.0</speed>
<temp>0.00</temp>
<bpm>0</bpm>
<rpm>0.00</rpm>
</extensions>
</trkpt>
<trkpt lat="30.577215195" lon="34.851932526">
<ele>558.578125</ele>
<time>2013-11-23T10:47:54Z</time>
<speed>1.150000</speed>
<extensions>
<speed>1.1</speed>
<temp>0.00</temp>
<bpm>0</bpm>
<rpm>0.00</rpm>
</extensions>
</trkpt>
<trkpt lat="30.577226639" lon="34.852043152">
<ele>558.718750</ele>
<time>2013-11-23T10:47:59Z</time>
<speed>2.370000</speed>
<extensions>
<speed>2.4</speed>
<temp>0.00</temp>
<bpm>0</bpm>
<rpm>0.00</rpm>
</extensions>
</trkpt>
<trkpt lat="30.577215195" lon="34.852153778">
<ele>559.203125</ele>
<time>2013-11-23T10:48:04Z</time>
<speed>1.590000</speed>
<extensions>
<speed>1.6</speed>
<temp>0.00</temp>
<bpm>0</bpm>
<rpm>0.00</rpm>
</extensions>
</trkpt>
<trkpt lat="30.577173233" lon="34.852241516">
<ele>559.718750</ele>
<time>2013-11-23T10:48:09Z</time>
<speed>1.970000</speed>
<extensions>
<speed>2.0</speed>
<temp>0.00</temp>
<bpm>0</bpm>
<rpm>0.00</rpm>
</extensions>
</trkpt>
<trkpt lat="30.577161789" lon="34.852348328">
<ele>560.000000</ele>
<time>2013-11-23T10:48:14Z</time>
<speed>2.060000</speed>
<extensions>
<speed>2.1</speed>
<temp>0.00</temp>
<bpm>0</bpm>
<rpm>0.00</rpm>
</extensions>
</trkpt>
<trkpt lat="30.577188492" lon="34.852466583">
<ele>559.046875</ele>
<time>2013-11-23T10:48:19Z</time>
<speed>2.410000</speed>
<extensions>
<speed>2.4</speed>
<temp>0.00</temp>
<bpm>0</bpm>
<rpm>0.00</rpm>
</extensions>
</trkpt>
<trkpt lat="30.577203751" lon="34.852581024">
<ele>560.203125</ele>
<time>2013-11-23T10:48:24Z</time>
<speed>1.460000</speed>
<extensions>
<speed>1.5</speed>
<temp>0.00</temp>
<bpm>0</bpm>
<rpm>0.00</rpm>
</extensions>
</trkpt>
<trkpt lat="30.577199936" lon="34.852684021">
<ele>559.531250</ele>
<time>2013-11-23T10:48:29Z</time>
<speed>1.580000</speed>
<extensions>
<speed>1.6</speed>
<temp>0.00</temp>
<bpm>0</bpm>
<rpm>0.00</rpm>
</extensions>
</trkpt>
<trkpt lat="30.577194214" lon="34.852794647">
<ele>559.734375</ele>
<time>2013-11-23T10:48:34Z</time>
<speed>2.610000</speed>
<extensions>
<speed>2.6</speed>
<temp>0.00</temp>
<bpm>0</bpm>
<rpm>0.00</rpm>
</extensions>
</trkpt>
<trkpt lat="30.577173233" lon="34.852947235">
<ele>559.453125</ele>
<time>2013-11-23T10:48:39Z</time>
<speed>3.030000</speed>
<extensions>
<speed>3.0</speed>
<temp>0.00</temp>
<bpm>0</bpm>
<rpm>0.00</rpm>
</extensions>
</trkpt>
<trkpt lat="30.577154160" lon="34.853088379">
<ele>560.625000</ele>
<time>2013-11-23T10:48:44Z</time>
<speed>3.020000</speed>
<extensions>
<speed>3.0</speed>
<temp>0.00</temp>
<bpm>0</bpm>
<rpm>0.00</rpm>
</extensions>
</trkpt>
<trkpt lat="30.577121735" lon="34.853260040">
<ele>560.156250</ele>
<time>2013-11-23T10:48:49Z</time>
<speed>3.860000</speed>
<extensions>
<speed>3.9</speed>
<temp>0.00</temp>
<bpm>0</bpm>
<rpm>0.00</rpm>
</extensions>
</trkpt>
<trkpt lat="30.577098846" lon="34.853424072">
<ele>559.265625</ele>
<time>2013-11-23T10:48:54Z</time>
<speed>2.190000</speed>
<extensions>
<speed>2.2</speed>
<temp>0.00</temp>
<bpm>0</bpm>
<rpm>0.00</rpm>
</extensions>
</trkpt>
<trkpt lat="30.577070236" lon="34.853519440">
<ele>561.515625</ele>
<time>2013-11-23T10:48:59Z</time>
<speed>2.550000</speed>
<extensions>
<speed>2.6</speed>
<temp>0.00</temp>
<bpm>0</bpm>
<rpm>0.00</rpm>
</extensions>
</trkpt>
<trkpt lat="30.577087402" lon="34.853645325">
<ele>562.609375</ele>
<time>2013-11-23T10:49:04Z</time>
<speed>2.370000</speed>
<extensions>
<speed>2.4</speed>
<temp>0.00</temp>
<bpm>0</bpm>
<rpm>0.00</rpm>
</extensions>
</trkpt>
<trkpt lat="30.577100754" lon="34.853778839">
<ele>563.281250</ele>
<time>2013-11-23T10:49:09Z</time>
<speed>2.820000</speed>
<extensions>
<speed>2.8</speed>
<temp>0.00</temp>
<bpm>0</bpm>
<rpm>0.00</rpm>
</extensions>
</trkpt>
<trkpt lat="30.577144623" lon="34.853897095">
<ele>563.203125</ele>
<time>2013-11-23T10:49:14Z</time>
<speed>2.830000</speed>
<extensions>
<speed>2.8</speed>
<temp>0.00</temp>
<bpm>0</bpm>
<rpm>0.00</rpm>
</extensions>
</trkpt>
<trkpt lat="30.577230453" lon="34.854015350">
<ele>563.359375</ele>
<time>2013-11-23T10:49:19Z</time>
<speed>2.790000</speed>
<extensions>
<speed>2.8</speed>
<temp>0.00</temp>
<bpm>0</bpm>
<rpm>0.00</rpm>
</extensions>
</trkpt>
<trkpt lat="30.577301025" lon="34.854110718">
<ele>564.234375</ele>
<time>2013-11-23T10:49:24Z</time>
<speed>1.850000</speed>
<extensions>
<speed>1.8</speed>
<temp>0.00</temp>
<bpm>0</bpm>
<rpm>0.00</rpm>
</extensions>
</trkpt>
<trkpt lat="30.577365875" lon="34.854175568">
<ele>565.625000</ele>
<time>2013-11-23T10:49:29Z</time>
<speed>1.540000</speed>
<extensions>
<speed>1.5</speed>
<temp>0.00</temp>
<bpm>0</bpm>
<rpm>0.00</rpm>
</extensions>
</trkpt>
<trkpt lat="30.577428818" lon="34.854259491">
<ele>567.109375</ele>
<time>2013-11-23T10:49:34Z</time>
<speed>2.320000</speed>
<extensions>
<speed>2.3</speed>
<temp>0.00</temp>
<bpm>0</bpm>
<rpm>0.00</rpm>
</extensions>
</trkpt>
<trkpt lat="30.577478409" lon="34.854381561">
<ele>567.625000</ele>
<time>2013-11-23T10:49:39Z</time>
<speed>2.840000</speed>
<extensions>
<speed>2.8</speed>
<temp>0.00</temp>
<bpm>0</bpm>
<rpm>0.00</rpm>
</extensions>
</trkpt>
<trkpt lat="30.577524185" lon="34.854518890">
<ele>568.328125</ele>
<time>2013-11-23T10:49:44Z</time>
<speed>2.460000</speed>
<extensions>
<speed>2.5</speed>
<temp>0.00</temp>
<bpm>0</bpm>
<rpm>0.00</rpm>
</extensions>
</trkpt>
<trkpt lat="30.577552795" lon="34.854637146">
<ele>569.578125</ele>
<time>2013-11-23T10:49:49Z</time>
<speed>2.440000</speed>
<extensions>
<speed>2.4</speed>
<temp>0.00</temp>
<bpm>0</bpm>
<rpm>0.00</rpm>
</extensions>
</trkpt>
<trkpt lat="30.577600479" lon="34.854755402">
<ele>569.734375</ele>
<time>2013-11-23T10:49:54Z</time>
<speed>2.290000</speed>
<extensions>
<speed>2.3</speed>
<temp>0.00</temp>
<bpm>0</bpm>
<rpm>0.00</rpm>
</extensions>
</trkpt>
<trkpt lat="30.577640533" lon="34.854827881">
<ele>570.234375</ele>
<time>2013-11-23T10:49:59Z</time>
<speed>2.260000</speed>
<extensions>
<speed>2.3</speed>
<temp>0.00</temp>
<bpm>0</bpm>
<rpm>0.00</rpm>
</extensions>
</trkpt>
<trkpt lat="30.577707291" lon="34.854911804">
<ele>572.078125</ele>
<time>2013-11-23T10:50:04Z</time>
<speed>2.390000</speed>
<extensions>
<speed>2.4</speed>
<temp>0.00</temp>
<bpm>0</bpm>
<rpm>0.00</rpm>
</extensions>
</trkpt>
<trkpt lat="30.577791214" lon="34.855010986">
<ele>573.671875</ele>
<time>2013-11-23T10:50:09Z</time>
<speed>2.210000</speed>
<extensions>
<speed>2.2</speed>
<temp>0.00</temp>
<bpm>0</bpm>
<rpm>0.00</rpm>
</extensions>
</trkpt>
<trkpt lat="30.577888489" lon="34.855144501">
<ele>571.046875</ele>
<time>2013-11-23T10:50:14Z</time>
<speed>4.430000</speed>
<extensions>
<speed>4.4</speed>
<temp>0.00</temp>
<bpm>0</bpm>
<rpm>0.00</rpm>
</extensions>
</trkpt>
<trkpt lat="30.578001022" lon="34.855220795">
<ele>572.171875</ele>
<time>2013-11-23T10:50:19Z</time>
<speed>2.960000</speed>
<extensions>
<speed>3.0</speed>
<temp>0.00</temp>
<bpm>0</bpm>
<rpm>0.00</rpm>
</extensions>
</trkpt>
<trkpt lat="30.578138351" lon="34.855278015">
<ele>572.812500</ele>
<time>2013-11-23T10:50:24Z</time>
<speed>2.870000</speed>
<extensions>
<speed>2.9</speed>
<temp>0.00</temp>
<bpm>0</bpm>
<rpm>0.00</rpm>
</extensions>
</trkpt>
<trkpt lat="30.578258514" lon="34.855270386">
<ele>574.796875</ele>
<time>2013-11-23T10:50:29Z</time>
<speed>2.280000</speed>
<extensions>
<speed>2.3</speed>
<temp>0.00</temp>
<bpm>0</bpm>
<rpm>0.00</rpm>
</extensions>
</trkpt>
<trkpt lat="30.578363419" lon="34.855243683">
<ele>575.984375</ele>
<time>2013-11-23T10:50:34Z</time>
<speed>2.040000</speed>
<extensions>
<speed>2.0</speed>
<temp>0.00</temp>
<bpm>0</bpm>
<rpm>0.00</rpm>
</extensions>
</trkpt>
<trkpt lat="30.578432083" lon="34.855232239">
<ele>577.234375</ele>
<time>2013-11-23T10:50:39Z</time>
<speed>1.160000</speed>
<extensions>
<speed>1.2</speed>
<temp>0.00</temp>
<bpm>0</bpm>
<rpm>0.00</rpm>
</extensions>
</trkpt>
<trkpt lat="30.578441620" lon="34.855228424">
<ele>576.781250</ele>
<time>2013-11-23T10:50:44Z</time>
<speed>0.310000</speed>
<extensions>
<speed>0.3</speed>
<temp>0.00</temp>
<bpm>0</bpm>
<rpm>0.00</rpm>
</extensions>
</trkpt>
<trkpt lat="30.578460693" lon="34.855232239">
<ele>577.234375</ele>
<time>2013-11-23T10:50:49Z</time>
<speed>0.930000</speed>
<extensions>
<speed>0.9</speed>
<temp>0.00</temp>
<bpm>0</bpm>
<rpm>0.00</rpm>
</extensions>
</trkpt>
<trkpt lat="30.578502655" lon="34.855247498">
<ele>578.406250</ele>
<time>2013-11-23T10:50:54Z</time>
<speed>0.980000</speed>
<extensions>
<speed>1.0</speed>
<temp>0.00</temp>
<bpm>0</bpm>
<rpm>0.00</rpm>
</extensions>
</trkpt>
<trkpt lat="30.578538895" lon="34.855270386">
<ele>578.828125</ele>
<time>2013-11-23T10:50:59Z</time>
<speed>0.790000</speed>
<extensions>
<speed>0.8</speed>
<temp>0.00</temp>
<bpm>0</bpm>
<rpm>0.00</rpm>
</extensions>
</trkpt>
<trkpt lat="30.578584671" lon="34.855285645">
<ele>580.390625</ele>
<time>2013-11-23T10:51:04Z</time>
<speed>1.050000</speed>
<extensions>
<speed>1.0</speed>
<temp>0.00</temp>
<bpm>0</bpm>
<rpm>0.00</rpm>
</extensions>
</trkpt>
<trkpt lat="30.578596115" lon="34.855297089">
<ele>581.031250</ele>
<time>2013-11-23T10:51:09Z</time>
<speed>0.030000</speed>
<extensions>
<speed>0.0</speed>
<temp>0.00</temp>
<bpm>0</bpm>
<rpm>0.00</rpm>
</extensions>
</trkpt>
<trkpt lat="30.578596115" lon="34.855297089">
<ele>581.250000</ele>
<time>2013-11-23T10:51:14Z</time>
<speed>0.330000</speed>
<extensions>
<speed>0.3</speed>
<temp>0.00</temp>
<bpm>0</bpm>
<rpm>0.00</rpm>
</extensions>
</trkpt>
<trkpt lat="30.578634262" lon="34.855304718">
<ele>582.171875</ele>
<time>2013-11-23T10:51:19Z</time>
<speed>0.640000</speed>
<extensions>
<speed>0.6</speed>
<temp>0.00</temp>
<bpm>0</bpm>
<rpm>0.00</rpm>
</extensions>
</trkpt>
<trkpt lat="30.578670502" lon="34.855316162">
<ele>583.921875</ele>
<time>2013-11-23T10:51:24Z</time>
<speed>0.840000</speed>
<extensions>
<speed>0.8</speed>
<temp>0.00</temp>
<bpm>0</bpm>
<rpm>0.00</rpm>
</extensions>
</trkpt>
<trkpt lat="30.578689575" lon="34.855316162">
<ele>584.015625</ele>
<time>2013-11-23T10:51:29Z</time>
<speed>0.700000</speed>
<extensions>
<speed>0.7</speed>
<temp>0.00</temp>
<bpm>0</bpm>
<rpm>0.00</rpm>
</extensions>
</trkpt>
<trkpt lat="30.578714371" lon="34.855316162">
<ele>584.078125</ele>
<time>2013-11-23T10:51:34Z</time>
<speed>1.310000</speed>
<extensions>
<speed>1.3</speed>
<temp>0.00</temp>
<bpm>0</bpm>
<rpm>0.00</rpm>
</extensions>
</trkpt>
<trkpt lat="30.578887939" lon="34.855312347">
<ele>578.343750</ele>
<time>2013-11-23T10:51:39Z</time>
<speed>6.750000</speed>
<extensions>
<speed>6.7</speed>
<temp>0.00</temp>
<bpm>0</bpm>
<rpm>0.00</rpm>
</extensions>
</trkpt>
<trkpt lat="30.579191208" lon="34.855209351">
<ele>572.937500</ele>
<time>2013-11-23T10:51:44Z</time>
<speed>6.330000</speed>
<extensions>
<speed>6.3</speed>
<temp>0.00</temp>
<bpm>0</bpm>
<rpm>0.00</rpm>
</extensions>
</trkpt>
<trkpt lat="30.579469681" lon="34.855232239">
<ele>571.000000</ele>
<time>2013-11-23T10:51:49Z</time>
<speed>6.130000</speed>
<extensions>
<speed>6.1</speed>
<temp>0.00</temp>
<bpm>0</bpm>
<rpm>0.00</rpm>
</extensions>
</trkpt>
<trkpt lat="30.579708099" lon="34.855178833">
<ele>571.500000</ele>
<time>2013-11-23T10:51:54Z</time>
<speed>4.650000</speed>
<extensions>
<speed>4.6</speed>
<temp>0.00</temp>
<bpm>0</bpm>
<rpm>0.00</rpm>
</extensions>
</trkpt>
<trkpt lat="30.579893112" lon="34.855220795">
<ele>571.734375</ele>
<time>2013-11-23T10:51:59Z</time>
<speed>3.690000</speed>
<extensions>
<speed>3.7</speed>
<temp>0.00</temp>
<bpm>0</bpm>
<rpm>0.00</rpm>
</extensions>
</trkpt>
<trkpt lat="30.579978943" lon="34.855293274">
<ele>572.968750</ele>
<time>2013-11-23T10:52:04Z</time>
<speed>1.770000</speed>
<extensions>
<speed>1.8</speed>
<temp>0.00</temp>
<bpm>0</bpm>
<rpm>0.00</rpm>
</extensions>
</trkpt>
<trkpt lat="30.580041885" lon="34.855381012">
<ele>573.062500</ele>
<time>2013-11-23T10:52:09Z</time>
<speed>2.740000</speed>
<extensions>
<speed>2.7</speed>
<temp>0.00</temp>
<bpm>0</bpm>
<rpm>0.00</rpm>
</extensions>
</trkpt>
<trkpt lat="30.580183029" lon="34.855499268">
<ele>570.171875</ele>
<time>2013-11-23T10:52:14Z</time>
<speed>5.110000</speed>
<extensions>
<speed>5.1</speed>
<temp>0.00</temp>
<bpm>0</bpm>
<rpm>0.00</rpm>
</extensions>
</trkpt>
<trkpt lat="30.580442429" lon="34.855548859">
<ele>568.125000</ele>
<time>2013-11-23T10:52:19Z</time>
<speed>6.370000</speed>
<extensions>
<speed>6.4</speed>
<temp>0.00</temp>
<bpm>0</bpm>
<rpm>0.00</rpm>
</extensions>
</trkpt>
<trkpt lat="30.580768585" lon="34.855548859">
<ele>565.765625</ele>
<time>2013-11-23T10:52:24Z</time>
<speed>7.000000</speed>
<extensions>
<speed>7.0</speed>
<temp>0.00</temp>
<bpm>0</bpm>
<rpm>0.00</rpm>
</extensions>
</trkpt>
<trkpt lat="30.581041336" lon="34.855613708">
<ele>566.843750</ele>
<time>2013-11-23T10:52:29Z</time>
<speed>5.120000</speed>
<extensions>
<speed>5.1</speed>
<temp>0.00</temp>
<bpm>0</bpm>
<rpm>0.00</rpm>
</extensions>
</trkpt>
<trkpt lat="30.581308365" lon="34.855613708">
<ele>565.578125</ele>
<time>2013-11-23T10:52:34Z</time>
<speed>7.920000</speed>
<extensions>
<speed>7.9</speed>
<temp>0.00</temp>
<bpm>0</bpm>
<rpm>0.00</rpm>
</extensions>
</trkpt>
<trkpt lat="30.581624985" lon="34.855480194">
<ele>565.109375</ele>
<time>2013-11-23T10:52:39Z</time>
<speed>7.380000</speed>
<extensions>
<speed>7.4</speed>
<temp>0.00</temp>
<bpm>0</bpm>
<rpm>0.00</rpm>
</extensions>
</trkpt>
<trkpt lat="30.581893921" lon="34.855442047">
<ele>564.296875</ele>
<time>2013-11-23T10:52:44Z</time>
<speed>6.190000</speed>
<extensions>
<speed>6.2</speed>
<temp>0.00</temp>
<bpm>0</bpm>
<rpm>0.00</rpm>
</extensions>
</trkpt>
<trkpt lat="30.582157135" lon="34.855609894">
<ele>563.828125</ele>
<time>2013-11-23T10:52:49Z</time>
<speed>7.160000</speed>
<extensions>
<speed>7.2</speed>
<temp>0.00</temp>
<bpm>0</bpm>
<rpm>0.00</rpm>
</extensions>
</trkpt>
<trkpt lat="30.582469940" lon="34.855785370">
<ele>562.640625</ele>
<time>2013-11-23T10:52:54Z</time>
<speed>7.640000</speed>
<extensions>
<speed>7.6</speed>
<temp>0.00</temp>
<bpm>0</bpm>
<rpm>0.00</rpm>
</extensions>
</trkpt>
<trkpt lat="30.582782745" lon="34.855854034">
<ele>562.296875</ele>
<time>2013-11-23T10:52:59Z</time>
<speed>7.700000</speed>
<extensions>
<speed>7.7</speed>
<temp>0.00</temp>
<bpm>0</bpm>
<rpm>0.00</rpm>
</extensions>
</trkpt>
<trkpt lat="30.583099365" lon="34.856033325">
<ele>561.953125</ele>
<time>2013-11-23T10:53:04Z</time>
<speed>7.360000</speed>
<extensions>
<speed>7.4</speed>
<temp>0.00</temp>
<bpm>0</bpm>
<rpm>0.00</rpm>
</extensions>
</trkpt>
<trkpt lat="30.583408356" lon="34.856216431">
<ele>558.515625</ele>
<time>2013-11-23T10:53:09Z</time>
<speed>8.210000</speed>
<extensions>
<speed>8.2</speed>
<temp>0.00</temp>
<bpm>0</bpm>
<rpm>0.00</rpm>
</extensions>
</trkpt>
<trkpt lat="30.583623886" lon="34.856529236">
<ele>557.765625</ele>
<time>2013-11-23T10:53:14Z</time>
<speed>7.100000</speed>
<extensions>
<speed>7.1</speed>
<temp>0.00</temp>
<bpm>0</bpm>
<rpm>0.00</rpm>
</extensions>
</trkpt>
<trkpt lat="30.583845139" lon="34.856822968">
<ele>556.390625</ele>
<time>2013-11-23T10:53:19Z</time>
<speed>8.190000</speed>
<extensions>
<speed>8.2</speed>
<temp>0.00</temp>
<bpm>0</bpm>
<rpm>0.00</rpm>
</extensions>
</trkpt>
<trkpt lat="30.584060669" lon="34.857204437">
<ele>554.359375</ele>
<time>2013-11-23T10:53:24Z</time>
<speed>8.610000</speed>
<extensions>
<speed>8.6</speed>
<temp>0.00</temp>
<bpm>0</bpm>
<rpm>0.00</rpm>
</extensions>
</trkpt>
<trkpt lat="30.584215164" lon="34.857566833">
<ele>554.390625</ele>
<time>2013-11-23T10:53:29Z</time>
<speed>6.860000</speed>
<extensions>
<speed>6.9</speed>
<temp>0.00</temp>
<bpm>0</bpm>
<rpm>0.00</rpm>
</extensions>
</trkpt>
<trkpt lat="30.584402084" lon="34.857887268">
<ele>552.140625</ele>
<time>2013-11-23T10:53:34Z</time>
<speed>7.860000</speed>
<extensions>
<speed>7.9</speed>
<temp>0.00</temp>
<bpm>0</bpm>
<rpm>0.00</rpm>
</extensions>
</trkpt>
<trkpt lat="30.584644318" lon="34.858196259">
<ele>552.406250</ele>
<time>2013-11-23T10:53:39Z</time>
<speed>7.840000</speed>
<extensions>
<speed>7.8</speed>
<temp>0.00</temp>
<bpm>0</bpm>
<rpm>0.00</rpm>
</extensions>
</trkpt>
<trkpt lat="30.584835052" lon="34.858509064">
<ele>552.187500</ele>
<time>2013-11-23T10:53:44Z</time>
<speed>7.720000</speed>
<extensions>
<speed>7.7</speed>
<temp>0.00</temp>
<bpm>0</bpm>
<rpm>0.00</rpm>
</extensions>
</trkpt>
<trkpt lat="30.585071564" lon="34.858825684">
<ele>550.031250</ele>
<time>2013-11-23T10:53:49Z</time>
<speed>7.910000</speed>
<extensions>
<speed>7.9</speed>
<temp>0.00</temp>
<bpm>0</bpm>
<rpm>0.00</rpm>
</extensions>
</trkpt>
<trkpt lat="30.585218430" lon="34.859249115">
<ele>547.343750</ele>
<time>2013-11-23T10:53:54Z</time>
<speed>8.870000</speed>
<extensions>
<speed>8.9</speed>
<temp>0.00</temp>
<bpm>0</bpm>
<rpm>0.00</rpm>
</extensions>
</trkpt>
<trkpt lat="30.585338593" lon="34.859676361">
<ele>546.484375</ele>
<time>2013-11-23T10:53:59Z</time>
<speed>8.730000</speed>
<extensions>
<speed>8.7</speed>
<temp>0.00</temp>
<bpm>0</bpm>
<rpm>0.00</rpm>
</extensions>
</trkpt>
<trkpt lat="30.585508347" lon="34.860057831">
<ele>547.125000</ele>
<time>2013-11-23T10:54:04Z</time>
<speed>8.020000</speed>
<extensions>
<speed>8.0</speed>
<temp>0.00</temp>
<bpm>0</bpm>
<rpm>0.00</rpm>
</extensions>
</trkpt>
<trkpt lat="30.585775375" lon="34.860305786">
<ele>547.500000</ele>
<time>2013-11-23T10:54:09Z</time>
<speed>7.920000</speed>
<extensions>
<speed>7.9</speed>
<temp>0.00</temp>
<bpm>0</bpm>
<rpm>0.00</rpm>
</extensions>
</trkpt>
<trkpt lat="30.586101532" lon="34.860446930">
<ele>546.968750</ele>
<time>2013-11-23T10:54:14Z</time>
<speed>7.560000</speed>
<extensions>
<speed>7.6</speed>
<temp>0.00</temp>
<bpm>0</bpm>
<rpm>0.00</rpm>
</extensions>
</trkpt>
<trkpt lat="30.586397171" lon="34.860595703">
<ele>546.203125</ele>
<time>2013-11-23T10:54:19Z</time>
<speed>7.470000</speed>
<extensions>
<speed>7.5</speed>
<temp>0.00</temp>
<bpm>0</bpm>
<rpm>0.00</rpm>
</extensions>
</trkpt>
<trkpt lat="30.586593628" lon="34.860958099">
<ele>545.531250</ele>
<time>2013-11-23T10:54:24Z</time>
<speed>8.440000</speed>
<extensions>
<speed>8.4</speed>
<temp>0.00</temp>
<bpm>0</bpm>
<rpm>0.00</rpm>
</extensions>
</trkpt>
<trkpt lat="30.586784363" lon="34.861312866">
<ele>545.734375</ele>
<time>2013-11-23T10:54:29Z</time>
<speed>8.300000</speed>
<extensions>
<speed>8.3</speed>
<temp>0.00</temp>
<bpm>0</bpm>
<rpm>0.00</rpm>
</extensions>
</trkpt>
<trkpt lat="30.586950302" lon="34.861679077">
<ele>546.375000</ele>
<time>2013-11-23T10:54:34Z</time>
<speed>7.220000</speed>
<extensions>
<speed>7.2</speed>
<temp>0.00</temp>
<bpm>0</bpm>
<rpm>0.00</rpm>
</extensions>
</trkpt>
<trkpt lat="30.587131500" lon="34.862037659">
<ele>545.609375</ele>
<time>2013-11-23T10:54:39Z</time>
<speed>6.190000</speed>
<extensions>
<speed>6.2</speed>
<temp>0.00</temp>
<bpm>0</bpm>
<rpm>0.00</rpm>
</extensions>
</trkpt>
<trkpt lat="30.587213516" lon="34.862262726">
<ele>546.875000</ele>
<time>2013-11-23T10:54:44Z</time>
<speed>4.940000</speed>
<extensions>
<speed>4.9</speed>
<temp>0.00</temp>
<bpm>0</bpm>
<rpm>0.00</rpm>
</extensions>
</trkpt>
<trkpt lat="30.587305069" lon="34.862476349">
<ele>546.859375</ele>
<time>2013-11-23T10:54:49Z</time>
<speed>4.470000</speed>
<extensions>
<speed>4.5</speed>
<temp>0.00</temp>
<bpm>0</bpm>
<rpm>0.00</rpm>
</extensions>
</trkpt>
<trkpt lat="30.587366104" lon="34.862625122">
<ele>548.296875</ele>
<time>2013-11-23T10:54:54Z</time>
<speed>2.420000</speed>
<extensions>
<speed>2.4</speed>
<temp>0.00</temp>
<bpm>0</bpm>
<rpm>0.00</rpm>
</extensions>
</trkpt>
<trkpt lat="30.587404251" lon="34.862728119">
<ele>549.531250</ele>
<time>2013-11-23T10:54:59Z</time>
<speed>2.750000</speed>
<extensions>
<speed>2.7</speed>
<temp>0.00</temp>
<bpm>0</bpm>
<rpm>0.00</rpm>
</extensions>
</trkpt>
<trkpt lat="30.587451935" lon="34.862888336">
<ele>549.546875</ele>
<time>2013-11-23T10:55:04Z</time>
<speed>3.970000</speed>
<extensions>
<speed>4.0</speed>
<temp>0.00</temp>
<bpm>0</bpm>
<rpm>0.00</rpm>
</extensions>
</trkpt>
<trkpt lat="30.587514877" lon="34.863121033">
<ele>548.015625</ele>
<time>2013-11-23T10:55:09Z</time>
<speed>5.040000</speed>
<extensions>
<speed>5.0</speed>
<temp>0.00</temp>
<bpm>0</bpm>
<rpm>0.00</rpm>
</extensions>
</trkpt>
<trkpt lat="30.587564468" lon="34.863395691">
<ele>546.921875</ele>
<time>2013-11-23T10:55:14Z</time>
<speed>5.390000</speed>
<extensions>
<speed>5.4</speed>
<temp>0.00</temp>
<bpm>0</bpm>
<rpm>0.00</rpm>
</extensions>
</trkpt>
<trkpt lat="30.587621689" lon="34.863662720">
<ele>546.203125</ele>
<time>2013-11-23T10:55:19Z</time>
<speed>5.040000</speed>
<extensions>
<speed>5.0</speed>
<temp>0.00</temp>
<bpm>0</bpm>
<rpm>0.00</rpm>
</extensions>
</trkpt>
<trkpt lat="30.587678909" lon="34.863933563">
<ele>545.390625</ele>
<time>2013-11-23T10:55:24Z</time>
<speed>5.850000</speed>
<extensions>
<speed>5.8</speed>
<temp>0.00</temp>
<bpm>0</bpm>
<rpm>0.00</rpm>
</extensions>
</trkpt>
<trkpt lat="30.587732315" lon="34.864219666">
<ele>544.781250</ele>
<time>2013-11-23T10:55:29Z</time>
<speed>5.290000</speed>
<extensions>
<speed>5.3</speed>
<temp>0.00</temp>
<bpm>0</bpm>
<rpm>0.00</rpm>
</extensions>
</trkpt>
<trkpt lat="30.587711334" lon="34.864467621">
<ele>545.343750</ele>
<time>2013-11-23T10:55:34Z</time>
<speed>3.690000</speed>
<extensions>
<speed>3.7</speed>
<temp>0.00</temp>
<bpm>0</bpm>
<rpm>0.00</rpm>
</extensions>
</trkpt>
<trkpt lat="30.587652206" lon="34.864624023">
<ele>545.437500</ele>
<time>2013-11-23T10:55:39Z</time>
<speed>4.620000</speed>
<extensions>
<speed>4.6</speed>
<temp>0.00</temp>
<bpm>0</bpm>
<rpm>0.00</rpm>
</extensions>
</trkpt>
<trkpt lat="30.587633133" lon="34.864830017">
<ele>544.375000</ele>
<time>2013-11-23T10:55:44Z</time>
<speed>4.300000</speed>
<extensions>
<speed>4.3</speed>
<temp>0.00</temp>
<bpm>0</bpm>
<rpm>0.00</rpm>
</extensions>
</trkpt>
<trkpt lat="30.587709427" lon="34.865131378">
<ele>540.156250</ele>
<time>2013-11-23T10:55:49Z</time>
<speed>6.850000</speed>
<extensions>
<speed>6.8</speed>
<temp>0.00</temp>
<bpm>0</bpm>
<rpm>0.00</rpm>
</extensions>
</trkpt>
<trkpt lat="30.587892532" lon="34.865413666">
<ele>537.859375</ele>
<time>2013-11-23T10:55:54Z</time>
<speed>6.590000</speed>
<extensions>
<speed>6.6</speed>
<temp>0.00</temp>
<bpm>0</bpm>
<rpm>0.00</rpm>
</extensions>
</trkpt>
<trkpt lat="30.587953568" lon="34.865505219">
<ele>538.046875</ele>
<time>2013-11-23T10:55:59Z</time>
<speed>0.060000</speed>
<extensions>
<speed>0.1</speed>
<temp>0.00</temp>
<bpm>0</bpm>
<rpm>0.00</rpm>
</extensions>
</trkpt>
<trkpt lat="30.587951660" lon="34.865505219">
<ele>538.046875</ele>
<time>2013-11-23T10:56:04Z</time>
<speed>0.030000</speed>
<extensions>
<speed>0.0</speed>
<temp>0.00</temp>
<bpm>0</bpm>
<rpm>0.00</rpm>
</extensions>
</trkpt>
<trkpt lat="30.587951660" lon="34.865505219">
<ele>538.078125</ele>
<time>2013-11-23T10:56:09Z</time>
<speed>0.140000</speed>
<extensions>
<speed>0.1</speed>
<temp>0.00</temp>
<bpm>0</bpm>
<rpm>0.00</rpm>
</extensions>
</trkpt>
<trkpt lat="30.588109970" lon="34.865592957">
<ele>534.765625</ele>
<time>2013-11-23T10:56:14Z</time>
<speed>7.620000</speed>
<extensions>
<speed>7.6</speed>
<temp>0.00</temp>
<bpm>0</bpm>
<rpm>0.00</rpm>
</extensions>
</trkpt>
<trkpt lat="30.588373184" lon="34.865837097">
<ele>533.031250</ele>
<time>2013-11-23T10:56:19Z</time>
<speed>7.240000</speed>
<extensions>
<speed>7.2</speed>
<temp>0.00</temp>
<bpm>0</bpm>
<rpm>0.00</rpm>
</extensions>
</trkpt>
<trkpt lat="30.588638306" lon="34.866069794">
<ele>531.500000</ele>
<time>2013-11-23T10:56:24Z</time>
<speed>7.580000</speed>
<extensions>
<speed>7.6</speed>
<temp>0.00</temp>
<bpm>0</bpm>
<rpm>0.00</rpm>
</extensions>
</trkpt>
<trkpt lat="30.588920593" lon="34.866291046">
<ele>529.843750</ele>
<time>2013-11-23T10:56:29Z</time>
<speed>6.880000</speed>
<extensions>
<speed>6.9</speed>
<temp>0.00</temp>
<bpm>0</bpm>
<rpm>0.00</rpm>
</extensions>
</trkpt>
<trkpt lat="30.589042664" lon="34.866477966">
<ele>532.000000</ele>
<time>2013-11-23T10:56:34Z</time>
<speed>3.010000</speed>
<extensions>
<speed>3.0</speed>
<temp>0.00</temp>
<bpm>0</bpm>
<rpm>0.00</rpm>
</extensions>
</trkpt>
<trkpt lat="30.589160919" lon="34.866626740">
<ele>531.125000</ele>
<time>2013-11-23T10:56:39Z</time>
<speed>5.200000</speed>
<extensions>
<speed>5.2</speed>
<temp>0.00</temp>
<bpm>0</bpm>
<rpm>0.00</rpm>
</extensions>
</trkpt>
<trkpt lat="30.589359283" lon="34.866878510">
<ele>528.671875</ele>
<time>2013-11-23T10:56:44Z</time>
<speed>5.900000</speed>
<extensions>
<speed>5.9</speed>
<temp>0.00</temp>
<bpm>0</bpm>
<rpm>0.00</rpm>
</extensions>
</trkpt>
<trkpt lat="30.589496613" lon="34.867057800">
<ele>527.687500</ele>
<time>2013-11-23T10:56:49Z</time>
<speed>3.100000</speed>
<extensions>
<speed>3.1</speed>
<temp>0.00</temp>
<bpm>0</bpm>
<rpm>0.00</rpm>
</extensions>
</trkpt>
<trkpt lat="30.589532852" lon="34.867099762">
<ele>526.750000</ele>
<time>2013-11-23T10:56:54Z</time>
<speed>1.210000</speed>
<extensions>
<speed>1.2</speed>
<temp>0.00</temp>
<bpm>0</bpm>
<rpm>0.00</rpm>
</extensions>
</trkpt>
<trkpt lat="30.589565277" lon="34.867107391">
<ele>527.453125</ele>
<time>2013-11-23T10:56:59Z</time>
<speed>2.730000</speed>
<extensions>
<speed>2.7</speed>
<temp>0.00</temp>
<bpm>0</bpm>
<rpm>0.00</rpm>
</extensions>
</trkpt>
<trkpt lat="30.589656830" lon="34.867366791">
<ele>525.781250</ele>
<time>2013-11-23T10:57:04Z</time>
<speed>7.160000</speed>
<extensions>
<speed>7.2</speed>
<temp>0.00</temp>
<bpm>0</bpm>
<rpm>0.00</rpm>
</extensions>
</trkpt>
<trkpt lat="30.589830399" lon="34.867694855">
<ele>523.359375</ele>
<time>2013-11-23T10:57:09Z</time>
<speed>7.450000</speed>
<extensions>
<speed>7.4</speed>
<temp>0.00</temp>
<bpm>0</bpm>
<rpm>0.00</rpm>
</extensions>
</trkpt>
<trkpt lat="30.590053558" lon="34.867832184">
<ele>524.656250</ele>
<time>2013-11-23T10:57:14Z</time>
<speed>4.980000</speed>
<extensions>
<speed>5.0</speed>
<temp>0.00</temp>
<bpm>0</bpm>
<rpm>0.00</rpm>
</extensions>
</trkpt>
<trkpt lat="30.590225220" lon="34.868038177">
<ele>523.687500</ele>
<time>2013-11-23T10:57:19Z</time>
<speed>5.960000</speed>
<extensions>
<speed>6.0</speed>
<temp>0.00</temp>
<bpm>0</bpm>
<rpm>0.00</rpm>
</extensions>
</trkpt>
<trkpt lat="30.590398788" lon="34.868278503">
<ele>523.140625</ele>
<time>2013-11-23T10:57:24Z</time>
<speed>6.460000</speed>
<extensions>
<speed>6.5</speed>
<temp>0.00</temp>
<bpm>0</bpm>
<rpm>0.00</rpm>
</extensions>
</trkpt>
<trkpt lat="30.590589523" lon="34.868560791">
<ele>522.218750</ele>
<time>2013-11-23T10:57:29Z</time>
<speed>6.880000</speed>
<extensions>
<speed>6.9</speed>
<temp>0.00</temp>
<bpm>0</bpm>
<rpm>0.00</rpm>
</extensions>
</trkpt>
<trkpt lat="30.590738297" lon="34.868892670">
<ele>521.250000</ele>
<time>2013-11-23T10:57:34Z</time>
<speed>7.480000</speed>
<extensions>
<speed>7.5</speed>
<temp>0.00</temp>
<bpm>0</bpm>
<rpm>0.00</rpm>
</extensions>
</trkpt>
<trkpt lat="30.590810776" lon="34.869300842">
<ele>519.843750</ele>
<time>2013-11-23T10:57:39Z</time>
<speed>7.870000</speed>
<extensions>
<speed>7.9</speed>
<temp>0.00</temp>
<bpm>0</bpm>
<rpm>0.00</rpm>
</extensions>
</trkpt>
<trkpt lat="30.590936661" lon="34.869644165">
<ele>520.062500</ele>
<time>2013-11-23T10:57:44Z</time>
<speed>7.000000</speed>
<extensions>
<speed>7.0</speed>
<temp>0.00</temp>
<bpm>0</bpm>
<rpm>0.00</rpm>
</extensions>
</trkpt>
<trkpt lat="30.591066360" lon="34.869972229">
<ele>519.703125</ele>
<time>2013-11-23T10:57:49Z</time>
<speed>6.980000</speed>
<extensions>
<speed>7.0</speed>
<temp>0.00</temp>
<bpm>0</bpm>
<rpm>0.00</rpm>
</extensions>
</trkpt>
<trkpt lat="30.591196060" lon="34.870300293">
<ele>519.265625</ele>
<time>2013-11-23T10:57:54Z</time>
<speed>6.930000</speed>
<extensions>
<speed>6.9</speed>
<temp>0.00</temp>
<bpm>0</bpm>
<rpm>0.00</rpm>
</extensions>
</trkpt>
<trkpt lat="30.591388702" lon="34.870586395">
<ele>518.765625</ele>
<time>2013-11-23T10:57:59Z</time>
<speed>7.020000</speed>
<extensions>
<speed>7.0</speed>
<temp>0.00</temp>
<bpm>0</bpm>
<rpm>0.00</rpm>
</extensions>
</trkpt>
<trkpt lat="30.591642380" lon="34.870849609">
<ele>518.171875</ele>
<time>2013-11-23T10:58:04Z</time>
<speed>7.730000</speed>
<extensions>
<speed>7.7</speed>
<temp>0.00</temp>
<bpm>0</bpm>
<rpm>0.00</rpm>
</extensions>
</trkpt>
<trkpt lat="30.591920853" lon="34.871078491">
<ele>517.031250</ele>
<time>2013-11-23T10:58:09Z</time>
<speed>7.410000</speed>
<extensions>
<speed>7.4</speed>
<temp>0.00</temp>
<bpm>0</bpm>
<rpm>0.00</rpm>
</extensions>
</trkpt>
<trkpt lat="30.592214584" lon="34.871280670">
<ele>516.375000</ele>
<time>2013-11-23T10:58:14Z</time>
<speed>7.720000</speed>
<extensions>
<speed>7.7</speed>
<temp>0.00</temp>
<bpm>0</bpm>
<rpm>0.00</rpm>
</extensions>
</trkpt>
<trkpt lat="30.592536926" lon="34.871463776">
<ele>515.515625</ele>
<time>2013-11-23T10:58:19Z</time>
<speed>7.890000</speed>
<extensions>
<speed>7.9</speed>
<temp>0.00</temp>
<bpm>0</bpm>
<rpm>0.00</rpm>
</extensions>
</trkpt>
<trkpt lat="30.592824936" lon="34.871677399">
<ele>515.062500</ele>
<time>2013-11-23T10:58:24Z</time>
<speed>7.400000</speed>
<extensions>
<speed>7.4</speed>
<temp>0.00</temp>
<bpm>0</bpm>
<rpm>0.00</rpm>
</extensions>
</trkpt>
<trkpt lat="30.593076706" lon="34.871932983">
<ele>514.109375</ele>
<time>2013-11-23T10:58:29Z</time>
<speed>7.360000</speed>
<extensions>
<speed>7.4</speed>
<temp>0.00</temp>
<bpm>0</bpm>
<rpm>0.00</rpm>
</extensions>
</trkpt>
<trkpt lat="30.593248367" lon="34.872245789">
<ele>513.859375</ele>
<time>2013-11-23T10:58:34Z</time>
<speed>6.850000</speed>
<extensions>
<speed>6.8</speed>
<temp>0.00</temp>
<bpm>0</bpm>
<rpm>0.00</rpm>
</extensions>
</trkpt>
<trkpt lat="30.593309402" lon="34.872520447">
<ele>512.921875</ele>
<time>2013-11-23T10:58:39Z</time>
<speed>3.310000</speed>
<extensions>
<speed>3.3</speed>
<temp>0.00</temp>
<bpm>0</bpm>
<rpm>0.00</rpm>
</extensions>
</trkpt>
<trkpt lat="30.593296051" lon="34.872592926">
<ele>512.984375</ele>
<time>2013-11-23T10:58:44Z</time>
<speed>0.450000</speed>
<extensions>
<speed>0.5</speed>
<temp>0.00</temp>
<bpm>0</bpm>
<rpm>0.00</rpm>
</extensions>
</trkpt>
<trkpt lat="30.593292236" lon="34.872589111">
<ele>513.000000</ele>
<time>2013-11-23T10:58:49Z</time>
<extensions>
<speed>0.0</speed>
<temp>0.00</temp>
<bpm>0</bpm>
<rpm>0.00</rpm>
</extensions>
</trkpt>
<trkpt lat="30.593292236" lon="34.872589111">
<ele>513.046875</ele>
<time>2013-11-23T10:58:54Z</time>
<extensions>
<speed>0.0</speed>
<temp>0.00</temp>
<bpm>0</bpm>
<rpm>0.00</rpm>
</extensions>
</trkpt>
<trkpt lat="30.593292236" lon="34.872589111">
<ele>513.109375</ele>
<time>2013-11-23T10:58:59Z</time>
<speed>0.010000</speed>
<extensions>
<speed>0.0</speed>
<temp>0.00</temp>
<bpm>0</bpm>
<rpm>0.00</rpm>
</extensions>
</trkpt>
<trkpt lat="30.593292236" lon="34.872589111">
<ele>513.109375</ele>
<time>2013-11-23T10:59:04Z</time>
<extensions>
<speed>0.0</speed>
<temp>0.00</temp>
<bpm>0</bpm>
<rpm>0.00</rpm>
</extensions>
</trkpt>
<trkpt lat="30.593292236" lon="34.872589111">
<ele>513.140625</ele>
<time>2013-11-23T10:59:09Z</time>
<extensions>
<speed>0.0</speed>
<temp>0.00</temp>
<bpm>0</bpm>
<rpm>0.00</rpm>
</extensions>
</trkpt>
<trkpt lat="30.593292236" lon="34.872585297">
<ele>513.140625</ele>
<time>2013-11-23T10:59:14Z</time>
<extensions>
<speed>0.0</speed>
<temp>0.00</temp>
<bpm>0</bpm>
<rpm>0.00</rpm>
</extensions>
</trkpt>
<trkpt lat="30.593292236" lon="34.872585297">
<ele>513.156250</ele>
<time>2013-11-23T10:59:19Z</time>
<extensions>
<speed>0.0</speed>
<temp>0.00</temp>
<bpm>0</bpm>
<rpm>0.00</rpm>
</extensions>
</trkpt>
<trkpt lat="30.593292236" lon="34.872585297">
<ele>513.171875</ele>
<time>2013-11-23T10:59:24Z</time>
<extensions>
<speed>0.0</speed>
<temp>0.00</temp>
<bpm>0</bpm>
<rpm>0.00</rpm>
</extensions>
</trkpt>
<trkpt lat="30.593294144" lon="34.872585297">
<ele>513.187500</ele>
<time>2013-11-23T10:59:29Z</time>
<extensions>
<speed>0.0</speed>
<temp>0.00</temp>
<bpm>0</bpm>
<rpm>0.00</rpm>
</extensions>
</trkpt>
<trkpt lat="30.593292236" lon="34.872585297">
<ele>513.203125</ele>
<time>2013-11-23T10:59:34Z</time>
<extensions>
<speed>0.0</speed>
<temp>0.00</temp>
<bpm>0</bpm>
<rpm>0.00</rpm>
</extensions>
</trkpt>
<trkpt lat="30.593294144" lon="34.872585297">
<ele>513.218750</ele>
<time>2013-11-23T10:59:39Z</time>
<extensions>
<speed>0.0</speed>
<temp>0.00</temp>
<bpm>0</bpm>
<rpm>0.00</rpm>
</extensions>
</trkpt>
<trkpt lat="30.593294144" lon="34.872585297">
<ele>513.234375</ele>
<time>2013-11-23T10:59:44Z</time>
<extensions>
<speed>0.0</speed>
<temp>0.00</temp>
<bpm>0</bpm>
<rpm>0.00</rpm>
</extensions>
</trkpt>
<trkpt lat="30.593294144" lon="34.872585297">
<ele>513.250000</ele>
<time>2013-11-23T10:59:49Z</time>
<extensions>
<speed>0.0</speed>
<temp>0.00</temp>
<bpm>0</bpm>
<rpm>0.00</rpm>
</extensions>
</trkpt>
<trkpt lat="30.593294144" lon="34.872585297">
<ele>513.250000</ele>
<time>2013-11-23T10:59:54Z</time>
<extensions>
<speed>0.0</speed>
<temp>0.00</temp>
<bpm>0</bpm>
<rpm>0.00</rpm>
</extensions>
</trkpt>
<trkpt lat="30.593294144" lon="34.872585297">
<ele>513.265625</ele>
<time>2013-11-23T10:59:59Z</time>
<extensions>
<speed>0.0</speed>
<temp>0.00</temp>
<bpm>0</bpm>
<rpm>0.00</rpm>
</extensions>
</trkpt>
<trkpt lat="30.593292236" lon="34.872585297">
<ele>513.281250</ele>
<time>2013-11-23T11:00:04Z</time>
<extensions>
<speed>0.0</speed>
<temp>0.00</temp>
<bpm>0</bpm>
<rpm>0.00</rpm>
</extensions>
</trkpt>
<trkpt lat="30.593294144" lon="34.872581482">
<ele>513.296875</ele>
<time>2013-11-23T11:00:09Z</time>
<extensions>
<speed>0.0</speed>
<temp>0.00</temp>
<bpm>0</bpm>
<rpm>0.00</rpm>
</extensions>
</trkpt>
<trkpt lat="30.593294144" lon="34.872581482">
<ele>513.312500</ele>
<time>2013-11-23T11:00:14Z</time>
<extensions>
<speed>0.0</speed>
<temp>0.00</temp>
<bpm>0</bpm>
<rpm>0.00</rpm>
</extensions>
</trkpt>
<trkpt lat="30.593294144" lon="34.872581482">
<ele>513.312500</ele>
<time>2013-11-23T11:00:19Z</time>
<extensions>
<speed>0.0</speed>
<temp>0.00</temp>
<bpm>0</bpm>
<rpm>0.00</rpm>
</extensions>
</trkpt>
<trkpt lat="30.593294144" lon="34.872581482">
<ele>513.328125</ele>
<time>2013-11-23T11:00:24Z</time>
<extensions>
<speed>0.0</speed>
<temp>0.00</temp>
<bpm>0</bpm>
<rpm>0.00</rpm>
</extensions>
</trkpt>
<trkpt lat="30.593294144" lon="34.872581482">
<ele>513.343750</ele>
<time>2013-11-23T11:00:29Z</time>
<extensions>
<speed>0.0</speed>
<temp>0.00</temp>
<bpm>0</bpm>
<rpm>0.00</rpm>
</extensions>
</trkpt>
<trkpt lat="30.593294144" lon="34.872581482">
<ele>513.343750</ele>
<time>2013-11-23T11:00:34Z</time>
<extensions>
<speed>0.0</speed>
<temp>0.00</temp>
<bpm>0</bpm>
<rpm>0.00</rpm>
</extensions>
</trkpt>
<trkpt lat="30.593294144" lon="34.872581482">
<ele>513.328125</ele>
<time>2013-11-23T11:00:39Z</time>
<extensions>
<speed>0.0</speed>
<temp>0.00</temp>
<bpm>0</bpm>
<rpm>0.00</rpm>
</extensions>
</trkpt>
<trkpt lat="30.593294144" lon="34.872581482">
<ele>513.328125</ele>
<time>2013-11-23T11:00:44Z</time>
<speed>0.010000</speed>
<extensions>
<speed>0.0</speed>
<temp>0.00</temp>
<bpm>0</bpm>
<rpm>0.00</rpm>
</extensions>
</trkpt>
<trkpt lat="30.593294144" lon="34.872581482">
<ele>513.328125</ele>
<time>2013-11-23T11:00:49Z</time>
<speed>0.030000</speed>
<extensions>
<speed>0.0</speed>
<temp>0.00</temp>
<bpm>0</bpm>
<rpm>0.00</rpm>
</extensions>
</trkpt>
<trkpt lat="30.593294144" lon="34.872581482">
<ele>513.343750</ele>
<time>2013-11-23T11:00:54Z</time>
<speed>0.010000</speed>
<extensions>
<speed>0.0</speed>
<temp>0.00</temp>
<bpm>0</bpm>
<rpm>0.00</rpm>
</extensions>
</trkpt>
<trkpt lat="30.593296051" lon="34.872581482">
<ele>513.312500</ele>
<time>2013-11-23T11:00:59Z</time>
<speed>0.400000</speed>
<extensions>
<speed>0.4</speed>
<temp>0.00</temp>
<bpm>0</bpm>
<rpm>0.00</rpm>
</extensions>
</trkpt>
<trkpt lat="30.593294144" lon="34.872577667">
<ele>513.296875</ele>
<time>2013-11-23T11:01:04Z</time>
<extensions>
<speed>0.0</speed>
<temp>0.00</temp>
<bpm>0</bpm>
<rpm>0.00</rpm>
</extensions>
</trkpt>
<trkpt lat="30.593294144" lon="34.872577667">
<ele>513.312500</ele>
<time>2013-11-23T11:01:09Z</time>
<extensions>
<speed>0.0</speed>
<temp>0.00</temp>
<bpm>0</bpm>
<rpm>0.00</rpm>
</extensions>
</trkpt>
<trkpt lat="30.593294144" lon="34.872577667">
<ele>513.312500</ele>
<time>2013-11-23T11:01:14Z</time>
<extensions>
<speed>0.0</speed>
<temp>0.00</temp>
<bpm>0</bpm>
<rpm>0.00</rpm>
</extensions>
</trkpt>
<trkpt lat="30.593294144" lon="34.872577667">
<ele>513.328125</ele>
<time>2013-11-23T11:01:19Z</time>
<extensions>
<speed>0.0</speed>
<temp>0.00</temp>
<bpm>0</bpm>
<rpm>0.00</rpm>
</extensions>
</trkpt>
<trkpt lat="30.593294144" lon="34.872577667">
<ele>513.343750</ele>
<time>2013-11-23T11:01:24Z</time>
<extensions>
<speed>0.0</speed>
<temp>0.00</temp>
<bpm>0</bpm>
<rpm>0.00</rpm>
</extensions>
</trkpt>
<trkpt lat="30.593294144" lon="34.872577667">
<ele>513.359375</ele>
<time>2013-11-23T11:01:29Z</time>
<extensions>
<speed>0.0</speed>
<temp>0.00</temp>
<bpm>0</bpm>
<rpm>0.00</rpm>
</extensions>
</trkpt>
<trkpt lat="30.593294144" lon="34.872577667">
<ele>513.359375</ele>
<time>2013-11-23T11:01:34Z</time>
<extensions>
<speed>0.0</speed>
<temp>0.00</temp>
<bpm>0</bpm>
<rpm>0.00</rpm>
</extensions>
</trkpt>
<trkpt lat="30.593294144" lon="34.872577667">
<ele>513.359375</ele>
<time>2013-11-23T11:01:39Z</time>
<extensions>
<speed>0.0</speed>
<temp>0.00</temp>
<bpm>0</bpm>
<rpm>0.00</rpm>
</extensions>
</trkpt>
<trkpt lat="30.593296051" lon="34.872577667">
<ele>513.375000</ele>
<time>2013-11-23T11:01:44Z</time>
<extensions>
<speed>0.0</speed>
<temp>0.00</temp>
<bpm>0</bpm>
<rpm>0.00</rpm>
</extensions>
</trkpt>
<trkpt lat="30.593296051" lon="34.872573853">
<ele>513.390625</ele>
<time>2013-11-23T11:01:49Z</time>
<speed>0.010000</speed>
<extensions>
<speed>0.0</speed>
<temp>0.00</temp>
<bpm>0</bpm>
<rpm>0.00</rpm>
</extensions>
</trkpt>
<trkpt lat="30.593296051" lon="34.872573853">
<ele>513.406250</ele>
<time>2013-11-23T11:01:54Z</time>
<speed>0.010000</speed>
<extensions>
<speed>0.0</speed>
<temp>0.00</temp>
<bpm>0</bpm>
<rpm>0.00</rpm>
</extensions>
</trkpt>
<trkpt lat="30.593296051" lon="34.872573853">
<ele>513.406250</ele>
<time>2013-11-23T11:01:59Z</time>
<extensions>
<speed>0.0</speed>
<temp>0.00</temp>
<bpm>0</bpm>
<rpm>0.00</rpm>
</extensions>
</trkpt>
<trkpt lat="30.593296051" lon="34.872573853">
<ele>513.406250</ele>
<time>2013-11-23T11:02:04Z</time>
<extensions>
<speed>0.0</speed>
<temp>0.00</temp>
<bpm>0</bpm>
<rpm>0.00</rpm>
</extensions>
</trkpt>
<trkpt lat="30.593296051" lon="34.872573853">
<ele>513.406250</ele>
<time>2013-11-23T11:02:09Z</time>
<extensions>
<speed>0.0</speed>
<temp>0.00</temp>
<bpm>0</bpm>
<rpm>0.00</rpm>
</extensions>
</trkpt>
<trkpt lat="30.593296051" lon="34.872573853">
<ele>513.406250</ele>
<time>2013-11-23T11:02:14Z</time>
<extensions>
<speed>0.0</speed>
<temp>0.00</temp>
<bpm>0</bpm>
<rpm>0.00</rpm>
</extensions>
</trkpt>
<trkpt lat="30.593296051" lon="34.872573853">
<ele>513.421875</ele>
<time>2013-11-23T11:02:19Z</time>
<extensions>
<speed>0.0</speed>
<temp>0.00</temp>
<bpm>0</bpm>
<rpm>0.00</rpm>
</extensions>
</trkpt>
<trkpt lat="30.593296051" lon="34.872573853">
<ele>513.406250</ele>
<time>2013-11-23T11:02:24Z</time>
<extensions>
<speed>0.0</speed>
<temp>0.00</temp>
<bpm>0</bpm>
<rpm>0.00</rpm>
</extensions>
</trkpt>
<trkpt lat="30.593296051" lon="34.872573853">
<ele>513.406250</ele>
<time>2013-11-23T11:02:29Z</time>
<extensions>
<speed>0.0</speed>
<temp>0.00</temp>
<bpm>0</bpm>
<rpm>0.00</rpm>
</extensions>
</trkpt>
<trkpt lat="30.593296051" lon="34.872573853">
<ele>513.406250</ele>
<time>2013-11-23T11:02:34Z</time>
<extensions>
<speed>0.0</speed>
<temp>0.00</temp>
<bpm>0</bpm>
<rpm>0.00</rpm>
</extensions>
</trkpt>
<trkpt lat="30.593296051" lon="34.872573853">
<ele>513.406250</ele>
<time>2013-11-23T11:02:39Z</time>
<extensions>
<speed>0.0</speed>
<temp>0.00</temp>
<bpm>0</bpm>
<rpm>0.00</rpm>
</extensions>
</trkpt>
<trkpt lat="30.593296051" lon="34.872573853">
<ele>513.406250</ele>
<time>2013-11-23T11:02:44Z</time>
<extensions>
<speed>0.0</speed>
<temp>0.00</temp>
<bpm>0</bpm>
<rpm>0.00</rpm>
</extensions>
</trkpt>
<trkpt lat="30.593296051" lon="34.872573853">
<ele>513.406250</ele>
<time>2013-11-23T11:02:49Z</time>
<extensions>
<speed>0.0</speed>
<temp>0.00</temp>
<bpm>0</bpm>
<rpm>0.00</rpm>
</extensions>
</trkpt>
<trkpt lat="30.593296051" lon="34.872573853">
<ele>513.406250</ele>
<time>2013-11-23T11:02:54Z</time>
<extensions>
<speed>0.0</speed>
<temp>0.00</temp>
<bpm>0</bpm>
<rpm>0.00</rpm>
</extensions>
</trkpt>
<trkpt lat="30.593296051" lon="34.872573853">
<ele>513.421875</ele>
<time>2013-11-23T11:02:59Z</time>
<speed>0.010000</speed>
<extensions>
<speed>0.0</speed>
<temp>0.00</temp>
<bpm>0</bpm>
<rpm>0.00</rpm>
</extensions>
</trkpt>
<trkpt lat="30.593296051" lon="34.872573853">
<ele>513.421875</ele>
<time>2013-11-23T11:03:04Z</time>
<extensions>
<speed>0.0</speed>
<temp>0.00</temp>
<bpm>0</bpm>
<rpm>0.00</rpm>
</extensions>
</trkpt>
<trkpt lat="30.593296051" lon="34.872573853">
<ele>513.421875</ele>
<time>2013-11-23T11:03:09Z</time>
<extensions>
<speed>0.0</speed>
<temp>0.00</temp>
<bpm>0</bpm>
<rpm>0.00</rpm>
</extensions>
</trkpt>
<trkpt lat="30.593296051" lon="34.872573853">
<ele>513.437500</ele>
<time>2013-11-23T11:03:14Z</time>
<extensions>
<speed>0.0</speed>
<temp>0.00</temp>
<bpm>0</bpm>
<rpm>0.00</rpm>
</extensions>
</trkpt>
<trkpt lat="30.593296051" lon="34.872573853">
<ele>513.421875</ele>
<time>2013-11-23T11:03:19Z</time>
<extensions>
<speed>0.0</speed>
<temp>0.00</temp>
<bpm>0</bpm>
<rpm>0.00</rpm>
</extensions>
</trkpt>
<trkpt lat="30.593296051" lon="34.872573853">
<ele>513.406250</ele>
<time>2013-11-23T11:03:24Z</time>
<extensions>
<speed>0.0</speed>
<temp>0.00</temp>
<bpm>0</bpm>
<rpm>0.00</rpm>
</extensions>
</trkpt>
<trkpt lat="30.593296051" lon="34.872570038">
<ele>513.406250</ele>
<time>2013-11-23T11:03:29Z</time>
<extensions>
<speed>0.0</speed>
<temp>0.00</temp>
<bpm>0</bpm>
<rpm>0.00</rpm>
</extensions>
</trkpt>
<trkpt lat="30.593296051" lon="34.872570038">
<ele>513.406250</ele>
<time>2013-11-23T11:03:34Z</time>
<extensions>
<speed>0.0</speed>
<temp>0.00</temp>
<bpm>0</bpm>
<rpm>0.00</rpm>
</extensions>
</trkpt>
<trkpt lat="30.593296051" lon="34.872570038">
<ele>513.375000</ele>
<time>2013-11-23T11:03:39Z</time>
<extensions>
<speed>0.0</speed>
<temp>0.00</temp>
<bpm>0</bpm>
<rpm>0.00</rpm>
</extensions>
</trkpt>
<trkpt lat="30.593296051" lon="34.872570038">
<ele>513.375000</ele>
<time>2013-11-23T11:03:44Z</time>
<extensions>
<speed>0.0</speed>
<temp>0.00</temp>
<bpm>0</bpm>
<rpm>0.00</rpm>
</extensions>
</trkpt>
<trkpt lat="30.593296051" lon="34.872570038">
<ele>513.359375</ele>
<time>2013-11-23T11:03:49Z</time>
<extensions>
<speed>0.0</speed>
<temp>0.00</temp>
<bpm>0</bpm>
<rpm>0.00</rpm>
</extensions>
</trkpt>
<trkpt lat="30.593296051" lon="34.872570038">
<ele>513.359375</ele>
<time>2013-11-23T11:03:54Z</time>
<extensions>
<speed>0.0</speed>
<temp>0.00</temp>
<bpm>0</bpm>
<rpm>0.00</rpm>
</extensions>
</trkpt>
<trkpt lat="30.593296051" lon="34.872570038">
<ele>513.359375</ele>
<time>2013-11-23T11:03:59Z</time>
<extensions>
<speed>0.0</speed>
<temp>0.00</temp>
<bpm>0</bpm>
<rpm>0.00</rpm>
</extensions>
</trkpt>
<trkpt lat="30.593296051" lon="34.872570038">
<ele>513.343750</ele>
<time>2013-11-23T11:04:04Z</time>
<extensions>
<speed>0.0</speed>
<temp>0.00</temp>
<bpm>0</bpm>
<rpm>0.00</rpm>
</extensions>
</trkpt>
<trkpt lat="30.593296051" lon="34.872570038">
<ele>513.343750</ele>
<time>2013-11-23T11:04:09Z</time>
<extensions>
<speed>0.0</speed>
<temp>0.00</temp>
<bpm>0</bpm>
<rpm>0.00</rpm>
</extensions>
</trkpt>
<trkpt lat="30.593296051" lon="34.872570038">
<ele>513.343750</ele>
<time>2013-11-23T11:04:14Z</time>
<extensions>
<speed>0.0</speed>
<temp>0.00</temp>
<bpm>0</bpm>
<rpm>0.00</rpm>
</extensions>
</trkpt>
<trkpt lat="30.593296051" lon="34.872570038">
<ele>513.343750</ele>
<time>2013-11-23T11:04:19Z</time>
<extensions>
<speed>0.0</speed>
<temp>0.00</temp>
<bpm>0</bpm>
<rpm>0.00</rpm>
</extensions>
</trkpt>
<trkpt lat="30.593296051" lon="34.872570038">
<ele>513.328125</ele>
<time>2013-11-23T11:04:24Z</time>
<extensions>
<speed>0.0</speed>
<temp>0.00</temp>
<bpm>0</bpm>
<rpm>0.00</rpm>
</extensions>
</trkpt>
<trkpt lat="30.593296051" lon="34.872570038">
<ele>513.328125</ele>
<time>2013-11-23T11:04:29Z</time>
<speed>0.010000</speed>
<extensions>
<speed>0.0</speed>
<temp>0.00</temp>
<bpm>0</bpm>
<rpm>0.00</rpm>
</extensions>
</trkpt>
<trkpt lat="30.593296051" lon="34.872570038">
<ele>513.328125</ele>
<time>2013-11-23T11:04:34Z</time>
<extensions>
<speed>0.0</speed>
<temp>0.00</temp>
<bpm>0</bpm>
<rpm>0.00</rpm>
</extensions>
</trkpt>
<trkpt lat="30.593296051" lon="34.872566223">
<ele>513.312500</ele>
<time>2013-11-23T11:04:39Z</time>
<extensions>
<speed>0.0</speed>
<temp>0.00</temp>
<bpm>0</bpm>
<rpm>0.00</rpm>
</extensions>
</trkpt>
<trkpt lat="30.593296051" lon="34.872566223">
<ele>513.296875</ele>
<time>2013-11-23T11:04:44Z</time>
<extensions>
<speed>0.0</speed>
<temp>0.00</temp>
<bpm>0</bpm>
<rpm>0.00</rpm>
</extensions>
</trkpt>
<trkpt lat="30.593296051" lon="34.872566223">
<ele>513.281250</ele>
<time>2013-11-23T11:04:49Z</time>
<extensions>
<speed>0.0</speed>
<temp>0.00</temp>
<bpm>0</bpm>
<rpm>0.00</rpm>
</extensions>
</trkpt>
<trkpt lat="30.593296051" lon="34.872566223">
<ele>513.281250</ele>
<time>2013-11-23T11:04:54Z</time>
<extensions>
<speed>0.0</speed>
<temp>0.00</temp>
<bpm>0</bpm>
<rpm>0.00</rpm>
</extensions>
</trkpt>
<trkpt lat="30.593294144" lon="34.872566223">
<ele>513.281250</ele>
<time>2013-11-23T11:04:59Z</time>
<extensions>
<speed>0.0</speed>
<temp>0.00</temp>
<bpm>0</bpm>
<rpm>0.00</rpm>
</extensions>
</trkpt>
<trkpt lat="30.593294144" lon="34.872566223">
<ele>513.265625</ele>
<time>2013-11-23T11:05:04Z</time>
<extensions>
<speed>0.0</speed>
<temp>0.00</temp>
<bpm>0</bpm>
<rpm>0.00</rpm>
</extensions>
</trkpt>
<trkpt lat="30.593294144" lon="34.872566223">
<ele>513.250000</ele>
<time>2013-11-23T11:05:09Z</time>
<extensions>
<speed>0.0</speed>
<temp>0.00</temp>
<bpm>0</bpm>
<rpm>0.00</rpm>
</extensions>
</trkpt>
<trkpt lat="30.593294144" lon="34.872566223">
<ele>513.250000</ele>
<time>2013-11-23T11:05:14Z</time>
<extensions>
<speed>0.0</speed>
<temp>0.00</temp>
<bpm>0</bpm>
<rpm>0.00</rpm>
</extensions>
</trkpt>
<trkpt lat="30.593294144" lon="34.872566223">
<ele>513.250000</ele>
<time>2013-11-23T11:05:19Z</time>
<extensions>
<speed>0.0</speed>
<temp>0.00</temp>
<bpm>0</bpm>
<rpm>0.00</rpm>
</extensions>
</trkpt>
<trkpt lat="30.593294144" lon="34.872566223">
<ele>513.250000</ele>
<time>2013-11-23T11:05:24Z</time>
<extensions>
<speed>0.0</speed>
<temp>0.00</temp>
<bpm>0</bpm>
<rpm>0.00</rpm>
</extensions>
</trkpt>
<trkpt lat="30.593294144" lon="34.872566223">
<ele>513.250000</ele>
<time>2013-11-23T11:05:29Z</time>
<extensions>
<speed>0.0</speed>
<temp>0.00</temp>
<bpm>0</bpm>
<rpm>0.00</rpm>
</extensions>
</trkpt>
<trkpt lat="30.593294144" lon="34.872566223">
<ele>513.250000</ele>
<time>2013-11-23T11:05:34Z</time>
<extensions>
<speed>0.0</speed>
<temp>0.00</temp>
<bpm>0</bpm>
<rpm>0.00</rpm>
</extensions>
</trkpt>
<trkpt lat="30.593294144" lon="34.872566223">
<ele>513.234375</ele>
<time>2013-11-23T11:05:39Z</time>
<extensions>
<speed>0.0</speed>
<temp>0.00</temp>
<bpm>0</bpm>
<rpm>0.00</rpm>
</extensions>
</trkpt>
<trkpt lat="30.593294144" lon="34.872566223">
<ele>513.234375</ele>
<time>2013-11-23T11:05:44Z</time>
<extensions>
<speed>0.0</speed>
<temp>0.00</temp>
<bpm>0</bpm>
<rpm>0.00</rpm>
</extensions>
</trkpt>
<trkpt lat="30.593294144" lon="34.872566223">
<ele>513.234375</ele>
<time>2013-11-23T11:05:49Z</time>
<extensions>
<speed>0.0</speed>
<temp>0.00</temp>
<bpm>0</bpm>
<rpm>0.00</rpm>
</extensions>
</trkpt>
<trkpt lat="30.593294144" lon="34.872566223">
<ele>513.218750</ele>
<time>2013-11-23T11:05:54Z</time>
<extensions>
<speed>0.0</speed>
<temp>0.00</temp>
<bpm>0</bpm>
<rpm>0.00</rpm>
</extensions>
</trkpt>
<trkpt lat="30.593294144" lon="34.872566223">
<ele>513.218750</ele>
<time>2013-11-23T11:05:59Z</time>
<extensions>
<speed>0.0</speed>
<temp>0.00</temp>
<bpm>0</bpm>
<rpm>0.00</rpm>
</extensions>
</trkpt>
<trkpt lat="30.593294144" lon="34.872566223">
<ele>513.218750</ele>
<time>2013-11-23T11:06:04Z</time>
<extensions>
<speed>0.0</speed>
<temp>0.00</temp>
<bpm>0</bpm>
<rpm>0.00</rpm>
</extensions>
</trkpt>
<trkpt lat="30.593294144" lon="34.872562408">
<ele>513.203125</ele>
<time>2013-11-23T11:06:09Z</time>
<extensions>
<speed>0.0</speed>
<temp>0.00</temp>
<bpm>0</bpm>
<rpm>0.00</rpm>
</extensions>
</trkpt>
<trkpt lat="30.593294144" lon="34.872562408">
<ele>513.203125</ele>
<time>2013-11-23T11:06:14Z</time>
<extensions>
<speed>0.0</speed>
<temp>0.00</temp>
<bpm>0</bpm>
<rpm>0.00</rpm>
</extensions>
</trkpt>
<trkpt lat="30.593294144" lon="34.872562408">
<ele>513.187500</ele>
<time>2013-11-23T11:06:19Z</time>
<extensions>
<speed>0.0</speed>
<temp>0.00</temp>
<bpm>0</bpm>
<rpm>0.00</rpm>
</extensions>
</trkpt>
<trkpt lat="30.593294144" lon="34.872562408">
<ele>513.187500</ele>
<time>2013-11-23T11:06:24Z</time>
<extensions>
<speed>0.0</speed>
<temp>0.00</temp>
<bpm>0</bpm>
<rpm>0.00</rpm>
</extensions>
</trkpt>
<trkpt lat="30.593294144" lon="34.872562408">
<ele>513.187500</ele>
<time>2013-11-23T11:06:29Z</time>
<extensions>
<speed>0.0</speed>
<temp>0.00</temp>
<bpm>0</bpm>
<rpm>0.00</rpm>
</extensions>
</trkpt>
<trkpt lat="30.593294144" lon="34.872562408">
<ele>513.187500</ele>
<time>2013-11-23T11:06:34Z</time>
<extensions>
<speed>0.0</speed>
<temp>0.00</temp>
<bpm>0</bpm>
<rpm>0.00</rpm>
</extensions>
</trkpt>
<trkpt lat="30.593294144" lon="34.872562408">
<ele>513.187500</ele>
<time>2013-11-23T11:06:39Z</time>
<extensions>
<speed>0.0</speed>
<temp>0.00</temp>
<bpm>0</bpm>
<rpm>0.00</rpm>
</extensions>
</trkpt>
<trkpt lat="30.593294144" lon="34.872562408">
<ele>513.187500</ele>
<time>2013-11-23T11:06:44Z</time>
<extensions>
<speed>0.0</speed>
<temp>0.00</temp>
<bpm>0</bpm>
<rpm>0.00</rpm>
</extensions>
</trkpt>
<trkpt lat="30.593294144" lon="34.872562408">
<ele>513.187500</ele>
<time>2013-11-23T11:06:49Z</time>
<extensions>
<speed>0.0</speed>
<temp>0.00</temp>
<bpm>0</bpm>
<rpm>0.00</rpm>
</extensions>
</trkpt>
<trkpt lat="30.593294144" lon="34.872562408">
<ele>513.187500</ele>
<time>2013-11-23T11:06:54Z</time>
<extensions>
<speed>0.0</speed>
<temp>0.00</temp>
<bpm>0</bpm>
<rpm>0.00</rpm>
</extensions>
</trkpt>
<trkpt lat="30.593294144" lon="34.872562408">
<ele>513.171875</ele>
<time>2013-11-23T11:06:59Z</time>
<extensions>
<speed>0.0</speed>
<temp>0.00</temp>
<bpm>0</bpm>
<rpm>0.00</rpm>
</extensions>
</trkpt>
<trkpt lat="30.593294144" lon="34.872562408">
<ele>513.171875</ele>
<time>2013-11-23T11:07:04Z</time>
<extensions>
<speed>0.0</speed>
<temp>0.00</temp>
<bpm>0</bpm>
<rpm>0.00</rpm>
</extensions>
</trkpt>
<trkpt lat="30.593294144" lon="34.872562408">
<ele>513.171875</ele>
<time>2013-11-23T11:07:09Z</time>
<extensions>
<speed>0.0</speed>
<temp>0.00</temp>
<bpm>0</bpm>
<rpm>0.00</rpm>
</extensions>
</trkpt>
<trkpt lat="30.593294144" lon="34.872558594">
<ele>513.187500</ele>
<time>2013-11-23T11:07:14Z</time>
<extensions>
<speed>0.0</speed>
<temp>0.00</temp>
<bpm>0</bpm>
<rpm>0.00</rpm>
</extensions>
</trkpt>
<trkpt lat="30.593294144" lon="34.872558594">
<ele>513.187500</ele>
<time>2013-11-23T11:07:19Z</time>
<extensions>
<speed>0.0</speed>
<temp>0.00</temp>
<bpm>0</bpm>
<rpm>0.00</rpm>
</extensions>
</trkpt>
<trkpt lat="30.593294144" lon="34.872558594">
<ele>513.203125</ele>
<time>2013-11-23T11:07:24Z</time>
<extensions>
<speed>0.0</speed>
<temp>0.00</temp>
<bpm>0</bpm>
<rpm>0.00</rpm>
</extensions>
</trkpt>
<trkpt lat="30.593294144" lon="34.872558594">
<ele>513.218750</ele>
<time>2013-11-23T11:07:29Z</time>
<extensions>
<speed>0.0</speed>
<temp>0.00</temp>
<bpm>0</bpm>
<rpm>0.00</rpm>
</extensions>
</trkpt>
<trkpt lat="30.593294144" lon="34.872558594">
<ele>513.218750</ele>
<time>2013-11-23T11:07:34Z</time>
<extensions>
<speed>0.0</speed>
<temp>0.00</temp>
<bpm>0</bpm>
<rpm>0.00</rpm>
</extensions>
</trkpt>
<trkpt lat="30.593294144" lon="34.872558594">
<ele>513.218750</ele>
<time>2013-11-23T11:07:39Z</time>
<extensions>
<speed>0.0</speed>
<temp>0.00</temp>
<bpm>0</bpm>
<rpm>0.00</rpm>
</extensions>
</trkpt>
<trkpt lat="30.593294144" lon="34.872558594">
<ele>513.234375</ele>
<time>2013-11-23T11:07:44Z</time>
<extensions>
<speed>0.0</speed>
<temp>0.00</temp>
<bpm>0</bpm>
<rpm>0.00</rpm>
</extensions>
</trkpt>
<trkpt lat="30.593294144" lon="34.872558594">
<ele>513.250000</ele>
<time>2013-11-23T11:07:49Z</time>
<extensions>
<speed>0.0</speed>
<temp>0.00</temp>
<bpm>0</bpm>
<rpm>0.00</rpm>
</extensions>
</trkpt>
<trkpt lat="30.593294144" lon="34.872558594">
<ele>513.250000</ele>
<time>2013-11-23T11:07:54Z</time>
<extensions>
<speed>0.0</speed>
<temp>0.00</temp>
<bpm>0</bpm>
<rpm>0.00</rpm>
</extensions>
</trkpt>
<trkpt lat="30.593294144" lon="34.872558594">
<ele>513.265625</ele>
<time>2013-11-23T11:07:59Z</time>
<extensions>
<speed>0.0</speed>
<temp>0.00</temp>
<bpm>0</bpm>
<rpm>0.00</rpm>
</extensions>
</trkpt>
<trkpt lat="30.593294144" lon="34.872558594">
<ele>513.265625</ele>
<time>2013-11-23T11:08:04Z</time>
<extensions>
<speed>0.0</speed>
<temp>0.00</temp>
<bpm>0</bpm>
<rpm>0.00</rpm>
</extensions>
</trkpt>
<trkpt lat="30.593294144" lon="34.872558594">
<ele>513.281250</ele>
<time>2013-11-23T11:08:09Z</time>
<extensions>
<speed>0.0</speed>
<temp>0.00</temp>
<bpm>0</bpm>
<rpm>0.00</rpm>
</extensions>
</trkpt>
<trkpt lat="30.593294144" lon="34.872554779">
<ele>513.281250</ele>
<time>2013-11-23T11:08:14Z</time>
<extensions>
<speed>0.0</speed>
<temp>0.00</temp>
<bpm>0</bpm>
<rpm>0.00</rpm>
</extensions>
</trkpt>
<trkpt lat="30.593294144" lon="34.872554779">
<ele>513.281250</ele>
<time>2013-11-23T11:08:19Z</time>
<extensions>
<speed>0.0</speed>
<temp>0.00</temp>
<bpm>0</bpm>
<rpm>0.00</rpm>
</extensions>
</trkpt>
<trkpt lat="30.593294144" lon="34.872554779">
<ele>513.296875</ele>
<time>2013-11-23T11:08:24Z</time>
<extensions>
<speed>0.0</speed>
<temp>0.00</temp>
<bpm>0</bpm>
<rpm>0.00</rpm>
</extensions>
</trkpt>
<trkpt lat="30.593294144" lon="34.872554779">
<ele>513.312500</ele>
<time>2013-11-23T11:08:29Z</time>
<extensions>
<speed>0.0</speed>
<temp>0.00</temp>
<bpm>0</bpm>
<rpm>0.00</rpm>
</extensions>
</trkpt>
<trkpt lat="30.593294144" lon="34.872554779">
<ele>513.312500</ele>
<time>2013-11-23T11:08:34Z</time>
<extensions>
<speed>0.0</speed>
<temp>0.00</temp>
<bpm>0</bpm>
<rpm>0.00</rpm>
</extensions>
</trkpt>
<trkpt lat="30.593294144" lon="34.872554779">
<ele>513.328125</ele>
<time>2013-11-23T11:08:39Z</time>
<extensions>
<speed>0.0</speed>
<temp>0.00</temp>
<bpm>0</bpm>
<rpm>0.00</rpm>
</extensions>
</trkpt>
<trkpt lat="30.593294144" lon="34.872554779">
<ele>513.328125</ele>
<time>2013-11-23T11:08:44Z</time>
<extensions>
<speed>0.0</speed>
<temp>0.00</temp>
<bpm>0</bpm>
<rpm>0.00</rpm>
</extensions>
</trkpt>
<trkpt lat="30.593294144" lon="34.872554779">
<ele>513.343750</ele>
<time>2013-11-23T11:08:49Z</time>
<extensions>
<speed>0.0</speed>
<temp>0.00</temp>
<bpm>0</bpm>
<rpm>0.00</rpm>
</extensions>
</trkpt>
<trkpt lat="30.593294144" lon="34.872554779">
<ele>513.343750</ele>
<time>2013-11-23T11:08:54Z</time>
<extensions>
<speed>0.0</speed>
<temp>0.00</temp>
<bpm>0</bpm>
<rpm>0.00</rpm>
</extensions>
</trkpt>
<trkpt lat="30.593294144" lon="34.872554779">
<ele>513.359375</ele>
<time>2013-11-23T11:08:59Z</time>
<extensions>
<speed>0.0</speed>
<temp>0.00</temp>
<bpm>0</bpm>
<rpm>0.00</rpm>
</extensions>
</trkpt>
<trkpt lat="30.593294144" lon="34.872554779">
<ele>513.359375</ele>
<time>2013-11-23T11:09:04Z</time>
<extensions>
<speed>0.0</speed>
<temp>0.00</temp>
<bpm>0</bpm>
<rpm>0.00</rpm>
</extensions>
</trkpt>
<trkpt lat="30.593294144" lon="34.872554779">
<ele>513.359375</ele>
<time>2013-11-23T11:09:09Z</time>
<extensions>
<speed>0.0</speed>
<temp>0.00</temp>
<bpm>0</bpm>
<rpm>0.00</rpm>
</extensions>
</trkpt>
<trkpt lat="30.593294144" lon="34.872554779">
<ele>513.359375</ele>
<time>2013-11-23T11:09:14Z</time>
<extensions>
<speed>0.0</speed>
<temp>0.00</temp>
<bpm>0</bpm>
<rpm>0.00</rpm>
</extensions>
</trkpt>
<trkpt lat="30.593294144" lon="34.872554779">
<ele>513.375000</ele>
<time>2013-11-23T11:09:19Z</time>
<extensions>
<speed>0.0</speed>
<temp>0.00</temp>
<bpm>0</bpm>
<rpm>0.00</rpm>
</extensions>
</trkpt>
<trkpt lat="30.593294144" lon="34.872554779">
<ele>513.375000</ele>
<time>2013-11-23T11:09:24Z</time>
<extensions>
<speed>0.0</speed>
<temp>0.00</temp>
<bpm>0</bpm>
<rpm>0.00</rpm>
</extensions>
</trkpt>
<trkpt lat="30.593294144" lon="34.872550964">
<ele>513.375000</ele>
<time>2013-11-23T11:09:29Z</time>
<extensions>
<speed>0.0</speed>
<temp>0.00</temp>
<bpm>0</bpm>
<rpm>0.00</rpm>
</extensions>
</trkpt>
<trkpt lat="30.593292236" lon="34.872550964">
<ele>513.375000</ele>
<time>2013-11-23T11:09:34Z</time>
<extensions>
<speed>0.0</speed>
<temp>0.00</temp>
<bpm>0</bpm>
<rpm>0.00</rpm>
</extensions>
</trkpt>
<trkpt lat="30.593292236" lon="34.872550964">
<ele>513.375000</ele>
<time>2013-11-23T11:09:39Z</time>
<extensions>
<speed>0.0</speed>
<temp>0.00</temp>
<bpm>0</bpm>
<rpm>0.00</rpm>
</extensions>
</trkpt>
<trkpt lat="30.593294144" lon="34.872550964">
<ele>513.375000</ele>
<time>2013-11-23T11:09:44Z</time>
<extensions>
<speed>0.0</speed>
<temp>0.00</temp>
<bpm>0</bpm>
<rpm>0.00</rpm>
</extensions>
</trkpt>
<trkpt lat="30.593294144" lon="34.872550964">
<ele>513.359375</ele>
<time>2013-11-23T11:09:49Z</time>
<extensions>
<speed>0.0</speed>
<temp>0.00</temp>
<bpm>0</bpm>
<rpm>0.00</rpm>
</extensions>
</trkpt>
<trkpt lat="30.593292236" lon="34.872550964">
<ele>513.359375</ele>
<time>2013-11-23T11:09:54Z</time>
<extensions>
<speed>0.0</speed>
<temp>0.00</temp>
<bpm>0</bpm>
<rpm>0.00</rpm>
</extensions>
</trkpt>
<trkpt lat="30.593292236" lon="34.872550964">
<ele>513.343750</ele>
<time>2013-11-23T11:09:59Z</time>
<extensions>
<speed>0.0</speed>
<temp>0.00</temp>
<bpm>0</bpm>
<rpm>0.00</rpm>
</extensions>
</trkpt>
<trkpt lat="30.593292236" lon="34.872550964">
<ele>513.359375</ele>
<time>2013-11-23T11:10:04Z</time>
<extensions>
<speed>0.0</speed>
<temp>0.00</temp>
<bpm>0</bpm>
<rpm>0.00</rpm>
</extensions>
</trkpt>
<trkpt lat="30.593292236" lon="34.872550964">
<ele>513.359375</ele>
<time>2013-11-23T11:10:09Z</time>
<extensions>
<speed>0.0</speed>
<temp>0.00</temp>
<bpm>0</bpm>
<rpm>0.00</rpm>
</extensions>
</trkpt>
<trkpt lat="30.593292236" lon="34.872550964">
<ele>513.359375</ele>
<time>2013-11-23T11:10:14Z</time>
<extensions>
<speed>0.0</speed>
<temp>0.00</temp>
<bpm>0</bpm>
<rpm>0.00</rpm>
</extensions>
</trkpt>
<trkpt lat="30.593292236" lon="34.872550964">
<ele>513.359375</ele>
<time>2013-11-23T11:10:19Z</time>
<extensions>
<speed>0.0</speed>
<temp>0.00</temp>
<bpm>0</bpm>
<rpm>0.00</rpm>
</extensions>
</trkpt>
<trkpt lat="30.593292236" lon="34.872550964">
<ele>513.359375</ele>
<time>2013-11-23T11:10:24Z</time>
<extensions>
<speed>0.0</speed>
<temp>0.00</temp>
<bpm>0</bpm>
<rpm>0.00</rpm>
</extensions>
</trkpt>
<trkpt lat="30.593292236" lon="34.872550964">
<ele>513.343750</ele>
<time>2013-11-23T11:10:29Z</time>
<extensions>
<speed>0.0</speed>
<temp>0.00</temp>
<bpm>0</bpm>
<rpm>0.00</rpm>
</extensions>
</trkpt>
<trkpt lat="30.593292236" lon="34.872550964">
<ele>513.343750</ele>
<time>2013-11-23T11:10:34Z</time>
<extensions>
<speed>0.0</speed>
<temp>0.00</temp>
<bpm>0</bpm>
<rpm>0.00</rpm>
</extensions>
</trkpt>
<trkpt lat="30.593292236" lon="34.872550964">
<ele>513.343750</ele>
<time>2013-11-23T11:10:39Z</time>
<extensions>
<speed>0.0</speed>
<temp>0.00</temp>
<bpm>0</bpm>
<rpm>0.00</rpm>
</extensions>
</trkpt>
<trkpt lat="30.593292236" lon="34.872550964">
<ele>513.359375</ele>
<time>2013-11-23T11:10:44Z</time>
<extensions>
<speed>0.0</speed>
<temp>0.00</temp>
<bpm>0</bpm>
<rpm>0.00</rpm>
</extensions>
</trkpt>
<trkpt lat="30.593292236" lon="34.872550964">
<ele>513.359375</ele>
<time>2013-11-23T11:10:49Z</time>
<extensions>
<speed>0.0</speed>
<temp>0.00</temp>
<bpm>0</bpm>
<rpm>0.00</rpm>
</extensions>
</trkpt>
<trkpt lat="30.593292236" lon="34.872550964">
<ele>513.343750</ele>
<time>2013-11-23T11:10:54Z</time>
<extensions>
<speed>0.0</speed>
<temp>0.00</temp>
<bpm>0</bpm>
<rpm>0.00</rpm>
</extensions>
</trkpt>
<trkpt lat="30.593292236" lon="34.872547150">
<ele>513.328125</ele>
<time>2013-11-23T11:10:59Z</time>
<extensions>
<speed>0.0</speed>
<temp>0.00</temp>
<bpm>0</bpm>
<rpm>0.00</rpm>
</extensions>
</trkpt>
<trkpt lat="30.593292236" lon="34.872547150">
<ele>513.312500</ele>
<time>2013-11-23T11:11:04Z</time>
<extensions>
<speed>0.0</speed>
<temp>0.00</temp>
<bpm>0</bpm>
<rpm>0.00</rpm>
</extensions>
</trkpt>
<trkpt lat="30.593292236" lon="34.872547150">
<ele>513.312500</ele>
<time>2013-11-23T11:11:09Z</time>
<extensions>
<speed>0.0</speed>
<temp>0.00</temp>
<bpm>0</bpm>
<rpm>0.00</rpm>
</extensions>
</trkpt>
<trkpt lat="30.593292236" lon="34.872547150">
<ele>513.312500</ele>
<time>2013-11-23T11:11:14Z</time>
<extensions>
<speed>0.0</speed>
<temp>0.00</temp>
<bpm>0</bpm>
<rpm>0.00</rpm>
</extensions>
</trkpt>
<trkpt lat="30.593292236" lon="34.872547150">
<ele>513.296875</ele>
<time>2013-11-23T11:11:19Z</time>
<extensions>
<speed>0.0</speed>
<temp>0.00</temp>
<bpm>0</bpm>
<rpm>0.00</rpm>
</extensions>
</trkpt>
<trkpt lat="30.593292236" lon="34.872547150">
<ele>513.296875</ele>
<time>2013-11-23T11:11:24Z</time>
<extensions>
<speed>0.0</speed>
<temp>0.00</temp>
<bpm>0</bpm>
<rpm>0.00</rpm>
</extensions>
</trkpt>
<trkpt lat="30.593292236" lon="34.872547150">
<ele>513.296875</ele>
<time>2013-11-23T11:11:29Z</time>
<extensions>
<speed>0.0</speed>
<temp>0.00</temp>
<bpm>0</bpm>
<rpm>0.00</rpm>
</extensions>
</trkpt>
<trkpt lat="30.593292236" lon="34.872547150">
<ele>513.281250</ele>
<time>2013-11-23T11:11:34Z</time>
<extensions>
<speed>0.0</speed>
<temp>0.00</temp>
<bpm>0</bpm>
<rpm>0.00</rpm>
</extensions>
</trkpt>
<trkpt lat="30.593292236" lon="34.872547150">
<ele>513.281250</ele>
<time>2013-11-23T11:11:39Z</time>
<extensions>
<speed>0.0</speed>
<temp>0.00</temp>
<bpm>0</bpm>
<rpm>0.00</rpm>
</extensions>
</trkpt>
<trkpt lat="30.593292236" lon="34.872547150">
<ele>513.281250</ele>
<time>2013-11-23T11:11:44Z</time>
<extensions>
<speed>0.0</speed>
<temp>0.00</temp>
<bpm>0</bpm>
<rpm>0.00</rpm>
</extensions>
</trkpt>
<trkpt lat="30.593292236" lon="34.872547150">
<ele>513.265625</ele>
<time>2013-11-23T11:11:49Z</time>
<extensions>
<speed>0.0</speed>
<temp>0.00</temp>
<bpm>0</bpm>
<rpm>0.00</rpm>
</extensions>
</trkpt>
<trkpt lat="30.593292236" lon="34.872547150">
<ele>513.265625</ele>
<time>2013-11-23T11:11:54Z</time>
<extensions>
<speed>0.0</speed>
<temp>0.00</temp>
<bpm>0</bpm>
<rpm>0.00</rpm>
</extensions>
</trkpt>
<trkpt lat="30.593292236" lon="34.872547150">
<ele>513.265625</ele>
<time>2013-11-23T11:11:59Z</time>
<extensions>
<speed>0.0</speed>
<temp>0.00</temp>
<bpm>0</bpm>
<rpm>0.00</rpm>
</extensions>
</trkpt>
<trkpt lat="30.593292236" lon="34.872547150">
<ele>513.250000</ele>
<time>2013-11-23T11:12:04Z</time>
<extensions>
<speed>0.0</speed>
<temp>0.00</temp>
<bpm>0</bpm>
<rpm>0.00</rpm>
</extensions>
</trkpt>
<trkpt lat="30.593292236" lon="34.872547150">
<ele>513.234375</ele>
<time>2013-11-23T11:12:09Z</time>
<extensions>
<speed>0.0</speed>
<temp>0.00</temp>
<bpm>0</bpm>
<rpm>0.00</rpm>
</extensions>
</trkpt>
<trkpt lat="30.593292236" lon="34.872547150">
<ele>513.218750</ele>
<time>2013-11-23T11:12:14Z</time>
<extensions>
<speed>0.0</speed>
<temp>0.00</temp>
<bpm>0</bpm>
<rpm>0.00</rpm>
</extensions>
</trkpt>
<trkpt lat="30.593292236" lon="34.872547150">
<ele>513.218750</ele>
<time>2013-11-23T11:12:19Z</time>
<extensions>
<speed>0.0</speed>
<temp>0.00</temp>
<bpm>0</bpm>
<rpm>0.00</rpm>
</extensions>
</trkpt>
<trkpt lat="30.593292236" lon="34.872547150">
<ele>513.218750</ele>
<time>2013-11-23T11:12:24Z</time>
<extensions>
<speed>0.0</speed>
<temp>0.00</temp>
<bpm>0</bpm>
<rpm>0.00</rpm>
</extensions>
</trkpt>
<trkpt lat="30.593292236" lon="34.872547150">
<ele>513.218750</ele>
<time>2013-11-23T11:12:29Z</time>
<extensions>
<speed>0.0</speed>
<temp>0.00</temp>
<bpm>0</bpm>
<rpm>0.00</rpm>
</extensions>
</trkpt>
<trkpt lat="30.593292236" lon="34.872547150">
<ele>513.218750</ele>
<time>2013-11-23T11:12:34Z</time>
<extensions>
<speed>0.0</speed>
<temp>0.00</temp>
<bpm>0</bpm>
<rpm>0.00</rpm>
</extensions>
</trkpt>
<trkpt lat="30.593292236" lon="34.872547150">
<ele>513.203125</ele>
<time>2013-11-23T11:12:39Z</time>
<extensions>
<speed>0.0</speed>
<temp>0.00</temp>
<bpm>0</bpm>
<rpm>0.00</rpm>
</extensions>
</trkpt>
<trkpt lat="30.593292236" lon="34.872543335">
<ele>513.187500</ele>
<time>2013-11-23T11:12:44Z</time>
<extensions>
<speed>0.0</speed>
<temp>0.00</temp>
<bpm>0</bpm>
<rpm>0.00</rpm>
</extensions>
</trkpt>
<trkpt lat="30.593292236" lon="34.872543335">
<ele>513.203125</ele>
<time>2013-11-23T11:12:49Z</time>
<extensions>
<speed>0.0</speed>
<temp>0.00</temp>
<bpm>0</bpm>
<rpm>0.00</rpm>
</extensions>
</trkpt>
<trkpt lat="30.593290329" lon="34.872543335">
<ele>513.203125</ele>
<time>2013-11-23T11:12:54Z</time>
<extensions>
<speed>0.0</speed>
<temp>0.00</temp>
<bpm>0</bpm>
<rpm>0.00</rpm>
</extensions>
</trkpt>
<trkpt lat="30.593290329" lon="34.872543335">
<ele>513.187500</ele>
<time>2013-11-23T11:12:59Z</time>
<extensions>
<speed>0.0</speed>
<temp>0.00</temp>
<bpm>0</bpm>
<rpm>0.00</rpm>
</extensions>
</trkpt>
<trkpt lat="30.593290329" lon="34.872543335">
<ele>513.218750</ele>
<time>2013-11-23T11:13:04Z</time>
<extensions>
<speed>0.0</speed>
<temp>0.00</temp>
<bpm>0</bpm>
<rpm>0.00</rpm>
</extensions>
</trkpt>
<trkpt lat="30.593292236" lon="34.872543335">
<ele>513.234375</ele>
<time>2013-11-23T11:13:09Z</time>
<speed>0.010000</speed>
<extensions>
<speed>0.0</speed>
<temp>0.00</temp>
<bpm>0</bpm>
<rpm>0.00</rpm>
</extensions>
</trkpt>
<trkpt lat="30.593292236" lon="34.872543335">
<ele>513.265625</ele>
<time>2013-11-23T11:13:14Z</time>
<extensions>
<speed>0.0</speed>
<temp>0.00</temp>
<bpm>0</bpm>
<rpm>0.00</rpm>
</extensions>
</trkpt>
<trkpt lat="30.593292236" lon="34.872543335">
<ele>513.296875</ele>
<time>2013-11-23T11:13:19Z</time>
<extensions>
<speed>0.0</speed>
<temp>0.00</temp>
<bpm>0</bpm>
<rpm>0.00</rpm>
</extensions>
</trkpt>
<trkpt lat="30.593292236" lon="34.872543335">
<ele>513.328125</ele>
<time>2013-11-23T11:13:24Z</time>
<extensions>
<speed>0.0</speed>
<temp>0.00</temp>
<bpm>0</bpm>
<rpm>0.00</rpm>
</extensions>
</trkpt>
<trkpt lat="30.593292236" lon="34.872543335">
<ele>513.343750</ele>
<time>2013-11-23T11:13:29Z</time>
<extensions>
<speed>0.0</speed>
<temp>0.00</temp>
<bpm>0</bpm>
<rpm>0.00</rpm>
</extensions>
</trkpt>
<trkpt lat="30.593292236" lon="34.872543335">
<ele>513.390625</ele>
<time>2013-11-23T11:13:34Z</time>
<extensions>
<speed>0.0</speed>
<temp>0.00</temp>
<bpm>0</bpm>
<rpm>0.00</rpm>
</extensions>
</trkpt>
<trkpt lat="30.593292236" lon="34.872543335">
<ele>513.421875</ele>
<time>2013-11-23T11:13:39Z</time>
<extensions>
<speed>0.0</speed>
<temp>0.00</temp>
<bpm>0</bpm>
<rpm>0.00</rpm>
</extensions>
</trkpt>
<trkpt lat="30.593292236" lon="34.872543335">
<ele>513.453125</ele>
<time>2013-11-23T11:13:44Z</time>
<extensions>
<speed>0.0</speed>
<temp>0.00</temp>
<bpm>0</bpm>
<rpm>0.00</rpm>
</extensions>
</trkpt>
<trkpt lat="30.593292236" lon="34.872543335">
<ele>513.500000</ele>
<time>2013-11-23T11:13:49Z</time>
<extensions>
<speed>0.0</speed>
<temp>0.00</temp>
<bpm>0</bpm>
<rpm>0.00</rpm>
</extensions>
</trkpt>
<trkpt lat="30.593292236" lon="34.872543335">
<ele>513.546875</ele>
<time>2013-11-23T11:13:54Z</time>
<extensions>
<speed>0.0</speed>
<temp>0.00</temp>
<bpm>0</bpm>
<rpm>0.00</rpm>
</extensions>
</trkpt>
<trkpt lat="30.593294144" lon="34.872543335">
<ele>513.593750</ele>
<time>2013-11-23T11:13:59Z</time>
<speed>0.010000</speed>
<extensions>
<speed>0.0</speed>
<temp>0.00</temp>
<bpm>0</bpm>
<rpm>0.00</rpm>
</extensions>
</trkpt>
<trkpt lat="30.593294144" lon="34.872543335">
<ele>513.640625</ele>
<time>2013-11-23T11:14:04Z</time>
<extensions>
<speed>0.0</speed>
<temp>0.00</temp>
<bpm>0</bpm>
<rpm>0.00</rpm>
</extensions>
</trkpt>
<trkpt lat="30.593294144" lon="34.872543335">
<ele>513.671875</ele>
<time>2013-11-23T11:14:09Z</time>
<extensions>
<speed>0.0</speed>
<temp>0.00</temp>
<bpm>0</bpm>
<rpm>0.00</rpm>
</extensions>
</trkpt>
<trkpt lat="30.593294144" lon="34.872543335">
<ele>513.718750</ele>
<time>2013-11-23T11:14:14Z</time>
<extensions>
<speed>0.0</speed>
<temp>0.00</temp>
<bpm>0</bpm>
<rpm>0.00</rpm>
</extensions>
</trkpt>
<trkpt lat="30.593294144" lon="34.872543335">
<ele>513.734375</ele>
<time>2013-11-23T11:14:19Z</time>
<extensions>
<speed>0.0</speed>
<temp>0.00</temp>
<bpm>0</bpm>
<rpm>0.00</rpm>
</extensions>
</trkpt>
<trkpt lat="30.593294144" lon="34.872543335">
<ele>513.765625</ele>
<time>2013-11-23T11:14:24Z</time>
<extensions>
<speed>0.0</speed>
<temp>0.00</temp>
<bpm>0</bpm>
<rpm>0.00</rpm>
</extensions>
</trkpt>
<trkpt lat="30.593294144" lon="34.872543335">
<ele>513.796875</ele>
<time>2013-11-23T11:14:29Z</time>
<extensions>
<speed>0.0</speed>
<temp>0.00</temp>
<bpm>0</bpm>
<rpm>0.00</rpm>
</extensions>
</trkpt>
<trkpt lat="30.593294144" lon="34.872543335">
<ele>513.828125</ele>
<time>2013-11-23T11:14:34Z</time>
<extensions>
<speed>0.0</speed>
<temp>0.00</temp>
<bpm>0</bpm>
<rpm>0.00</rpm>
</extensions>
</trkpt>
<trkpt lat="30.593294144" lon="34.872543335">
<ele>513.859375</ele>
<time>2013-11-23T11:14:39Z</time>
<extensions>
<speed>0.0</speed>
<temp>0.00</temp>
<bpm>0</bpm>
<rpm>0.00</rpm>
</extensions>
</trkpt>
<trkpt lat="30.593294144" lon="34.872543335">
<ele>513.890625</ele>
<time>2013-11-23T11:14:44Z</time>
<extensions>
<speed>0.0</speed>
<temp>0.00</temp>
<bpm>0</bpm>
<rpm>0.00</rpm>
</extensions>
</trkpt>
<trkpt lat="30.593294144" lon="34.872543335">
<ele>513.906250</ele>
<time>2013-11-23T11:14:49Z</time>
<extensions>
<speed>0.0</speed>
<temp>0.00</temp>
<bpm>0</bpm>
<rpm>0.00</rpm>
</extensions>
</trkpt>
<trkpt lat="30.593294144" lon="34.872543335">
<ele>513.953125</ele>
<time>2013-11-23T11:14:54Z</time>
<extensions>
<speed>0.0</speed>
<temp>0.00</temp>
<bpm>0</bpm>
<rpm>0.00</rpm>
</extensions>
</trkpt>
<trkpt lat="30.593294144" lon="34.872543335">
<ele>513.984375</ele>
<time>2013-11-23T11:14:59Z</time>
<extensions>
<speed>0.0</speed>
<temp>0.00</temp>
<bpm>0</bpm>
<rpm>0.00</rpm>
</extensions>
</trkpt>
<trkpt lat="30.593294144" lon="34.872543335">
<ele>514.015625</ele>
<time>2013-11-23T11:15:04Z</time>
<extensions>
<speed>0.0</speed>
<temp>0.00</temp>
<bpm>0</bpm>
<rpm>0.00</rpm>
</extensions>
</trkpt>
<trkpt lat="30.593294144" lon="34.872543335">
<ele>514.031250</ele>
<time>2013-11-23T11:15:09Z</time>
<extensions>
<speed>0.0</speed>
<temp>0.00</temp>
<bpm>0</bpm>
<rpm>0.00</rpm>
</extensions>
</trkpt>
<trkpt lat="30.593294144" lon="34.872543335">
<ele>514.062500</ele>
<time>2013-11-23T11:15:14Z</time>
<speed>0.010000</speed>
<extensions>
<speed>0.0</speed>
<temp>0.00</temp>
<bpm>0</bpm>
<rpm>0.00</rpm>
</extensions>
</trkpt>
<trkpt lat="30.593294144" lon="34.872543335">
<ele>514.093750</ele>
<time>2013-11-23T11:15:19Z</time>
<extensions>
<speed>0.0</speed>
<temp>0.00</temp>
<bpm>0</bpm>
<rpm>0.00</rpm>
</extensions>
</trkpt>
<trkpt lat="30.593294144" lon="34.872543335">
<ele>514.140625</ele>
<time>2013-11-23T11:15:24Z</time>
<extensions>
<speed>0.0</speed>
<temp>0.00</temp>
<bpm>0</bpm>
<rpm>0.00</rpm>
</extensions>
</trkpt>
<trkpt lat="30.593296051" lon="34.872543335">
<ele>514.171875</ele>
<time>2013-11-23T11:15:29Z</time>
<extensions>
<speed>0.0</speed>
<temp>0.00</temp>
<bpm>0</bpm>
<rpm>0.00</rpm>
</extensions>
</trkpt>
<trkpt lat="30.593296051" lon="34.872543335">
<ele>514.203125</ele>
<time>2013-11-23T11:15:34Z</time>
<extensions>
<speed>0.0</speed>
<temp>0.00</temp>
<bpm>0</bpm>
<rpm>0.00</rpm>
</extensions>
</trkpt>
<trkpt lat="30.593296051" lon="34.872543335">
<ele>514.234375</ele>
<time>2013-11-23T11:15:39Z</time>
<extensions>
<speed>0.0</speed>
<temp>0.00</temp>
<bpm>0</bpm>
<rpm>0.00</rpm>
</extensions>
</trkpt>
<trkpt lat="30.593296051" lon="34.872543335">
<ele>514.250000</ele>
<time>2013-11-23T11:15:44Z</time>
<extensions>
<speed>0.0</speed>
<temp>0.00</temp>
<bpm>0</bpm>
<rpm>0.00</rpm>
</extensions>
</trkpt>
<trkpt lat="30.593296051" lon="34.872543335">
<ele>514.281250</ele>
<time>2013-11-23T11:15:49Z</time>
<extensions>
<speed>0.0</speed>
<temp>0.00</temp>
<bpm>0</bpm>
<rpm>0.00</rpm>
</extensions>
</trkpt>
<trkpt lat="30.593296051" lon="34.872543335">
<ele>514.296875</ele>
<time>2013-11-23T11:15:54Z</time>
<extensions>
<speed>0.0</speed>
<temp>0.00</temp>
<bpm>0</bpm>
<rpm>0.00</rpm>
</extensions>
</trkpt>
<trkpt lat="30.593296051" lon="34.872543335">
<ele>514.328125</ele>
<time>2013-11-23T11:15:59Z</time>
<extensions>
<speed>0.0</speed>
<temp>0.00</temp>
<bpm>0</bpm>
<rpm>0.00</rpm>
</extensions>
</trkpt>
<trkpt lat="30.593296051" lon="34.872543335">
<ele>514.359375</ele>
<time>2013-11-23T11:16:04Z</time>
<extensions>
<speed>0.0</speed>
<temp>0.00</temp>
<bpm>0</bpm>
<rpm>0.00</rpm>
</extensions>
</trkpt>
<trkpt lat="30.593296051" lon="34.872543335">
<ele>514.390625</ele>
<time>2013-11-23T11:16:09Z</time>
<extensions>
<speed>0.0</speed>
<temp>0.00</temp>
<bpm>0</bpm>
<rpm>0.00</rpm>
</extensions>
</trkpt>
<trkpt lat="30.593296051" lon="34.872543335">
<ele>514.421875</ele>
<time>2013-11-23T11:16:14Z</time>
<extensions>
<speed>0.0</speed>
<temp>0.00</temp>
<bpm>0</bpm>
<rpm>0.00</rpm>
</extensions>
</trkpt>
<trkpt lat="30.593296051" lon="34.872543335">
<ele>514.453125</ele>
<time>2013-11-23T11:16:19Z</time>
<speed>0.010000</speed>
<extensions>
<speed>0.0</speed>
<temp>0.00</temp>
<bpm>0</bpm>
<rpm>0.00</rpm>
</extensions>
</trkpt>
<trkpt lat="30.593296051" lon="34.872543335">
<ele>514.468750</ele>
<time>2013-11-23T11:16:24Z</time>
<extensions>
<speed>0.0</speed>
<temp>0.00</temp>
<bpm>0</bpm>
<rpm>0.00</rpm>
</extensions>
</trkpt>
<trkpt lat="30.593296051" lon="34.872543335">
<ele>514.500000</ele>
<time>2013-11-23T11:16:29Z</time>
<extensions>
<speed>0.0</speed>
<temp>0.00</temp>
<bpm>0</bpm>
<rpm>0.00</rpm>
</extensions>
</trkpt>
<trkpt lat="30.593294144" lon="34.872543335">
<ele>514.500000</ele>
<time>2013-11-23T11:16:34Z</time>
<extensions>
<speed>0.0</speed>
<temp>0.00</temp>
<bpm>0</bpm>
<rpm>0.00</rpm>
</extensions>
</trkpt>
<trkpt lat="30.593296051" lon="34.872543335">
<ele>514.515625</ele>
<time>2013-11-23T11:16:39Z</time>
<extensions>
<speed>0.0</speed>
<temp>0.00</temp>
<bpm>0</bpm>
<rpm>0.00</rpm>
</extensions>
</trkpt>
<trkpt lat="30.593294144" lon="34.872543335">
<ele>514.531250</ele>
<time>2013-11-23T11:16:44Z</time>
<extensions>
<speed>0.0</speed>
<temp>0.00</temp>
<bpm>0</bpm>
<rpm>0.00</rpm>
</extensions>
</trkpt>
<trkpt lat="30.593296051" lon="34.872543335">
<ele>514.562500</ele>
<time>2013-11-23T11:16:49Z</time>
<extensions>
<speed>0.0</speed>
<temp>0.00</temp>
<bpm>0</bpm>
<rpm>0.00</rpm>
</extensions>
</trkpt>
<trkpt lat="30.593296051" lon="34.872543335">
<ele>514.578125</ele>
<time>2013-11-23T11:16:54Z</time>
<extensions>
<speed>0.0</speed>
<temp>0.00</temp>
<bpm>0</bpm>
<rpm>0.00</rpm>
</extensions>
</trkpt>
<trkpt lat="30.593296051" lon="34.872543335">
<ele>514.593750</ele>
<time>2013-11-23T11:16:59Z</time>
<extensions>
<speed>0.0</speed>
<temp>0.00</temp>
<bpm>0</bpm>
<rpm>0.00</rpm>
</extensions>
</trkpt>
<trkpt lat="30.593296051" lon="34.872543335">
<ele>514.625000</ele>
<time>2013-11-23T11:17:04Z</time>
<extensions>
<speed>0.0</speed>
<temp>0.00</temp>
<bpm>0</bpm>
<rpm>0.00</rpm>
</extensions>
</trkpt>
<trkpt lat="30.593296051" lon="34.872543335">
<ele>514.640625</ele>
<time>2013-11-23T11:17:09Z</time>
<extensions>
<speed>0.0</speed>
<temp>0.00</temp>
<bpm>0</bpm>
<rpm>0.00</rpm>
</extensions>
</trkpt>
<trkpt lat="30.593296051" lon="34.872543335">
<ele>514.656250</ele>
<time>2013-11-23T11:17:14Z</time>
<extensions>
<speed>0.0</speed>
<temp>0.00</temp>
<bpm>0</bpm>
<rpm>0.00</rpm>
</extensions>
</trkpt>
<trkpt lat="30.593296051" lon="34.872543335">
<ele>514.687500</ele>
<time>2013-11-23T11:17:19Z</time>
<extensions>
<speed>0.0</speed>
<temp>0.00</temp>
<bpm>0</bpm>
<rpm>0.00</rpm>
</extensions>
</trkpt>
<trkpt lat="30.593296051" lon="34.872543335">
<ele>514.687500</ele>
<time>2013-11-23T11:17:24Z</time>
<extensions>
<speed>0.0</speed>
<temp>0.00</temp>
<bpm>0</bpm>
<rpm>0.00</rpm>
</extensions>
</trkpt>
<trkpt lat="30.593296051" lon="34.872543335">
<ele>514.718750</ele>
<time>2013-11-23T11:17:29Z</time>
<extensions>
<speed>0.0</speed>
<temp>0.00</temp>
<bpm>0</bpm>
<rpm>0.00</rpm>
</extensions>
</trkpt>
<trkpt lat="30.593296051" lon="34.872543335">
<ele>514.734375</ele>
<time>2013-11-23T11:17:34Z</time>
<extensions>
<speed>0.0</speed>
<temp>0.00</temp>
<bpm>0</bpm>
<rpm>0.00</rpm>
</extensions>
</trkpt>
<trkpt lat="30.593296051" lon="34.872543335">
<ele>514.750000</ele>
<time>2013-11-23T11:17:39Z</time>
<extensions>
<speed>0.0</speed>
<temp>0.00</temp>
<bpm>0</bpm>
<rpm>0.00</rpm>
</extensions>
</trkpt>
<trkpt lat="30.593296051" lon="34.872543335">
<ele>514.765625</ele>
<time>2013-11-23T11:17:44Z</time>
<extensions>
<speed>0.0</speed>
<temp>0.00</temp>
<bpm>0</bpm>
<rpm>0.00</rpm>
</extensions>
</trkpt>
<trkpt lat="30.593296051" lon="34.872543335">
<ele>514.781250</ele>
<time>2013-11-23T11:17:49Z</time>
<extensions>
<speed>0.0</speed>
<temp>0.00</temp>
<bpm>0</bpm>
<rpm>0.00</rpm>
</extensions>
</trkpt>
<trkpt lat="30.593296051" lon="34.872543335">
<ele>514.781250</ele>
<time>2013-11-23T11:17:54Z</time>
<extensions>
<speed>0.0</speed>
<temp>0.00</temp>
<bpm>0</bpm>
<rpm>0.00</rpm>
</extensions>
</trkpt>
<trkpt lat="30.593296051" lon="34.872543335">
<ele>514.781250</ele>
<time>2013-11-23T11:17:59Z</time>
<extensions>
<speed>0.0</speed>
<temp>0.00</temp>
<bpm>0</bpm>
<rpm>0.00</rpm>
</extensions>
</trkpt>
<trkpt lat="30.593296051" lon="34.872543335">
<ele>514.781250</ele>
<time>2013-11-23T11:18:04Z</time>
<extensions>
<speed>0.0</speed>
<temp>0.00</temp>
<bpm>0</bpm>
<rpm>0.00</rpm>
</extensions>
</trkpt>
<trkpt lat="30.593296051" lon="34.872543335">
<ele>514.781250</ele>
<time>2013-11-23T11:18:09Z</time>
<extensions>
<speed>0.0</speed>
<temp>0.00</temp>
<bpm>0</bpm>
<rpm>0.00</rpm>
</extensions>
</trkpt>
<trkpt lat="30.593296051" lon="34.872543335">
<ele>514.781250</ele>
<time>2013-11-23T11:18:14Z</time>
<extensions>
<speed>0.0</speed>
<temp>0.00</temp>
<bpm>0</bpm>
<rpm>0.00</rpm>
</extensions>
</trkpt>
<trkpt lat="30.593296051" lon="34.872543335">
<ele>514.796875</ele>
<time>2013-11-23T11:18:19Z</time>
<extensions>
<speed>0.0</speed>
<temp>0.00</temp>
<bpm>0</bpm>
<rpm>0.00</rpm>
</extensions>
</trkpt>
<trkpt lat="30.593296051" lon="34.872543335">
<ele>514.796875</ele>
<time>2013-11-23T11:18:24Z</time>
<extensions>
<speed>0.0</speed>
<temp>0.00</temp>
<bpm>0</bpm>
<rpm>0.00</rpm>
</extensions>
</trkpt>
<trkpt lat="30.593296051" lon="34.872543335">
<ele>514.796875</ele>
<time>2013-11-23T11:18:29Z</time>
<extensions>
<speed>0.0</speed>
<temp>0.00</temp>
<bpm>0</bpm>
<rpm>0.00</rpm>
</extensions>
</trkpt>
<trkpt lat="30.593296051" lon="34.872543335">
<ele>514.796875</ele>
<time>2013-11-23T11:18:34Z</time>
<extensions>
<speed>0.0</speed>
<temp>0.00</temp>
<bpm>0</bpm>
<rpm>0.00</rpm>
</extensions>
</trkpt>
<trkpt lat="30.593296051" lon="34.872543335">
<ele>514.812500</ele>
<time>2013-11-23T11:18:39Z</time>
<extensions>
<speed>0.0</speed>
<temp>0.00</temp>
<bpm>0</bpm>
<rpm>0.00</rpm>
</extensions>
</trkpt>
<trkpt lat="30.593296051" lon="34.872543335">
<ele>514.812500</ele>
<time>2013-11-23T11:18:44Z</time>
<extensions>
<speed>0.0</speed>
<temp>0.00</temp>
<bpm>0</bpm>
<rpm>0.00</rpm>
</extensions>
</trkpt>
<trkpt lat="30.593296051" lon="34.872543335">
<ele>514.812500</ele>
<time>2013-11-23T11:18:49Z</time>
<extensions>
<speed>0.0</speed>
<temp>0.00</temp>
<bpm>0</bpm>
<rpm>0.00</rpm>
</extensions>
</trkpt>
<trkpt lat="30.593296051" lon="34.872543335">
<ele>514.828125</ele>
<time>2013-11-23T11:18:54Z</time>
<extensions>
<speed>0.0</speed>
<temp>0.00</temp>
<bpm>0</bpm>
<rpm>0.00</rpm>
</extensions>
</trkpt>
<trkpt lat="30.593296051" lon="34.872543335">
<ele>514.828125</ele>
<time>2013-11-23T11:18:59Z</time>
<extensions>
<speed>0.0</speed>
<temp>0.00</temp>
<bpm>0</bpm>
<rpm>0.00</rpm>
</extensions>
</trkpt>
<trkpt lat="30.593296051" lon="34.872543335">
<ele>514.843750</ele>
<time>2013-11-23T11:19:04Z</time>
<extensions>
<speed>0.0</speed>
<temp>0.00</temp>
<bpm>0</bpm>
<rpm>0.00</rpm>
</extensions>
</trkpt>
<trkpt lat="30.593296051" lon="34.872543335">
<ele>514.859375</ele>
<time>2013-11-23T11:19:09Z</time>
<extensions>
<speed>0.0</speed>
<temp>0.00</temp>
<bpm>0</bpm>
<rpm>0.00</rpm>
</extensions>
</trkpt>
<trkpt lat="30.593296051" lon="34.872543335">
<ele>514.859375</ele>
<time>2013-11-23T11:19:14Z</time>
<extensions>
<speed>0.0</speed>
<temp>0.00</temp>
<bpm>0</bpm>
<rpm>0.00</rpm>
</extensions>
</trkpt>
<trkpt lat="30.593296051" lon="34.872543335">
<ele>514.875000</ele>
<time>2013-11-23T11:19:19Z</time>
<extensions>
<speed>0.0</speed>
<temp>0.00</temp>
<bpm>0</bpm>
<rpm>0.00</rpm>
</extensions>
</trkpt>
<trkpt lat="30.593296051" lon="34.872543335">
<ele>514.875000</ele>
<time>2013-11-23T11:19:24Z</time>
<extensions>
<speed>0.0</speed>
<temp>0.00</temp>
<bpm>0</bpm>
<rpm>0.00</rpm>
</extensions>
</trkpt>
<trkpt lat="30.593296051" lon="34.872543335">
<ele>514.890625</ele>
<time>2013-11-23T11:19:29Z</time>
<extensions>
<speed>0.0</speed>
<temp>0.00</temp>
<bpm>0</bpm>
<rpm>0.00</rpm>
</extensions>
</trkpt>
<trkpt lat="30.593296051" lon="34.872543335">
<ele>514.906250</ele>
<time>2013-11-23T11:19:34Z</time>
<extensions>
<speed>0.0</speed>
<temp>0.00</temp>
<bpm>0</bpm>
<rpm>0.00</rpm>
</extensions>
</trkpt>
<trkpt lat="30.593296051" lon="34.872543335">
<ele>514.921875</ele>
<time>2013-11-23T11:19:39Z</time>
<extensions>
<speed>0.0</speed>
<temp>0.00</temp>
<bpm>0</bpm>
<rpm>0.00</rpm>
</extensions>
</trkpt>
<trkpt lat="30.593296051" lon="34.872543335">
<ele>514.953125</ele>
<time>2013-11-23T11:19:44Z</time>
<extensions>
<speed>0.0</speed>
<temp>0.00</temp>
<bpm>0</bpm>
<rpm>0.00</rpm>
</extensions>
</trkpt>
<trkpt lat="30.593294144" lon="34.872543335">
<ele>514.968750</ele>
<time>2013-11-23T11:19:49Z</time>
<extensions>
<speed>0.0</speed>
<temp>0.00</temp>
<bpm>0</bpm>
<rpm>0.00</rpm>
</extensions>
</trkpt>
<trkpt lat="30.593294144" lon="34.872543335">
<ele>514.984375</ele>
<time>2013-11-23T11:19:54Z</time>
<extensions>
<speed>0.0</speed>
<temp>0.00</temp>
<bpm>0</bpm>
<rpm>0.00</rpm>
</extensions>
</trkpt>
<trkpt lat="30.593294144" lon="34.872543335">
<ele>515.015625</ele>
<time>2013-11-23T11:19:59Z</time>
<extensions>
<speed>0.0</speed>
<temp>0.00</temp>
<bpm>0</bpm>
<rpm>0.00</rpm>
</extensions>
</trkpt>
<trkpt lat="30.593294144" lon="34.872543335">
<ele>515.031250</ele>
<time>2013-11-23T11:20:04Z</time>
<extensions>
<speed>0.0</speed>
<temp>0.00</temp>
<bpm>0</bpm>
<rpm>0.00</rpm>
</extensions>
</trkpt>
<trkpt lat="30.593294144" lon="34.872543335">
<ele>515.046875</ele>
<time>2013-11-23T11:20:09Z</time>
<extensions>
<speed>0.0</speed>
<temp>0.00</temp>
<bpm>0</bpm>
<rpm>0.00</rpm>
</extensions>
</trkpt>
<trkpt lat="30.593294144" lon="34.872543335">
<ele>515.078125</ele>
<time>2013-11-23T11:20:14Z</time>
<extensions>
<speed>0.0</speed>
<temp>0.00</temp>
<bpm>0</bpm>
<rpm>0.00</rpm>
</extensions>
</trkpt>
<trkpt lat="30.593294144" lon="34.872539520">
<ele>515.093750</ele>
<time>2013-11-23T11:20:19Z</time>
<extensions>
<speed>0.0</speed>
<temp>0.00</temp>
<bpm>0</bpm>
<rpm>0.00</rpm>
</extensions>
</trkpt>
<trkpt lat="30.593294144" lon="34.872539520">
<ele>515.125000</ele>
<time>2013-11-23T11:20:24Z</time>
<extensions>
<speed>0.0</speed>
<temp>0.00</temp>
<bpm>0</bpm>
<rpm>0.00</rpm>
</extensions>
</trkpt>
<trkpt lat="30.593294144" lon="34.872539520">
<ele>515.140625</ele>
<time>2013-11-23T11:20:29Z</time>
<extensions>
<speed>0.0</speed>
<temp>0.00</temp>
<bpm>0</bpm>
<rpm>0.00</rpm>
</extensions>
</trkpt>
<trkpt lat="30.593294144" lon="34.872539520">
<ele>515.156250</ele>
<time>2013-11-23T11:20:34Z</time>
<extensions>
<speed>0.0</speed>
<temp>0.00</temp>
<bpm>0</bpm>
<rpm>0.00</rpm>
</extensions>
</trkpt>
<trkpt lat="30.593294144" lon="34.872539520">
<ele>515.171875</ele>
<time>2013-11-23T11:20:39Z</time>
<extensions>
<speed>0.0</speed>
<temp>0.00</temp>
<bpm>0</bpm>
<rpm>0.00</rpm>
</extensions>
</trkpt>
<trkpt lat="30.593294144" lon="34.872539520">
<ele>515.171875</ele>
<time>2013-11-23T11:20:44Z</time>
<extensions>
<speed>0.0</speed>
<temp>0.00</temp>
<bpm>0</bpm>
<rpm>0.00</rpm>
</extensions>
</trkpt>
<trkpt lat="30.593294144" lon="34.872539520">
<ele>515.187500</ele>
<time>2013-11-23T11:20:49Z</time>
<extensions>
<speed>0.0</speed>
<temp>0.00</temp>
<bpm>0</bpm>
<rpm>0.00</rpm>
</extensions>
</trkpt>
<trkpt lat="30.593294144" lon="34.872539520">
<ele>515.203125</ele>
<time>2013-11-23T11:20:54Z</time>
<extensions>
<speed>0.0</speed>
<temp>0.00</temp>
<bpm>0</bpm>
<rpm>0.00</rpm>
</extensions>
</trkpt>
<trkpt lat="30.593294144" lon="34.872539520">
<ele>515.187500</ele>
<time>2013-11-23T11:20:59Z</time>
<extensions>
<speed>0.0</speed>
<temp>0.00</temp>
<bpm>0</bpm>
<rpm>0.00</rpm>
</extensions>
</trkpt>
<trkpt lat="30.593294144" lon="34.872539520">
<ele>515.203125</ele>
<time>2013-11-23T11:21:04Z</time>
<extensions>
<speed>0.0</speed>
<temp>0.00</temp>
<bpm>0</bpm>
<rpm>0.00</rpm>
</extensions>
</trkpt>
<trkpt lat="30.593294144" lon="34.872539520">
<ele>515.203125</ele>
<time>2013-11-23T11:21:09Z</time>
<extensions>
<speed>0.0</speed>
<temp>0.00</temp>
<bpm>0</bpm>
<rpm>0.00</rpm>
</extensions>
</trkpt>
<trkpt lat="30.593294144" lon="34.872539520">
<ele>515.203125</ele>
<time>2013-11-23T11:21:14Z</time>
<extensions>
<speed>0.0</speed>
<temp>0.00</temp>
<bpm>0</bpm>
<rpm>0.00</rpm>
</extensions>
</trkpt>
<trkpt lat="30.593294144" lon="34.872539520">
<ele>515.218750</ele>
<time>2013-11-23T11:21:19Z</time>
<extensions>
<speed>0.0</speed>
<temp>0.00</temp>
<bpm>0</bpm>
<rpm>0.00</rpm>
</extensions>
</trkpt>
<trkpt lat="30.593294144" lon="34.872539520">
<ele>515.218750</ele>
<time>2013-11-23T11:21:24Z</time>
<extensions>
<speed>0.0</speed>
<temp>0.00</temp>
<bpm>0</bpm>
<rpm>0.00</rpm>
</extensions>
</trkpt>
<trkpt lat="30.593294144" lon="34.872539520">
<ele>515.234375</ele>
<time>2013-11-23T11:21:29Z</time>
<extensions>
<speed>0.0</speed>
<temp>0.00</temp>
<bpm>0</bpm>
<rpm>0.00</rpm>
</extensions>
</trkpt>
<trkpt lat="30.593294144" lon="34.872539520">
<ele>515.250000</ele>
<time>2013-11-23T11:21:34Z</time>
<extensions>
<speed>0.0</speed>
<temp>0.00</temp>
<bpm>0</bpm>
<rpm>0.00</rpm>
</extensions>
</trkpt>
<trkpt lat="30.593294144" lon="34.872539520">
<ele>515.250000</ele>
<time>2013-11-23T11:21:39Z</time>
<extensions>
<speed>0.0</speed>
<temp>0.00</temp>
<bpm>0</bpm>
<rpm>0.00</rpm>
</extensions>
</trkpt>
<trkpt lat="30.593294144" lon="34.872539520">
<ele>515.250000</ele>
<time>2013-11-23T11:21:44Z</time>
<extensions>
<speed>0.0</speed>
<temp>0.00</temp>
<bpm>0</bpm>
<rpm>0.00</rpm>
</extensions>
</trkpt>
<trkpt lat="30.593294144" lon="34.872539520">
<ele>515.250000</ele>
<time>2013-11-23T11:21:49Z</time>
<extensions>
<speed>0.0</speed>
<temp>0.00</temp>
<bpm>0</bpm>
<rpm>0.00</rpm>
</extensions>
</trkpt>
<trkpt lat="30.593294144" lon="34.872539520">
<ele>515.234375</ele>
<time>2013-11-23T11:21:54Z</time>
<extensions>
<speed>0.0</speed>
<temp>0.00</temp>
<bpm>0</bpm>
<rpm>0.00</rpm>
</extensions>
</trkpt>
<trkpt lat="30.593294144" lon="34.872539520">
<ele>515.250000</ele>
<time>2013-11-23T11:21:59Z</time>
<speed>0.210000</speed>
<extensions>
<speed>0.2</speed>
<temp>0.00</temp>
<bpm>0</bpm>
<rpm>0.00</rpm>
</extensions>
</trkpt>
<trkpt lat="30.593292236" lon="34.872554779">
<ele>514.281250</ele>
<time>2013-11-23T11:22:04Z</time>
<speed>0.020000</speed>
<extensions>
<speed>0.0</speed>
<temp>0.00</temp>
<bpm>0</bpm>
<rpm>0.00</rpm>
</extensions>
</trkpt>
<trkpt lat="30.593330383" lon="34.872562408">
<ele>514.031250</ele>
<time>2013-11-23T11:22:09Z</time>
<speed>1.860000</speed>
<extensions>
<speed>1.9</speed>
<temp>0.00</temp>
<bpm>0</bpm>
<rpm>0.00</rpm>
</extensions>
</trkpt>
<trkpt lat="30.593406677" lon="34.872509003">
<ele>514.484375</ele>
<time>2013-11-23T11:22:14Z</time>
<speed>2.460000</speed>
<extensions>
<speed>2.5</speed>
<temp>0.00</temp>
<bpm>0</bpm>
<rpm>0.00</rpm>
</extensions>
</trkpt>
<trkpt lat="30.593486786" lon="34.872417450">
<ele>514.828125</ele>
<time>2013-11-23T11:22:19Z</time>
<speed>2.150000</speed>
<extensions>
<speed>2.1</speed>
<temp>0.00</temp>
<bpm>0</bpm>
<rpm>0.00</rpm>
</extensions>
</trkpt>
<trkpt lat="30.593563080" lon="34.872364044">
<ele>515.250000</ele>
<time>2013-11-23T11:22:24Z</time>
<speed>2.470000</speed>
<extensions>
<speed>2.5</speed>
<temp>0.00</temp>
<bpm>0</bpm>
<rpm>0.00</rpm>
</extensions>
</trkpt>
<trkpt lat="30.593654633" lon="34.872287750">
<ele>515.031250</ele>
<time>2013-11-23T11:22:29Z</time>
<speed>2.620000</speed>
<extensions>
<speed>2.6</speed>
<temp>0.00</temp>
<bpm>0</bpm>
<rpm>0.00</rpm>
</extensions>
</trkpt>
<trkpt lat="30.593788147" lon="34.872180939">
<ele>514.375000</ele>
<time>2013-11-23T11:22:34Z</time>
<speed>3.900000</speed>
<extensions>
<speed>3.9</speed>
<temp>0.00</temp>
<bpm>0</bpm>
<rpm>0.00</rpm>
</extensions>
</trkpt>
<trkpt lat="30.593898773" lon="34.872035980">
<ele>513.812500</ele>
<time>2013-11-23T11:22:39Z</time>
<speed>3.440000</speed>
<extensions>
<speed>3.4</speed>
<temp>0.00</temp>
<bpm>0</bpm>
<rpm>0.00</rpm>
</extensions>
</trkpt>
<trkpt lat="30.593975067" lon="34.871879578">
<ele>514.453125</ele>
<time>2013-11-23T11:22:44Z</time>
<speed>3.270000</speed>
<extensions>
<speed>3.3</speed>
<temp>0.00</temp>
<bpm>0</bpm>
<rpm>0.00</rpm>
</extensions>
</trkpt>
<trkpt lat="30.594024658" lon="34.871730804">
<ele>515.343750</ele>
<time>2013-11-23T11:22:49Z</time>
<speed>3.070000</speed>
<extensions>
<speed>3.1</speed>
<temp>0.00</temp>
<bpm>0</bpm>
<rpm>0.00</rpm>
</extensions>
</trkpt>
<trkpt lat="30.594083786" lon="34.871574402">
<ele>515.062500</ele>
<time>2013-11-23T11:22:54Z</time>
<speed>2.740000</speed>
<extensions>
<speed>2.7</speed>
<temp>0.00</temp>
<bpm>0</bpm>
<rpm>0.00</rpm>
</extensions>
</trkpt>
<trkpt lat="30.594169617" lon="34.871471405">
<ele>515.703125</ele>
<time>2013-11-23T11:22:59Z</time>
<speed>2.950000</speed>
<extensions>
<speed>2.9</speed>
<temp>0.00</temp>
<bpm>0</bpm>
<rpm>0.00</rpm>
</extensions>
</trkpt>
<trkpt lat="30.594251633" lon="34.871391296">
<ele>516.093750</ele>
<time>2013-11-23T11:23:04Z</time>
<speed>1.680000</speed>
<extensions>
<speed>1.7</speed>
<temp>0.00</temp>
<bpm>0</bpm>
<rpm>0.00</rpm>
</extensions>
</trkpt>
<trkpt lat="30.594318390" lon="34.871337891">
<ele>516.125000</ele>
<time>2013-11-23T11:23:09Z</time>
<speed>2.150000</speed>
<extensions>
<speed>2.1</speed>
<temp>0.00</temp>
<bpm>0</bpm>
<rpm>0.00</rpm>
</extensions>
</trkpt>
<trkpt lat="30.594385147" lon="34.871261597">
<ele>515.609375</ele>
<time>2013-11-23T11:23:14Z</time>
<speed>1.980000</speed>
<extensions>
<speed>2.0</speed>
<temp>0.00</temp>
<bpm>0</bpm>
<rpm>0.00</rpm>
</extensions>
</trkpt>
<trkpt lat="30.594444275" lon="34.871181488">
<ele>516.468750</ele>
<time>2013-11-23T11:23:19Z</time>
<speed>2.430000</speed>
<extensions>
<speed>2.4</speed>
<temp>0.00</temp>
<bpm>0</bpm>
<rpm>0.00</rpm>
</extensions>
</trkpt>
<trkpt lat="30.594512939" lon="34.871074677">
<ele>516.968750</ele>
<time>2013-11-23T11:23:24Z</time>
<speed>2.530000</speed>
<extensions>
<speed>2.5</speed>
<temp>0.00</temp>
<bpm>0</bpm>
<rpm>0.00</rpm>
</extensions>
</trkpt>
<trkpt lat="30.594583511" lon="34.870967865">
<ele>516.953125</ele>
<time>2013-11-23T11:23:29Z</time>
<speed>2.540000</speed>
<extensions>
<speed>2.5</speed>
<temp>0.00</temp>
<bpm>0</bpm>
<rpm>0.00</rpm>
</extensions>
</trkpt>
<trkpt lat="30.594652176" lon="34.870868683">
<ele>517.562500</ele>
<time>2013-11-23T11:23:34Z</time>
<speed>2.520000</speed>
<extensions>
<speed>2.5</speed>
<temp>0.00</temp>
<bpm>0</bpm>
<rpm>0.00</rpm>
</extensions>
</trkpt>
<trkpt lat="30.594747543" lon="34.870758057">
<ele>517.281250</ele>
<time>2013-11-23T11:23:39Z</time>
<speed>3.090000</speed>
<extensions>
<speed>3.1</speed>
<temp>0.00</temp>
<bpm>0</bpm>
<rpm>0.00</rpm>
</extensions>
</trkpt>
<trkpt lat="30.594858170" lon="34.870647430">
<ele>517.593750</ele>
<time>2013-11-23T11:23:44Z</time>
<speed>3.280000</speed>
<extensions>
<speed>3.3</speed>
<temp>0.00</temp>
<bpm>0</bpm>
<rpm>0.00</rpm>
</extensions>
</trkpt>
<trkpt lat="30.594959259" lon="34.870555878">
<ele>518.312500</ele>
<time>2013-11-23T11:23:49Z</time>
<speed>2.750000</speed>
<extensions>
<speed>2.7</speed>
<temp>0.00</temp>
<bpm>0</bpm>
<rpm>0.00</rpm>
</extensions>
</trkpt>
<trkpt lat="30.595090866" lon="34.870433807">
<ele>518.359375</ele>
<time>2013-11-23T11:23:54Z</time>
<speed>3.920000</speed>
<extensions>
<speed>3.9</speed>
<temp>0.00</temp>
<bpm>0</bpm>
<rpm>0.00</rpm>
</extensions>
</trkpt>
<trkpt lat="30.595218658" lon="34.870307922">
<ele>518.421875</ele>
<time>2013-11-23T11:23:59Z</time>
<speed>3.830000</speed>
<extensions>
<speed>3.8</speed>
<temp>0.00</temp>
<bpm>0</bpm>
<rpm>0.00</rpm>
</extensions>
</trkpt>
<trkpt lat="30.595344543" lon="34.870182037">
<ele>519.187500</ele>
<time>2013-11-23T11:24:04Z</time>
<speed>3.820000</speed>
<extensions>
<speed>3.8</speed>
<temp>0.00</temp>
<bpm>0</bpm>
<rpm>0.00</rpm>
</extensions>
</trkpt>
<trkpt lat="30.595476151" lon="34.870059967">
<ele>520.140625</ele>
<time>2013-11-23T11:24:09Z</time>
<speed>3.760000</speed>
<extensions>
<speed>3.8</speed>
<temp>0.00</temp>
<bpm>0</bpm>
<rpm>0.00</rpm>
</extensions>
</trkpt>
<trkpt lat="30.595615387" lon="34.869949341">
<ele>521.000000</ele>
<time>2013-11-23T11:24:14Z</time>
<speed>3.760000</speed>
<extensions>
<speed>3.8</speed>
<temp>0.00</temp>
<bpm>0</bpm>
<rpm>0.00</rpm>
</extensions>
</trkpt>
<trkpt lat="30.595767975" lon="34.869834900">
<ele>521.484375</ele>
<time>2013-11-23T11:24:19Z</time>
<speed>3.970000</speed>
<extensions>
<speed>4.0</speed>
<temp>0.00</temp>
<bpm>0</bpm>
<rpm>0.00</rpm>
</extensions>
</trkpt>
<trkpt lat="30.595911026" lon="34.869712830">
<ele>522.250000</ele>
<time>2013-11-23T11:24:24Z</time>
<speed>3.860000</speed>
<extensions>
<speed>3.9</speed>
<temp>0.00</temp>
<bpm>0</bpm>
<rpm>0.00</rpm>
</extensions>
</trkpt>
<trkpt lat="30.596010208" lon="34.869613647">
<ele>522.484375</ele>
<time>2013-11-23T11:24:29Z</time>
<speed>2.760000</speed>
<extensions>
<speed>2.8</speed>
<temp>0.00</temp>
<bpm>0</bpm>
<rpm>0.00</rpm>
</extensions>
</trkpt>
<trkpt lat="30.596122742" lon="34.869499207">
<ele>522.781250</ele>
<time>2013-11-23T11:24:34Z</time>
<speed>3.260000</speed>
<extensions>
<speed>3.3</speed>
<temp>0.00</temp>
<bpm>0</bpm>
<rpm>0.00</rpm>
</extensions>
</trkpt>
<trkpt lat="30.596221924" lon="34.869380951">
<ele>523.593750</ele>
<time>2013-11-23T11:24:39Z</time>
<speed>3.150000</speed>
<extensions>
<speed>3.2</speed>
<temp>0.00</temp>
<bpm>0</bpm>
<rpm>0.00</rpm>
</extensions>
</trkpt>
<trkpt lat="30.596321106" lon="34.869251251">
<ele>524.046875</ele>
<time>2013-11-23T11:24:44Z</time>
<speed>3.320000</speed>
<extensions>
<speed>3.3</speed>
<temp>0.00</temp>
<bpm>0</bpm>
<rpm>0.00</rpm>
</extensions>
</trkpt>
<trkpt lat="30.596420288" lon="34.869113922">
<ele>524.484375</ele>
<time>2013-11-23T11:24:49Z</time>
<speed>3.310000</speed>
<extensions>
<speed>3.3</speed>
<temp>0.00</temp>
<bpm>0</bpm>
<rpm>0.00</rpm>
</extensions>
</trkpt>
<trkpt lat="30.596504211" lon="34.868995667">
<ele>524.468750</ele>
<time>2013-11-23T11:24:54Z</time>
<speed>2.420000</speed>
<extensions>
<speed>2.4</speed>
<temp>0.00</temp>
<bpm>0</bpm>
<rpm>0.00</rpm>
</extensions>
</trkpt>
<trkpt lat="30.596570969" lon="34.868885040">
<ele>524.015625</ele>
<time>2013-11-23T11:24:59Z</time>
<speed>3.390000</speed>
<extensions>
<speed>3.4</speed>
<temp>0.00</temp>
<bpm>0</bpm>
<rpm>0.00</rpm>
</extensions>
</trkpt>
<trkpt lat="30.596670151" lon="34.868740082">
<ele>523.765625</ele>
<time>2013-11-23T11:25:04Z</time>
<speed>3.490000</speed>
<extensions>
<speed>3.5</speed>
<temp>0.00</temp>
<bpm>0</bpm>
<rpm>0.00</rpm>
</extensions>
</trkpt>
<trkpt lat="30.596769333" lon="34.868618011">
<ele>523.046875</ele>
<time>2013-11-23T11:25:09Z</time>
<speed>3.400000</speed>
<extensions>
<speed>3.4</speed>
<temp>0.00</temp>
<bpm>0</bpm>
<rpm>0.00</rpm>
</extensions>
</trkpt>
<trkpt lat="30.596870422" lon="34.868488312">
<ele>522.562500</ele>
<time>2013-11-23T11:25:14Z</time>
<speed>3.440000</speed>
<extensions>
<speed>3.4</speed>
<temp>0.00</temp>
<bpm>0</bpm>
<rpm>0.00</rpm>
</extensions>
</trkpt>
<trkpt lat="30.596984863" lon="34.868373871">
<ele>522.406250</ele>
<time>2013-11-23T11:25:19Z</time>
<speed>3.440000</speed>
<extensions>
<speed>3.4</speed>
<temp>0.00</temp>
<bpm>0</bpm>
<rpm>0.00</rpm>
</extensions>
</trkpt>
<trkpt lat="30.597110748" lon="34.868217468">
<ele>522.031250</ele>
<time>2013-11-23T11:25:24Z</time>
<speed>4.410000</speed>
<extensions>
<speed>4.4</speed>
<temp>0.00</temp>
<bpm>0</bpm>
<rpm>0.00</rpm>
</extensions>
</trkpt>
<trkpt lat="30.597242355" lon="34.868061066">
<ele>521.453125</ele>
<time>2013-11-23T11:25:29Z</time>
<speed>3.910000</speed>
<extensions>
<speed>3.9</speed>
<temp>0.00</temp>
<bpm>0</bpm>
<rpm>0.00</rpm>
</extensions>
</trkpt>
<trkpt lat="30.597381592" lon="34.867908478">
<ele>520.640625</ele>
<time>2013-11-23T11:25:34Z</time>
<speed>4.350000</speed>
<extensions>
<speed>4.3</speed>
<temp>0.00</temp>
<bpm>0</bpm>
<rpm>0.00</rpm>
</extensions>
</trkpt>
<trkpt lat="30.597515106" lon="34.867752075">
<ele>520.140625</ele>
<time>2013-11-23T11:25:39Z</time>
<speed>4.450000</speed>
<extensions>
<speed>4.5</speed>
<temp>0.00</temp>
<bpm>0</bpm>
<rpm>0.00</rpm>
</extensions>
</trkpt>
<trkpt lat="30.597660065" lon="34.867588043">
<ele>519.453125</ele>
<time>2013-11-23T11:25:44Z</time>
<speed>4.460000</speed>
<extensions>
<speed>4.5</speed>
<temp>0.00</temp>
<bpm>0</bpm>
<rpm>0.00</rpm>
</extensions>
</trkpt>
<trkpt lat="30.597827911" lon="34.867485046">
<ele>518.953125</ele>
<time>2013-11-23T11:25:49Z</time>
<speed>4.370000</speed>
<extensions>
<speed>4.4</speed>
<temp>0.00</temp>
<bpm>0</bpm>
<rpm>0.00</rpm>
</extensions>
</trkpt>
<trkpt lat="30.598035812" lon="34.867431641">
<ele>518.046875</ele>
<time>2013-11-23T11:25:54Z</time>
<speed>4.860000</speed>
<extensions>
<speed>4.9</speed>
<temp>0.00</temp>
<bpm>0</bpm>
<rpm>0.00</rpm>
</extensions>
</trkpt>
<trkpt lat="30.598255157" lon="34.867404938">
<ele>517.484375</ele>
<time>2013-11-23T11:25:59Z</time>
<speed>4.630000</speed>
<extensions>
<speed>4.6</speed>
<temp>0.00</temp>
<bpm>0</bpm>
<rpm>0.00</rpm>
</extensions>
</trkpt>
<trkpt lat="30.598461151" lon="34.867374420">
<ele>516.531250</ele>
<time>2013-11-23T11:26:04Z</time>
<speed>4.800000</speed>
<extensions>
<speed>4.8</speed>
<temp>0.00</temp>
<bpm>0</bpm>
<rpm>0.00</rpm>
</extensions>
</trkpt>
<trkpt lat="30.598571777" lon="34.867183685">
<ele>515.859375</ele>
<time>2013-11-23T11:26:09Z</time>
<speed>4.550000</speed>
<extensions>
<speed>4.5</speed>
<temp>0.00</temp>
<bpm>0</bpm>
<rpm>0.00</rpm>
</extensions>
</trkpt>
<trkpt lat="30.598510742" lon="34.866939545">
<ele>515.796875</ele>
<time>2013-11-23T11:26:14Z</time>
<speed>4.870000</speed>
<extensions>
<speed>4.9</speed>
<temp>0.00</temp>
<bpm>0</bpm>
<rpm>0.00</rpm>
</extensions>
</trkpt>
<trkpt lat="30.598487854" lon="34.866729736">
<ele>516.640625</ele>
<time>2013-11-23T11:26:19Z</time>
<speed>2.780000</speed>
<extensions>
<speed>2.8</speed>
<temp>0.00</temp>
<bpm>0</bpm>
<rpm>0.00</rpm>
</extensions>
</trkpt>
<trkpt lat="30.598497391" lon="34.866603851">
<ele>517.328125</ele>
<time>2013-11-23T11:26:24Z</time>
<speed>2.320000</speed>
<extensions>
<speed>2.3</speed>
<temp>0.00</temp>
<bpm>0</bpm>
<rpm>0.00</rpm>
</extensions>
</trkpt>
<trkpt lat="30.598518372" lon="34.866466522">
<ele>517.875000</ele>
<time>2013-11-23T11:26:29Z</time>
<speed>3.020000</speed>
<extensions>
<speed>3.0</speed>
<temp>0.00</temp>
<bpm>0</bpm>
<rpm>0.00</rpm>
</extensions>
</trkpt>
<trkpt lat="30.598527908" lon="34.866313934">
<ele>518.593750</ele>
<time>2013-11-23T11:26:34Z</time>
<speed>3.380000</speed>
<extensions>
<speed>3.4</speed>
<temp>0.00</temp>
<bpm>0</bpm>
<rpm>0.00</rpm>
</extensions>
</trkpt>
<trkpt lat="30.598558426" lon="34.866157532">
<ele>518.921875</ele>
<time>2013-11-23T11:26:39Z</time>
<speed>3.330000</speed>
<extensions>
<speed>3.3</speed>
<temp>0.00</temp>
<bpm>0</bpm>
<rpm>0.00</rpm>
</extensions>
</trkpt>
<trkpt lat="30.598627090" lon="34.865989685">
<ele>519.031250</ele>
<time>2013-11-23T11:26:44Z</time>
<speed>3.670000</speed>
<extensions>
<speed>3.7</speed>
<temp>0.00</temp>
<bpm>0</bpm>
<rpm>0.00</rpm>
</extensions>
</trkpt>
<trkpt lat="30.598709106" lon="34.865840912">
<ele>519.437500</ele>
<time>2013-11-23T11:26:49Z</time>
<speed>3.340000</speed>
<extensions>
<speed>3.3</speed>
<temp>0.00</temp>
<bpm>0</bpm>
<rpm>0.00</rpm>
</extensions>
</trkpt>
<trkpt lat="30.598783493" lon="34.865734100">
<ele>519.656250</ele>
<time>2013-11-23T11:26:54Z</time>
<speed>1.660000</speed>
<extensions>
<speed>1.7</speed>
<temp>0.00</temp>
<bpm>0</bpm>
<rpm>0.00</rpm>
</extensions>
</trkpt>
<trkpt lat="30.598825455" lon="34.865665436">
<ele>519.796875</ele>
<time>2013-11-23T11:26:59Z</time>
<speed>2.160000</speed>
<extensions>
<speed>2.2</speed>
<temp>0.00</temp>
<bpm>0</bpm>
<rpm>0.00</rpm>
</extensions>
</trkpt>
<trkpt lat="30.598880768" lon="34.865562439">
<ele>519.750000</ele>
<time>2013-11-23T11:27:04Z</time>
<speed>2.410000</speed>
<extensions>
<speed>2.4</speed>
<temp>0.00</temp>
<bpm>0</bpm>
<rpm>0.00</rpm>
</extensions>
</trkpt>
<trkpt lat="30.598928452" lon="34.865455627">
<ele>519.906250</ele>
<time>2013-11-23T11:27:09Z</time>
<speed>2.130000</speed>
<extensions>
<speed>2.1</speed>
<temp>0.00</temp>
<bpm>0</bpm>
<rpm>0.00</rpm>
</extensions>
</trkpt>
<trkpt lat="30.598968506" lon="34.865364075">
<ele>520.625000</ele>
<time>2013-11-23T11:27:14Z</time>
<speed>1.760000</speed>
<extensions>
<speed>1.8</speed>
<temp>0.00</temp>
<bpm>0</bpm>
<rpm>0.00</rpm>
</extensions>
</trkpt>
<trkpt lat="30.599000931" lon="34.865280151">
<ele>521.390625</ele>
<time>2013-11-23T11:27:19Z</time>
<speed>1.490000</speed>
<extensions>
<speed>1.5</speed>
<temp>0.00</temp>
<bpm>0</bpm>
<rpm>0.00</rpm>
</extensions>
</trkpt>
<trkpt lat="30.599040985" lon="34.865219116">
<ele>522.203125</ele>
<time>2013-11-23T11:27:24Z</time>
<speed>1.570000</speed>
<extensions>
<speed>1.6</speed>
<temp>0.00</temp>
<bpm>0</bpm>
<rpm>0.00</rpm>
</extensions>
</trkpt>
<trkpt lat="30.599048615" lon="34.865215302">
<ele>522.437500</ele>
<time>2013-11-23T11:27:29Z</time>
<speed>0.010000</speed>
<extensions>
<speed>0.0</speed>
<temp>0.00</temp>
<bpm>0</bpm>
<rpm>0.00</rpm>
</extensions>
</trkpt>
<trkpt lat="30.599048615" lon="34.865215302">
<ele>522.421875</ele>
<time>2013-11-23T11:27:34Z</time>
<extensions>
<speed>0.0</speed>
<temp>0.00</temp>
<bpm>0</bpm>
<rpm>0.00</rpm>
</extensions>
</trkpt>
<trkpt lat="30.599058151" lon="34.865207672">
<ele>522.468750</ele>
<time>2013-11-23T11:27:39Z</time>
<speed>1.250000</speed>
<extensions>
<speed>1.3</speed>
<temp>0.00</temp>
<bpm>0</bpm>
<rpm>0.00</rpm>
</extensions>
</trkpt>
<trkpt lat="30.599103928" lon="34.865238190">
<ele>523.140625</ele>
<time>2013-11-23T11:27:44Z</time>
<speed>1.910000</speed>
<extensions>
<speed>1.9</speed>
<temp>0.00</temp>
<bpm>0</bpm>
<rpm>0.00</rpm>
</extensions>
</trkpt>
<trkpt lat="30.599187851" lon="34.865280151">
<ele>523.468750</ele>
<time>2013-11-23T11:27:49Z</time>
<speed>2.170000</speed>
<extensions>
<speed>2.2</speed>
<temp>0.00</temp>
<bpm>0</bpm>
<rpm>0.00</rpm>
</extensions>
</trkpt>
<trkpt lat="30.599309921" lon="34.865280151">
<ele>523.500000</ele>
<time>2013-11-23T11:27:54Z</time>
<speed>2.920000</speed>
<extensions>
<speed>2.9</speed>
<temp>0.00</temp>
<bpm>0</bpm>
<rpm>0.00</rpm>
</extensions>
</trkpt>
<trkpt lat="30.599441528" lon="34.865226746">
<ele>522.843750</ele>
<time>2013-11-23T11:27:59Z</time>
<speed>3.570000</speed>
<extensions>
<speed>3.6</speed>
<temp>0.00</temp>
<bpm>0</bpm>
<rpm>0.00</rpm>
</extensions>
</trkpt>
<trkpt lat="30.599622726" lon="34.865051270">
<ele>519.609375</ele>
<time>2013-11-23T11:28:04Z</time>
<speed>6.260000</speed>
<extensions>
<speed>6.3</speed>
<temp>0.00</temp>
<bpm>0</bpm>
<rpm>0.00</rpm>
</extensions>
</trkpt>
<trkpt lat="30.599761963" lon="34.864818573">
<ele>520.406250</ele>
<time>2013-11-23T11:28:09Z</time>
<speed>2.950000</speed>
<extensions>
<speed>2.9</speed>
<temp>0.00</temp>
<bpm>0</bpm>
<rpm>0.00</rpm>
</extensions>
</trkpt>
<trkpt lat="30.599838257" lon="34.864746094">
<ele>521.234375</ele>
<time>2013-11-23T11:28:14Z</time>
<speed>1.590000</speed>
<extensions>
<speed>1.6</speed>
<temp>0.00</temp>
<bpm>0</bpm>
<rpm>0.00</rpm>
</extensions>
</trkpt>
<trkpt lat="30.599905014" lon="34.864669800">
<ele>520.828125</ele>
<time>2013-11-23T11:28:19Z</time>
<speed>2.360000</speed>
<extensions>
<speed>2.4</speed>
<temp>0.00</temp>
<bpm>0</bpm>
<rpm>0.00</rpm>
</extensions>
</trkpt>
<trkpt lat="30.599935532" lon="34.864513397">
<ele>519.046875</ele>
<time>2013-11-23T11:28:24Z</time>
<speed>4.620000</speed>
<extensions>
<speed>4.6</speed>
<temp>0.00</temp>
<bpm>0</bpm>
<rpm>0.00</rpm>
</extensions>
</trkpt>
<trkpt lat="30.599969864" lon="34.864292145">
<ele>516.593750</ele>
<time>2013-11-23T11:28:29Z</time>
<speed>3.870000</speed>
<extensions>
<speed>3.9</speed>
<temp>0.00</temp>
<bpm>0</bpm>
<rpm>0.00</rpm>
</extensions>
</trkpt>
<trkpt lat="30.600118637" lon="34.864189148">
<ele>516.093750</ele>
<time>2013-11-23T11:28:34Z</time>
<speed>2.800000</speed>
<extensions>
<speed>2.8</speed>
<temp>0.00</temp>
<bpm>0</bpm>
<rpm>0.00</rpm>
</extensions>
</trkpt>
<trkpt lat="30.600198746" lon="34.864097595">
<ele>514.937500</ele>
<time>2013-11-23T11:28:39Z</time>
<speed>2.490000</speed>
<extensions>
<speed>2.5</speed>
<temp>0.00</temp>
<bpm>0</bpm>
<rpm>0.00</rpm>
</extensions>
</trkpt>
<trkpt lat="30.600255966" lon="34.864017487">
<ele>513.375000</ele>
<time>2013-11-23T11:28:44Z</time>
<speed>2.030000</speed>
<extensions>
<speed>2.0</speed>
<temp>0.00</temp>
<bpm>0</bpm>
<rpm>0.00</rpm>
</extensions>
</trkpt>
<trkpt lat="30.600400925" lon="34.863941193">
<ele>509.875000</ele>
<time>2013-11-23T11:28:49Z</time>
<speed>4.610000</speed>
<extensions>
<speed>4.6</speed>
<temp>0.00</temp>
<bpm>0</bpm>
<rpm>0.00</rpm>
</extensions>
</trkpt>
<trkpt lat="30.600660324" lon="34.863880157">
<ele>505.406250</ele>
<time>2013-11-23T11:28:54Z</time>
<speed>6.800000</speed>
<extensions>
<speed>6.8</speed>
<temp>0.00</temp>
<bpm>0</bpm>
<rpm>0.00</rpm>
</extensions>
</trkpt>
<trkpt lat="30.600997925" lon="34.863765717">
<ele>501.960938</ele>
<time>2013-11-23T11:28:59Z</time>
<speed>8.400000</speed>
<extensions>
<speed>8.4</speed>
<temp>0.00</temp>
<bpm>0</bpm>
<rpm>0.00</rpm>
</extensions>
</trkpt>
<trkpt lat="30.601325989" lon="34.863563538">
<ele>500.835938</ele>
<time>2013-11-23T11:29:04Z</time>
<speed>7.840000</speed>
<extensions>
<speed>7.8</speed>
<temp>0.00</temp>
<bpm>0</bpm>
<rpm>0.00</rpm>
</extensions>
</trkpt>
<trkpt lat="30.601608276" lon="34.863376617">
<ele>500.875000</ele>
<time>2013-11-23T11:29:09Z</time>
<speed>6.470000</speed>
<extensions>
<speed>6.5</speed>
<temp>0.00</temp>
<bpm>0</bpm>
<rpm>0.00</rpm>
</extensions>
</trkpt>
<trkpt lat="30.601814270" lon="34.863170624">
<ele>500.000000</ele>
<time>2013-11-23T11:29:14Z</time>
<speed>6.110000</speed>
<extensions>
<speed>6.1</speed>
<temp>0.00</temp>
<bpm>0</bpm>
<rpm>0.00</rpm>
</extensions>
</trkpt>
<trkpt lat="30.601953506" lon="34.862926483">
<ele>499.734375</ele>
<time>2013-11-23T11:29:19Z</time>
<speed>4.840000</speed>
<extensions>
<speed>4.8</speed>
<temp>0.00</temp>
<bpm>0</bpm>
<rpm>0.00</rpm>
</extensions>
</trkpt>
<trkpt lat="30.602041245" lon="34.862735748">
<ele>499.476563</ele>
<time>2013-11-23T11:29:24Z</time>
<speed>3.650000</speed>
<extensions>
<speed>3.7</speed>
<temp>0.00</temp>
<bpm>0</bpm>
<rpm>0.00</rpm>
</extensions>
</trkpt>
<trkpt lat="30.602149963" lon="34.862575531">
<ele>498.851563</ele>
<time>2013-11-23T11:29:29Z</time>
<speed>3.650000</speed>
<extensions>
<speed>3.7</speed>
<temp>0.00</temp>
<bpm>0</bpm>
<rpm>0.00</rpm>
</extensions>
</trkpt>
<trkpt lat="30.602249146" lon="34.862445831">
<ele>498.867188</ele>
<time>2013-11-23T11:29:34Z</time>
<speed>2.860000</speed>
<extensions>
<speed>2.9</speed>
<temp>0.00</temp>
<bpm>0</bpm>
<rpm>0.00</rpm>
</extensions>
</trkpt>
<trkpt lat="30.602315903" lon="34.862342834">
<ele>499.789063</ele>
<time>2013-11-23T11:29:39Z</time>
<speed>2.160000</speed>
<extensions>
<speed>2.2</speed>
<temp>0.00</temp>
<bpm>0</bpm>
<rpm>0.00</rpm>
</extensions>
</trkpt>
<trkpt lat="30.602357864" lon="34.862266541">
<ele>500.375000</ele>
<time>2013-11-23T11:29:44Z</time>
<speed>1.370000</speed>
<extensions>
<speed>1.4</speed>
<temp>0.00</temp>
<bpm>0</bpm>
<rpm>0.00</rpm>
</extensions>
</trkpt>
<trkpt lat="30.602394104" lon="34.862201691">
<ele>500.593750</ele>
<time>2013-11-23T11:29:49Z</time>
<speed>1.350000</speed>
<extensions>
<speed>1.4</speed>
<temp>0.00</temp>
<bpm>0</bpm>
<rpm>0.00</rpm>
</extensions>
</trkpt>
<trkpt lat="30.602420807" lon="34.862144470">
<ele>501.015625</ele>
<time>2013-11-23T11:29:54Z</time>
<speed>1.120000</speed>
<extensions>
<speed>1.1</speed>
<temp>0.00</temp>
<bpm>0</bpm>
<rpm>0.00</rpm>
</extensions>
</trkpt>
<trkpt lat="30.602441788" lon="34.862098694">
<ele>501.726563</ele>
<time>2013-11-23T11:29:59Z</time>
<speed>0.970000</speed>
<extensions>
<speed>1.0</speed>
<temp>0.00</temp>
<bpm>0</bpm>
<rpm>0.00</rpm>
</extensions>
</trkpt>
<trkpt lat="30.602460861" lon="34.862056732">
<ele>502.515625</ele>
<time>2013-11-23T11:30:04Z</time>
<speed>0.890000</speed>
<extensions>
<speed>0.9</speed>
<temp>0.00</temp>
<bpm>0</bpm>
<rpm>0.00</rpm>
</extensions>
</trkpt>
<trkpt lat="30.602479935" lon="34.862007141">
<ele>503.140625</ele>
<time>2013-11-23T11:30:09Z</time>
<speed>1.320000</speed>
<extensions>
<speed>1.3</speed>
<temp>0.00</temp>
<bpm>0</bpm>
<rpm>0.00</rpm>
</extensions>
</trkpt>
<trkpt lat="30.602518082" lon="34.861961365">
<ele>503.070313</ele>
<time>2013-11-23T11:30:14Z</time>
<speed>1.350000</speed>
<extensions>
<speed>1.4</speed>
<temp>0.00</temp>
<bpm>0</bpm>
<rpm>0.00</rpm>
</extensions>
</trkpt>
<trkpt lat="30.602563858" lon="34.861904144">
<ele>503.453125</ele>
<time>2013-11-23T11:30:19Z</time>
<speed>1.700000</speed>
<extensions>
<speed>1.7</speed>
<temp>0.00</temp>
<bpm>0</bpm>
<rpm>0.00</rpm>
</extensions>
</trkpt>
<trkpt lat="30.602626801" lon="34.861846924">
<ele>503.710938</ele>
<time>2013-11-23T11:30:24Z</time>
<speed>1.240000</speed>
<extensions>
<speed>1.2</speed>
<temp>0.00</temp>
<bpm>0</bpm>
<rpm>0.00</rpm>
</extensions>
</trkpt>
<trkpt lat="30.602687836" lon="34.861801147">
<ele>503.906250</ele>
<time>2013-11-23T11:30:29Z</time>
<speed>2.270000</speed>
<extensions>
<speed>2.3</speed>
<temp>0.00</temp>
<bpm>0</bpm>
<rpm>0.00</rpm>
</extensions>
</trkpt>
<trkpt lat="30.602756500" lon="34.861751556">
<ele>504.343750</ele>
<time>2013-11-23T11:30:34Z</time>
<speed>1.760000</speed>
<extensions>
<speed>1.8</speed>
<temp>0.00</temp>
<bpm>0</bpm>
<rpm>0.00</rpm>
</extensions>
</trkpt>
<trkpt lat="30.602863312" lon="34.861686707">
<ele>504.773438</ele>
<time>2013-11-23T11:30:39Z</time>
<speed>3.520000</speed>
<extensions>
<speed>3.5</speed>
<temp>0.00</temp>
<bpm>0</bpm>
<rpm>0.00</rpm>
</extensions>
</trkpt>
<trkpt lat="30.602993011" lon="34.861583710">
<ele>504.921875</ele>
<time>2013-11-23T11:30:44Z</time>
<speed>2.890000</speed>
<extensions>
<speed>2.9</speed>
<temp>0.00</temp>
<bpm>0</bpm>
<rpm>0.00</rpm>
</extensions>
</trkpt>
<trkpt lat="30.603101730" lon="34.861488342">
<ele>504.843750</ele>
<time>2013-11-23T11:30:49Z</time>
<speed>2.860000</speed>
<extensions>
<speed>2.9</speed>
<temp>0.00</temp>
<bpm>0</bpm>
<rpm>0.00</rpm>
</extensions>
</trkpt>
<trkpt lat="30.603183746" lon="34.861392975">
<ele>504.531250</ele>
<time>2013-11-23T11:30:54Z</time>
<speed>2.870000</speed>
<extensions>
<speed>2.9</speed>
<temp>0.00</temp>
<bpm>0</bpm>
<rpm>0.00</rpm>
</extensions>
</trkpt>
<trkpt lat="30.603275299" lon="34.861244202">
<ele>503.523438</ele>
<time>2013-11-23T11:30:59Z</time>
<speed>3.620000</speed>
<extensions>
<speed>3.6</speed>
<temp>0.00</temp>
<bpm>0</bpm>
<rpm>0.00</rpm>
</extensions>
</trkpt>
<trkpt lat="30.603385925" lon="34.861114502">
<ele>503.437500</ele>
<time>2013-11-23T11:31:04Z</time>
<speed>3.760000</speed>
<extensions>
<speed>3.8</speed>
<temp>0.00</temp>
<bpm>0</bpm>
<rpm>0.00</rpm>
</extensions>
</trkpt>
<trkpt lat="30.603525162" lon="34.860992432">
<ele>503.804688</ele>
<time>2013-11-23T11:31:09Z</time>
<speed>3.650000</speed>
<extensions>
<speed>3.7</speed>
<temp>0.00</temp>
<bpm>0</bpm>
<rpm>0.00</rpm>
</extensions>
</trkpt>
<trkpt lat="30.603626251" lon="34.860877991">
<ele>503.914063</ele>
<time>2013-11-23T11:31:14Z</time>
<speed>2.920000</speed>
<extensions>
<speed>2.9</speed>
<temp>0.00</temp>
<bpm>0</bpm>
<rpm>0.00</rpm>
</extensions>
</trkpt>
<trkpt lat="30.603725433" lon="34.860794067">
<ele>503.804688</ele>
<time>2013-11-23T11:31:19Z</time>
<speed>2.770000</speed>
<extensions>
<speed>2.8</speed>
<temp>0.00</temp>
<bpm>0</bpm>
<rpm>0.00</rpm>
</extensions>
</trkpt>
<trkpt lat="30.603820801" lon="34.860717773">
<ele>503.593750</ele>
<time>2013-11-23T11:31:24Z</time>
<speed>2.840000</speed>
<extensions>
<speed>2.8</speed>
<temp>0.00</temp>
<bpm>0</bpm>
<rpm>0.00</rpm>
</extensions>
</trkpt>
<trkpt lat="30.603927612" lon="34.860610962">
<ele>503.976563</ele>
<time>2013-11-23T11:31:29Z</time>
<speed>3.450000</speed>
<extensions>
<speed>3.5</speed>
<temp>0.00</temp>
<bpm>0</bpm>
<rpm>0.00</rpm>
</extensions>
</trkpt>
<trkpt lat="30.604064941" lon="34.860492706">
<ele>503.976563</ele>
<time>2013-11-23T11:31:34Z</time>
<speed>3.850000</speed>
<extensions>
<speed>3.8</speed>
<temp>0.00</temp>
<bpm>0</bpm>
<rpm>0.00</rpm>
</extensions>
</trkpt>
<trkpt lat="30.604181290" lon="34.860385895">
<ele>504.007813</ele>
<time>2013-11-23T11:31:39Z</time>
<speed>3.370000</speed>
<extensions>
<speed>3.4</speed>
<temp>0.00</temp>
<bpm>0</bpm>
<rpm>0.00</rpm>
</extensions>
</trkpt>
<trkpt lat="30.604309082" lon="34.860275269">
<ele>503.421875</ele>
<time>2013-11-23T11:31:44Z</time>
<speed>3.950000</speed>
<extensions>
<speed>4.0</speed>
<temp>0.00</temp>
<bpm>0</bpm>
<rpm>0.00</rpm>
</extensions>
</trkpt>
<trkpt lat="30.604446411" lon="34.860118866">
<ele>501.960938</ele>
<time>2013-11-23T11:31:49Z</time>
<speed>4.370000</speed>
<extensions>
<speed>4.4</speed>
<temp>0.00</temp>
<bpm>0</bpm>
<rpm>0.00</rpm>
</extensions>
</trkpt>
<trkpt lat="30.604473114" lon="34.859851837">
<ele>499.593750</ele>
<time>2013-11-23T11:31:54Z</time>
<speed>5.080000</speed>
<extensions>
<speed>5.1</speed>
<temp>0.00</temp>
<bpm>0</bpm>
<rpm>0.00</rpm>
</extensions>
</trkpt>
<trkpt lat="30.604457855" lon="34.859657288">
<ele>500.000000</ele>
<time>2013-11-23T11:31:59Z</time>
<speed>2.240000</speed>
<extensions>
<speed>2.2</speed>
<temp>0.00</temp>
<bpm>0</bpm>
<rpm>0.00</rpm>
</extensions>
</trkpt>
<trkpt lat="30.604490280" lon="34.859573364">
<ele>501.210938</ele>
<time>2013-11-23T11:32:04Z</time>
<speed>1.860000</speed>
<extensions>
<speed>1.9</speed>
<temp>0.00</temp>
<bpm>0</bpm>
<rpm>0.00</rpm>
</extensions>
</trkpt>
<trkpt lat="30.604537964" lon="34.859550476">
<ele>501.929688</ele>
<time>2013-11-23T11:32:09Z</time>
<speed>0.830000</speed>
<extensions>
<speed>0.8</speed>
<temp>0.00</temp>
<bpm>0</bpm>
<rpm>0.00</rpm>
</extensions>
</trkpt>
<trkpt lat="30.604578018" lon="34.859527588">
<ele>501.867188</ele>
<time>2013-11-23T11:32:14Z</time>
<speed>0.810000</speed>
<extensions>
<speed>0.8</speed>
<temp>0.00</temp>
<bpm>0</bpm>
<rpm>0.00</rpm>
</extensions>
</trkpt>
<trkpt lat="30.604616165" lon="34.859519958">
<ele>501.789063</ele>
<time>2013-11-23T11:32:19Z</time>
<speed>0.980000</speed>
<extensions>
<speed>1.0</speed>
<temp>0.00</temp>
<bpm>0</bpm>
<rpm>0.00</rpm>
</extensions>
</trkpt>
<trkpt lat="30.604661942" lon="34.859519958">
<ele>501.820313</ele>
<time>2013-11-23T11:32:24Z</time>
<speed>1.100000</speed>
<extensions>
<speed>1.1</speed>
<temp>0.00</temp>
<bpm>0</bpm>
<rpm>0.00</rpm>
</extensions>
</trkpt>
<trkpt lat="30.604703903" lon="34.859519958">
<ele>501.640625</ele>
<time>2013-11-23T11:32:29Z</time>
<speed>0.850000</speed>
<extensions>
<speed>0.8</speed>
<temp>0.00</temp>
<bpm>0</bpm>
<rpm>0.00</rpm>
</extensions>
</trkpt>
<trkpt lat="30.604747772" lon="34.859512329">
<ele>501.109375</ele>
<time>2013-11-23T11:32:34Z</time>
<speed>1.270000</speed>
<extensions>
<speed>1.3</speed>
<temp>0.00</temp>
<bpm>0</bpm>
<rpm>0.00</rpm>
</extensions>
</trkpt>
<trkpt lat="30.604804993" lon="34.859493256">
<ele>501.234375</ele>
<time>2013-11-23T11:32:39Z</time>
<speed>1.400000</speed>
<extensions>
<speed>1.4</speed>
<temp>0.00</temp>
<bpm>0</bpm>
<rpm>0.00</rpm>
</extensions>
</trkpt>
<trkpt lat="30.604879379" lon="34.859466553">
<ele>500.296875</ele>
<time>2013-11-23T11:32:44Z</time>
<speed>2.070000</speed>
<extensions>
<speed>2.1</speed>
<temp>0.00</temp>
<bpm>0</bpm>
<rpm>0.00</rpm>
</extensions>
</trkpt>
<trkpt lat="30.605001450" lon="34.859424591">
<ele>500.476563</ele>
<time>2013-11-23T11:32:49Z</time>
<speed>3.400000</speed>
<extensions>
<speed>3.4</speed>
<temp>0.00</temp>
<bpm>0</bpm>
<rpm>0.00</rpm>
</extensions>
</trkpt>
<trkpt lat="30.605138779" lon="34.859371185">
<ele>499.953125</ele>
<time>2013-11-23T11:32:54Z</time>
<speed>2.830000</speed>
<extensions>
<speed>2.8</speed>
<temp>0.00</temp>
<bpm>0</bpm>
<rpm>0.00</rpm>
</extensions>
</trkpt>
<trkpt lat="30.605247498" lon="34.859306335">
<ele>500.171875</ele>
<time>2013-11-23T11:32:59Z</time>
<speed>3.100000</speed>
<extensions>
<speed>3.1</speed>
<temp>0.00</temp>
<bpm>0</bpm>
<rpm>0.00</rpm>
</extensions>
</trkpt>
<trkpt lat="30.605377197" lon="34.859230042">
<ele>501.164063</ele>
<time>2013-11-23T11:33:04Z</time>
<speed>3.440000</speed>
<extensions>
<speed>3.4</speed>
<temp>0.00</temp>
<bpm>0</bpm>
<rpm>0.00</rpm>
</extensions>
</trkpt>
<trkpt lat="30.605472565" lon="34.859161377">
<ele>500.906250</ele>
<time>2013-11-23T11:33:09Z</time>
<speed>1.510000</speed>
<extensions>
<speed>1.5</speed>
<temp>0.00</temp>
<bpm>0</bpm>
<rpm>0.00</rpm>
</extensions>
</trkpt>
<trkpt lat="30.605569839" lon="34.859104156">
<ele>501.101563</ele>
<time>2013-11-23T11:33:14Z</time>
<speed>3.040000</speed>
<extensions>
<speed>3.0</speed>
<temp>0.00</temp>
<bpm>0</bpm>
<rpm>0.00</rpm>
</extensions>
</trkpt>
<trkpt lat="30.605695724" lon="34.859031677">
<ele>501.710938</ele>
<time>2013-11-23T11:33:19Z</time>
<speed>3.070000</speed>
<extensions>
<speed>3.1</speed>
<temp>0.00</temp>
<bpm>0</bpm>
<rpm>0.00</rpm>
</extensions>
</trkpt>
<trkpt lat="30.605798721" lon="34.858963013">
<ele>502.226563</ele>
<time>2013-11-23T11:33:24Z</time>
<speed>2.360000</speed>
<extensions>
<speed>2.4</speed>
<temp>0.00</temp>
<bpm>0</bpm>
<rpm>0.00</rpm>
</extensions>
</trkpt>
<trkpt lat="30.605905533" lon="34.858840942">
<ele>500.500000</ele>
<time>2013-11-23T11:33:29Z</time>
<speed>4.530000</speed>
<extensions>
<speed>4.5</speed>
<temp>0.00</temp>
<bpm>0</bpm>
<rpm>0.00</rpm>
</extensions>
</trkpt>
<trkpt lat="30.606113434" lon="34.858592987">
<ele>496.757813</ele>
<time>2013-11-23T11:33:34Z</time>
<speed>7.810000</speed>
<extensions>
<speed>7.8</speed>
<temp>0.00</temp>
<bpm>0</bpm>
<rpm>0.00</rpm>
</extensions>
</trkpt>
<trkpt lat="30.606306076" lon="34.858245850">
<ele>495.289063</ele>
<time>2013-11-23T11:33:39Z</time>
<speed>7.340000</speed>
<extensions>
<speed>7.3</speed>
<temp>0.00</temp>
<bpm>0</bpm>
<rpm>0.00</rpm>
</extensions>
</trkpt>
<trkpt lat="30.606430054" lon="34.857921600">
<ele>494.390625</ele>
<time>2013-11-23T11:33:44Z</time>
<speed>6.270000</speed>
<extensions>
<speed>6.3</speed>
<temp>0.00</temp>
<bpm>0</bpm>
<rpm>0.00</rpm>
</extensions>
</trkpt>
<trkpt lat="30.606609344" lon="34.857692719">
<ele>493.570313</ele>
<time>2013-11-23T11:33:49Z</time>
<speed>5.660000</speed>
<extensions>
<speed>5.7</speed>
<temp>0.00</temp>
<bpm>0</bpm>
<rpm>0.00</rpm>
</extensions>
</trkpt>
<trkpt lat="30.606781006" lon="34.857490540">
<ele>492.578125</ele>
<time>2013-11-23T11:33:54Z</time>
<speed>4.960000</speed>
<extensions>
<speed>5.0</speed>
<temp>0.00</temp>
<bpm>0</bpm>
<rpm>0.00</rpm>
</extensions>
</trkpt>
<trkpt lat="30.606945038" lon="34.857341766">
<ele>491.953125</ele>
<time>2013-11-23T11:33:59Z</time>
<speed>4.150000</speed>
<extensions>
<speed>4.1</speed>
<temp>0.00</temp>
<bpm>0</bpm>
<rpm>0.00</rpm>
</extensions>
</trkpt>
<trkpt lat="30.607074738" lon="34.857257843">
<ele>492.351563</ele>
<time>2013-11-23T11:34:04Z</time>
<speed>2.440000</speed>
<extensions>
<speed>2.4</speed>
<temp>0.00</temp>
<bpm>0</bpm>
<rpm>0.00</rpm>
</extensions>
</trkpt>
<trkpt lat="30.607152939" lon="34.857212067">
<ele>493.421875</ele>
<time>2013-11-23T11:34:09Z</time>
<speed>2.350000</speed>
<extensions>
<speed>2.4</speed>
<temp>0.00</temp>
<bpm>0</bpm>
<rpm>0.00</rpm>
</extensions>
</trkpt>
<trkpt lat="30.607233047" lon="34.857158661">
<ele>493.960938</ele>
<time>2013-11-23T11:34:14Z</time>
<speed>2.040000</speed>
<extensions>
<speed>2.0</speed>
<temp>0.00</temp>
<bpm>0</bpm>
<rpm>0.00</rpm>
</extensions>
</trkpt>
<trkpt lat="30.607313156" lon="34.857093811">
<ele>493.523438</ele>
<time>2013-11-23T11:34:19Z</time>
<speed>2.120000</speed>
<extensions>
<speed>2.1</speed>
<temp>0.00</temp>
<bpm>0</bpm>
<rpm>0.00</rpm>
</extensions>
</trkpt>
<trkpt lat="30.607419968" lon="34.856971741">
<ele>492.546875</ele>
<time>2013-11-23T11:34:24Z</time>
<speed>4.000000</speed>
<extensions>
<speed>4.0</speed>
<temp>0.00</temp>
<bpm>0</bpm>
<rpm>0.00</rpm>
</extensions>
</trkpt>
<trkpt lat="30.607542038" lon="34.856811523">
<ele>492.531250</ele>
<time>2013-11-23T11:34:29Z</time>
<speed>4.050000</speed>
<extensions>
<speed>4.0</speed>
<temp>0.00</temp>
<bpm>0</bpm>
<rpm>0.00</rpm>
</extensions>
</trkpt>
<trkpt lat="30.607658386" lon="34.856651306">
<ele>491.867188</ele>
<time>2013-11-23T11:34:34Z</time>
<speed>4.000000</speed>
<extensions>
<speed>4.0</speed>
<temp>0.00</temp>
<bpm>0</bpm>
<rpm>0.00</rpm>
</extensions>
</trkpt>
<trkpt lat="30.607769012" lon="34.856494904">
<ele>491.804688</ele>
<time>2013-11-23T11:34:39Z</time>
<speed>3.610000</speed>
<extensions>
<speed>3.6</speed>
<temp>0.00</temp>
<bpm>0</bpm>
<rpm>0.00</rpm>
</extensions>
</trkpt>
<trkpt lat="30.607868195" lon="34.856353760">
<ele>491.351563</ele>
<time>2013-11-23T11:34:44Z</time>
<speed>3.210000</speed>
<extensions>
<speed>3.2</speed>
<temp>0.00</temp>
<bpm>0</bpm>
<rpm>0.00</rpm>
</extensions>
</trkpt>
<trkpt lat="30.607969284" lon="34.856235504">
<ele>491.007813</ele>
<time>2013-11-23T11:34:49Z</time>
<speed>3.410000</speed>
<extensions>
<speed>3.4</speed>
<temp>0.00</temp>
<bpm>0</bpm>
<rpm>0.00</rpm>
</extensions>
</trkpt>
<trkpt lat="30.608081818" lon="34.856098175">
<ele>490.414063</ele>
<time>2013-11-23T11:34:54Z</time>
<speed>3.690000</speed>
<extensions>
<speed>3.7</speed>
<temp>0.00</temp>
<bpm>0</bpm>
<rpm>0.00</rpm>
</extensions>
</trkpt>
<trkpt lat="30.608192444" lon="34.855953217">
<ele>490.343750</ele>
<time>2013-11-23T11:34:59Z</time>
<speed>3.390000</speed>
<extensions>
<speed>3.4</speed>
<temp>0.00</temp>
<bpm>0</bpm>
<rpm>0.00</rpm>
</extensions>
</trkpt>
<trkpt lat="30.608297348" lon="34.855827332">
<ele>489.609375</ele>
<time>2013-11-23T11:35:04Z</time>
<speed>3.340000</speed>
<extensions>
<speed>3.3</speed>
<temp>0.00</temp>
<bpm>0</bpm>
<rpm>0.00</rpm>
</extensions>
</trkpt>
<trkpt lat="30.608409882" lon="34.855709076">
<ele>489.054688</ele>
<time>2013-11-23T11:35:09Z</time>
<speed>3.220000</speed>
<extensions>
<speed>3.2</speed>
<temp>0.00</temp>
<bpm>0</bpm>
<rpm>0.00</rpm>
</extensions>
</trkpt>
<trkpt lat="30.608518600" lon="34.855621338">
<ele>489.382813</ele>
<time>2013-11-23T11:35:14Z</time>
<speed>3.010000</speed>
<extensions>
<speed>3.0</speed>
<temp>0.00</temp>
<bpm>0</bpm>
<rpm>0.00</rpm>
</extensions>
</trkpt>
<trkpt lat="30.608652115" lon="34.855522156">
<ele>489.289063</ele>
<time>2013-11-23T11:35:19Z</time>
<speed>3.730000</speed>
<extensions>
<speed>3.7</speed>
<temp>0.00</temp>
<bpm>0</bpm>
<rpm>0.00</rpm>
</extensions>
</trkpt>
<trkpt lat="30.608795166" lon="34.855407715">
<ele>488.523438</ele>
<time>2013-11-23T11:35:24Z</time>
<speed>4.000000</speed>
<extensions>
<speed>4.0</speed>
<temp>0.00</temp>
<bpm>0</bpm>
<rpm>0.00</rpm>
</extensions>
</trkpt>
<trkpt lat="30.608942032" lon="34.855281830">
<ele>487.742188</ele>
<time>2013-11-23T11:35:29Z</time>
<speed>4.040000</speed>
<extensions>
<speed>4.0</speed>
<temp>0.00</temp>
<bpm>0</bpm>
<rpm>0.00</rpm>
</extensions>
</trkpt>
<trkpt lat="30.609077454" lon="34.855155945">
<ele>487.210938</ele>
<time>2013-11-23T11:35:34Z</time>
<speed>3.580000</speed>
<extensions>
<speed>3.6</speed>
<temp>0.00</temp>
<bpm>0</bpm>
<rpm>0.00</rpm>
</extensions>
</trkpt>
<trkpt lat="30.609178543" lon="34.855014801">
<ele>486.640625</ele>
<time>2013-11-23T11:35:39Z</time>
<speed>3.600000</speed>
<extensions>
<speed>3.6</speed>
<temp>0.00</temp>
<bpm>0</bpm>
<rpm>0.00</rpm>
</extensions>
</trkpt>
<trkpt lat="30.609273911" lon="34.854873657">
<ele>486.476563</ele>
<time>2013-11-23T11:35:44Z</time>
<speed>3.640000</speed>
<extensions>
<speed>3.6</speed>
<temp>0.00</temp>
<bpm>0</bpm>
<rpm>0.00</rpm>
</extensions>
</trkpt>
<trkpt lat="30.609373093" lon="34.854705811">
<ele>485.648438</ele>
<time>2013-11-23T11:35:49Z</time>
<speed>4.380000</speed>
<extensions>
<speed>4.4</speed>
<temp>0.00</temp>
<bpm>0</bpm>
<rpm>0.00</rpm>
</extensions>
</trkpt>
<trkpt lat="30.609502792" lon="34.854557037">
<ele>485.796875</ele>
<time>2013-11-23T11:35:54Z</time>
<speed>5.230000</speed>
<extensions>
<speed>5.2</speed>
<temp>0.00</temp>
<bpm>0</bpm>
<rpm>0.00</rpm>
</extensions>
</trkpt>
<trkpt lat="30.609682083" lon="34.854427338">
<ele>486.257813</ele>
<time>2013-11-23T11:35:59Z</time>
<speed>4.660000</speed>
<extensions>
<speed>4.7</speed>
<temp>0.00</temp>
<bpm>0</bpm>
<rpm>0.00</rpm>
</extensions>
</trkpt>
<trkpt lat="30.609867096" lon="34.854324341">
<ele>486.125000</ele>
<time>2013-11-23T11:36:04Z</time>
<speed>4.470000</speed>
<extensions>
<speed>4.5</speed>
<temp>0.00</temp>
<bpm>0</bpm>
<rpm>0.00</rpm>
</extensions>
</trkpt>
<trkpt lat="30.610050201" lon="34.854206085">
<ele>485.632813</ele>
<time>2013-11-23T11:36:09Z</time>
<speed>4.730000</speed>
<extensions>
<speed>4.7</speed>
<temp>0.00</temp>
<bpm>0</bpm>
<rpm>0.00</rpm>
</extensions>
</trkpt>
<trkpt lat="30.610221863" lon="34.854110718">
<ele>486.007813</ele>
<time>2013-11-23T11:36:14Z</time>
<speed>4.400000</speed>
<extensions>
<speed>4.4</speed>
<temp>0.00</temp>
<bpm>0</bpm>
<rpm>0.00</rpm>
</extensions>
</trkpt>
<trkpt lat="30.610414505" lon="34.854022980">
<ele>485.890625</ele>
<time>2013-11-23T11:36:19Z</time>
<speed>4.570000</speed>
<extensions>
<speed>4.6</speed>
<temp>0.00</temp>
<bpm>0</bpm>
<rpm>0.00</rpm>
</extensions>
</trkpt>
<trkpt lat="30.610544205" lon="34.853866577">
<ele>486.101563</ele>
<time>2013-11-23T11:36:24Z</time>
<speed>3.940000</speed>
<extensions>
<speed>3.9</speed>
<temp>0.00</temp>
<bpm>0</bpm>
<rpm>0.00</rpm>
</extensions>
</trkpt>
<trkpt lat="30.610610962" lon="34.853672028">
<ele>486.320313</ele>
<time>2013-11-23T11:36:29Z</time>
<speed>3.900000</speed>
<extensions>
<speed>3.9</speed>
<temp>0.00</temp>
<bpm>0</bpm>
<rpm>0.00</rpm>
</extensions>
</trkpt>
<trkpt lat="30.610689163" lon="34.853496552">
<ele>486.109375</ele>
<time>2013-11-23T11:36:34Z</time>
<speed>3.670000</speed>
<extensions>
<speed>3.7</speed>
<temp>0.00</temp>
<bpm>0</bpm>
<rpm>0.00</rpm>
</extensions>
</trkpt>
<trkpt lat="30.610813141" lon="34.853336334">
<ele>485.359375</ele>
<time>2013-11-23T11:36:39Z</time>
<speed>4.880000</speed>
<extensions>
<speed>4.9</speed>
<temp>0.00</temp>
<bpm>0</bpm>
<rpm>0.00</rpm>
</extensions>
</trkpt>
<trkpt lat="30.610996246" lon="34.853271484">
<ele>484.359375</ele>
<time>2013-11-23T11:36:44Z</time>
<speed>3.930000</speed>
<extensions>
<speed>3.9</speed>
<temp>0.00</temp>
<bpm>0</bpm>
<rpm>0.00</rpm>
</extensions>
</trkpt>
<trkpt lat="30.611158371" lon="34.853366852">
<ele>483.570313</ele>
<time>2013-11-23T11:36:49Z</time>
<speed>3.590000</speed>
<extensions>
<speed>3.6</speed>
<temp>0.00</temp>
<bpm>0</bpm>
<rpm>0.00</rpm>
</extensions>
</trkpt>
<trkpt lat="30.611206055" lon="34.853454590">
<ele>484.476563</ele>
<time>2013-11-23T11:36:54Z</time>
<speed>1.560000</speed>
<extensions>
<speed>1.6</speed>
<temp>0.00</temp>
<bpm>0</bpm>
<rpm>0.00</rpm>
</extensions>
</trkpt>
<trkpt lat="30.611188889" lon="34.853496552">
<ele>484.664063</ele>
<time>2013-11-23T11:36:59Z</time>
<speed>0.040000</speed>
<extensions>
<speed>0.0</speed>
<temp>0.00</temp>
<bpm>0</bpm>
<rpm>0.00</rpm>
</extensions>
</trkpt>
<trkpt lat="30.611186981" lon="34.853492737">
<ele>485.031250</ele>
<time>2013-11-23T11:37:04Z</time>
<extensions>
<speed>0.0</speed>
<temp>0.00</temp>
<bpm>0</bpm>
<rpm>0.00</rpm>
</extensions>
</trkpt>
<trkpt lat="30.611186981" lon="34.853492737">
<ele>485.039063</ele>
<time>2013-11-23T11:37:09Z</time>
<extensions>
<speed>0.0</speed>
<temp>0.00</temp>
<bpm>0</bpm>
<rpm>0.00</rpm>
</extensions>
</trkpt>
<trkpt lat="30.611186981" lon="34.853492737">
<ele>485.046875</ele>
<time>2013-11-23T11:37:14Z</time>
<extensions>
<speed>0.0</speed>
<temp>0.00</temp>
<bpm>0</bpm>
<rpm>0.00</rpm>
</extensions>
</trkpt>
<trkpt lat="30.611186981" lon="34.853492737">
<ele>485.054688</ele>
<time>2013-11-23T11:37:19Z</time>
<extensions>
<speed>0.0</speed>
<temp>0.00</temp>
<bpm>0</bpm>
<rpm>0.00</rpm>
</extensions>
</trkpt>
<trkpt lat="30.611186981" lon="34.853492737">
<ele>485.070313</ele>
<time>2013-11-23T11:37:24Z</time>
<speed>0.030000</speed>
<extensions>
<speed>0.0</speed>
<temp>0.00</temp>
<bpm>0</bpm>
<rpm>0.00</rpm>
</extensions>
</trkpt>
<trkpt lat="30.611186981" lon="34.853492737">
<ele>485.070313</ele>
<time>2013-11-23T11:37:29Z</time>
<speed>0.160000</speed>
<extensions>
<speed>0.2</speed>
<temp>0.00</temp>
<bpm>0</bpm>
<rpm>0.00</rpm>
</extensions>
</trkpt>
<trkpt lat="30.611152649" lon="34.853523254">
<ele>484.898438</ele>
<time>2013-11-23T11:37:34Z</time>
<speed>1.970000</speed>
<extensions>
<speed>2.0</speed>
<temp>0.00</temp>
<bpm>0</bpm>
<rpm>0.00</rpm>
</extensions>
</trkpt>
<trkpt lat="30.611124039" lon="34.853645325">
<ele>485.195313</ele>
<time>2013-11-23T11:37:39Z</time>
<speed>2.980000</speed>
<extensions>
<speed>3.0</speed>
<temp>0.00</temp>
<bpm>0</bpm>
<rpm>0.00</rpm>
</extensions>
</trkpt>
<trkpt lat="30.611118317" lon="34.853794098">
<ele>485.000000</ele>
<time>2013-11-23T11:37:44Z</time>
<speed>0.850000</speed>
<extensions>
<speed>0.8</speed>
<temp>0.00</temp>
<bpm>0</bpm>
<rpm>0.00</rpm>
</extensions>
</trkpt>
<trkpt lat="30.611120224" lon="34.853832245">
<ele>484.507813</ele>
<time>2013-11-23T11:37:49Z</time>
<speed>1.210000</speed>
<extensions>
<speed>1.2</speed>
<temp>0.00</temp>
<bpm>0</bpm>
<rpm>0.00</rpm>
</extensions>
</trkpt>
<trkpt lat="30.611118317" lon="34.853885651">
<ele>484.257813</ele>
<time>2013-11-23T11:37:54Z</time>
<speed>1.290000</speed>
<extensions>
<speed>1.3</speed>
<temp>0.00</temp>
<bpm>0</bpm>
<rpm>0.00</rpm>
</extensions>
</trkpt>
<trkpt lat="30.611112595" lon="34.853946686">
<ele>484.335938</ele>
<time>2013-11-23T11:37:59Z</time>
<speed>1.350000</speed>
<extensions>
<speed>1.4</speed>
<temp>0.00</temp>
<bpm>0</bpm>
<rpm>0.00</rpm>
</extensions>
</trkpt>
<trkpt lat="30.611112595" lon="34.853996277">
<ele>484.515625</ele>
<time>2013-11-23T11:38:04Z</time>
<speed>0.180000</speed>
<extensions>
<speed>0.2</speed>
<temp>0.00</temp>
<bpm>0</bpm>
<rpm>0.00</rpm>
</extensions>
</trkpt>
<trkpt lat="30.611110687" lon="34.854007721">
<ele>484.492188</ele>
<time>2013-11-23T11:38:09Z</time>
<speed>0.810000</speed>
<extensions>
<speed>0.8</speed>
<temp>0.00</temp>
<bpm>0</bpm>
<rpm>0.00</rpm>
</extensions>
</trkpt>
<trkpt lat="30.611108780" lon="34.854099274">
<ele>484.671875</ele>
<time>2013-11-23T11:38:14Z</time>
<speed>2.050000</speed>
<extensions>
<speed>2.1</speed>
<temp>0.00</temp>
<bpm>0</bpm>
<rpm>0.00</rpm>
</extensions>
</trkpt>
<trkpt lat="30.611089706" lon="34.854221344">
<ele>484.968750</ele>
<time>2013-11-23T11:38:19Z</time>
<speed>2.120000</speed>
<extensions>
<speed>2.1</speed>
<temp>0.00</temp>
<bpm>0</bpm>
<rpm>0.00</rpm>
</extensions>
</trkpt>
<trkpt lat="30.611076355" lon="34.854312897">
<ele>485.156250</ele>
<time>2013-11-23T11:38:24Z</time>
<speed>1.760000</speed>
<extensions>
<speed>1.8</speed>
<temp>0.00</temp>
<bpm>0</bpm>
<rpm>0.00</rpm>
</extensions>
</trkpt>
<trkpt lat="30.611066818" lon="34.854393005">
<ele>485.351563</ele>
<time>2013-11-23T11:38:29Z</time>
<speed>1.620000</speed>
<extensions>
<speed>1.6</speed>
<temp>0.00</temp>
<bpm>0</bpm>
<rpm>0.00</rpm>
</extensions>
</trkpt>
<trkpt lat="30.611043930" lon="34.854461670">
<ele>485.468750</ele>
<time>2013-11-23T11:38:34Z</time>
<speed>1.800000</speed>
<extensions>
<speed>1.8</speed>
<temp>0.00</temp>
<bpm>0</bpm>
<rpm>0.00</rpm>
</extensions>
</trkpt>
<trkpt lat="30.611017227" lon="34.854572296">
<ele>485.117188</ele>
<time>2013-11-23T11:38:39Z</time>
<speed>2.280000</speed>
<extensions>
<speed>2.3</speed>
<temp>0.00</temp>
<bpm>0</bpm>
<rpm>0.00</rpm>
</extensions>
</trkpt>
<trkpt lat="30.611022949" lon="34.854682922">
<ele>484.906250</ele>
<time>2013-11-23T11:38:44Z</time>
<speed>1.760000</speed>
<extensions>
<speed>1.8</speed>
<temp>0.00</temp>
<bpm>0</bpm>
<rpm>0.00</rpm>
</extensions>
</trkpt>
<trkpt lat="30.611024857" lon="34.854766846">
<ele>484.500000</ele>
<time>2013-11-23T11:38:49Z</time>
<speed>1.480000</speed>
<extensions>
<speed>1.5</speed>
<temp>0.00</temp>
<bpm>0</bpm>
<rpm>0.00</rpm>
</extensions>
</trkpt>
<trkpt lat="30.611009598" lon="34.854873657">
<ele>484.093750</ele>
<time>2013-11-23T11:38:54Z</time>
<speed>2.200000</speed>
<extensions>
<speed>2.2</speed>
<temp>0.00</temp>
<bpm>0</bpm>
<rpm>0.00</rpm>
</extensions>
</trkpt>
<trkpt lat="30.611013412" lon="34.854976654">
<ele>484.101563</ele>
<time>2013-11-23T11:38:59Z</time>
<speed>1.970000</speed>
<extensions>
<speed>2.0</speed>
<temp>0.00</temp>
<bpm>0</bpm>
<rpm>0.00</rpm>
</extensions>
</trkpt>
<trkpt lat="30.611005783" lon="34.855079651">
<ele>484.210938</ele>
<time>2013-11-23T11:39:04Z</time>
<speed>1.930000</speed>
<extensions>
<speed>1.9</speed>
<temp>0.00</temp>
<bpm>0</bpm>
<rpm>0.00</rpm>
</extensions>
</trkpt>
<trkpt lat="30.610996246" lon="34.855178833">
<ele>484.460938</ele>
<time>2013-11-23T11:39:09Z</time>
<speed>2.500000</speed>
<extensions>
<speed>2.5</speed>
<temp>0.00</temp>
<bpm>0</bpm>
<rpm>0.00</rpm>
</extensions>
</trkpt>
<trkpt lat="30.610996246" lon="34.855281830">
<ele>484.484375</ele>
<time>2013-11-23T11:39:14Z</time>
<speed>1.460000</speed>
<extensions>
<speed>1.5</speed>
<temp>0.00</temp>
<bpm>0</bpm>
<rpm>0.00</rpm>
</extensions>
</trkpt>
<trkpt lat="30.611005783" lon="34.855384827">
<ele>484.054688</ele>
<time>2013-11-23T11:39:19Z</time>
<speed>2.460000</speed>
<extensions>
<speed>2.5</speed>
<temp>0.00</temp>
<bpm>0</bpm>
<rpm>0.00</rpm>
</extensions>
</trkpt>
<trkpt lat="30.611011505" lon="34.855503082">
<ele>484.007813</ele>
<time>2013-11-23T11:39:24Z</time>
<speed>1.300000</speed>
<extensions>
<speed>1.3</speed>
<temp>0.00</temp>
<bpm>0</bpm>
<rpm>0.00</rpm>
</extensions>
</trkpt>
<trkpt lat="30.611022949" lon="34.855587006">
<ele>484.054688</ele>
<time>2013-11-23T11:39:29Z</time>
<speed>2.000000</speed>
<extensions>
<speed>2.0</speed>
<temp>0.00</temp>
<bpm>0</bpm>
<rpm>0.00</rpm>
</extensions>
</trkpt>
<trkpt lat="30.611030579" lon="34.855693817">
<ele>483.929688</ele>
<time>2013-11-23T11:39:34Z</time>
<speed>2.010000</speed>
<extensions>
<speed>2.0</speed>
<temp>0.00</temp>
<bpm>0</bpm>
<rpm>0.00</rpm>
</extensions>
</trkpt>
<trkpt lat="30.611032486" lon="34.855827332">
<ele>484.031250</ele>
<time>2013-11-23T11:39:39Z</time>
<speed>2.990000</speed>
<extensions>
<speed>3.0</speed>
<temp>0.00</temp>
<bpm>0</bpm>
<rpm>0.00</rpm>
</extensions>
</trkpt>
<trkpt lat="30.611015320" lon="34.855957031">
<ele>484.148438</ele>
<time>2013-11-23T11:39:44Z</time>
<speed>2.420000</speed>
<extensions>
<speed>2.4</speed>
<temp>0.00</temp>
<bpm>0</bpm>
<rpm>0.00</rpm>
</extensions>
</trkpt>
<trkpt lat="30.611009598" lon="34.856101990">
<ele>484.062500</ele>
<time>2013-11-23T11:39:49Z</time>
<speed>2.890000</speed>
<extensions>
<speed>2.9</speed>
<temp>0.00</temp>
<bpm>0</bpm>
<rpm>0.00</rpm>
</extensions>
</trkpt>
<trkpt lat="30.611005783" lon="34.856250763">
<ele>484.273438</ele>
<time>2013-11-23T11:39:54Z</time>
<speed>3.000000</speed>
<extensions>
<speed>3.0</speed>
<temp>0.00</temp>
<bpm>0</bpm>
<rpm>0.00</rpm>
</extensions>
</trkpt>
<trkpt lat="30.610982895" lon="34.856384277">
<ele>484.414063</ele>
<time>2013-11-23T11:39:59Z</time>
<speed>2.680000</speed>
<extensions>
<speed>2.7</speed>
<temp>0.00</temp>
<bpm>0</bpm>
<rpm>0.00</rpm>
</extensions>
</trkpt>
<trkpt lat="30.610967636" lon="34.856494904">
<ele>484.460938</ele>
<time>2013-11-23T11:40:04Z</time>
<speed>2.230000</speed>
<extensions>
<speed>2.2</speed>
<temp>0.00</temp>
<bpm>0</bpm>
<rpm>0.00</rpm>
</extensions>
</trkpt>
<trkpt lat="30.610971451" lon="34.856632233">
<ele>484.148438</ele>
<time>2013-11-23T11:40:09Z</time>
<speed>2.420000</speed>
<extensions>
<speed>2.4</speed>
<temp>0.00</temp>
<bpm>0</bpm>
<rpm>0.00</rpm>
</extensions>
</trkpt>
<trkpt lat="30.610980988" lon="34.856781006">
<ele>484.289063</ele>
<time>2013-11-23T11:40:14Z</time>
<speed>3.160000</speed>
<extensions>
<speed>3.2</speed>
<temp>0.00</temp>
<bpm>0</bpm>
<rpm>0.00</rpm>
</extensions>
</trkpt>
<trkpt lat="30.611028671" lon="34.856918335">
<ele>484.296875</ele>
<time>2013-11-23T11:40:19Z</time>
<speed>2.530000</speed>
<extensions>
<speed>2.5</speed>
<temp>0.00</temp>
<bpm>0</bpm>
<rpm>0.00</rpm>
</extensions>
</trkpt>
<trkpt lat="30.611091614" lon="34.857013702">
<ele>483.843750</ele>
<time>2013-11-23T11:40:24Z</time>
<speed>1.750000</speed>
<extensions>
<speed>1.8</speed>
<temp>0.00</temp>
<bpm>0</bpm>
<rpm>0.00</rpm>
</extensions>
</trkpt>
<trkpt lat="30.611158371" lon="34.857082367">
<ele>483.304688</ele>
<time>2013-11-23T11:40:29Z</time>
<speed>2.160000</speed>
<extensions>
<speed>2.2</speed>
<temp>0.00</temp>
<bpm>0</bpm>
<rpm>0.00</rpm>
</extensions>
</trkpt>
<trkpt lat="30.611207962" lon="34.857173920">
<ele>483.484375</ele>
<time>2013-11-23T11:40:34Z</time>
<speed>2.430000</speed>
<extensions>
<speed>2.4</speed>
<temp>0.00</temp>
<bpm>0</bpm>
<rpm>0.00</rpm>
</extensions>
</trkpt>
<trkpt lat="30.611257553" lon="34.857196808">
<ele>483.273438</ele>
<time>2013-11-23T11:40:39Z</time>
<speed>1.160000</speed>
<extensions>
<speed>1.2</speed>
<temp>0.00</temp>
<bpm>0</bpm>
<rpm>0.00</rpm>
</extensions>
</trkpt>
<trkpt lat="30.611364365" lon="34.857189178">
<ele>482.671875</ele>
<time>2013-11-23T11:40:44Z</time>
<speed>2.610000</speed>
<extensions>
<speed>2.6</speed>
<temp>0.00</temp>
<bpm>0</bpm>
<rpm>0.00</rpm>
</extensions>
</trkpt>
<trkpt lat="30.611455917" lon="34.857223511">
<ele>482.148438</ele>
<time>2013-11-23T11:40:49Z</time>
<speed>1.510000</speed>
<extensions>
<speed>1.5</speed>
<temp>0.00</temp>
<bpm>0</bpm>
<rpm>0.00</rpm>
</extensions>
</trkpt>
<trkpt lat="30.611520767" lon="34.857265472">
<ele>481.937500</ele>
<time>2013-11-23T11:40:54Z</time>
<speed>1.950000</speed>
<extensions>
<speed>1.9</speed>
<temp>0.00</temp>
<bpm>0</bpm>
<rpm>0.00</rpm>
</extensions>
</trkpt>
<trkpt lat="30.611583710" lon="34.857318878">
<ele>481.992188</ele>
<time>2013-11-23T11:40:59Z</time>
<speed>1.470000</speed>
<extensions>
<speed>1.5</speed>
<temp>0.00</temp>
<bpm>0</bpm>
<rpm>0.00</rpm>
</extensions>
</trkpt>
<trkpt lat="30.611640930" lon="34.857372284">
<ele>481.656250</ele>
<time>2013-11-23T11:41:04Z</time>
<speed>1.850000</speed>
<extensions>
<speed>1.8</speed>
<temp>0.00</temp>
<bpm>0</bpm>
<rpm>0.00</rpm>
</extensions>
</trkpt>
<trkpt lat="30.611719131" lon="34.857429504">
<ele>481.343750</ele>
<time>2013-11-23T11:41:09Z</time>
<speed>1.620000</speed>
<extensions>
<speed>1.6</speed>
<temp>0.00</temp>
<bpm>0</bpm>
<rpm>0.00</rpm>
</extensions>
</trkpt>
<trkpt lat="30.611789703" lon="34.857471466">
<ele>481.320313</ele>
<time>2013-11-23T11:41:14Z</time>
<speed>1.800000</speed>
<extensions>
<speed>1.8</speed>
<temp>0.00</temp>
<bpm>0</bpm>
<rpm>0.00</rpm>
</extensions>
</trkpt>
<trkpt lat="30.611867905" lon="34.857521057">
<ele>481.054688</ele>
<time>2013-11-23T11:41:19Z</time>
<speed>2.540000</speed>
<extensions>
<speed>2.5</speed>
<temp>0.00</temp>
<bpm>0</bpm>
<rpm>0.00</rpm>
</extensions>
</trkpt>
<trkpt lat="30.611972809" lon="34.857578278">
<ele>480.703125</ele>
<time>2013-11-23T11:41:24Z</time>
<speed>1.990000</speed>
<extensions>
<speed>2.0</speed>
<temp>0.00</temp>
<bpm>0</bpm>
<rpm>0.00</rpm>
</extensions>
</trkpt>
<trkpt lat="30.612064362" lon="34.857624054">
<ele>480.382813</ele>
<time>2013-11-23T11:41:29Z</time>
<speed>2.610000</speed>
<extensions>
<speed>2.6</speed>
<temp>0.00</temp>
<bpm>0</bpm>
<rpm>0.00</rpm>
</extensions>
</trkpt>
<trkpt lat="30.612115860" lon="34.857658386">
<ele>480.570313</ele>
<time>2013-11-23T11:41:34Z</time>
<speed>1.030000</speed>
<extensions>
<speed>1.0</speed>
<temp>0.00</temp>
<bpm>0</bpm>
<rpm>0.00</rpm>
</extensions>
</trkpt>
<trkpt lat="30.612197876" lon="34.857704163">
<ele>480.914063</ele>
<time>2013-11-23T11:41:39Z</time>
<speed>2.410000</speed>
<extensions>
<speed>2.4</speed>
<temp>0.00</temp>
<bpm>0</bpm>
<rpm>0.00</rpm>
</extensions>
</trkpt>
<trkpt lat="30.612287521" lon="34.857738495">
<ele>480.843750</ele>
<time>2013-11-23T11:41:44Z</time>
<speed>1.860000</speed>
<extensions>
<speed>1.9</speed>
<temp>0.00</temp>
<bpm>0</bpm>
<rpm>0.00</rpm>
</extensions>
</trkpt>
<trkpt lat="30.612373352" lon="34.857784271">
<ele>480.781250</ele>
<time>2013-11-23T11:41:49Z</time>
<speed>2.480000</speed>
<extensions>
<speed>2.5</speed>
<temp>0.00</temp>
<bpm>0</bpm>
<rpm>0.00</rpm>
</extensions>
</trkpt>
<trkpt lat="30.612464905" lon="34.857814789">
<ele>480.757813</ele>
<time>2013-11-23T11:41:54Z</time>
<speed>1.760000</speed>
<extensions>
<speed>1.8</speed>
<temp>0.00</temp>
<bpm>0</bpm>
<rpm>0.00</rpm>
</extensions>
</trkpt>
<trkpt lat="30.612527847" lon="34.857807159">
<ele>480.531250</ele>
<time>2013-11-23T11:41:59Z</time>
<speed>1.570000</speed>
<extensions>
<speed>1.6</speed>
<temp>0.00</temp>
<bpm>0</bpm>
<rpm>0.00</rpm>
</extensions>
</trkpt>
<trkpt lat="30.612585068" lon="34.857795715">
<ele>480.234375</ele>
<time>2013-11-23T11:42:04Z</time>
<speed>0.950000</speed>
<extensions>
<speed>1.0</speed>
<temp>0.00</temp>
<bpm>0</bpm>
<rpm>0.00</rpm>
</extensions>
</trkpt>
<trkpt lat="30.612640381" lon="34.857757568">
<ele>480.656250</ele>
<time>2013-11-23T11:42:09Z</time>
<speed>2.080000</speed>
<extensions>
<speed>2.1</speed>
<temp>0.00</temp>
<bpm>0</bpm>
<rpm>0.00</rpm>
</extensions>
</trkpt>
<trkpt lat="30.612697601" lon="34.857627869">
<ele>480.890625</ele>
<time>2013-11-23T11:42:14Z</time>
<speed>2.540000</speed>
<extensions>
<speed>2.5</speed>
<temp>0.00</temp>
<bpm>0</bpm>
<rpm>0.00</rpm>
</extensions>
</trkpt>
<trkpt lat="30.612674713" lon="34.857490540">
<ele>482.734375</ele>
<time>2013-11-23T11:42:19Z</time>
<speed>2.220000</speed>
<extensions>
<speed>2.2</speed>
<temp>0.00</temp>
<bpm>0</bpm>
<rpm>0.00</rpm>
</extensions>
</trkpt>
<trkpt lat="30.612634659" lon="34.857391357">
<ele>483.578125</ele>
<time>2013-11-23T11:42:24Z</time>
<speed>2.300000</speed>
<extensions>
<speed>2.3</speed>
<temp>0.00</temp>
<bpm>0</bpm>
<rpm>0.00</rpm>
</extensions>
</trkpt>
<trkpt lat="30.612651825" lon="34.857254028">
<ele>483.273438</ele>
<time>2013-11-23T11:42:29Z</time>
<speed>3.100000</speed>
<extensions>
<speed>3.1</speed>
<temp>0.00</temp>
<bpm>0</bpm>
<rpm>0.00</rpm>
</extensions>
</trkpt>
<trkpt lat="30.612674713" lon="34.857116699">
<ele>482.843750</ele>
<time>2013-11-23T11:42:34Z</time>
<speed>2.950000</speed>
<extensions>
<speed>2.9</speed>
<temp>0.00</temp>
<bpm>0</bpm>
<rpm>0.00</rpm>
</extensions>
</trkpt>
<trkpt lat="30.612686157" lon="34.856987000">
<ele>482.132813</ele>
<time>2013-11-23T11:42:39Z</time>
<speed>2.020000</speed>
<extensions>
<speed>2.0</speed>
<temp>0.00</temp>
<bpm>0</bpm>
<rpm>0.00</rpm>
</extensions>
</trkpt>
<trkpt lat="30.612686157" lon="34.856868744">
<ele>481.890625</ele>
<time>2013-11-23T11:42:44Z</time>
<speed>2.930000</speed>
<extensions>
<speed>2.9</speed>
<temp>0.00</temp>
<bpm>0</bpm>
<rpm>0.00</rpm>
</extensions>
</trkpt>
<trkpt lat="30.612703323" lon="34.856719971">
<ele>481.609375</ele>
<time>2013-11-23T11:42:49Z</time>
<speed>2.180000</speed>
<extensions>
<speed>2.2</speed>
<temp>0.00</temp>
<bpm>0</bpm>
<rpm>0.00</rpm>
</extensions>
</trkpt>
<trkpt lat="30.612730026" lon="34.856609344">
<ele>481.781250</ele>
<time>2013-11-23T11:42:54Z</time>
<speed>2.540000</speed>
<extensions>
<speed>2.5</speed>
<temp>0.00</temp>
<bpm>0</bpm>
<rpm>0.00</rpm>
</extensions>
</trkpt>
<trkpt lat="30.612781525" lon="34.856487274">
<ele>481.750000</ele>
<time>2013-11-23T11:42:59Z</time>
<speed>2.640000</speed>
<extensions>
<speed>2.6</speed>
<temp>0.00</temp>
<bpm>0</bpm>
<rpm>0.00</rpm>
</extensions>
</trkpt>
<trkpt lat="30.612852097" lon="34.856357574">
<ele>482.101563</ele>
<time>2013-11-23T11:43:04Z</time>
<speed>2.670000</speed>
<extensions>
<speed>2.7</speed>
<temp>0.00</temp>
<bpm>0</bpm>
<rpm>0.00</rpm>
</extensions>
</trkpt>
<trkpt lat="30.612915039" lon="34.856246948">
<ele>482.500000</ele>
<time>2013-11-23T11:43:09Z</time>
<speed>2.580000</speed>
<extensions>
<speed>2.6</speed>
<temp>0.00</temp>
<bpm>0</bpm>
<rpm>0.00</rpm>
</extensions>
</trkpt>
<trkpt lat="30.612955093" lon="34.856101990">
<ele>482.898438</ele>
<time>2013-11-23T11:43:14Z</time>
<speed>2.860000</speed>
<extensions>
<speed>2.9</speed>
<temp>0.00</temp>
<bpm>0</bpm>
<rpm>0.00</rpm>
</extensions>
</trkpt>
<trkpt lat="30.613025665" lon="34.855972290">
<ele>483.500000</ele>
<time>2013-11-23T11:43:19Z</time>
<speed>2.960000</speed>
<extensions>
<speed>3.0</speed>
<temp>0.00</temp>
<bpm>0</bpm>
<rpm>0.00</rpm>
</extensions>
</trkpt>
<trkpt lat="30.613077164" lon="34.855876923">
<ele>484.335938</ele>
<time>2013-11-23T11:43:24Z</time>
<speed>1.510000</speed>
<extensions>
<speed>1.5</speed>
<temp>0.00</temp>
<bpm>0</bpm>
<rpm>0.00</rpm>
</extensions>
</trkpt>
<trkpt lat="30.613105774" lon="34.855812073">
<ele>485.179688</ele>
<time>2013-11-23T11:43:29Z</time>
<speed>1.540000</speed>
<extensions>
<speed>1.5</speed>
<temp>0.00</temp>
<bpm>0</bpm>
<rpm>0.00</rpm>
</extensions>
</trkpt>
<trkpt lat="30.613142014" lon="34.855735779">
<ele>486.359375</ele>
<time>2013-11-23T11:43:34Z</time>
<speed>1.380000</speed>
<extensions>
<speed>1.4</speed>
<temp>0.00</temp>
<bpm>0</bpm>
<rpm>0.00</rpm>
</extensions>
</trkpt>
<trkpt lat="30.613180161" lon="34.855678558">
<ele>487.679688</ele>
<time>2013-11-23T11:43:39Z</time>
<speed>1.380000</speed>
<extensions>
<speed>1.4</speed>
<temp>0.00</temp>
<bpm>0</bpm>
<rpm>0.00</rpm>
</extensions>
</trkpt>
<trkpt lat="30.613216400" lon="34.855628967">
<ele>489.234375</ele>
<time>2013-11-23T11:43:44Z</time>
<speed>1.110000</speed>
<extensions>
<speed>1.1</speed>
<temp>0.00</temp>
<bpm>0</bpm>
<rpm>0.00</rpm>
</extensions>
</trkpt>
<trkpt lat="30.613245010" lon="34.855583191">
<ele>490.359375</ele>
<time>2013-11-23T11:43:49Z</time>
<speed>1.250000</speed>
<extensions>
<speed>1.3</speed>
<temp>0.00</temp>
<bpm>0</bpm>
<rpm>0.00</rpm>
</extensions>
</trkpt>
<trkpt lat="30.613277435" lon="34.855529785">
<ele>491.421875</ele>
<time>2013-11-23T11:43:54Z</time>
<speed>1.330000</speed>
<extensions>
<speed>1.3</speed>
<temp>0.00</temp>
<bpm>0</bpm>
<rpm>0.00</rpm>
</extensions>
</trkpt>
<trkpt lat="30.613313675" lon="34.855480194">
<ele>491.906250</ele>
<time>2013-11-23T11:43:59Z</time>
<speed>1.240000</speed>
<extensions>
<speed>1.2</speed>
<temp>0.00</temp>
<bpm>0</bpm>
<rpm>0.00</rpm>
</extensions>
</trkpt>
<trkpt lat="30.613351822" lon="34.855430603">
<ele>492.593750</ele>
<time>2013-11-23T11:44:04Z</time>
<speed>1.230000</speed>
<extensions>
<speed>1.2</speed>
<temp>0.00</temp>
<bpm>0</bpm>
<rpm>0.00</rpm>
</extensions>
</trkpt>
<trkpt lat="30.613389969" lon="34.855384827">
<ele>492.882813</ele>
<time>2013-11-23T11:44:09Z</time>
<speed>1.170000</speed>
<extensions>
<speed>1.2</speed>
<temp>0.00</temp>
<bpm>0</bpm>
<rpm>0.00</rpm>
</extensions>
</trkpt>
<trkpt lat="30.613433838" lon="34.855346680">
<ele>493.429688</ele>
<time>2013-11-23T11:44:14Z</time>
<speed>0.970000</speed>
<extensions>
<speed>1.0</speed>
<temp>0.00</temp>
<bpm>0</bpm>
<rpm>0.00</rpm>
</extensions>
</trkpt>
<trkpt lat="30.613470078" lon="34.855304718">
<ele>493.539063</ele>
<time>2013-11-23T11:44:19Z</time>
<speed>0.810000</speed>
<extensions>
<speed>0.8</speed>
<temp>0.00</temp>
<bpm>0</bpm>
<rpm>0.00</rpm>
</extensions>
</trkpt>
<trkpt lat="30.613500595" lon="34.855262756">
<ele>494.062500</ele>
<time>2013-11-23T11:44:24Z</time>
<speed>1.090000</speed>
<extensions>
<speed>1.1</speed>
<temp>0.00</temp>
<bpm>0</bpm>
<rpm>0.00</rpm>
</extensions>
</trkpt>
<trkpt lat="30.613542557" lon="34.855243683">
<ele>494.765625</ele>
<time>2013-11-23T11:44:29Z</time>
<speed>1.220000</speed>
<extensions>
<speed>1.2</speed>
<temp>0.00</temp>
<bpm>0</bpm>
<rpm>0.00</rpm>
</extensions>
</trkpt>
<trkpt lat="30.613567352" lon="34.855224609">
<ele>496.164063</ele>
<time>2013-11-23T11:44:34Z</time>
<speed>0.870000</speed>
<extensions>
<speed>0.9</speed>
<temp>0.00</temp>
<bpm>0</bpm>
<rpm>0.00</rpm>
</extensions>
</trkpt>
<trkpt lat="30.613618851" lon="34.855239868">
<ele>497.101563</ele>
<time>2013-11-23T11:44:39Z</time>
<speed>0.820000</speed>
<extensions>
<speed>0.8</speed>
<temp>0.00</temp>
<bpm>0</bpm>
<rpm>0.00</rpm>
</extensions>
</trkpt>
<trkpt lat="30.613660812" lon="34.855216980">
<ele>497.179688</ele>
<time>2013-11-23T11:44:44Z</time>
<speed>1.000000</speed>
<extensions>
<speed>1.0</speed>
<temp>0.00</temp>
<bpm>0</bpm>
<rpm>0.00</rpm>
</extensions>
</trkpt>
<trkpt lat="30.613668442" lon="34.855190277">
<ele>496.562500</ele>
<time>2013-11-23T11:44:49Z</time>
<speed>0.210000</speed>
<extensions>
<speed>0.2</speed>
<temp>0.00</temp>
<bpm>0</bpm>
<rpm>0.00</rpm>
</extensions>
</trkpt>
<trkpt lat="30.613672256" lon="34.855186462">
<ele>496.554688</ele>
<time>2013-11-23T11:44:54Z</time>
<speed>0.050000</speed>
<extensions>
<speed>0.1</speed>
<temp>0.00</temp>
<bpm>0</bpm>
<rpm>0.00</rpm>
</extensions>
</trkpt>
<trkpt lat="30.613672256" lon="34.855186462">
<ele>496.445313</ele>
<time>2013-11-23T11:44:59Z</time>
<speed>0.120000</speed>
<extensions>
<speed>0.1</speed>
<temp>0.00</temp>
<bpm>0</bpm>
<rpm>0.00</rpm>
</extensions>
</trkpt>
<trkpt lat="30.613672256" lon="34.855182648">
<ele>496.296875</ele>
<time>2013-11-23T11:45:04Z</time>
<speed>0.010000</speed>
<extensions>
<speed>0.0</speed>
<temp>0.00</temp>
<bpm>0</bpm>
<rpm>0.00</rpm>
</extensions>
</trkpt>
<trkpt lat="30.613672256" lon="34.855182648">
<ele>496.257813</ele>
<time>2013-11-23T11:45:09Z</time>
<speed>0.010000</speed>
<extensions>
<speed>0.0</speed>
<temp>0.00</temp>
<bpm>0</bpm>
<rpm>0.00</rpm>
</extensions>
</trkpt>
<trkpt lat="30.613672256" lon="34.855182648">
<ele>496.250000</ele>
<time>2013-11-23T11:45:14Z</time>
<extensions>
<speed>0.0</speed>
<temp>0.00</temp>
<bpm>0</bpm>
<rpm>0.00</rpm>
</extensions>
</trkpt>
<trkpt lat="30.613670349" lon="34.855182648">
<ele>496.164063</ele>
<time>2013-11-23T11:45:19Z</time>
<speed>0.010000</speed>
<extensions>
<speed>0.0</speed>
<temp>0.00</temp>
<bpm>0</bpm>
<rpm>0.00</rpm>
</extensions>
</trkpt>
<trkpt lat="30.613670349" lon="34.855182648">
<ele>496.156250</ele>
<time>2013-11-23T11:45:24Z</time>
<speed>0.010000</speed>
<extensions>
<speed>0.0</speed>
<temp>0.00</temp>
<bpm>0</bpm>
<rpm>0.00</rpm>
</extensions>
</trkpt>
<trkpt lat="30.613670349" lon="34.855182648">
<ele>496.156250</ele>
<time>2013-11-23T11:45:29Z</time>
<extensions>
<speed>0.0</speed>
<temp>0.00</temp>
<bpm>0</bpm>
<rpm>0.00</rpm>
</extensions>
</trkpt>
<trkpt lat="30.613670349" lon="34.855182648">
<ele>496.148438</ele>
<time>2013-11-23T11:45:34Z</time>
<extensions>
<speed>0.0</speed>
<temp>0.00</temp>
<bpm>0</bpm>
<rpm>0.00</rpm>
</extensions>
</trkpt>
<trkpt lat="30.613670349" lon="34.855182648">
<ele>496.148438</ele>
<time>2013-11-23T11:45:39Z</time>
<extensions>
<speed>0.0</speed>
<temp>0.00</temp>
<bpm>0</bpm>
<rpm>0.00</rpm>
</extensions>
</trkpt>
<trkpt lat="30.613670349" lon="34.855182648">
<ele>496.140625</ele>
<time>2013-11-23T11:45:44Z</time>
<extensions>
<speed>0.0</speed>
<temp>0.00</temp>
<bpm>0</bpm>
<rpm>0.00</rpm>
</extensions>
</trkpt>
<trkpt lat="30.613670349" lon="34.855182648">
<ele>496.125000</ele>
<time>2013-11-23T11:45:49Z</time>
<speed>0.030000</speed>
<extensions>
<speed>0.0</speed>
<temp>0.00</temp>
<bpm>0</bpm>
<rpm>0.00</rpm>
</extensions>
</trkpt>
<trkpt lat="30.613677979" lon="34.855178833">
<ele>496.187500</ele>
<time>2013-11-23T11:45:54Z</time>
<speed>0.030000</speed>
<extensions>
<speed>0.0</speed>
<temp>0.00</temp>
<bpm>0</bpm>
<rpm>0.00</rpm>
</extensions>
</trkpt>
<trkpt lat="30.613679886" lon="34.855178833">
<ele>496.195313</ele>
<time>2013-11-23T11:45:59Z</time>
<speed>0.010000</speed>
<extensions>
<speed>0.0</speed>
<temp>0.00</temp>
<bpm>0</bpm>
<rpm>0.00</rpm>
</extensions>
</trkpt>
<trkpt lat="30.613679886" lon="34.855178833">
<ele>496.195313</ele>
<time>2013-11-23T11:46:04Z</time>
<speed>0.100000</speed>
<extensions>
<speed>0.1</speed>
<temp>0.00</temp>
<bpm>0</bpm>
<rpm>0.00</rpm>
</extensions>
</trkpt>
<trkpt lat="30.613679886" lon="34.855178833">
<ele>496.218750</ele>
<time>2013-11-23T11:46:09Z</time>
<speed>0.040000</speed>
<extensions>
<speed>0.0</speed>
<temp>0.00</temp>
<bpm>0</bpm>
<rpm>0.00</rpm>
</extensions>
</trkpt>
<trkpt lat="30.613679886" lon="34.855178833">
<ele>496.203125</ele>
<time>2013-11-23T11:46:14Z</time>
<extensions>
<speed>0.0</speed>
<temp>0.00</temp>
<bpm>0</bpm>
<rpm>0.00</rpm>
</extensions>
</trkpt>
<trkpt lat="30.613679886" lon="34.855178833">
<ele>496.203125</ele>
<time>2013-11-23T11:46:19Z</time>
<extensions>
<speed>0.0</speed>
<temp>0.00</temp>
<bpm>0</bpm>
<rpm>0.00</rpm>
</extensions>
</trkpt>
<trkpt lat="30.613679886" lon="34.855178833">
<ele>496.203125</ele>
<time>2013-11-23T11:46:24Z</time>
<extensions>
<speed>0.0</speed>
<temp>0.00</temp>
<bpm>0</bpm>
<rpm>0.00</rpm>
</extensions>
</trkpt>
<trkpt lat="30.613679886" lon="34.855178833">
<ele>496.203125</ele>
<time>2013-11-23T11:46:29Z</time>
<extensions>
<speed>0.0</speed>
<temp>0.00</temp>
<bpm>0</bpm>
<rpm>0.00</rpm>
</extensions>
</trkpt>
<trkpt lat="30.613679886" lon="34.855178833">
<ele>496.203125</ele>
<time>2013-11-23T11:46:34Z</time>
<speed>0.260000</speed>
<extensions>
<speed>0.3</speed>
<temp>0.00</temp>
<bpm>0</bpm>
<rpm>0.00</rpm>
</extensions>
</trkpt>
<trkpt lat="30.613681793" lon="34.855167389">
<ele>496.648438</ele>
<time>2013-11-23T11:46:39Z</time>
<speed>0.020000</speed>
<extensions>
<speed>0.0</speed>
<temp>0.00</temp>
<bpm>0</bpm>
<rpm>0.00</rpm>
</extensions>
</trkpt>
<trkpt lat="30.613681793" lon="34.855167389">
<ele>496.656250</ele>
<time>2013-11-23T11:46:44Z</time>
<speed>0.010000</speed>
<extensions>
<speed>0.0</speed>
<temp>0.00</temp>
<bpm>0</bpm>
<rpm>0.00</rpm>
</extensions>
</trkpt>
<trkpt lat="30.613681793" lon="34.855167389">
<ele>496.664063</ele>
<time>2013-11-23T11:46:49Z</time>
<extensions>
<speed>0.0</speed>
<temp>0.00</temp>
<bpm>0</bpm>
<rpm>0.00</rpm>
</extensions>
</trkpt>
<trkpt lat="30.613681793" lon="34.855167389">
<ele>496.671875</ele>
<time>2013-11-23T11:46:54Z</time>
<speed>0.040000</speed>
<extensions>
<speed>0.0</speed>
<temp>0.00</temp>
<bpm>0</bpm>
<rpm>0.00</rpm>
</extensions>
</trkpt>
<trkpt lat="30.613687515" lon="34.855171204">
<ele>496.609375</ele>
<time>2013-11-23T11:46:59Z</time>
<speed>0.840000</speed>
<extensions>
<speed>0.8</speed>
<temp>0.00</temp>
<bpm>0</bpm>
<rpm>0.00</rpm>
</extensions>
</trkpt>
<trkpt lat="30.613693237" lon="34.855175018">
<ele>496.296875</ele>
<time>2013-11-23T11:47:04Z</time>
<speed>0.020000</speed>
<extensions>
<speed>0.0</speed>
<temp>0.00</temp>
<bpm>0</bpm>
<rpm>0.00</rpm>
</extensions>
</trkpt>
<trkpt lat="30.613693237" lon="34.855175018">
<ele>496.234375</ele>
<time>2013-11-23T11:47:09Z</time>
<speed>0.020000</speed>
<extensions>
<speed>0.0</speed>
<temp>0.00</temp>
<bpm>0</bpm>
<rpm>0.00</rpm>
</extensions>
</trkpt>
<trkpt lat="30.613693237" lon="34.855175018">
<ele>496.226563</ele>
<time>2013-11-23T11:47:14Z</time>
<speed>0.110000</speed>
<extensions>
<speed>0.1</speed>
<temp>0.00</temp>
<bpm>0</bpm>
<rpm>0.00</rpm>
</extensions>
</trkpt>
<trkpt lat="30.613691330" lon="34.855175018">
<ele>496.187500</ele>
<time>2013-11-23T11:47:19Z</time>
<speed>0.090000</speed>
<extensions>
<speed>0.1</speed>
<temp>0.00</temp>
<bpm>0</bpm>
<rpm>0.00</rpm>
</extensions>
</trkpt>
<trkpt lat="30.613693237" lon="34.855171204">
<ele>496.195313</ele>
<time>2013-11-23T11:47:24Z</time>
<speed>0.020000</speed>
<extensions>
<speed>0.0</speed>
<temp>0.00</temp>
<bpm>0</bpm>
<rpm>0.00</rpm>
</extensions>
</trkpt>
<trkpt lat="30.613693237" lon="34.855171204">
<ele>496.187500</ele>
<time>2013-11-23T11:47:29Z</time>
<extensions>
<speed>0.0</speed>
<temp>0.00</temp>
<bpm>0</bpm>
<rpm>0.00</rpm>
</extensions>
</trkpt>
<trkpt lat="30.613691330" lon="34.855171204">
<ele>496.132813</ele>
<time>2013-11-23T11:47:34Z</time>
<speed>0.010000</speed>
<extensions>
<speed>0.0</speed>
<temp>0.00</temp>
<bpm>0</bpm>
<rpm>0.00</rpm>
</extensions>
</trkpt>
<trkpt lat="30.613691330" lon="34.855171204">
<ele>496.132813</ele>
<time>2013-11-23T11:47:39Z</time>
<speed>0.010000</speed>
<extensions>
<speed>0.0</speed>
<temp>0.00</temp>
<bpm>0</bpm>
<rpm>0.00</rpm>
</extensions>
</trkpt>
<trkpt lat="30.613691330" lon="34.855171204">
<ele>496.132813</ele>
<time>2013-11-23T11:47:44Z</time>
<speed>0.010000</speed>
<extensions>
<speed>0.0</speed>
<temp>0.00</temp>
<bpm>0</bpm>
<rpm>0.00</rpm>
</extensions>
</trkpt>
<trkpt lat="30.613691330" lon="34.855171204">
<ele>496.125000</ele>
<time>2013-11-23T11:47:49Z</time>
<speed>0.010000</speed>
<extensions>
<speed>0.0</speed>
<temp>0.00</temp>
<bpm>0</bpm>
<rpm>0.00</rpm>
</extensions>
</trkpt>
<trkpt lat="30.613693237" lon="34.855171204">
<ele>496.125000</ele>
<time>2013-11-23T11:47:54Z</time>
<speed>0.010000</speed>
<extensions>
<speed>0.0</speed>
<temp>0.00</temp>
<bpm>0</bpm>
<rpm>0.00</rpm>
</extensions>
</trkpt>
<trkpt lat="30.613693237" lon="34.855171204">
<ele>496.132813</ele>
<time>2013-11-23T11:47:59Z</time>
<speed>0.010000</speed>
<extensions>
<speed>0.0</speed>
<temp>0.00</temp>
<bpm>0</bpm>
<rpm>0.00</rpm>
</extensions>
</trkpt>
<trkpt lat="30.613693237" lon="34.855171204">
<ele>496.132813</ele>
<time>2013-11-23T11:48:04Z</time>
<extensions>
<speed>0.0</speed>
<temp>0.00</temp>
<bpm>0</bpm>
<rpm>0.00</rpm>
</extensions>
</trkpt>
<trkpt lat="30.613693237" lon="34.855171204">
<ele>496.132813</ele>
<time>2013-11-23T11:48:09Z</time>
<extensions>
<speed>0.0</speed>
<temp>0.00</temp>
<bpm>0</bpm>
<rpm>0.00</rpm>
</extensions>
</trkpt>
<trkpt lat="30.613693237" lon="34.855171204">
<ele>496.132813</ele>
<time>2013-11-23T11:48:14Z</time>
<extensions>
<speed>0.0</speed>
<temp>0.00</temp>
<bpm>0</bpm>
<rpm>0.00</rpm>
</extensions>
</trkpt>
<trkpt lat="30.613693237" lon="34.855171204">
<ele>496.132813</ele>
<time>2013-11-23T11:48:19Z</time>
<speed>0.010000</speed>
<extensions>
<speed>0.0</speed>
<temp>0.00</temp>
<bpm>0</bpm>
<rpm>0.00</rpm>
</extensions>
</trkpt>
<trkpt lat="30.613693237" lon="34.855171204">
<ele>496.140625</ele>
<time>2013-11-23T11:48:24Z</time>
<extensions>
<speed>0.0</speed>
<temp>0.00</temp>
<bpm>0</bpm>
<rpm>0.00</rpm>
</extensions>
</trkpt>
<trkpt lat="30.613693237" lon="34.855171204">
<ele>496.140625</ele>
<time>2013-11-23T11:48:29Z</time>
<extensions>
<speed>0.0</speed>
<temp>0.00</temp>
<bpm>0</bpm>
<rpm>0.00</rpm>
</extensions>
</trkpt>
<trkpt lat="30.613693237" lon="34.855171204">
<ele>496.140625</ele>
<time>2013-11-23T11:48:34Z</time>
<speed>0.010000</speed>
<extensions>
<speed>0.0</speed>
<temp>0.00</temp>
<bpm>0</bpm>
<rpm>0.00</rpm>
</extensions>
</trkpt>
<trkpt lat="30.613693237" lon="34.855171204">
<ele>496.148438</ele>
<time>2013-11-23T11:48:39Z</time>
<speed>0.010000</speed>
<extensions>
<speed>0.0</speed>
<temp>0.00</temp>
<bpm>0</bpm>
<rpm>0.00</rpm>
</extensions>
</trkpt>
<trkpt lat="30.613693237" lon="34.855171204">
<ele>496.156250</ele>
<time>2013-11-23T11:48:44Z</time>
<speed>0.010000</speed>
<extensions>
<speed>0.0</speed>
<temp>0.00</temp>
<bpm>0</bpm>
<rpm>0.00</rpm>
</extensions>
</trkpt>
<trkpt lat="30.613693237" lon="34.855171204">
<ele>496.156250</ele>
<time>2013-11-23T11:48:49Z</time>
<extensions>
<speed>0.0</speed>
<temp>0.00</temp>
<bpm>0</bpm>
<rpm>0.00</rpm>
</extensions>
</trkpt>
<trkpt lat="30.613693237" lon="34.855171204">
<ele>496.164063</ele>
<time>2013-11-23T11:48:54Z</time>
<extensions>
<speed>0.0</speed>
<temp>0.00</temp>
<bpm>0</bpm>
<rpm>0.00</rpm>
</extensions>
</trkpt>
<trkpt lat="30.613693237" lon="34.855171204">
<ele>496.171875</ele>
<time>2013-11-23T11:48:59Z</time>
<extensions>
<speed>0.0</speed>
<temp>0.00</temp>
<bpm>0</bpm>
<rpm>0.00</rpm>
</extensions>
</trkpt>
<trkpt lat="30.613693237" lon="34.855171204">
<ele>496.179688</ele>
<time>2013-11-23T11:49:04Z</time>
<extensions>
<speed>0.0</speed>
<temp>0.00</temp>
<bpm>0</bpm>
<rpm>0.00</rpm>
</extensions>
</trkpt>
<trkpt lat="30.613693237" lon="34.855171204">
<ele>496.187500</ele>
<time>2013-11-23T11:49:09Z</time>
<extensions>
<speed>0.0</speed>
<temp>0.00</temp>
<bpm>0</bpm>
<rpm>0.00</rpm>
</extensions>
</trkpt>
<trkpt lat="30.613695145" lon="34.855175018">
<ele>496.203125</ele>
<time>2013-11-23T11:49:14Z</time>
<speed>0.010000</speed>
<extensions>
<speed>0.0</speed>
<temp>0.00</temp>
<bpm>0</bpm>
<rpm>0.00</rpm>
</extensions>
</trkpt>
<trkpt lat="30.613695145" lon="34.855175018">
<ele>496.203125</ele>
<time>2013-11-23T11:49:19Z</time>
<extensions>
<speed>0.0</speed>
<temp>0.00</temp>
<bpm>0</bpm>
<rpm>0.00</rpm>
</extensions>
</trkpt>
<trkpt lat="30.613695145" lon="34.855175018">
<ele>496.210938</ele>
<time>2013-11-23T11:49:24Z</time>
<extensions>
<speed>0.0</speed>
<temp>0.00</temp>
<bpm>0</bpm>
<rpm>0.00</rpm>
</extensions>
</trkpt>
<trkpt lat="30.613695145" lon="34.855175018">
<ele>496.218750</ele>
<time>2013-11-23T11:49:29Z</time>
<extensions>
<speed>0.0</speed>
<temp>0.00</temp>
<bpm>0</bpm>
<rpm>0.00</rpm>
</extensions>
</trkpt>
<trkpt lat="30.613695145" lon="34.855175018">
<ele>496.218750</ele>
<time>2013-11-23T11:49:34Z</time>
<extensions>
<speed>0.0</speed>
<temp>0.00</temp>
<bpm>0</bpm>
<rpm>0.00</rpm>
</extensions>
</trkpt>
<trkpt lat="30.613695145" lon="34.855175018">
<ele>496.218750</ele>
<time>2013-11-23T11:49:39Z</time>
<speed>0.270000</speed>
<extensions>
<speed>0.3</speed>
<temp>0.00</temp>
<bpm>0</bpm>
<rpm>0.00</rpm>
</extensions>
</trkpt>
<trkpt lat="30.613697052" lon="34.855178833">
<ele>497.679688</ele>
<time>2013-11-23T11:49:44Z</time>
<speed>0.120000</speed>
<extensions>
<speed>0.1</speed>
<temp>0.00</temp>
<bpm>0</bpm>
<rpm>0.00</rpm>
</extensions>
</trkpt>
<trkpt lat="30.613708496" lon="34.855182648">
<ele>498.125000</ele>
<time>2013-11-23T11:49:49Z</time>
<speed>0.410000</speed>
<extensions>
<speed>0.4</speed>
<temp>0.00</temp>
<bpm>0</bpm>
<rpm>0.00</rpm>
</extensions>
</trkpt>
<trkpt lat="30.613704681" lon="34.855182648">
<ele>498.898438</ele>
<time>2013-11-23T11:49:54Z</time>
<speed>0.050000</speed>
<extensions>
<speed>0.1</speed>
<temp>0.00</temp>
<bpm>0</bpm>
<rpm>0.00</rpm>
</extensions>
</trkpt>
<trkpt lat="30.613704681" lon="34.855182648">
<ele>499.398438</ele>
<time>2013-11-23T11:49:59Z</time>
<speed>0.080000</speed>
<extensions>
<speed>0.1</speed>
<temp>0.00</temp>
<bpm>0</bpm>
<rpm>0.00</rpm>
</extensions>
</trkpt>
<trkpt lat="30.613702774" lon="34.855182648">
<ele>499.304688</ele>
<time>2013-11-23T11:50:04Z</time>
<speed>0.050000</speed>
<extensions>
<speed>0.1</speed>
<temp>0.00</temp>
<bpm>0</bpm>
<rpm>0.00</rpm>
</extensions>
</trkpt>
<trkpt lat="30.613702774" lon="34.855186462">
<ele>499.429688</ele>
<time>2013-11-23T11:50:09Z</time>
<speed>0.030000</speed>
<extensions>
<speed>0.0</speed>
<temp>0.00</temp>
<bpm>0</bpm>
<rpm>0.00</rpm>
</extensions>
</trkpt>
<trkpt lat="30.613702774" lon="34.855186462">
<ele>499.414063</ele>
<time>2013-11-23T11:50:14Z</time>
<speed>0.010000</speed>
<extensions>
<speed>0.0</speed>
<temp>0.00</temp>
<bpm>0</bpm>
<rpm>0.00</rpm>
</extensions>
</trkpt>
<trkpt lat="30.613702774" lon="34.855186462">
<ele>499.414063</ele>
<time>2013-11-23T11:50:19Z</time>
<speed>0.020000</speed>
<extensions>
<speed>0.0</speed>
<temp>0.00</temp>
<bpm>0</bpm>
<rpm>0.00</rpm>
</extensions>
</trkpt>
<trkpt lat="30.613702774" lon="34.855186462">
<ele>499.406250</ele>
<time>2013-11-23T11:50:24Z</time>
<speed>0.120000</speed>
<extensions>
<speed>0.1</speed>
<temp>0.00</temp>
<bpm>0</bpm>
<rpm>0.00</rpm>
</extensions>
</trkpt>
<trkpt lat="30.613700867" lon="34.855159760">
<ele>499.367188</ele>
<time>2013-11-23T11:50:29Z</time>
<speed>1.270000</speed>
<extensions>
<speed>1.3</speed>
<temp>0.00</temp>
<bpm>0</bpm>
<rpm>0.00</rpm>
</extensions>
</trkpt>
<trkpt lat="30.613721848" lon="34.855106354">
<ele>499.796875</ele>
<time>2013-11-23T11:50:34Z</time>
<speed>1.340000</speed>
<extensions>
<speed>1.3</speed>
<temp>0.00</temp>
<bpm>0</bpm>
<rpm>0.00</rpm>
</extensions>
</trkpt>
<trkpt lat="30.613775253" lon="34.855033875">
<ele>500.015625</ele>
<time>2013-11-23T11:50:39Z</time>
<speed>2.340000</speed>
<extensions>
<speed>2.3</speed>
<temp>0.00</temp>
<bpm>0</bpm>
<rpm>0.00</rpm>
</extensions>
</trkpt>
<trkpt lat="30.613849640" lon="34.854911804">
<ele>500.468750</ele>
<time>2013-11-23T11:50:44Z</time>
<speed>2.260000</speed>
<extensions>
<speed>2.3</speed>
<temp>0.00</temp>
<bpm>0</bpm>
<rpm>0.00</rpm>
</extensions>
</trkpt>
<trkpt lat="30.613889694" lon="34.854843140">
<ele>500.781250</ele>
<time>2013-11-23T11:50:49Z</time>
<speed>1.740000</speed>
<extensions>
<speed>1.7</speed>
<temp>0.00</temp>
<bpm>0</bpm>
<rpm>0.00</rpm>
</extensions>
</trkpt>
<trkpt lat="30.613939285" lon="34.854747772">
<ele>501.062500</ele>
<time>2013-11-23T11:50:54Z</time>
<speed>2.500000</speed>
<extensions>
<speed>2.5</speed>
<temp>0.00</temp>
<bpm>0</bpm>
<rpm>0.00</rpm>
</extensions>
</trkpt>
<trkpt lat="30.613988876" lon="34.854644775">
<ele>501.625000</ele>
<time>2013-11-23T11:50:59Z</time>
<speed>1.560000</speed>
<extensions>
<speed>1.6</speed>
<temp>0.00</temp>
<bpm>0</bpm>
<rpm>0.00</rpm>
</extensions>
</trkpt>
<trkpt lat="30.614038467" lon="34.854545593">
<ele>502.062500</ele>
<time>2013-11-23T11:51:04Z</time>
<speed>2.470000</speed>
<extensions>
<speed>2.5</speed>
<temp>0.00</temp>
<bpm>0</bpm>
<rpm>0.00</rpm>
</extensions>
</trkpt>
<trkpt lat="30.614089966" lon="34.854419708">
<ele>502.343750</ele>
<time>2013-11-23T11:51:09Z</time>
<speed>2.130000</speed>
<extensions>
<speed>2.1</speed>
<temp>0.00</temp>
<bpm>0</bpm>
<rpm>0.00</rpm>
</extensions>
</trkpt>
<trkpt lat="30.614116669" lon="34.854335785">
<ele>502.273438</ele>
<time>2013-11-23T11:51:14Z</time>
<speed>1.390000</speed>
<extensions>
<speed>1.4</speed>
<temp>0.00</temp>
<bpm>0</bpm>
<rpm>0.00</rpm>
</extensions>
</trkpt>
<trkpt lat="30.614141464" lon="34.854278564">
<ele>502.468750</ele>
<time>2013-11-23T11:51:19Z</time>
<speed>1.900000</speed>
<extensions>
<speed>1.9</speed>
<temp>0.00</temp>
<bpm>0</bpm>
<rpm>0.00</rpm>
</extensions>
</trkpt>
<trkpt lat="30.614187241" lon="34.854160309">
<ele>503.132813</ele>
<time>2013-11-23T11:51:24Z</time>
<speed>3.030000</speed>
<extensions>
<speed>3.0</speed>
<temp>0.00</temp>
<bpm>0</bpm>
<rpm>0.00</rpm>
</extensions>
</trkpt>
<trkpt lat="30.614227295" lon="34.854053497">
<ele>503.820313</ele>
<time>2013-11-23T11:51:29Z</time>
<speed>2.270000</speed>
<extensions>
<speed>2.3</speed>
<temp>0.00</temp>
<bpm>0</bpm>
<rpm>0.00</rpm>
</extensions>
</trkpt>
<trkpt lat="30.614273071" lon="34.853912354">
<ele>504.312500</ele>
<time>2013-11-23T11:51:34Z</time>
<speed>3.190000</speed>
<extensions>
<speed>3.2</speed>
<temp>0.00</temp>
<bpm>0</bpm>
<rpm>0.00</rpm>
</extensions>
</trkpt>
<trkpt lat="30.614318848" lon="34.853778839">
<ele>504.890625</ele>
<time>2013-11-23T11:51:39Z</time>
<speed>2.480000</speed>
<extensions>
<speed>2.5</speed>
<temp>0.00</temp>
<bpm>0</bpm>
<rpm>0.00</rpm>
</extensions>
</trkpt>
<trkpt lat="30.614360809" lon="34.853637695">
<ele>505.578125</ele>
<time>2013-11-23T11:51:44Z</time>
<speed>3.100000</speed>
<extensions>
<speed>3.1</speed>
<temp>0.00</temp>
<bpm>0</bpm>
<rpm>0.00</rpm>
</extensions>
</trkpt>
<trkpt lat="30.614408493" lon="34.853473663">
<ele>505.882813</ele>
<time>2013-11-23T11:51:49Z</time>
<speed>3.380000</speed>
<extensions>
<speed>3.4</speed>
<temp>0.00</temp>
<bpm>0</bpm>
<rpm>0.00</rpm>
</extensions>
</trkpt>
<trkpt lat="30.614458084" lon="34.853302002">
<ele>506.304688</ele>
<time>2013-11-23T11:51:54Z</time>
<speed>3.510000</speed>
<extensions>
<speed>3.5</speed>
<temp>0.00</temp>
<bpm>0</bpm>
<rpm>0.00</rpm>
</extensions>
</trkpt>
<trkpt lat="30.614505768" lon="34.853115082">
<ele>506.726563</ele>
<time>2013-11-23T11:51:59Z</time>
<speed>3.910000</speed>
<extensions>
<speed>3.9</speed>
<temp>0.00</temp>
<bpm>0</bpm>
<rpm>0.00</rpm>
</extensions>
</trkpt>
<trkpt lat="30.614551544" lon="34.852939606">
<ele>507.015625</ele>
<time>2013-11-23T11:52:04Z</time>
<speed>3.070000</speed>
<extensions>
<speed>3.1</speed>
<temp>0.00</temp>
<bpm>0</bpm>
<rpm>0.00</rpm>
</extensions>
</trkpt>
<trkpt lat="30.614601135" lon="34.852752686">
<ele>507.429688</ele>
<time>2013-11-23T11:52:09Z</time>
<speed>3.940000</speed>
<extensions>
<speed>3.9</speed>
<temp>0.00</temp>
<bpm>0</bpm>
<rpm>0.00</rpm>
</extensions>
</trkpt>
<trkpt lat="30.614646912" lon="34.852565765">
<ele>507.312500</ele>
<time>2013-11-23T11:52:14Z</time>
<speed>2.940000</speed>
<extensions>
<speed>2.9</speed>
<temp>0.00</temp>
<bpm>0</bpm>
<rpm>0.00</rpm>
</extensions>
</trkpt>
<trkpt lat="30.614679337" lon="34.852413177">
<ele>507.304688</ele>
<time>2013-11-23T11:52:19Z</time>
<speed>3.580000</speed>
<extensions>
<speed>3.6</speed>
<temp>0.00</temp>
<bpm>0</bpm>
<rpm>0.00</rpm>
</extensions>
</trkpt>
<trkpt lat="30.614723206" lon="34.852214813">
<ele>507.304688</ele>
<time>2013-11-23T11:52:24Z</time>
<speed>3.670000</speed>
<extensions>
<speed>3.7</speed>
<temp>0.00</temp>
<bpm>0</bpm>
<rpm>0.00</rpm>
</extensions>
</trkpt>
<trkpt lat="30.614757538" lon="34.852043152">
<ele>507.710938</ele>
<time>2013-11-23T11:52:29Z</time>
<speed>3.860000</speed>
<extensions>
<speed>3.9</speed>
<temp>0.00</temp>
<bpm>0</bpm>
<rpm>0.00</rpm>
</extensions>
</trkpt>
<trkpt lat="30.614791870" lon="34.851867676">
<ele>507.695313</ele>
<time>2013-11-23T11:52:34Z</time>
<speed>3.500000</speed>
<extensions>
<speed>3.5</speed>
<temp>0.00</temp>
<bpm>0</bpm>
<rpm>0.00</rpm>
</extensions>
</trkpt>
<trkpt lat="30.614828110" lon="34.851673126">
<ele>508.078125</ele>
<time>2013-11-23T11:52:39Z</time>
<speed>4.280000</speed>
<extensions>
<speed>4.3</speed>
<temp>0.00</temp>
<bpm>0</bpm>
<rpm>0.00</rpm>
</extensions>
</trkpt>
<trkpt lat="30.614875793" lon="34.851482391">
<ele>508.773438</ele>
<time>2013-11-23T11:52:44Z</time>
<speed>3.650000</speed>
<extensions>
<speed>3.7</speed>
<temp>0.00</temp>
<bpm>0</bpm>
<rpm>0.00</rpm>
</extensions>
</trkpt>
<trkpt lat="30.614929199" lon="34.851295471">
<ele>509.203125</ele>
<time>2013-11-23T11:52:49Z</time>
<speed>3.830000</speed>
<extensions>
<speed>3.8</speed>
<temp>0.00</temp>
<bpm>0</bpm>
<rpm>0.00</rpm>
</extensions>
</trkpt>
<trkpt lat="30.614990234" lon="34.851123810">
<ele>509.343750</ele>
<time>2013-11-23T11:52:54Z</time>
<speed>3.820000</speed>
<extensions>
<speed>3.8</speed>
<temp>0.00</temp>
<bpm>0</bpm>
<rpm>0.00</rpm>
</extensions>
</trkpt>
<trkpt lat="30.615056992" lon="34.850929260">
<ele>509.484375</ele>
<time>2013-11-23T11:52:59Z</time>
<speed>4.050000</speed>
<extensions>
<speed>4.0</speed>
<temp>0.00</temp>
<bpm>0</bpm>
<rpm>0.00</rpm>
</extensions>
</trkpt>
<trkpt lat="30.615135193" lon="34.850757599">
<ele>508.890625</ele>
<time>2013-11-23T11:53:04Z</time>
<speed>3.230000</speed>
<extensions>
<speed>3.2</speed>
<temp>0.00</temp>
<bpm>0</bpm>
<rpm>0.00</rpm>
</extensions>
</trkpt>
<trkpt lat="30.615196228" lon="34.850631714">
<ele>508.765625</ele>
<time>2013-11-23T11:53:09Z</time>
<speed>3.030000</speed>
<extensions>
<speed>3.0</speed>
<temp>0.00</temp>
<bpm>0</bpm>
<rpm>0.00</rpm>
</extensions>
</trkpt>
<trkpt lat="30.615268707" lon="34.850509644">
<ele>508.828125</ele>
<time>2013-11-23T11:53:14Z</time>
<speed>3.110000</speed>
<extensions>
<speed>3.1</speed>
<temp>0.00</temp>
<bpm>0</bpm>
<rpm>0.00</rpm>
</extensions>
</trkpt>
<trkpt lat="30.615360260" lon="34.850360870">
<ele>509.359375</ele>
<time>2013-11-23T11:53:19Z</time>
<speed>3.970000</speed>
<extensions>
<speed>4.0</speed>
<temp>0.00</temp>
<bpm>0</bpm>
<rpm>0.00</rpm>
</extensions>
</trkpt>
<trkpt lat="30.615459442" lon="34.850215912">
<ele>509.554688</ele>
<time>2013-11-23T11:53:24Z</time>
<speed>3.610000</speed>
<extensions>
<speed>3.6</speed>
<temp>0.00</temp>
<bpm>0</bpm>
<rpm>0.00</rpm>
</extensions>
</trkpt>
<trkpt lat="30.615568161" lon="34.850059509">
<ele>509.859375</ele>
<time>2013-11-23T11:53:29Z</time>
<speed>3.010000</speed>
<extensions>
<speed>3.0</speed>
<temp>0.00</temp>
<bpm>0</bpm>
<rpm>0.00</rpm>
</extensions>
</trkpt>
<trkpt lat="30.615652084" lon="34.849945068">
<ele>510.078125</ele>
<time>2013-11-23T11:53:34Z</time>
<speed>3.610000</speed>
<extensions>
<speed>3.6</speed>
<temp>0.00</temp>
<bpm>0</bpm>
<rpm>0.00</rpm>
</extensions>
</trkpt>
<trkpt lat="30.615755081" lon="34.849822998">
<ele>510.414063</ele>
<time>2013-11-23T11:53:39Z</time>
<speed>2.650000</speed>
<extensions>
<speed>2.6</speed>
<temp>0.00</temp>
<bpm>0</bpm>
<rpm>0.00</rpm>
</extensions>
</trkpt>
<trkpt lat="30.615852356" lon="34.849697113">
<ele>510.968750</ele>
<time>2013-11-23T11:53:44Z</time>
<speed>3.780000</speed>
<extensions>
<speed>3.8</speed>
<temp>0.00</temp>
<bpm>0</bpm>
<rpm>0.00</rpm>
</extensions>
</trkpt>
<trkpt lat="30.615970612" lon="34.849555969">
<ele>511.273438</ele>
<time>2013-11-23T11:53:49Z</time>
<speed>3.550000</speed>
<extensions>
<speed>3.5</speed>
<temp>0.00</temp>
<bpm>0</bpm>
<rpm>0.00</rpm>
</extensions>
</trkpt>
<trkpt lat="30.616090775" lon="34.849403381">
<ele>511.757813</ele>
<time>2013-11-23T11:53:54Z</time>
<speed>3.910000</speed>
<extensions>
<speed>3.9</speed>
<temp>0.00</temp>
<bpm>0</bpm>
<rpm>0.00</rpm>
</extensions>
</trkpt>
<trkpt lat="30.616191864" lon="34.849288940">
<ele>511.765625</ele>
<time>2013-11-23T11:53:59Z</time>
<speed>2.640000</speed>
<extensions>
<speed>2.6</speed>
<temp>0.00</temp>
<bpm>0</bpm>
<rpm>0.00</rpm>
</extensions>
</trkpt>
<trkpt lat="30.616300583" lon="34.849163055">
<ele>512.109375</ele>
<time>2013-11-23T11:54:04Z</time>
<speed>4.010000</speed>
<extensions>
<speed>4.0</speed>
<temp>0.00</temp>
<bpm>0</bpm>
<rpm>0.00</rpm>
</extensions>
</trkpt>
<trkpt lat="30.616426468" lon="34.849006653">
<ele>512.906250</ele>
<time>2013-11-23T11:54:09Z</time>
<speed>3.580000</speed>
<extensions>
<speed>3.6</speed>
<temp>0.00</temp>
<bpm>0</bpm>
<rpm>0.00</rpm>
</extensions>
</trkpt>
<trkpt lat="30.616539001" lon="34.848854065">
<ele>513.515625</ele>
<time>2013-11-23T11:54:14Z</time>
<speed>4.030000</speed>
<extensions>
<speed>4.0</speed>
<temp>0.00</temp>
<bpm>0</bpm>
<rpm>0.00</rpm>
</extensions>
</trkpt>
<trkpt lat="30.616647720" lon="34.848724365">
<ele>513.437500</ele>
<time>2013-11-23T11:54:19Z</time>
<speed>3.260000</speed>
<extensions>
<speed>3.3</speed>
<temp>0.00</temp>
<bpm>0</bpm>
<rpm>0.00</rpm>
</extensions>
</trkpt>
<trkpt lat="30.616762161" lon="34.848590851">
<ele>514.078125</ele>
<time>2013-11-23T11:54:24Z</time>
<speed>3.940000</speed>
<extensions>
<speed>3.9</speed>
<temp>0.00</temp>
<bpm>0</bpm>
<rpm>0.00</rpm>
</extensions>
</trkpt>
<trkpt lat="30.616859436" lon="34.848464966">
<ele>514.343750</ele>
<time>2013-11-23T11:54:29Z</time>
<speed>2.280000</speed>
<extensions>
<speed>2.3</speed>
<temp>0.00</temp>
<bpm>0</bpm>
<rpm>0.00</rpm>
</extensions>
</trkpt>
<trkpt lat="30.616928101" lon="34.848388672">
<ele>514.125000</ele>
<time>2013-11-23T11:54:34Z</time>
<speed>2.350000</speed>
<extensions>
<speed>2.4</speed>
<temp>0.00</temp>
<bpm>0</bpm>
<rpm>0.00</rpm>
</extensions>
</trkpt>
<trkpt lat="30.616985321" lon="34.848308563">
<ele>514.140625</ele>
<time>2013-11-23T11:54:39Z</time>
<speed>2.420000</speed>
<extensions>
<speed>2.4</speed>
<temp>0.00</temp>
<bpm>0</bpm>
<rpm>0.00</rpm>
</extensions>
</trkpt>
<trkpt lat="30.617015839" lon="34.848190308">
<ele>514.734375</ele>
<time>2013-11-23T11:54:44Z</time>
<speed>3.230000</speed>
<extensions>
<speed>3.2</speed>
<temp>0.00</temp>
<bpm>0</bpm>
<rpm>0.00</rpm>
</extensions>
</trkpt>
<trkpt lat="30.617053986" lon="34.848033905">
<ele>515.140625</ele>
<time>2013-11-23T11:54:49Z</time>
<speed>2.190000</speed>
<extensions>
<speed>2.2</speed>
<temp>0.00</temp>
<bpm>0</bpm>
<rpm>0.00</rpm>
</extensions>
</trkpt>
<trkpt lat="30.617006302" lon="34.847911835">
<ele>515.453125</ele>
<time>2013-11-23T11:54:54Z</time>
<speed>3.000000</speed>
<extensions>
<speed>3.0</speed>
<temp>0.00</temp>
<bpm>0</bpm>
<rpm>0.00</rpm>
</extensions>
</trkpt>
<trkpt lat="30.616966248" lon="34.847740173">
<ele>515.671875</ele>
<time>2013-11-23T11:54:59Z</time>
<speed>2.970000</speed>
<extensions>
<speed>3.0</speed>
<temp>0.00</temp>
<bpm>0</bpm>
<rpm>0.00</rpm>
</extensions>
</trkpt>
<trkpt lat="30.616947174" lon="34.847625732">
<ele>515.953125</ele>
<time>2013-11-23T11:55:04Z</time>
<speed>2.140000</speed>
<extensions>
<speed>2.1</speed>
<temp>0.00</temp>
<bpm>0</bpm>
<rpm>0.00</rpm>
</extensions>
</trkpt>
<trkpt lat="30.616952896" lon="34.847549438">
<ele>515.953125</ele>
<time>2013-11-23T11:55:09Z</time>
<speed>1.310000</speed>
<extensions>
<speed>1.3</speed>
<temp>0.00</temp>
<bpm>0</bpm>
<rpm>0.00</rpm>
</extensions>
</trkpt>
<trkpt lat="30.616958618" lon="34.847480774">
<ele>515.953125</ele>
<time>2013-11-23T11:55:14Z</time>
<speed>0.870000</speed>
<extensions>
<speed>0.9</speed>
<temp>0.00</temp>
<bpm>0</bpm>
<rpm>0.00</rpm>
</extensions>
</trkpt>
<trkpt lat="30.616935730" lon="34.847415924">
<ele>516.500000</ele>
<time>2013-11-23T11:55:19Z</time>
<speed>1.490000</speed>
<extensions>
<speed>1.5</speed>
<temp>0.00</temp>
<bpm>0</bpm>
<rpm>0.00</rpm>
</extensions>
</trkpt>
<trkpt lat="30.616931915" lon="34.847332001">
<ele>516.531250</ele>
<time>2013-11-23T11:55:24Z</time>
<speed>2.420000</speed>
<extensions>
<speed>2.4</speed>
<temp>0.00</temp>
<bpm>0</bpm>
<rpm>0.00</rpm>
</extensions>
</trkpt>
<trkpt lat="30.616930008" lon="34.847217560">
<ele>515.750000</ele>
<time>2013-11-23T11:55:29Z</time>
<speed>1.650000</speed>
<extensions>
<speed>1.7</speed>
<temp>0.00</temp>
<bpm>0</bpm>
<rpm>0.00</rpm>
</extensions>
</trkpt>
<trkpt lat="30.616937637" lon="34.847206116">
<ele>515.781250</ele>
<time>2013-11-23T11:55:34Z</time>
<speed>0.020000</speed>
<extensions>
<speed>0.0</speed>
<temp>0.00</temp>
<bpm>0</bpm>
<rpm>0.00</rpm>
</extensions>
</trkpt>
<trkpt lat="30.616937637" lon="34.847206116">
<ele>515.765625</ele>
<time>2013-11-23T11:55:39Z</time>
<extensions>
<speed>0.0</speed>
<temp>0.00</temp>
<bpm>0</bpm>
<rpm>0.00</rpm>
</extensions>
</trkpt>
<trkpt lat="30.616937637" lon="34.847206116">
<ele>515.765625</ele>
<time>2013-11-23T11:55:44Z</time>
<speed>0.020000</speed>
<extensions>
<speed>0.0</speed>
<temp>0.00</temp>
<bpm>0</bpm>
<rpm>0.00</rpm>
</extensions>
</trkpt>
<trkpt lat="30.616947174" lon="34.847129822">
<ele>514.406250</ele>
<time>2013-11-23T11:55:49Z</time>
<speed>3.500000</speed>
<extensions>
<speed>3.5</speed>
<temp>0.00</temp>
<bpm>0</bpm>
<rpm>0.00</rpm>
</extensions>
</trkpt>
<trkpt lat="30.616998672" lon="34.846939087">
<ele>509.664063</ele>
<time>2013-11-23T11:55:54Z</time>
<speed>4.630000</speed>
<extensions>
<speed>4.6</speed>
<temp>0.00</temp>
<bpm>0</bpm>
<rpm>0.00</rpm>
</extensions>
</trkpt>
<trkpt lat="30.617109299" lon="34.846786499">
<ele>506.015625</ele>
<time>2013-11-23T11:55:59Z</time>
<speed>3.560000</speed>
<extensions>
<speed>3.6</speed>
<temp>0.00</temp>
<bpm>0</bpm>
<rpm>0.00</rpm>
</extensions>
</trkpt>
<trkpt lat="30.617208481" lon="34.846843719">
<ele>506.632813</ele>
<time>2013-11-23T11:56:04Z</time>
<speed>2.160000</speed>
<extensions>
<speed>2.2</speed>
<temp>0.00</temp>
<bpm>0</bpm>
<rpm>0.00</rpm>
</extensions>
</trkpt>
<trkpt lat="30.617198944" lon="34.846904755">
<ele>508.023438</ele>
<time>2013-11-23T11:56:09Z</time>
<speed>0.490000</speed>
<extensions>
<speed>0.5</speed>
<temp>0.00</temp>
<bpm>0</bpm>
<rpm>0.00</rpm>
</extensions>
</trkpt>
<trkpt lat="30.617197037" lon="34.846908569">
<ele>508.179688</ele>
<time>2013-11-23T11:56:14Z</time>
<speed>0.020000</speed>
<extensions>
<speed>0.0</speed>
<temp>0.00</temp>
<bpm>0</bpm>
<rpm>0.00</rpm>
</extensions>
</trkpt>
<trkpt lat="30.617197037" lon="34.846908569">
<ele>508.210938</ele>
<time>2013-11-23T11:56:19Z</time>
<speed>0.010000</speed>
<extensions>
<speed>0.0</speed>
<temp>0.00</temp>
<bpm>0</bpm>
<rpm>0.00</rpm>
</extensions>
</trkpt>
<trkpt lat="30.617197037" lon="34.846908569">
<ele>508.195313</ele>
<time>2013-11-23T11:56:24Z</time>
<extensions>
<speed>0.0</speed>
<temp>0.00</temp>
<bpm>0</bpm>
<rpm>0.00</rpm>
</extensions>
</trkpt>
<trkpt lat="30.617195129" lon="34.846908569">
<ele>508.203125</ele>
<time>2013-11-23T11:56:29Z</time>
<extensions>
<speed>0.0</speed>
<temp>0.00</temp>
<bpm>0</bpm>
<rpm>0.00</rpm>
</extensions>
</trkpt>
<trkpt lat="30.617195129" lon="34.846908569">
<ele>508.203125</ele>
<time>2013-11-23T11:56:34Z</time>
<extensions>
<speed>0.0</speed>
<temp>0.00</temp>
<bpm>0</bpm>
<rpm>0.00</rpm>
</extensions>
</trkpt>
<trkpt lat="30.617195129" lon="34.846908569">
<ele>508.218750</ele>
<time>2013-11-23T11:56:39Z</time>
<speed>0.020000</speed>
<extensions>
<speed>0.0</speed>
<temp>0.00</temp>
<bpm>0</bpm>
<rpm>0.00</rpm>
</extensions>
</trkpt>
<trkpt lat="30.617193222" lon="34.846908569">
<ele>508.296875</ele>
<time>2013-11-23T11:56:44Z</time>
<speed>0.010000</speed>
<extensions>
<speed>0.0</speed>
<temp>0.00</temp>
<bpm>0</bpm>
<rpm>0.00</rpm>
</extensions>
</trkpt>
<trkpt lat="30.617193222" lon="34.846908569">
<ele>508.304688</ele>
<time>2013-11-23T11:56:49Z</time>
<extensions>
<speed>0.0</speed>
<temp>0.00</temp>
<bpm>0</bpm>
<rpm>0.00</rpm>
</extensions>
</trkpt>
<trkpt lat="30.617193222" lon="34.846908569">
<ele>508.312500</ele>
<time>2013-11-23T11:56:54Z</time>
<extensions>
<speed>0.0</speed>
<temp>0.00</temp>
<bpm>0</bpm>
<rpm>0.00</rpm>
</extensions>
</trkpt>
<trkpt lat="30.617193222" lon="34.846908569">
<ele>508.328125</ele>
<time>2013-11-23T11:56:59Z</time>
<extensions>
<speed>0.0</speed>
<temp>0.00</temp>
<bpm>0</bpm>
<rpm>0.00</rpm>
</extensions>
</trkpt>
<trkpt lat="30.617193222" lon="34.846908569">
<ele>508.343750</ele>
<time>2013-11-23T11:57:04Z</time>
<extensions>
<speed>0.0</speed>
<temp>0.00</temp>
<bpm>0</bpm>
<rpm>0.00</rpm>
</extensions>
</trkpt>
<trkpt lat="30.617193222" lon="34.846908569">
<ele>508.351563</ele>
<time>2013-11-23T11:57:09Z</time>
<speed>0.010000</speed>
<extensions>
<speed>0.0</speed>
<temp>0.00</temp>
<bpm>0</bpm>
<rpm>0.00</rpm>
</extensions>
</trkpt>
<trkpt lat="30.617193222" lon="34.846908569">
<ele>508.367188</ele>
<time>2013-11-23T11:57:14Z</time>
<extensions>
<speed>0.0</speed>
<temp>0.00</temp>
<bpm>0</bpm>
<rpm>0.00</rpm>
</extensions>
</trkpt>
<trkpt lat="30.617193222" lon="34.846908569">
<ele>508.375000</ele>
<time>2013-11-23T11:57:19Z</time>
<speed>0.020000</speed>
<extensions>
<speed>0.0</speed>
<temp>0.00</temp>
<bpm>0</bpm>
<rpm>0.00</rpm>
</extensions>
</trkpt>
<trkpt lat="30.617193222" lon="34.846908569">
<ele>508.390625</ele>
<time>2013-11-23T11:57:24Z</time>
<speed>0.010000</speed>
<extensions>
<speed>0.0</speed>
<temp>0.00</temp>
<bpm>0</bpm>
<rpm>0.00</rpm>
</extensions>
</trkpt>
<trkpt lat="30.617191315" lon="34.846908569">
<ele>508.406250</ele>
<time>2013-11-23T11:57:29Z</time>
<speed>0.010000</speed>
<extensions>
<speed>0.0</speed>
<temp>0.00</temp>
<bpm>0</bpm>
<rpm>0.00</rpm>
</extensions>
</trkpt>
<trkpt lat="30.617191315" lon="34.846908569">
<ele>508.421875</ele>
<time>2013-11-23T11:57:34Z</time>
<speed>0.020000</speed>
<extensions>
<speed>0.0</speed>
<temp>0.00</temp>
<bpm>0</bpm>
<rpm>0.00</rpm>
</extensions>
</trkpt>
<trkpt lat="30.617191315" lon="34.846908569">
<ele>508.429688</ele>
<time>2013-11-23T11:57:39Z</time>
<extensions>
<speed>0.0</speed>
<temp>0.00</temp>
<bpm>0</bpm>
<rpm>0.00</rpm>
</extensions>
</trkpt>
<trkpt lat="30.617191315" lon="34.846908569">
<ele>508.453125</ele>
<time>2013-11-23T11:57:44Z</time>
<speed>0.010000</speed>
<extensions>
<speed>0.0</speed>
<temp>0.00</temp>
<bpm>0</bpm>
<rpm>0.00</rpm>
</extensions>
</trkpt>
<trkpt lat="30.617191315" lon="34.846908569">
<ele>508.460938</ele>
<time>2013-11-23T11:57:49Z</time>
<speed>0.010000</speed>
<extensions>
<speed>0.0</speed>
<temp>0.00</temp>
<bpm>0</bpm>
<rpm>0.00</rpm>
</extensions>
</trkpt>
<trkpt lat="30.617191315" lon="34.846908569">
<ele>508.476563</ele>
<time>2013-11-23T11:57:54Z</time>
<extensions>
<speed>0.0</speed>
<temp>0.00</temp>
<bpm>0</bpm>
<rpm>0.00</rpm>
</extensions>
</trkpt>
<trkpt lat="30.617191315" lon="34.846908569">
<ele>508.492188</ele>
<time>2013-11-23T11:57:59Z</time>
<extensions>
<speed>0.0</speed>
<temp>0.00</temp>
<bpm>0</bpm>
<rpm>0.00</rpm>
</extensions>
</trkpt>
<trkpt lat="30.617191315" lon="34.846908569">
<ele>508.492188</ele>
<time>2013-11-23T11:58:04Z</time>
<extensions>
<speed>0.0</speed>
<temp>0.00</temp>
<bpm>0</bpm>
<rpm>0.00</rpm>
</extensions>
</trkpt>
<trkpt lat="30.617189407" lon="34.846908569">
<ele>508.500000</ele>
<time>2013-11-23T11:58:09Z</time>
<speed>0.010000</speed>
<extensions>
<speed>0.0</speed>
<temp>0.00</temp>
<bpm>0</bpm>
<rpm>0.00</rpm>
</extensions>
</trkpt>
<trkpt lat="30.617189407" lon="34.846908569">
<ele>508.507813</ele>
<time>2013-11-23T11:58:14Z</time>
<speed>0.010000</speed>
<extensions>
<speed>0.0</speed>
<temp>0.00</temp>
<bpm>0</bpm>
<rpm>0.00</rpm>
</extensions>
</trkpt>
<trkpt lat="30.617189407" lon="34.846908569">
<ele>508.507813</ele>
<time>2013-11-23T11:58:19Z</time>
<extensions>
<speed>0.0</speed>
<temp>0.00</temp>
<bpm>0</bpm>
<rpm>0.00</rpm>
</extensions>
</trkpt>
<trkpt lat="30.617189407" lon="34.846908569">
<ele>508.507813</ele>
<time>2013-11-23T11:58:24Z</time>
<extensions>
<speed>0.0</speed>
<temp>0.00</temp>
<bpm>0</bpm>
<rpm>0.00</rpm>
</extensions>
</trkpt>
<trkpt lat="30.617189407" lon="34.846908569">
<ele>508.507813</ele>
<time>2013-11-23T11:58:29Z</time>
<speed>0.040000</speed>
<extensions>
<speed>0.0</speed>
<temp>0.00</temp>
<bpm>0</bpm>
<rpm>0.00</rpm>
</extensions>
</trkpt>
<trkpt lat="30.617189407" lon="34.846908569">
<ele>508.515625</ele>
<time>2013-11-23T11:58:34Z</time>
<extensions>
<speed>0.0</speed>
<temp>0.00</temp>
<bpm>0</bpm>
<rpm>0.00</rpm>
</extensions>
</trkpt>
<trkpt lat="30.617189407" lon="34.846908569">
<ele>508.515625</ele>
<time>2013-11-23T11:58:39Z</time>
<extensions>
<speed>0.0</speed>
<temp>0.00</temp>
<bpm>0</bpm>
<rpm>0.00</rpm>
</extensions>
</trkpt>
<trkpt lat="30.617187500" lon="34.846908569">
<ele>508.523438</ele>
<time>2013-11-23T11:58:44Z</time>
<extensions>
<speed>0.0</speed>
<temp>0.00</temp>
<bpm>0</bpm>
<rpm>0.00</rpm>
</extensions>
</trkpt>
<trkpt lat="30.617187500" lon="34.846904755">
<ele>508.515625</ele>
<time>2013-11-23T11:58:49Z</time>
<speed>0.020000</speed>
<extensions>
<speed>0.0</speed>
<temp>0.00</temp>
<bpm>0</bpm>
<rpm>0.00</rpm>
</extensions>
</trkpt>
<trkpt lat="30.617187500" lon="34.846904755">
<ele>508.515625</ele>
<time>2013-11-23T11:58:54Z</time>
<extensions>
<speed>0.0</speed>
<temp>0.00</temp>
<bpm>0</bpm>
<rpm>0.00</rpm>
</extensions>
</trkpt>
<trkpt lat="30.617187500" lon="34.846904755">
<ele>508.515625</ele>
<time>2013-11-23T11:58:59Z</time>
<extensions>
<speed>0.0</speed>
<temp>0.00</temp>
<bpm>0</bpm>
<rpm>0.00</rpm>
</extensions>
</trkpt>
<trkpt lat="30.617187500" lon="34.846904755">
<ele>508.523438</ele>
<time>2013-11-23T11:59:04Z</time>
<extensions>
<speed>0.0</speed>
<temp>0.00</temp>
<bpm>0</bpm>
<rpm>0.00</rpm>
</extensions>
</trkpt>
<trkpt lat="30.617187500" lon="34.846904755">
<ele>508.531250</ele>
<time>2013-11-23T11:59:09Z</time>
<speed>0.010000</speed>
<extensions>
<speed>0.0</speed>
<temp>0.00</temp>
<bpm>0</bpm>
<rpm>0.00</rpm>
</extensions>
</trkpt>
<trkpt lat="30.617187500" lon="34.846904755">
<ele>508.546875</ele>
<time>2013-11-23T11:59:14Z</time>
<speed>0.010000</speed>
<extensions>
<speed>0.0</speed>
<temp>0.00</temp>
<bpm>0</bpm>
<rpm>0.00</rpm>
</extensions>
</trkpt>
<trkpt lat="30.617187500" lon="34.846904755">
<ele>508.562500</ele>
<time>2013-11-23T11:59:19Z</time>
<extensions>
<speed>0.0</speed>
<temp>0.00</temp>
<bpm>0</bpm>
<rpm>0.00</rpm>
</extensions>
</trkpt>
<trkpt lat="30.617187500" lon="34.846904755">
<ele>508.578125</ele>
<time>2013-11-23T11:59:24Z</time>
<extensions>
<speed>0.0</speed>
<temp>0.00</temp>
<bpm>0</bpm>
<rpm>0.00</rpm>
</extensions>
</trkpt>
<trkpt lat="30.617187500" lon="34.846904755">
<ele>508.570313</ele>
<time>2013-11-23T11:59:29Z</time>
<extensions>
<speed>0.0</speed>
<temp>0.00</temp>
<bpm>0</bpm>
<rpm>0.00</rpm>
</extensions>
</trkpt>
<trkpt lat="30.617187500" lon="34.846904755">
<ele>508.570313</ele>
<time>2013-11-23T11:59:34Z</time>
<speed>0.020000</speed>
<extensions>
<speed>0.0</speed>
<temp>0.00</temp>
<bpm>0</bpm>
<rpm>0.00</rpm>
</extensions>
</trkpt>
<trkpt lat="30.617187500" lon="34.846904755">
<ele>508.585938</ele>
<time>2013-11-23T11:59:39Z</time>
<speed>0.010000</speed>
<extensions>
<speed>0.0</speed>
<temp>0.00</temp>
<bpm>0</bpm>
<rpm>0.00</rpm>
</extensions>
</trkpt>
<trkpt lat="30.617187500" lon="34.846904755">
<ele>508.578125</ele>
<time>2013-11-23T11:59:44Z</time>
<extensions>
<speed>0.0</speed>
<temp>0.00</temp>
<bpm>0</bpm>
<rpm>0.00</rpm>
</extensions>
</trkpt>
<trkpt lat="30.617187500" lon="34.846904755">
<ele>508.593750</ele>
<time>2013-11-23T11:59:49Z</time>
<extensions>
<speed>0.0</speed>
<temp>0.00</temp>
<bpm>0</bpm>
<rpm>0.00</rpm>
</extensions>
</trkpt>
<trkpt lat="30.617187500" lon="34.846908569">
<ele>508.601563</ele>
<time>2013-11-23T11:59:54Z</time>
<speed>0.010000</speed>
<extensions>
<speed>0.0</speed>
<temp>0.00</temp>
<bpm>0</bpm>
<rpm>0.00</rpm>
</extensions>
</trkpt>
<trkpt lat="30.617187500" lon="34.846908569">
<ele>508.593750</ele>
<time>2013-11-23T11:59:59Z</time>
<speed>0.020000</speed>
<extensions>
<speed>0.0</speed>
<temp>0.00</temp>
<bpm>0</bpm>
<rpm>0.00</rpm>
</extensions>
</trkpt>
<trkpt lat="30.617187500" lon="34.846908569">
<ele>508.585938</ele>
<time>2013-11-23T12:00:04Z</time>
<extensions>
<speed>0.0</speed>
<temp>0.00</temp>
<bpm>0</bpm>
<rpm>0.00</rpm>
</extensions>
</trkpt>
<trkpt lat="30.617187500" lon="34.846908569">
<ele>508.570313</ele>
<time>2013-11-23T12:00:09Z</time>
<extensions>
<speed>0.0</speed>
<temp>0.00</temp>
<bpm>0</bpm>
<rpm>0.00</rpm>
</extensions>
</trkpt>
<trkpt lat="30.617187500" lon="34.846908569">
<ele>508.546875</ele>
<time>2013-11-23T12:00:14Z</time>
<extensions>
<speed>0.0</speed>
<temp>0.00</temp>
<bpm>0</bpm>
<rpm>0.00</rpm>
</extensions>
</trkpt>
<trkpt lat="30.617187500" lon="34.846908569">
<ele>508.531250</ele>
<time>2013-11-23T12:00:19Z</time>
<extensions>
<speed>0.0</speed>
<temp>0.00</temp>
<bpm>0</bpm>
<rpm>0.00</rpm>
</extensions>
</trkpt>
<trkpt lat="30.617187500" lon="34.846908569">
<ele>508.531250</ele>
<time>2013-11-23T12:00:24Z</time>
<extensions>
<speed>0.0</speed>
<temp>0.00</temp>
<bpm>0</bpm>
<rpm>0.00</rpm>
</extensions>
</trkpt>
<trkpt lat="30.617187500" lon="34.846908569">
<ele>508.546875</ele>
<time>2013-11-23T12:00:29Z</time>
<extensions>
<speed>0.0</speed>
<temp>0.00</temp>
<bpm>0</bpm>
<rpm>0.00</rpm>
</extensions>
</trkpt>
<trkpt lat="30.617187500" lon="34.846908569">
<ele>508.546875</ele>
<time>2013-11-23T12:00:34Z</time>
<extensions>
<speed>0.0</speed>
<temp>0.00</temp>
<bpm>0</bpm>
<rpm>0.00</rpm>
</extensions>
</trkpt>
<trkpt lat="30.617187500" lon="34.846908569">
<ele>508.523438</ele>
<time>2013-11-23T12:00:39Z</time>
<extensions>
<speed>0.0</speed>
<temp>0.00</temp>
<bpm>0</bpm>
<rpm>0.00</rpm>
</extensions>
</trkpt>
<trkpt lat="30.617187500" lon="34.846908569">
<ele>508.507813</ele>
<time>2013-11-23T12:00:44Z</time>
<extensions>
<speed>0.0</speed>
<temp>0.00</temp>
<bpm>0</bpm>
<rpm>0.00</rpm>
</extensions>
</trkpt>
<trkpt lat="30.617187500" lon="34.846908569">
<ele>508.484375</ele>
<time>2013-11-23T12:00:49Z</time>
<extensions>
<speed>0.0</speed>
<temp>0.00</temp>
<bpm>0</bpm>
<rpm>0.00</rpm>
</extensions>
</trkpt>
<trkpt lat="30.617187500" lon="34.846908569">
<ele>508.468750</ele>
<time>2013-11-23T12:00:54Z</time>
<speed>0.010000</speed>
<extensions>
<speed>0.0</speed>
<temp>0.00</temp>
<bpm>0</bpm>
<rpm>0.00</rpm>
</extensions>
</trkpt>
<trkpt lat="30.617187500" lon="34.846908569">
<ele>508.460938</ele>
<time>2013-11-23T12:00:59Z</time>
<extensions>
<speed>0.0</speed>
<temp>0.00</temp>
<bpm>0</bpm>
<rpm>0.00</rpm>
</extensions>
</trkpt>
<trkpt lat="30.617187500" lon="34.846908569">
<ele>508.453125</ele>
<time>2013-11-23T12:01:04Z</time>
<extensions>
<speed>0.0</speed>
<temp>0.00</temp>
<bpm>0</bpm>
<rpm>0.00</rpm>
</extensions>
</trkpt>
<trkpt lat="30.617185593" lon="34.846908569">
<ele>508.445313</ele>
<time>2013-11-23T12:01:09Z</time>
<speed>0.010000</speed>
<extensions>
<speed>0.0</speed>
<temp>0.00</temp>
<bpm>0</bpm>
<rpm>0.00</rpm>
</extensions>
</trkpt>
<trkpt lat="30.617185593" lon="34.846908569">
<ele>508.429688</ele>
<time>2013-11-23T12:01:14Z</time>
<speed>0.010000</speed>
<extensions>
<speed>0.0</speed>
<temp>0.00</temp>
<bpm>0</bpm>
<rpm>0.00</rpm>
</extensions>
</trkpt>
<trkpt lat="30.617185593" lon="34.846908569">
<ele>508.414063</ele>
<time>2013-11-23T12:01:19Z</time>
<extensions>
<speed>0.0</speed>
<temp>0.00</temp>
<bpm>0</bpm>
<rpm>0.00</rpm>
</extensions>
</trkpt>
<trkpt lat="30.617185593" lon="34.846908569">
<ele>508.398438</ele>
<time>2013-11-23T12:01:24Z</time>
<speed>0.010000</speed>
<extensions>
<speed>0.0</speed>
<temp>0.00</temp>
<bpm>0</bpm>
<rpm>0.00</rpm>
</extensions>
</trkpt>
<trkpt lat="30.617185593" lon="34.846908569">
<ele>508.382813</ele>
<time>2013-11-23T12:01:29Z</time>
<speed>0.010000</speed>
<extensions>
<speed>0.0</speed>
<temp>0.00</temp>
<bpm>0</bpm>
<rpm>0.00</rpm>
</extensions>
</trkpt>
<trkpt lat="30.617185593" lon="34.846908569">
<ele>508.375000</ele>
<time>2013-11-23T12:01:34Z</time>
<speed>0.010000</speed>
<extensions>
<speed>0.0</speed>
<temp>0.00</temp>
<bpm>0</bpm>
<rpm>0.00</rpm>
</extensions>
</trkpt>
<trkpt lat="30.617185593" lon="34.846908569">
<ele>508.359375</ele>
<time>2013-11-23T12:01:39Z</time>
<speed>0.010000</speed>
<extensions>
<speed>0.0</speed>
<temp>0.00</temp>
<bpm>0</bpm>
<rpm>0.00</rpm>
</extensions>
</trkpt>
<trkpt lat="30.617185593" lon="34.846908569">
<ele>508.343750</ele>
<time>2013-11-23T12:01:44Z</time>
<extensions>
<speed>0.0</speed>
<temp>0.00</temp>
<bpm>0</bpm>
<rpm>0.00</rpm>
</extensions>
</trkpt>
<trkpt lat="30.617185593" lon="34.846908569">
<ele>508.328125</ele>
<time>2013-11-23T12:01:49Z</time>
<extensions>
<speed>0.0</speed>
<temp>0.00</temp>
<bpm>0</bpm>
<rpm>0.00</rpm>
</extensions>
</trkpt>
<trkpt lat="30.617183685" lon="34.846908569">
<ele>508.312500</ele>
<time>2013-11-23T12:01:54Z</time>
<extensions>
<speed>0.0</speed>
<temp>0.00</temp>
<bpm>0</bpm>
<rpm>0.00</rpm>
</extensions>
</trkpt>
<trkpt lat="30.617183685" lon="34.846908569">
<ele>508.312500</ele>
<time>2013-11-23T12:01:59Z</time>
<extensions>
<speed>0.0</speed>
<temp>0.00</temp>
<bpm>0</bpm>
<rpm>0.00</rpm>
</extensions>
</trkpt>
<trkpt lat="30.617183685" lon="34.846908569">
<ele>508.320313</ele>
<time>2013-11-23T12:02:04Z</time>
<extensions>
<speed>0.0</speed>
<temp>0.00</temp>
<bpm>0</bpm>
<rpm>0.00</rpm>
</extensions>
</trkpt>
<trkpt lat="30.617183685" lon="34.846908569">
<ele>508.320313</ele>
<time>2013-11-23T12:02:09Z</time>
<speed>0.010000</speed>
<extensions>
<speed>0.0</speed>
<temp>0.00</temp>
<bpm>0</bpm>
<rpm>0.00</rpm>
</extensions>
</trkpt>
<trkpt lat="30.617183685" lon="34.846908569">
<ele>508.320313</ele>
<time>2013-11-23T12:02:14Z</time>
<extensions>
<speed>0.0</speed>
<temp>0.00</temp>
<bpm>0</bpm>
<rpm>0.00</rpm>
</extensions>
</trkpt>
<trkpt lat="30.617183685" lon="34.846908569">
<ele>508.312500</ele>
<time>2013-11-23T12:02:19Z</time>
<speed>0.030000</speed>
<extensions>
<speed>0.0</speed>
<temp>0.00</temp>
<bpm>0</bpm>
<rpm>0.00</rpm>
</extensions>
</trkpt>
<trkpt lat="30.617183685" lon="34.846908569">
<ele>508.312500</ele>
<time>2013-11-23T12:02:24Z</time>
<extensions>
<speed>0.0</speed>
<temp>0.00</temp>
<bpm>0</bpm>
<rpm>0.00</rpm>
</extensions>
</trkpt>
<trkpt lat="30.617183685" lon="34.846908569">
<ele>508.320313</ele>
<time>2013-11-23T12:02:29Z</time>
<speed>0.010000</speed>
<extensions>
<speed>0.0</speed>
<temp>0.00</temp>
<bpm>0</bpm>
<rpm>0.00</rpm>
</extensions>
</trkpt>
<trkpt lat="30.617183685" lon="34.846908569">
<ele>508.320313</ele>
<time>2013-11-23T12:02:34Z</time>
<extensions>
<speed>0.0</speed>
<temp>0.00</temp>
<bpm>0</bpm>
<rpm>0.00</rpm>
</extensions>
</trkpt>
<trkpt lat="30.617183685" lon="34.846908569">
<ele>508.328125</ele>
<time>2013-11-23T12:02:39Z</time>
<speed>0.010000</speed>
<extensions>
<speed>0.0</speed>
<temp>0.00</temp>
<bpm>0</bpm>
<rpm>0.00</rpm>
</extensions>
</trkpt>
<trkpt lat="30.617183685" lon="34.846908569">
<ele>508.320313</ele>
<time>2013-11-23T12:02:44Z</time>
<speed>0.010000</speed>
<extensions>
<speed>0.0</speed>
<temp>0.00</temp>
<bpm>0</bpm>
<rpm>0.00</rpm>
</extensions>
</trkpt>
<trkpt lat="30.617183685" lon="34.846908569">
<ele>508.328125</ele>
<time>2013-11-23T12:02:49Z</time>
<extensions>
<speed>0.0</speed>
<temp>0.00</temp>
<bpm>0</bpm>
<rpm>0.00</rpm>
</extensions>
</trkpt>
<trkpt lat="30.617183685" lon="34.846908569">
<ele>508.351563</ele>
<time>2013-11-23T12:02:54Z</time>
<speed>0.010000</speed>
<extensions>
<speed>0.0</speed>
<temp>0.00</temp>
<bpm>0</bpm>
<rpm>0.00</rpm>
</extensions>
</trkpt>
<trkpt lat="30.617183685" lon="34.846908569">
<ele>508.375000</ele>
<time>2013-11-23T12:02:59Z</time>
<extensions>
<speed>0.0</speed>
<temp>0.00</temp>
<bpm>0</bpm>
<rpm>0.00</rpm>
</extensions>
</trkpt>
<trkpt lat="30.617183685" lon="34.846908569">
<ele>508.390625</ele>
<time>2013-11-23T12:03:04Z</time>
<extensions>
<speed>0.0</speed>
<temp>0.00</temp>
<bpm>0</bpm>
<rpm>0.00</rpm>
</extensions>
</trkpt>
<trkpt lat="30.617183685" lon="34.846908569">
<ele>508.398438</ele>
<time>2013-11-23T12:03:09Z</time>
<extensions>
<speed>0.0</speed>
<temp>0.00</temp>
<bpm>0</bpm>
<rpm>0.00</rpm>
</extensions>
</trkpt>
<trkpt lat="30.617183685" lon="34.846908569">
<ele>508.398438</ele>
<time>2013-11-23T12:03:14Z</time>
<extensions>
<speed>0.0</speed>
<temp>0.00</temp>
<bpm>0</bpm>
<rpm>0.00</rpm>
</extensions>
</trkpt>
<trkpt lat="30.617183685" lon="34.846908569">
<ele>508.414063</ele>
<time>2013-11-23T12:03:19Z</time>
<extensions>
<speed>0.0</speed>
<temp>0.00</temp>
<bpm>0</bpm>
<rpm>0.00</rpm>
</extensions>
</trkpt>
<trkpt lat="30.617183685" lon="34.846908569">
<ele>508.437500</ele>
<time>2013-11-23T12:03:24Z</time>
<speed>0.010000</speed>
<extensions>
<speed>0.0</speed>
<temp>0.00</temp>
<bpm>0</bpm>
<rpm>0.00</rpm>
</extensions>
</trkpt>
<trkpt lat="30.617183685" lon="34.846908569">
<ele>508.453125</ele>
<time>2013-11-23T12:03:29Z</time>
<speed>0.030000</speed>
<extensions>
<speed>0.0</speed>
<temp>0.00</temp>
<bpm>0</bpm>
<rpm>0.00</rpm>
</extensions>
</trkpt>
<trkpt lat="30.617183685" lon="34.846908569">
<ele>508.453125</ele>
<time>2013-11-23T12:03:34Z</time>
<speed>0.010000</speed>
<extensions>
<speed>0.0</speed>
<temp>0.00</temp>
<bpm>0</bpm>
<rpm>0.00</rpm>
</extensions>
</trkpt>
<trkpt lat="30.617183685" lon="34.846908569">
<ele>508.484375</ele>
<time>2013-11-23T12:03:39Z</time>
<extensions>
<speed>0.0</speed>
<temp>0.00</temp>
<bpm>0</bpm>
<rpm>0.00</rpm>
</extensions>
</trkpt>
<trkpt lat="30.617183685" lon="34.846908569">
<ele>508.500000</ele>
<time>2013-11-23T12:03:44Z</time>
<speed>0.010000</speed>
<extensions>
<speed>0.0</speed>
<temp>0.00</temp>
<bpm>0</bpm>
<rpm>0.00</rpm>
</extensions>
</trkpt>
<trkpt lat="30.617183685" lon="34.846908569">
<ele>508.523438</ele>
<time>2013-11-23T12:03:49Z</time>
<extensions>
<speed>0.0</speed>
<temp>0.00</temp>
<bpm>0</bpm>
<rpm>0.00</rpm>
</extensions>
</trkpt>
<trkpt lat="30.617183685" lon="34.846908569">
<ele>508.539063</ele>
<time>2013-11-23T12:03:54Z</time>
<extensions>
<speed>0.0</speed>
<temp>0.00</temp>
<bpm>0</bpm>
<rpm>0.00</rpm>
</extensions>
</trkpt>
<trkpt lat="30.617183685" lon="34.846908569">
<ele>508.570313</ele>
<time>2013-11-23T12:03:59Z</time>
<speed>0.010000</speed>
<extensions>
<speed>0.0</speed>
<temp>0.00</temp>
<bpm>0</bpm>
<rpm>0.00</rpm>
</extensions>
</trkpt>
<trkpt lat="30.617183685" lon="34.846904755">
<ele>508.585938</ele>
<time>2013-11-23T12:04:04Z</time>
<extensions>
<speed>0.0</speed>
<temp>0.00</temp>
<bpm>0</bpm>
<rpm>0.00</rpm>
</extensions>
</trkpt>
<trkpt lat="30.617183685" lon="34.846904755">
<ele>508.601563</ele>
<time>2013-11-23T12:04:09Z</time>
<speed>0.020000</speed>
<extensions>
<speed>0.0</speed>
<temp>0.00</temp>
<bpm>0</bpm>
<rpm>0.00</rpm>
</extensions>
</trkpt>
<trkpt lat="30.617183685" lon="34.846904755">
<ele>508.617188</ele>
<time>2013-11-23T12:04:14Z</time>
<extensions>
<speed>0.0</speed>
<temp>0.00</temp>
<bpm>0</bpm>
<rpm>0.00</rpm>
</extensions>
</trkpt>
<trkpt lat="30.617183685" lon="34.846904755">
<ele>508.640625</ele>
<time>2013-11-23T12:04:19Z</time>
<extensions>
<speed>0.0</speed>
<temp>0.00</temp>
<bpm>0</bpm>
<rpm>0.00</rpm>
</extensions>
</trkpt>
<trkpt lat="30.617185593" lon="34.846904755">
<ele>508.664063</ele>
<time>2013-11-23T12:04:24Z</time>
<speed>0.010000</speed>
<extensions>
<speed>0.0</speed>
<temp>0.00</temp>
<bpm>0</bpm>
<rpm>0.00</rpm>
</extensions>
</trkpt>
<trkpt lat="30.617185593" lon="34.846904755">
<ele>508.695313</ele>
<time>2013-11-23T12:04:29Z</time>
<extensions>
<speed>0.0</speed>
<temp>0.00</temp>
<bpm>0</bpm>
<rpm>0.00</rpm>
</extensions>
</trkpt>
<trkpt lat="30.617185593" lon="34.846904755">
<ele>508.718750</ele>
<time>2013-11-23T12:04:34Z</time>
<extensions>
<speed>0.0</speed>
<temp>0.00</temp>
<bpm>0</bpm>
<rpm>0.00</rpm>
</extensions>
</trkpt>
<trkpt lat="30.617183685" lon="34.846904755">
<ele>508.750000</ele>
<time>2013-11-23T12:04:39Z</time>
<extensions>
<speed>0.0</speed>
<temp>0.00</temp>
<bpm>0</bpm>
<rpm>0.00</rpm>
</extensions>
</trkpt>
<trkpt lat="30.617183685" lon="34.846904755">
<ele>508.773438</ele>
<time>2013-11-23T12:04:44Z</time>
<extensions>
<speed>0.0</speed>
<temp>0.00</temp>
<bpm>0</bpm>
<rpm>0.00</rpm>
</extensions>
</trkpt>
<trkpt lat="30.617183685" lon="34.846904755">
<ele>508.781250</ele>
<time>2013-11-23T12:04:49Z</time>
<speed>0.010000</speed>
<extensions>
<speed>0.0</speed>
<temp>0.00</temp>
<bpm>0</bpm>
<rpm>0.00</rpm>
</extensions>
</trkpt>
<trkpt lat="30.617183685" lon="34.846904755">
<ele>508.789063</ele>
<time>2013-11-23T12:04:54Z</time>
<extensions>
<speed>0.0</speed>
<temp>0.00</temp>
<bpm>0</bpm>
<rpm>0.00</rpm>
</extensions>
</trkpt>
<trkpt lat="30.617183685" lon="34.846904755">
<ele>508.812500</ele>
<time>2013-11-23T12:04:59Z</time>
<extensions>
<speed>0.0</speed>
<temp>0.00</temp>
<bpm>0</bpm>
<rpm>0.00</rpm>
</extensions>
</trkpt>
<trkpt lat="30.617183685" lon="34.846904755">
<ele>508.851563</ele>
<time>2013-11-23T12:05:04Z</time>
<speed>0.010000</speed>
<extensions>
<speed>0.0</speed>
<temp>0.00</temp>
<bpm>0</bpm>
<rpm>0.00</rpm>
</extensions>
</trkpt>
<trkpt lat="30.617183685" lon="34.846904755">
<ele>508.882813</ele>
<time>2013-11-23T12:05:09Z</time>
<extensions>
<speed>0.0</speed>
<temp>0.00</temp>
<bpm>0</bpm>
<rpm>0.00</rpm>
</extensions>
</trkpt>
<trkpt lat="30.617183685" lon="34.846904755">
<ele>508.914063</ele>
<time>2013-11-23T12:05:14Z</time>
<extensions>
<speed>0.0</speed>
<temp>0.00</temp>
<bpm>0</bpm>
<rpm>0.00</rpm>
</extensions>
</trkpt>
<trkpt lat="30.617183685" lon="34.846904755">
<ele>508.929688</ele>
<time>2013-11-23T12:05:19Z</time>
<speed>0.010000</speed>
<extensions>
<speed>0.0</speed>
<temp>0.00</temp>
<bpm>0</bpm>
<rpm>0.00</rpm>
</extensions>
</trkpt>
<trkpt lat="30.617183685" lon="34.846904755">
<ele>508.937500</ele>
<time>2013-11-23T12:05:24Z</time>
<speed>0.010000</speed>
<extensions>
<speed>0.0</speed>
<temp>0.00</temp>
<bpm>0</bpm>
<rpm>0.00</rpm>
</extensions>
</trkpt>
<trkpt lat="30.617183685" lon="34.846904755">
<ele>508.945313</ele>
<time>2013-11-23T12:05:29Z</time>
<extensions>
<speed>0.0</speed>
<temp>0.00</temp>
<bpm>0</bpm>
<rpm>0.00</rpm>
</extensions>
</trkpt>
<trkpt lat="30.617183685" lon="34.846904755">
<ele>508.960938</ele>
<time>2013-11-23T12:05:34Z</time>
<extensions>
<speed>0.0</speed>
<temp>0.00</temp>
<bpm>0</bpm>
<rpm>0.00</rpm>
</extensions>
</trkpt>
<trkpt lat="30.617183685" lon="34.846904755">
<ele>508.968750</ele>
<time>2013-11-23T12:05:39Z</time>
<extensions>
<speed>0.0</speed>
<temp>0.00</temp>
<bpm>0</bpm>
<rpm>0.00</rpm>
</extensions>
</trkpt>
<trkpt lat="30.617183685" lon="34.846904755">
<ele>508.992188</ele>
<time>2013-11-23T12:05:44Z</time>
<speed>0.010000</speed>
<extensions>
<speed>0.0</speed>
<temp>0.00</temp>
<bpm>0</bpm>
<rpm>0.00</rpm>
</extensions>
</trkpt>
<trkpt lat="30.617183685" lon="34.846904755">
<ele>509.015625</ele>
<time>2013-11-23T12:05:49Z</time>
<extensions>
<speed>0.0</speed>
<temp>0.00</temp>
<bpm>0</bpm>
<rpm>0.00</rpm>
</extensions>
</trkpt>
<trkpt lat="30.617183685" lon="34.846904755">
<ele>509.031250</ele>
<time>2013-11-23T12:05:54Z</time>
<extensions>
<speed>0.0</speed>
<temp>0.00</temp>
<bpm>0</bpm>
<rpm>0.00</rpm>
</extensions>
</trkpt>
<trkpt lat="30.617183685" lon="34.846904755">
<ele>509.054688</ele>
<time>2013-11-23T12:05:59Z</time>
<extensions>
<speed>0.0</speed>
<temp>0.00</temp>
<bpm>0</bpm>
<rpm>0.00</rpm>
</extensions>
</trkpt>
<trkpt lat="30.617183685" lon="34.846904755">
<ele>509.085938</ele>
<time>2013-11-23T12:06:04Z</time>
<extensions>
<speed>0.0</speed>
<temp>0.00</temp>
<bpm>0</bpm>
<rpm>0.00</rpm>
</extensions>
</trkpt>
<trkpt lat="30.617183685" lon="34.846904755">
<ele>509.109375</ele>
<time>2013-11-23T12:06:09Z</time>
<extensions>
<speed>0.0</speed>
<temp>0.00</temp>
<bpm>0</bpm>
<rpm>0.00</rpm>
</extensions>
</trkpt>
<trkpt lat="30.617183685" lon="34.846904755">
<ele>509.125000</ele>
<time>2013-11-23T12:06:14Z</time>
<extensions>
<speed>0.0</speed>
<temp>0.00</temp>
<bpm>0</bpm>
<rpm>0.00</rpm>
</extensions>
</trkpt>
<trkpt lat="30.617183685" lon="34.846904755">
<ele>509.148438</ele>
<time>2013-11-23T12:06:19Z</time>
<speed>0.010000</speed>
<extensions>
<speed>0.0</speed>
<temp>0.00</temp>
<bpm>0</bpm>
<rpm>0.00</rpm>
</extensions>
</trkpt>
<trkpt lat="30.617183685" lon="34.846904755">
<ele>509.171875</ele>
<time>2013-11-23T12:06:24Z</time>
<extensions>
<speed>0.0</speed>
<temp>0.00</temp>
<bpm>0</bpm>
<rpm>0.00</rpm>
</extensions>
</trkpt>
<trkpt lat="30.617183685" lon="34.846904755">
<ele>509.195313</ele>
<time>2013-11-23T12:06:29Z</time>
<speed>0.010000</speed>
<extensions>
<speed>0.0</speed>
<temp>0.00</temp>
<bpm>0</bpm>
<rpm>0.00</rpm>
</extensions>
</trkpt>
<trkpt lat="30.617183685" lon="34.846904755">
<ele>509.218750</ele>
<time>2013-11-23T12:06:34Z</time>
<speed>0.010000</speed>
<extensions>
<speed>0.0</speed>
<temp>0.00</temp>
<bpm>0</bpm>
<rpm>0.00</rpm>
</extensions>
</trkpt>
<trkpt lat="30.617183685" lon="34.846904755">
<ele>509.242188</ele>
<time>2013-11-23T12:06:39Z</time>
<extensions>
<speed>0.0</speed>
<temp>0.00</temp>
<bpm>0</bpm>
<rpm>0.00</rpm>
</extensions>
</trkpt>
<trkpt lat="30.617183685" lon="34.846904755">
<ele>509.257813</ele>
<time>2013-11-23T12:06:44Z</time>
<extensions>
<speed>0.0</speed>
<temp>0.00</temp>
<bpm>0</bpm>
<rpm>0.00</rpm>
</extensions>
</trkpt>
<trkpt lat="30.617183685" lon="34.846904755">
<ele>509.281250</ele>
<time>2013-11-23T12:06:49Z</time>
<extensions>
<speed>0.0</speed>
<temp>0.00</temp>
<bpm>0</bpm>
<rpm>0.00</rpm>
</extensions>
</trkpt>
<trkpt lat="30.617183685" lon="34.846904755">
<ele>509.312500</ele>
<time>2013-11-23T12:06:54Z</time>
<speed>0.010000</speed>
<extensions>
<speed>0.0</speed>
<temp>0.00</temp>
<bpm>0</bpm>
<rpm>0.00</rpm>
</extensions>
</trkpt>
<trkpt lat="30.617193222" lon="34.846885681">
<ele>509.539063</ele>
<time>2013-11-23T12:06:59Z</time>
<speed>1.920000</speed>
<extensions>
<speed>1.9</speed>
<temp>0.00</temp>
<bpm>0</bpm>
<rpm>0.00</rpm>
</extensions>
</trkpt>
<trkpt lat="30.617153168" lon="34.846790314">
<ele>510.250000</ele>
<time>2013-11-23T12:07:04Z</time>
<speed>2.340000</speed>
<extensions>
<speed>2.3</speed>
<temp>0.00</temp>
<bpm>0</bpm>
<rpm>0.00</rpm>
</extensions>
</trkpt>
<trkpt lat="30.617069244" lon="34.846752167">
<ele>511.898438</ele>
<time>2013-11-23T12:07:09Z</time>
<speed>1.600000</speed>
<extensions>
<speed>1.6</speed>
<temp>0.00</temp>
<bpm>0</bpm>
<rpm>0.00</rpm>
</extensions>
</trkpt>
<trkpt lat="30.617004395" lon="34.846748352">
<ele>513.250000</ele>
<time>2013-11-23T12:07:14Z</time>
<speed>1.460000</speed>
<extensions>
<speed>1.5</speed>
<temp>0.00</temp>
<bpm>0</bpm>
<rpm>0.00</rpm>
</extensions>
</trkpt>
<trkpt lat="30.616966248" lon="34.846813202">
<ele>516.515625</ele>
<time>2013-11-23T12:07:19Z</time>
<speed>1.480000</speed>
<extensions>
<speed>1.5</speed>
<temp>0.00</temp>
<bpm>0</bpm>
<rpm>0.00</rpm>
</extensions>
</trkpt>
<trkpt lat="30.616935730" lon="34.846893311">
<ele>519.843750</ele>
<time>2013-11-23T12:07:24Z</time>
<speed>1.790000</speed>
<extensions>
<speed>1.8</speed>
<temp>0.00</temp>
<bpm>0</bpm>
<rpm>0.00</rpm>
</extensions>
</trkpt>
<trkpt lat="30.616903305" lon="34.846981049">
<ele>522.390625</ele>
<time>2013-11-23T12:07:29Z</time>
<speed>1.470000</speed>
<extensions>
<speed>1.5</speed>
<temp>0.00</temp>
<bpm>0</bpm>
<rpm>0.00</rpm>
</extensions>
</trkpt>
<trkpt lat="30.616905212" lon="34.847034454">
<ele>524.281250</ele>
<time>2013-11-23T12:07:34Z</time>
<speed>0.820000</speed>
<extensions>
<speed>0.8</speed>
<temp>0.00</temp>
<bpm>0</bpm>
<rpm>0.00</rpm>
</extensions>
</trkpt>
<trkpt lat="30.616901398" lon="34.847087860">
<ele>525.531250</ele>
<time>2013-11-23T12:07:39Z</time>
<speed>0.970000</speed>
<extensions>
<speed>1.0</speed>
<temp>0.00</temp>
<bpm>0</bpm>
<rpm>0.00</rpm>
</extensions>
</trkpt>
<trkpt lat="30.616891861" lon="34.847137451">
<ele>526.828125</ele>
<time>2013-11-23T12:07:44Z</time>
<speed>1.260000</speed>
<extensions>
<speed>1.3</speed>
<temp>0.00</temp>
<bpm>0</bpm>
<rpm>0.00</rpm>
</extensions>
</trkpt>
<trkpt lat="30.616884232" lon="34.847198486">
<ele>528.046875</ele>
<time>2013-11-23T12:07:49Z</time>
<speed>1.000000</speed>
<extensions>
<speed>1.0</speed>
<temp>0.00</temp>
<bpm>0</bpm>
<rpm>0.00</rpm>
</extensions>
</trkpt>
<trkpt lat="30.616874695" lon="34.847248077">
<ele>529.015625</ele>
<time>2013-11-23T12:07:54Z</time>
<speed>1.390000</speed>
<extensions>
<speed>1.4</speed>
<temp>0.00</temp>
<bpm>0</bpm>
<rpm>0.00</rpm>
</extensions>
</trkpt>
<trkpt lat="30.616853714" lon="34.847339630">
<ele>530.171875</ele>
<time>2013-11-23T12:07:59Z</time>
<speed>2.080000</speed>
<extensions>
<speed>2.1</speed>
<temp>0.00</temp>
<bpm>0</bpm>
<rpm>0.00</rpm>
</extensions>
</trkpt>
<trkpt lat="30.616834641" lon="34.847461700">
<ele>531.281250</ele>
<time>2013-11-23T12:08:04Z</time>
<speed>3.210000</speed>
<extensions>
<speed>3.2</speed>
<temp>0.00</temp>
<bpm>0</bpm>
<rpm>0.00</rpm>
</extensions>
</trkpt>
<trkpt lat="30.616857529" lon="34.847614288">
<ele>531.796875</ele>
<time>2013-11-23T12:08:09Z</time>
<speed>2.730000</speed>
<extensions>
<speed>2.7</speed>
<temp>0.00</temp>
<bpm>0</bpm>
<rpm>0.00</rpm>
</extensions>
</trkpt>
<trkpt lat="30.616844177" lon="34.847743988">
<ele>532.187500</ele>
<time>2013-11-23T12:08:14Z</time>
<speed>2.360000</speed>
<extensions>
<speed>2.4</speed>
<temp>0.00</temp>
<bpm>0</bpm>
<rpm>0.00</rpm>
</extensions>
</trkpt>
<trkpt lat="30.616893768" lon="34.847862244">
<ele>532.843750</ele>
<time>2013-11-23T12:08:19Z</time>
<speed>2.420000</speed>
<extensions>
<speed>2.4</speed>
<temp>0.00</temp>
<bpm>0</bpm>
<rpm>0.00</rpm>
</extensions>
</trkpt>
<trkpt lat="30.616958618" lon="34.847946167">
<ele>533.281250</ele>
<time>2013-11-23T12:08:24Z</time>
<speed>1.920000</speed>
<extensions>
<speed>1.9</speed>
<temp>0.00</temp>
<bpm>0</bpm>
<rpm>0.00</rpm>
</extensions>
</trkpt>
<trkpt lat="30.617036819" lon="34.847999573">
<ele>532.953125</ele>
<time>2013-11-23T12:08:29Z</time>
<speed>1.830000</speed>
<extensions>
<speed>1.8</speed>
<temp>0.00</temp>
<bpm>0</bpm>
<rpm>0.00</rpm>
</extensions>
</trkpt>
<trkpt lat="30.617128372" lon="34.848056793">
<ele>532.750000</ele>
<time>2013-11-23T12:08:34Z</time>
<speed>2.490000</speed>
<extensions>
<speed>2.5</speed>
<temp>0.00</temp>
<bpm>0</bpm>
<rpm>0.00</rpm>
</extensions>
</trkpt>
<trkpt lat="30.617246628" lon="34.847984314">
<ele>532.546875</ele>
<time>2013-11-23T12:08:39Z</time>
<speed>2.340000</speed>
<extensions>
<speed>2.3</speed>
<temp>0.00</temp>
<bpm>0</bpm>
<rpm>0.00</rpm>
</extensions>
</trkpt>
<trkpt lat="30.617324829" lon="34.847911835">
<ele>532.359375</ele>
<time>2013-11-23T12:08:44Z</time>
<speed>2.670000</speed>
<extensions>
<speed>2.7</speed>
<temp>0.00</temp>
<bpm>0</bpm>
<rpm>0.00</rpm>
</extensions>
</trkpt>
<trkpt lat="30.617437363" lon="34.847797394">
<ele>532.421875</ele>
<time>2013-11-23T12:08:49Z</time>
<speed>3.000000</speed>
<extensions>
<speed>3.0</speed>
<temp>0.00</temp>
<bpm>0</bpm>
<rpm>0.00</rpm>
</extensions>
</trkpt>
<trkpt lat="30.617523193" lon="34.847690582">
<ele>532.421875</ele>
<time>2013-11-23T12:08:54Z</time>
<speed>3.050000</speed>
<extensions>
<speed>3.0</speed>
<temp>0.00</temp>
<bpm>0</bpm>
<rpm>0.00</rpm>
</extensions>
</trkpt>
<trkpt lat="30.617631912" lon="34.847557068">
<ele>532.437500</ele>
<time>2013-11-23T12:08:59Z</time>
<speed>3.640000</speed>
<extensions>
<speed>3.6</speed>
<temp>0.00</temp>
<bpm>0</bpm>
<rpm>0.00</rpm>
</extensions>
</trkpt>
<trkpt lat="30.617723465" lon="34.847442627">
<ele>532.546875</ele>
<time>2013-11-23T12:09:04Z</time>
<speed>2.080000</speed>
<extensions>
<speed>2.1</speed>
<temp>0.00</temp>
<bpm>0</bpm>
<rpm>0.00</rpm>
</extensions>
</trkpt>
<trkpt lat="30.617818832" lon="34.847332001">
<ele>532.421875</ele>
<time>2013-11-23T12:09:09Z</time>
<speed>3.180000</speed>
<extensions>
<speed>3.2</speed>
<temp>0.00</temp>
<bpm>0</bpm>
<rpm>0.00</rpm>
</extensions>
</trkpt>
<trkpt lat="30.617904663" lon="34.847251892">
<ele>532.406250</ele>
<time>2013-11-23T12:09:14Z</time>
<speed>2.030000</speed>
<extensions>
<speed>2.0</speed>
<temp>0.00</temp>
<bpm>0</bpm>
<rpm>0.00</rpm>
</extensions>
</trkpt>
<trkpt lat="30.617994308" lon="34.847145081">
<ele>532.203125</ele>
<time>2013-11-23T12:09:19Z</time>
<speed>3.530000</speed>
<extensions>
<speed>3.5</speed>
<temp>0.00</temp>
<bpm>0</bpm>
<rpm>0.00</rpm>
</extensions>
</trkpt>
<trkpt lat="30.618120193" lon="34.846992493">
<ele>531.906250</ele>
<time>2013-11-23T12:09:24Z</time>
<speed>4.200000</speed>
<extensions>
<speed>4.2</speed>
<temp>0.00</temp>
<bpm>0</bpm>
<rpm>0.00</rpm>
</extensions>
</trkpt>
<trkpt lat="30.618242264" lon="34.846866608">
<ele>532.296875</ele>
<time>2013-11-23T12:09:29Z</time>
<speed>2.780000</speed>
<extensions>
<speed>2.8</speed>
<temp>0.00</temp>
<bpm>0</bpm>
<rpm>0.00</rpm>
</extensions>
</trkpt>
<trkpt lat="30.618307114" lon="34.846778870">
<ele>532.062500</ele>
<time>2013-11-23T12:09:34Z</time>
<speed>2.080000</speed>
<extensions>
<speed>2.1</speed>
<temp>0.00</temp>
<bpm>0</bpm>
<rpm>0.00</rpm>
</extensions>
</trkpt>
<trkpt lat="30.618387222" lon="34.846683502">
<ele>532.015625</ele>
<time>2013-11-23T12:09:39Z</time>
<speed>3.080000</speed>
<extensions>
<speed>3.1</speed>
<temp>0.00</temp>
<bpm>0</bpm>
<rpm>0.00</rpm>
</extensions>
</trkpt>
<trkpt lat="30.618495941" lon="34.846549988">
<ele>532.140625</ele>
<time>2013-11-23T12:09:44Z</time>
<speed>3.630000</speed>
<extensions>
<speed>3.6</speed>
<temp>0.00</temp>
<bpm>0</bpm>
<rpm>0.00</rpm>
</extensions>
</trkpt>
<trkpt lat="30.618618011" lon="34.846405029">
<ele>532.125000</ele>
<time>2013-11-23T12:09:49Z</time>
<speed>3.810000</speed>
<extensions>
<speed>3.8</speed>
<temp>0.00</temp>
<bpm>0</bpm>
<rpm>0.00</rpm>
</extensions>
</trkpt>
<trkpt lat="30.618740082" lon="34.846267700">
<ele>532.281250</ele>
<time>2013-11-23T12:09:54Z</time>
<speed>3.850000</speed>
<extensions>
<speed>3.8</speed>
<temp>0.00</temp>
<bpm>0</bpm>
<rpm>0.00</rpm>
</extensions>
</trkpt>
<trkpt lat="30.618865967" lon="34.846118927">
<ele>532.343750</ele>
<time>2013-11-23T12:09:59Z</time>
<speed>3.890000</speed>
<extensions>
<speed>3.9</speed>
<temp>0.00</temp>
<bpm>0</bpm>
<rpm>0.00</rpm>
</extensions>
</trkpt>
<trkpt lat="30.618986130" lon="34.845973969">
<ele>532.468750</ele>
<time>2013-11-23T12:10:04Z</time>
<speed>3.850000</speed>
<extensions>
<speed>3.8</speed>
<temp>0.00</temp>
<bpm>0</bpm>
<rpm>0.00</rpm>
</extensions>
</trkpt>
<trkpt lat="30.619108200" lon="34.845829010">
<ele>532.562500</ele>
<time>2013-11-23T12:10:09Z</time>
<speed>3.870000</speed>
<extensions>
<speed>3.9</speed>
<temp>0.00</temp>
<bpm>0</bpm>
<rpm>0.00</rpm>
</extensions>
</trkpt>
<trkpt lat="30.619230270" lon="34.845684052">
<ele>532.781250</ele>
<time>2013-11-23T12:10:14Z</time>
<speed>3.870000</speed>
<extensions>
<speed>3.9</speed>
<temp>0.00</temp>
<bpm>0</bpm>
<rpm>0.00</rpm>
</extensions>
</trkpt>
<trkpt lat="30.619354248" lon="34.845535278">
<ele>533.046875</ele>
<time>2013-11-23T12:10:19Z</time>
<speed>3.780000</speed>
<extensions>
<speed>3.8</speed>
<temp>0.00</temp>
<bpm>0</bpm>
<rpm>0.00</rpm>
</extensions>
</trkpt>
<trkpt lat="30.619451523" lon="34.845428467">
<ele>533.343750</ele>
<time>2013-11-23T12:10:24Z</time>
<speed>2.000000</speed>
<extensions>
<speed>2.0</speed>
<temp>0.00</temp>
<bpm>0</bpm>
<rpm>0.00</rpm>
</extensions>
</trkpt>
<trkpt lat="30.619541168" lon="34.845333099">
<ele>533.562500</ele>
<time>2013-11-23T12:10:29Z</time>
<speed>3.420000</speed>
<extensions>
<speed>3.4</speed>
<temp>0.00</temp>
<bpm>0</bpm>
<rpm>0.00</rpm>
</extensions>
</trkpt>
<trkpt lat="30.619642258" lon="34.845207214">
<ele>533.828125</ele>
<time>2013-11-23T12:10:34Z</time>
<speed>2.550000</speed>
<extensions>
<speed>2.6</speed>
<temp>0.00</temp>
<bpm>0</bpm>
<rpm>0.00</rpm>
</extensions>
</trkpt>
<trkpt lat="30.619728088" lon="34.845100403">
<ele>533.562500</ele>
<time>2013-11-23T12:10:39Z</time>
<speed>3.220000</speed>
<extensions>
<speed>3.2</speed>
<temp>0.00</temp>
<bpm>0</bpm>
<rpm>0.00</rpm>
</extensions>
</trkpt>
<trkpt lat="30.619819641" lon="34.844997406">
<ele>533.953125</ele>
<time>2013-11-23T12:10:44Z</time>
<speed>2.050000</speed>
<extensions>
<speed>2.1</speed>
<temp>0.00</temp>
<bpm>0</bpm>
<rpm>0.00</rpm>
</extensions>
</trkpt>
<trkpt lat="30.619894028" lon="34.844909668">
<ele>533.578125</ele>
<time>2013-11-23T12:10:49Z</time>
<speed>2.520000</speed>
<extensions>
<speed>2.5</speed>
<temp>0.00</temp>
<bpm>0</bpm>
<rpm>0.00</rpm>
</extensions>
</trkpt>
<trkpt lat="30.619979858" lon="34.844810486">
<ele>533.546875</ele>
<time>2013-11-23T12:10:54Z</time>
<speed>3.190000</speed>
<extensions>
<speed>3.2</speed>
<temp>0.00</temp>
<bpm>0</bpm>
<rpm>0.00</rpm>
</extensions>
</trkpt>
<trkpt lat="30.620094299" lon="34.844684601">
<ele>533.718750</ele>
<time>2013-11-23T12:10:59Z</time>
<speed>3.290000</speed>
<extensions>
<speed>3.3</speed>
<temp>0.00</temp>
<bpm>0</bpm>
<rpm>0.00</rpm>
</extensions>
</trkpt>
<trkpt lat="30.620178223" lon="34.844585419">
<ele>533.671875</ele>
<time>2013-11-23T12:11:04Z</time>
<speed>1.850000</speed>
<extensions>
<speed>1.8</speed>
<temp>0.00</temp>
<bpm>0</bpm>
<rpm>0.00</rpm>
</extensions>
</trkpt>
<trkpt lat="30.620243073" lon="34.844497681">
<ele>533.953125</ele>
<time>2013-11-23T12:11:09Z</time>
<speed>2.770000</speed>
<extensions>
<speed>2.8</speed>
<temp>0.00</temp>
<bpm>0</bpm>
<rpm>0.00</rpm>
</extensions>
</trkpt>
<trkpt lat="30.620326996" lon="34.844409943">
<ele>534.218750</ele>
<time>2013-11-23T12:11:14Z</time>
<speed>2.130000</speed>
<extensions>
<speed>2.1</speed>
<temp>0.00</temp>
<bpm>0</bpm>
<rpm>0.00</rpm>
</extensions>
</trkpt>
<trkpt lat="30.620378494" lon="34.844337463">
<ele>534.468750</ele>
<time>2013-11-23T12:11:19Z</time>
<speed>2.500000</speed>
<extensions>
<speed>2.5</speed>
<temp>0.00</temp>
<bpm>0</bpm>
<rpm>0.00</rpm>
</extensions>
</trkpt>
<trkpt lat="30.620473862" lon="34.844238281">
<ele>535.078125</ele>
<time>2013-11-23T12:11:24Z</time>
<speed>2.760000</speed>
<extensions>
<speed>2.8</speed>
<temp>0.00</temp>
<bpm>0</bpm>
<rpm>0.00</rpm>
</extensions>
</trkpt>
<trkpt lat="30.620559692" lon="34.844142914">
<ele>535.234375</ele>
<time>2013-11-23T12:11:29Z</time>
<speed>3.140000</speed>
<extensions>
<speed>3.1</speed>
<temp>0.00</temp>
<bpm>0</bpm>
<rpm>0.00</rpm>
</extensions>
</trkpt>
<trkpt lat="30.620668411" lon="34.844032288">
<ele>535.390625</ele>
<time>2013-11-23T12:11:34Z</time>
<speed>3.250000</speed>
<extensions>
<speed>3.2</speed>
<temp>0.00</temp>
<bpm>0</bpm>
<rpm>0.00</rpm>
</extensions>
</trkpt>
<trkpt lat="30.620775223" lon="34.843933105">
<ele>535.375000</ele>
<time>2013-11-23T12:11:39Z</time>
<speed>3.190000</speed>
<extensions>
<speed>3.2</speed>
<temp>0.00</temp>
<bpm>0</bpm>
<rpm>0.00</rpm>
</extensions>
</trkpt>
<trkpt lat="30.620891571" lon="34.843826294">
<ele>535.890625</ele>
<time>2013-11-23T12:11:44Z</time>
<speed>3.080000</speed>
<extensions>
<speed>3.1</speed>
<temp>0.00</temp>
<bpm>0</bpm>
<rpm>0.00</rpm>
</extensions>
</trkpt>
<trkpt lat="30.621011734" lon="34.843719482">
<ele>536.484375</ele>
<time>2013-11-23T12:11:49Z</time>
<speed>3.160000</speed>
<extensions>
<speed>3.2</speed>
<temp>0.00</temp>
<bpm>0</bpm>
<rpm>0.00</rpm>
</extensions>
</trkpt>
<trkpt lat="30.621105194" lon="34.843631744">
<ele>536.984375</ele>
<time>2013-11-23T12:11:54Z</time>
<speed>2.950000</speed>
<extensions>
<speed>2.9</speed>
<temp>0.00</temp>
<bpm>0</bpm>
<rpm>0.00</rpm>
</extensions>
</trkpt>
<trkpt lat="30.621227264" lon="34.843521118">
<ele>537.031250</ele>
<time>2013-11-23T12:11:59Z</time>
<speed>3.480000</speed>
<extensions>
<speed>3.5</speed>
<temp>0.00</temp>
<bpm>0</bpm>
<rpm>0.00</rpm>
</extensions>
</trkpt>
<trkpt lat="30.621341705" lon="34.843421936">
<ele>537.140625</ele>
<time>2013-11-23T12:12:04Z</time>
<speed>3.250000</speed>
<extensions>
<speed>3.2</speed>
<temp>0.00</temp>
<bpm>0</bpm>
<rpm>0.00</rpm>
</extensions>
</trkpt>
<trkpt lat="30.621448517" lon="34.843326569">
<ele>537.250000</ele>
<time>2013-11-23T12:12:09Z</time>
<speed>2.550000</speed>
<extensions>
<speed>2.6</speed>
<temp>0.00</temp>
<bpm>0</bpm>
<rpm>0.00</rpm>
</extensions>
</trkpt>
<trkpt lat="30.621549606" lon="34.843231201">
<ele>537.562500</ele>
<time>2013-11-23T12:12:14Z</time>
<speed>3.470000</speed>
<extensions>
<speed>3.5</speed>
<temp>0.00</temp>
<bpm>0</bpm>
<rpm>0.00</rpm>
</extensions>
</trkpt>
<trkpt lat="30.621654510" lon="34.843135834">
<ele>537.796875</ele>
<time>2013-11-23T12:12:19Z</time>
<speed>2.770000</speed>
<extensions>
<speed>2.8</speed>
<temp>0.00</temp>
<bpm>0</bpm>
<rpm>0.00</rpm>
</extensions>
</trkpt>
<trkpt lat="30.621784210" lon="34.843025208">
<ele>537.531250</ele>
<time>2013-11-23T12:12:24Z</time>
<speed>4.150000</speed>
<extensions>
<speed>4.1</speed>
<temp>0.00</temp>
<bpm>0</bpm>
<rpm>0.00</rpm>
</extensions>
</trkpt>
<trkpt lat="30.621913910" lon="34.842910767">
<ele>537.656250</ele>
<time>2013-11-23T12:12:29Z</time>
<speed>2.940000</speed>
<extensions>
<speed>2.9</speed>
<temp>0.00</temp>
<bpm>0</bpm>
<rpm>0.00</rpm>
</extensions>
</trkpt>
<trkpt lat="30.622028351" lon="34.842796326">
<ele>537.890625</ele>
<time>2013-11-23T12:12:34Z</time>
<speed>4.010000</speed>
<extensions>
<speed>4.0</speed>
<temp>0.00</temp>
<bpm>0</bpm>
<rpm>0.00</rpm>
</extensions>
</trkpt>
<trkpt lat="30.622158051" lon="34.842693329">
<ele>537.906250</ele>
<time>2013-11-23T12:12:39Z</time>
<speed>3.010000</speed>
<extensions>
<speed>3.0</speed>
<temp>0.00</temp>
<bpm>0</bpm>
<rpm>0.00</rpm>
</extensions>
</trkpt>
<trkpt lat="30.622282028" lon="34.842578888">
<ele>537.968750</ele>
<time>2013-11-23T12:12:44Z</time>
<speed>4.100000</speed>
<extensions>
<speed>4.1</speed>
<temp>0.00</temp>
<bpm>0</bpm>
<rpm>0.00</rpm>
</extensions>
</trkpt>
<trkpt lat="30.622432709" lon="34.842445374">
<ele>538.250000</ele>
<time>2013-11-23T12:12:49Z</time>
<speed>4.560000</speed>
<extensions>
<speed>4.6</speed>
<temp>0.00</temp>
<bpm>0</bpm>
<rpm>0.00</rpm>
</extensions>
</trkpt>
<trkpt lat="30.622581482" lon="34.842308044">
<ele>538.203125</ele>
<time>2013-11-23T12:12:54Z</time>
<speed>3.510000</speed>
<extensions>
<speed>3.5</speed>
<temp>0.00</temp>
<bpm>0</bpm>
<rpm>0.00</rpm>
</extensions>
</trkpt>
<trkpt lat="30.622692108" lon="34.842212677">
<ele>537.890625</ele>
<time>2013-11-23T12:12:59Z</time>
<speed>2.950000</speed>
<extensions>
<speed>2.9</speed>
<temp>0.00</temp>
<bpm>0</bpm>
<rpm>0.00</rpm>
</extensions>
</trkpt>
<trkpt lat="30.622806549" lon="34.842121124">
<ele>537.421875</ele>
<time>2013-11-23T12:13:04Z</time>
<speed>3.880000</speed>
<extensions>
<speed>3.9</speed>
<temp>0.00</temp>
<bpm>0</bpm>
<rpm>0.00</rpm>
</extensions>
</trkpt>
<trkpt lat="30.622945786" lon="34.841991425">
<ele>537.281250</ele>
<time>2013-11-23T12:13:09Z</time>
<speed>3.420000</speed>
<extensions>
<speed>3.4</speed>
<temp>0.00</temp>
<bpm>0</bpm>
<rpm>0.00</rpm>
</extensions>
</trkpt>
<trkpt lat="30.623046875" lon="34.841899872">
<ele>537.500000</ele>
<time>2013-11-23T12:13:14Z</time>
<speed>2.650000</speed>
<extensions>
<speed>2.6</speed>
<temp>0.00</temp>
<bpm>0</bpm>
<rpm>0.00</rpm>
</extensions>
</trkpt>
<trkpt lat="30.623151779" lon="34.841800690">
<ele>537.890625</ele>
<time>2013-11-23T12:13:19Z</time>
<speed>3.520000</speed>
<extensions>
<speed>3.5</speed>
<temp>0.00</temp>
<bpm>0</bpm>
<rpm>0.00</rpm>
</extensions>
</trkpt>
<trkpt lat="30.623279572" lon="34.841682434">
<ele>538.218750</ele>
<time>2013-11-23T12:13:24Z</time>
<speed>4.030000</speed>
<extensions>
<speed>4.0</speed>
<temp>0.00</temp>
<bpm>0</bpm>
<rpm>0.00</rpm>
</extensions>
</trkpt>
<trkpt lat="30.623414993" lon="34.841548920">
<ele>538.546875</ele>
<time>2013-11-23T12:13:29Z</time>
<speed>3.470000</speed>
<extensions>
<speed>3.5</speed>
<temp>0.00</temp>
<bpm>0</bpm>
<rpm>0.00</rpm>
</extensions>
</trkpt>
<trkpt lat="30.623516083" lon="34.841453552">
<ele>538.406250</ele>
<time>2013-11-23T12:13:34Z</time>
<speed>2.380000</speed>
<extensions>
<speed>2.4</speed>
<temp>0.00</temp>
<bpm>0</bpm>
<rpm>0.00</rpm>
</extensions>
</trkpt>
<trkpt lat="30.623590469" lon="34.841362000">
<ele>538.750000</ele>
<time>2013-11-23T12:13:39Z</time>
<speed>2.860000</speed>
<extensions>
<speed>2.9</speed>
<temp>0.00</temp>
<bpm>0</bpm>
<rpm>0.00</rpm>
</extensions>
</trkpt>
<trkpt lat="30.623661041" lon="34.841281891">
<ele>539.171875</ele>
<time>2013-11-23T12:13:44Z</time>
<speed>1.690000</speed>
<extensions>
<speed>1.7</speed>
<temp>0.00</temp>
<bpm>0</bpm>
<rpm>0.00</rpm>
</extensions>
</trkpt>
<trkpt lat="30.623703003" lon="34.841228485">
<ele>539.171875</ele>
<time>2013-11-23T12:13:49Z</time>
<speed>1.490000</speed>
<extensions>
<speed>1.5</speed>
<temp>0.00</temp>
<bpm>0</bpm>
<rpm>0.00</rpm>
</extensions>
</trkpt>
<trkpt lat="30.623764038" lon="34.841140747">
<ele>539.343750</ele>
<time>2013-11-23T12:13:54Z</time>
<speed>2.180000</speed>
<extensions>
<speed>2.2</speed>
<temp>0.00</temp>
<bpm>0</bpm>
<rpm>0.00</rpm>
</extensions>
</trkpt>
<trkpt lat="30.623823166" lon="34.841053009">
<ele>539.187500</ele>
<time>2013-11-23T12:13:59Z</time>
<speed>2.330000</speed>
<extensions>
<speed>2.3</speed>
<temp>0.00</temp>
<bpm>0</bpm>
<rpm>0.00</rpm>
</extensions>
</trkpt>
<trkpt lat="30.623907089" lon="34.840934753">
<ele>539.312500</ele>
<time>2013-11-23T12:14:04Z</time>
<speed>2.920000</speed>
<extensions>
<speed>2.9</speed>
<temp>0.00</temp>
<bpm>0</bpm>
<rpm>0.00</rpm>
</extensions>
</trkpt>
<trkpt lat="30.623962402" lon="34.840824127">
<ele>538.406250</ele>
<time>2013-11-23T12:14:09Z</time>
<speed>2.060000</speed>
<extensions>
<speed>2.1</speed>
<temp>0.00</temp>
<bpm>0</bpm>
<rpm>0.00</rpm>
</extensions>
</trkpt>
<trkpt lat="30.624006271" lon="34.840740204">
<ele>537.921875</ele>
<time>2013-11-23T12:14:14Z</time>
<speed>2.530000</speed>
<extensions>
<speed>2.5</speed>
<temp>0.00</temp>
<bpm>0</bpm>
<rpm>0.00</rpm>
</extensions>
</trkpt>
<trkpt lat="30.624065399" lon="34.840637207">
<ele>537.484375</ele>
<time>2013-11-23T12:14:19Z</time>
<speed>1.780000</speed>
<extensions>
<speed>1.8</speed>
<temp>0.00</temp>
<bpm>0</bpm>
<rpm>0.00</rpm>
</extensions>
</trkpt>
<trkpt lat="30.624088287" lon="34.840564728">
<ele>537.906250</ele>
<time>2013-11-23T12:14:24Z</time>
<speed>2.380000</speed>
<extensions>
<speed>2.4</speed>
<temp>0.00</temp>
<bpm>0</bpm>
<rpm>0.00</rpm>
</extensions>
</trkpt>
<trkpt lat="30.624130249" lon="34.840435028">
<ele>537.750000</ele>
<time>2013-11-23T12:14:29Z</time>
<speed>2.920000</speed>
<extensions>
<speed>2.9</speed>
<temp>0.00</temp>
<bpm>0</bpm>
<rpm>0.00</rpm>
</extensions>
</trkpt>
<trkpt lat="30.624168396" lon="34.840332031">
<ele>537.640625</ele>
<time>2013-11-23T12:14:34Z</time>
<speed>1.750000</speed>
<extensions>
<speed>1.8</speed>
<temp>0.00</temp>
<bpm>0</bpm>
<rpm>0.00</rpm>
</extensions>
</trkpt>
<trkpt lat="30.624200821" lon="34.840213776">
<ele>537.953125</ele>
<time>2013-11-23T12:14:39Z</time>
<speed>3.310000</speed>
<extensions>
<speed>3.3</speed>
<temp>0.00</temp>
<bpm>0</bpm>
<rpm>0.00</rpm>
</extensions>
</trkpt>
<trkpt lat="30.624233246" lon="34.840026855">
<ele>537.953125</ele>
<time>2013-11-23T12:14:44Z</time>
<speed>3.690000</speed>
<extensions>
<speed>3.7</speed>
<temp>0.00</temp>
<bpm>0</bpm>
<rpm>0.00</rpm>
</extensions>
</trkpt>
<trkpt lat="30.624265671" lon="34.839836121">
<ele>538.031250</ele>
<time>2013-11-23T12:14:49Z</time>
<speed>3.850000</speed>
<extensions>
<speed>3.8</speed>
<temp>0.00</temp>
<bpm>0</bpm>
<rpm>0.00</rpm>
</extensions>
</trkpt>
<trkpt lat="30.624282837" lon="34.839641571">
<ele>538.359375</ele>
<time>2013-11-23T12:14:54Z</time>
<speed>3.550000</speed>
<extensions>
<speed>3.5</speed>
<temp>0.00</temp>
<bpm>0</bpm>
<rpm>0.00</rpm>
</extensions>
</trkpt>
<trkpt lat="30.624300003" lon="34.839450836">
<ele>538.453125</ele>
<time>2013-11-23T12:14:59Z</time>
<speed>3.550000</speed>
<extensions>
<speed>3.5</speed>
<temp>0.00</temp>
<bpm>0</bpm>
<rpm>0.00</rpm>
</extensions>
</trkpt>
<trkpt lat="30.624305725" lon="34.839313507">
<ele>538.984375</ele>
<time>2013-11-23T12:15:04Z</time>
<speed>2.330000</speed>
<extensions>
<speed>2.3</speed>
<temp>0.00</temp>
<bpm>0</bpm>
<rpm>0.00</rpm>
</extensions>
</trkpt>
<trkpt lat="30.624320984" lon="34.839164734">
<ele>539.390625</ele>
<time>2013-11-23T12:15:09Z</time>
<speed>3.230000</speed>
<extensions>
<speed>3.2</speed>
<temp>0.00</temp>
<bpm>0</bpm>
<rpm>0.00</rpm>
</extensions>
</trkpt>
<trkpt lat="30.624330521" lon="34.839012146">
<ele>540.125000</ele>
<time>2013-11-23T12:15:14Z</time>
<speed>2.990000</speed>
<extensions>
<speed>3.0</speed>
<temp>0.00</temp>
<bpm>0</bpm>
<rpm>0.00</rpm>
</extensions>
</trkpt>
<trkpt lat="30.624343872" lon="34.838848114">
<ele>540.750000</ele>
<time>2013-11-23T12:15:19Z</time>
<speed>3.220000</speed>
<extensions>
<speed>3.2</speed>
<temp>0.00</temp>
<bpm>0</bpm>
<rpm>0.00</rpm>
</extensions>
</trkpt>
<trkpt lat="30.624357224" lon="34.838718414">
<ele>541.171875</ele>
<time>2013-11-23T12:15:24Z</time>
<speed>1.890000</speed>
<extensions>
<speed>1.9</speed>
<temp>0.00</temp>
<bpm>0</bpm>
<rpm>0.00</rpm>
</extensions>
</trkpt>
<trkpt lat="30.624361038" lon="34.838592529">
<ele>542.062500</ele>
<time>2013-11-23T12:15:29Z</time>
<speed>2.710000</speed>
<extensions>
<speed>2.7</speed>
<temp>0.00</temp>
<bpm>0</bpm>
<rpm>0.00</rpm>
</extensions>
</trkpt>
<trkpt lat="30.624370575" lon="34.838459015">
<ele>542.593750</ele>
<time>2013-11-23T12:15:34Z</time>
<speed>2.670000</speed>
<extensions>
<speed>2.7</speed>
<temp>0.00</temp>
<bpm>0</bpm>
<rpm>0.00</rpm>
</extensions>
</trkpt>
<trkpt lat="30.624376297" lon="34.838317871">
<ele>543.125000</ele>
<time>2013-11-23T12:15:39Z</time>
<speed>2.590000</speed>
<extensions>
<speed>2.6</speed>
<temp>0.00</temp>
<bpm>0</bpm>
<rpm>0.00</rpm>
</extensions>
</trkpt>
<trkpt lat="30.624383926" lon="34.838180542">
<ele>543.484375</ele>
<time>2013-11-23T12:15:44Z</time>
<speed>2.480000</speed>
<extensions>
<speed>2.5</speed>
<temp>0.00</temp>
<bpm>0</bpm>
<rpm>0.00</rpm>
</extensions>
</trkpt>
<trkpt lat="30.624395370" lon="34.838115692">
<ele>543.562500</ele>
<time>2013-11-23T12:15:49Z</time>
<speed>1.250000</speed>
<extensions>
<speed>1.3</speed>
<temp>0.00</temp>
<bpm>0</bpm>
<rpm>0.00</rpm>
</extensions>
</trkpt>
<trkpt lat="30.624393463" lon="34.838027954">
<ele>544.265625</ele>
<time>2013-11-23T12:15:54Z</time>
<speed>2.160000</speed>
<extensions>
<speed>2.2</speed>
<temp>0.00</temp>
<bpm>0</bpm>
<rpm>0.00</rpm>
</extensions>
</trkpt>
<trkpt lat="30.624401093" lon="34.837902069">
<ele>544.437500</ele>
<time>2013-11-23T12:15:59Z</time>
<speed>2.420000</speed>
<extensions>
<speed>2.4</speed>
<temp>0.00</temp>
<bpm>0</bpm>
<rpm>0.00</rpm>
</extensions>
</trkpt>
<trkpt lat="30.624404907" lon="34.837783813">
<ele>544.875000</ele>
<time>2013-11-23T12:16:04Z</time>
<speed>1.500000</speed>
<extensions>
<speed>1.5</speed>
<temp>0.00</temp>
<bpm>0</bpm>
<rpm>0.00</rpm>
</extensions>
</trkpt>
<trkpt lat="30.624420166" lon="34.837722778">
<ele>545.156250</ele>
<time>2013-11-23T12:16:09Z</time>
<speed>2.190000</speed>
<extensions>
<speed>2.2</speed>
<temp>0.00</temp>
<bpm>0</bpm>
<rpm>0.00</rpm>
</extensions>
</trkpt>
<trkpt lat="30.624416351" lon="34.837593079">
<ele>546.000000</ele>
<time>2013-11-23T12:16:14Z</time>
<speed>2.690000</speed>
<extensions>
<speed>2.7</speed>
<temp>0.00</temp>
<bpm>0</bpm>
<rpm>0.00</rpm>
</extensions>
</trkpt>
<trkpt lat="30.624422073" lon="34.837459564">
<ele>546.546875</ele>
<time>2013-11-23T12:16:19Z</time>
<speed>1.940000</speed>
<extensions>
<speed>1.9</speed>
<temp>0.00</temp>
<bpm>0</bpm>
<rpm>0.00</rpm>
</extensions>
</trkpt>
<trkpt lat="30.624431610" lon="34.837333679">
<ele>547.296875</ele>
<time>2013-11-23T12:16:24Z</time>
<speed>2.600000</speed>
<extensions>
<speed>2.6</speed>
<temp>0.00</temp>
<bpm>0</bpm>
<rpm>0.00</rpm>
</extensions>
</trkpt>
<trkpt lat="30.624439240" lon="34.837192535">
<ele>548.234375</ele>
<time>2013-11-23T12:16:29Z</time>
<speed>2.630000</speed>
<extensions>
<speed>2.6</speed>
<temp>0.00</temp>
<bpm>0</bpm>
<rpm>0.00</rpm>
</extensions>
</trkpt>
<trkpt lat="30.624443054" lon="34.837078094">
<ele>548.937500</ele>
<time>2013-11-23T12:16:34Z</time>
<speed>1.310000</speed>
<extensions>
<speed>1.3</speed>
<temp>0.00</temp>
<bpm>0</bpm>
<rpm>0.00</rpm>
</extensions>
</trkpt>
<trkpt lat="30.624446869" lon="34.836982727">
<ele>549.328125</ele>
<time>2013-11-23T12:16:39Z</time>
<speed>2.530000</speed>
<extensions>
<speed>2.5</speed>
<temp>0.00</temp>
<bpm>0</bpm>
<rpm>0.00</rpm>
</extensions>
</trkpt>
<trkpt lat="30.624452591" lon="34.836845398">
<ele>549.484375</ele>
<time>2013-11-23T12:16:44Z</time>
<speed>2.750000</speed>
<extensions>
<speed>2.7</speed>
<temp>0.00</temp>
<bpm>0</bpm>
<rpm>0.00</rpm>
</extensions>
</trkpt>
<trkpt lat="30.624458313" lon="34.836750031">
<ele>550.218750</ele>
<time>2013-11-23T12:16:49Z</time>
<speed>1.800000</speed>
<extensions>
<speed>1.8</speed>
<temp>0.00</temp>
<bpm>0</bpm>
<rpm>0.00</rpm>
</extensions>
</trkpt>
<trkpt lat="30.624467850" lon="34.836635590">
<ele>550.593750</ele>
<time>2013-11-23T12:16:54Z</time>
<speed>2.510000</speed>
<extensions>
<speed>2.5</speed>
<temp>0.00</temp>
<bpm>0</bpm>
<rpm>0.00</rpm>
</extensions>
</trkpt>
<trkpt lat="30.624477386" lon="34.836502075">
<ele>550.859375</ele>
<time>2013-11-23T12:16:59Z</time>
<speed>2.700000</speed>
<extensions>
<speed>2.7</speed>
<temp>0.00</temp>
<bpm>0</bpm>
<rpm>0.00</rpm>
</extensions>
</trkpt>
<trkpt lat="30.624488831" lon="34.836372375">
<ele>550.859375</ele>
<time>2013-11-23T12:17:04Z</time>
<speed>1.510000</speed>
<extensions>
<speed>1.5</speed>
<temp>0.00</temp>
<bpm>0</bpm>
<rpm>0.00</rpm>
</extensions>
</trkpt>
<trkpt lat="30.624488831" lon="34.836284637">
<ele>551.203125</ele>
<time>2013-11-23T12:17:09Z</time>
<speed>1.840000</speed>
<extensions>
<speed>1.8</speed>
<temp>0.00</temp>
<bpm>0</bpm>
<rpm>0.00</rpm>
</extensions>
</trkpt>
<trkpt lat="30.624496460" lon="34.836177826">
<ele>551.812500</ele>
<time>2013-11-23T12:17:14Z</time>
<speed>2.150000</speed>
<extensions>
<speed>2.1</speed>
<temp>0.00</temp>
<bpm>0</bpm>
<rpm>0.00</rpm>
</extensions>
</trkpt>
<trkpt lat="30.624498367" lon="34.836059570">
<ele>552.234375</ele>
<time>2013-11-23T12:17:19Z</time>
<speed>2.380000</speed>
<extensions>
<speed>2.4</speed>
<temp>0.00</temp>
<bpm>0</bpm>
<rpm>0.00</rpm>
</extensions>
</trkpt>
<trkpt lat="30.624511719" lon="34.835929871">
<ele>552.625000</ele>
<time>2013-11-23T12:17:24Z</time>
<speed>1.940000</speed>
<extensions>
<speed>1.9</speed>
<temp>0.00</temp>
<bpm>0</bpm>
<rpm>0.00</rpm>
</extensions>
</trkpt>
<trkpt lat="30.624517441" lon="34.835823059">
<ele>553.046875</ele>
<time>2013-11-23T12:17:29Z</time>
<speed>2.590000</speed>
<extensions>
<speed>2.6</speed>
<temp>0.00</temp>
<bpm>0</bpm>
<rpm>0.00</rpm>
</extensions>
</trkpt>
<trkpt lat="30.624523163" lon="34.835689545">
<ele>553.421875</ele>
<time>2013-11-23T12:17:34Z</time>
<speed>2.340000</speed>
<extensions>
<speed>2.3</speed>
<temp>0.00</temp>
<bpm>0</bpm>
<rpm>0.00</rpm>
</extensions>
</trkpt>
<trkpt lat="30.624525070" lon="34.835578918">
<ele>554.015625</ele>
<time>2013-11-23T12:17:39Z</time>
<speed>2.590000</speed>
<extensions>
<speed>2.6</speed>
<temp>0.00</temp>
<bpm>0</bpm>
<rpm>0.00</rpm>
</extensions>
</trkpt>
<trkpt lat="30.624532700" lon="34.835437775">
<ele>554.578125</ele>
<time>2013-11-23T12:17:44Z</time>
<speed>2.450000</speed>
<extensions>
<speed>2.4</speed>
<temp>0.00</temp>
<bpm>0</bpm>
<rpm>0.00</rpm>
</extensions>
</trkpt>
<trkpt lat="30.624540329" lon="34.835357666">
<ele>554.968750</ele>
<time>2013-11-23T12:17:49Z</time>
<speed>1.040000</speed>
<extensions>
<speed>1.0</speed>
<temp>0.00</temp>
<bpm>0</bpm>
<rpm>0.00</rpm>
</extensions>
</trkpt>
<trkpt lat="30.624547958" lon="34.835258484">
<ele>555.109375</ele>
<time>2013-11-23T12:17:54Z</time>
<speed>2.450000</speed>
<extensions>
<speed>2.4</speed>
<temp>0.00</temp>
<bpm>0</bpm>
<rpm>0.00</rpm>
</extensions>
</trkpt>
<trkpt lat="30.624551773" lon="34.835140228">
<ele>555.734375</ele>
<time>2013-11-23T12:17:59Z</time>
<speed>1.740000</speed>
<extensions>
<speed>1.7</speed>
<temp>0.00</temp>
<bpm>0</bpm>
<rpm>0.00</rpm>
</extensions>
</trkpt>
<trkpt lat="30.624568939" lon="34.835014343">
<ele>555.875000</ele>
<time>2013-11-23T12:18:04Z</time>
<speed>2.600000</speed>
<extensions>
<speed>2.6</speed>
<temp>0.00</temp>
<bpm>0</bpm>
<rpm>0.00</rpm>
</extensions>
</trkpt>
<trkpt lat="30.624576569" lon="34.834877014">
<ele>556.296875</ele>
<time>2013-11-23T12:18:09Z</time>
<speed>1.950000</speed>
<extensions>
<speed>1.9</speed>
<temp>0.00</temp>
<bpm>0</bpm>
<rpm>0.00</rpm>
</extensions>
</trkpt>
<trkpt lat="30.624578476" lon="34.834800720">
<ele>556.296875</ele>
<time>2013-11-23T12:18:14Z</time>
<speed>2.010000</speed>
<extensions>
<speed>2.0</speed>
<temp>0.00</temp>
<bpm>0</bpm>
<rpm>0.00</rpm>
</extensions>
</trkpt>
<trkpt lat="30.624589920" lon="34.834678650">
<ele>556.906250</ele>
<time>2013-11-23T12:18:19Z</time>
<speed>2.590000</speed>
<extensions>
<speed>2.6</speed>
<temp>0.00</temp>
<bpm>0</bpm>
<rpm>0.00</rpm>
</extensions>
</trkpt>
<trkpt lat="30.624595642" lon="34.834545135">
<ele>557.078125</ele>
<time>2013-11-23T12:18:24Z</time>
<speed>2.560000</speed>
<extensions>
<speed>2.6</speed>
<temp>0.00</temp>
<bpm>0</bpm>
<rpm>0.00</rpm>
</extensions>
</trkpt>
<trkpt lat="30.624599457" lon="34.834403992">
<ele>557.562500</ele>
<time>2013-11-23T12:18:29Z</time>
<speed>2.860000</speed>
<extensions>
<speed>2.9</speed>
<temp>0.00</temp>
<bpm>0</bpm>
<rpm>0.00</rpm>
</extensions>
</trkpt>
<trkpt lat="30.624608994" lon="34.834251404">
<ele>557.984375</ele>
<time>2013-11-23T12:18:34Z</time>
<speed>2.910000</speed>
<extensions>
<speed>2.9</speed>
<temp>0.00</temp>
<bpm>0</bpm>
<rpm>0.00</rpm>
</extensions>
</trkpt>
<trkpt lat="30.624616623" lon="34.834102631">
<ele>558.468750</ele>
<time>2013-11-23T12:18:39Z</time>
<speed>2.780000</speed>
<extensions>
<speed>2.8</speed>
<temp>0.00</temp>
<bpm>0</bpm>
<rpm>0.00</rpm>
</extensions>
</trkpt>
<trkpt lat="30.624624252" lon="34.833972931">
<ele>558.718750</ele>
<time>2013-11-23T12:18:44Z</time>
<speed>1.620000</speed>
<extensions>
<speed>1.6</speed>
<temp>0.00</temp>
<bpm>0</bpm>
<rpm>0.00</rpm>
</extensions>
</trkpt>
<trkpt lat="30.624639511" lon="34.833873749">
<ele>559.359375</ele>
<time>2013-11-23T12:18:49Z</time>
<speed>2.610000</speed>
<extensions>
<speed>2.6</speed>
<temp>0.00</temp>
<bpm>0</bpm>
<rpm>0.00</rpm>
</extensions>
</trkpt>
<trkpt lat="30.624643326" lon="34.833724976">
<ele>559.671875</ele>
<time>2013-11-23T12:18:54Z</time>
<speed>2.810000</speed>
<extensions>
<speed>2.8</speed>
<temp>0.00</temp>
<bpm>0</bpm>
<rpm>0.00</rpm>
</extensions>
</trkpt>
<trkpt lat="30.624650955" lon="34.833583832">
<ele>559.812500</ele>
<time>2013-11-23T12:18:59Z</time>
<speed>2.620000</speed>
<extensions>
<speed>2.6</speed>
<temp>0.00</temp>
<bpm>0</bpm>
<rpm>0.00</rpm>
</extensions>
</trkpt>
<trkpt lat="30.624664307" lon="34.833442688">
<ele>560.359375</ele>
<time>2013-11-23T12:19:04Z</time>
<speed>2.810000</speed>
<extensions>
<speed>2.8</speed>
<temp>0.00</temp>
<bpm>0</bpm>
<rpm>0.00</rpm>
</extensions>
</trkpt>
<trkpt lat="30.624668121" lon="34.833301544">
<ele>560.437500</ele>
<time>2013-11-23T12:19:09Z</time>
<speed>2.710000</speed>
<extensions>
<speed>2.7</speed>
<temp>0.00</temp>
<bpm>0</bpm>
<rpm>0.00</rpm>
</extensions>
</trkpt>
<trkpt lat="30.624673843" lon="34.833156586">
<ele>560.937500</ele>
<time>2013-11-23T12:19:14Z</time>
<speed>2.800000</speed>
<extensions>
<speed>2.8</speed>
<temp>0.00</temp>
<bpm>0</bpm>
<rpm>0.00</rpm>
</extensions>
</trkpt>
<trkpt lat="30.624687195" lon="34.833011627">
<ele>561.093750</ele>
<time>2013-11-23T12:19:19Z</time>
<speed>2.830000</speed>
<extensions>
<speed>2.8</speed>
<temp>0.00</temp>
<bpm>0</bpm>
<rpm>0.00</rpm>
</extensions>
</trkpt>
<trkpt lat="30.624687195" lon="34.832870483">
<ele>561.609375</ele>
<time>2013-11-23T12:19:24Z</time>
<speed>2.750000</speed>
<extensions>
<speed>2.7</speed>
<temp>0.00</temp>
<bpm>0</bpm>
<rpm>0.00</rpm>
</extensions>
</trkpt>
<trkpt lat="30.624700546" lon="34.832725525">
<ele>562.359375</ele>
<time>2013-11-23T12:19:29Z</time>
<speed>2.820000</speed>
<extensions>
<speed>2.8</speed>
<temp>0.00</temp>
<bpm>0</bpm>
<rpm>0.00</rpm>
</extensions>
</trkpt>
<trkpt lat="30.624710083" lon="34.832576752">
<ele>562.953125</ele>
<time>2013-11-23T12:19:34Z</time>
<speed>2.860000</speed>
<extensions>
<speed>2.9</speed>
<temp>0.00</temp>
<bpm>0</bpm>
<rpm>0.00</rpm>
</extensions>
</trkpt>
<trkpt lat="30.624719620" lon="34.832416534">
<ele>563.343750</ele>
<time>2013-11-23T12:19:39Z</time>
<speed>3.140000</speed>
<extensions>
<speed>3.1</speed>
<temp>0.00</temp>
<bpm>0</bpm>
<rpm>0.00</rpm>
</extensions>
</trkpt>
<trkpt lat="30.624731064" lon="34.832256317">
<ele>563.859375</ele>
<time>2013-11-23T12:19:44Z</time>
<speed>2.990000</speed>
<extensions>
<speed>3.0</speed>
<temp>0.00</temp>
<bpm>0</bpm>
<rpm>0.00</rpm>
</extensions>
</trkpt>
<trkpt lat="30.624738693" lon="34.832141876">
<ele>564.421875</ele>
<time>2013-11-23T12:19:49Z</time>
<speed>2.240000</speed>
<extensions>
<speed>2.2</speed>
<temp>0.00</temp>
<bpm>0</bpm>
<rpm>0.00</rpm>
</extensions>
</trkpt>
<trkpt lat="30.624748230" lon="34.832008362">
<ele>564.609375</ele>
<time>2013-11-23T12:19:54Z</time>
<speed>2.720000</speed>
<extensions>
<speed>2.7</speed>
<temp>0.00</temp>
<bpm>0</bpm>
<rpm>0.00</rpm>
</extensions>
</trkpt>
<trkpt lat="30.624757767" lon="34.831859589">
<ele>564.890625</ele>
<time>2013-11-23T12:19:59Z</time>
<speed>2.880000</speed>
<extensions>
<speed>2.9</speed>
<temp>0.00</temp>
<bpm>0</bpm>
<rpm>0.00</rpm>
</extensions>
</trkpt>
<trkpt lat="30.624769211" lon="34.831710815">
<ele>565.000000</ele>
<time>2013-11-23T12:20:04Z</time>
<speed>2.440000</speed>
<extensions>
<speed>2.4</speed>
<temp>0.00</temp>
<bpm>0</bpm>
<rpm>0.00</rpm>
</extensions>
</trkpt>
<trkpt lat="30.624774933" lon="34.831596375">
<ele>565.156250</ele>
<time>2013-11-23T12:20:09Z</time>
<speed>2.610000</speed>
<extensions>
<speed>2.6</speed>
<temp>0.00</temp>
<bpm>0</bpm>
<rpm>0.00</rpm>
</extensions>
</trkpt>
<trkpt lat="30.624782562" lon="34.831451416">
<ele>565.765625</ele>
<time>2013-11-23T12:20:14Z</time>
<speed>2.960000</speed>
<extensions>
<speed>3.0</speed>
<temp>0.00</temp>
<bpm>0</bpm>
<rpm>0.00</rpm>
</extensions>
</trkpt>
<trkpt lat="30.624784470" lon="34.831298828">
<ele>565.968750</ele>
<time>2013-11-23T12:20:19Z</time>
<speed>2.950000</speed>
<extensions>
<speed>2.9</speed>
<temp>0.00</temp>
<bpm>0</bpm>
<rpm>0.00</rpm>
</extensions>
</trkpt>
<trkpt lat="30.624797821" lon="34.831142426">
<ele>566.468750</ele>
<time>2013-11-23T12:20:24Z</time>
<speed>2.990000</speed>
<extensions>
<speed>3.0</speed>
<temp>0.00</temp>
<bpm>0</bpm>
<rpm>0.00</rpm>
</extensions>
</trkpt>
<trkpt lat="30.624811172" lon="34.830989838">
<ele>566.718750</ele>
<time>2013-11-23T12:20:29Z</time>
<speed>2.920000</speed>
<extensions>
<speed>2.9</speed>
<temp>0.00</temp>
<bpm>0</bpm>
<rpm>0.00</rpm>
</extensions>
</trkpt>
<trkpt lat="30.624816895" lon="34.830833435">
<ele>567.125000</ele>
<time>2013-11-23T12:20:34Z</time>
<speed>2.980000</speed>
<extensions>
<speed>3.0</speed>
<temp>0.00</temp>
<bpm>0</bpm>
<rpm>0.00</rpm>
</extensions>
</trkpt>
<trkpt lat="30.624828339" lon="34.830688477">
<ele>567.515625</ele>
<time>2013-11-23T12:20:39Z</time>
<speed>2.900000</speed>
<extensions>
<speed>2.9</speed>
<temp>0.00</temp>
<bpm>0</bpm>
<rpm>0.00</rpm>
</extensions>
</trkpt>
<trkpt lat="30.624834061" lon="34.830532074">
<ele>567.953125</ele>
<time>2013-11-23T12:20:44Z</time>
<speed>2.850000</speed>
<extensions>
<speed>2.9</speed>
<temp>0.00</temp>
<bpm>0</bpm>
<rpm>0.00</rpm>
</extensions>
</trkpt>
<trkpt lat="30.624841690" lon="34.830379486">
<ele>568.484375</ele>
<time>2013-11-23T12:20:49Z</time>
<speed>2.960000</speed>
<extensions>
<speed>3.0</speed>
<temp>0.00</temp>
<bpm>0</bpm>
<rpm>0.00</rpm>
</extensions>
</trkpt>
<trkpt lat="30.624849319" lon="34.830226898">
<ele>568.906250</ele>
<time>2013-11-23T12:20:54Z</time>
<speed>2.850000</speed>
<extensions>
<speed>2.9</speed>
<temp>0.00</temp>
<bpm>0</bpm>
<rpm>0.00</rpm>
</extensions>
</trkpt>
<trkpt lat="30.624862671" lon="34.830097198">
<ele>569.484375</ele>
<time>2013-11-23T12:20:59Z</time>
<speed>1.580000</speed>
<extensions>
<speed>1.6</speed>
<temp>0.00</temp>
<bpm>0</bpm>
<rpm>0.00</rpm>
</extensions>
</trkpt>
<trkpt lat="30.624870300" lon="34.829982758">
<ele>569.703125</ele>
<time>2013-11-23T12:21:04Z</time>
<speed>2.770000</speed>
<extensions>
<speed>2.8</speed>
<temp>0.00</temp>
<bpm>0</bpm>
<rpm>0.00</rpm>
</extensions>
</trkpt>
<trkpt lat="30.624879837" lon="34.829826355">
<ele>570.046875</ele>
<time>2013-11-23T12:21:09Z</time>
<speed>2.910000</speed>
<extensions>
<speed>2.9</speed>
<temp>0.00</temp>
<bpm>0</bpm>
<rpm>0.00</rpm>
</extensions>
</trkpt>
<trkpt lat="30.624891281" lon="34.829742432">
<ele>570.234375</ele>
<time>2013-11-23T12:21:14Z</time>
<speed>1.380000</speed>
<extensions>
<speed>1.4</speed>
<temp>0.00</temp>
<bpm>0</bpm>
<rpm>0.00</rpm>
</extensions>
</trkpt>
<trkpt lat="30.624897003" lon="34.829624176">
<ele>570.625000</ele>
<time>2013-11-23T12:21:19Z</time>
<speed>2.610000</speed>
<extensions>
<speed>2.6</speed>
<temp>0.00</temp>
<bpm>0</bpm>
<rpm>0.00</rpm>
</extensions>
</trkpt>
<trkpt lat="30.624906540" lon="34.829486847">
<ele>571.140625</ele>
<time>2013-11-23T12:21:24Z</time>
<speed>2.640000</speed>
<extensions>
<speed>2.6</speed>
<temp>0.00</temp>
<bpm>0</bpm>
<rpm>0.00</rpm>
</extensions>
</trkpt>
<trkpt lat="30.624917984" lon="34.829345703">
<ele>571.640625</ele>
<time>2013-11-23T12:21:29Z</time>
<speed>2.810000</speed>
<extensions>
<speed>2.8</speed>
<temp>0.00</temp>
<bpm>0</bpm>
<rpm>0.00</rpm>
</extensions>
</trkpt>
<trkpt lat="30.624919891" lon="34.829200745">
<ele>572.406250</ele>
<time>2013-11-23T12:21:34Z</time>
<speed>2.650000</speed>
<extensions>
<speed>2.6</speed>
<temp>0.00</temp>
<bpm>0</bpm>
<rpm>0.00</rpm>
</extensions>
</trkpt>
<trkpt lat="30.624925613" lon="34.829063416">
<ele>572.921875</ele>
<time>2013-11-23T12:21:39Z</time>
<speed>2.680000</speed>
<extensions>
<speed>2.7</speed>
<temp>0.00</temp>
<bpm>0</bpm>
<rpm>0.00</rpm>
</extensions>
</trkpt>
<trkpt lat="30.624937057" lon="34.828926086">
<ele>573.546875</ele>
<time>2013-11-23T12:21:44Z</time>
<speed>2.710000</speed>
<extensions>
<speed>2.7</speed>
<temp>0.00</temp>
<bpm>0</bpm>
<rpm>0.00</rpm>
</extensions>
</trkpt>
<trkpt lat="30.624948502" lon="34.828777313">
<ele>574.093750</ele>
<time>2013-11-23T12:21:49Z</time>
<speed>2.970000</speed>
<extensions>
<speed>3.0</speed>
<temp>0.00</temp>
<bpm>0</bpm>
<rpm>0.00</rpm>
</extensions>
</trkpt>
<trkpt lat="30.624959946" lon="34.828628540">
<ele>574.671875</ele>
<time>2013-11-23T12:21:54Z</time>
<speed>2.740000</speed>
<extensions>
<speed>2.7</speed>
<temp>0.00</temp>
<bpm>0</bpm>
<rpm>0.00</rpm>
</extensions>
</trkpt>
<trkpt lat="30.624967575" lon="34.828544617">
<ele>575.015625</ele>
<time>2013-11-23T12:21:59Z</time>
<speed>1.890000</speed>
<extensions>
<speed>1.9</speed>
<temp>0.00</temp>
<bpm>0</bpm>
<rpm>0.00</rpm>
</extensions>
</trkpt>
<trkpt lat="30.624979019" lon="34.828422546">
<ele>575.531250</ele>
<time>2013-11-23T12:22:04Z</time>
<speed>2.290000</speed>
<extensions>
<speed>2.3</speed>
<temp>0.00</temp>
<bpm>0</bpm>
<rpm>0.00</rpm>
</extensions>
</trkpt>
<trkpt lat="30.624988556" lon="34.828296661">
<ele>576.421875</ele>
<time>2013-11-23T12:22:09Z</time>
<speed>2.620000</speed>
<extensions>
<speed>2.6</speed>
<temp>0.00</temp>
<bpm>0</bpm>
<rpm>0.00</rpm>
</extensions>
</trkpt>
<trkpt lat="30.624994278" lon="34.828159332">
<ele>577.187500</ele>
<time>2013-11-23T12:22:14Z</time>
<speed>2.450000</speed>
<extensions>
<speed>2.4</speed>
<temp>0.00</temp>
<bpm>0</bpm>
<rpm>0.00</rpm>
</extensions>
</trkpt>
<trkpt lat="30.625001907" lon="34.828018188">
<ele>577.718750</ele>
<time>2013-11-23T12:22:19Z</time>
<speed>2.870000</speed>
<extensions>
<speed>2.9</speed>
<temp>0.00</temp>
<bpm>0</bpm>
<rpm>0.00</rpm>
</extensions>
</trkpt>
<trkpt lat="30.625015259" lon="34.827877045">
<ele>578.234375</ele>
<time>2013-11-23T12:22:24Z</time>
<speed>2.640000</speed>
<extensions>
<speed>2.6</speed>
<temp>0.00</temp>
<bpm>0</bpm>
<rpm>0.00</rpm>
</extensions>
</trkpt>
<trkpt lat="30.625019073" lon="34.827735901">
<ele>578.750000</ele>
<time>2013-11-23T12:22:29Z</time>
<speed>2.600000</speed>
<extensions>
<speed>2.6</speed>
<temp>0.00</temp>
<bpm>0</bpm>
<rpm>0.00</rpm>
</extensions>
</trkpt>
<trkpt lat="30.625020981" lon="34.827598572">
<ele>579.484375</ele>
<time>2013-11-23T12:22:34Z</time>
<speed>2.620000</speed>
<extensions>
<speed>2.6</speed>
<temp>0.00</temp>
<bpm>0</bpm>
<rpm>0.00</rpm>
</extensions>
</trkpt>
<trkpt lat="30.625028610" lon="34.827461243">
<ele>580.015625</ele>
<time>2013-11-23T12:22:39Z</time>
<speed>2.640000</speed>
<extensions>
<speed>2.6</speed>
<temp>0.00</temp>
<bpm>0</bpm>
<rpm>0.00</rpm>
</extensions>
</trkpt>
<trkpt lat="30.625036240" lon="34.827365875">
<ele>580.453125</ele>
<time>2013-11-23T12:22:44Z</time>
<speed>0.770000</speed>
<extensions>
<speed>0.8</speed>
<temp>0.00</temp>
<bpm>0</bpm>
<rpm>0.00</rpm>
</extensions>
</trkpt>
<trkpt lat="30.625040054" lon="34.827278137">
<ele>580.750000</ele>
<time>2013-11-23T12:22:49Z</time>
<speed>2.310000</speed>
<extensions>
<speed>2.3</speed>
<temp>0.00</temp>
<bpm>0</bpm>
<rpm>0.00</rpm>
</extensions>
</trkpt>
<trkpt lat="30.625053406" lon="34.827163696">
<ele>581.546875</ele>
<time>2013-11-23T12:22:54Z</time>
<speed>2.300000</speed>
<extensions>
<speed>2.3</speed>
<temp>0.00</temp>
<bpm>0</bpm>
<rpm>0.00</rpm>
</extensions>
</trkpt>
<trkpt lat="30.625057220" lon="34.827033997">
<ele>582.234375</ele>
<time>2013-11-23T12:22:59Z</time>
<speed>2.620000</speed>
<extensions>
<speed>2.6</speed>
<temp>0.00</temp>
<bpm>0</bpm>
<rpm>0.00</rpm>
</extensions>
</trkpt>
<trkpt lat="30.625068665" lon="34.826946259">
<ele>582.500000</ele>
<time>2013-11-23T12:23:04Z</time>
<speed>1.200000</speed>
<extensions>
<speed>1.2</speed>
<temp>0.00</temp>
<bpm>0</bpm>
<rpm>0.00</rpm>
</extensions>
</trkpt>
<trkpt lat="30.625066757" lon="34.826847076">
<ele>583.093750</ele>
<time>2013-11-23T12:23:09Z</time>
<speed>2.420000</speed>
<extensions>
<speed>2.4</speed>
<temp>0.00</temp>
<bpm>0</bpm>
<rpm>0.00</rpm>
</extensions>
</trkpt>
<trkpt lat="30.625074387" lon="34.826728821">
<ele>583.593750</ele>
<time>2013-11-23T12:23:14Z</time>
<speed>1.460000</speed>
<extensions>
<speed>1.5</speed>
<temp>0.00</temp>
<bpm>0</bpm>
<rpm>0.00</rpm>
</extensions>
</trkpt>
<trkpt lat="30.625083923" lon="34.826702118">
<ele>583.671875</ele>
<time>2013-11-23T12:23:19Z</time>
<speed>1.350000</speed>
<extensions>
<speed>1.4</speed>
<temp>0.00</temp>
<bpm>0</bpm>
<rpm>0.00</rpm>
</extensions>
</trkpt>
<trkpt lat="30.625085831" lon="34.826595306">
<ele>584.203125</ele>
<time>2013-11-23T12:23:24Z</time>
<speed>2.370000</speed>
<extensions>
<speed>2.4</speed>
<temp>0.00</temp>
<bpm>0</bpm>
<rpm>0.00</rpm>
</extensions>
</trkpt>
<trkpt lat="30.625097275" lon="34.826469421">
<ele>585.031250</ele>
<time>2013-11-23T12:23:29Z</time>
<speed>2.480000</speed>
<extensions>
<speed>2.5</speed>
<temp>0.00</temp>
<bpm>0</bpm>
<rpm>0.00</rpm>
</extensions>
</trkpt>
<trkpt lat="30.625104904" lon="34.826339722">
<ele>585.843750</ele>
<time>2013-11-23T12:23:34Z</time>
<speed>2.600000</speed>
<extensions>
<speed>2.6</speed>
<temp>0.00</temp>
<bpm>0</bpm>
<rpm>0.00</rpm>
</extensions>
</trkpt>
<trkpt lat="30.625112534" lon="34.826198578">
<ele>586.484375</ele>
<time>2013-11-23T12:23:39Z</time>
<speed>2.670000</speed>
<extensions>
<speed>2.7</speed>
<temp>0.00</temp>
<bpm>0</bpm>
<rpm>0.00</rpm>
</extensions>
</trkpt>
<trkpt lat="30.625120163" lon="34.826057434">
<ele>587.078125</ele>
<time>2013-11-23T12:23:44Z</time>
<speed>2.670000</speed>
<extensions>
<speed>2.7</speed>
<temp>0.00</temp>
<bpm>0</bpm>
<rpm>0.00</rpm>
</extensions>
</trkpt>
<trkpt lat="30.625133514" lon="34.825939178">
<ele>587.640625</ele>
<time>2013-11-23T12:23:49Z</time>
<speed>1.150000</speed>
<extensions>
<speed>1.1</speed>
<temp>0.00</temp>
<bpm>0</bpm>
<rpm>0.00</rpm>
</extensions>
</trkpt>
<trkpt lat="30.625129700" lon="34.825843811">
<ele>588.046875</ele>
<time>2013-11-23T12:23:54Z</time>
<speed>2.450000</speed>
<extensions>
<speed>2.4</speed>
<temp>0.00</temp>
<bpm>0</bpm>
<rpm>0.00</rpm>
</extensions>
</trkpt>
<trkpt lat="30.625131607" lon="34.825714111">
<ele>588.875000</ele>
<time>2013-11-23T12:23:59Z</time>
<speed>1.960000</speed>
<extensions>
<speed>2.0</speed>
<temp>0.00</temp>
<bpm>0</bpm>
<rpm>0.00</rpm>
</extensions>
</trkpt>
<trkpt lat="30.625133514" lon="34.825695038">
<ele>589.000000</ele>
<time>2013-11-23T12:24:04Z</time>
<speed>0.100000</speed>
<extensions>
<speed>0.1</speed>
<temp>0.00</temp>
<bpm>0</bpm>
<rpm>0.00</rpm>
</extensions>
</trkpt>
<trkpt lat="30.625131607" lon="34.825695038">
<ele>589.031250</ele>
<time>2013-11-23T12:24:09Z</time>
<extensions>
<speed>0.0</speed>
<temp>0.00</temp>
<bpm>0</bpm>
<rpm>0.00</rpm>
</extensions>
</trkpt>
<trkpt lat="30.625127792" lon="34.825672150">
<ele>589.375000</ele>
<time>2013-11-23T12:24:14Z</time>
<speed>1.200000</speed>
<extensions>
<speed>1.2</speed>
<temp>0.00</temp>
<bpm>0</bpm>
<rpm>0.00</rpm>
</extensions>
</trkpt>
<trkpt lat="30.625129700" lon="34.825595856">
<ele>590.343750</ele>
<time>2013-11-23T12:24:19Z</time>
<speed>1.490000</speed>
<extensions>
<speed>1.5</speed>
<temp>0.00</temp>
<bpm>0</bpm>
<rpm>0.00</rpm>
</extensions>
</trkpt>
<trkpt lat="30.625137329" lon="34.825515747">
<ele>591.062500</ele>
<time>2013-11-23T12:24:24Z</time>
<speed>1.930000</speed>
<extensions>
<speed>1.9</speed>
<temp>0.00</temp>
<bpm>0</bpm>
<rpm>0.00</rpm>
</extensions>
</trkpt>
<trkpt lat="30.625137329" lon="34.825397491">
<ele>591.921875</ele>
<time>2013-11-23T12:24:29Z</time>
<speed>2.450000</speed>
<extensions>
<speed>2.4</speed>
<temp>0.00</temp>
<bpm>0</bpm>
<rpm>0.00</rpm>
</extensions>
</trkpt>
<trkpt lat="30.625123978" lon="34.825260162">
<ele>592.968750</ele>
<time>2013-11-23T12:24:34Z</time>
<speed>2.660000</speed>
<extensions>
<speed>2.7</speed>
<temp>0.00</temp>
<bpm>0</bpm>
<rpm>0.00</rpm>
</extensions>
</trkpt>
<trkpt lat="30.625114441" lon="34.825126648">
<ele>593.718750</ele>
<time>2013-11-23T12:24:39Z</time>
<speed>2.620000</speed>
<extensions>
<speed>2.6</speed>
<temp>0.00</temp>
<bpm>0</bpm>
<rpm>0.00</rpm>
</extensions>
</trkpt>
<trkpt lat="30.625097275" lon="34.825016022">
<ele>594.218750</ele>
<time>2013-11-23T12:24:44Z</time>
<speed>1.450000</speed>
<extensions>
<speed>1.4</speed>
<temp>0.00</temp>
<bpm>0</bpm>
<rpm>0.00</rpm>
</extensions>
</trkpt>
<trkpt lat="30.625089645" lon="34.824905396">
<ele>595.265625</ele>
<time>2013-11-23T12:24:49Z</time>
<speed>2.480000</speed>
<extensions>
<speed>2.5</speed>
<temp>0.00</temp>
<bpm>0</bpm>
<rpm>0.00</rpm>
</extensions>
</trkpt>
<trkpt lat="30.625070572" lon="34.824771881">
<ele>596.109375</ele>
<time>2013-11-23T12:24:54Z</time>
<speed>2.000000</speed>
<extensions>
<speed>2.0</speed>
<temp>0.00</temp>
<bpm>0</bpm>
<rpm>0.00</rpm>
</extensions>
</trkpt>
<trkpt lat="30.625053406" lon="34.824684143">
<ele>596.484375</ele>
<time>2013-11-23T12:24:59Z</time>
<speed>2.110000</speed>
<extensions>
<speed>2.1</speed>
<temp>0.00</temp>
<bpm>0</bpm>
<rpm>0.00</rpm>
</extensions>
</trkpt>
<trkpt lat="30.625034332" lon="34.824569702">
<ele>597.046875</ele>
<time>2013-11-23T12:25:04Z</time>
<speed>2.270000</speed>
<extensions>
<speed>2.3</speed>
<temp>0.00</temp>
<bpm>0</bpm>
<rpm>0.00</rpm>
</extensions>
</trkpt>
<trkpt lat="30.625015259" lon="34.824459076">
<ele>597.718750</ele>
<time>2013-11-23T12:25:09Z</time>
<speed>2.170000</speed>
<extensions>
<speed>2.2</speed>
<temp>0.00</temp>
<bpm>0</bpm>
<rpm>0.00</rpm>
</extensions>
</trkpt>
<trkpt lat="30.624982834" lon="34.824348450">
<ele>598.218750</ele>
<time>2013-11-23T12:25:14Z</time>
<speed>2.320000</speed>
<extensions>
<speed>2.3</speed>
<temp>0.00</temp>
<bpm>0</bpm>
<rpm>0.00</rpm>
</extensions>
</trkpt>
<trkpt lat="30.624952316" lon="34.824222565">
<ele>598.796875</ele>
<time>2013-11-23T12:25:19Z</time>
<speed>2.400000</speed>
<extensions>
<speed>2.4</speed>
<temp>0.00</temp>
<bpm>0</bpm>
<rpm>0.00</rpm>
</extensions>
</trkpt>
<trkpt lat="30.624937057" lon="34.824169159">
<ele>599.062500</ele>
<time>2013-11-23T12:25:24Z</time>
<speed>0.160000</speed>
<extensions>
<speed>0.2</speed>
<temp>0.00</temp>
<bpm>0</bpm>
<rpm>0.00</rpm>
</extensions>
</trkpt>
<trkpt lat="30.624935150" lon="34.824169159">
<ele>598.640625</ele>
<time>2013-11-23T12:25:29Z</time>
<speed>0.250000</speed>
<extensions>
<speed>0.2</speed>
<temp>0.00</temp>
<bpm>0</bpm>
<rpm>0.00</rpm>
</extensions>
</trkpt>
<trkpt lat="30.624916077" lon="34.824100494">
<ele>598.687500</ele>
<time>2013-11-23T12:25:34Z</time>
<speed>2.040000</speed>
<extensions>
<speed>2.0</speed>
<temp>0.00</temp>
<bpm>0</bpm>
<rpm>0.00</rpm>
</extensions>
</trkpt>
<trkpt lat="30.624885559" lon="34.823989868">
<ele>599.546875</ele>
<time>2013-11-23T12:25:39Z</time>
<speed>2.160000</speed>
<extensions>
<speed>2.2</speed>
<temp>0.00</temp>
<bpm>0</bpm>
<rpm>0.00</rpm>
</extensions>
</trkpt>
<trkpt lat="30.624845505" lon="34.823890686">
<ele>600.500000</ele>
<time>2013-11-23T12:25:44Z</time>
<speed>2.230000</speed>
<extensions>
<speed>2.2</speed>
<temp>0.00</temp>
<bpm>0</bpm>
<rpm>0.00</rpm>
</extensions>
</trkpt>
<trkpt lat="30.624809265" lon="34.823810577">
<ele>601.015625</ele>
<time>2013-11-23T12:25:49Z</time>
<speed>1.580000</speed>
<extensions>
<speed>1.6</speed>
<temp>0.00</temp>
<bpm>0</bpm>
<rpm>0.00</rpm>
</extensions>
</trkpt>
<trkpt lat="30.624780655" lon="34.823703766">
<ele>602.187500</ele>
<time>2013-11-23T12:25:54Z</time>
<speed>2.270000</speed>
<extensions>
<speed>2.3</speed>
<temp>0.00</temp>
<bpm>0</bpm>
<rpm>0.00</rpm>
</extensions>
</trkpt>
<trkpt lat="30.624732971" lon="34.823593140">
<ele>603.031250</ele>
<time>2013-11-23T12:25:59Z</time>
<speed>2.510000</speed>
<extensions>
<speed>2.5</speed>
<temp>0.00</temp>
<bpm>0</bpm>
<rpm>0.00</rpm>
</extensions>
</trkpt>
<trkpt lat="30.624673843" lon="34.823474884">
<ele>603.140625</ele>
<time>2013-11-23T12:26:04Z</time>
<speed>1.940000</speed>
<extensions>
<speed>1.9</speed>
<temp>0.00</temp>
<bpm>0</bpm>
<rpm>0.00</rpm>
</extensions>
</trkpt>
<trkpt lat="30.624647141" lon="34.823406219">
<ele>603.859375</ele>
<time>2013-11-23T12:26:09Z</time>
<speed>2.230000</speed>
<extensions>
<speed>2.2</speed>
<temp>0.00</temp>
<bpm>0</bpm>
<rpm>0.00</rpm>
</extensions>
</trkpt>
<trkpt lat="30.624572754" lon="34.823299408">
<ele>604.281250</ele>
<time>2013-11-23T12:26:14Z</time>
<speed>2.910000</speed>
<extensions>
<speed>2.9</speed>
<temp>0.00</temp>
<bpm>0</bpm>
<rpm>0.00</rpm>
</extensions>
</trkpt>
<trkpt lat="30.624517441" lon="34.823200226">
<ele>605.093750</ele>
<time>2013-11-23T12:26:19Z</time>
<speed>2.180000</speed>
<extensions>
<speed>2.2</speed>
<temp>0.00</temp>
<bpm>0</bpm>
<rpm>0.00</rpm>
</extensions>
</trkpt>
<trkpt lat="30.624454498" lon="34.823093414">
<ele>606.000000</ele>
<time>2013-11-23T12:26:24Z</time>
<speed>2.550000</speed>
<extensions>
<speed>2.6</speed>
<temp>0.00</temp>
<bpm>0</bpm>
<rpm>0.00</rpm>
</extensions>
</trkpt>
<trkpt lat="30.624372482" lon="34.822986603">
<ele>607.125000</ele>
<time>2013-11-23T12:26:29Z</time>
<speed>2.080000</speed>
<extensions>
<speed>2.1</speed>
<temp>0.00</temp>
<bpm>0</bpm>
<rpm>0.00</rpm>
</extensions>
</trkpt>
<trkpt lat="30.624303818" lon="34.822891235">
<ele>607.578125</ele>
<time>2013-11-23T12:26:34Z</time>
<speed>2.550000</speed>
<extensions>
<speed>2.6</speed>
<temp>0.00</temp>
<bpm>0</bpm>
<rpm>0.00</rpm>
</extensions>
</trkpt>
<trkpt lat="30.624263763" lon="34.822818756">
<ele>608.031250</ele>
<time>2013-11-23T12:26:39Z</time>
<speed>1.080000</speed>
<extensions>
<speed>1.1</speed>
<temp>0.00</temp>
<bpm>0</bpm>
<rpm>0.00</rpm>
</extensions>
</trkpt>
<trkpt lat="30.624210358" lon="34.822750092">
<ele>608.640625</ele>
<time>2013-11-23T12:26:44Z</time>
<speed>2.080000</speed>
<extensions>
<speed>2.1</speed>
<temp>0.00</temp>
<bpm>0</bpm>
<rpm>0.00</rpm>
</extensions>
</trkpt>
<trkpt lat="30.624145508" lon="34.822654724">
<ele>609.781250</ele>
<time>2013-11-23T12:26:49Z</time>
<speed>2.460000</speed>
<extensions>
<speed>2.5</speed>
<temp>0.00</temp>
<bpm>0</bpm>
<rpm>0.00</rpm>
</extensions>
</trkpt>
<trkpt lat="30.624076843" lon="34.822547913">
<ele>610.671875</ele>
<time>2013-11-23T12:26:54Z</time>
<speed>2.840000</speed>
<extensions>
<speed>2.8</speed>
<temp>0.00</temp>
<bpm>0</bpm>
<rpm>0.00</rpm>
</extensions>
</trkpt>
<trkpt lat="30.624013901" lon="34.822452545">
<ele>611.578125</ele>
<time>2013-11-23T12:26:59Z</time>
<speed>1.550000</speed>
<extensions>
<speed>1.5</speed>
<temp>0.00</temp>
<bpm>0</bpm>
<rpm>0.00</rpm>
</extensions>
</trkpt>
<trkpt lat="30.623950958" lon="34.822357178">
<ele>612.078125</ele>
<time>2013-11-23T12:27:04Z</time>
<speed>2.530000</speed>
<extensions>
<speed>2.5</speed>
<temp>0.00</temp>
<bpm>0</bpm>
<rpm>0.00</rpm>
</extensions>
</trkpt>
<trkpt lat="30.623886108" lon="34.822250366">
<ele>612.734375</ele>
<time>2013-11-23T12:27:09Z</time>
<speed>2.410000</speed>
<extensions>
<speed>2.4</speed>
<temp>0.00</temp>
<bpm>0</bpm>
<rpm>0.00</rpm>
</extensions>
</trkpt>
<trkpt lat="30.623819351" lon="34.822151184">
<ele>613.468750</ele>
<time>2013-11-23T12:27:14Z</time>
<speed>2.360000</speed>
<extensions>
<speed>2.4</speed>
<temp>0.00</temp>
<bpm>0</bpm>
<rpm>0.00</rpm>
</extensions>
</trkpt>
<trkpt lat="30.623756409" lon="34.822055817">
<ele>614.031250</ele>
<time>2013-11-23T12:27:19Z</time>
<speed>2.450000</speed>
<extensions>
<speed>2.4</speed>
<temp>0.00</temp>
<bpm>0</bpm>
<rpm>0.00</rpm>
</extensions>
</trkpt>
<trkpt lat="30.623680115" lon="34.821933746">
<ele>615.000000</ele>
<time>2013-11-23T12:27:24Z</time>
<speed>3.230000</speed>
<extensions>
<speed>3.2</speed>
<temp>0.00</temp>
<bpm>0</bpm>
<rpm>0.00</rpm>
</extensions>
</trkpt>
<trkpt lat="30.623577118" lon="34.821784973">
<ele>616.015625</ele>
<time>2013-11-23T12:27:29Z</time>
<speed>3.530000</speed>
<extensions>
<speed>3.5</speed>
<temp>0.00</temp>
<bpm>0</bpm>
<rpm>0.00</rpm>
</extensions>
</trkpt>
<trkpt lat="30.623487473" lon="34.821628571">
<ele>617.062500</ele>
<time>2013-11-23T12:27:34Z</time>
<speed>3.460000</speed>
<extensions>
<speed>3.5</speed>
<temp>0.00</temp>
<bpm>0</bpm>
<rpm>0.00</rpm>
</extensions>
</trkpt>
<trkpt lat="30.623420715" lon="34.821525574">
<ele>617.734375</ele>
<time>2013-11-23T12:27:39Z</time>
<speed>1.900000</speed>
<extensions>
<speed>1.9</speed>
<temp>0.00</temp>
<bpm>0</bpm>
<rpm>0.00</rpm>
</extensions>
</trkpt>
<trkpt lat="30.623357773" lon="34.821422577">
<ele>618.734375</ele>
<time>2013-11-23T12:27:44Z</time>
<speed>2.430000</speed>
<extensions>
<speed>2.4</speed>
<temp>0.00</temp>
<bpm>0</bpm>
<rpm>0.00</rpm>
</extensions>
</trkpt>
<trkpt lat="30.623287201" lon="34.821308136">
<ele>619.531250</ele>
<time>2013-11-23T12:27:49Z</time>
<speed>2.790000</speed>
<extensions>
<speed>2.8</speed>
<temp>0.00</temp>
<bpm>0</bpm>
<rpm>0.00</rpm>
</extensions>
</trkpt>
<trkpt lat="30.623228073" lon="34.821228027">
<ele>619.984375</ele>
<time>2013-11-23T12:27:54Z</time>
<speed>0.960000</speed>
<extensions>
<speed>1.0</speed>
<temp>0.00</temp>
<bpm>0</bpm>
<rpm>0.00</rpm>
</extensions>
</trkpt>
<trkpt lat="30.623191833" lon="34.821166992">
<ele>620.515625</ele>
<time>2013-11-23T12:27:59Z</time>
<speed>2.290000</speed>
<extensions>
<speed>2.3</speed>
<temp>0.00</temp>
<bpm>0</bpm>
<rpm>0.00</rpm>
</extensions>
</trkpt>
<trkpt lat="30.623119354" lon="34.821060181">
<ele>621.250000</ele>
<time>2013-11-23T12:28:04Z</time>
<speed>2.860000</speed>
<extensions>
<speed>2.9</speed>
<temp>0.00</temp>
<bpm>0</bpm>
<rpm>0.00</rpm>
</extensions>
</trkpt>
<trkpt lat="30.623069763" lon="34.821006775">
<ele>620.984375</ele>
<time>2013-11-23T12:28:09Z</time>
<speed>1.460000</speed>
<extensions>
<speed>1.5</speed>
<temp>0.00</temp>
<bpm>0</bpm>
<rpm>0.00</rpm>
</extensions>
</trkpt>
<trkpt lat="30.623012543" lon="34.820911407">
<ele>621.781250</ele>
<time>2013-11-23T12:28:14Z</time>
<speed>2.580000</speed>
<extensions>
<speed>2.6</speed>
<temp>0.00</temp>
<bpm>0</bpm>
<rpm>0.00</rpm>
</extensions>
</trkpt>
<trkpt lat="30.622934341" lon="34.820785522">
<ele>622.875000</ele>
<time>2013-11-23T12:28:19Z</time>
<speed>2.440000</speed>
<extensions>
<speed>2.4</speed>
<temp>0.00</temp>
<bpm>0</bpm>
<rpm>0.00</rpm>
</extensions>
</trkpt>
<trkpt lat="30.622867584" lon="34.820678711">
<ele>623.937500</ele>
<time>2013-11-23T12:28:24Z</time>
<speed>2.750000</speed>
<extensions>
<speed>2.7</speed>
<temp>0.00</temp>
<bpm>0</bpm>
<rpm>0.00</rpm>
</extensions>
</trkpt>
<trkpt lat="30.622783661" lon="34.820552826">
<ele>624.750000</ele>
<time>2013-11-23T12:28:29Z</time>
<speed>3.720000</speed>
<extensions>
<speed>3.7</speed>
<temp>0.00</temp>
<bpm>0</bpm>
<rpm>0.00</rpm>
</extensions>
</trkpt>
<trkpt lat="30.622714996" lon="34.820442200">
<ele>625.406250</ele>
<time>2013-11-23T12:28:34Z</time>
<speed>2.140000</speed>
<extensions>
<speed>2.1</speed>
<temp>0.00</temp>
<bpm>0</bpm>
<rpm>0.00</rpm>
</extensions>
</trkpt>
<trkpt lat="30.622646332" lon="34.820343018">
<ele>626.125000</ele>
<time>2013-11-23T12:28:39Z</time>
<speed>2.730000</speed>
<extensions>
<speed>2.7</speed>
<temp>0.00</temp>
<bpm>0</bpm>
<rpm>0.00</rpm>
</extensions>
</trkpt>
<trkpt lat="30.622560501" lon="34.820224762">
<ele>626.843750</ele>
<time>2013-11-23T12:28:44Z</time>
<speed>2.120000</speed>
<extensions>
<speed>2.1</speed>
<temp>0.00</temp>
<bpm>0</bpm>
<rpm>0.00</rpm>
</extensions>
</trkpt>
<trkpt lat="30.622526169" lon="34.820182800">
<ele>627.218750</ele>
<time>2013-11-23T12:28:49Z</time>
<speed>1.330000</speed>
<extensions>
<speed>1.3</speed>
<temp>0.00</temp>
<bpm>0</bpm>
<rpm>0.00</rpm>
</extensions>
</trkpt>
<trkpt lat="30.622467041" lon="34.820098877">
<ele>627.656250</ele>
<time>2013-11-23T12:28:54Z</time>
<speed>2.680000</speed>
<extensions>
<speed>2.7</speed>
<temp>0.00</temp>
<bpm>0</bpm>
<rpm>0.00</rpm>
</extensions>
</trkpt>
<trkpt lat="30.622360229" lon="34.819980621">
<ele>627.953125</ele>
<time>2013-11-23T12:28:59Z</time>
<speed>3.530000</speed>
<extensions>
<speed>3.5</speed>
<temp>0.00</temp>
<bpm>0</bpm>
<rpm>0.00</rpm>
</extensions>
</trkpt>
<trkpt lat="30.622259140" lon="34.819885254">
<ele>628.000000</ele>
<time>2013-11-23T12:29:04Z</time>
<speed>1.560000</speed>
<extensions>
<speed>1.6</speed>
<temp>0.00</temp>
<bpm>0</bpm>
<rpm>0.00</rpm>
</extensions>
</trkpt>
<trkpt lat="30.622201920" lon="34.819831848">
<ele>628.453125</ele>
<time>2013-11-23T12:29:09Z</time>
<speed>2.490000</speed>
<extensions>
<speed>2.5</speed>
<temp>0.00</temp>
<bpm>0</bpm>
<rpm>0.00</rpm>
</extensions>
</trkpt>
<trkpt lat="30.622102737" lon="34.819751740">
<ele>629.062500</ele>
<time>2013-11-23T12:29:14Z</time>
<speed>2.690000</speed>
<extensions>
<speed>2.7</speed>
<temp>0.00</temp>
<bpm>0</bpm>
<rpm>0.00</rpm>
</extensions>
</trkpt>
<trkpt lat="30.621995926" lon="34.819667816">
<ele>629.718750</ele>
<time>2013-11-23T12:29:19Z</time>
<speed>2.490000</speed>
<extensions>
<speed>2.5</speed>
<temp>0.00</temp>
<bpm>0</bpm>
<rpm>0.00</rpm>
</extensions>
</trkpt>
<trkpt lat="30.621942520" lon="34.819629669">
<ele>630.343750</ele>
<time>2013-11-23T12:29:24Z</time>
<speed>1.290000</speed>
<extensions>
<speed>1.3</speed>
<temp>0.00</temp>
<bpm>0</bpm>
<rpm>0.00</rpm>
</extensions>
</trkpt>
<trkpt lat="30.621847153" lon="34.819576263">
<ele>631.406250</ele>
<time>2013-11-23T12:29:29Z</time>
<speed>2.900000</speed>
<extensions>
<speed>2.9</speed>
<temp>0.00</temp>
<bpm>0</bpm>
<rpm>0.00</rpm>
</extensions>
</trkpt>
<trkpt lat="30.621742249" lon="34.819507599">
<ele>632.875000</ele>
<time>2013-11-23T12:29:34Z</time>
<speed>1.680000</speed>
<extensions>
<speed>1.7</speed>
<temp>0.00</temp>
<bpm>0</bpm>
<rpm>0.00</rpm>
</extensions>
</trkpt>
<trkpt lat="30.621667862" lon="34.819454193">
<ele>633.953125</ele>
<time>2013-11-23T12:29:39Z</time>
<speed>2.490000</speed>
<extensions>
<speed>2.5</speed>
<temp>0.00</temp>
<bpm>0</bpm>
<rpm>0.00</rpm>
</extensions>
</trkpt>
<trkpt lat="30.621545792" lon="34.819389343">
<ele>634.703125</ele>
<time>2013-11-23T12:29:44Z</time>
<speed>3.480000</speed>
<extensions>
<speed>3.5</speed>
<temp>0.00</temp>
<bpm>0</bpm>
<rpm>0.00</rpm>
</extensions>
</trkpt>
<trkpt lat="30.621456146" lon="34.819343567">
<ele>634.890625</ele>
<time>2013-11-23T12:29:49Z</time>
<speed>0.620000</speed>
<extensions>
<speed>0.6</speed>
<temp>0.00</temp>
<bpm>0</bpm>
<rpm>0.00</rpm>
</extensions>
</trkpt>
<trkpt lat="30.621440887" lon="34.819347382">
<ele>635.453125</ele>
<time>2013-11-23T12:29:54Z</time>
<speed>1.130000</speed>
<extensions>
<speed>1.1</speed>
<temp>0.00</temp>
<bpm>0</bpm>
<rpm>0.00</rpm>
</extensions>
</trkpt>
<trkpt lat="30.621339798" lon="34.819309235">
<ele>636.421875</ele>
<time>2013-11-23T12:29:59Z</time>
<speed>3.070000</speed>
<extensions>
<speed>3.1</speed>
<temp>0.00</temp>
<bpm>0</bpm>
<rpm>0.00</rpm>
</extensions>
</trkpt>
<trkpt lat="30.621219635" lon="34.819282532">
<ele>637.718750</ele>
<time>2013-11-23T12:30:04Z</time>
<speed>1.740000</speed>
<extensions>
<speed>1.7</speed>
<temp>0.00</temp>
<bpm>0</bpm>
<rpm>0.00</rpm>
</extensions>
</trkpt>
<trkpt lat="30.621141434" lon="34.819240570">
<ele>638.765625</ele>
<time>2013-11-23T12:30:09Z</time>
<speed>2.230000</speed>
<extensions>
<speed>2.2</speed>
<temp>0.00</temp>
<bpm>0</bpm>
<rpm>0.00</rpm>
</extensions>
</trkpt>
<trkpt lat="30.621030807" lon="34.819213867">
<ele>639.671875</ele>
<time>2013-11-23T12:30:14Z</time>
<speed>2.590000</speed>
<extensions>
<speed>2.6</speed>
<temp>0.00</temp>
<bpm>0</bpm>
<rpm>0.00</rpm>
</extensions>
</trkpt>
<trkpt lat="30.620914459" lon="34.819187164">
<ele>641.031250</ele>
<time>2013-11-23T12:30:19Z</time>
<speed>2.510000</speed>
<extensions>
<speed>2.5</speed>
<temp>0.00</temp>
<bpm>0</bpm>
<rpm>0.00</rpm>
</extensions>
</trkpt>
<trkpt lat="30.620809555" lon="34.819141388">
<ele>641.375000</ele>
<time>2013-11-23T12:30:24Z</time>
<speed>2.490000</speed>
<extensions>
<speed>2.5</speed>
<temp>0.00</temp>
<bpm>0</bpm>
<rpm>0.00</rpm>
</extensions>
</trkpt>
<trkpt lat="30.620691299" lon="34.819087982">
<ele>642.562500</ele>
<time>2013-11-23T12:30:29Z</time>
<speed>2.890000</speed>
<extensions>
<speed>2.9</speed>
<temp>0.00</temp>
<bpm>0</bpm>
<rpm>0.00</rpm>
</extensions>
</trkpt>
<trkpt lat="30.620565414" lon="34.819038391">
<ele>643.593750</ele>
<time>2013-11-23T12:30:34Z</time>
<speed>3.050000</speed>
<extensions>
<speed>3.0</speed>
<temp>0.00</temp>
<bpm>0</bpm>
<rpm>0.00</rpm>
</extensions>
</trkpt>
<trkpt lat="30.620456696" lon="34.818954468">
<ele>643.968750</ele>
<time>2013-11-23T12:30:39Z</time>
<speed>2.580000</speed>
<extensions>
<speed>2.6</speed>
<temp>0.00</temp>
<bpm>0</bpm>
<rpm>0.00</rpm>
</extensions>
</trkpt>
<trkpt lat="30.620405197" lon="34.818851471">
<ele>644.875000</ele>
<time>2013-11-23T12:30:44Z</time>
<speed>1.870000</speed>
<extensions>
<speed>1.9</speed>
<temp>0.00</temp>
<bpm>0</bpm>
<rpm>0.00</rpm>
</extensions>
</trkpt>
<trkpt lat="30.620389938" lon="34.818756104">
<ele>645.890625</ele>
<time>2013-11-23T12:30:49Z</time>
<speed>2.180000</speed>
<extensions>
<speed>2.2</speed>
<temp>0.00</temp>
<bpm>0</bpm>
<rpm>0.00</rpm>
</extensions>
</trkpt>
<trkpt lat="30.620401382" lon="34.818637848">
<ele>646.578125</ele>
<time>2013-11-23T12:30:54Z</time>
<speed>2.400000</speed>
<extensions>
<speed>2.4</speed>
<temp>0.00</temp>
<bpm>0</bpm>
<rpm>0.00</rpm>
</extensions>
</trkpt>
<trkpt lat="30.620449066" lon="34.818519592">
<ele>647.671875</ele>
<time>2013-11-23T12:30:59Z</time>
<speed>2.490000</speed>
<extensions>
<speed>2.5</speed>
<temp>0.00</temp>
<bpm>0</bpm>
<rpm>0.00</rpm>
</extensions>
</trkpt>
<trkpt lat="30.620542526" lon="34.818428040">
<ele>648.734375</ele>
<time>2013-11-23T12:31:04Z</time>
<speed>2.690000</speed>
<extensions>
<speed>2.7</speed>
<temp>0.00</temp>
<bpm>0</bpm>
<rpm>0.00</rpm>
</extensions>
</trkpt>
<trkpt lat="30.620658875" lon="34.818389893">
<ele>649.671875</ele>
<time>2013-11-23T12:31:09Z</time>
<speed>2.660000</speed>
<extensions>
<speed>2.7</speed>
<temp>0.00</temp>
<bpm>0</bpm>
<rpm>0.00</rpm>
</extensions>
</trkpt>
<trkpt lat="30.620782852" lon="34.818393707">
<ele>651.062500</ele>
<time>2013-11-23T12:31:14Z</time>
<speed>2.750000</speed>
<extensions>
<speed>2.7</speed>
<temp>0.00</temp>
<bpm>0</bpm>
<rpm>0.00</rpm>
</extensions>
</trkpt>
<trkpt lat="30.620903015" lon="34.818424225">
<ele>652.187500</ele>
<time>2013-11-23T12:31:19Z</time>
<speed>2.760000</speed>
<extensions>
<speed>2.8</speed>
<temp>0.00</temp>
<bpm>0</bpm>
<rpm>0.00</rpm>
</extensions>
</trkpt>
<trkpt lat="30.620958328" lon="34.818450928">
<ele>653.390625</ele>
<time>2013-11-23T12:31:24Z</time>
<speed>1.640000</speed>
<extensions>
<speed>1.6</speed>
<temp>0.00</temp>
<bpm>0</bpm>
<rpm>0.00</rpm>
</extensions>
</trkpt>
<trkpt lat="30.621040344" lon="34.818500519">
<ele>654.125000</ele>
<time>2013-11-23T12:31:29Z</time>
<speed>2.290000</speed>
<extensions>
<speed>2.3</speed>
<temp>0.00</temp>
<bpm>0</bpm>
<rpm>0.00</rpm>
</extensions>
</trkpt>
<trkpt lat="30.621128082" lon="34.818534851">
<ele>654.968750</ele>
<time>2013-11-23T12:31:34Z</time>
<speed>0.870000</speed>
<extensions>
<speed>0.9</speed>
<temp>0.00</temp>
<bpm>0</bpm>
<rpm>0.00</rpm>
</extensions>
</trkpt>
<trkpt lat="30.621124268" lon="34.818531036">
<ele>653.875000</ele>
<time>2013-11-23T12:31:39Z</time>
<speed>0.400000</speed>
<extensions>
<speed>0.4</speed>
<temp>0.00</temp>
<bpm>0</bpm>
<rpm>0.00</rpm>
</extensions>
</trkpt>
<trkpt lat="30.621124268" lon="34.818527222">
<ele>652.656250</ele>
<time>2013-11-23T12:31:44Z</time>
<speed>0.020000</speed>
<extensions>
<speed>0.0</speed>
<temp>0.00</temp>
<bpm>0</bpm>
<rpm>0.00</rpm>
</extensions>
</trkpt>
<trkpt lat="30.621124268" lon="34.818527222">
<ele>652.593750</ele>
<time>2013-11-23T12:31:49Z</time>
<extensions>
<speed>0.0</speed>
<temp>0.00</temp>
<bpm>0</bpm>
<rpm>0.00</rpm>
</extensions>
</trkpt>
<trkpt lat="30.621124268" lon="34.818527222">
<ele>652.546875</ele>
<time>2013-11-23T12:31:54Z</time>
<speed>0.010000</speed>
<extensions>
<speed>0.0</speed>
<temp>0.00</temp>
<bpm>0</bpm>
<rpm>0.00</rpm>
</extensions>
</trkpt>
<trkpt lat="30.621124268" lon="34.818527222">
<ele>652.531250</ele>
<time>2013-11-23T12:31:59Z</time>
<extensions>
<speed>0.0</speed>
<temp>0.00</temp>
<bpm>0</bpm>
<rpm>0.00</rpm>
</extensions>
</trkpt>
<trkpt lat="30.621124268" lon="34.818527222">
<ele>652.515625</ele>
<time>2013-11-23T12:32:04Z</time>
<extensions>
<speed>0.0</speed>
<temp>0.00</temp>
<bpm>0</bpm>
<rpm>0.00</rpm>
</extensions>
</trkpt>
<trkpt lat="30.621124268" lon="34.818527222">
<ele>652.500000</ele>
<time>2013-11-23T12:32:09Z</time>
<speed>0.010000</speed>
<extensions>
<speed>0.0</speed>
<temp>0.00</temp>
<bpm>0</bpm>
<rpm>0.00</rpm>
</extensions>
</trkpt>
<trkpt lat="30.621124268" lon="34.818527222">
<ele>652.484375</ele>
<time>2013-11-23T12:32:14Z</time>
<extensions>
<speed>0.0</speed>
<temp>0.00</temp>
<bpm>0</bpm>
<rpm>0.00</rpm>
</extensions>
</trkpt>
<trkpt lat="30.621124268" lon="34.818527222">
<ele>652.468750</ele>
<time>2013-11-23T12:32:19Z</time>
<extensions>
<speed>0.0</speed>
<temp>0.00</temp>
<bpm>0</bpm>
<rpm>0.00</rpm>
</extensions>
</trkpt>
<trkpt lat="30.621124268" lon="34.818527222">
<ele>652.453125</ele>
<time>2013-11-23T12:32:24Z</time>
<speed>0.010000</speed>
<extensions>
<speed>0.0</speed>
<temp>0.00</temp>
<bpm>0</bpm>
<rpm>0.00</rpm>
</extensions>
</trkpt>
<trkpt lat="30.621124268" lon="34.818527222">
<ele>652.437500</ele>
<time>2013-11-23T12:32:29Z</time>
<extensions>
<speed>0.0</speed>
<temp>0.00</temp>
<bpm>0</bpm>
<rpm>0.00</rpm>
</extensions>
</trkpt>
<trkpt lat="30.621129990" lon="34.818527222">
<ele>652.765625</ele>
<time>2013-11-23T12:32:34Z</time>
<speed>0.520000</speed>
<extensions>
<speed>0.5</speed>
<temp>0.00</temp>
<bpm>0</bpm>
<rpm>0.00</rpm>
</extensions>
</trkpt>
<trkpt lat="30.621152878" lon="34.818515778">
<ele>652.640625</ele>
<time>2013-11-23T12:32:39Z</time>
<speed>1.620000</speed>
<extensions>
<speed>1.6</speed>
<temp>0.00</temp>
<bpm>0</bpm>
<rpm>0.00</rpm>
</extensions>
</trkpt>
<trkpt lat="30.621219635" lon="34.818500519">
<ele>653.390625</ele>
<time>2013-11-23T12:32:44Z</time>
<speed>1.340000</speed>
<extensions>
<speed>1.3</speed>
<temp>0.00</temp>
<bpm>0</bpm>
<rpm>0.00</rpm>
</extensions>
</trkpt>
<trkpt lat="30.621269226" lon="34.818515778">
<ele>653.828125</ele>
<time>2013-11-23T12:32:49Z</time>
<speed>1.230000</speed>
<extensions>
<speed>1.2</speed>
<temp>0.00</temp>
<bpm>0</bpm>
<rpm>0.00</rpm>
</extensions>
</trkpt>
<trkpt lat="30.621328354" lon="34.818527222">
<ele>654.203125</ele>
<time>2013-11-23T12:32:54Z</time>
<speed>1.290000</speed>
<extensions>
<speed>1.3</speed>
<temp>0.00</temp>
<bpm>0</bpm>
<rpm>0.00</rpm>
</extensions>
</trkpt>
<trkpt lat="30.621393204" lon="34.818546295">
<ele>654.812500</ele>
<time>2013-11-23T12:32:59Z</time>
<speed>1.400000</speed>
<extensions>
<speed>1.4</speed>
<temp>0.00</temp>
<bpm>0</bpm>
<rpm>0.00</rpm>
</extensions>
</trkpt>
<trkpt lat="30.621456146" lon="34.818561554">
<ele>655.484375</ele>
<time>2013-11-23T12:33:04Z</time>
<speed>1.360000</speed>
<extensions>
<speed>1.4</speed>
<temp>0.00</temp>
<bpm>0</bpm>
<rpm>0.00</rpm>
</extensions>
</trkpt>
<trkpt lat="30.621515274" lon="34.818584442">
<ele>656.109375</ele>
<time>2013-11-23T12:33:09Z</time>
<speed>1.480000</speed>
<extensions>
<speed>1.5</speed>
<temp>0.00</temp>
<bpm>0</bpm>
<rpm>0.00</rpm>
</extensions>
</trkpt>
<trkpt lat="30.621580124" lon="34.818595886">
<ele>656.921875</ele>
<time>2013-11-23T12:33:14Z</time>
<speed>1.310000</speed>
<extensions>
<speed>1.3</speed>
<temp>0.00</temp>
<bpm>0</bpm>
<rpm>0.00</rpm>
</extensions>
</trkpt>
<trkpt lat="30.621635437" lon="34.818626404">
<ele>658.187500</ele>
<time>2013-11-23T12:33:19Z</time>
<speed>1.460000</speed>
<extensions>
<speed>1.5</speed>
<temp>0.00</temp>
<bpm>0</bpm>
<rpm>0.00</rpm>
</extensions>
</trkpt>
<trkpt lat="30.621698380" lon="34.818637848">
<ele>658.734375</ele>
<time>2013-11-23T12:33:24Z</time>
<speed>1.480000</speed>
<extensions>
<speed>1.5</speed>
<temp>0.00</temp>
<bpm>0</bpm>
<rpm>0.00</rpm>
</extensions>
</trkpt>
<trkpt lat="30.621770859" lon="34.818653107">
<ele>659.562500</ele>
<time>2013-11-23T12:33:29Z</time>
<speed>1.560000</speed>
<extensions>
<speed>1.6</speed>
<temp>0.00</temp>
<bpm>0</bpm>
<rpm>0.00</rpm>
</extensions>
</trkpt>
<trkpt lat="30.621828079" lon="34.818675995">
<ele>659.906250</ele>
<time>2013-11-23T12:33:34Z</time>
<speed>0.840000</speed>
<extensions>
<speed>0.8</speed>
<temp>0.00</temp>
<bpm>0</bpm>
<rpm>0.00</rpm>
</extensions>
</trkpt>
<trkpt lat="30.621889114" lon="34.818695068">
<ele>660.718750</ele>
<time>2013-11-23T12:33:39Z</time>
<speed>1.570000</speed>
<extensions>
<speed>1.6</speed>
<temp>0.00</temp>
<bpm>0</bpm>
<rpm>0.00</rpm>
</extensions>
</trkpt>
<trkpt lat="30.621961594" lon="34.818714142">
<ele>661.203125</ele>
<time>2013-11-23T12:33:44Z</time>
<speed>1.630000</speed>
<extensions>
<speed>1.6</speed>
<temp>0.00</temp>
<bpm>0</bpm>
<rpm>0.00</rpm>
</extensions>
</trkpt>
<trkpt lat="30.622032166" lon="34.818737030">
<ele>661.703125</ele>
<time>2013-11-23T12:33:49Z</time>
<speed>1.650000</speed>
<extensions>
<speed>1.7</speed>
<temp>0.00</temp>
<bpm>0</bpm>
<rpm>0.00</rpm>
</extensions>
</trkpt>
<trkpt lat="30.622108459" lon="34.818756104">
<ele>662.328125</ele>
<time>2013-11-23T12:33:54Z</time>
<speed>1.620000</speed>
<extensions>
<speed>1.6</speed>
<temp>0.00</temp>
<bpm>0</bpm>
<rpm>0.00</rpm>
</extensions>
</trkpt>
<trkpt lat="30.622179031" lon="34.818771362">
<ele>662.906250</ele>
<time>2013-11-23T12:33:59Z</time>
<speed>1.650000</speed>
<extensions>
<speed>1.7</speed>
<temp>0.00</temp>
<bpm>0</bpm>
<rpm>0.00</rpm>
</extensions>
</trkpt>
<trkpt lat="30.622234344" lon="34.818790436">
<ele>663.359375</ele>
<time>2013-11-23T12:34:04Z</time>
<speed>1.030000</speed>
<extensions>
<speed>1.0</speed>
<temp>0.00</temp>
<bpm>0</bpm>
<rpm>0.00</rpm>
</extensions>
</trkpt>
<trkpt lat="30.622282028" lon="34.818805695">
<ele>663.937500</ele>
<time>2013-11-23T12:34:09Z</time>
<speed>1.390000</speed>
<extensions>
<speed>1.4</speed>
<temp>0.00</temp>
<bpm>0</bpm>
<rpm>0.00</rpm>
</extensions>
</trkpt>
<trkpt lat="30.622343063" lon="34.818820953">
<ele>664.484375</ele>
<time>2013-11-23T12:34:14Z</time>
<speed>1.320000</speed>
<extensions>
<speed>1.3</speed>
<temp>0.00</temp>
<bpm>0</bpm>
<rpm>0.00</rpm>
</extensions>
</trkpt>
<trkpt lat="30.622396469" lon="34.818836212">
<ele>665.000000</ele>
<time>2013-11-23T12:34:19Z</time>
<speed>1.320000</speed>
<extensions>
<speed>1.3</speed>
<temp>0.00</temp>
<bpm>0</bpm>
<rpm>0.00</rpm>
</extensions>
</trkpt>
<trkpt lat="30.622451782" lon="34.818847656">
<ele>665.468750</ele>
<time>2013-11-23T12:34:24Z</time>
<speed>1.380000</speed>
<extensions>
<speed>1.4</speed>
<temp>0.00</temp>
<bpm>0</bpm>
<rpm>0.00</rpm>
</extensions>
</trkpt>
<trkpt lat="30.622514725" lon="34.818874359">
<ele>665.906250</ele>
<time>2013-11-23T12:34:29Z</time>
<speed>1.450000</speed>
<extensions>
<speed>1.4</speed>
<temp>0.00</temp>
<bpm>0</bpm>
<rpm>0.00</rpm>
</extensions>
</trkpt>
<trkpt lat="30.622575760" lon="34.818897247">
<ele>666.734375</ele>
<time>2013-11-23T12:34:34Z</time>
<speed>1.410000</speed>
<extensions>
<speed>1.4</speed>
<temp>0.00</temp>
<bpm>0</bpm>
<rpm>0.00</rpm>
</extensions>
</trkpt>
<trkpt lat="30.622636795" lon="34.818916321">
<ele>666.843750</ele>
<time>2013-11-23T12:34:39Z</time>
<speed>1.400000</speed>
<extensions>
<speed>1.4</speed>
<temp>0.00</temp>
<bpm>0</bpm>
<rpm>0.00</rpm>
</extensions>
</trkpt>
<trkpt lat="30.622695923" lon="34.818927765">
<ele>667.093750</ele>
<time>2013-11-23T12:34:44Z</time>
<speed>1.430000</speed>
<extensions>
<speed>1.4</speed>
<temp>0.00</temp>
<bpm>0</bpm>
<rpm>0.00</rpm>
</extensions>
</trkpt>
<trkpt lat="30.622758865" lon="34.818950653">
<ele>667.312500</ele>
<time>2013-11-23T12:34:49Z</time>
<speed>1.430000</speed>
<extensions>
<speed>1.4</speed>
<temp>0.00</temp>
<bpm>0</bpm>
<rpm>0.00</rpm>
</extensions>
</trkpt>
<trkpt lat="30.622823715" lon="34.818973541">
<ele>667.656250</ele>
<time>2013-11-23T12:34:54Z</time>
<speed>1.520000</speed>
<extensions>
<speed>1.5</speed>
<temp>0.00</temp>
<bpm>0</bpm>
<rpm>0.00</rpm>
</extensions>
</trkpt>
<trkpt lat="30.622888565" lon="34.818988800">
<ele>668.031250</ele>
<time>2013-11-23T12:34:59Z</time>
<speed>1.490000</speed>
<extensions>
<speed>1.5</speed>
<temp>0.00</temp>
<bpm>0</bpm>
<rpm>0.00</rpm>
</extensions>
</trkpt>
<trkpt lat="30.622957230" lon="34.818996429">
<ele>668.281250</ele>
<time>2013-11-23T12:35:04Z</time>
<speed>1.420000</speed>
<extensions>
<speed>1.4</speed>
<temp>0.00</temp>
<bpm>0</bpm>
<rpm>0.00</rpm>
</extensions>
</trkpt>
<trkpt lat="30.623020172" lon="34.818992615">
<ele>668.234375</ele>
<time>2013-11-23T12:35:09Z</time>
<speed>1.370000</speed>
<extensions>
<speed>1.4</speed>
<temp>0.00</temp>
<bpm>0</bpm>
<rpm>0.00</rpm>
</extensions>
</trkpt>
<trkpt lat="30.623083115" lon="34.818969727">
<ele>668.015625</ele>
<time>2013-11-23T12:35:14Z</time>
<speed>1.450000</speed>
<extensions>
<speed>1.4</speed>
<temp>0.00</temp>
<bpm>0</bpm>
<rpm>0.00</rpm>
</extensions>
</trkpt>
<trkpt lat="30.623138428" lon="34.818935394">
<ele>667.421875</ele>
<time>2013-11-23T12:35:19Z</time>
<speed>1.510000</speed>
<extensions>
<speed>1.5</speed>
<temp>0.00</temp>
<bpm>0</bpm>
<rpm>0.00</rpm>
</extensions>
</trkpt>
<trkpt lat="30.623193741" lon="34.818874359">
<ele>666.484375</ele>
<time>2013-11-23T12:35:24Z</time>
<speed>1.560000</speed>
<extensions>
<speed>1.6</speed>
<temp>0.00</temp>
<bpm>0</bpm>
<rpm>0.00</rpm>
</extensions>
</trkpt>
<trkpt lat="30.623222351" lon="34.818805695">
<ele>665.437500</ele>
<time>2013-11-23T12:35:29Z</time>
<speed>0.860000</speed>
<extensions>
<speed>0.9</speed>
<temp>0.00</temp>
<bpm>0</bpm>
<rpm>0.00</rpm>
</extensions>
</trkpt>
<trkpt lat="30.623239517" lon="34.818737030">
<ele>664.343750</ele>
<time>2013-11-23T12:35:34Z</time>
<speed>1.290000</speed>
<extensions>
<speed>1.3</speed>
<temp>0.00</temp>
<bpm>0</bpm>
<rpm>0.00</rpm>
</extensions>
</trkpt>
<trkpt lat="30.623235703" lon="34.818660736">
<ele>664.375000</ele>
<time>2013-11-23T12:35:39Z</time>
<speed>0.840000</speed>
<extensions>
<speed>0.8</speed>
<temp>0.00</temp>
<bpm>0</bpm>
<rpm>0.00</rpm>
</extensions>
</trkpt>
<trkpt lat="30.623220444" lon="34.818607330">
<ele>664.234375</ele>
<time>2013-11-23T12:35:44Z</time>
<speed>0.860000</speed>
<extensions>
<speed>0.9</speed>
<temp>0.00</temp>
<bpm>0</bpm>
<rpm>0.00</rpm>
</extensions>
</trkpt>
<trkpt lat="30.623195648" lon="34.818542480">
<ele>663.453125</ele>
<time>2013-11-23T12:35:49Z</time>
<speed>1.220000</speed>
<extensions>
<speed>1.2</speed>
<temp>0.00</temp>
<bpm>0</bpm>
<rpm>0.00</rpm>
</extensions>
</trkpt>
<trkpt lat="30.623155594" lon="34.818496704">
<ele>663.125000</ele>
<time>2013-11-23T12:35:54Z</time>
<speed>1.410000</speed>
<extensions>
<speed>1.4</speed>
<temp>0.00</temp>
<bpm>0</bpm>
<rpm>0.00</rpm>
</extensions>
</trkpt>
<trkpt lat="30.623100281" lon="34.818447113">
<ele>663.359375</ele>
<time>2013-11-23T12:35:59Z</time>
<speed>1.550000</speed>
<extensions>
<speed>1.5</speed>
<temp>0.00</temp>
<bpm>0</bpm>
<rpm>0.00</rpm>
</extensions>
</trkpt>
<trkpt lat="30.623039246" lon="34.818412781">
<ele>664.078125</ele>
<time>2013-11-23T12:36:04Z</time>
<speed>1.510000</speed>
<extensions>
<speed>1.5</speed>
<temp>0.00</temp>
<bpm>0</bpm>
<rpm>0.00</rpm>
</extensions>
</trkpt>
<trkpt lat="30.622982025" lon="34.818389893">
<ele>664.390625</ele>
<time>2013-11-23T12:36:09Z</time>
<speed>1.110000</speed>
<extensions>
<speed>1.1</speed>
<temp>0.00</temp>
<bpm>0</bpm>
<rpm>0.00</rpm>
</extensions>
</trkpt>
<trkpt lat="30.622934341" lon="34.818374634">
<ele>664.000000</ele>
<time>2013-11-23T12:36:14Z</time>
<speed>0.700000</speed>
<extensions>
<speed>0.7</speed>
<temp>0.00</temp>
<bpm>0</bpm>
<rpm>0.00</rpm>
</extensions>
</trkpt>
<trkpt lat="30.622877121" lon="34.818344116">
<ele>664.234375</ele>
<time>2013-11-23T12:36:19Z</time>
<speed>1.510000</speed>
<extensions>
<speed>1.5</speed>
<temp>0.00</temp>
<bpm>0</bpm>
<rpm>0.00</rpm>
</extensions>
</trkpt>
<trkpt lat="30.622804642" lon="34.818317413">
<ele>664.421875</ele>
<time>2013-11-23T12:36:24Z</time>
<speed>1.820000</speed>
<extensions>
<speed>1.8</speed>
<temp>0.00</temp>
<bpm>0</bpm>
<rpm>0.00</rpm>
</extensions>
</trkpt>
<trkpt lat="30.622720718" lon="34.818283081">
<ele>664.953125</ele>
<time>2013-11-23T12:36:29Z</time>
<speed>1.930000</speed>
<extensions>
<speed>1.9</speed>
<temp>0.00</temp>
<bpm>0</bpm>
<rpm>0.00</rpm>
</extensions>
</trkpt>
<trkpt lat="30.622640610" lon="34.818252563">
<ele>665.625000</ele>
<time>2013-11-23T12:36:34Z</time>
<speed>1.830000</speed>
<extensions>
<speed>1.8</speed>
<temp>0.00</temp>
<bpm>0</bpm>
<rpm>0.00</rpm>
</extensions>
</trkpt>
<trkpt lat="30.622556686" lon="34.818218231">
<ele>666.078125</ele>
<time>2013-11-23T12:36:39Z</time>
<speed>1.740000</speed>
<extensions>
<speed>1.7</speed>
<temp>0.00</temp>
<bpm>0</bpm>
<rpm>0.00</rpm>
</extensions>
</trkpt>
<trkpt lat="30.622482300" lon="34.818183899">
<ele>666.281250</ele>
<time>2013-11-23T12:36:44Z</time>
<speed>0.710000</speed>
<extensions>
<speed>0.7</speed>
<temp>0.00</temp>
<bpm>0</bpm>
<rpm>0.00</rpm>
</extensions>
</trkpt>
<trkpt lat="30.622430801" lon="34.818161011">
<ele>667.203125</ele>
<time>2013-11-23T12:36:49Z</time>
<speed>1.370000</speed>
<extensions>
<speed>1.4</speed>
<temp>0.00</temp>
<bpm>0</bpm>
<rpm>0.00</rpm>
</extensions>
</trkpt>
<trkpt lat="30.622367859" lon="34.818130493">
<ele>668.093750</ele>
<time>2013-11-23T12:36:54Z</time>
<speed>1.570000</speed>
<extensions>
<speed>1.6</speed>
<temp>0.00</temp>
<bpm>0</bpm>
<rpm>0.00</rpm>
</extensions>
</trkpt>
<trkpt lat="30.622287750" lon="34.818088531">
<ele>669.015625</ele>
<time>2013-11-23T12:36:59Z</time>
<speed>2.370000</speed>
<extensions>
<speed>2.4</speed>
<temp>0.00</temp>
<bpm>0</bpm>
<rpm>0.00</rpm>
</extensions>
</trkpt>
<trkpt lat="30.622177124" lon="34.818038940">
<ele>670.421875</ele>
<time>2013-11-23T12:37:04Z</time>
<speed>2.700000</speed>
<extensions>
<speed>2.7</speed>
<temp>0.00</temp>
<bpm>0</bpm>
<rpm>0.00</rpm>
</extensions>
</trkpt>
<trkpt lat="30.622056961" lon="34.817989349">
<ele>672.859375</ele>
<time>2013-11-23T12:37:09Z</time>
<speed>2.720000</speed>
<extensions>
<speed>2.7</speed>
<temp>0.00</temp>
<bpm>0</bpm>
<rpm>0.00</rpm>
</extensions>
</trkpt>
<trkpt lat="30.621978760" lon="34.817955017">
<ele>674.625000</ele>
<time>2013-11-23T12:37:14Z</time>
<speed>1.420000</speed>
<extensions>
<speed>1.4</speed>
<temp>0.00</temp>
<bpm>0</bpm>
<rpm>0.00</rpm>
</extensions>
</trkpt>
<trkpt lat="30.621912003" lon="34.817924500">
<ele>677.281250</ele>
<time>2013-11-23T12:37:19Z</time>
<speed>1.310000</speed>
<extensions>
<speed>1.3</speed>
<temp>0.00</temp>
<bpm>0</bpm>
<rpm>0.00</rpm>
</extensions>
</trkpt>
<trkpt lat="30.621849060" lon="34.817893982">
<ele>677.890625</ele>
<time>2013-11-23T12:37:24Z</time>
<speed>1.490000</speed>
<extensions>
<speed>1.5</speed>
<temp>0.00</temp>
<bpm>0</bpm>
<rpm>0.00</rpm>
</extensions>
</trkpt>
<trkpt lat="30.621786118" lon="34.817867279">
<ele>678.312500</ele>
<time>2013-11-23T12:37:29Z</time>
<speed>1.280000</speed>
<extensions>
<speed>1.3</speed>
<temp>0.00</temp>
<bpm>0</bpm>
<rpm>0.00</rpm>
</extensions>
</trkpt>
<trkpt lat="30.621730804" lon="34.817848206">
<ele>678.468750</ele>
<time>2013-11-23T12:37:34Z</time>
<speed>1.890000</speed>
<extensions>
<speed>1.9</speed>
<temp>0.00</temp>
<bpm>0</bpm>
<rpm>0.00</rpm>
</extensions>
</trkpt>
<trkpt lat="30.621667862" lon="34.817821503">
<ele>679.671875</ele>
<time>2013-11-23T12:37:39Z</time>
<speed>1.580000</speed>
<extensions>
<speed>1.6</speed>
<temp>0.00</temp>
<bpm>0</bpm>
<rpm>0.00</rpm>
</extensions>
</trkpt>
<trkpt lat="30.621610641" lon="34.817798615">
<ele>681.546875</ele>
<time>2013-11-23T12:37:44Z</time>
<speed>1.640000</speed>
<extensions>
<speed>1.6</speed>
<temp>0.00</temp>
<bpm>0</bpm>
<rpm>0.00</rpm>
</extensions>
</trkpt>
<trkpt lat="30.621526718" lon="34.817775726">
<ele>683.578125</ele>
<time>2013-11-23T12:37:49Z</time>
<speed>1.740000</speed>
<extensions>
<speed>1.7</speed>
<temp>0.00</temp>
<bpm>0</bpm>
<rpm>0.00</rpm>
</extensions>
</trkpt>
<trkpt lat="30.621446609" lon="34.817745209">
<ele>685.921875</ele>
<time>2013-11-23T12:37:54Z</time>
<speed>2.280000</speed>
<extensions>
<speed>2.3</speed>
<temp>0.00</temp>
<bpm>0</bpm>
<rpm>0.00</rpm>
</extensions>
</trkpt>
<trkpt lat="30.621370316" lon="34.817710876">
<ele>686.875000</ele>
<time>2013-11-23T12:37:59Z</time>
<speed>2.240000</speed>
<extensions>
<speed>2.2</speed>
<temp>0.00</temp>
<bpm>0</bpm>
<rpm>0.00</rpm>
</extensions>
</trkpt>
<trkpt lat="30.621294022" lon="34.817630768">
<ele>688.000000</ele>
<time>2013-11-23T12:38:04Z</time>
<speed>2.130000</speed>
<extensions>
<speed>2.1</speed>
<temp>0.00</temp>
<bpm>0</bpm>
<rpm>0.00</rpm>
</extensions>
</trkpt>
<trkpt lat="30.621282578" lon="34.817531586">
<ele>688.531250</ele>
<time>2013-11-23T12:38:09Z</time>
<speed>2.180000</speed>
<extensions>
<speed>2.2</speed>
<temp>0.00</temp>
<bpm>0</bpm>
<rpm>0.00</rpm>
</extensions>
</trkpt>
<trkpt lat="30.621358871" lon="34.817455292">
<ele>689.484375</ele>
<time>2013-11-23T12:38:14Z</time>
<speed>2.530000</speed>
<extensions>
<speed>2.5</speed>
<temp>0.00</temp>
<bpm>0</bpm>
<rpm>0.00</rpm>
</extensions>
</trkpt>
<trkpt lat="30.621467590" lon="34.817474365">
<ele>689.921875</ele>
<time>2013-11-23T12:38:19Z</time>
<speed>2.380000</speed>
<extensions>
<speed>2.4</speed>
<temp>0.00</temp>
<bpm>0</bpm>
<rpm>0.00</rpm>
</extensions>
</trkpt>
<trkpt lat="30.621585846" lon="34.817520142">
<ele>691.218750</ele>
<time>2013-11-23T12:38:24Z</time>
<speed>2.800000</speed>
<extensions>
<speed>2.8</speed>
<temp>0.00</temp>
<bpm>0</bpm>
<rpm>0.00</rpm>
</extensions>
</trkpt>
<trkpt lat="30.621635437" lon="34.817550659">
<ele>691.875000</ele>
<time>2013-11-23T12:38:29Z</time>
<speed>0.030000</speed>
<extensions>
<speed>0.0</speed>
<temp>0.00</temp>
<bpm>0</bpm>
<rpm>0.00</rpm>
</extensions>
</trkpt>
<trkpt lat="30.621635437" lon="34.817550659">
<ele>691.843750</ele>
<time>2013-11-23T12:38:34Z</time>
<speed>0.020000</speed>
<extensions>
<speed>0.0</speed>
<temp>0.00</temp>
<bpm>0</bpm>
<rpm>0.00</rpm>
</extensions>
</trkpt>
<trkpt lat="30.621633530" lon="34.817550659">
<ele>691.859375</ele>
<time>2013-11-23T12:38:39Z</time>
<speed>0.040000</speed>
<extensions>
<speed>0.0</speed>
<temp>0.00</temp>
<bpm>0</bpm>
<rpm>0.00</rpm>
</extensions>
</trkpt>
<trkpt lat="30.621633530" lon="34.817550659">
<ele>691.859375</ele>
<time>2013-11-23T12:38:44Z</time>
<extensions>
<speed>0.0</speed>
<temp>0.00</temp>
<bpm>0</bpm>
<rpm>0.00</rpm>
</extensions>
</trkpt>
<trkpt lat="30.621633530" lon="34.817550659">
<ele>692.015625</ele>
<time>2013-11-23T12:38:49Z</time>
<speed>0.030000</speed>
<extensions>
<speed>0.0</speed>
<temp>0.00</temp>
<bpm>0</bpm>
<rpm>0.00</rpm>
</extensions>
</trkpt>
<trkpt lat="30.621633530" lon="34.817550659">
<ele>692.031250</ele>
<time>2013-11-23T12:38:54Z</time>
<extensions>
<speed>0.0</speed>
<temp>0.00</temp>
<bpm>0</bpm>
<rpm>0.00</rpm>
</extensions>
</trkpt>
<trkpt lat="30.621633530" lon="34.817550659">
<ele>692.031250</ele>
<time>2013-11-23T12:38:59Z</time>
<speed>0.050000</speed>
<extensions>
<speed>0.1</speed>
<temp>0.00</temp>
<bpm>0</bpm>
<rpm>0.00</rpm>
</extensions>
</trkpt>
<trkpt lat="30.621633530" lon="34.817550659">
<ele>692.031250</ele>
<time>2013-11-23T12:39:04Z</time>
<speed>0.020000</speed>
<extensions>
<speed>0.0</speed>
<temp>0.00</temp>
<bpm>0</bpm>
<rpm>0.00</rpm>
</extensions>
</trkpt>
<trkpt lat="30.621633530" lon="34.817550659">
<ele>692.046875</ele>
<time>2013-11-23T12:39:09Z</time>
<speed>0.010000</speed>
<extensions>
<speed>0.0</speed>
<temp>0.00</temp>
<bpm>0</bpm>
<rpm>0.00</rpm>
</extensions>
</trkpt>
<trkpt lat="30.621633530" lon="34.817550659">
<ele>692.046875</ele>
<time>2013-11-23T12:39:14Z</time>
<extensions>
<speed>0.0</speed>
<temp>0.00</temp>
<bpm>0</bpm>
<rpm>0.00</rpm>
</extensions>
</trkpt>
<trkpt lat="30.621633530" lon="34.817550659">
<ele>692.046875</ele>
<time>2013-11-23T12:39:19Z</time>
<speed>0.010000</speed>
<extensions>
<speed>0.0</speed>
<temp>0.00</temp>
<bpm>0</bpm>
<rpm>0.00</rpm>
</extensions>
</trkpt>
<trkpt lat="30.621631622" lon="34.817550659">
<ele>692.046875</ele>
<time>2013-11-23T12:39:24Z</time>
<speed>0.010000</speed>
<extensions>
<speed>0.0</speed>
<temp>0.00</temp>
<bpm>0</bpm>
<rpm>0.00</rpm>
</extensions>
</trkpt>
<trkpt lat="30.621631622" lon="34.817550659">
<ele>692.062500</ele>
<time>2013-11-23T12:39:29Z</time>
<speed>0.020000</speed>
<extensions>
<speed>0.0</speed>
<temp>0.00</temp>
<bpm>0</bpm>
<rpm>0.00</rpm>
</extensions>
</trkpt>
<trkpt lat="30.621631622" lon="34.817550659">
<ele>692.062500</ele>
<time>2013-11-23T12:39:34Z</time>
<speed>0.020000</speed>
<extensions>
<speed>0.0</speed>
<temp>0.00</temp>
<bpm>0</bpm>
<rpm>0.00</rpm>
</extensions>
</trkpt>
<trkpt lat="30.621631622" lon="34.817550659">
<ele>692.062500</ele>
<time>2013-11-23T12:39:39Z</time>
<speed>0.010000</speed>
<extensions>
<speed>0.0</speed>
<temp>0.00</temp>
<bpm>0</bpm>
<rpm>0.00</rpm>
</extensions>
</trkpt>
<trkpt lat="30.621631622" lon="34.817550659">
<ele>692.062500</ele>
<time>2013-11-23T12:39:44Z</time>
<speed>0.010000</speed>
<extensions>
<speed>0.0</speed>
<temp>0.00</temp>
<bpm>0</bpm>
<rpm>0.00</rpm>
</extensions>
</trkpt>
<trkpt lat="30.621631622" lon="34.817550659">
<ele>692.078125</ele>
<time>2013-11-23T12:39:49Z</time>
<speed>0.010000</speed>
<extensions>
<speed>0.0</speed>
<temp>0.00</temp>
<bpm>0</bpm>
<rpm>0.00</rpm>
</extensions>
</trkpt>
<trkpt lat="30.621631622" lon="34.817550659">
<ele>692.078125</ele>
<time>2013-11-23T12:39:54Z</time>
<speed>0.010000</speed>
<extensions>
<speed>0.0</speed>
<temp>0.00</temp>
<bpm>0</bpm>
<rpm>0.00</rpm>
</extensions>
</trkpt>
<trkpt lat="30.621631622" lon="34.817550659">
<ele>692.093750</ele>
<time>2013-11-23T12:39:59Z</time>
<speed>0.010000</speed>
<extensions>
<speed>0.0</speed>
<temp>0.00</temp>
<bpm>0</bpm>
<rpm>0.00</rpm>
</extensions>
</trkpt>
<trkpt lat="30.621631622" lon="34.817550659">
<ele>692.093750</ele>
<time>2013-11-23T12:40:04Z</time>
<speed>0.010000</speed>
<extensions>
<speed>0.0</speed>
<temp>0.00</temp>
<bpm>0</bpm>
<rpm>0.00</rpm>
</extensions>
</trkpt>
<trkpt lat="30.621631622" lon="34.817550659">
<ele>692.125000</ele>
<time>2013-11-23T12:40:09Z</time>
<speed>0.040000</speed>
<extensions>
<speed>0.0</speed>
<temp>0.00</temp>
<bpm>0</bpm>
<rpm>0.00</rpm>
</extensions>
</trkpt>
<trkpt lat="30.621631622" lon="34.817550659">
<ele>692.140625</ele>
<time>2013-11-23T12:40:14Z</time>
<extensions>
<speed>0.0</speed>
<temp>0.00</temp>
<bpm>0</bpm>
<rpm>0.00</rpm>
</extensions>
</trkpt>
<trkpt lat="30.621631622" lon="34.817550659">
<ele>692.171875</ele>
<time>2013-11-23T12:40:19Z</time>
<speed>0.010000</speed>
<extensions>
<speed>0.0</speed>
<temp>0.00</temp>
<bpm>0</bpm>
<rpm>0.00</rpm>
</extensions>
</trkpt>
<trkpt lat="30.621631622" lon="34.817550659">
<ele>692.187500</ele>
<time>2013-11-23T12:40:24Z</time>
<speed>0.010000</speed>
<extensions>
<speed>0.0</speed>
<temp>0.00</temp>
<bpm>0</bpm>
<rpm>0.00</rpm>
</extensions>
</trkpt>
<trkpt lat="30.621631622" lon="34.817550659">
<ele>692.234375</ele>
<time>2013-11-23T12:40:29Z</time>
<speed>0.010000</speed>
<extensions>
<speed>0.0</speed>
<temp>0.00</temp>
<bpm>0</bpm>
<rpm>0.00</rpm>
</extensions>
</trkpt>
<trkpt lat="30.621631622" lon="34.817550659">
<ele>692.265625</ele>
<time>2013-11-23T12:40:34Z</time>
<speed>0.010000</speed>
<extensions>
<speed>0.0</speed>
<temp>0.00</temp>
<bpm>0</bpm>
<rpm>0.00</rpm>
</extensions>
</trkpt>
<trkpt lat="30.621631622" lon="34.817550659">
<ele>692.281250</ele>
<time>2013-11-23T12:40:39Z</time>
<speed>0.010000</speed>
<extensions>
<speed>0.0</speed>
<temp>0.00</temp>
<bpm>0</bpm>
<rpm>0.00</rpm>
</extensions>
</trkpt>
<trkpt lat="30.621631622" lon="34.817550659">
<ele>692.312500</ele>
<time>2013-11-23T12:40:44Z</time>
<speed>0.010000</speed>
<extensions>
<speed>0.0</speed>
<temp>0.00</temp>
<bpm>0</bpm>
<rpm>0.00</rpm>
</extensions>
</trkpt>
<trkpt lat="30.621629715" lon="34.817550659">
<ele>692.343750</ele>
<time>2013-11-23T12:40:49Z</time>
<extensions>
<speed>0.0</speed>
<temp>0.00</temp>
<bpm>0</bpm>
<rpm>0.00</rpm>
</extensions>
</trkpt>
<trkpt lat="30.621629715" lon="34.817550659">
<ele>692.390625</ele>
<time>2013-11-23T12:40:54Z</time>
<speed>0.010000</speed>
<extensions>
<speed>0.0</speed>
<temp>0.00</temp>
<bpm>0</bpm>
<rpm>0.00</rpm>
</extensions>
</trkpt>
<trkpt lat="30.621629715" lon="34.817550659">
<ele>692.437500</ele>
<time>2013-11-23T12:40:59Z</time>
<speed>0.020000</speed>
<extensions>
<speed>0.0</speed>
<temp>0.00</temp>
<bpm>0</bpm>
<rpm>0.00</rpm>
</extensions>
</trkpt>
<trkpt lat="30.621629715" lon="34.817550659">
<ele>692.468750</ele>
<time>2013-11-23T12:41:04Z</time>
<speed>0.010000</speed>
<extensions>
<speed>0.0</speed>
<temp>0.00</temp>
<bpm>0</bpm>
<rpm>0.00</rpm>
</extensions>
</trkpt>
<trkpt lat="30.621629715" lon="34.817550659">
<ele>692.515625</ele>
<time>2013-11-23T12:41:09Z</time>
<speed>0.010000</speed>
<extensions>
<speed>0.0</speed>
<temp>0.00</temp>
<bpm>0</bpm>
<rpm>0.00</rpm>
</extensions>
</trkpt>
<trkpt lat="30.621629715" lon="34.817550659">
<ele>692.562500</ele>
<time>2013-11-23T12:41:14Z</time>
<speed>0.010000</speed>
<extensions>
<speed>0.0</speed>
<temp>0.00</temp>
<bpm>0</bpm>
<rpm>0.00</rpm>
</extensions>
</trkpt>
<trkpt lat="30.621629715" lon="34.817550659">
<ele>692.593750</ele>
<time>2013-11-23T12:41:19Z</time>
<speed>0.010000</speed>
<extensions>
<speed>0.0</speed>
<temp>0.00</temp>
<bpm>0</bpm>
<rpm>0.00</rpm>
</extensions>
</trkpt>
<trkpt lat="30.621629715" lon="34.817550659">
<ele>692.625000</ele>
<time>2013-11-23T12:41:24Z</time>
<speed>0.010000</speed>
<extensions>
<speed>0.0</speed>
<temp>0.00</temp>
<bpm>0</bpm>
<rpm>0.00</rpm>
</extensions>
</trkpt>
<trkpt lat="30.621629715" lon="34.817550659">
<ele>692.656250</ele>
<time>2013-11-23T12:41:29Z</time>
<speed>0.010000</speed>
<extensions>
<speed>0.0</speed>
<temp>0.00</temp>
<bpm>0</bpm>
<rpm>0.00</rpm>
</extensions>
</trkpt>
<trkpt lat="30.621629715" lon="34.817550659">
<ele>692.687500</ele>
<time>2013-11-23T12:41:34Z</time>
<extensions>
<speed>0.0</speed>
<temp>0.00</temp>
<bpm>0</bpm>
<rpm>0.00</rpm>
</extensions>
</trkpt>
<trkpt lat="30.621629715" lon="34.817550659">
<ele>692.718750</ele>
<time>2013-11-23T12:41:39Z</time>
<speed>0.010000</speed>
<extensions>
<speed>0.0</speed>
<temp>0.00</temp>
<bpm>0</bpm>
<rpm>0.00</rpm>
</extensions>
</trkpt>
<trkpt lat="30.621629715" lon="34.817550659">
<ele>692.765625</ele>
<time>2013-11-23T12:41:44Z</time>
<speed>0.020000</speed>
<extensions>
<speed>0.0</speed>
<temp>0.00</temp>
<bpm>0</bpm>
<rpm>0.00</rpm>
</extensions>
</trkpt>
<trkpt lat="30.621629715" lon="34.817550659">
<ele>692.781250</ele>
<time>2013-11-23T12:41:49Z</time>
<speed>0.010000</speed>
<extensions>
<speed>0.0</speed>
<temp>0.00</temp>
<bpm>0</bpm>
<rpm>0.00</rpm>
</extensions>
</trkpt>
<trkpt lat="30.621629715" lon="34.817550659">
<ele>692.812500</ele>
<time>2013-11-23T12:41:54Z</time>
<extensions>
<speed>0.0</speed>
<temp>0.00</temp>
<bpm>0</bpm>
<rpm>0.00</rpm>
</extensions>
</trkpt>
<trkpt lat="30.621629715" lon="34.817550659">
<ele>692.828125</ele>
<time>2013-11-23T12:41:59Z</time>
<speed>0.010000</speed>
<extensions>
<speed>0.0</speed>
<temp>0.00</temp>
<bpm>0</bpm>
<rpm>0.00</rpm>
</extensions>
</trkpt>
<trkpt lat="30.621629715" lon="34.817550659">
<ele>692.859375</ele>
<time>2013-11-23T12:42:04Z</time>
<speed>0.010000</speed>
<extensions>
<speed>0.0</speed>
<temp>0.00</temp>
<bpm>0</bpm>
<rpm>0.00</rpm>
</extensions>
</trkpt>
<trkpt lat="30.621629715" lon="34.817550659">
<ele>692.875000</ele>
<time>2013-11-23T12:42:09Z</time>
<speed>0.010000</speed>
<extensions>
<speed>0.0</speed>
<temp>0.00</temp>
<bpm>0</bpm>
<rpm>0.00</rpm>
</extensions>
</trkpt>
<trkpt lat="30.621629715" lon="34.817550659">
<ele>692.890625</ele>
<time>2013-11-23T12:42:14Z</time>
<speed>0.010000</speed>
<extensions>
<speed>0.0</speed>
<temp>0.00</temp>
<bpm>0</bpm>
<rpm>0.00</rpm>
</extensions>
</trkpt>
<trkpt lat="30.621629715" lon="34.817550659">
<ele>692.906250</ele>
<time>2013-11-23T12:42:19Z</time>
<speed>0.010000</speed>
<extensions>
<speed>0.0</speed>
<temp>0.00</temp>
<bpm>0</bpm>
<rpm>0.00</rpm>
</extensions>
</trkpt>
<trkpt lat="30.621629715" lon="34.817550659">
<ele>692.921875</ele>
<time>2013-11-23T12:42:24Z</time>
<speed>0.010000</speed>
<extensions>
<speed>0.0</speed>
<temp>0.00</temp>
<bpm>0</bpm>
<rpm>0.00</rpm>
</extensions>
</trkpt>
<trkpt lat="30.621629715" lon="34.817550659">
<ele>692.953125</ele>
<time>2013-11-23T12:42:29Z</time>
<speed>0.020000</speed>
<extensions>
<speed>0.0</speed>
<temp>0.00</temp>
<bpm>0</bpm>
<rpm>0.00</rpm>
</extensions>
</trkpt>
<trkpt lat="30.621629715" lon="34.817550659">
<ele>692.968750</ele>
<time>2013-11-23T12:42:34Z</time>
<speed>0.010000</speed>
<extensions>
<speed>0.0</speed>
<temp>0.00</temp>
<bpm>0</bpm>
<rpm>0.00</rpm>
</extensions>
</trkpt>
<trkpt lat="30.621629715" lon="34.817550659">
<ele>693.000000</ele>
<time>2013-11-23T12:42:39Z</time>
<speed>0.010000</speed>
<extensions>
<speed>0.0</speed>
<temp>0.00</temp>
<bpm>0</bpm>
<rpm>0.00</rpm>
</extensions>
</trkpt>
<trkpt lat="30.621629715" lon="34.817550659">
<ele>693.015625</ele>
<time>2013-11-23T12:42:44Z</time>
<speed>0.010000</speed>
<extensions>
<speed>0.0</speed>
<temp>0.00</temp>
<bpm>0</bpm>
<rpm>0.00</rpm>
</extensions>
</trkpt>
<trkpt lat="30.621629715" lon="34.817550659">
<ele>693.031250</ele>
<time>2013-11-23T12:42:49Z</time>
<extensions>
<speed>0.0</speed>
<temp>0.00</temp>
<bpm>0</bpm>
<rpm>0.00</rpm>
</extensions>
</trkpt>
<trkpt lat="30.621627808" lon="34.817550659">
<ele>693.046875</ele>
<time>2013-11-23T12:42:54Z</time>
<speed>0.010000</speed>
<extensions>
<speed>0.0</speed>
<temp>0.00</temp>
<bpm>0</bpm>
<rpm>0.00</rpm>
</extensions>
</trkpt>
<trkpt lat="30.621627808" lon="34.817550659">
<ele>693.062500</ele>
<time>2013-11-23T12:42:59Z</time>
<speed>0.010000</speed>
<extensions>
<speed>0.0</speed>
<temp>0.00</temp>
<bpm>0</bpm>
<rpm>0.00</rpm>
</extensions>
</trkpt>
<trkpt lat="30.621627808" lon="34.817550659">
<ele>693.078125</ele>
<time>2013-11-23T12:43:04Z</time>
<speed>0.010000</speed>
<extensions>
<speed>0.0</speed>
<temp>0.00</temp>
<bpm>0</bpm>
<rpm>0.00</rpm>
</extensions>
</trkpt>
<trkpt lat="30.621627808" lon="34.817550659">
<ele>693.093750</ele>
<time>2013-11-23T12:43:09Z</time>
<speed>0.010000</speed>
<extensions>
<speed>0.0</speed>
<temp>0.00</temp>
<bpm>0</bpm>
<rpm>0.00</rpm>
</extensions>
</trkpt>
<trkpt lat="30.621669769" lon="34.817565918">
<ele>693.781250</ele>
<time>2013-11-23T12:43:14Z</time>
<speed>1.580000</speed>
<extensions>
<speed>1.6</speed>
<temp>0.00</temp>
<bpm>0</bpm>
<rpm>0.00</rpm>
</extensions>
</trkpt>
<trkpt lat="30.621747971" lon="34.817592621">
<ele>694.875000</ele>
<time>2013-11-23T12:43:19Z</time>
<speed>1.660000</speed>
<extensions>
<speed>1.7</speed>
<temp>0.00</temp>
<bpm>0</bpm>
<rpm>0.00</rpm>
</extensions>
</trkpt>
<trkpt lat="30.621826172" lon="34.817623138">
<ele>695.656250</ele>
<time>2013-11-23T12:43:24Z</time>
<speed>1.790000</speed>
<extensions>
<speed>1.8</speed>
<temp>0.00</temp>
<bpm>0</bpm>
<rpm>0.00</rpm>
</extensions>
</trkpt>
<trkpt lat="30.621923447" lon="34.817653656">
<ele>696.609375</ele>
<time>2013-11-23T12:43:29Z</time>
<speed>2.160000</speed>
<extensions>
<speed>2.2</speed>
<temp>0.00</temp>
<bpm>0</bpm>
<rpm>0.00</rpm>
</extensions>
</trkpt>
<trkpt lat="30.622022629" lon="34.817680359">
<ele>697.453125</ele>
<time>2013-11-23T12:43:34Z</time>
<speed>2.190000</speed>
<extensions>
<speed>2.2</speed>
<temp>0.00</temp>
<bpm>0</bpm>
<rpm>0.00</rpm>
</extensions>
</trkpt>
<trkpt lat="30.622119904" lon="34.817710876">
<ele>698.296875</ele>
<time>2013-11-23T12:43:39Z</time>
<speed>2.200000</speed>
<extensions>
<speed>2.2</speed>
<temp>0.00</temp>
<bpm>0</bpm>
<rpm>0.00</rpm>
</extensions>
</trkpt>
<trkpt lat="30.622219086" lon="34.817737579">
<ele>699.109375</ele>
<time>2013-11-23T12:43:44Z</time>
<speed>2.200000</speed>
<extensions>
<speed>2.2</speed>
<temp>0.00</temp>
<bpm>0</bpm>
<rpm>0.00</rpm>
</extensions>
</trkpt>
<trkpt lat="30.622287750" lon="34.817752838">
<ele>699.984375</ele>
<time>2013-11-23T12:43:49Z</time>
<speed>0.870000</speed>
<extensions>
<speed>0.9</speed>
<temp>0.00</temp>
<bpm>0</bpm>
<rpm>0.00</rpm>
</extensions>
</trkpt>
<trkpt lat="30.622352600" lon="34.817783356">
<ele>700.484375</ele>
<time>2013-11-23T12:43:54Z</time>
<speed>1.670000</speed>
<extensions>
<speed>1.7</speed>
<temp>0.00</temp>
<bpm>0</bpm>
<rpm>0.00</rpm>
</extensions>
</trkpt>
<trkpt lat="30.622419357" lon="34.817794800">
<ele>700.171875</ele>
<time>2013-11-23T12:43:59Z</time>
<speed>1.520000</speed>
<extensions>
<speed>1.5</speed>
<temp>0.00</temp>
<bpm>0</bpm>
<rpm>0.00</rpm>
</extensions>
</trkpt>
<trkpt lat="30.622482300" lon="34.817821503">
<ele>701.156250</ele>
<time>2013-11-23T12:44:04Z</time>
<speed>1.480000</speed>
<extensions>
<speed>1.5</speed>
<temp>0.00</temp>
<bpm>0</bpm>
<rpm>0.00</rpm>
</extensions>
</trkpt>
<trkpt lat="30.622545242" lon="34.817844391">
<ele>702.046875</ele>
<time>2013-11-23T12:44:09Z</time>
<speed>1.440000</speed>
<extensions>
<speed>1.4</speed>
<temp>0.00</temp>
<bpm>0</bpm>
<rpm>0.00</rpm>
</extensions>
</trkpt>
<trkpt lat="30.622610092" lon="34.817863464">
<ele>703.187500</ele>
<time>2013-11-23T12:44:14Z</time>
<speed>1.450000</speed>
<extensions>
<speed>1.4</speed>
<temp>0.00</temp>
<bpm>0</bpm>
<rpm>0.00</rpm>
</extensions>
</trkpt>
<trkpt lat="30.622673035" lon="34.817882538">
<ele>703.750000</ele>
<time>2013-11-23T12:44:19Z</time>
<speed>1.440000</speed>
<extensions>
<speed>1.4</speed>
<temp>0.00</temp>
<bpm>0</bpm>
<rpm>0.00</rpm>
</extensions>
</trkpt>
<trkpt lat="30.622737885" lon="34.817897797">
<ele>704.000000</ele>
<time>2013-11-23T12:44:24Z</time>
<speed>1.460000</speed>
<extensions>
<speed>1.5</speed>
<temp>0.00</temp>
<bpm>0</bpm>
<rpm>0.00</rpm>
</extensions>
</trkpt>
<trkpt lat="30.622802734" lon="34.817924500">
<ele>705.062500</ele>
<time>2013-11-23T12:44:29Z</time>
<speed>1.490000</speed>
<extensions>
<speed>1.5</speed>
<temp>0.00</temp>
<bpm>0</bpm>
<rpm>0.00</rpm>
</extensions>
</trkpt>
<trkpt lat="30.622867584" lon="34.817943573">
<ele>706.062500</ele>
<time>2013-11-23T12:44:34Z</time>
<speed>1.480000</speed>
<extensions>
<speed>1.5</speed>
<temp>0.00</temp>
<bpm>0</bpm>
<rpm>0.00</rpm>
</extensions>
</trkpt>
<trkpt lat="30.622936249" lon="34.817974091">
<ele>707.093750</ele>
<time>2013-11-23T12:44:39Z</time>
<speed>1.680000</speed>
<extensions>
<speed>1.7</speed>
<temp>0.00</temp>
<bpm>0</bpm>
<rpm>0.00</rpm>
</extensions>
</trkpt>
<trkpt lat="30.623008728" lon="34.817996979">
<ele>708.156250</ele>
<time>2013-11-23T12:44:44Z</time>
<speed>1.580000</speed>
<extensions>
<speed>1.6</speed>
<temp>0.00</temp>
<bpm>0</bpm>
<rpm>0.00</rpm>
</extensions>
</trkpt>
<trkpt lat="30.623075485" lon="34.818023682">
<ele>709.234375</ele>
<time>2013-11-23T12:44:49Z</time>
<speed>1.500000</speed>
<extensions>
<speed>1.5</speed>
<temp>0.00</temp>
<bpm>0</bpm>
<rpm>0.00</rpm>
</extensions>
</trkpt>
<trkpt lat="30.623144150" lon="34.818050385">
<ele>710.265625</ele>
<time>2013-11-23T12:44:54Z</time>
<speed>1.630000</speed>
<extensions>
<speed>1.6</speed>
<temp>0.00</temp>
<bpm>0</bpm>
<rpm>0.00</rpm>
</extensions>
</trkpt>
<trkpt lat="30.623209000" lon="34.818077087">
<ele>711.468750</ele>
<time>2013-11-23T12:44:59Z</time>
<speed>1.620000</speed>
<extensions>
<speed>1.6</speed>
<temp>0.00</temp>
<bpm>0</bpm>
<rpm>0.00</rpm>
</extensions>
</trkpt>
<trkpt lat="30.623283386" lon="34.818111420">
<ele>712.500000</ele>
<time>2013-11-23T12:45:04Z</time>
<speed>1.550000</speed>
<extensions>
<speed>1.5</speed>
<temp>0.00</temp>
<bpm>0</bpm>
<rpm>0.00</rpm>
</extensions>
</trkpt>
<trkpt lat="30.623397827" lon="34.818138123">
<ele>713.687500</ele>
<time>2013-11-23T12:45:09Z</time>
<speed>3.290000</speed>
<extensions>
<speed>3.3</speed>
<temp>0.00</temp>
<bpm>0</bpm>
<rpm>0.00</rpm>
</extensions>
</trkpt>
<trkpt lat="30.623533249" lon="34.818130493">
<ele>714.484375</ele>
<time>2013-11-23T12:45:14Z</time>
<speed>1.630000</speed>
<extensions>
<speed>1.6</speed>
<temp>0.00</temp>
<bpm>0</bpm>
<rpm>0.00</rpm>
</extensions>
</trkpt>
<trkpt lat="30.623579025" lon="34.818061829">
<ele>713.234375</ele>
<time>2013-11-23T12:45:19Z</time>
<speed>2.170000</speed>
<extensions>
<speed>2.2</speed>
<temp>0.00</temp>
<bpm>0</bpm>
<rpm>0.00</rpm>
</extensions>
</trkpt>
<trkpt lat="30.623611450" lon="34.817951202">
<ele>712.609375</ele>
<time>2013-11-23T12:45:24Z</time>
<speed>1.990000</speed>
<extensions>
<speed>2.0</speed>
<temp>0.00</temp>
<bpm>0</bpm>
<rpm>0.00</rpm>
</extensions>
</trkpt>
<trkpt lat="30.623588562" lon="34.817832947">
<ele>712.437500</ele>
<time>2013-11-23T12:45:29Z</time>
<speed>2.100000</speed>
<extensions>
<speed>2.1</speed>
<temp>0.00</temp>
<bpm>0</bpm>
<rpm>0.00</rpm>
</extensions>
</trkpt>
<trkpt lat="30.623514175" lon="34.817714691">
<ele>712.609375</ele>
<time>2013-11-23T12:45:34Z</time>
<speed>2.760000</speed>
<extensions>
<speed>2.8</speed>
<temp>0.00</temp>
<bpm>0</bpm>
<rpm>0.00</rpm>
</extensions>
</trkpt>
<trkpt lat="30.623437881" lon="34.817649841">
<ele>708.546875</ele>
<time>2013-11-23T12:45:39Z</time>
<speed>1.110000</speed>
<extensions>
<speed>1.1</speed>
<temp>0.00</temp>
<bpm>0</bpm>
<rpm>0.00</rpm>
</extensions>
</trkpt>
<trkpt lat="30.623344421" lon="34.817592621">
<ele>706.359375</ele>
<time>2013-11-23T12:45:44Z</time>
<speed>2.500000</speed>
<extensions>
<speed>2.5</speed>
<temp>0.00</temp>
<bpm>0</bpm>
<rpm>0.00</rpm>
</extensions>
</trkpt>
<trkpt lat="30.623245239" lon="34.817543030">
<ele>707.765625</ele>
<time>2013-11-23T12:45:49Z</time>
<speed>2.210000</speed>
<extensions>
<speed>2.2</speed>
<temp>0.00</temp>
<bpm>0</bpm>
<rpm>0.00</rpm>
</extensions>
</trkpt>
<trkpt lat="30.623138428" lon="34.817497253">
<ele>707.609375</ele>
<time>2013-11-23T12:45:54Z</time>
<speed>2.130000</speed>
<extensions>
<speed>2.1</speed>
<temp>0.00</temp>
<bpm>0</bpm>
<rpm>0.00</rpm>
</extensions>
</trkpt>
<trkpt lat="30.623088837" lon="34.817462921">
<ele>707.546875</ele>
<time>2013-11-23T12:45:59Z</time>
<speed>0.780000</speed>
<extensions>
<speed>0.8</speed>
<temp>0.00</temp>
<bpm>0</bpm>
<rpm>0.00</rpm>
</extensions>
</trkpt>
<trkpt lat="30.623027802" lon="34.817451477">
<ele>708.328125</ele>
<time>2013-11-23T12:46:04Z</time>
<speed>1.600000</speed>
<extensions>
<speed>1.6</speed>
<temp>0.00</temp>
<bpm>0</bpm>
<rpm>0.00</rpm>
</extensions>
</trkpt>
<trkpt lat="30.622964859" lon="34.817420959">
<ele>708.812500</ele>
<time>2013-11-23T12:46:09Z</time>
<speed>1.330000</speed>
<extensions>
<speed>1.3</speed>
<temp>0.00</temp>
<bpm>0</bpm>
<rpm>0.00</rpm>
</extensions>
</trkpt>
<trkpt lat="30.622894287" lon="34.817390442">
<ele>709.859375</ele>
<time>2013-11-23T12:46:14Z</time>
<speed>1.600000</speed>
<extensions>
<speed>1.6</speed>
<temp>0.00</temp>
<bpm>0</bpm>
<rpm>0.00</rpm>
</extensions>
</trkpt>
<trkpt lat="30.622817993" lon="34.817367554">
<ele>709.953125</ele>
<time>2013-11-23T12:46:19Z</time>
<speed>1.510000</speed>
<extensions>
<speed>1.5</speed>
<temp>0.00</temp>
<bpm>0</bpm>
<rpm>0.00</rpm>
</extensions>
</trkpt>
<trkpt lat="30.622749329" lon="34.817340851">
<ele>710.828125</ele>
<time>2013-11-23T12:46:24Z</time>
<speed>1.590000</speed>
<extensions>
<speed>1.6</speed>
<temp>0.00</temp>
<bpm>0</bpm>
<rpm>0.00</rpm>
</extensions>
</trkpt>
<trkpt lat="30.622684479" lon="34.817306519">
<ele>710.531250</ele>
<time>2013-11-23T12:46:29Z</time>
<speed>0.950000</speed>
<extensions>
<speed>1.0</speed>
<temp>0.00</temp>
<bpm>0</bpm>
<rpm>0.00</rpm>
</extensions>
</trkpt>
<trkpt lat="30.622627258" lon="34.817276001">
<ele>711.531250</ele>
<time>2013-11-23T12:46:34Z</time>
<speed>1.810000</speed>
<extensions>
<speed>1.8</speed>
<temp>0.00</temp>
<bpm>0</bpm>
<rpm>0.00</rpm>
</extensions>
</trkpt>
<trkpt lat="30.622564316" lon="34.817241669">
<ele>711.921875</ele>
<time>2013-11-23T12:46:39Z</time>
<speed>1.690000</speed>
<extensions>
<speed>1.7</speed>
<temp>0.00</temp>
<bpm>0</bpm>
<rpm>0.00</rpm>
</extensions>
</trkpt>
<trkpt lat="30.622486115" lon="34.817211151">
<ele>713.515625</ele>
<time>2013-11-23T12:46:44Z</time>
<speed>1.500000</speed>
<extensions>
<speed>1.5</speed>
<temp>0.00</temp>
<bpm>0</bpm>
<rpm>0.00</rpm>
</extensions>
</trkpt>
<trkpt lat="30.622417450" lon="34.817180634">
<ele>715.406250</ele>
<time>2013-11-23T12:46:49Z</time>
<speed>1.570000</speed>
<extensions>
<speed>1.6</speed>
<temp>0.00</temp>
<bpm>0</bpm>
<rpm>0.00</rpm>
</extensions>
</trkpt>
<trkpt lat="30.622354507" lon="34.817146301">
<ele>716.062500</ele>
<time>2013-11-23T12:46:54Z</time>
<speed>1.580000</speed>
<extensions>
<speed>1.6</speed>
<temp>0.00</temp>
<bpm>0</bpm>
<rpm>0.00</rpm>
</extensions>
</trkpt>
<trkpt lat="30.622282028" lon="34.817127228">
<ele>718.031250</ele>
<time>2013-11-23T12:46:59Z</time>
<speed>1.530000</speed>
<extensions>
<speed>1.5</speed>
<temp>0.00</temp>
<bpm>0</bpm>
<rpm>0.00</rpm>
</extensions>
</trkpt>
<trkpt lat="30.622220993" lon="34.817096710">
<ele>718.093750</ele>
<time>2013-11-23T12:47:04Z</time>
<speed>1.280000</speed>
<extensions>
<speed>1.3</speed>
<temp>0.00</temp>
<bpm>0</bpm>
<rpm>0.00</rpm>
</extensions>
</trkpt>
<trkpt lat="30.622156143" lon="34.817066193">
<ele>719.390625</ele>
<time>2013-11-23T12:47:09Z</time>
<speed>1.140000</speed>
<extensions>
<speed>1.1</speed>
<temp>0.00</temp>
<bpm>0</bpm>
<rpm>0.00</rpm>
</extensions>
</trkpt>
<trkpt lat="30.622097015" lon="34.817028046">
<ele>720.718750</ele>
<time>2013-11-23T12:47:14Z</time>
<speed>1.540000</speed>
<extensions>
<speed>1.5</speed>
<temp>0.00</temp>
<bpm>0</bpm>
<rpm>0.00</rpm>
</extensions>
</trkpt>
<trkpt lat="30.622043610" lon="34.816982269">
<ele>721.828125</ele>
<time>2013-11-23T12:47:19Z</time>
<speed>1.380000</speed>
<extensions>
<speed>1.4</speed>
<temp>0.00</temp>
<bpm>0</bpm>
<rpm>0.00</rpm>
</extensions>
</trkpt>
<trkpt lat="30.621994019" lon="34.816944122">
<ele>722.593750</ele>
<time>2013-11-23T12:47:24Z</time>
<speed>1.670000</speed>
<extensions>
<speed>1.7</speed>
<temp>0.00</temp>
<bpm>0</bpm>
<rpm>0.00</rpm>
</extensions>
</trkpt>
<trkpt lat="30.621946335" lon="34.816886902">
<ele>722.796875</ele>
<time>2013-11-23T12:47:29Z</time>
<speed>1.730000</speed>
<extensions>
<speed>1.7</speed>
<temp>0.00</temp>
<bpm>0</bpm>
<rpm>0.00</rpm>
</extensions>
</trkpt>
<trkpt lat="30.621891022" lon="34.816810608">
<ele>723.328125</ele>
<time>2013-11-23T12:47:34Z</time>
<speed>2.380000</speed>
<extensions>
<speed>2.4</speed>
<temp>0.00</temp>
<bpm>0</bpm>
<rpm>0.00</rpm>
</extensions>
</trkpt>
<trkpt lat="30.621822357" lon="34.816692352">
<ele>724.234375</ele>
<time>2013-11-23T12:47:39Z</time>
<speed>2.760000</speed>
<extensions>
<speed>2.8</speed>
<temp>0.00</temp>
<bpm>0</bpm>
<rpm>0.00</rpm>
</extensions>
</trkpt>
<trkpt lat="30.621782303" lon="34.816619873">
<ele>724.500000</ele>
<time>2013-11-23T12:47:44Z</time>
<speed>1.500000</speed>
<extensions>
<speed>1.5</speed>
<temp>0.00</temp>
<bpm>0</bpm>
<rpm>0.00</rpm>
</extensions>
</trkpt>
<trkpt lat="30.621723175" lon="34.816520691">
<ele>724.656250</ele>
<time>2013-11-23T12:47:49Z</time>
<speed>2.930000</speed>
<extensions>
<speed>2.9</speed>
<temp>0.00</temp>
<bpm>0</bpm>
<rpm>0.00</rpm>
</extensions>
</trkpt>
<trkpt lat="30.621658325" lon="34.816406250">
<ele>725.109375</ele>
<time>2013-11-23T12:47:54Z</time>
<speed>1.470000</speed>
<extensions>
<speed>1.5</speed>
<temp>0.00</temp>
<bpm>0</bpm>
<rpm>0.00</rpm>
</extensions>
</trkpt>
<trkpt lat="30.621622086" lon="34.816329956">
<ele>725.015625</ele>
<time>2013-11-23T12:47:59Z</time>
<speed>2.580000</speed>
<extensions>
<speed>2.6</speed>
<temp>0.00</temp>
<bpm>0</bpm>
<rpm>0.00</rpm>
</extensions>
</trkpt>
<trkpt lat="30.621559143" lon="34.816219330">
<ele>725.328125</ele>
<time>2013-11-23T12:48:04Z</time>
<speed>1.790000</speed>
<extensions>
<speed>1.8</speed>
<temp>0.00</temp>
<bpm>0</bpm>
<rpm>0.00</rpm>
</extensions>
</trkpt>
<trkpt lat="30.621513367" lon="34.816162109">
<ele>725.359375</ele>
<time>2013-11-23T12:48:09Z</time>
<speed>1.520000</speed>
<extensions>
<speed>1.5</speed>
<temp>0.00</temp>
<bpm>0</bpm>
<rpm>0.00</rpm>
</extensions>
</trkpt>
<trkpt lat="30.621484756" lon="34.816116333">
<ele>725.265625</ele>
<time>2013-11-23T12:48:14Z</time>
<speed>2.290000</speed>
<extensions>
<speed>2.3</speed>
<temp>0.00</temp>
<bpm>0</bpm>
<rpm>0.00</rpm>
</extensions>
</trkpt>
<trkpt lat="30.621410370" lon="34.816032410">
<ele>724.781250</ele>
<time>2013-11-23T12:48:19Z</time>
<speed>1.830000</speed>
<extensions>
<speed>1.8</speed>
<temp>0.00</temp>
<bpm>0</bpm>
<rpm>0.00</rpm>
</extensions>
</trkpt>
<trkpt lat="30.621343613" lon="34.815979004">
<ele>725.171875</ele>
<time>2013-11-23T12:48:24Z</time>
<speed>2.370000</speed>
<extensions>
<speed>2.4</speed>
<temp>0.00</temp>
<bpm>0</bpm>
<rpm>0.00</rpm>
</extensions>
</trkpt>
<trkpt lat="30.621261597" lon="34.815914154">
<ele>726.109375</ele>
<time>2013-11-23T12:48:29Z</time>
<speed>2.000000</speed>
<extensions>
<speed>2.0</speed>
<temp>0.00</temp>
<bpm>0</bpm>
<rpm>0.00</rpm>
</extensions>
</trkpt>
<trkpt lat="30.621177673" lon="34.815811157">
<ele>724.734375</ele>
<time>2013-11-23T12:48:34Z</time>
<speed>2.440000</speed>
<extensions>
<speed>2.4</speed>
<temp>0.00</temp>
<bpm>0</bpm>
<rpm>0.00</rpm>
</extensions>
</trkpt>
<trkpt lat="30.621105194" lon="34.815719604">
<ele>724.015625</ele>
<time>2013-11-23T12:48:39Z</time>
<speed>2.140000</speed>
<extensions>
<speed>2.1</speed>
<temp>0.00</temp>
<bpm>0</bpm>
<rpm>0.00</rpm>
</extensions>
</trkpt>
<trkpt lat="30.621009827" lon="34.815650940">
<ele>724.531250</ele>
<time>2013-11-23T12:48:44Z</time>
<speed>2.460000</speed>
<extensions>
<speed>2.5</speed>
<temp>0.00</temp>
<bpm>0</bpm>
<rpm>0.00</rpm>
</extensions>
</trkpt>
<trkpt lat="30.620916367" lon="34.815574646">
<ele>724.921875</ele>
<time>2013-11-23T12:48:49Z</time>
<speed>1.630000</speed>
<extensions>
<speed>1.6</speed>
<temp>0.00</temp>
<bpm>0</bpm>
<rpm>0.00</rpm>
</extensions>
</trkpt>
<trkpt lat="30.620826721" lon="34.815505981">
<ele>724.281250</ele>
<time>2013-11-23T12:48:54Z</time>
<speed>2.550000</speed>
<extensions>
<speed>2.6</speed>
<temp>0.00</temp>
<bpm>0</bpm>
<rpm>0.00</rpm>
</extensions>
</trkpt>
<trkpt lat="30.620756149" lon="34.815433502">
<ele>721.890625</ele>
<time>2013-11-23T12:48:59Z</time>
<speed>2.710000</speed>
<extensions>
<speed>2.7</speed>
<temp>0.00</temp>
<bpm>0</bpm>
<rpm>0.00</rpm>
</extensions>
</trkpt>
<trkpt lat="30.620689392" lon="34.815361023">
<ele>720.078125</ele>
<time>2013-11-23T12:49:04Z</time>
<speed>1.180000</speed>
<extensions>
<speed>1.2</speed>
<temp>0.00</temp>
<bpm>0</bpm>
<rpm>0.00</rpm>
</extensions>
</trkpt>
<trkpt lat="30.620611191" lon="34.815303802">
<ele>719.828125</ele>
<time>2013-11-23T12:49:09Z</time>
<speed>2.290000</speed>
<extensions>
<speed>2.3</speed>
<temp>0.00</temp>
<bpm>0</bpm>
<rpm>0.00</rpm>
</extensions>
</trkpt>
<trkpt lat="30.620519638" lon="34.815238953">
<ele>718.828125</ele>
<time>2013-11-23T12:49:14Z</time>
<speed>1.500000</speed>
<extensions>
<speed>1.5</speed>
<temp>0.00</temp>
<bpm>0</bpm>
<rpm>0.00</rpm>
</extensions>
</trkpt>
<trkpt lat="30.620420456" lon="34.815189362">
<ele>718.859375</ele>
<time>2013-11-23T12:49:19Z</time>
<speed>2.540000</speed>
<extensions>
<speed>2.5</speed>
<temp>0.00</temp>
<bpm>0</bpm>
<rpm>0.00</rpm>
</extensions>
</trkpt>
<trkpt lat="30.620346069" lon="34.815128326">
<ele>717.062500</ele>
<time>2013-11-23T12:49:24Z</time>
<speed>1.490000</speed>
<extensions>
<speed>1.5</speed>
<temp>0.00</temp>
<bpm>0</bpm>
<rpm>0.00</rpm>
</extensions>
</trkpt>
<trkpt lat="30.620220184" lon="34.815093994">
<ele>719.484375</ele>
<time>2013-11-23T12:49:29Z</time>
<speed>2.440000</speed>
<extensions>
<speed>2.4</speed>
<temp>0.00</temp>
<bpm>0</bpm>
<rpm>0.00</rpm>
</extensions>
</trkpt>
<trkpt lat="30.620082855" lon="34.815052032">
<ele>721.828125</ele>
<time>2013-11-23T12:49:34Z</time>
<speed>2.900000</speed>
<extensions>
<speed>2.9</speed>
<temp>0.00</temp>
<bpm>0</bpm>
<rpm>0.00</rpm>
</extensions>
</trkpt>
<trkpt lat="30.619932175" lon="34.814975739">
<ele>723.359375</ele>
<time>2013-11-23T12:49:39Z</time>
<speed>3.090000</speed>
<extensions>
<speed>3.1</speed>
<temp>0.00</temp>
<bpm>0</bpm>
<rpm>0.00</rpm>
</extensions>
</trkpt>
<trkpt lat="30.619829178" lon="34.814907074">
<ele>724.640625</ele>
<time>2013-11-23T12:49:44Z</time>
<speed>2.180000</speed>
<extensions>
<speed>2.2</speed>
<temp>0.00</temp>
<bpm>0</bpm>
<rpm>0.00</rpm>
</extensions>
</trkpt>
<trkpt lat="30.619741440" lon="34.814807892">
<ele>726.234375</ele>
<time>2013-11-23T12:49:49Z</time>
<speed>2.970000</speed>
<extensions>
<speed>3.0</speed>
<temp>0.00</temp>
<bpm>0</bpm>
<rpm>0.00</rpm>
</extensions>
</trkpt>
<trkpt lat="30.619655609" lon="34.814674377">
<ele>726.671875</ele>
<time>2013-11-23T12:49:54Z</time>
<speed>2.690000</speed>
<extensions>
<speed>2.7</speed>
<temp>0.00</temp>
<bpm>0</bpm>
<rpm>0.00</rpm>
</extensions>
</trkpt>
<trkpt lat="30.619632721" lon="34.814598083">
<ele>726.109375</ele>
<time>2013-11-23T12:49:59Z</time>
<speed>1.140000</speed>
<extensions>
<speed>1.1</speed>
<temp>0.00</temp>
<bpm>0</bpm>
<rpm>0.00</rpm>
</extensions>
</trkpt>
<trkpt lat="30.619606018" lon="34.814537048">
<ele>726.515625</ele>
<time>2013-11-23T12:50:04Z</time>
<speed>1.590000</speed>
<extensions>
<speed>1.6</speed>
<temp>0.00</temp>
<bpm>0</bpm>
<rpm>0.00</rpm>
</extensions>
</trkpt>
<trkpt lat="30.619558334" lon="34.814437866">
<ele>728.468750</ele>
<time>2013-11-23T12:50:09Z</time>
<speed>2.990000</speed>
<extensions>
<speed>3.0</speed>
<temp>0.00</temp>
<bpm>0</bpm>
<rpm>0.00</rpm>
</extensions>
</trkpt>
<trkpt lat="30.619506836" lon="34.814311981">
<ele>729.812500</ele>
<time>2013-11-23T12:50:14Z</time>
<speed>1.590000</speed>
<extensions>
<speed>1.6</speed>
<temp>0.00</temp>
<bpm>0</bpm>
<rpm>0.00</rpm>
</extensions>
</trkpt>
<trkpt lat="30.619476318" lon="34.814266205">
<ele>730.734375</ele>
<time>2013-11-23T12:50:19Z</time>
<speed>1.740000</speed>
<extensions>
<speed>1.7</speed>
<temp>0.00</temp>
<bpm>0</bpm>
<rpm>0.00</rpm>
</extensions>
</trkpt>
<trkpt lat="30.619422913" lon="34.814151764">
<ele>732.250000</ele>
<time>2013-11-23T12:50:24Z</time>
<speed>3.020000</speed>
<extensions>
<speed>3.0</speed>
<temp>0.00</temp>
<bpm>0</bpm>
<rpm>0.00</rpm>
</extensions>
</trkpt>
<trkpt lat="30.619377136" lon="34.814056396">
<ele>733.218750</ele>
<time>2013-11-23T12:50:29Z</time>
<speed>0.800000</speed>
<extensions>
<speed>0.8</speed>
<temp>0.00</temp>
<bpm>0</bpm>
<rpm>0.00</rpm>
</extensions>
</trkpt>
<trkpt lat="30.619338989" lon="34.813968658">
<ele>734.312500</ele>
<time>2013-11-23T12:50:34Z</time>
<speed>2.700000</speed>
<extensions>
<speed>2.7</speed>
<temp>0.00</temp>
<bpm>0</bpm>
<rpm>0.00</rpm>
</extensions>
</trkpt>
<trkpt lat="30.619285583" lon="34.813804626">
<ele>735.390625</ele>
<time>2013-11-23T12:50:39Z</time>
<speed>3.290000</speed>
<extensions>
<speed>3.3</speed>
<temp>0.00</temp>
<bpm>0</bpm>
<rpm>0.00</rpm>
</extensions>
</trkpt>
<trkpt lat="30.619249344" lon="34.813716888">
<ele>735.828125</ele>
<time>2013-11-23T12:50:44Z</time>
<speed>1.000000</speed>
<extensions>
<speed>1.0</speed>
<temp>0.00</temp>
<bpm>0</bpm>
<rpm>0.00</rpm>
</extensions>
</trkpt>
<trkpt lat="30.619215012" lon="34.813648224">
<ele>736.359375</ele>
<time>2013-11-23T12:50:49Z</time>
<speed>2.210000</speed>
<extensions>
<speed>2.2</speed>
<temp>0.00</temp>
<bpm>0</bpm>
<rpm>0.00</rpm>
</extensions>
</trkpt>
<trkpt lat="30.619171143" lon="34.813545227">
<ele>737.265625</ele>
<time>2013-11-23T12:50:54Z</time>
<speed>2.070000</speed>
<extensions>
<speed>2.1</speed>
<temp>0.00</temp>
<bpm>0</bpm>
<rpm>0.00</rpm>
</extensions>
</trkpt>
<trkpt lat="30.619134903" lon="34.813449860">
<ele>738.062500</ele>
<time>2013-11-23T12:50:59Z</time>
<speed>2.040000</speed>
<extensions>
<speed>2.0</speed>
<temp>0.00</temp>
<bpm>0</bpm>
<rpm>0.00</rpm>
</extensions>
</trkpt>
<trkpt lat="30.619108200" lon="34.813407898">
<ele>738.515625</ele>
<time>2013-11-23T12:51:04Z</time>
<speed>0.020000</speed>
<extensions>
<speed>0.0</speed>
<temp>0.00</temp>
<bpm>0</bpm>
<rpm>0.00</rpm>
</extensions>
</trkpt>
<trkpt lat="30.619108200" lon="34.813407898">
<ele>738.984375</ele>
<time>2013-11-23T12:51:09Z</time>
<speed>0.290000</speed>
<extensions>
<speed>0.3</speed>
<temp>0.00</temp>
<bpm>0</bpm>
<rpm>0.00</rpm>
</extensions>
</trkpt>
<trkpt lat="30.619127274" lon="34.813404083">
<ele>739.203125</ele>
<time>2013-11-23T12:51:14Z</time>
<speed>0.010000</speed>
<extensions>
<speed>0.0</speed>
<temp>0.00</temp>
<bpm>0</bpm>
<rpm>0.00</rpm>
</extensions>
</trkpt>
<trkpt lat="30.619129181" lon="34.813404083">
<ele>739.031250</ele>
<time>2013-11-23T12:51:19Z</time>
<speed>0.010000</speed>
<extensions>
<speed>0.0</speed>
<temp>0.00</temp>
<bpm>0</bpm>
<rpm>0.00</rpm>
</extensions>
</trkpt>
<trkpt lat="30.619129181" lon="34.813407898">
<ele>738.921875</ele>
<time>2013-11-23T12:51:24Z</time>
<extensions>
<speed>0.0</speed>
<temp>0.00</temp>
<bpm>0</bpm>
<rpm>0.00</rpm>
</extensions>
</trkpt>
<trkpt lat="30.619129181" lon="34.813407898">
<ele>738.921875</ele>
<time>2013-11-23T12:51:29Z</time>
<extensions>
<speed>0.0</speed>
<temp>0.00</temp>
<bpm>0</bpm>
<rpm>0.00</rpm>
</extensions>
</trkpt>
<trkpt lat="30.619131088" lon="34.813407898">
<ele>738.921875</ele>
<time>2013-11-23T12:51:34Z</time>
<extensions>
<speed>0.0</speed>
<temp>0.00</temp>
<bpm>0</bpm>
<rpm>0.00</rpm>
</extensions>
</trkpt>
<trkpt lat="30.619131088" lon="34.813407898">
<ele>738.906250</ele>
<time>2013-11-23T12:51:39Z</time>
<speed>0.010000</speed>
<extensions>
<speed>0.0</speed>
<temp>0.00</temp>
<bpm>0</bpm>
<rpm>0.00</rpm>
</extensions>
</trkpt>
<trkpt lat="30.619131088" lon="34.813407898">
<ele>738.906250</ele>
<time>2013-11-23T12:51:44Z</time>
<speed>0.010000</speed>
<extensions>
<speed>0.0</speed>
<temp>0.00</temp>
<bpm>0</bpm>
<rpm>0.00</rpm>
</extensions>
</trkpt>
<trkpt lat="30.619131088" lon="34.813388824">
<ele>739.906250</ele>
<time>2013-11-23T12:51:49Z</time>
<speed>0.350000</speed>
<extensions>
<speed>0.3</speed>
<temp>0.00</temp>
<bpm>0</bpm>
<rpm>0.00</rpm>
</extensions>
</trkpt>
<trkpt lat="30.619102478" lon="34.813373566">
<ele>741.343750</ele>
<time>2013-11-23T12:51:54Z</time>
<speed>0.400000</speed>
<extensions>
<speed>0.4</speed>
<temp>0.00</temp>
<bpm>0</bpm>
<rpm>0.00</rpm>
</extensions>
</trkpt>
<trkpt lat="30.619096756" lon="34.813373566">
<ele>742.031250</ele>
<time>2013-11-23T12:51:59Z</time>
<speed>0.010000</speed>
<extensions>
<speed>0.0</speed>
<temp>0.00</temp>
<bpm>0</bpm>
<rpm>0.00</rpm>
</extensions>
</trkpt>
<trkpt lat="30.619096756" lon="34.813373566">
<ele>742.156250</ele>
<time>2013-11-23T12:52:04Z</time>
<speed>0.980000</speed>
<extensions>
<speed>1.0</speed>
<temp>0.00</temp>
<bpm>0</bpm>
<rpm>0.00</rpm>
</extensions>
</trkpt>
<trkpt lat="30.619060516" lon="34.813289642">
<ele>742.484375</ele>
<time>2013-11-23T12:52:09Z</time>
<speed>2.040000</speed>
<extensions>
<speed>2.0</speed>
<temp>0.00</temp>
<bpm>0</bpm>
<rpm>0.00</rpm>
</extensions>
</trkpt>
<trkpt lat="30.619035721" lon="34.813209534">
<ele>742.625000</ele>
<time>2013-11-23T12:52:14Z</time>
<speed>1.560000</speed>
<extensions>
<speed>1.6</speed>
<temp>0.00</temp>
<bpm>0</bpm>
<rpm>0.00</rpm>
</extensions>
</trkpt>
<trkpt lat="30.619009018" lon="34.813129425">
<ele>742.328125</ele>
<time>2013-11-23T12:52:19Z</time>
<speed>1.210000</speed>
<extensions>
<speed>1.2</speed>
<temp>0.00</temp>
<bpm>0</bpm>
<rpm>0.00</rpm>
</extensions>
</trkpt>
<trkpt lat="30.618978500" lon="34.813060760">
<ele>742.734375</ele>
<time>2013-11-23T12:52:24Z</time>
<speed>1.410000</speed>
<extensions>
<speed>1.4</speed>
<temp>0.00</temp>
<bpm>0</bpm>
<rpm>0.00</rpm>
</extensions>
</trkpt>
<trkpt lat="30.618944168" lon="34.812995911">
<ele>743.203125</ele>
<time>2013-11-23T12:52:29Z</time>
<speed>1.390000</speed>
<extensions>
<speed>1.4</speed>
<temp>0.00</temp>
<bpm>0</bpm>
<rpm>0.00</rpm>
</extensions>
</trkpt>
<trkpt lat="30.618925095" lon="34.812942505">
<ele>744.093750</ele>
<time>2013-11-23T12:52:34Z</time>
<speed>1.570000</speed>
<extensions>
<speed>1.6</speed>
<temp>0.00</temp>
<bpm>0</bpm>
<rpm>0.00</rpm>
</extensions>
</trkpt>
<trkpt lat="30.618898392" lon="34.812877655">
<ele>744.203125</ele>
<time>2013-11-23T12:52:39Z</time>
<speed>1.150000</speed>
<extensions>
<speed>1.1</speed>
<temp>0.00</temp>
<bpm>0</bpm>
<rpm>0.00</rpm>
</extensions>
</trkpt>
<trkpt lat="30.618873596" lon="34.812812805">
<ele>744.765625</ele>
<time>2013-11-23T12:52:44Z</time>
<speed>1.500000</speed>
<extensions>
<speed>1.5</speed>
<temp>0.00</temp>
<bpm>0</bpm>
<rpm>0.00</rpm>
</extensions>
</trkpt>
<trkpt lat="30.618841171" lon="34.812744141">
<ele>745.500000</ele>
<time>2013-11-23T12:52:49Z</time>
<speed>1.540000</speed>
<extensions>
<speed>1.5</speed>
<temp>0.00</temp>
<bpm>0</bpm>
<rpm>0.00</rpm>
</extensions>
</trkpt>
<trkpt lat="30.618820190" lon="34.812679291">
<ele>745.781250</ele>
<time>2013-11-23T12:52:54Z</time>
<speed>1.510000</speed>
<extensions>
<speed>1.5</speed>
<temp>0.00</temp>
<bpm>0</bpm>
<rpm>0.00</rpm>
</extensions>
</trkpt>
<trkpt lat="30.618789673" lon="34.812614441">
<ele>746.500000</ele>
<time>2013-11-23T12:52:59Z</time>
<speed>1.310000</speed>
<extensions>
<speed>1.3</speed>
<temp>0.00</temp>
<bpm>0</bpm>
<rpm>0.00</rpm>
</extensions>
</trkpt>
<trkpt lat="30.618762970" lon="34.812553406">
<ele>747.625000</ele>
<time>2013-11-23T12:53:04Z</time>
<speed>1.410000</speed>
<extensions>
<speed>1.4</speed>
<temp>0.00</temp>
<bpm>0</bpm>
<rpm>0.00</rpm>
</extensions>
</trkpt>
<trkpt lat="30.618741989" lon="34.812500000">
<ele>748.156250</ele>
<time>2013-11-23T12:53:09Z</time>
<speed>1.430000</speed>
<extensions>
<speed>1.4</speed>
<temp>0.00</temp>
<bpm>0</bpm>
<rpm>0.00</rpm>
</extensions>
</trkpt>
<trkpt lat="30.618715286" lon="34.812435150">
<ele>748.859375</ele>
<time>2013-11-23T12:53:14Z</time>
<speed>1.480000</speed>
<extensions>
<speed>1.5</speed>
<temp>0.00</temp>
<bpm>0</bpm>
<rpm>0.00</rpm>
</extensions>
</trkpt>
<trkpt lat="30.618679047" lon="34.812370300">
<ele>749.828125</ele>
<time>2013-11-23T12:53:19Z</time>
<speed>1.480000</speed>
<extensions>
<speed>1.5</speed>
<temp>0.00</temp>
<bpm>0</bpm>
<rpm>0.00</rpm>
</extensions>
</trkpt>
<trkpt lat="30.618646622" lon="34.812301636">
<ele>750.703125</ele>
<time>2013-11-23T12:53:24Z</time>
<speed>1.530000</speed>
<extensions>
<speed>1.5</speed>
<temp>0.00</temp>
<bpm>0</bpm>
<rpm>0.00</rpm>
</extensions>
</trkpt>
<trkpt lat="30.618612289" lon="34.812232971">
<ele>751.406250</ele>
<time>2013-11-23T12:53:29Z</time>
<speed>1.530000</speed>
<extensions>
<speed>1.5</speed>
<temp>0.00</temp>
<bpm>0</bpm>
<rpm>0.00</rpm>
</extensions>
</trkpt>
<trkpt lat="30.618587494" lon="34.812156677">
<ele>752.656250</ele>
<time>2013-11-23T12:53:34Z</time>
<speed>1.580000</speed>
<extensions>
<speed>1.6</speed>
<temp>0.00</temp>
<bpm>0</bpm>
<rpm>0.00</rpm>
</extensions>
</trkpt>
<trkpt lat="30.618556976" lon="34.812080383">
<ele>753.078125</ele>
<time>2013-11-23T12:53:39Z</time>
<speed>1.700000</speed>
<extensions>
<speed>1.7</speed>
<temp>0.00</temp>
<bpm>0</bpm>
<rpm>0.00</rpm>
</extensions>
</trkpt>
<trkpt lat="30.618522644" lon="34.812007904">
<ele>753.843750</ele>
<time>2013-11-23T12:53:44Z</time>
<speed>1.560000</speed>
<extensions>
<speed>1.6</speed>
<temp>0.00</temp>
<bpm>0</bpm>
<rpm>0.00</rpm>
</extensions>
</trkpt>
<trkpt lat="30.618499756" lon="34.811931610">
<ele>754.937500</ele>
<time>2013-11-23T12:53:49Z</time>
<speed>1.490000</speed>
<extensions>
<speed>1.5</speed>
<temp>0.00</temp>
<bpm>0</bpm>
<rpm>0.00</rpm>
</extensions>
</trkpt>
<trkpt lat="30.618459702" lon="34.811866760">
<ele>755.968750</ele>
<time>2013-11-23T12:53:54Z</time>
<speed>1.570000</speed>
<extensions>
<speed>1.6</speed>
<temp>0.00</temp>
<bpm>0</bpm>
<rpm>0.00</rpm>
</extensions>
</trkpt>
<trkpt lat="30.618438721" lon="34.811805725">
<ele>756.359375</ele>
<time>2013-11-23T12:53:59Z</time>
<speed>1.420000</speed>
<extensions>
<speed>1.4</speed>
<temp>0.00</temp>
<bpm>0</bpm>
<rpm>0.00</rpm>
</extensions>
</trkpt>
<trkpt lat="30.618402481" lon="34.811740875">
<ele>757.765625</ele>
<time>2013-11-23T12:54:04Z</time>
<speed>1.460000</speed>
<extensions>
<speed>1.5</speed>
<temp>0.00</temp>
<bpm>0</bpm>
<rpm>0.00</rpm>
</extensions>
</trkpt>
<trkpt lat="30.618366241" lon="34.811679840">
<ele>759.296875</ele>
<time>2013-11-23T12:54:09Z</time>
<speed>1.500000</speed>
<extensions>
<speed>1.5</speed>
<temp>0.00</temp>
<bpm>0</bpm>
<rpm>0.00</rpm>
</extensions>
</trkpt>
<trkpt lat="30.618333817" lon="34.811622620">
<ele>760.718750</ele>
<time>2013-11-23T12:54:14Z</time>
<speed>1.470000</speed>
<extensions>
<speed>1.5</speed>
<temp>0.00</temp>
<bpm>0</bpm>
<rpm>0.00</rpm>
</extensions>
</trkpt>
<trkpt lat="30.618295670" lon="34.811557770">
<ele>761.515625</ele>
<time>2013-11-23T12:54:19Z</time>
<speed>1.400000</speed>
<extensions>
<speed>1.4</speed>
<temp>0.00</temp>
<bpm>0</bpm>
<rpm>0.00</rpm>
</extensions>
</trkpt>
<trkpt lat="30.618270874" lon="34.811500549">
<ele>761.937500</ele>
<time>2013-11-23T12:54:24Z</time>
<speed>1.430000</speed>
<extensions>
<speed>1.4</speed>
<temp>0.00</temp>
<bpm>0</bpm>
<rpm>0.00</rpm>
</extensions>
</trkpt>
<trkpt lat="30.618230820" lon="34.811447144">
<ele>763.234375</ele>
<time>2013-11-23T12:54:29Z</time>
<speed>1.510000</speed>
<extensions>
<speed>1.5</speed>
<temp>0.00</temp>
<bpm>0</bpm>
<rpm>0.00</rpm>
</extensions>
</trkpt>
<trkpt lat="30.618202209" lon="34.811401367">
<ele>763.406250</ele>
<time>2013-11-23T12:54:34Z</time>
<speed>1.390000</speed>
<extensions>
<speed>1.4</speed>
<temp>0.00</temp>
<bpm>0</bpm>
<rpm>0.00</rpm>
</extensions>
</trkpt>
<trkpt lat="30.618158340" lon="34.811340332">
<ele>764.953125</ele>
<time>2013-11-23T12:54:39Z</time>
<speed>1.490000</speed>
<extensions>
<speed>1.5</speed>
<temp>0.00</temp>
<bpm>0</bpm>
<rpm>0.00</rpm>
</extensions>
</trkpt>
<trkpt lat="30.618124008" lon="34.811290741">
<ele>765.312500</ele>
<time>2013-11-23T12:54:44Z</time>
<speed>0.670000</speed>
<extensions>
<speed>0.7</speed>
<temp>0.00</temp>
<bpm>0</bpm>
<rpm>0.00</rpm>
</extensions>
</trkpt>
<trkpt lat="30.618082047" lon="34.811233521">
<ele>765.656250</ele>
<time>2013-11-23T12:54:49Z</time>
<speed>1.540000</speed>
<extensions>
<speed>1.5</speed>
<temp>0.00</temp>
<bpm>0</bpm>
<rpm>0.00</rpm>
</extensions>
</trkpt>
<trkpt lat="30.618040085" lon="34.811168671">
<ele>766.359375</ele>
<time>2013-11-23T12:54:54Z</time>
<speed>1.540000</speed>
<extensions>
<speed>1.5</speed>
<temp>0.00</temp>
<bpm>0</bpm>
<rpm>0.00</rpm>
</extensions>
</trkpt>
<trkpt lat="30.618000031" lon="34.811103821">
<ele>766.484375</ele>
<time>2013-11-23T12:54:59Z</time>
<speed>1.460000</speed>
<extensions>
<speed>1.5</speed>
<temp>0.00</temp>
<bpm>0</bpm>
<rpm>0.00</rpm>
</extensions>
</trkpt>
<trkpt lat="30.617958069" lon="34.811046600">
<ele>766.609375</ele>
<time>2013-11-23T12:55:04Z</time>
<speed>0.620000</speed>
<extensions>
<speed>0.6</speed>
<temp>0.00</temp>
<bpm>0</bpm>
<rpm>0.00</rpm>
</extensions>
</trkpt>
<trkpt lat="30.617919922" lon="34.810997009">
<ele>767.546875</ele>
<time>2013-11-23T12:55:09Z</time>
<speed>1.310000</speed>
<extensions>
<speed>1.3</speed>
<temp>0.00</temp>
<bpm>0</bpm>
<rpm>0.00</rpm>
</extensions>
</trkpt>
<trkpt lat="30.617870331" lon="34.810951233">
<ele>767.937500</ele>
<time>2013-11-23T12:55:14Z</time>
<speed>1.220000</speed>
<extensions>
<speed>1.2</speed>
<temp>0.00</temp>
<bpm>0</bpm>
<rpm>0.00</rpm>
</extensions>
</trkpt>
<trkpt lat="30.617826462" lon="34.810916901">
<ele>770.125000</ele>
<time>2013-11-23T12:55:19Z</time>
<speed>1.270000</speed>
<extensions>
<speed>1.3</speed>
<temp>0.00</temp>
<bpm>0</bpm>
<rpm>0.00</rpm>
</extensions>
</trkpt>
<trkpt lat="30.617765427" lon="34.810874939">
<ele>771.343750</ele>
<time>2013-11-23T12:55:24Z</time>
<speed>1.530000</speed>
<extensions>
<speed>1.5</speed>
<temp>0.00</temp>
<bpm>0</bpm>
<rpm>0.00</rpm>
</extensions>
</trkpt>
<trkpt lat="30.617715836" lon="34.810821533">
<ele>771.515625</ele>
<time>2013-11-23T12:55:29Z</time>
<speed>1.390000</speed>
<extensions>
<speed>1.4</speed>
<temp>0.00</temp>
<bpm>0</bpm>
<rpm>0.00</rpm>
</extensions>
</trkpt>
<trkpt lat="30.617691040" lon="34.810752869">
<ele>769.921875</ele>
<time>2013-11-23T12:55:34Z</time>
<speed>1.440000</speed>
<extensions>
<speed>1.4</speed>
<temp>0.00</temp>
<bpm>0</bpm>
<rpm>0.00</rpm>
</extensions>
</trkpt>
<trkpt lat="30.617645264" lon="34.810703278">
<ele>770.390625</ele>
<time>2013-11-23T12:55:39Z</time>
<speed>0.970000</speed>
<extensions>
<speed>1.0</speed>
<temp>0.00</temp>
<bpm>0</bpm>
<rpm>0.00</rpm>
</extensions>
</trkpt>
<trkpt lat="30.617589951" lon="34.810649872">
<ele>771.906250</ele>
<time>2013-11-23T12:55:44Z</time>
<speed>1.530000</speed>
<extensions>
<speed>1.5</speed>
<temp>0.00</temp>
<bpm>0</bpm>
<rpm>0.00</rpm>
</extensions>
</trkpt>
<trkpt lat="30.617530823" lon="34.810592651">
<ele>774.093750</ele>
<time>2013-11-23T12:55:49Z</time>
<speed>1.670000</speed>
<extensions>
<speed>1.7</speed>
<temp>0.00</temp>
<bpm>0</bpm>
<rpm>0.00</rpm>
</extensions>
</trkpt>
<trkpt lat="30.617462158" lon="34.810546875">
<ele>775.437500</ele>
<time>2013-11-23T12:55:54Z</time>
<speed>1.570000</speed>
<extensions>
<speed>1.6</speed>
<temp>0.00</temp>
<bpm>0</bpm>
<rpm>0.00</rpm>
</extensions>
</trkpt>
<trkpt lat="30.617404938" lon="34.810493469">
<ele>775.250000</ele>
<time>2013-11-23T12:55:59Z</time>
<speed>1.730000</speed>
<extensions>
<speed>1.7</speed>
<temp>0.00</temp>
<bpm>0</bpm>
<rpm>0.00</rpm>
</extensions>
</trkpt>
<trkpt lat="30.617347717" lon="34.810428619">
<ele>776.156250</ele>
<time>2013-11-23T12:56:04Z</time>
<speed>1.610000</speed>
<extensions>
<speed>1.6</speed>
<temp>0.00</temp>
<bpm>0</bpm>
<rpm>0.00</rpm>
</extensions>
</trkpt>
<trkpt lat="30.617290497" lon="34.810371399">
<ele>777.468750</ele>
<time>2013-11-23T12:56:09Z</time>
<speed>1.680000</speed>
<extensions>
<speed>1.7</speed>
<temp>0.00</temp>
<bpm>0</bpm>
<rpm>0.00</rpm>
</extensions>
</trkpt>
<trkpt lat="30.617238998" lon="34.810314178">
<ele>779.187500</ele>
<time>2013-11-23T12:56:14Z</time>
<speed>1.750000</speed>
<extensions>
<speed>1.8</speed>
<temp>0.00</temp>
<bpm>0</bpm>
<rpm>0.00</rpm>
</extensions>
</trkpt>
<trkpt lat="30.617191315" lon="34.810264587">
<ele>780.953125</ele>
<time>2013-11-23T12:56:19Z</time>
<speed>1.710000</speed>
<extensions>
<speed>1.7</speed>
<temp>0.00</temp>
<bpm>0</bpm>
<rpm>0.00</rpm>
</extensions>
</trkpt>
<trkpt lat="30.617137909" lon="34.810199738">
<ele>782.562500</ele>
<time>2013-11-23T12:56:24Z</time>
<speed>1.760000</speed>
<extensions>
<speed>1.8</speed>
<temp>0.00</temp>
<bpm>0</bpm>
<rpm>0.00</rpm>
</extensions>
</trkpt>
<trkpt lat="30.617092133" lon="34.810150146">
<ele>784.031250</ele>
<time>2013-11-23T12:56:29Z</time>
<speed>1.550000</speed>
<extensions>
<speed>1.5</speed>
<temp>0.00</temp>
<bpm>0</bpm>
<rpm>0.00</rpm>
</extensions>
</trkpt>
<trkpt lat="30.617042542" lon="34.810085297">
<ele>785.406250</ele>
<time>2013-11-23T12:56:34Z</time>
<speed>1.630000</speed>
<extensions>
<speed>1.6</speed>
<temp>0.00</temp>
<bpm>0</bpm>
<rpm>0.00</rpm>
</extensions>
</trkpt>
<trkpt lat="30.616992950" lon="34.810031891">
<ele>786.781250</ele>
<time>2013-11-23T12:56:39Z</time>
<speed>1.620000</speed>
<extensions>
<speed>1.6</speed>
<temp>0.00</temp>
<bpm>0</bpm>
<rpm>0.00</rpm>
</extensions>
</trkpt>
<trkpt lat="30.616941452" lon="34.809967041">
<ele>787.984375</ele>
<time>2013-11-23T12:56:44Z</time>
<speed>1.720000</speed>
<extensions>
<speed>1.7</speed>
<temp>0.00</temp>
<bpm>0</bpm>
<rpm>0.00</rpm>
</extensions>
</trkpt>
<trkpt lat="30.616893768" lon="34.809909821">
<ele>788.828125</ele>
<time>2013-11-23T12:56:49Z</time>
<speed>1.150000</speed>
<extensions>
<speed>1.1</speed>
<temp>0.00</temp>
<bpm>0</bpm>
<rpm>0.00</rpm>
</extensions>
</trkpt>
<trkpt lat="30.616849899" lon="34.809864044">
<ele>789.703125</ele>
<time>2013-11-23T12:56:54Z</time>
<speed>1.560000</speed>
<extensions>
<speed>1.6</speed>
<temp>0.00</temp>
<bpm>0</bpm>
<rpm>0.00</rpm>
</extensions>
</trkpt>
<trkpt lat="30.616802216" lon="34.809806824">
<ele>790.343750</ele>
<time>2013-11-23T12:56:59Z</time>
<speed>1.680000</speed>
<extensions>
<speed>1.7</speed>
<temp>0.00</temp>
<bpm>0</bpm>
<rpm>0.00</rpm>
</extensions>
</trkpt>
<trkpt lat="30.616752625" lon="34.809741974">
<ele>790.500000</ele>
<time>2013-11-23T12:57:04Z</time>
<speed>1.620000</speed>
<extensions>
<speed>1.6</speed>
<temp>0.00</temp>
<bpm>0</bpm>
<rpm>0.00</rpm>
</extensions>
</trkpt>
<trkpt lat="30.616714478" lon="34.809669495">
<ele>791.093750</ele>
<time>2013-11-23T12:57:09Z</time>
<speed>1.700000</speed>
<extensions>
<speed>1.7</speed>
<temp>0.00</temp>
<bpm>0</bpm>
<rpm>0.00</rpm>
</extensions>
</trkpt>
<trkpt lat="30.616670609" lon="34.809593201">
<ele>792.281250</ele>
<time>2013-11-23T12:57:14Z</time>
<speed>1.630000</speed>
<extensions>
<speed>1.6</speed>
<temp>0.00</temp>
<bpm>0</bpm>
<rpm>0.00</rpm>
</extensions>
</trkpt>
<trkpt lat="30.616621017" lon="34.809520721">
<ele>792.703125</ele>
<time>2013-11-23T12:57:19Z</time>
<speed>1.570000</speed>
<extensions>
<speed>1.6</speed>
<temp>0.00</temp>
<bpm>0</bpm>
<rpm>0.00</rpm>
</extensions>
</trkpt>
<trkpt lat="30.616561890" lon="34.809459686">
<ele>793.796875</ele>
<time>2013-11-23T12:57:24Z</time>
<speed>1.740000</speed>
<extensions>
<speed>1.7</speed>
<temp>0.00</temp>
<bpm>0</bpm>
<rpm>0.00</rpm>
</extensions>
</trkpt>
<trkpt lat="30.616493225" lon="34.809394836">
<ele>794.250000</ele>
<time>2013-11-23T12:57:29Z</time>
<speed>2.600000</speed>
<extensions>
<speed>2.6</speed>
<temp>0.00</temp>
<bpm>0</bpm>
<rpm>0.00</rpm>
</extensions>
</trkpt>
<trkpt lat="30.616441727" lon="34.809341431">
<ele>793.953125</ele>
<time>2013-11-23T12:57:34Z</time>
<speed>1.630000</speed>
<extensions>
<speed>1.6</speed>
<temp>0.00</temp>
<bpm>0</bpm>
<rpm>0.00</rpm>
</extensions>
</trkpt>
<trkpt lat="30.616394043" lon="34.809307098">
<ele>794.468750</ele>
<time>2013-11-23T12:57:39Z</time>
<speed>0.090000</speed>
<extensions>
<speed>0.1</speed>
<temp>0.00</temp>
<bpm>0</bpm>
<rpm>0.00</rpm>
</extensions>
</trkpt>
<trkpt lat="30.616367340" lon="34.809284210">
<ele>795.656250</ele>
<time>2013-11-23T12:57:44Z</time>
<speed>0.840000</speed>
<extensions>
<speed>0.8</speed>
<temp>0.00</temp>
<bpm>0</bpm>
<rpm>0.00</rpm>
</extensions>
</trkpt>
<trkpt lat="30.616355896" lon="34.809253693">
<ele>796.750000</ele>
<time>2013-11-23T12:57:49Z</time>
<speed>0.740000</speed>
<extensions>
<speed>0.7</speed>
<temp>0.00</temp>
<bpm>0</bpm>
<rpm>0.00</rpm>
</extensions>
</trkpt>
<trkpt lat="30.616382599" lon="34.809238434">
<ele>797.734375</ele>
<time>2013-11-23T12:57:54Z</time>
<speed>0.320000</speed>
<extensions>
<speed>0.3</speed>
<temp>0.00</temp>
<bpm>0</bpm>
<rpm>0.00</rpm>
</extensions>
</trkpt>
<trkpt lat="30.616409302" lon="34.809238434">
<ele>798.671875</ele>
<time>2013-11-23T12:57:59Z</time>
<speed>1.160000</speed>
<extensions>
<speed>1.2</speed>
<temp>0.00</temp>
<bpm>0</bpm>
<rpm>0.00</rpm>
</extensions>
</trkpt>
<trkpt lat="30.616456985" lon="34.809234619">
<ele>799.781250</ele>
<time>2013-11-23T12:58:04Z</time>
<speed>0.900000</speed>
<extensions>
<speed>0.9</speed>
<temp>0.00</temp>
<bpm>0</bpm>
<rpm>0.00</rpm>
</extensions>
</trkpt>
<trkpt lat="30.616483688" lon="34.809223175">
<ele>801.375000</ele>
<time>2013-11-23T12:58:09Z</time>
<speed>0.320000</speed>
<extensions>
<speed>0.3</speed>
<temp>0.00</temp>
<bpm>0</bpm>
<rpm>0.00</rpm>
</extensions>
</trkpt>
<trkpt lat="30.616485596" lon="34.809219360">
<ele>801.843750</ele>
<time>2013-11-23T12:58:14Z</time>
<extensions>
<speed>0.0</speed>
<temp>0.00</temp>
<bpm>0</bpm>
<rpm>0.00</rpm>
</extensions>
</trkpt>
<trkpt lat="30.616485596" lon="34.809215546">
<ele>801.421875</ele>
<time>2013-11-23T12:58:19Z</time>
<speed>0.030000</speed>
<extensions>
<speed>0.0</speed>
<temp>0.00</temp>
<bpm>0</bpm>
<rpm>0.00</rpm>
</extensions>
</trkpt>
<trkpt lat="30.616487503" lon="34.809215546">
<ele>801.281250</ele>
<time>2013-11-23T12:58:24Z</time>
<speed>0.010000</speed>
<extensions>
<speed>0.0</speed>
<temp>0.00</temp>
<bpm>0</bpm>
<rpm>0.00</rpm>
</extensions>
</trkpt>
<trkpt lat="30.616487503" lon="34.809215546">
<ele>801.265625</ele>
<time>2013-11-23T12:58:29Z</time>
<speed>0.010000</speed>
<extensions>
<speed>0.0</speed>
<temp>0.00</temp>
<bpm>0</bpm>
<rpm>0.00</rpm>
</extensions>
</trkpt>
<trkpt lat="30.616487503" lon="34.809215546">
<ele>801.265625</ele>
<time>2013-11-23T12:58:34Z</time>
<extensions>
<speed>0.0</speed>
<temp>0.00</temp>
<bpm>0</bpm>
<rpm>0.00</rpm>
</extensions>
</trkpt>
<trkpt lat="30.616487503" lon="34.809215546">
<ele>801.250000</ele>
<time>2013-11-23T12:58:39Z</time>
<speed>0.010000</speed>
<extensions>
<speed>0.0</speed>
<temp>0.00</temp>
<bpm>0</bpm>
<rpm>0.00</rpm>
</extensions>
</trkpt>
<trkpt lat="30.616487503" lon="34.809215546">
<ele>801.250000</ele>
<time>2013-11-23T12:58:44Z</time>
<extensions>
<speed>0.0</speed>
<temp>0.00</temp>
<bpm>0</bpm>
<rpm>0.00</rpm>
</extensions>
</trkpt>
<trkpt lat="30.616487503" lon="34.809215546">
<ele>801.250000</ele>
<time>2013-11-23T12:58:49Z</time>
<extensions>
<speed>0.0</speed>
<temp>0.00</temp>
<bpm>0</bpm>
<rpm>0.00</rpm>
</extensions>
</trkpt>
<trkpt lat="30.616487503" lon="34.809215546">
<ele>801.265625</ele>
<time>2013-11-23T12:58:54Z</time>
<extensions>
<speed>0.0</speed>
<temp>0.00</temp>
<bpm>0</bpm>
<rpm>0.00</rpm>
</extensions>
</trkpt>
<trkpt lat="30.616485596" lon="34.809215546">
<ele>801.296875</ele>
<time>2013-11-23T12:58:59Z</time>
<extensions>
<speed>0.0</speed>
<temp>0.00</temp>
<bpm>0</bpm>
<rpm>0.00</rpm>
</extensions>
</trkpt>
<trkpt lat="30.616485596" lon="34.809215546">
<ele>801.312500</ele>
<time>2013-11-23T12:59:04Z</time>
<speed>0.010000</speed>
<extensions>
<speed>0.0</speed>
<temp>0.00</temp>
<bpm>0</bpm>
<rpm>0.00</rpm>
</extensions>
</trkpt>
<trkpt lat="30.616485596" lon="34.809215546">
<ele>801.312500</ele>
<time>2013-11-23T12:59:09Z</time>
<speed>0.010000</speed>
<extensions>
<speed>0.0</speed>
<temp>0.00</temp>
<bpm>0</bpm>
<rpm>0.00</rpm>
</extensions>
</trkpt>
<trkpt lat="30.616485596" lon="34.809215546">
<ele>801.328125</ele>
<time>2013-11-23T12:59:14Z</time>
<extensions>
<speed>0.0</speed>
<temp>0.00</temp>
<bpm>0</bpm>
<rpm>0.00</rpm>
</extensions>
</trkpt>
<trkpt lat="30.616485596" lon="34.809215546">
<ele>801.375000</ele>
<time>2013-11-23T12:59:19Z</time>
<extensions>
<speed>0.0</speed>
<temp>0.00</temp>
<bpm>0</bpm>
<rpm>0.00</rpm>
</extensions>
</trkpt>
<trkpt lat="30.616485596" lon="34.809215546">
<ele>801.406250</ele>
<time>2013-11-23T12:59:24Z</time>
<extensions>
<speed>0.0</speed>
<temp>0.00</temp>
<bpm>0</bpm>
<rpm>0.00</rpm>
</extensions>
</trkpt>
<trkpt lat="30.616485596" lon="34.809215546">
<ele>801.421875</ele>
<time>2013-11-23T12:59:29Z</time>
<extensions>
<speed>0.0</speed>
<temp>0.00</temp>
<bpm>0</bpm>
<rpm>0.00</rpm>
</extensions>
</trkpt>
<trkpt lat="30.616485596" lon="34.809215546">
<ele>801.453125</ele>
<time>2013-11-23T12:59:34Z</time>
<extensions>
<speed>0.0</speed>
<temp>0.00</temp>
<bpm>0</bpm>
<rpm>0.00</rpm>
</extensions>
</trkpt>
<trkpt lat="30.616485596" lon="34.809215546">
<ele>801.468750</ele>
<time>2013-11-23T12:59:39Z</time>
<extensions>
<speed>0.0</speed>
<temp>0.00</temp>
<bpm>0</bpm>
<rpm>0.00</rpm>
</extensions>
</trkpt>
<trkpt lat="30.616485596" lon="34.809211731">
<ele>801.500000</ele>
<time>2013-11-23T12:59:44Z</time>
<speed>0.010000</speed>
<extensions>
<speed>0.0</speed>
<temp>0.00</temp>
<bpm>0</bpm>
<rpm>0.00</rpm>
</extensions>
</trkpt>
<trkpt lat="30.616485596" lon="34.809211731">
<ele>801.531250</ele>
<time>2013-11-23T12:59:49Z</time>
<extensions>
<speed>0.0</speed>
<temp>0.00</temp>
<bpm>0</bpm>
<rpm>0.00</rpm>
</extensions>
</trkpt>
<trkpt lat="30.616485596" lon="34.809211731">
<ele>801.578125</ele>
<time>2013-11-23T12:59:54Z</time>
<extensions>
<speed>0.0</speed>
<temp>0.00</temp>
<bpm>0</bpm>
<rpm>0.00</rpm>
</extensions>
</trkpt>
<trkpt lat="30.616485596" lon="34.809211731">
<ele>801.609375</ele>
<time>2013-11-23T12:59:59Z</time>
<extensions>
<speed>0.0</speed>
<temp>0.00</temp>
<bpm>0</bpm>
<rpm>0.00</rpm>
</extensions>
</trkpt>
<trkpt lat="30.616485596" lon="34.809211731">
<ele>801.640625</ele>
<time>2013-11-23T13:00:04Z</time>
<extensions>
<speed>0.0</speed>
<temp>0.00</temp>
<bpm>0</bpm>
<rpm>0.00</rpm>
</extensions>
</trkpt>
<trkpt lat="30.616485596" lon="34.809211731">
<ele>801.687500</ele>
<time>2013-11-23T13:00:09Z</time>
<extensions>
<speed>0.0</speed>
<temp>0.00</temp>
<bpm>0</bpm>
<rpm>0.00</rpm>
</extensions>
</trkpt>
<trkpt lat="30.616485596" lon="34.809211731">
<ele>801.703125</ele>
<time>2013-11-23T13:00:14Z</time>
<speed>0.010000</speed>
<extensions>
<speed>0.0</speed>
<temp>0.00</temp>
<bpm>0</bpm>
<rpm>0.00</rpm>
</extensions>
</trkpt>
<trkpt lat="30.616485596" lon="34.809211731">
<ele>801.703125</ele>
<time>2013-11-23T13:00:19Z</time>
<extensions>
<speed>0.0</speed>
<temp>0.00</temp>
<bpm>0</bpm>
<rpm>0.00</rpm>
</extensions>
</trkpt>
<trkpt lat="30.616485596" lon="34.809211731">
<ele>801.718750</ele>
<time>2013-11-23T13:00:24Z</time>
<extensions>
<speed>0.0</speed>
<temp>0.00</temp>
<bpm>0</bpm>
<rpm>0.00</rpm>
</extensions>
</trkpt>
<trkpt lat="30.616485596" lon="34.809211731">
<ele>801.750000</ele>
<time>2013-11-23T13:00:29Z</time>
<extensions>
<speed>0.0</speed>
<temp>0.00</temp>
<bpm>0</bpm>
<rpm>0.00</rpm>
</extensions>
</trkpt>
<trkpt lat="30.616483688" lon="34.809211731">
<ele>801.796875</ele>
<time>2013-11-23T13:00:34Z</time>
<extensions>
<speed>0.0</speed>
<temp>0.00</temp>
<bpm>0</bpm>
<rpm>0.00</rpm>
</extensions>
</trkpt>
<trkpt lat="30.616483688" lon="34.809211731">
<ele>801.828125</ele>
<time>2013-11-23T13:00:39Z</time>
<extensions>
<speed>0.0</speed>
<temp>0.00</temp>
<bpm>0</bpm>
<rpm>0.00</rpm>
</extensions>
</trkpt>
<trkpt lat="30.616483688" lon="34.809211731">
<ele>801.875000</ele>
<time>2013-11-23T13:00:44Z</time>
<speed>0.010000</speed>
<extensions>
<speed>0.0</speed>
<temp>0.00</temp>
<bpm>0</bpm>
<rpm>0.00</rpm>
</extensions>
</trkpt>
<trkpt lat="30.616483688" lon="34.809211731">
<ele>801.906250</ele>
<time>2013-11-23T13:00:49Z</time>
<extensions>
<speed>0.0</speed>
<temp>0.00</temp>
<bpm>0</bpm>
<rpm>0.00</rpm>
</extensions>
</trkpt>
<trkpt lat="30.616483688" lon="34.809211731">
<ele>801.953125</ele>
<time>2013-11-23T13:00:54Z</time>
<speed>0.010000</speed>
<extensions>
<speed>0.0</speed>
<temp>0.00</temp>
<bpm>0</bpm>
<rpm>0.00</rpm>
</extensions>
</trkpt>
<trkpt lat="30.616483688" lon="34.809211731">
<ele>802.000000</ele>
<time>2013-11-23T13:00:59Z</time>
<speed>0.010000</speed>
<extensions>
<speed>0.0</speed>
<temp>0.00</temp>
<bpm>0</bpm>
<rpm>0.00</rpm>
</extensions>
</trkpt>
<trkpt lat="30.616481781" lon="34.809211731">
<ele>802.078125</ele>
<time>2013-11-23T13:01:04Z</time>
<speed>0.020000</speed>
<extensions>
<speed>0.0</speed>
<temp>0.00</temp>
<bpm>0</bpm>
<rpm>0.00</rpm>
</extensions>
</trkpt>
<trkpt lat="30.616481781" lon="34.809211731">
<ele>802.140625</ele>
<time>2013-11-23T13:01:09Z</time>
<speed>0.010000</speed>
<extensions>
<speed>0.0</speed>
<temp>0.00</temp>
<bpm>0</bpm>
<rpm>0.00</rpm>
</extensions>
</trkpt>
<trkpt lat="30.616481781" lon="34.809211731">
<ele>802.218750</ele>
<time>2013-11-23T13:01:14Z</time>
<speed>0.010000</speed>
<extensions>
<speed>0.0</speed>
<temp>0.00</temp>
<bpm>0</bpm>
<rpm>0.00</rpm>
</extensions>
</trkpt>
<trkpt lat="30.616479874" lon="34.809211731">
<ele>802.328125</ele>
<time>2013-11-23T13:01:19Z</time>
<speed>0.020000</speed>
<extensions>
<speed>0.0</speed>
<temp>0.00</temp>
<bpm>0</bpm>
<rpm>0.00</rpm>
</extensions>
</trkpt>
<trkpt lat="30.616479874" lon="34.809215546">
<ele>802.453125</ele>
<time>2013-11-23T13:01:24Z</time>
<speed>0.020000</speed>
<extensions>
<speed>0.0</speed>
<temp>0.00</temp>
<bpm>0</bpm>
<rpm>0.00</rpm>
</extensions>
</trkpt>
<trkpt lat="30.616479874" lon="34.809215546">
<ele>802.578125</ele>
<time>2013-11-23T13:01:29Z</time>
<speed>0.020000</speed>
<extensions>
<speed>0.0</speed>
<temp>0.00</temp>
<bpm>0</bpm>
<rpm>0.00</rpm>
</extensions>
</trkpt>
<trkpt lat="30.616479874" lon="34.809215546">
<ele>802.718750</ele>
<time>2013-11-23T13:01:34Z</time>
<speed>0.020000</speed>
<extensions>
<speed>0.0</speed>
<temp>0.00</temp>
<bpm>0</bpm>
<rpm>0.00</rpm>
</extensions>
</trkpt>
<trkpt lat="30.616477966" lon="34.809215546">
<ele>802.875000</ele>
<time>2013-11-23T13:01:39Z</time>
<speed>0.010000</speed>
<extensions>
<speed>0.0</speed>
<temp>0.00</temp>
<bpm>0</bpm>
<rpm>0.00</rpm>
</extensions>
</trkpt>
<trkpt lat="30.616477966" lon="34.809215546">
<ele>802.953125</ele>
<time>2013-11-23T13:01:44Z</time>
<extensions>
<speed>0.0</speed>
<temp>0.00</temp>
<bpm>0</bpm>
<rpm>0.00</rpm>
</extensions>
</trkpt>
<trkpt lat="30.616477966" lon="34.809215546">
<ele>802.968750</ele>
<time>2013-11-23T13:01:49Z</time>
<speed>0.010000</speed>
<extensions>
<speed>0.0</speed>
<temp>0.00</temp>
<bpm>0</bpm>
<rpm>0.00</rpm>
</extensions>
</trkpt>
<trkpt lat="30.616477966" lon="34.809215546">
<ele>802.984375</ele>
<time>2013-11-23T13:01:54Z</time>
<speed>0.010000</speed>
<extensions>
<speed>0.0</speed>
<temp>0.00</temp>
<bpm>0</bpm>
<rpm>0.00</rpm>
</extensions>
</trkpt>
<trkpt lat="30.616477966" lon="34.809215546">
<ele>802.984375</ele>
<time>2013-11-23T13:01:59Z</time>
<speed>0.010000</speed>
<extensions>
<speed>0.0</speed>
<temp>0.00</temp>
<bpm>0</bpm>
<rpm>0.00</rpm>
</extensions>
</trkpt>
<trkpt lat="30.616477966" lon="34.809215546">
<ele>803.000000</ele>
<time>2013-11-23T13:02:04Z</time>
<extensions>
<speed>0.0</speed>
<temp>0.00</temp>
<bpm>0</bpm>
<rpm>0.00</rpm>
</extensions>
</trkpt>
<trkpt lat="30.616477966" lon="34.809215546">
<ele>803.046875</ele>
<time>2013-11-23T13:02:09Z</time>
<extensions>
<speed>0.0</speed>
<temp>0.00</temp>
<bpm>0</bpm>
<rpm>0.00</rpm>
</extensions>
</trkpt>
<trkpt lat="30.616477966" lon="34.809215546">
<ele>803.078125</ele>
<time>2013-11-23T13:02:14Z</time>
<extensions>
<speed>0.0</speed>
<temp>0.00</temp>
<bpm>0</bpm>
<rpm>0.00</rpm>
</extensions>
</trkpt>
<trkpt lat="30.616476059" lon="34.809215546">
<ele>803.140625</ele>
<time>2013-11-23T13:02:19Z</time>
<extensions>
<speed>0.0</speed>
<temp>0.00</temp>
<bpm>0</bpm>
<rpm>0.00</rpm>
</extensions>
</trkpt>
<trkpt lat="30.616476059" lon="34.809215546">
<ele>803.171875</ele>
<time>2013-11-23T13:02:24Z</time>
<extensions>
<speed>0.0</speed>
<temp>0.00</temp>
<bpm>0</bpm>
<rpm>0.00</rpm>
</extensions>
</trkpt>
<trkpt lat="30.616476059" lon="34.809215546">
<ele>803.203125</ele>
<time>2013-11-23T13:02:29Z</time>
<extensions>
<speed>0.0</speed>
<temp>0.00</temp>
<bpm>0</bpm>
<rpm>0.00</rpm>
</extensions>
</trkpt>
<trkpt lat="30.616476059" lon="34.809215546">
<ele>803.218750</ele>
<time>2013-11-23T13:02:34Z</time>
<speed>0.010000</speed>
<extensions>
<speed>0.0</speed>
<temp>0.00</temp>
<bpm>0</bpm>
<rpm>0.00</rpm>
</extensions>
</trkpt>
<trkpt lat="30.616476059" lon="34.809215546">
<ele>803.250000</ele>
<time>2013-11-23T13:02:39Z</time>
<extensions>
<speed>0.0</speed>
<temp>0.00</temp>
<bpm>0</bpm>
<rpm>0.00</rpm>
</extensions>
</trkpt>
<trkpt lat="30.616476059" lon="34.809215546">
<ele>803.265625</ele>
<time>2013-11-23T13:02:44Z</time>
<speed>0.010000</speed>
<extensions>
<speed>0.0</speed>
<temp>0.00</temp>
<bpm>0</bpm>
<rpm>0.00</rpm>
</extensions>
</trkpt>
<trkpt lat="30.616476059" lon="34.809215546">
<ele>803.265625</ele>
<time>2013-11-23T13:02:49Z</time>
<extensions>
<speed>0.0</speed>
<temp>0.00</temp>
<bpm>0</bpm>
<rpm>0.00</rpm>
</extensions>
</trkpt>
<trkpt lat="30.616476059" lon="34.809215546">
<ele>803.265625</ele>
<time>2013-11-23T13:02:54Z</time>
<speed>0.010000</speed>
<extensions>
<speed>0.0</speed>
<temp>0.00</temp>
<bpm>0</bpm>
<rpm>0.00</rpm>
</extensions>
</trkpt>
<trkpt lat="30.616476059" lon="34.809215546">
<ele>803.265625</ele>
<time>2013-11-23T13:02:59Z</time>
<speed>0.010000</speed>
<extensions>
<speed>0.0</speed>
<temp>0.00</temp>
<bpm>0</bpm>
<rpm>0.00</rpm>
</extensions>
</trkpt>
<trkpt lat="30.616477966" lon="34.809215546">
<ele>803.265625</ele>
<time>2013-11-23T13:03:04Z</time>
<extensions>
<speed>0.0</speed>
<temp>0.00</temp>
<bpm>0</bpm>
<rpm>0.00</rpm>
</extensions>
</trkpt>
<trkpt lat="30.616477966" lon="34.809215546">
<ele>803.265625</ele>
<time>2013-11-23T13:03:09Z</time>
<speed>0.010000</speed>
<extensions>
<speed>0.0</speed>
<temp>0.00</temp>
<bpm>0</bpm>
<rpm>0.00</rpm>
</extensions>
</trkpt>
<trkpt lat="30.616477966" lon="34.809215546">
<ele>803.296875</ele>
<time>2013-11-23T13:03:14Z</time>
<speed>0.010000</speed>
<extensions>
<speed>0.0</speed>
<temp>0.00</temp>
<bpm>0</bpm>
<rpm>0.00</rpm>
</extensions>
</trkpt>
<trkpt lat="30.616477966" lon="34.809215546">
<ele>803.296875</ele>
<time>2013-11-23T13:03:19Z</time>
<extensions>
<speed>0.0</speed>
<temp>0.00</temp>
<bpm>0</bpm>
<rpm>0.00</rpm>
</extensions>
</trkpt>
<trkpt lat="30.616477966" lon="34.809215546">
<ele>803.312500</ele>
<time>2013-11-23T13:03:24Z</time>
<extensions>
<speed>0.0</speed>
<temp>0.00</temp>
<bpm>0</bpm>
<rpm>0.00</rpm>
</extensions>
</trkpt>
<trkpt lat="30.616477966" lon="34.809215546">
<ele>803.328125</ele>
<time>2013-11-23T13:03:29Z</time>
<extensions>
<speed>0.0</speed>
<temp>0.00</temp>
<bpm>0</bpm>
<rpm>0.00</rpm>
</extensions>
</trkpt>
<trkpt lat="30.616476059" lon="34.809215546">
<ele>803.359375</ele>
<time>2013-11-23T13:03:34Z</time>
<extensions>
<speed>0.0</speed>
<temp>0.00</temp>
<bpm>0</bpm>
<rpm>0.00</rpm>
</extensions>
</trkpt>
<trkpt lat="30.616476059" lon="34.809215546">
<ele>803.390625</ele>
<time>2013-11-23T13:03:39Z</time>
<extensions>
<speed>0.0</speed>
<temp>0.00</temp>
<bpm>0</bpm>
<rpm>0.00</rpm>
</extensions>
</trkpt>
<trkpt lat="30.616476059" lon="34.809215546">
<ele>803.406250</ele>
<time>2013-11-23T13:03:44Z</time>
<extensions>
<speed>0.0</speed>
<temp>0.00</temp>
<bpm>0</bpm>
<rpm>0.00</rpm>
</extensions>
</trkpt>
<trkpt lat="30.616476059" lon="34.809215546">
<ele>803.421875</ele>
<time>2013-11-23T13:03:49Z</time>
<extensions>
<speed>0.0</speed>
<temp>0.00</temp>
<bpm>0</bpm>
<rpm>0.00</rpm>
</extensions>
</trkpt>
<trkpt lat="30.616476059" lon="34.809215546">
<ele>803.437500</ele>
<time>2013-11-23T13:03:54Z</time>
<extensions>
<speed>0.0</speed>
<temp>0.00</temp>
<bpm>0</bpm>
<rpm>0.00</rpm>
</extensions>
</trkpt>
<trkpt lat="30.616476059" lon="34.809215546">
<ele>803.500000</ele>
<time>2013-11-23T13:03:59Z</time>
<extensions>
<speed>0.0</speed>
<temp>0.00</temp>
<bpm>0</bpm>
<rpm>0.00</rpm>
</extensions>
</trkpt>
<trkpt lat="30.616476059" lon="34.809215546">
<ele>803.546875</ele>
<time>2013-11-23T13:04:04Z</time>
<extensions>
<speed>0.0</speed>
<temp>0.00</temp>
<bpm>0</bpm>
<rpm>0.00</rpm>
</extensions>
</trkpt>
<trkpt lat="30.616476059" lon="34.809215546">
<ele>803.562500</ele>
<time>2013-11-23T13:04:09Z</time>
<extensions>
<speed>0.0</speed>
<temp>0.00</temp>
<bpm>0</bpm>
<rpm>0.00</rpm>
</extensions>
</trkpt>
<trkpt lat="30.616476059" lon="34.809215546">
<ele>803.578125</ele>
<time>2013-11-23T13:04:14Z</time>
<extensions>
<speed>0.0</speed>
<temp>0.00</temp>
<bpm>0</bpm>
<rpm>0.00</rpm>
</extensions>
</trkpt>
<trkpt lat="30.616476059" lon="34.809215546">
<ele>803.593750</ele>
<time>2013-11-23T13:04:19Z</time>
<extensions>
<speed>0.0</speed>
<temp>0.00</temp>
<bpm>0</bpm>
<rpm>0.00</rpm>
</extensions>
</trkpt>
<trkpt lat="30.616476059" lon="34.809211731">
<ele>803.609375</ele>
<time>2013-11-23T13:04:24Z</time>
<extensions>
<speed>0.0</speed>
<temp>0.00</temp>
<bpm>0</bpm>
<rpm>0.00</rpm>
</extensions>
</trkpt>
<trkpt lat="30.616476059" lon="34.809211731">
<ele>803.640625</ele>
<time>2013-11-23T13:04:29Z</time>
<extensions>
<speed>0.0</speed>
<temp>0.00</temp>
<bpm>0</bpm>
<rpm>0.00</rpm>
</extensions>
</trkpt>
<trkpt lat="30.616476059" lon="34.809211731">
<ele>803.656250</ele>
<time>2013-11-23T13:04:34Z</time>
<extensions>
<speed>0.0</speed>
<temp>0.00</temp>
<bpm>0</bpm>
<rpm>0.00</rpm>
</extensions>
</trkpt>
<trkpt lat="30.616476059" lon="34.809211731">
<ele>803.656250</ele>
<time>2013-11-23T13:04:39Z</time>
<extensions>
<speed>0.0</speed>
<temp>0.00</temp>
<bpm>0</bpm>
<rpm>0.00</rpm>
</extensions>
</trkpt>
<trkpt lat="30.616476059" lon="34.809211731">
<ele>803.671875</ele>
<time>2013-11-23T13:04:44Z</time>
<extensions>
<speed>0.0</speed>
<temp>0.00</temp>
<bpm>0</bpm>
<rpm>0.00</rpm>
</extensions>
</trkpt>
<trkpt lat="30.616476059" lon="34.809211731">
<ele>803.703125</ele>
<time>2013-11-23T13:04:49Z</time>
<extensions>
<speed>0.0</speed>
<temp>0.00</temp>
<bpm>0</bpm>
<rpm>0.00</rpm>
</extensions>
</trkpt>
<trkpt lat="30.616477966" lon="34.809219360">
<ele>804.281250</ele>
<time>2013-11-23T13:04:54Z</time>
<speed>0.040000</speed>
<extensions>
<speed>0.0</speed>
<temp>0.00</temp>
<bpm>0</bpm>
<rpm>0.00</rpm>
</extensions>
</trkpt>
<trkpt lat="30.616477966" lon="34.809215546">
<ele>803.640625</ele>
<time>2013-11-23T13:04:59Z</time>
<speed>0.500000</speed>
<extensions>
<speed>0.5</speed>
<temp>0.00</temp>
<bpm>0</bpm>
<rpm>0.00</rpm>
</extensions>
</trkpt>
<trkpt lat="30.616460800" lon="34.809207916">
<ele>801.390625</ele>
<time>2013-11-23T13:05:04Z</time>
<speed>0.470000</speed>
<extensions>
<speed>0.5</speed>
<temp>0.00</temp>
<bpm>0</bpm>
<rpm>0.00</rpm>
</extensions>
</trkpt>
<trkpt lat="30.616418839" lon="34.809207916">
<ele>799.609375</ele>
<time>2013-11-23T13:05:09Z</time>
<speed>1.030000</speed>
<extensions>
<speed>1.0</speed>
<temp>0.00</temp>
<bpm>0</bpm>
<rpm>0.00</rpm>
</extensions>
</trkpt>
<trkpt lat="30.616361618" lon="34.809211731">
<ele>799.265625</ele>
<time>2013-11-23T13:05:14Z</time>
<speed>0.830000</speed>
<extensions>
<speed>0.8</speed>
<temp>0.00</temp>
<bpm>0</bpm>
<rpm>0.00</rpm>
</extensions>
</trkpt>
<trkpt lat="30.616313934" lon="34.809219360">
<ele>799.109375</ele>
<time>2013-11-23T13:05:19Z</time>
<speed>1.160000</speed>
<extensions>
<speed>1.2</speed>
<temp>0.00</temp>
<bpm>0</bpm>
<rpm>0.00</rpm>
</extensions>
</trkpt>
<trkpt lat="30.616258621" lon="34.809215546">
<ele>799.781250</ele>
<time>2013-11-23T13:05:24Z</time>
<speed>1.540000</speed>
<extensions>
<speed>1.5</speed>
<temp>0.00</temp>
<bpm>0</bpm>
<rpm>0.00</rpm>
</extensions>
</trkpt>
<trkpt lat="30.616193771" lon="34.809207916">
<ele>799.828125</ele>
<time>2013-11-23T13:05:29Z</time>
<speed>1.800000</speed>
<extensions>
<speed>1.8</speed>
<temp>0.00</temp>
<bpm>0</bpm>
<rpm>0.00</rpm>
</extensions>
</trkpt>
<trkpt lat="30.616132736" lon="34.809200287">
<ele>800.140625</ele>
<time>2013-11-23T13:05:34Z</time>
<speed>1.340000</speed>
<extensions>
<speed>1.3</speed>
<temp>0.00</temp>
<bpm>0</bpm>
<rpm>0.00</rpm>
</extensions>
</trkpt>
<trkpt lat="30.616071701" lon="34.809188843">
<ele>800.812500</ele>
<time>2013-11-23T13:05:39Z</time>
<speed>1.690000</speed>
<extensions>
<speed>1.7</speed>
<temp>0.00</temp>
<bpm>0</bpm>
<rpm>0.00</rpm>
</extensions>
</trkpt>
<trkpt lat="30.616018295" lon="34.809169769">
<ele>801.062500</ele>
<time>2013-11-23T13:05:44Z</time>
<speed>1.080000</speed>
<extensions>
<speed>1.1</speed>
<temp>0.00</temp>
<bpm>0</bpm>
<rpm>0.00</rpm>
</extensions>
</trkpt>
<trkpt lat="30.615932465" lon="34.809192657">
<ele>801.000000</ele>
<time>2013-11-23T13:05:49Z</time>
<speed>1.890000</speed>
<extensions>
<speed>1.9</speed>
<temp>0.00</temp>
<bpm>0</bpm>
<rpm>0.00</rpm>
</extensions>
</trkpt>
<trkpt lat="30.615842819" lon="34.809207916">
<ele>801.734375</ele>
<time>2013-11-23T13:05:54Z</time>
<speed>2.010000</speed>
<extensions>
<speed>2.0</speed>
<temp>0.00</temp>
<bpm>0</bpm>
<rpm>0.00</rpm>
</extensions>
</trkpt>
<trkpt lat="30.615745544" lon="34.809219360">
<ele>801.765625</ele>
<time>2013-11-23T13:05:59Z</time>
<speed>1.970000</speed>
<extensions>
<speed>2.0</speed>
<temp>0.00</temp>
<bpm>0</bpm>
<rpm>0.00</rpm>
</extensions>
</trkpt>
<trkpt lat="30.615673065" lon="34.809219360">
<ele>801.921875</ele>
<time>2013-11-23T13:06:04Z</time>
<speed>0.870000</speed>
<extensions>
<speed>0.9</speed>
<temp>0.00</temp>
<bpm>0</bpm>
<rpm>0.00</rpm>
</extensions>
</trkpt>
<trkpt lat="30.615594864" lon="34.809211731">
<ele>802.109375</ele>
<time>2013-11-23T13:06:09Z</time>
<speed>1.920000</speed>
<extensions>
<speed>1.9</speed>
<temp>0.00</temp>
<bpm>0</bpm>
<rpm>0.00</rpm>
</extensions>
</trkpt>
<trkpt lat="30.615489960" lon="34.809223175">
<ele>805.531250</ele>
<time>2013-11-23T13:06:14Z</time>
<speed>2.040000</speed>
<extensions>
<speed>2.0</speed>
<temp>0.00</temp>
<bpm>0</bpm>
<rpm>0.00</rpm>
</extensions>
</trkpt>
<trkpt lat="30.615383148" lon="34.809234619">
<ele>807.046875</ele>
<time>2013-11-23T13:06:19Z</time>
<speed>2.240000</speed>
<extensions>
<speed>2.2</speed>
<temp>0.00</temp>
<bpm>0</bpm>
<rpm>0.00</rpm>
</extensions>
</trkpt>
<trkpt lat="30.615280151" lon="34.809226990">
<ele>807.718750</ele>
<time>2013-11-23T13:06:24Z</time>
<speed>1.980000</speed>
<extensions>
<speed>2.0</speed>
<temp>0.00</temp>
<bpm>0</bpm>
<rpm>0.00</rpm>
</extensions>
</trkpt>
<trkpt lat="30.615186691" lon="34.809211731">
<ele>807.750000</ele>
<time>2013-11-23T13:06:29Z</time>
<speed>1.900000</speed>
<extensions>
<speed>1.9</speed>
<temp>0.00</temp>
<bpm>0</bpm>
<rpm>0.00</rpm>
</extensions>
</trkpt>
<trkpt lat="30.615102768" lon="34.809204102">
<ele>807.515625</ele>
<time>2013-11-23T13:06:34Z</time>
<speed>2.080000</speed>
<extensions>
<speed>2.1</speed>
<temp>0.00</temp>
<bpm>0</bpm>
<rpm>0.00</rpm>
</extensions>
</trkpt>
<trkpt lat="30.615020752" lon="34.809200287">
<ele>808.656250</ele>
<time>2013-11-23T13:06:39Z</time>
<speed>1.670000</speed>
<extensions>
<speed>1.7</speed>
<temp>0.00</temp>
<bpm>0</bpm>
<rpm>0.00</rpm>
</extensions>
</trkpt>
<trkpt lat="30.614940643" lon="34.809181213">
<ele>808.609375</ele>
<time>2013-11-23T13:06:44Z</time>
<speed>1.590000</speed>
<extensions>
<speed>1.6</speed>
<temp>0.00</temp>
<bpm>0</bpm>
<rpm>0.00</rpm>
</extensions>
</trkpt>
<trkpt lat="30.614866257" lon="34.809173584">
<ele>809.312500</ele>
<time>2013-11-23T13:06:49Z</time>
<speed>1.250000</speed>
<extensions>
<speed>1.3</speed>
<temp>0.00</temp>
<bpm>0</bpm>
<rpm>0.00</rpm>
</extensions>
</trkpt>
<trkpt lat="30.614803314" lon="34.809162140">
<ele>810.578125</ele>
<time>2013-11-23T13:06:54Z</time>
<speed>1.030000</speed>
<extensions>
<speed>1.0</speed>
<temp>0.00</temp>
<bpm>0</bpm>
<rpm>0.00</rpm>
</extensions>
</trkpt>
<trkpt lat="30.614763260" lon="34.809158325">
<ele>811.984375</ele>
<time>2013-11-23T13:06:59Z</time>
<speed>1.050000</speed>
<extensions>
<speed>1.0</speed>
<temp>0.00</temp>
<bpm>0</bpm>
<rpm>0.00</rpm>
</extensions>
</trkpt>
<trkpt lat="30.614707947" lon="34.809150696">
<ele>811.640625</ele>
<time>2013-11-23T13:07:04Z</time>
<speed>1.470000</speed>
<extensions>
<speed>1.5</speed>
<temp>0.00</temp>
<bpm>0</bpm>
<rpm>0.00</rpm>
</extensions>
</trkpt>
<trkpt lat="30.614645004" lon="34.809154510">
<ele>812.140625</ele>
<time>2013-11-23T13:07:09Z</time>
<speed>1.510000</speed>
<extensions>
<speed>1.5</speed>
<temp>0.00</temp>
<bpm>0</bpm>
<rpm>0.00</rpm>
</extensions>
</trkpt>
<trkpt lat="30.614595413" lon="34.809139252">
<ele>812.250000</ele>
<time>2013-11-23T13:07:14Z</time>
<speed>1.170000</speed>
<extensions>
<speed>1.2</speed>
<temp>0.00</temp>
<bpm>0</bpm>
<rpm>0.00</rpm>
</extensions>
</trkpt>
<trkpt lat="30.614540100" lon="34.809146881">
<ele>813.046875</ele>
<time>2013-11-23T13:07:19Z</time>
<speed>1.340000</speed>
<extensions>
<speed>1.3</speed>
<temp>0.00</temp>
<bpm>0</bpm>
<rpm>0.00</rpm>
</extensions>
</trkpt>
<trkpt lat="30.614480972" lon="34.809139252">
<ele>813.906250</ele>
<time>2013-11-23T13:07:24Z</time>
<speed>1.540000</speed>
<extensions>
<speed>1.5</speed>
<temp>0.00</temp>
<bpm>0</bpm>
<rpm>0.00</rpm>
</extensions>
</trkpt>
<trkpt lat="30.614421844" lon="34.809131622">
<ele>814.734375</ele>
<time>2013-11-23T13:07:29Z</time>
<speed>1.420000</speed>
<extensions>
<speed>1.4</speed>
<temp>0.00</temp>
<bpm>0</bpm>
<rpm>0.00</rpm>
</extensions>
</trkpt>
<trkpt lat="30.614358902" lon="34.809123993">
<ele>815.093750</ele>
<time>2013-11-23T13:07:34Z</time>
<speed>1.560000</speed>
<extensions>
<speed>1.6</speed>
<temp>0.00</temp>
<bpm>0</bpm>
<rpm>0.00</rpm>
</extensions>
</trkpt>
<trkpt lat="30.614297867" lon="34.809116364">
<ele>815.500000</ele>
<time>2013-11-23T13:07:39Z</time>
<speed>1.430000</speed>
<extensions>
<speed>1.4</speed>
<temp>0.00</temp>
<bpm>0</bpm>
<rpm>0.00</rpm>
</extensions>
</trkpt>
<trkpt lat="30.614234924" lon="34.809116364">
<ele>816.453125</ele>
<time>2013-11-23T13:07:44Z</time>
<speed>0.950000</speed>
<extensions>
<speed>1.0</speed>
<temp>0.00</temp>
<bpm>0</bpm>
<rpm>0.00</rpm>
</extensions>
</trkpt>
<trkpt lat="30.614179611" lon="34.809108734">
<ele>817.296875</ele>
<time>2013-11-23T13:07:49Z</time>
<speed>1.390000</speed>
<extensions>
<speed>1.4</speed>
<temp>0.00</temp>
<bpm>0</bpm>
<rpm>0.00</rpm>
</extensions>
</trkpt>
<trkpt lat="30.614124298" lon="34.809093475">
<ele>817.250000</ele>
<time>2013-11-23T13:07:54Z</time>
<speed>1.270000</speed>
<extensions>
<speed>1.3</speed>
<temp>0.00</temp>
<bpm>0</bpm>
<rpm>0.00</rpm>
</extensions>
</trkpt>
<trkpt lat="30.614067078" lon="34.809085846">
<ele>817.609375</ele>
<time>2013-11-23T13:07:59Z</time>
<speed>0.500000</speed>
<extensions>
<speed>0.5</speed>
<temp>0.00</temp>
<bpm>0</bpm>
<rpm>0.00</rpm>
</extensions>
</trkpt>
<trkpt lat="30.613994598" lon="34.809074402">
<ele>817.859375</ele>
<time>2013-11-23T13:08:04Z</time>
<speed>1.140000</speed>
<extensions>
<speed>1.1</speed>
<temp>0.00</temp>
<bpm>0</bpm>
<rpm>0.00</rpm>
</extensions>
</trkpt>
<trkpt lat="30.613935471" lon="34.809062958">
<ele>818.843750</ele>
<time>2013-11-23T13:08:09Z</time>
<speed>1.450000</speed>
<extensions>
<speed>1.4</speed>
<temp>0.00</temp>
<bpm>0</bpm>
<rpm>0.00</rpm>
</extensions>
</trkpt>
<trkpt lat="30.613899231" lon="34.809059143">
<ele>820.000000</ele>
<time>2013-11-23T13:08:14Z</time>
<speed>1.410000</speed>
<extensions>
<speed>1.4</speed>
<temp>0.00</temp>
<bpm>0</bpm>
<rpm>0.00</rpm>
</extensions>
</trkpt>
<trkpt lat="30.613843918" lon="34.809055328">
<ele>820.937500</ele>
<time>2013-11-23T13:08:19Z</time>
<speed>1.460000</speed>
<extensions>
<speed>1.5</speed>
<temp>0.00</temp>
<bpm>0</bpm>
<rpm>0.00</rpm>
</extensions>
</trkpt>
<trkpt lat="30.613794327" lon="34.809040070">
<ele>821.078125</ele>
<time>2013-11-23T13:08:24Z</time>
<speed>1.460000</speed>
<extensions>
<speed>1.5</speed>
<temp>0.00</temp>
<bpm>0</bpm>
<rpm>0.00</rpm>
</extensions>
</trkpt>
<trkpt lat="30.613716125" lon="34.809040070">
<ele>822.421875</ele>
<time>2013-11-23T13:08:29Z</time>
<speed>2.070000</speed>
<extensions>
<speed>2.1</speed>
<temp>0.00</temp>
<bpm>0</bpm>
<rpm>0.00</rpm>
</extensions>
</trkpt>
<trkpt lat="30.613624573" lon="34.809020996">
<ele>822.875000</ele>
<time>2013-11-23T13:08:34Z</time>
<speed>1.740000</speed>
<extensions>
<speed>1.7</speed>
<temp>0.00</temp>
<bpm>0</bpm>
<rpm>0.00</rpm>
</extensions>
</trkpt>
<trkpt lat="30.613569260" lon="34.809005737">
<ele>823.296875</ele>
<time>2013-11-23T13:08:39Z</time>
<speed>1.910000</speed>
<extensions>
<speed>1.9</speed>
<temp>0.00</temp>
<bpm>0</bpm>
<rpm>0.00</rpm>
</extensions>
</trkpt>
<trkpt lat="30.613510132" lon="34.808998108">
<ele>823.328125</ele>
<time>2013-11-23T13:08:44Z</time>
<speed>0.060000</speed>
<extensions>
<speed>0.1</speed>
<temp>0.00</temp>
<bpm>0</bpm>
<rpm>0.00</rpm>
</extensions>
</trkpt>
<trkpt lat="30.613527298" lon="34.809001923">
<ele>823.890625</ele>
<time>2013-11-23T13:08:49Z</time>
<speed>0.480000</speed>
<extensions>
<speed>0.5</speed>
<temp>0.00</temp>
<bpm>0</bpm>
<rpm>0.00</rpm>
</extensions>
</trkpt>
<trkpt lat="30.613536835" lon="34.808998108">
<ele>823.734375</ele>
<time>2013-11-23T13:08:54Z</time>
<speed>0.010000</speed>
<extensions>
<speed>0.0</speed>
<temp>0.00</temp>
<bpm>0</bpm>
<rpm>0.00</rpm>
</extensions>
</trkpt>
<trkpt lat="30.613536835" lon="34.808998108">
<ele>823.625000</ele>
<time>2013-11-23T13:08:59Z</time>
<speed>0.080000</speed>
<extensions>
<speed>0.1</speed>
<temp>0.00</temp>
<bpm>0</bpm>
<rpm>0.00</rpm>
</extensions>
</trkpt>
<trkpt lat="30.613531113" lon="34.808990479">
<ele>824.609375</ele>
<time>2013-11-23T13:09:04Z</time>
<speed>0.730000</speed>
<extensions>
<speed>0.7</speed>
<temp>0.00</temp>
<bpm>0</bpm>
<rpm>0.00</rpm>
</extensions>
</trkpt>
<trkpt lat="30.613504410" lon="34.808994293">
<ele>825.843750</ele>
<time>2013-11-23T13:09:09Z</time>
<speed>1.200000</speed>
<extensions>
<speed>1.2</speed>
<temp>0.00</temp>
<bpm>0</bpm>
<rpm>0.00</rpm>
</extensions>
</trkpt>
<trkpt lat="30.613426208" lon="34.808986664">
<ele>826.515625</ele>
<time>2013-11-23T13:09:14Z</time>
<speed>1.980000</speed>
<extensions>
<speed>2.0</speed>
<temp>0.00</temp>
<bpm>0</bpm>
<rpm>0.00</rpm>
</extensions>
</trkpt>
<trkpt lat="30.613336563" lon="34.808982849">
<ele>827.421875</ele>
<time>2013-11-23T13:09:19Z</time>
<speed>2.040000</speed>
<extensions>
<speed>2.0</speed>
<temp>0.00</temp>
<bpm>0</bpm>
<rpm>0.00</rpm>
</extensions>
</trkpt>
<trkpt lat="30.613243103" lon="34.808967590">
<ele>827.875000</ele>
<time>2013-11-23T13:09:24Z</time>
<speed>1.730000</speed>
<extensions>
<speed>1.7</speed>
<temp>0.00</temp>
<bpm>0</bpm>
<rpm>0.00</rpm>
</extensions>
</trkpt>
<trkpt lat="30.613168716" lon="34.808956146">
<ele>829.171875</ele>
<time>2013-11-23T13:09:29Z</time>
<speed>0.790000</speed>
<extensions>
<speed>0.8</speed>
<temp>0.00</temp>
<bpm>0</bpm>
<rpm>0.00</rpm>
</extensions>
</trkpt>
<trkpt lat="30.613101959" lon="34.808952332">
<ele>829.546875</ele>
<time>2013-11-23T13:09:34Z</time>
<speed>1.890000</speed>
<extensions>
<speed>1.9</speed>
<temp>0.00</temp>
<bpm>0</bpm>
<rpm>0.00</rpm>
</extensions>
</trkpt>
<trkpt lat="30.613021851" lon="34.808937073">
<ele>829.734375</ele>
<time>2013-11-23T13:09:39Z</time>
<speed>1.070000</speed>
<extensions>
<speed>1.1</speed>
<temp>0.00</temp>
<bpm>0</bpm>
<rpm>0.00</rpm>
</extensions>
</trkpt>
<trkpt lat="30.612955093" lon="34.808929443">
<ele>830.500000</ele>
<time>2013-11-23T13:09:44Z</time>
<speed>1.780000</speed>
<extensions>
<speed>1.8</speed>
<temp>0.00</temp>
<bpm>0</bpm>
<rpm>0.00</rpm>
</extensions>
</trkpt>
<trkpt lat="30.612884521" lon="34.808921814">
<ele>831.171875</ele>
<time>2013-11-23T13:09:49Z</time>
<speed>1.690000</speed>
<extensions>
<speed>1.7</speed>
<temp>0.00</temp>
<bpm>0</bpm>
<rpm>0.00</rpm>
</extensions>
</trkpt>
<trkpt lat="30.612796783" lon="34.808906555">
<ele>831.765625</ele>
<time>2013-11-23T13:09:54Z</time>
<speed>1.830000</speed>
<extensions>
<speed>1.8</speed>
<temp>0.00</temp>
<bpm>0</bpm>
<rpm>0.00</rpm>
</extensions>
</trkpt>
<trkpt lat="30.612728119" lon="34.808895111">
<ele>832.312500</ele>
<time>2013-11-23T13:09:59Z</time>
<speed>1.790000</speed>
<extensions>
<speed>1.8</speed>
<temp>0.00</temp>
<bpm>0</bpm>
<rpm>0.00</rpm>
</extensions>
</trkpt>
<trkpt lat="30.612665176" lon="34.808887482">
<ele>832.531250</ele>
<time>2013-11-23T13:10:04Z</time>
<speed>0.930000</speed>
<extensions>
<speed>0.9</speed>
<temp>0.00</temp>
<bpm>0</bpm>
<rpm>0.00</rpm>
</extensions>
</trkpt>
<trkpt lat="30.612598419" lon="34.808883667">
<ele>833.750000</ele>
<time>2013-11-23T13:10:09Z</time>
<speed>1.860000</speed>
<extensions>
<speed>1.9</speed>
<temp>0.00</temp>
<bpm>0</bpm>
<rpm>0.00</rpm>
</extensions>
</trkpt>
<trkpt lat="30.612531662" lon="34.808860779">
<ele>833.578125</ele>
<time>2013-11-23T13:10:14Z</time>
<speed>1.520000</speed>
<extensions>
<speed>1.5</speed>
<temp>0.00</temp>
<bpm>0</bpm>
<rpm>0.00</rpm>
</extensions>
</trkpt>
<trkpt lat="30.612459183" lon="34.808856964">
<ele>834.000000</ele>
<time>2013-11-23T13:10:19Z</time>
<speed>1.820000</speed>
<extensions>
<speed>1.8</speed>
<temp>0.00</temp>
<bpm>0</bpm>
<rpm>0.00</rpm>
</extensions>
</trkpt>
<trkpt lat="30.612382889" lon="34.808841705">
<ele>834.484375</ele>
<time>2013-11-23T13:10:24Z</time>
<speed>1.640000</speed>
<extensions>
<speed>1.6</speed>
<temp>0.00</temp>
<bpm>0</bpm>
<rpm>0.00</rpm>
</extensions>
</trkpt>
<trkpt lat="30.612310410" lon="34.808815002">
<ele>834.484375</ele>
<time>2013-11-23T13:10:29Z</time>
<speed>1.750000</speed>
<extensions>
<speed>1.8</speed>
<temp>0.00</temp>
<bpm>0</bpm>
<rpm>0.00</rpm>
</extensions>
</trkpt>
<trkpt lat="30.612228394" lon="34.808792114">
<ele>834.515625</ele>
<time>2013-11-23T13:10:34Z</time>
<speed>1.930000</speed>
<extensions>
<speed>1.9</speed>
<temp>0.00</temp>
<bpm>0</bpm>
<rpm>0.00</rpm>
</extensions>
</trkpt>
<trkpt lat="30.612178802" lon="34.808780670">
<ele>834.703125</ele>
<time>2013-11-23T13:10:39Z</time>
<speed>1.130000</speed>
<extensions>
<speed>1.1</speed>
<temp>0.00</temp>
<bpm>0</bpm>
<rpm>0.00</rpm>
</extensions>
</trkpt>
<trkpt lat="30.612106323" lon="34.808765411">
<ele>835.031250</ele>
<time>2013-11-23T13:10:44Z</time>
<speed>1.720000</speed>
<extensions>
<speed>1.7</speed>
<temp>0.00</temp>
<bpm>0</bpm>
<rpm>0.00</rpm>
</extensions>
</trkpt>
<trkpt lat="30.612075806" lon="34.808727264">
<ele>835.562500</ele>
<time>2013-11-23T13:10:49Z</time>
<speed>1.460000</speed>
<extensions>
<speed>1.5</speed>
<temp>0.00</temp>
<bpm>0</bpm>
<rpm>0.00</rpm>
</extensions>
</trkpt>
<trkpt lat="30.612018585" lon="34.808708191">
<ele>837.031250</ele>
<time>2013-11-23T13:10:54Z</time>
<speed>1.440000</speed>
<extensions>
<speed>1.4</speed>
<temp>0.00</temp>
<bpm>0</bpm>
<rpm>0.00</rpm>
</extensions>
</trkpt>
<trkpt lat="30.611955643" lon="34.808727264">
<ele>838.656250</ele>
<time>2013-11-23T13:10:59Z</time>
<speed>1.440000</speed>
<extensions>
<speed>1.4</speed>
<temp>0.00</temp>
<bpm>0</bpm>
<rpm>0.00</rpm>
</extensions>
</trkpt>
<trkpt lat="30.611883163" lon="34.808723450">
<ele>839.218750</ele>
<time>2013-11-23T13:11:04Z</time>
<speed>1.750000</speed>
<extensions>
<speed>1.8</speed>
<temp>0.00</temp>
<bpm>0</bpm>
<rpm>0.00</rpm>
</extensions>
</trkpt>
<trkpt lat="30.611808777" lon="34.808704376">
<ele>840.125000</ele>
<time>2013-11-23T13:11:09Z</time>
<speed>1.560000</speed>
<extensions>
<speed>1.6</speed>
<temp>0.00</temp>
<bpm>0</bpm>
<rpm>0.00</rpm>
</extensions>
</trkpt>
<trkpt lat="30.611738205" lon="34.808685303">
<ele>840.328125</ele>
<time>2013-11-23T13:11:14Z</time>
<speed>1.240000</speed>
<extensions>
<speed>1.2</speed>
<temp>0.00</temp>
<bpm>0</bpm>
<rpm>0.00</rpm>
</extensions>
</trkpt>
<trkpt lat="30.611673355" lon="34.808666229">
<ele>840.796875</ele>
<time>2013-11-23T13:11:19Z</time>
<speed>1.770000</speed>
<extensions>
<speed>1.8</speed>
<temp>0.00</temp>
<bpm>0</bpm>
<rpm>0.00</rpm>
</extensions>
</trkpt>
<trkpt lat="30.611621857" lon="34.808654785">
<ele>840.875000</ele>
<time>2013-11-23T13:11:24Z</time>
<speed>1.270000</speed>
<extensions>
<speed>1.3</speed>
<temp>0.00</temp>
<bpm>0</bpm>
<rpm>0.00</rpm>
</extensions>
</trkpt>
<trkpt lat="30.611555099" lon="34.808635712">
<ele>841.046875</ele>
<time>2013-11-23T13:11:29Z</time>
<speed>1.550000</speed>
<extensions>
<speed>1.5</speed>
<temp>0.00</temp>
<bpm>0</bpm>
<rpm>0.00</rpm>
</extensions>
</trkpt>
<trkpt lat="30.611488342" lon="34.808612823">
<ele>841.312500</ele>
<time>2013-11-23T13:11:34Z</time>
<speed>1.080000</speed>
<extensions>
<speed>1.1</speed>
<temp>0.00</temp>
<bpm>0</bpm>
<rpm>0.00</rpm>
</extensions>
</trkpt>
<trkpt lat="30.611425400" lon="34.808593750">
<ele>841.718750</ele>
<time>2013-11-23T13:11:39Z</time>
<speed>1.380000</speed>
<extensions>
<speed>1.4</speed>
<temp>0.00</temp>
<bpm>0</bpm>
<rpm>0.00</rpm>
</extensions>
</trkpt>
<trkpt lat="30.611356735" lon="34.808574677">
<ele>841.875000</ele>
<time>2013-11-23T13:11:44Z</time>
<speed>1.680000</speed>
<extensions>
<speed>1.7</speed>
<temp>0.00</temp>
<bpm>0</bpm>
<rpm>0.00</rpm>
</extensions>
</trkpt>
<trkpt lat="30.611286163" lon="34.808547974">
<ele>842.531250</ele>
<time>2013-11-23T13:11:49Z</time>
<speed>1.790000</speed>
<extensions>
<speed>1.8</speed>
<temp>0.00</temp>
<bpm>0</bpm>
<rpm>0.00</rpm>
</extensions>
</trkpt>
<trkpt lat="30.611236572" lon="34.808540344">
<ele>842.984375</ele>
<time>2013-11-23T13:11:54Z</time>
<speed>1.050000</speed>
<extensions>
<speed>1.0</speed>
<temp>0.00</temp>
<bpm>0</bpm>
<rpm>0.00</rpm>
</extensions>
</trkpt>
<trkpt lat="30.611185074" lon="34.808525085">
<ele>843.718750</ele>
<time>2013-11-23T13:11:59Z</time>
<speed>1.730000</speed>
<extensions>
<speed>1.7</speed>
<temp>0.00</temp>
<bpm>0</bpm>
<rpm>0.00</rpm>
</extensions>
</trkpt>
<trkpt lat="30.611118317" lon="34.808509827">
<ele>844.562500</ele>
<time>2013-11-23T13:12:04Z</time>
<speed>1.650000</speed>
<extensions>
<speed>1.7</speed>
<temp>0.00</temp>
<bpm>0</bpm>
<rpm>0.00</rpm>
</extensions>
</trkpt>
<trkpt lat="30.611053467" lon="34.808494568">
<ele>844.812500</ele>
<time>2013-11-23T13:12:09Z</time>
<speed>0.740000</speed>
<extensions>
<speed>0.7</speed>
<temp>0.00</temp>
<bpm>0</bpm>
<rpm>0.00</rpm>
</extensions>
</trkpt>
<trkpt lat="30.610998154" lon="34.808475494">
<ele>845.281250</ele>
<time>2013-11-23T13:12:14Z</time>
<speed>1.610000</speed>
<extensions>
<speed>1.6</speed>
<temp>0.00</temp>
<bpm>0</bpm>
<rpm>0.00</rpm>
</extensions>
</trkpt>
<trkpt lat="30.610929489" lon="34.808444977">
<ele>845.703125</ele>
<time>2013-11-23T13:12:19Z</time>
<speed>1.750000</speed>
<extensions>
<speed>1.8</speed>
<temp>0.00</temp>
<bpm>0</bpm>
<rpm>0.00</rpm>
</extensions>
</trkpt>
<trkpt lat="30.610860825" lon="34.808425903">
<ele>847.765625</ele>
<time>2013-11-23T13:12:24Z</time>
<speed>1.680000</speed>
<extensions>
<speed>1.7</speed>
<temp>0.00</temp>
<bpm>0</bpm>
<rpm>0.00</rpm>
</extensions>
</trkpt>
<trkpt lat="30.610811234" lon="34.808414459">
<ele>848.265625</ele>
<time>2013-11-23T13:12:29Z</time>
<speed>1.210000</speed>
<extensions>
<speed>1.2</speed>
<temp>0.00</temp>
<bpm>0</bpm>
<rpm>0.00</rpm>
</extensions>
</trkpt>
<trkpt lat="30.610765457" lon="34.808391571">
<ele>848.578125</ele>
<time>2013-11-23T13:12:34Z</time>
<speed>1.130000</speed>
<extensions>
<speed>1.1</speed>
<temp>0.00</temp>
<bpm>0</bpm>
<rpm>0.00</rpm>
</extensions>
</trkpt>
<trkpt lat="30.610713959" lon="34.808364868">
<ele>848.187500</ele>
<time>2013-11-23T13:12:39Z</time>
<speed>1.140000</speed>
<extensions>
<speed>1.1</speed>
<temp>0.00</temp>
<bpm>0</bpm>
<rpm>0.00</rpm>
</extensions>
</trkpt>
<trkpt lat="30.610651016" lon="34.808345795">
<ele>848.687500</ele>
<time>2013-11-23T13:12:44Z</time>
<speed>1.050000</speed>
<extensions>
<speed>1.0</speed>
<temp>0.00</temp>
<bpm>0</bpm>
<rpm>0.00</rpm>
</extensions>
</trkpt>
<trkpt lat="30.610605240" lon="34.808319092">
<ele>848.890625</ele>
<time>2013-11-23T13:12:49Z</time>
<speed>1.270000</speed>
<extensions>
<speed>1.3</speed>
<temp>0.00</temp>
<bpm>0</bpm>
<rpm>0.00</rpm>
</extensions>
</trkpt>
<trkpt lat="30.610551834" lon="34.808311462">
<ele>849.531250</ele>
<time>2013-11-23T13:12:54Z</time>
<speed>0.750000</speed>
<extensions>
<speed>0.8</speed>
<temp>0.00</temp>
<bpm>0</bpm>
<rpm>0.00</rpm>
</extensions>
</trkpt>
<trkpt lat="30.610502243" lon="34.808292389">
<ele>850.218750</ele>
<time>2013-11-23T13:12:59Z</time>
<speed>1.440000</speed>
<extensions>
<speed>1.4</speed>
<temp>0.00</temp>
<bpm>0</bpm>
<rpm>0.00</rpm>
</extensions>
</trkpt>
<trkpt lat="30.610443115" lon="34.808261871">
<ele>851.187500</ele>
<time>2013-11-23T13:13:04Z</time>
<speed>1.480000</speed>
<extensions>
<speed>1.5</speed>
<temp>0.00</temp>
<bpm>0</bpm>
<rpm>0.00</rpm>
</extensions>
</trkpt>
<trkpt lat="30.610376358" lon="34.808246613">
<ele>851.578125</ele>
<time>2013-11-23T13:13:09Z</time>
<speed>1.250000</speed>
<extensions>
<speed>1.3</speed>
<temp>0.00</temp>
<bpm>0</bpm>
<rpm>0.00</rpm>
</extensions>
</trkpt>
<trkpt lat="30.610322952" lon="34.808235168">
<ele>853.046875</ele>
<time>2013-11-23T13:13:14Z</time>
<speed>1.540000</speed>
<extensions>
<speed>1.5</speed>
<temp>0.00</temp>
<bpm>0</bpm>
<rpm>0.00</rpm>
</extensions>
</trkpt>
<trkpt lat="30.610254288" lon="34.808204651">
<ele>853.843750</ele>
<time>2013-11-23T13:13:19Z</time>
<speed>0.630000</speed>
<extensions>
<speed>0.6</speed>
<temp>0.00</temp>
<bpm>0</bpm>
<rpm>0.00</rpm>
</extensions>
</trkpt>
<trkpt lat="30.610206604" lon="34.808193207">
<ele>853.796875</ele>
<time>2013-11-23T13:13:24Z</time>
<speed>0.440000</speed>
<extensions>
<speed>0.4</speed>
<temp>0.00</temp>
<bpm>0</bpm>
<rpm>0.00</rpm>
</extensions>
</trkpt>
<trkpt lat="30.610145569" lon="34.808177948">
<ele>854.578125</ele>
<time>2013-11-23T13:13:29Z</time>
<speed>1.220000</speed>
<extensions>
<speed>1.2</speed>
<temp>0.00</temp>
<bpm>0</bpm>
<rpm>0.00</rpm>
</extensions>
</trkpt>
<trkpt lat="30.610084534" lon="34.808162689">
<ele>855.484375</ele>
<time>2013-11-23T13:13:34Z</time>
<speed>1.250000</speed>
<extensions>
<speed>1.3</speed>
<temp>0.00</temp>
<bpm>0</bpm>
<rpm>0.00</rpm>
</extensions>
</trkpt>
<trkpt lat="30.610033035" lon="34.808135986">
<ele>855.890625</ele>
<time>2013-11-23T13:13:39Z</time>
<speed>1.110000</speed>
<extensions>
<speed>1.1</speed>
<temp>0.00</temp>
<bpm>0</bpm>
<rpm>0.00</rpm>
</extensions>
</trkpt>
<trkpt lat="30.609991074" lon="34.808124542">
<ele>856.812500</ele>
<time>2013-11-23T13:13:44Z</time>
<speed>1.360000</speed>
<extensions>
<speed>1.4</speed>
<temp>0.00</temp>
<bpm>0</bpm>
<rpm>0.00</rpm>
</extensions>
</trkpt>
<trkpt lat="30.609947205" lon="34.808078766">
<ele>857.625000</ele>
<time>2013-11-23T13:13:49Z</time>
<speed>1.420000</speed>
<extensions>
<speed>1.4</speed>
<temp>0.00</temp>
<bpm>0</bpm>
<rpm>0.00</rpm>
</extensions>
</trkpt>
<trkpt lat="30.609905243" lon="34.808021545">
<ele>857.421875</ele>
<time>2013-11-23T13:13:54Z</time>
<speed>0.780000</speed>
<extensions>
<speed>0.8</speed>
<temp>0.00</temp>
<bpm>0</bpm>
<rpm>0.00</rpm>
</extensions>
</trkpt>
<trkpt lat="30.609863281" lon="34.807971954">
<ele>858.171875</ele>
<time>2013-11-23T13:13:59Z</time>
<speed>1.810000</speed>
<extensions>
<speed>1.8</speed>
<temp>0.00</temp>
<bpm>0</bpm>
<rpm>0.00</rpm>
</extensions>
</trkpt>
<trkpt lat="30.609800339" lon="34.807899475">
<ele>860.593750</ele>
<time>2013-11-23T13:14:04Z</time>
<speed>1.370000</speed>
<extensions>
<speed>1.4</speed>
<temp>0.00</temp>
<bpm>0</bpm>
<rpm>0.00</rpm>
</extensions>
</trkpt>
<trkpt lat="30.609764099" lon="34.807834625">
<ele>861.187500</ele>
<time>2013-11-23T13:14:09Z</time>
<speed>1.630000</speed>
<extensions>
<speed>1.6</speed>
<temp>0.00</temp>
<bpm>0</bpm>
<rpm>0.00</rpm>
</extensions>
</trkpt>
<trkpt lat="30.609743118" lon="34.807769775">
<ele>862.281250</ele>
<time>2013-11-23T13:14:14Z</time>
<speed>0.970000</speed>
<extensions>
<speed>1.0</speed>
<temp>0.00</temp>
<bpm>0</bpm>
<rpm>0.00</rpm>
</extensions>
</trkpt>
<trkpt lat="30.609737396" lon="34.807720184">
<ele>863.453125</ele>
<time>2013-11-23T13:14:19Z</time>
<speed>1.200000</speed>
<extensions>
<speed>1.2</speed>
<temp>0.00</temp>
<bpm>0</bpm>
<rpm>0.00</rpm>
</extensions>
</trkpt>
<trkpt lat="30.609722137" lon="34.807655334">
<ele>865.843750</ele>
<time>2013-11-23T13:14:24Z</time>
<speed>1.700000</speed>
<extensions>
<speed>1.7</speed>
<temp>0.00</temp>
<bpm>0</bpm>
<rpm>0.00</rpm>
</extensions>
</trkpt>
<trkpt lat="30.609722137" lon="34.807594299">
<ele>867.687500</ele>
<time>2013-11-23T13:14:29Z</time>
<speed>0.910000</speed>
<extensions>
<speed>0.9</speed>
<temp>0.00</temp>
<bpm>0</bpm>
<rpm>0.00</rpm>
</extensions>
</trkpt>
<trkpt lat="30.609722137" lon="34.807525635">
<ele>868.593750</ele>
<time>2013-11-23T13:14:34Z</time>
<speed>1.290000</speed>
<extensions>
<speed>1.3</speed>
<temp>0.00</temp>
<bpm>0</bpm>
<rpm>0.00</rpm>
</extensions>
</trkpt>
<trkpt lat="30.609737396" lon="34.807411194">
<ele>867.968750</ele>
<time>2013-11-23T13:14:39Z</time>
<speed>2.410000</speed>
<extensions>
<speed>2.4</speed>
<temp>0.00</temp>
<bpm>0</bpm>
<rpm>0.00</rpm>
</extensions>
</trkpt>
<trkpt lat="30.609752655" lon="34.807323456">
<ele>868.312500</ele>
<time>2013-11-23T13:14:44Z</time>
<speed>1.680000</speed>
<extensions>
<speed>1.7</speed>
<temp>0.00</temp>
<bpm>0</bpm>
<rpm>0.00</rpm>
</extensions>
</trkpt>
<trkpt lat="30.609781265" lon="34.807197571">
<ele>869.796875</ele>
<time>2013-11-23T13:14:49Z</time>
<speed>3.010000</speed>
<extensions>
<speed>3.0</speed>
<temp>0.00</temp>
<bpm>0</bpm>
<rpm>0.00</rpm>
</extensions>
</trkpt>
<trkpt lat="30.609792709" lon="34.807106018">
<ele>870.625000</ele>
<time>2013-11-23T13:14:54Z</time>
<speed>1.330000</speed>
<extensions>
<speed>1.3</speed>
<temp>0.00</temp>
<bpm>0</bpm>
<rpm>0.00</rpm>
</extensions>
</trkpt>
<trkpt lat="30.609828949" lon="34.807029724">
<ele>871.218750</ele>
<time>2013-11-23T13:14:59Z</time>
<speed>1.080000</speed>
<extensions>
<speed>1.1</speed>
<temp>0.00</temp>
<bpm>0</bpm>
<rpm>0.00</rpm>
</extensions>
</trkpt>
<trkpt lat="30.609872818" lon="34.806957245">
<ele>871.718750</ele>
<time>2013-11-23T13:15:04Z</time>
<speed>1.730000</speed>
<extensions>
<speed>1.7</speed>
<temp>0.00</temp>
<bpm>0</bpm>
<rpm>0.00</rpm>
</extensions>
</trkpt>
<trkpt lat="30.609928131" lon="34.806892395">
<ele>872.718750</ele>
<time>2013-11-23T13:15:09Z</time>
<speed>1.250000</speed>
<extensions>
<speed>1.3</speed>
<temp>0.00</temp>
<bpm>0</bpm>
<rpm>0.00</rpm>
</extensions>
</trkpt>
<trkpt lat="30.609992981" lon="34.806827545">
<ele>874.125000</ele>
<time>2013-11-23T13:15:14Z</time>
<speed>2.220000</speed>
<extensions>
<speed>2.2</speed>
<temp>0.00</temp>
<bpm>0</bpm>
<rpm>0.00</rpm>
</extensions>
</trkpt>
<trkpt lat="30.610048294" lon="34.806789398">
<ele>876.468750</ele>
<time>2013-11-23T13:15:19Z</time>
<speed>1.510000</speed>
<extensions>
<speed>1.5</speed>
<temp>0.00</temp>
<bpm>0</bpm>
<rpm>0.00</rpm>
</extensions>
</trkpt>
<trkpt lat="30.610095978" lon="34.806743622">
<ele>875.234375</ele>
<time>2013-11-23T13:15:24Z</time>
<speed>1.510000</speed>
<extensions>
<speed>1.5</speed>
<temp>0.00</temp>
<bpm>0</bpm>
<rpm>0.00</rpm>
</extensions>
</trkpt>
<trkpt lat="30.610157013" lon="34.806678772">
<ele>874.546875</ele>
<time>2013-11-23T13:15:29Z</time>
<speed>1.590000</speed>
<extensions>
<speed>1.6</speed>
<temp>0.00</temp>
<bpm>0</bpm>
<rpm>0.00</rpm>
</extensions>
</trkpt>
<trkpt lat="30.610179901" lon="34.806625366">
<ele>876.156250</ele>
<time>2013-11-23T13:15:34Z</time>
<speed>2.070000</speed>
<extensions>
<speed>2.1</speed>
<temp>0.00</temp>
<bpm>0</bpm>
<rpm>0.00</rpm>
</extensions>
</trkpt>
<trkpt lat="30.610233307" lon="34.806560516">
<ele>874.875000</ele>
<time>2013-11-23T13:15:39Z</time>
<speed>1.570000</speed>
<extensions>
<speed>1.6</speed>
<temp>0.00</temp>
<bpm>0</bpm>
<rpm>0.00</rpm>
</extensions>
</trkpt>
<trkpt lat="30.610301971" lon="34.806480408">
<ele>872.890625</ele>
<time>2013-11-23T13:15:44Z</time>
<speed>1.590000</speed>
<extensions>
<speed>1.6</speed>
<temp>0.00</temp>
<bpm>0</bpm>
<rpm>0.00</rpm>
</extensions>
</trkpt>
<trkpt lat="30.610340118" lon="34.806434631">
<ele>871.390625</ele>
<time>2013-11-23T13:15:49Z</time>
<speed>1.810000</speed>
<extensions>
<speed>1.8</speed>
<temp>0.00</temp>
<bpm>0</bpm>
<rpm>0.00</rpm>
</extensions>
</trkpt>
<trkpt lat="30.610408783" lon="34.806358337">
<ele>870.828125</ele>
<time>2013-11-23T13:15:54Z</time>
<speed>2.030000</speed>
<extensions>
<speed>2.0</speed>
<temp>0.00</temp>
<bpm>0</bpm>
<rpm>0.00</rpm>
</extensions>
</trkpt>
<trkpt lat="30.610477448" lon="34.806259155">
<ele>869.796875</ele>
<time>2013-11-23T13:15:59Z</time>
<speed>2.270000</speed>
<extensions>
<speed>2.3</speed>
<temp>0.00</temp>
<bpm>0</bpm>
<rpm>0.00</rpm>
</extensions>
</trkpt>
<trkpt lat="30.610528946" lon="34.806190491">
<ele>868.593750</ele>
<time>2013-11-23T13:16:04Z</time>
<speed>1.260000</speed>
<extensions>
<speed>1.3</speed>
<temp>0.00</temp>
<bpm>0</bpm>
<rpm>0.00</rpm>
</extensions>
</trkpt>
<trkpt lat="30.610584259" lon="34.806102753">
<ele>867.687500</ele>
<time>2013-11-23T13:16:09Z</time>
<speed>2.100000</speed>
<extensions>
<speed>2.1</speed>
<temp>0.00</temp>
<bpm>0</bpm>
<rpm>0.00</rpm>
</extensions>
</trkpt>
<trkpt lat="30.610628128" lon="34.806049347">
<ele>866.281250</ele>
<time>2013-11-23T13:16:14Z</time>
<speed>0.910000</speed>
<extensions>
<speed>0.9</speed>
<temp>0.00</temp>
<bpm>0</bpm>
<rpm>0.00</rpm>
</extensions>
</trkpt>
<trkpt lat="30.610652924" lon="34.805999756">
<ele>865.812500</ele>
<time>2013-11-23T13:16:19Z</time>
<speed>1.020000</speed>
<extensions>
<speed>1.0</speed>
<temp>0.00</temp>
<bpm>0</bpm>
<rpm>0.00</rpm>
</extensions>
</trkpt>
<trkpt lat="30.610694885" lon="34.805957794">
<ele>865.109375</ele>
<time>2013-11-23T13:16:24Z</time>
<speed>1.710000</speed>
<extensions>
<speed>1.7</speed>
<temp>0.00</temp>
<bpm>0</bpm>
<rpm>0.00</rpm>
</extensions>
</trkpt>
<trkpt lat="30.610721588" lon="34.805900574">
<ele>864.109375</ele>
<time>2013-11-23T13:16:29Z</time>
<speed>1.650000</speed>
<extensions>
<speed>1.7</speed>
<temp>0.00</temp>
<bpm>0</bpm>
<rpm>0.00</rpm>
</extensions>
</trkpt>
<trkpt lat="30.610765457" lon="34.805847168">
<ele>863.718750</ele>
<time>2013-11-23T13:16:34Z</time>
<speed>0.830000</speed>
<extensions>
<speed>0.8</speed>
<temp>0.00</temp>
<bpm>0</bpm>
<rpm>0.00</rpm>
</extensions>
</trkpt>
<trkpt lat="30.610803604" lon="34.805801392">
<ele>863.390625</ele>
<time>2013-11-23T13:16:39Z</time>
<speed>1.080000</speed>
<extensions>
<speed>1.1</speed>
<temp>0.00</temp>
<bpm>0</bpm>
<rpm>0.00</rpm>
</extensions>
</trkpt>
<trkpt lat="30.610845566" lon="34.805751801">
<ele>863.500000</ele>
<time>2013-11-23T13:16:44Z</time>
<speed>2.320000</speed>
<extensions>
<speed>2.3</speed>
<temp>0.00</temp>
<bpm>0</bpm>
<rpm>0.00</rpm>
</extensions>
</trkpt>
<trkpt lat="30.610919952" lon="34.805660248">
<ele>863.406250</ele>
<time>2013-11-23T13:16:49Z</time>
<speed>1.770000</speed>
<extensions>
<speed>1.8</speed>
<temp>0.00</temp>
<bpm>0</bpm>
<rpm>0.00</rpm>
</extensions>
</trkpt>
<trkpt lat="30.610969543" lon="34.805599213">
<ele>862.750000</ele>
<time>2013-11-23T13:16:54Z</time>
<speed>2.630000</speed>
<extensions>
<speed>2.6</speed>
<temp>0.00</temp>
<bpm>0</bpm>
<rpm>0.00</rpm>
</extensions>
</trkpt>
<trkpt lat="30.611028671" lon="34.805500031">
<ele>862.234375</ele>
<time>2013-11-23T13:16:59Z</time>
<speed>1.860000</speed>
<extensions>
<speed>1.9</speed>
<temp>0.00</temp>
<bpm>0</bpm>
<rpm>0.00</rpm>
</extensions>
</trkpt>
<trkpt lat="30.611030579" lon="34.805431366">
<ele>862.437500</ele>
<time>2013-11-23T13:17:04Z</time>
<speed>1.360000</speed>
<extensions>
<speed>1.4</speed>
<temp>0.00</temp>
<bpm>0</bpm>
<rpm>0.00</rpm>
</extensions>
</trkpt>
<trkpt lat="30.610960007" lon="34.805385590">
<ele>863.250000</ele>
<time>2013-11-23T13:17:09Z</time>
<speed>1.760000</speed>
<extensions>
<speed>1.8</speed>
<temp>0.00</temp>
<bpm>0</bpm>
<rpm>0.00</rpm>
</extensions>
</trkpt>
<trkpt lat="30.610969543" lon="34.805278778">
<ele>863.078125</ele>
<time>2013-11-23T13:17:14Z</time>
<speed>2.440000</speed>
<extensions>
<speed>2.4</speed>
<temp>0.00</temp>
<bpm>0</bpm>
<rpm>0.00</rpm>
</extensions>
</trkpt>
<trkpt lat="30.610952377" lon="34.805152893">
<ele>862.890625</ele>
<time>2013-11-23T13:17:19Z</time>
<speed>2.250000</speed>
<extensions>
<speed>2.3</speed>
<temp>0.00</temp>
<bpm>0</bpm>
<rpm>0.00</rpm>
</extensions>
</trkpt>
<trkpt lat="30.610893250" lon="34.804988861">
<ele>860.640625</ele>
<time>2013-11-23T13:17:24Z</time>
<speed>2.210000</speed>
<extensions>
<speed>2.2</speed>
<temp>0.00</temp>
<bpm>0</bpm>
<rpm>0.00</rpm>
</extensions>
</trkpt>
<trkpt lat="30.610792160" lon="34.804985046">
<ele>858.359375</ele>
<time>2013-11-23T13:17:29Z</time>
<speed>2.510000</speed>
<extensions>
<speed>2.5</speed>
<temp>0.00</temp>
<bpm>0</bpm>
<rpm>0.00</rpm>
</extensions>
</trkpt>
<trkpt lat="30.610683441" lon="34.805030823">
<ele>855.671875</ele>
<time>2013-11-23T13:17:34Z</time>
<speed>2.570000</speed>
<extensions>
<speed>2.6</speed>
<temp>0.00</temp>
<bpm>0</bpm>
<rpm>0.00</rpm>
</extensions>
</trkpt>
<trkpt lat="30.610578537" lon="34.805130005">
<ele>853.593750</ele>
<time>2013-11-23T13:17:39Z</time>
<speed>3.270000</speed>
<extensions>
<speed>3.3</speed>
<temp>0.00</temp>
<bpm>0</bpm>
<rpm>0.00</rpm>
</extensions>
</trkpt>
<trkpt lat="30.610456467" lon="34.805252075">
<ele>851.953125</ele>
<time>2013-11-23T13:17:44Z</time>
<speed>3.490000</speed>
<extensions>
<speed>3.5</speed>
<temp>0.00</temp>
<bpm>0</bpm>
<rpm>0.00</rpm>
</extensions>
</trkpt>
<trkpt lat="30.610361099" lon="34.805351257">
<ele>850.734375</ele>
<time>2013-11-23T13:17:49Z</time>
<speed>2.610000</speed>
<extensions>
<speed>2.6</speed>
<temp>0.00</temp>
<bpm>0</bpm>
<rpm>0.00</rpm>
</extensions>
</trkpt>
<trkpt lat="30.610263824" lon="34.805438995">
<ele>849.515625</ele>
<time>2013-11-23T13:17:54Z</time>
<speed>3.210000</speed>
<extensions>
<speed>3.2</speed>
<temp>0.00</temp>
<bpm>0</bpm>
<rpm>0.00</rpm>
</extensions>
</trkpt>
<trkpt lat="30.610181808" lon="34.805515289">
<ele>849.640625</ele>
<time>2013-11-23T13:17:59Z</time>
<speed>1.080000</speed>
<extensions>
<speed>1.1</speed>
<temp>0.00</temp>
<bpm>0</bpm>
<rpm>0.00</rpm>
</extensions>
</trkpt>
<trkpt lat="30.610137939" lon="34.805541992">
<ele>849.437500</ele>
<time>2013-11-23T13:18:04Z</time>
<speed>1.650000</speed>
<extensions>
<speed>1.7</speed>
<temp>0.00</temp>
<bpm>0</bpm>
<rpm>0.00</rpm>
</extensions>
</trkpt>
<trkpt lat="30.610086441" lon="34.805576324">
<ele>849.265625</ele>
<time>2013-11-23T13:18:09Z</time>
<speed>0.810000</speed>
<extensions>
<speed>0.8</speed>
<temp>0.00</temp>
<bpm>0</bpm>
<rpm>0.00</rpm>
</extensions>
</trkpt>
<trkpt lat="30.610042572" lon="34.805610657">
<ele>848.234375</ele>
<time>2013-11-23T13:18:14Z</time>
<speed>0.990000</speed>
<extensions>
<speed>1.0</speed>
<temp>0.00</temp>
<bpm>0</bpm>
<rpm>0.00</rpm>
</extensions>
</trkpt>
<trkpt lat="30.610006332" lon="34.805648804">
<ele>848.984375</ele>
<time>2013-11-23T13:18:19Z</time>
<speed>1.210000</speed>
<extensions>
<speed>1.2</speed>
<temp>0.00</temp>
<bpm>0</bpm>
<rpm>0.00</rpm>
</extensions>
</trkpt>
<trkpt lat="30.609979630" lon="34.805679321">
<ele>849.125000</ele>
<time>2013-11-23T13:18:24Z</time>
<speed>0.960000</speed>
<extensions>
<speed>1.0</speed>
<temp>0.00</temp>
<bpm>0</bpm>
<rpm>0.00</rpm>
</extensions>
</trkpt>
<trkpt lat="30.609930038" lon="34.805709839">
<ele>848.921875</ele>
<time>2013-11-23T13:18:29Z</time>
<speed>1.260000</speed>
<extensions>
<speed>1.3</speed>
<temp>0.00</temp>
<bpm>0</bpm>
<rpm>0.00</rpm>
</extensions>
</trkpt>
<trkpt lat="30.609897614" lon="34.805744171">
<ele>849.734375</ele>
<time>2013-11-23T13:18:34Z</time>
<speed>1.190000</speed>
<extensions>
<speed>1.2</speed>
<temp>0.00</temp>
<bpm>0</bpm>
<rpm>0.00</rpm>
</extensions>
</trkpt>
<trkpt lat="30.609848022" lon="34.805763245">
<ele>850.156250</ele>
<time>2013-11-23T13:18:39Z</time>
<speed>1.340000</speed>
<extensions>
<speed>1.3</speed>
<temp>0.00</temp>
<bpm>0</bpm>
<rpm>0.00</rpm>
</extensions>
</trkpt>
<trkpt lat="30.609802246" lon="34.805805206">
<ele>850.234375</ele>
<time>2013-11-23T13:18:44Z</time>
<speed>0.910000</speed>
<extensions>
<speed>0.9</speed>
<temp>0.00</temp>
<bpm>0</bpm>
<rpm>0.00</rpm>
</extensions>
</trkpt>
<trkpt lat="30.609777451" lon="34.805809021">
<ele>850.375000</ele>
<time>2013-11-23T13:18:49Z</time>
<speed>1.350000</speed>
<extensions>
<speed>1.4</speed>
<temp>0.00</temp>
<bpm>0</bpm>
<rpm>0.00</rpm>
</extensions>
</trkpt>
<trkpt lat="30.609741211" lon="34.805858612">
<ele>850.859375</ele>
<time>2013-11-23T13:18:54Z</time>
<speed>1.340000</speed>
<extensions>
<speed>1.3</speed>
<temp>0.00</temp>
<bpm>0</bpm>
<rpm>0.00</rpm>
</extensions>
</trkpt>
<trkpt lat="30.609691620" lon="34.805896759">
<ele>850.656250</ele>
<time>2013-11-23T13:18:59Z</time>
<speed>1.330000</speed>
<extensions>
<speed>1.3</speed>
<temp>0.00</temp>
<bpm>0</bpm>
<rpm>0.00</rpm>
</extensions>
</trkpt>
<trkpt lat="30.609647751" lon="34.805942535">
<ele>850.921875</ele>
<time>2013-11-23T13:19:04Z</time>
<speed>1.570000</speed>
<extensions>
<speed>1.6</speed>
<temp>0.00</temp>
<bpm>0</bpm>
<rpm>0.00</rpm>
</extensions>
</trkpt>
<trkpt lat="30.609588623" lon="34.805984497">
<ele>852.109375</ele>
<time>2013-11-23T13:19:09Z</time>
<speed>1.600000</speed>
<extensions>
<speed>1.6</speed>
<temp>0.00</temp>
<bpm>0</bpm>
<rpm>0.00</rpm>
</extensions>
</trkpt>
<trkpt lat="30.609525681" lon="34.806015015">
<ele>852.109375</ele>
<time>2013-11-23T13:19:14Z</time>
<speed>1.790000</speed>
<extensions>
<speed>1.8</speed>
<temp>0.00</temp>
<bpm>0</bpm>
<rpm>0.00</rpm>
</extensions>
</trkpt>
<trkpt lat="30.609460831" lon="34.806072235">
<ele>854.046875</ele>
<time>2013-11-23T13:19:19Z</time>
<speed>1.840000</speed>
<extensions>
<speed>1.8</speed>
<temp>0.00</temp>
<bpm>0</bpm>
<rpm>0.00</rpm>
</extensions>
</trkpt>
<trkpt lat="30.609399796" lon="34.806140900">
<ele>855.484375</ele>
<time>2013-11-23T13:19:24Z</time>
<speed>3.020000</speed>
<extensions>
<speed>3.0</speed>
<temp>0.00</temp>
<bpm>0</bpm>
<rpm>0.00</rpm>
</extensions>
</trkpt>
<trkpt lat="30.609298706" lon="34.806209564">
<ele>855.859375</ele>
<time>2013-11-23T13:19:29Z</time>
<speed>1.980000</speed>
<extensions>
<speed>2.0</speed>
<temp>0.00</temp>
<bpm>0</bpm>
<rpm>0.00</rpm>
</extensions>
</trkpt>
<trkpt lat="30.609172821" lon="34.806186676">
<ele>856.218750</ele>
<time>2013-11-23T13:19:34Z</time>
<speed>2.380000</speed>
<extensions>
<speed>2.4</speed>
<temp>0.00</temp>
<bpm>0</bpm>
<rpm>0.00</rpm>
</extensions>
</trkpt>
<trkpt lat="30.609073639" lon="34.806125641">
<ele>857.531250</ele>
<time>2013-11-23T13:19:39Z</time>
<speed>3.060000</speed>
<extensions>
<speed>3.1</speed>
<temp>0.00</temp>
<bpm>0</bpm>
<rpm>0.00</rpm>
</extensions>
</trkpt>
<trkpt lat="30.608947754" lon="34.806056976">
<ele>857.421875</ele>
<time>2013-11-23T13:19:44Z</time>
<speed>2.000000</speed>
<extensions>
<speed>2.0</speed>
<temp>0.00</temp>
<bpm>0</bpm>
<rpm>0.00</rpm>
</extensions>
</trkpt>
<trkpt lat="30.608846664" lon="34.806003571">
<ele>857.593750</ele>
<time>2013-11-23T13:19:49Z</time>
<speed>2.560000</speed>
<extensions>
<speed>2.6</speed>
<temp>0.00</temp>
<bpm>0</bpm>
<rpm>0.00</rpm>
</extensions>
</trkpt>
<trkpt lat="30.608734131" lon="34.805942535">
<ele>857.046875</ele>
<time>2013-11-23T13:19:54Z</time>
<speed>2.400000</speed>
<extensions>
<speed>2.4</speed>
<temp>0.00</temp>
<bpm>0</bpm>
<rpm>0.00</rpm>
</extensions>
</trkpt>
<trkpt lat="30.608587265" lon="34.805912018">
<ele>857.546875</ele>
<time>2013-11-23T13:19:59Z</time>
<speed>3.840000</speed>
<extensions>
<speed>3.8</speed>
<temp>0.00</temp>
<bpm>0</bpm>
<rpm>0.00</rpm>
</extensions>
</trkpt>
<trkpt lat="30.608436584" lon="34.805900574">
<ele>858.046875</ele>
<time>2013-11-23T13:20:04Z</time>
<speed>3.030000</speed>
<extensions>
<speed>3.0</speed>
<temp>0.00</temp>
<bpm>0</bpm>
<rpm>0.00</rpm>
</extensions>
</trkpt>
<trkpt lat="30.608350754" lon="34.805900574">
<ele>858.234375</ele>
<time>2013-11-23T13:20:09Z</time>
<speed>0.500000</speed>
<extensions>
<speed>0.5</speed>
<temp>0.00</temp>
<bpm>0</bpm>
<rpm>0.00</rpm>
</extensions>
</trkpt>
<trkpt lat="30.608341217" lon="34.805896759">
<ele>858.359375</ele>
<time>2013-11-23T13:20:14Z</time>
<speed>0.030000</speed>
<extensions>
<speed>0.0</speed>
<temp>0.00</temp>
<bpm>0</bpm>
<rpm>0.00</rpm>
</extensions>
</trkpt>
<trkpt lat="30.608341217" lon="34.805896759">
<ele>858.343750</ele>
<time>2013-11-23T13:20:19Z</time>
<speed>0.020000</speed>
<extensions>
<speed>0.0</speed>
<temp>0.00</temp>
<bpm>0</bpm>
<rpm>0.00</rpm>
</extensions>
</trkpt>
<trkpt lat="30.608341217" lon="34.805900574">
<ele>858.312500</ele>
<time>2013-11-23T13:20:24Z</time>
<speed>0.020000</speed>
<extensions>
<speed>0.0</speed>
<temp>0.00</temp>
<bpm>0</bpm>
<rpm>0.00</rpm>
</extensions>
</trkpt>
<trkpt lat="30.608341217" lon="34.805900574">
<ele>858.328125</ele>
<time>2013-11-23T13:20:29Z</time>
<speed>0.010000</speed>
<extensions>
<speed>0.0</speed>
<temp>0.00</temp>
<bpm>0</bpm>
<rpm>0.00</rpm>
</extensions>
</trkpt>
<trkpt lat="30.608341217" lon="34.805900574">
<ele>858.359375</ele>
<time>2013-11-23T13:20:34Z</time>
<speed>0.020000</speed>
<extensions>
<speed>0.0</speed>
<temp>0.00</temp>
<bpm>0</bpm>
<rpm>0.00</rpm>
</extensions>
</trkpt>
<trkpt lat="30.608341217" lon="34.805900574">
<ele>858.359375</ele>
<time>2013-11-23T13:20:39Z</time>
<extensions>
<speed>0.0</speed>
<temp>0.00</temp>
<bpm>0</bpm>
<rpm>0.00</rpm>
</extensions>
</trkpt>
<trkpt lat="30.608341217" lon="34.805900574">
<ele>858.359375</ele>
<time>2013-11-23T13:20:44Z</time>
<speed>0.010000</speed>
<extensions>
<speed>0.0</speed>
<temp>0.00</temp>
<bpm>0</bpm>
<rpm>0.00</rpm>
</extensions>
</trkpt>
<trkpt lat="30.608341217" lon="34.805900574">
<ele>858.328125</ele>
<time>2013-11-23T13:20:49Z</time>
<speed>0.010000</speed>
<extensions>
<speed>0.0</speed>
<temp>0.00</temp>
<bpm>0</bpm>
<rpm>0.00</rpm>
</extensions>
</trkpt>
<trkpt lat="30.608339310" lon="34.805900574">
<ele>858.343750</ele>
<time>2013-11-23T13:20:54Z</time>
<speed>0.010000</speed>
<extensions>
<speed>0.0</speed>
<temp>0.00</temp>
<bpm>0</bpm>
<rpm>0.00</rpm>
</extensions>
</trkpt>
<trkpt lat="30.608339310" lon="34.805900574">
<ele>858.359375</ele>
<time>2013-11-23T13:20:59Z</time>
<extensions>
<speed>0.0</speed>
<temp>0.00</temp>
<bpm>0</bpm>
<rpm>0.00</rpm>
</extensions>
</trkpt>
<trkpt lat="30.608339310" lon="34.805900574">
<ele>858.375000</ele>
<time>2013-11-23T13:21:04Z</time>
<extensions>
<speed>0.0</speed>
<temp>0.00</temp>
<bpm>0</bpm>
<rpm>0.00</rpm>
</extensions>
</trkpt>
<trkpt lat="30.608339310" lon="34.805900574">
<ele>858.390625</ele>
<time>2013-11-23T13:21:09Z</time>
<extensions>
<speed>0.0</speed>
<temp>0.00</temp>
<bpm>0</bpm>
<rpm>0.00</rpm>
</extensions>
</trkpt>
<trkpt lat="30.608339310" lon="34.805900574">
<ele>858.406250</ele>
<time>2013-11-23T13:21:14Z</time>
<speed>0.010000</speed>
<extensions>
<speed>0.0</speed>
<temp>0.00</temp>
<bpm>0</bpm>
<rpm>0.00</rpm>
</extensions>
</trkpt>
<trkpt lat="30.608339310" lon="34.805900574">
<ele>858.437500</ele>
<time>2013-11-23T13:21:19Z</time>
<extensions>
<speed>0.0</speed>
<temp>0.00</temp>
<bpm>0</bpm>
<rpm>0.00</rpm>
</extensions>
</trkpt>
<trkpt lat="30.608339310" lon="34.805900574">
<ele>858.437500</ele>
<time>2013-11-23T13:21:24Z</time>
<extensions>
<speed>0.0</speed>
<temp>0.00</temp>
<bpm>0</bpm>
<rpm>0.00</rpm>
</extensions>
</trkpt>
<trkpt lat="30.608339310" lon="34.805900574">
<ele>858.453125</ele>
<time>2013-11-23T13:21:29Z</time>
<extensions>
<speed>0.0</speed>
<temp>0.00</temp>
<bpm>0</bpm>
<rpm>0.00</rpm>
</extensions>
</trkpt>
<trkpt lat="30.608339310" lon="34.805900574">
<ele>858.453125</ele>
<time>2013-11-23T13:21:34Z</time>
<extensions>
<speed>0.0</speed>
<temp>0.00</temp>
<bpm>0</bpm>
<rpm>0.00</rpm>
</extensions>
</trkpt>
<trkpt lat="30.608339310" lon="34.805900574">
<ele>858.453125</ele>
<time>2013-11-23T13:21:39Z</time>
<speed>0.010000</speed>
<extensions>
<speed>0.0</speed>
<temp>0.00</temp>
<bpm>0</bpm>
<rpm>0.00</rpm>
</extensions>
</trkpt>
<trkpt lat="30.608339310" lon="34.805900574">
<ele>858.468750</ele>
<time>2013-11-23T13:21:44Z</time>
<extensions>
<speed>0.0</speed>
<temp>0.00</temp>
<bpm>0</bpm>
<rpm>0.00</rpm>
</extensions>
</trkpt>
<trkpt lat="30.608339310" lon="34.805900574">
<ele>858.468750</ele>
<time>2013-11-23T13:21:49Z</time>
<extensions>
<speed>0.0</speed>
<temp>0.00</temp>
<bpm>0</bpm>
<rpm>0.00</rpm>
</extensions>
</trkpt>
<trkpt lat="30.608339310" lon="34.805896759">
<ele>858.468750</ele>
<time>2013-11-23T13:21:54Z</time>
<speed>0.010000</speed>
<extensions>
<speed>0.0</speed>
<temp>0.00</temp>
<bpm>0</bpm>
<rpm>0.00</rpm>
</extensions>
</trkpt>
<trkpt lat="30.608339310" lon="34.805896759">
<ele>858.468750</ele>
<time>2013-11-23T13:21:59Z</time>
<speed>0.010000</speed>
<extensions>
<speed>0.0</speed>
<temp>0.00</temp>
<bpm>0</bpm>
<rpm>0.00</rpm>
</extensions>
</trkpt>
<trkpt lat="30.608339310" lon="34.805896759">
<ele>858.484375</ele>
<time>2013-11-23T13:22:04Z</time>
<extensions>
<speed>0.0</speed>
<temp>0.00</temp>
<bpm>0</bpm>
<rpm>0.00</rpm>
</extensions>
</trkpt>
<trkpt lat="30.608339310" lon="34.805896759">
<ele>858.484375</ele>
<time>2013-11-23T13:22:09Z</time>
<speed>0.010000</speed>
<extensions>
<speed>0.0</speed>
<temp>0.00</temp>
<bpm>0</bpm>
<rpm>0.00</rpm>
</extensions>
</trkpt>
<trkpt lat="30.608339310" lon="34.805896759">
<ele>858.484375</ele>
<time>2013-11-23T13:22:14Z</time>
<extensions>
<speed>0.0</speed>
<temp>0.00</temp>
<bpm>0</bpm>
<rpm>0.00</rpm>
</extensions>
</trkpt>
<trkpt lat="30.608339310" lon="34.805896759">
<ele>858.468750</ele>
<time>2013-11-23T13:22:19Z</time>
<extensions>
<speed>0.0</speed>
<temp>0.00</temp>
<bpm>0</bpm>
<rpm>0.00</rpm>
</extensions>
</trkpt>
<trkpt lat="30.608339310" lon="34.805896759">
<ele>858.453125</ele>
<time>2013-11-23T13:22:24Z</time>
<extensions>
<speed>0.0</speed>
<temp>0.00</temp>
<bpm>0</bpm>
<rpm>0.00</rpm>
</extensions>
</trkpt>
<trkpt lat="30.608339310" lon="34.805896759">
<ele>858.437500</ele>
<time>2013-11-23T13:22:29Z</time>
<extensions>
<speed>0.0</speed>
<temp>0.00</temp>
<bpm>0</bpm>
<rpm>0.00</rpm>
</extensions>
</trkpt>
<trkpt lat="30.608339310" lon="34.805896759">
<ele>858.421875</ele>
<time>2013-11-23T13:22:34Z</time>
<extensions>
<speed>0.0</speed>
<temp>0.00</temp>
<bpm>0</bpm>
<rpm>0.00</rpm>
</extensions>
</trkpt>
<trkpt lat="30.608337402" lon="34.805896759">
<ele>858.421875</ele>
<time>2013-11-23T13:22:39Z</time>
<extensions>
<speed>0.0</speed>
<temp>0.00</temp>
<bpm>0</bpm>
<rpm>0.00</rpm>
</extensions>
</trkpt>
<trkpt lat="30.608337402" lon="34.805896759">
<ele>858.406250</ele>
<time>2013-11-23T13:22:44Z</time>
<speed>0.010000</speed>
<extensions>
<speed>0.0</speed>
<temp>0.00</temp>
<bpm>0</bpm>
<rpm>0.00</rpm>
</extensions>
</trkpt>
<trkpt lat="30.608337402" lon="34.805896759">
<ele>858.390625</ele>
<time>2013-11-23T13:22:49Z</time>
<extensions>
<speed>0.0</speed>
<temp>0.00</temp>
<bpm>0</bpm>
<rpm>0.00</rpm>
</extensions>
</trkpt>
<trkpt lat="30.608337402" lon="34.805900574">
<ele>858.375000</ele>
<time>2013-11-23T13:22:54Z</time>
<extensions>
<speed>0.0</speed>
<temp>0.00</temp>
<bpm>0</bpm>
<rpm>0.00</rpm>
</extensions>
</trkpt>
<trkpt lat="30.608337402" lon="34.805900574">
<ele>858.343750</ele>
<time>2013-11-23T13:22:59Z</time>
<extensions>
<speed>0.0</speed>
<temp>0.00</temp>
<bpm>0</bpm>
<rpm>0.00</rpm>
</extensions>
</trkpt>
<trkpt lat="30.608337402" lon="34.805900574">
<ele>858.328125</ele>
<time>2013-11-23T13:23:04Z</time>
<speed>0.010000</speed>
<extensions>
<speed>0.0</speed>
<temp>0.00</temp>
<bpm>0</bpm>
<rpm>0.00</rpm>
</extensions>
</trkpt>
<trkpt lat="30.608337402" lon="34.805900574">
<ele>858.312500</ele>
<time>2013-11-23T13:23:09Z</time>
<extensions>
<speed>0.0</speed>
<temp>0.00</temp>
<bpm>0</bpm>
<rpm>0.00</rpm>
</extensions>
</trkpt>
<trkpt lat="30.608337402" lon="34.805900574">
<ele>858.296875</ele>
<time>2013-11-23T13:23:14Z</time>
<extensions>
<speed>0.0</speed>
<temp>0.00</temp>
<bpm>0</bpm>
<rpm>0.00</rpm>
</extensions>
</trkpt>
<trkpt lat="30.608337402" lon="34.805900574">
<ele>858.281250</ele>
<time>2013-11-23T13:23:19Z</time>
<speed>0.010000</speed>
<extensions>
<speed>0.0</speed>
<temp>0.00</temp>
<bpm>0</bpm>
<rpm>0.00</rpm>
</extensions>
</trkpt>
<trkpt lat="30.608337402" lon="34.805900574">
<ele>858.265625</ele>
<time>2013-11-23T13:23:24Z</time>
<extensions>
<speed>0.0</speed>
<temp>0.00</temp>
<bpm>0</bpm>
<rpm>0.00</rpm>
</extensions>
</trkpt>
<trkpt lat="30.608337402" lon="34.805900574">
<ele>858.250000</ele>
<time>2013-11-23T13:23:29Z</time>
<extensions>
<speed>0.0</speed>
<temp>0.00</temp>
<bpm>0</bpm>
<rpm>0.00</rpm>
</extensions>
</trkpt>
<trkpt lat="30.608335495" lon="34.805900574">
<ele>858.234375</ele>
<time>2013-11-23T13:23:34Z</time>
<speed>0.010000</speed>
<extensions>
<speed>0.0</speed>
<temp>0.00</temp>
<bpm>0</bpm>
<rpm>0.00</rpm>
</extensions>
</trkpt>
<trkpt lat="30.608335495" lon="34.805900574">
<ele>858.218750</ele>
<time>2013-11-23T13:23:39Z</time>
<extensions>
<speed>0.0</speed>
<temp>0.00</temp>
<bpm>0</bpm>
<rpm>0.00</rpm>
</extensions>
</trkpt>
<trkpt lat="30.608335495" lon="34.805900574">
<ele>858.203125</ele>
<time>2013-11-23T13:23:44Z</time>
<extensions>
<speed>0.0</speed>
<temp>0.00</temp>
<bpm>0</bpm>
<rpm>0.00</rpm>
</extensions>
</trkpt>
<trkpt lat="30.608335495" lon="34.805900574">
<ele>858.187500</ele>
<time>2013-11-23T13:23:49Z</time>
<speed>0.010000</speed>
<extensions>
<speed>0.0</speed>
<temp>0.00</temp>
<bpm>0</bpm>
<rpm>0.00</rpm>
</extensions>
</trkpt>
<trkpt lat="30.608335495" lon="34.805900574">
<ele>858.156250</ele>
<time>2013-11-23T13:23:54Z</time>
<extensions>
<speed>0.0</speed>
<temp>0.00</temp>
<bpm>0</bpm>
<rpm>0.00</rpm>
</extensions>
</trkpt>
<trkpt lat="30.608335495" lon="34.805900574">
<ele>858.125000</ele>
<time>2013-11-23T13:23:59Z</time>
<speed>0.010000</speed>
<extensions>
<speed>0.0</speed>
<temp>0.00</temp>
<bpm>0</bpm>
<rpm>0.00</rpm>
</extensions>
</trkpt>
<trkpt lat="30.608335495" lon="34.805900574">
<ele>858.109375</ele>
<time>2013-11-23T13:24:04Z</time>
<speed>0.010000</speed>
<extensions>
<speed>0.0</speed>
<temp>0.00</temp>
<bpm>0</bpm>
<rpm>0.00</rpm>
</extensions>
</trkpt>
<trkpt lat="30.608335495" lon="34.805900574">
<ele>858.078125</ele>
<time>2013-11-23T13:24:09Z</time>
<extensions>
<speed>0.0</speed>
<temp>0.00</temp>
<bpm>0</bpm>
<rpm>0.00</rpm>
</extensions>
</trkpt>
<trkpt lat="30.608335495" lon="34.805900574">
<ele>858.046875</ele>
<time>2013-11-23T13:24:14Z</time>
<speed>0.010000</speed>
<extensions>
<speed>0.0</speed>
<temp>0.00</temp>
<bpm>0</bpm>
<rpm>0.00</rpm>
</extensions>
</trkpt>
<trkpt lat="30.608335495" lon="34.805904388">
<ele>858.015625</ele>
<time>2013-11-23T13:24:19Z</time>
<speed>0.010000</speed>
<extensions>
<speed>0.0</speed>
<temp>0.00</temp>
<bpm>0</bpm>
<rpm>0.00</rpm>
</extensions>
</trkpt>
<trkpt lat="30.608335495" lon="34.805904388">
<ele>858.000000</ele>
<time>2013-11-23T13:24:24Z</time>
<extensions>
<speed>0.0</speed>
<temp>0.00</temp>
<bpm>0</bpm>
<rpm>0.00</rpm>
</extensions>
</trkpt>
<trkpt lat="30.608333588" lon="34.805904388">
<ele>857.984375</ele>
<time>2013-11-23T13:24:29Z</time>
<extensions>
<speed>0.0</speed>
<temp>0.00</temp>
<bpm>0</bpm>
<rpm>0.00</rpm>
</extensions>
</trkpt>
<trkpt lat="30.608333588" lon="34.805904388">
<ele>857.953125</ele>
<time>2013-11-23T13:24:34Z</time>
<speed>0.010000</speed>
<extensions>
<speed>0.0</speed>
<temp>0.00</temp>
<bpm>0</bpm>
<rpm>0.00</rpm>
</extensions>
</trkpt>
<trkpt lat="30.608333588" lon="34.805904388">
<ele>857.937500</ele>
<time>2013-11-23T13:24:39Z</time>
<extensions>
<speed>0.0</speed>
<temp>0.00</temp>
<bpm>0</bpm>
<rpm>0.00</rpm>
</extensions>
</trkpt>
<trkpt lat="30.608333588" lon="34.805904388">
<ele>857.921875</ele>
<time>2013-11-23T13:24:44Z</time>
<extensions>
<speed>0.0</speed>
<temp>0.00</temp>
<bpm>0</bpm>
<rpm>0.00</rpm>
</extensions>
</trkpt>
<trkpt lat="30.608333588" lon="34.805904388">
<ele>857.890625</ele>
<time>2013-11-23T13:24:49Z</time>
<speed>0.010000</speed>
<extensions>
<speed>0.0</speed>
<temp>0.00</temp>
<bpm>0</bpm>
<rpm>0.00</rpm>
</extensions>
</trkpt>
<trkpt lat="30.608333588" lon="34.805904388">
<ele>857.859375</ele>
<time>2013-11-23T13:24:54Z</time>
<extensions>
<speed>0.0</speed>
<temp>0.00</temp>
<bpm>0</bpm>
<rpm>0.00</rpm>
</extensions>
</trkpt>
<trkpt lat="30.608333588" lon="34.805904388">
<ele>857.828125</ele>
<time>2013-11-23T13:24:59Z</time>
<extensions>
<speed>0.0</speed>
<temp>0.00</temp>
<bpm>0</bpm>
<rpm>0.00</rpm>
</extensions>
</trkpt>
<trkpt lat="30.608333588" lon="34.805904388">
<ele>857.812500</ele>
<time>2013-11-23T13:25:04Z</time>
<extensions>
<speed>0.0</speed>
<temp>0.00</temp>
<bpm>0</bpm>
<rpm>0.00</rpm>
</extensions>
</trkpt>
<trkpt lat="30.608333588" lon="34.805904388">
<ele>857.781250</ele>
<time>2013-11-23T13:25:09Z</time>
<extensions>
<speed>0.0</speed>
<temp>0.00</temp>
<bpm>0</bpm>
<rpm>0.00</rpm>
</extensions>
</trkpt>
<trkpt lat="30.608333588" lon="34.805904388">
<ele>857.750000</ele>
<time>2013-11-23T13:25:14Z</time>
<extensions>
<speed>0.0</speed>
<temp>0.00</temp>
<bpm>0</bpm>
<rpm>0.00</rpm>
</extensions>
</trkpt>
<trkpt lat="30.608333588" lon="34.805908203">
<ele>857.718750</ele>
<time>2013-11-23T13:25:19Z</time>
<extensions>
<speed>0.0</speed>
<temp>0.00</temp>
<bpm>0</bpm>
<rpm>0.00</rpm>
</extensions>
</trkpt>
<trkpt lat="30.608333588" lon="34.805908203">
<ele>857.703125</ele>
<time>2013-11-23T13:25:24Z</time>
<speed>0.010000</speed>
<extensions>
<speed>0.0</speed>
<temp>0.00</temp>
<bpm>0</bpm>
<rpm>0.00</rpm>
</extensions>
</trkpt>
<trkpt lat="30.608333588" lon="34.805908203">
<ele>857.671875</ele>
<time>2013-11-23T13:25:29Z</time>
<extensions>
<speed>0.0</speed>
<temp>0.00</temp>
<bpm>0</bpm>
<rpm>0.00</rpm>
</extensions>
</trkpt>
<trkpt lat="30.608333588" lon="34.805908203">
<ele>857.640625</ele>
<time>2013-11-23T13:25:34Z</time>
<speed>0.010000</speed>
<extensions>
<speed>0.0</speed>
<temp>0.00</temp>
<bpm>0</bpm>
<rpm>0.00</rpm>
</extensions>
</trkpt>
<trkpt lat="30.608333588" lon="34.805908203">
<ele>857.609375</ele>
<time>2013-11-23T13:25:39Z</time>
<extensions>
<speed>0.0</speed>
<temp>0.00</temp>
<bpm>0</bpm>
<rpm>0.00</rpm>
</extensions>
</trkpt>
<trkpt lat="30.608335495" lon="34.805908203">
<ele>857.578125</ele>
<time>2013-11-23T13:25:44Z</time>
<speed>1.580000</speed>
<extensions>
<speed>1.6</speed>
<temp>0.00</temp>
<bpm>0</bpm>
<rpm>0.00</rpm>
</extensions>
</trkpt>
<trkpt lat="30.608383179" lon="34.805946350">
<ele>857.890625</ele>
<time>2013-11-23T13:25:49Z</time>
<speed>1.200000</speed>
<extensions>
<speed>1.2</speed>
<temp>0.00</temp>
<bpm>0</bpm>
<rpm>0.00</rpm>
</extensions>
</trkpt>
<trkpt lat="30.608383179" lon="34.806041718">
<ele>855.640625</ele>
<time>2013-11-23T13:25:54Z</time>
<speed>1.210000</speed>
<extensions>
<speed>1.2</speed>
<temp>0.00</temp>
<bpm>0</bpm>
<rpm>0.00</rpm>
</extensions>
</trkpt>
<trkpt lat="30.608375549" lon="34.806114197">
<ele>855.156250</ele>
<time>2013-11-23T13:25:59Z</time>
<speed>1.280000</speed>
<extensions>
<speed>1.3</speed>
<temp>0.00</temp>
<bpm>0</bpm>
<rpm>0.00</rpm>
</extensions>
</trkpt>
<trkpt lat="30.608360291" lon="34.806171417">
<ele>855.875000</ele>
<time>2013-11-23T13:26:04Z</time>
<speed>0.270000</speed>
<extensions>
<speed>0.3</speed>
<temp>0.00</temp>
<bpm>0</bpm>
<rpm>0.00</rpm>
</extensions>
</trkpt>
<trkpt lat="30.608352661" lon="34.806175232">
<ele>856.421875</ele>
<time>2013-11-23T13:26:09Z</time>
<speed>1.100000</speed>
<extensions>
<speed>1.1</speed>
<temp>0.00</temp>
<bpm>0</bpm>
<rpm>0.00</rpm>
</extensions>
</trkpt>
<trkpt lat="30.608348846" lon="34.806243896">
<ele>857.578125</ele>
<time>2013-11-23T13:26:14Z</time>
<speed>1.380000</speed>
<extensions>
<speed>1.4</speed>
<temp>0.00</temp>
<bpm>0</bpm>
<rpm>0.00</rpm>
</extensions>
</trkpt>
<trkpt lat="30.608356476" lon="34.806312561">
<ele>859.562500</ele>
<time>2013-11-23T13:26:19Z</time>
<speed>1.310000</speed>
<extensions>
<speed>1.3</speed>
<temp>0.00</temp>
<bpm>0</bpm>
<rpm>0.00</rpm>
</extensions>
</trkpt>
<trkpt lat="30.608339310" lon="34.806385040">
<ele>860.515625</ele>
<time>2013-11-23T13:26:24Z</time>
<speed>1.370000</speed>
<extensions>
<speed>1.4</speed>
<temp>0.00</temp>
<bpm>0</bpm>
<rpm>0.00</rpm>
</extensions>
</trkpt>
<trkpt lat="30.608345032" lon="34.806468964">
<ele>861.796875</ele>
<time>2013-11-23T13:26:29Z</time>
<speed>1.130000</speed>
<extensions>
<speed>1.1</speed>
<temp>0.00</temp>
<bpm>0</bpm>
<rpm>0.00</rpm>
</extensions>
</trkpt>
<trkpt lat="30.608346939" lon="34.806503296">
<ele>862.781250</ele>
<time>2013-11-23T13:26:34Z</time>
<speed>0.050000</speed>
<extensions>
<speed>0.1</speed>
<temp>0.00</temp>
<bpm>0</bpm>
<rpm>0.00</rpm>
</extensions>
</trkpt>
<trkpt lat="30.608346939" lon="34.806507111">
<ele>862.796875</ele>
<time>2013-11-23T13:26:39Z</time>
<extensions>
<speed>0.0</speed>
<temp>0.00</temp>
<bpm>0</bpm>
<rpm>0.00</rpm>
</extensions>
</trkpt>
<trkpt lat="30.608346939" lon="34.806507111">
<ele>862.828125</ele>
<time>2013-11-23T13:26:44Z</time>
<speed>0.010000</speed>
<extensions>
<speed>0.0</speed>
<temp>0.00</temp>
<bpm>0</bpm>
<rpm>0.00</rpm>
</extensions>
</trkpt>
<trkpt lat="30.608346939" lon="34.806507111">
<ele>862.843750</ele>
<time>2013-11-23T13:26:49Z</time>
<extensions>
<speed>0.0</speed>
<temp>0.00</temp>
<bpm>0</bpm>
<rpm>0.00</rpm>
</extensions>
</trkpt>
<trkpt lat="30.608346939" lon="34.806507111">
<ele>862.859375</ele>
<time>2013-11-23T13:26:54Z</time>
<speed>0.030000</speed>
<extensions>
<speed>0.0</speed>
<temp>0.00</temp>
<bpm>0</bpm>
<rpm>0.00</rpm>
</extensions>
</trkpt>
<trkpt lat="30.608329773" lon="34.806537628">
<ele>863.734375</ele>
<time>2013-11-23T13:26:59Z</time>
<speed>1.040000</speed>
<extensions>
<speed>1.0</speed>
<temp>0.00</temp>
<bpm>0</bpm>
<rpm>0.00</rpm>
</extensions>
</trkpt>
<trkpt lat="30.608327866" lon="34.806556702">
<ele>863.812500</ele>
<time>2013-11-23T13:27:04Z</time>
<speed>0.540000</speed>
<extensions>
<speed>0.5</speed>
<temp>0.00</temp>
<bpm>0</bpm>
<rpm>0.00</rpm>
</extensions>
</trkpt>
<trkpt lat="30.608322144" lon="34.806533813">
<ele>863.312500</ele>
<time>2013-11-23T13:27:09Z</time>
<speed>0.300000</speed>
<extensions>
<speed>0.3</speed>
<temp>0.00</temp>
<bpm>0</bpm>
<rpm>0.00</rpm>
</extensions>
</trkpt>
<trkpt lat="30.608318329" lon="34.806545258">
<ele>863.171875</ele>
<time>2013-11-23T13:27:14Z</time>
<speed>0.090000</speed>
<extensions>
<speed>0.1</speed>
<temp>0.00</temp>
<bpm>0</bpm>
<rpm>0.00</rpm>
</extensions>
</trkpt>
<trkpt lat="30.608316422" lon="34.806541443">
<ele>862.656250</ele>
<time>2013-11-23T13:27:19Z</time>
<speed>0.100000</speed>
<extensions>
<speed>0.1</speed>
<temp>0.00</temp>
<bpm>0</bpm>
<rpm>0.00</rpm>
</extensions>
</trkpt>
<trkpt lat="30.608312607" lon="34.806533813">
<ele>862.156250</ele>
<time>2013-11-23T13:27:24Z</time>
<speed>0.190000</speed>
<extensions>
<speed>0.2</speed>
<temp>0.00</temp>
<bpm>0</bpm>
<rpm>0.00</rpm>
</extensions>
</trkpt>
<trkpt lat="30.608310699" lon="34.806522369">
<ele>861.718750</ele>
<time>2013-11-23T13:27:29Z</time>
<speed>0.180000</speed>
<extensions>
<speed>0.2</speed>
<temp>0.00</temp>
<bpm>0</bpm>
<rpm>0.00</rpm>
</extensions>
</trkpt>
<trkpt lat="30.608306885" lon="34.806514740">
<ele>861.343750</ele>
<time>2013-11-23T13:27:34Z</time>
<speed>0.120000</speed>
<extensions>
<speed>0.1</speed>
<temp>0.00</temp>
<bpm>0</bpm>
<rpm>0.00</rpm>
</extensions>
</trkpt>
<trkpt lat="30.608304977" lon="34.806510925">
<ele>861.093750</ele>
<time>2013-11-23T13:27:39Z</time>
<speed>0.140000</speed>
<extensions>
<speed>0.1</speed>
<temp>0.00</temp>
<bpm>0</bpm>
<rpm>0.00</rpm>
</extensions>
</trkpt>
<trkpt lat="30.608304977" lon="34.806503296">
<ele>860.968750</ele>
<time>2013-11-23T13:27:44Z</time>
<speed>0.110000</speed>
<extensions>
<speed>0.1</speed>
<temp>0.00</temp>
<bpm>0</bpm>
<rpm>0.00</rpm>
</extensions>
</trkpt>
<trkpt lat="30.608303070" lon="34.806495667">
<ele>861.000000</ele>
<time>2013-11-23T13:27:49Z</time>
<speed>0.170000</speed>
<extensions>
<speed>0.2</speed>
<temp>0.00</temp>
<bpm>0</bpm>
<rpm>0.00</rpm>
</extensions>
</trkpt>
<trkpt lat="30.608303070" lon="34.806488037">
<ele>861.125000</ele>
<time>2013-11-23T13:27:54Z</time>
<speed>0.140000</speed>
<extensions>
<speed>0.1</speed>
<temp>0.00</temp>
<bpm>0</bpm>
<rpm>0.00</rpm>
</extensions>
</trkpt>
<trkpt lat="30.608301163" lon="34.806476593">
<ele>861.406250</ele>
<time>2013-11-23T13:27:59Z</time>
<speed>0.190000</speed>
<extensions>
<speed>0.2</speed>
<temp>0.00</temp>
<bpm>0</bpm>
<rpm>0.00</rpm>
</extensions>
</trkpt>
<trkpt lat="30.608301163" lon="34.806468964">
<ele>861.843750</ele>
<time>2013-11-23T13:28:04Z</time>
<speed>0.110000</speed>
<extensions>
<speed>0.1</speed>
<temp>0.00</temp>
<bpm>0</bpm>
<rpm>0.00</rpm>
</extensions>
</trkpt>
<trkpt lat="30.608303070" lon="34.806457520">
<ele>862.484375</ele>
<time>2013-11-23T13:28:09Z</time>
<speed>0.130000</speed>
<extensions>
<speed>0.1</speed>
<temp>0.00</temp>
<bpm>0</bpm>
<rpm>0.00</rpm>
</extensions>
</trkpt>
<trkpt lat="30.608304977" lon="34.806453705">
<ele>863.296875</ele>
<time>2013-11-23T13:28:14Z</time>
<speed>0.060000</speed>
<extensions>
<speed>0.1</speed>
<temp>0.00</temp>
<bpm>0</bpm>
<rpm>0.00</rpm>
</extensions>
</trkpt>
<trkpt lat="30.608306885" lon="34.806449890">
<ele>864.171875</ele>
<time>2013-11-23T13:28:19Z</time>
<speed>0.080000</speed>
<extensions>
<speed>0.1</speed>
<temp>0.00</temp>
<bpm>0</bpm>
<rpm>0.00</rpm>
</extensions>
</trkpt>
<trkpt lat="30.608310699" lon="34.806446075">
<ele>865.140625</ele>
<time>2013-11-23T13:28:24Z</time>
<speed>0.120000</speed>
<extensions>
<speed>0.1</speed>
<temp>0.00</temp>
<bpm>0</bpm>
<rpm>0.00</rpm>
</extensions>
</trkpt>
<trkpt lat="30.608312607" lon="34.806438446">
<ele>866.234375</ele>
<time>2013-11-23T13:28:29Z</time>
<speed>0.140000</speed>
<extensions>
<speed>0.1</speed>
<temp>0.00</temp>
<bpm>0</bpm>
<rpm>0.00</rpm>
</extensions>
</trkpt>
<trkpt lat="30.608316422" lon="34.806430817">
<ele>867.421875</ele>
<time>2013-11-23T13:28:34Z</time>
<speed>0.210000</speed>
<extensions>
<speed>0.2</speed>
<temp>0.00</temp>
<bpm>0</bpm>
<rpm>0.00</rpm>
</extensions>
</trkpt>
<trkpt lat="30.608318329" lon="34.806419373">
<ele>868.687500</ele>
<time>2013-11-23T13:28:39Z</time>
<speed>0.260000</speed>
<extensions>
<speed>0.3</speed>
<temp>0.00</temp>
<bpm>0</bpm>
<rpm>0.00</rpm>
</extensions>
</trkpt>
<trkpt lat="30.608320236" lon="34.806404114">
<ele>870.015625</ele>
<time>2013-11-23T13:28:44Z</time>
<speed>0.230000</speed>
<extensions>
<speed>0.2</speed>
<temp>0.00</temp>
<bpm>0</bpm>
<rpm>0.00</rpm>
</extensions>
</trkpt>
<trkpt lat="30.608322144" lon="34.806392670">
<ele>871.375000</ele>
<time>2013-11-23T13:28:49Z</time>
<speed>0.220000</speed>
<extensions>
<speed>0.2</speed>
<temp>0.00</temp>
<bpm>0</bpm>
<rpm>0.00</rpm>
</extensions>
</trkpt>
<trkpt lat="30.608325958" lon="34.806381226">
<ele>872.734375</ele>
<time>2013-11-23T13:28:54Z</time>
<speed>0.190000</speed>
<extensions>
<speed>0.2</speed>
<temp>0.00</temp>
<bpm>0</bpm>
<rpm>0.00</rpm>
</extensions>
</trkpt>
<trkpt lat="30.608327866" lon="34.806369781">
<ele>874.093750</ele>
<time>2013-11-23T13:28:59Z</time>
<speed>0.210000</speed>
<extensions>
<speed>0.2</speed>
<temp>0.00</temp>
<bpm>0</bpm>
<rpm>0.00</rpm>
</extensions>
</trkpt>
<trkpt lat="30.608331680" lon="34.806358337">
<ele>875.500000</ele>
<time>2013-11-23T13:29:04Z</time>
<speed>0.300000</speed>
<extensions>
<speed>0.3</speed>
<temp>0.00</temp>
<bpm>0</bpm>
<rpm>0.00</rpm>
</extensions>
</trkpt>
<trkpt lat="30.608333588" lon="34.806335449">
<ele>877.421875</ele>
<time>2013-11-23T13:29:09Z</time>
<speed>0.290000</speed>
<extensions>
<speed>0.3</speed>
<temp>0.00</temp>
<bpm>0</bpm>
<rpm>0.00</rpm>
</extensions>
</trkpt>
<trkpt lat="30.608331680" lon="34.806312561">
<ele>878.390625</ele>
<time>2013-11-23T13:29:14Z</time>
<speed>0.390000</speed>
<extensions>
<speed>0.4</speed>
<temp>0.00</temp>
<bpm>0</bpm>
<rpm>0.00</rpm>
</extensions>
</trkpt>
<trkpt lat="30.608325958" lon="34.806289673">
<ele>880.312500</ele>
<time>2013-11-23T13:29:19Z</time>
<speed>0.270000</speed>
<extensions>
<speed>0.3</speed>
<temp>0.00</temp>
<bpm>0</bpm>
<rpm>0.00</rpm>
</extensions>
</trkpt>
<trkpt lat="30.608327866" lon="34.806297302">
<ele>881.765625</ele>
<time>2013-11-23T13:29:24Z</time>
<speed>0.160000</speed>
<extensions>
<speed>0.2</speed>
<temp>0.00</temp>
<bpm>0</bpm>
<rpm>0.00</rpm>
</extensions>
</trkpt>
<trkpt lat="30.608329773" lon="34.806289673">
<ele>882.812500</ele>
<time>2013-11-23T13:29:29Z</time>
<speed>0.200000</speed>
<extensions>
<speed>0.2</speed>
<temp>0.00</temp>
<bpm>0</bpm>
<rpm>0.00</rpm>
</extensions>
</trkpt>
<trkpt lat="30.608331680" lon="34.806278229">
<ele>883.875000</ele>
<time>2013-11-23T13:29:34Z</time>
<speed>0.130000</speed>
<extensions>
<speed>0.1</speed>
<temp>0.00</temp>
<bpm>0</bpm>
<rpm>0.00</rpm>
</extensions>
</trkpt>
<trkpt lat="30.608335495" lon="34.806274414">
<ele>884.937500</ele>
<time>2013-11-23T13:29:39Z</time>
<speed>0.070000</speed>
<extensions>
<speed>0.1</speed>
<temp>0.00</temp>
<bpm>0</bpm>
<rpm>0.00</rpm>
</extensions>
</trkpt>
<trkpt lat="30.608337402" lon="34.806270599">
<ele>886.015625</ele>
<time>2013-11-23T13:29:44Z</time>
<speed>0.190000</speed>
<extensions>
<speed>0.2</speed>
<temp>0.00</temp>
<bpm>0</bpm>
<rpm>0.00</rpm>
</extensions>
</trkpt>
<trkpt lat="30.608341217" lon="34.806259155">
<ele>887.078125</ele>
<time>2013-11-23T13:29:49Z</time>
<speed>0.150000</speed>
<extensions>
<speed>0.2</speed>
<temp>0.00</temp>
<bpm>0</bpm>
<rpm>0.00</rpm>
</extensions>
</trkpt>
<trkpt lat="30.608343124" lon="34.806251526">
<ele>888.093750</ele>
<time>2013-11-23T13:29:54Z</time>
<speed>0.140000</speed>
<extensions>
<speed>0.1</speed>
<temp>0.00</temp>
<bpm>0</bpm>
<rpm>0.00</rpm>
</extensions>
</trkpt>
<trkpt lat="30.608345032" lon="34.806243896">
<ele>889.140625</ele>
<time>2013-11-23T13:29:59Z</time>
<speed>0.160000</speed>
<extensions>
<speed>0.2</speed>
<temp>0.00</temp>
<bpm>0</bpm>
<rpm>0.00</rpm>
</extensions>
</trkpt>
<trkpt lat="30.608346939" lon="34.806236267">
<ele>890.203125</ele>
<time>2013-11-23T13:30:04Z</time>
<speed>0.140000</speed>
<extensions>
<speed>0.1</speed>
<temp>0.00</temp>
<bpm>0</bpm>
<rpm>0.00</rpm>
</extensions>
</trkpt>
<trkpt lat="30.608348846" lon="34.806228638">
<ele>891.203125</ele>
<time>2013-11-23T13:30:09Z</time>
<speed>0.180000</speed>
<extensions>
<speed>0.2</speed>
<temp>0.00</temp>
<bpm>0</bpm>
<rpm>0.00</rpm>
</extensions>
</trkpt>
<trkpt lat="30.608350754" lon="34.806221008">
<ele>892.171875</ele>
<time>2013-11-23T13:30:14Z</time>
<speed>0.140000</speed>
<extensions>
<speed>0.1</speed>
<temp>0.00</temp>
<bpm>0</bpm>
<rpm>0.00</rpm>
</extensions>
</trkpt>
<trkpt lat="30.608352661" lon="34.806213379">
<ele>893.140625</ele>
<time>2013-11-23T13:30:19Z</time>
<speed>0.130000</speed>
<extensions>
<speed>0.1</speed>
<temp>0.00</temp>
<bpm>0</bpm>
<rpm>0.00</rpm>
</extensions>
</trkpt>
<trkpt lat="30.608354568" lon="34.806205750">
<ele>894.078125</ele>
<time>2013-11-23T13:30:24Z</time>
<speed>0.130000</speed>
<extensions>
<speed>0.1</speed>
<temp>0.00</temp>
<bpm>0</bpm>
<rpm>0.00</rpm>
</extensions>
</trkpt>
<trkpt lat="30.608358383" lon="34.806198120">
<ele>895.015625</ele>
<time>2013-11-23T13:30:29Z</time>
<speed>0.130000</speed>
<extensions>
<speed>0.1</speed>
<temp>0.00</temp>
<bpm>0</bpm>
<rpm>0.00</rpm>
</extensions>
</trkpt>
<trkpt lat="30.608358383" lon="34.806194305">
<ele>895.906250</ele>
<time>2013-11-23T13:30:34Z</time>
<speed>0.140000</speed>
<extensions>
<speed>0.1</speed>
<temp>0.00</temp>
<bpm>0</bpm>
<rpm>0.00</rpm>
</extensions>
</trkpt>
<trkpt lat="30.608360291" lon="34.806186676">
<ele>896.750000</ele>
<time>2013-11-23T13:30:39Z</time>
<speed>0.140000</speed>
<extensions>
<speed>0.1</speed>
<temp>0.00</temp>
<bpm>0</bpm>
<rpm>0.00</rpm>
</extensions>
</trkpt>
<trkpt lat="30.608362198" lon="34.806179047">
<ele>897.531250</ele>
<time>2013-11-23T13:30:44Z</time>
<speed>0.100000</speed>
<extensions>
<speed>0.1</speed>
<temp>0.00</temp>
<bpm>0</bpm>
<rpm>0.00</rpm>
</extensions>
</trkpt>
<trkpt lat="30.608364105" lon="34.806175232">
<ele>898.281250</ele>
<time>2013-11-23T13:30:49Z</time>
<speed>0.110000</speed>
<extensions>
<speed>0.1</speed>
<temp>0.00</temp>
<bpm>0</bpm>
<rpm>0.00</rpm>
</extensions>
</trkpt>
<trkpt lat="30.608366013" lon="34.806171417">
<ele>898.984375</ele>
<time>2013-11-23T13:30:54Z</time>
<speed>0.050000</speed>
<extensions>
<speed>0.1</speed>
<temp>0.00</temp>
<bpm>0</bpm>
<rpm>0.00</rpm>
</extensions>
</trkpt>
<trkpt lat="30.608367920" lon="34.806171417">
<ele>899.671875</ele>
<time>2013-11-23T13:30:59Z</time>
<speed>0.110000</speed>
<extensions>
<speed>0.1</speed>
<temp>0.00</temp>
<bpm>0</bpm>
<rpm>0.00</rpm>
</extensions>
</trkpt>
<trkpt lat="30.608371735" lon="34.806179047">
<ele>900.296875</ele>
<time>2013-11-23T13:31:04Z</time>
<speed>0.220000</speed>
<extensions>
<speed>0.2</speed>
<temp>0.00</temp>
<bpm>0</bpm>
<rpm>0.00</rpm>
</extensions>
</trkpt>
<trkpt lat="30.608373642" lon="34.806179047">
<ele>900.843750</ele>
<time>2013-11-23T13:31:09Z</time>
<speed>0.050000</speed>
<extensions>
<speed>0.1</speed>
<temp>0.00</temp>
<bpm>0</bpm>
<rpm>0.00</rpm>
</extensions>
</trkpt>
<trkpt lat="30.608373642" lon="34.806179047">
<ele>901.375000</ele>
<time>2013-11-23T13:31:14Z</time>
<speed>0.040000</speed>
<extensions>
<speed>0.0</speed>
<temp>0.00</temp>
<bpm>0</bpm>
<rpm>0.00</rpm>
</extensions>
</trkpt>
<trkpt lat="30.608375549" lon="34.806182861">
<ele>901.843750</ele>
<time>2013-11-23T13:31:19Z</time>
<speed>0.080000</speed>
<extensions>
<speed>0.1</speed>
<temp>0.00</temp>
<bpm>0</bpm>
<rpm>0.00</rpm>
</extensions>
</trkpt>
<trkpt lat="30.608377457" lon="34.806179047">
<ele>902.281250</ele>
<time>2013-11-23T13:31:24Z</time>
<speed>0.040000</speed>
<extensions>
<speed>0.0</speed>
<temp>0.00</temp>
<bpm>0</bpm>
<rpm>0.00</rpm>
</extensions>
</trkpt>
<trkpt lat="30.608377457" lon="34.806179047">
<ele>902.640625</ele>
<time>2013-11-23T13:31:29Z</time>
<speed>0.040000</speed>
<extensions>
<speed>0.0</speed>
<temp>0.00</temp>
<bpm>0</bpm>
<rpm>0.00</rpm>
</extensions>
</trkpt>
<trkpt lat="30.608377457" lon="34.806179047">
<ele>902.812500</ele>
<time>2013-11-23T13:31:34Z</time>
<extensions>
<speed>0.0</speed>
<temp>0.00</temp>
<bpm>0</bpm>
<rpm>0.00</rpm>
</extensions>
</trkpt>
<trkpt lat="30.608377457" lon="34.806179047">
<ele>902.781250</ele>
<time>2013-11-23T13:31:39Z</time>
<extensions>
<speed>0.0</speed>
<temp>0.00</temp>
<bpm>0</bpm>
<rpm>0.00</rpm>
</extensions>
</trkpt>
<trkpt lat="30.608377457" lon="34.806179047">
<ele>902.781250</ele>
<time>2013-11-23T13:31:44Z</time>
<extensions>
<speed>0.0</speed>
<temp>0.00</temp>
<bpm>0</bpm>
<rpm>0.00</rpm>
</extensions>
</trkpt>
<trkpt lat="30.608377457" lon="34.806179047">
<ele>902.734375</ele>
<time>2013-11-23T13:31:49Z</time>
<speed>0.010000</speed>
<extensions>
<speed>0.0</speed>
<temp>0.00</temp>
<bpm>0</bpm>
<rpm>0.00</rpm>
</extensions>
</trkpt>
<trkpt lat="30.608377457" lon="34.806179047">
<ele>902.718750</ele>
<time>2013-11-23T13:31:54Z</time>
<speed>0.010000</speed>
<extensions>
<speed>0.0</speed>
<temp>0.00</temp>
<bpm>0</bpm>
<rpm>0.00</rpm>
</extensions>
</trkpt>
<trkpt lat="30.608377457" lon="34.806179047">
<ele>902.718750</ele>
<time>2013-11-23T13:31:59Z</time>
<speed>0.020000</speed>
<extensions>
<speed>0.0</speed>
<temp>0.00</temp>
<bpm>0</bpm>
<rpm>0.00</rpm>
</extensions>
</trkpt>
<trkpt lat="30.608377457" lon="34.806179047">
<ele>902.703125</ele>
<time>2013-11-23T13:32:04Z</time>
<extensions>
<speed>0.0</speed>
<temp>0.00</temp>
<bpm>0</bpm>
<rpm>0.00</rpm>
</extensions>
</trkpt>
<trkpt lat="30.608377457" lon="34.806182861">
<ele>902.703125</ele>
<time>2013-11-23T13:32:09Z</time>
<speed>0.010000</speed>
<extensions>
<speed>0.0</speed>
<temp>0.00</temp>
<bpm>0</bpm>
<rpm>0.00</rpm>
</extensions>
</trkpt>
<trkpt lat="30.608375549" lon="34.806182861">
<ele>902.687500</ele>
<time>2013-11-23T13:32:14Z</time>
<speed>0.010000</speed>
<extensions>
<speed>0.0</speed>
<temp>0.00</temp>
<bpm>0</bpm>
<rpm>0.00</rpm>
</extensions>
</trkpt>
<trkpt lat="30.608375549" lon="34.806182861">
<ele>902.687500</ele>
<time>2013-11-23T13:32:19Z</time>
<extensions>
<speed>0.0</speed>
<temp>0.00</temp>
<bpm>0</bpm>
<rpm>0.00</rpm>
</extensions>
</trkpt>
<trkpt lat="30.608375549" lon="34.806182861">
<ele>902.671875</ele>
<time>2013-11-23T13:32:24Z</time>
<speed>0.010000</speed>
<extensions>
<speed>0.0</speed>
<temp>0.00</temp>
<bpm>0</bpm>
<rpm>0.00</rpm>
</extensions>
</trkpt>
<trkpt lat="30.608375549" lon="34.806182861">
<ele>902.656250</ele>
<time>2013-11-23T13:32:29Z</time>
<speed>0.010000</speed>
<extensions>
<speed>0.0</speed>
<temp>0.00</temp>
<bpm>0</bpm>
<rpm>0.00</rpm>
</extensions>
</trkpt>
<trkpt lat="30.608375549" lon="34.806182861">
<ele>902.656250</ele>
<time>2013-11-23T13:32:34Z</time>
<speed>0.010000</speed>
<extensions>
<speed>0.0</speed>
<temp>0.00</temp>
<bpm>0</bpm>
<rpm>0.00</rpm>
</extensions>
</trkpt>
<trkpt lat="30.608375549" lon="34.806182861">
<ele>902.656250</ele>
<time>2013-11-23T13:32:39Z</time>
<speed>0.020000</speed>
<extensions>
<speed>0.0</speed>
<temp>0.00</temp>
<bpm>0</bpm>
<rpm>0.00</rpm>
</extensions>
</trkpt>
<trkpt lat="30.608375549" lon="34.806186676">
<ele>902.640625</ele>
<time>2013-11-23T13:32:44Z</time>
<speed>0.010000</speed>
<extensions>
<speed>0.0</speed>
<temp>0.00</temp>
<bpm>0</bpm>
<rpm>0.00</rpm>
</extensions>
</trkpt>
<trkpt lat="30.608375549" lon="34.806186676">
<ele>902.625000</ele>
<time>2013-11-23T13:32:49Z</time>
<speed>0.040000</speed>
<extensions>
<speed>0.0</speed>
<temp>0.00</temp>
<bpm>0</bpm>
<rpm>0.00</rpm>
</extensions>
</trkpt>
<trkpt lat="30.608375549" lon="34.806186676">
<ele>902.609375</ele>
<time>2013-11-23T13:32:54Z</time>
<speed>0.010000</speed>
<extensions>
<speed>0.0</speed>
<temp>0.00</temp>
<bpm>0</bpm>
<rpm>0.00</rpm>
</extensions>
</trkpt>
<trkpt lat="30.608375549" lon="34.806186676">
<ele>902.609375</ele>
<time>2013-11-23T13:32:59Z</time>
<speed>0.010000</speed>
<extensions>
<speed>0.0</speed>
<temp>0.00</temp>
<bpm>0</bpm>
<rpm>0.00</rpm>
</extensions>
</trkpt>
<trkpt lat="30.608375549" lon="34.806186676">
<ele>902.593750</ele>
<time>2013-11-23T13:33:04Z</time>
<speed>0.010000</speed>
<extensions>
<speed>0.0</speed>
<temp>0.00</temp>
<bpm>0</bpm>
<rpm>0.00</rpm>
</extensions>
</trkpt>
<trkpt lat="30.608375549" lon="34.806186676">
<ele>902.578125</ele>
<time>2013-11-23T13:33:09Z</time>
<extensions>
<speed>0.0</speed>
<temp>0.00</temp>
<bpm>0</bpm>
<rpm>0.00</rpm>
</extensions>
</trkpt>
<trkpt lat="30.608375549" lon="34.806190491">
<ele>902.562500</ele>
<time>2013-11-23T13:33:14Z</time>
<extensions>
<speed>0.0</speed>
<temp>0.00</temp>
<bpm>0</bpm>
<rpm>0.00</rpm>
</extensions>
</trkpt>
<trkpt lat="30.608373642" lon="34.806190491">
<ele>902.531250</ele>
<time>2013-11-23T13:33:19Z</time>
<extensions>
<speed>0.0</speed>
<temp>0.00</temp>
<bpm>0</bpm>
<rpm>0.00</rpm>
</extensions>
</trkpt>
<trkpt lat="30.608373642" lon="34.806190491">
<ele>902.500000</ele>
<time>2013-11-23T13:33:24Z</time>
<speed>0.010000</speed>
<extensions>
<speed>0.0</speed>
<temp>0.00</temp>
<bpm>0</bpm>
<rpm>0.00</rpm>
</extensions>
</trkpt>
<trkpt lat="30.608373642" lon="34.806190491">
<ele>902.500000</ele>
<time>2013-11-23T13:33:29Z</time>
<speed>0.020000</speed>
<extensions>
<speed>0.0</speed>
<temp>0.00</temp>
<bpm>0</bpm>
<rpm>0.00</rpm>
</extensions>
</trkpt>
<trkpt lat="30.608373642" lon="34.806190491">
<ele>902.468750</ele>
<time>2013-11-23T13:33:34Z</time>
<extensions>
<speed>0.0</speed>
<temp>0.00</temp>
<bpm>0</bpm>
<rpm>0.00</rpm>
</extensions>
</trkpt>
<trkpt lat="30.608373642" lon="34.806190491">
<ele>902.453125</ele>
<time>2013-11-23T13:33:39Z</time>
<extensions>
<speed>0.0</speed>
<temp>0.00</temp>
<bpm>0</bpm>
<rpm>0.00</rpm>
</extensions>
</trkpt>
<trkpt lat="30.608373642" lon="34.806194305">
<ele>902.453125</ele>
<time>2013-11-23T13:33:44Z</time>
<speed>0.010000</speed>
<extensions>
<speed>0.0</speed>
<temp>0.00</temp>
<bpm>0</bpm>
<rpm>0.00</rpm>
</extensions>
</trkpt>
<trkpt lat="30.608373642" lon="34.806194305">
<ele>902.421875</ele>
<time>2013-11-23T13:33:49Z</time>
<extensions>
<speed>0.0</speed>
<temp>0.00</temp>
<bpm>0</bpm>
<rpm>0.00</rpm>
</extensions>
</trkpt>
<trkpt lat="30.608373642" lon="34.806194305">
<ele>902.421875</ele>
<time>2013-11-23T13:33:54Z</time>
<extensions>
<speed>0.0</speed>
<temp>0.00</temp>
<bpm>0</bpm>
<rpm>0.00</rpm>
</extensions>
</trkpt>
<trkpt lat="30.608373642" lon="34.806194305">
<ele>902.406250</ele>
<time>2013-11-23T13:33:59Z</time>
<speed>0.010000</speed>
<extensions>
<speed>0.0</speed>
<temp>0.00</temp>
<bpm>0</bpm>
<rpm>0.00</rpm>
</extensions>
</trkpt>
<trkpt lat="30.608373642" lon="34.806194305">
<ele>902.390625</ele>
<time>2013-11-23T13:34:04Z</time>
<extensions>
<speed>0.0</speed>
<temp>0.00</temp>
<bpm>0</bpm>
<rpm>0.00</rpm>
</extensions>
</trkpt>
<trkpt lat="30.608373642" lon="34.806194305">
<ele>902.375000</ele>
<time>2013-11-23T13:34:09Z</time>
<extensions>
<speed>0.0</speed>
<temp>0.00</temp>
<bpm>0</bpm>
<rpm>0.00</rpm>
</extensions>
</trkpt>
<trkpt lat="30.608373642" lon="34.806194305">
<ele>902.375000</ele>
<time>2013-11-23T13:34:14Z</time>
<speed>0.010000</speed>
<extensions>
<speed>0.0</speed>
<temp>0.00</temp>
<bpm>0</bpm>
<rpm>0.00</rpm>
</extensions>
</trkpt>
<trkpt lat="30.608371735" lon="34.806194305">
<ele>902.359375</ele>
<time>2013-11-23T13:34:19Z</time>
<speed>0.020000</speed>
<extensions>
<speed>0.0</speed>
<temp>0.00</temp>
<bpm>0</bpm>
<rpm>0.00</rpm>
</extensions>
</trkpt>
<trkpt lat="30.608371735" lon="34.806198120">
<ele>902.375000</ele>
<time>2013-11-23T13:34:24Z</time>
<extensions>
<speed>0.0</speed>
<temp>0.00</temp>
<bpm>0</bpm>
<rpm>0.00</rpm>
</extensions>
</trkpt>
<trkpt lat="30.608371735" lon="34.806198120">
<ele>902.375000</ele>
<time>2013-11-23T13:34:29Z</time>
<extensions>
<speed>0.0</speed>
<temp>0.00</temp>
<bpm>0</bpm>
<rpm>0.00</rpm>
</extensions>
</trkpt>
<trkpt lat="30.608371735" lon="34.806198120">
<ele>902.375000</ele>
<time>2013-11-23T13:34:34Z</time>
<speed>0.010000</speed>
<extensions>
<speed>0.0</speed>
<temp>0.00</temp>
<bpm>0</bpm>
<rpm>0.00</rpm>
</extensions>
</trkpt>
<trkpt lat="30.608371735" lon="34.806198120">
<ele>902.328125</ele>
<time>2013-11-23T13:34:39Z</time>
<speed>0.010000</speed>
<extensions>
<speed>0.0</speed>
<temp>0.00</temp>
<bpm>0</bpm>
<rpm>0.00</rpm>
</extensions>
</trkpt>
<trkpt lat="30.608371735" lon="34.806198120">
<ele>902.265625</ele>
<time>2013-11-23T13:34:44Z</time>
<extensions>
<speed>0.0</speed>
<temp>0.00</temp>
<bpm>0</bpm>
<rpm>0.00</rpm>
</extensions>
</trkpt>
<trkpt lat="30.608371735" lon="34.806198120">
<ele>902.234375</ele>
<time>2013-11-23T13:34:49Z</time>
<speed>0.010000</speed>
<extensions>
<speed>0.0</speed>
<temp>0.00</temp>
<bpm>0</bpm>
<rpm>0.00</rpm>
</extensions>
</trkpt>
<trkpt lat="30.608371735" lon="34.806198120">
<ele>902.203125</ele>
<time>2013-11-23T13:34:54Z</time>
<extensions>
<speed>0.0</speed>
<temp>0.00</temp>
<bpm>0</bpm>
<rpm>0.00</rpm>
</extensions>
</trkpt>
<trkpt lat="30.608371735" lon="34.806201935">
<ele>902.203125</ele>
<time>2013-11-23T13:34:59Z</time>
<extensions>
<speed>0.0</speed>
<temp>0.00</temp>
<bpm>0</bpm>
<rpm>0.00</rpm>
</extensions>
</trkpt>
<trkpt lat="30.608371735" lon="34.806201935">
<ele>902.203125</ele>
<time>2013-11-23T13:35:04Z</time>
<extensions>
<speed>0.0</speed>
<temp>0.00</temp>
<bpm>0</bpm>
<rpm>0.00</rpm>
</extensions>
</trkpt>
<trkpt lat="30.608369827" lon="34.806201935">
<ele>902.203125</ele>
<time>2013-11-23T13:35:09Z</time>
<speed>0.010000</speed>
<extensions>
<speed>0.0</speed>
<temp>0.00</temp>
<bpm>0</bpm>
<rpm>0.00</rpm>
</extensions>
</trkpt>
<trkpt lat="30.608369827" lon="34.806201935">
<ele>902.187500</ele>
<time>2013-11-23T13:35:14Z</time>
<speed>0.010000</speed>
<extensions>
<speed>0.0</speed>
<temp>0.00</temp>
<bpm>0</bpm>
<rpm>0.00</rpm>
</extensions>
</trkpt>
<trkpt lat="30.608369827" lon="34.806201935">
<ele>902.187500</ele>
<time>2013-11-23T13:35:19Z</time>
<extensions>
<speed>0.0</speed>
<temp>0.00</temp>
<bpm>0</bpm>
<rpm>0.00</rpm>
</extensions>
</trkpt>
<trkpt lat="30.608369827" lon="34.806201935">
<ele>902.171875</ele>
<time>2013-11-23T13:35:24Z</time>
<extensions>
<speed>0.0</speed>
<temp>0.00</temp>
<bpm>0</bpm>
<rpm>0.00</rpm>
</extensions>
</trkpt>
<trkpt lat="30.608369827" lon="34.806201935">
<ele>902.156250</ele>
<time>2013-11-23T13:35:29Z</time>
<extensions>
<speed>0.0</speed>
<temp>0.00</temp>
<bpm>0</bpm>
<rpm>0.00</rpm>
</extensions>
</trkpt>
<trkpt lat="30.608369827" lon="34.806201935">
<ele>902.140625</ele>
<time>2013-11-23T13:35:34Z</time>
<extensions>
<speed>0.0</speed>
<temp>0.00</temp>
<bpm>0</bpm>
<rpm>0.00</rpm>
</extensions>
</trkpt>
<trkpt lat="30.608369827" lon="34.806205750">
<ele>902.125000</ele>
<time>2013-11-23T13:35:39Z</time>
<extensions>
<speed>0.0</speed>
<temp>0.00</temp>
<bpm>0</bpm>
<rpm>0.00</rpm>
</extensions>
</trkpt>
<trkpt lat="30.608369827" lon="34.806205750">
<ele>902.109375</ele>
<time>2013-11-23T13:35:44Z</time>
<speed>0.010000</speed>
<extensions>
<speed>0.0</speed>
<temp>0.00</temp>
<bpm>0</bpm>
<rpm>0.00</rpm>
</extensions>
</trkpt>
<trkpt lat="30.608369827" lon="34.806205750">
<ele>902.078125</ele>
<time>2013-11-23T13:35:49Z</time>
<speed>0.010000</speed>
<extensions>
<speed>0.0</speed>
<temp>0.00</temp>
<bpm>0</bpm>
<rpm>0.00</rpm>
</extensions>
</trkpt>
<trkpt lat="30.608369827" lon="34.806205750">
<ele>902.078125</ele>
<time>2013-11-23T13:35:54Z</time>
<extensions>
<speed>0.0</speed>
<temp>0.00</temp>
<bpm>0</bpm>
<rpm>0.00</rpm>
</extensions>
</trkpt>
<trkpt lat="30.608367920" lon="34.806205750">
<ele>902.046875</ele>
<time>2013-11-23T13:35:59Z</time>
<speed>0.010000</speed>
<extensions>
<speed>0.0</speed>
<temp>0.00</temp>
<bpm>0</bpm>
<rpm>0.00</rpm>
</extensions>
</trkpt>
<trkpt lat="30.608367920" lon="34.806205750">
<ele>902.031250</ele>
<time>2013-11-23T13:36:04Z</time>
<speed>0.020000</speed>
<extensions>
<speed>0.0</speed>
<temp>0.00</temp>
<bpm>0</bpm>
<rpm>0.00</rpm>
</extensions>
</trkpt>
<trkpt lat="30.608367920" lon="34.806205750">
<ele>902.015625</ele>
<time>2013-11-23T13:36:09Z</time>
<extensions>
<speed>0.0</speed>
<temp>0.00</temp>
<bpm>0</bpm>
<rpm>0.00</rpm>
</extensions>
</trkpt>
<trkpt lat="30.608367920" lon="34.806209564">
<ele>901.984375</ele>
<time>2013-11-23T13:36:14Z</time>
<extensions>
<speed>0.0</speed>
<temp>0.00</temp>
<bpm>0</bpm>
<rpm>0.00</rpm>
</extensions>
</trkpt>
<trkpt lat="30.608367920" lon="34.806209564">
<ele>901.953125</ele>
<time>2013-11-23T13:36:19Z</time>
<speed>0.010000</speed>
<extensions>
<speed>0.0</speed>
<temp>0.00</temp>
<bpm>0</bpm>
<rpm>0.00</rpm>
</extensions>
</trkpt>
<trkpt lat="30.608367920" lon="34.806209564">
<ele>901.937500</ele>
<time>2013-11-23T13:36:24Z</time>
<extensions>
<speed>0.0</speed>
<temp>0.00</temp>
<bpm>0</bpm>
<rpm>0.00</rpm>
</extensions>
</trkpt>
<trkpt lat="30.608367920" lon="34.806209564">
<ele>901.937500</ele>
<time>2013-11-23T13:36:29Z</time>
<speed>0.020000</speed>
<extensions>
<speed>0.0</speed>
<temp>0.00</temp>
<bpm>0</bpm>
<rpm>0.00</rpm>
</extensions>
</trkpt>
<trkpt lat="30.608367920" lon="34.806209564">
<ele>901.921875</ele>
<time>2013-11-23T13:36:34Z</time>
<speed>0.010000</speed>
<extensions>
<speed>0.0</speed>
<temp>0.00</temp>
<bpm>0</bpm>
<rpm>0.00</rpm>
</extensions>
</trkpt>
<trkpt lat="30.608367920" lon="34.806209564">
<ele>901.906250</ele>
<time>2013-11-23T13:36:39Z</time>
<speed>0.010000</speed>
<extensions>
<speed>0.0</speed>
<temp>0.00</temp>
<bpm>0</bpm>
<rpm>0.00</rpm>
</extensions>
</trkpt>
<trkpt lat="30.608367920" lon="34.806213379">
<ele>901.890625</ele>
<time>2013-11-23T13:36:44Z</time>
<speed>0.070000</speed>
<extensions>
<speed>0.1</speed>
<temp>0.00</temp>
<bpm>0</bpm>
<rpm>0.00</rpm>
</extensions>
</trkpt>
<trkpt lat="30.608367920" lon="34.806217194">
<ele>901.906250</ele>
<time>2013-11-23T13:36:49Z</time>
<speed>0.100000</speed>
<extensions>
<speed>0.1</speed>
<temp>0.00</temp>
<bpm>0</bpm>
<rpm>0.00</rpm>
</extensions>
</trkpt>
<trkpt lat="30.608367920" lon="34.806224823">
<ele>901.937500</ele>
<time>2013-11-23T13:36:54Z</time>
<speed>0.100000</speed>
<extensions>
<speed>0.1</speed>
<temp>0.00</temp>
<bpm>0</bpm>
<rpm>0.00</rpm>
</extensions>
</trkpt>
<trkpt lat="30.608369827" lon="34.806228638">
<ele>901.953125</ele>
<time>2013-11-23T13:36:59Z</time>
<speed>0.110000</speed>
<extensions>
<speed>0.1</speed>
<temp>0.00</temp>
<bpm>0</bpm>
<rpm>0.00</rpm>
</extensions>
</trkpt>
<trkpt lat="30.608369827" lon="34.806236267">
<ele>901.953125</ele>
<time>2013-11-23T13:37:04Z</time>
<speed>0.110000</speed>
<extensions>
<speed>0.1</speed>
<temp>0.00</temp>
<bpm>0</bpm>
<rpm>0.00</rpm>
</extensions>
</trkpt>
<trkpt lat="30.608369827" lon="34.806240082">
<ele>901.984375</ele>
<time>2013-11-23T13:37:09Z</time>
<speed>0.090000</speed>
<extensions>
<speed>0.1</speed>
<temp>0.00</temp>
<bpm>0</bpm>
<rpm>0.00</rpm>
</extensions>
</trkpt>
<trkpt lat="30.608369827" lon="34.806247711">
<ele>902.015625</ele>
<time>2013-11-23T13:37:14Z</time>
<speed>0.100000</speed>
<extensions>
<speed>0.1</speed>
<temp>0.00</temp>
<bpm>0</bpm>
<rpm>0.00</rpm>
</extensions>
</trkpt>
<trkpt lat="30.608371735" lon="34.806251526">
<ele>902.015625</ele>
<time>2013-11-23T13:37:19Z</time>
<speed>0.090000</speed>
<extensions>
<speed>0.1</speed>
<temp>0.00</temp>
<bpm>0</bpm>
<rpm>0.00</rpm>
</extensions>
</trkpt>
<trkpt lat="30.608371735" lon="34.806255341">
<ele>902.031250</ele>
<time>2013-11-23T13:37:24Z</time>
<speed>0.090000</speed>
<extensions>
<speed>0.1</speed>
<temp>0.00</temp>
<bpm>0</bpm>
<rpm>0.00</rpm>
</extensions>
</trkpt>
<trkpt lat="30.608371735" lon="34.806262970">
<ele>902.046875</ele>
<time>2013-11-23T13:37:29Z</time>
<speed>0.080000</speed>
<extensions>
<speed>0.1</speed>
<temp>0.00</temp>
<bpm>0</bpm>
<rpm>0.00</rpm>
</extensions>
</trkpt>
<trkpt lat="30.608371735" lon="34.806266785">
<ele>902.046875</ele>
<time>2013-11-23T13:37:34Z</time>
<speed>0.080000</speed>
<extensions>
<speed>0.1</speed>
<temp>0.00</temp>
<bpm>0</bpm>
<rpm>0.00</rpm>
</extensions>
</trkpt>
<trkpt lat="30.608371735" lon="34.806270599">
<ele>902.031250</ele>
<time>2013-11-23T13:37:39Z</time>
<speed>0.080000</speed>
<extensions>
<speed>0.1</speed>
<temp>0.00</temp>
<bpm>0</bpm>
<rpm>0.00</rpm>
</extensions>
</trkpt>
<trkpt lat="30.608371735" lon="34.806274414">
<ele>902.015625</ele>
<time>2013-11-23T13:37:44Z</time>
<speed>0.070000</speed>
<extensions>
<speed>0.1</speed>
<temp>0.00</temp>
<bpm>0</bpm>
<rpm>0.00</rpm>
</extensions>
</trkpt>
<trkpt lat="30.608371735" lon="34.806278229">
<ele>902.000000</ele>
<time>2013-11-23T13:37:49Z</time>
<speed>0.060000</speed>
<extensions>
<speed>0.1</speed>
<temp>0.00</temp>
<bpm>0</bpm>
<rpm>0.00</rpm>
</extensions>
</trkpt>
<trkpt lat="30.608373642" lon="34.806285858">
<ele>902.000000</ele>
<time>2013-11-23T13:37:54Z</time>
<speed>0.070000</speed>
<extensions>
<speed>0.1</speed>
<temp>0.00</temp>
<bpm>0</bpm>
<rpm>0.00</rpm>
</extensions>
</trkpt>
<trkpt lat="30.608373642" lon="34.806289673">
<ele>901.968750</ele>
<time>2013-11-23T13:37:59Z</time>
<speed>0.070000</speed>
<extensions>
<speed>0.1</speed>
<temp>0.00</temp>
<bpm>0</bpm>
<rpm>0.00</rpm>
</extensions>
</trkpt>
<trkpt lat="30.608373642" lon="34.806293488">
<ele>901.890625</ele>
<time>2013-11-23T13:38:04Z</time>
<speed>0.070000</speed>
<extensions>
<speed>0.1</speed>
<temp>0.00</temp>
<bpm>0</bpm>
<rpm>0.00</rpm>
</extensions>
</trkpt>
<trkpt lat="30.608373642" lon="34.806297302">
<ele>901.781250</ele>
<time>2013-11-23T13:38:09Z</time>
<speed>0.070000</speed>
<extensions>
<speed>0.1</speed>
<temp>0.00</temp>
<bpm>0</bpm>
<rpm>0.00</rpm>
</extensions>
</trkpt>
<trkpt lat="30.608373642" lon="34.806301117">
<ele>901.640625</ele>
<time>2013-11-23T13:38:14Z</time>
<speed>0.080000</speed>
<extensions>
<speed>0.1</speed>
<temp>0.00</temp>
<bpm>0</bpm>
<rpm>0.00</rpm>
</extensions>
</trkpt>
<trkpt lat="30.608373642" lon="34.806304932">
<ele>901.484375</ele>
<time>2013-11-23T13:38:19Z</time>
<speed>0.060000</speed>
<extensions>
<speed>0.1</speed>
<temp>0.00</temp>
<bpm>0</bpm>
<rpm>0.00</rpm>
</extensions>
</trkpt>
<trkpt lat="30.608371735" lon="34.806308746">
<ele>901.328125</ele>
<time>2013-11-23T13:38:24Z</time>
<speed>0.070000</speed>
<extensions>
<speed>0.1</speed>
<temp>0.00</temp>
<bpm>0</bpm>
<rpm>0.00</rpm>
</extensions>
</trkpt>
<trkpt lat="30.608371735" lon="34.806312561">
<ele>901.125000</ele>
<time>2013-11-23T13:38:29Z</time>
<speed>0.050000</speed>
<extensions>
<speed>0.1</speed>
<temp>0.00</temp>
<bpm>0</bpm>
<rpm>0.00</rpm>
</extensions>
</trkpt>
<trkpt lat="30.608371735" lon="34.806316376">
<ele>900.890625</ele>
<time>2013-11-23T13:38:34Z</time>
<speed>0.060000</speed>
<extensions>
<speed>0.1</speed>
<temp>0.00</temp>
<bpm>0</bpm>
<rpm>0.00</rpm>
</extensions>
</trkpt>
<trkpt lat="30.608371735" lon="34.806320190">
<ele>900.671875</ele>
<time>2013-11-23T13:38:39Z</time>
<speed>0.050000</speed>
<extensions>
<speed>0.1</speed>
<temp>0.00</temp>
<bpm>0</bpm>
<rpm>0.00</rpm>
</extensions>
</trkpt>
<trkpt lat="30.608369827" lon="34.806320190">
<ele>900.484375</ele>
<time>2013-11-23T13:38:44Z</time>
<extensions>
<speed>0.0</speed>
<temp>0.00</temp>
<bpm>0</bpm>
<rpm>0.00</rpm>
</extensions>
</trkpt>
<trkpt lat="30.608369827" lon="34.806320190">
<ele>900.453125</ele>
<time>2013-11-23T13:38:49Z</time>
<extensions>
<speed>0.0</speed>
<temp>0.00</temp>
<bpm>0</bpm>
<rpm>0.00</rpm>
</extensions>
</trkpt>
<trkpt lat="30.608369827" lon="34.806320190">
<ele>900.406250</ele>
<time>2013-11-23T13:38:54Z</time>
<speed>0.020000</speed>
<extensions>
<speed>0.0</speed>
<temp>0.00</temp>
<bpm>0</bpm>
<rpm>0.00</rpm>
</extensions>
</trkpt>
<trkpt lat="30.608369827" lon="34.806324005">
<ele>900.312500</ele>
<time>2013-11-23T13:38:59Z</time>
<speed>0.030000</speed>
<extensions>
<speed>0.0</speed>
<temp>0.00</temp>
<bpm>0</bpm>
<rpm>0.00</rpm>
</extensions>
</trkpt>
<trkpt lat="30.608369827" lon="34.806324005">
<ele>900.171875</ele>
<time>2013-11-23T13:39:04Z</time>
<speed>0.040000</speed>
<extensions>
<speed>0.0</speed>
<temp>0.00</temp>
<bpm>0</bpm>
<rpm>0.00</rpm>
</extensions>
</trkpt>
<trkpt lat="30.608369827" lon="34.806327820">
<ele>900.015625</ele>
<time>2013-11-23T13:39:09Z</time>
<speed>0.030000</speed>
<extensions>
<speed>0.0</speed>
<temp>0.00</temp>
<bpm>0</bpm>
<rpm>0.00</rpm>
</extensions>
</trkpt>
<trkpt lat="30.608367920" lon="34.806327820">
<ele>899.890625</ele>
<time>2013-11-23T13:39:14Z</time>
<extensions>
<speed>0.0</speed>
<temp>0.00</temp>
<bpm>0</bpm>
<rpm>0.00</rpm>
</extensions>
</trkpt>
<trkpt lat="30.608367920" lon="34.806327820">
<ele>899.859375</ele>
<time>2013-11-23T13:39:19Z</time>
<extensions>
<speed>0.0</speed>
<temp>0.00</temp>
<bpm>0</bpm>
<rpm>0.00</rpm>
</extensions>
</trkpt>
<trkpt lat="30.608367920" lon="34.806327820">
<ele>899.812500</ele>
<time>2013-11-23T13:39:24Z</time>
<speed>0.010000</speed>
<extensions>
<speed>0.0</speed>
<temp>0.00</temp>
<bpm>0</bpm>
<rpm>0.00</rpm>
</extensions>
</trkpt>
<trkpt lat="30.608367920" lon="34.806331635">
<ele>899.703125</ele>
<time>2013-11-23T13:39:29Z</time>
<speed>0.030000</speed>
<extensions>
<speed>0.0</speed>
<temp>0.00</temp>
<bpm>0</bpm>
<rpm>0.00</rpm>
</extensions>
</trkpt>
<trkpt lat="30.608367920" lon="34.806331635">
<ele>899.546875</ele>
<time>2013-11-23T13:39:34Z</time>
<speed>0.030000</speed>
<extensions>
<speed>0.0</speed>
<temp>0.00</temp>
<bpm>0</bpm>
<rpm>0.00</rpm>
</extensions>
</trkpt>
<trkpt lat="30.608367920" lon="34.806331635">
<ele>899.328125</ele>
<time>2013-11-23T13:39:39Z</time>
<speed>0.030000</speed>
<extensions>
<speed>0.0</speed>
<temp>0.00</temp>
<bpm>0</bpm>
<rpm>0.00</rpm>
</extensions>
</trkpt>
<trkpt lat="30.608367920" lon="34.806335449">
<ele>899.062500</ele>
<time>2013-11-23T13:39:44Z</time>
<speed>0.040000</speed>
<extensions>
<speed>0.0</speed>
<temp>0.00</temp>
<bpm>0</bpm>
<rpm>0.00</rpm>
</extensions>
</trkpt>
<trkpt lat="30.608366013" lon="34.806339264">
<ele>898.734375</ele>
<time>2013-11-23T13:39:49Z</time>
<speed>0.050000</speed>
<extensions>
<speed>0.1</speed>
<temp>0.00</temp>
<bpm>0</bpm>
<rpm>0.00</rpm>
</extensions>
</trkpt>
<trkpt lat="30.608366013" lon="34.806339264">
<ele>898.343750</ele>
<time>2013-11-23T13:39:54Z</time>
<speed>0.040000</speed>
<extensions>
<speed>0.0</speed>
<temp>0.00</temp>
<bpm>0</bpm>
<rpm>0.00</rpm>
</extensions>
</trkpt>
<trkpt lat="30.608364105" lon="34.806343079">
<ele>897.937500</ele>
<time>2013-11-23T13:39:59Z</time>
<speed>0.040000</speed>
<extensions>
<speed>0.0</speed>
<temp>0.00</temp>
<bpm>0</bpm>
<rpm>0.00</rpm>
</extensions>
</trkpt>
<trkpt lat="30.608364105" lon="34.806343079">
<ele>897.437500</ele>
<time>2013-11-23T13:40:04Z</time>
<speed>0.040000</speed>
<extensions>
<speed>0.0</speed>
<temp>0.00</temp>
<bpm>0</bpm>
<rpm>0.00</rpm>
</extensions>
</trkpt>
<trkpt lat="30.608362198" lon="34.806346893">
<ele>896.843750</ele>
<time>2013-11-23T13:40:09Z</time>
<speed>0.050000</speed>
<extensions>
<speed>0.1</speed>
<temp>0.00</temp>
<bpm>0</bpm>
<rpm>0.00</rpm>
</extensions>
</trkpt>
<trkpt lat="30.608360291" lon="34.806346893">
<ele>896.125000</ele>
<time>2013-11-23T13:40:14Z</time>
<speed>0.050000</speed>
<extensions>
<speed>0.1</speed>
<temp>0.00</temp>
<bpm>0</bpm>
<rpm>0.00</rpm>
</extensions>
</trkpt>
<trkpt lat="30.608358383" lon="34.806350708">
<ele>895.375000</ele>
<time>2013-11-23T13:40:19Z</time>
<speed>0.130000</speed>
<extensions>
<speed>0.1</speed>
<temp>0.00</temp>
<bpm>0</bpm>
<rpm>0.00</rpm>
</extensions>
</trkpt>
<trkpt lat="30.608356476" lon="34.806358337">
<ele>894.562500</ele>
<time>2013-11-23T13:40:24Z</time>
<speed>0.110000</speed>
<extensions>
<speed>0.1</speed>
<temp>0.00</temp>
<bpm>0</bpm>
<rpm>0.00</rpm>
</extensions>
</trkpt>
<trkpt lat="30.608354568" lon="34.806362152">
<ele>893.687500</ele>
<time>2013-11-23T13:40:29Z</time>
<speed>0.090000</speed>
<extensions>
<speed>0.1</speed>
<temp>0.00</temp>
<bpm>0</bpm>
<rpm>0.00</rpm>
</extensions>
</trkpt>
<trkpt lat="30.608354568" lon="34.806365967">
<ele>893.156250</ele>
<time>2013-11-23T13:40:34Z</time>
<speed>0.040000</speed>
<extensions>
<speed>0.0</speed>
<temp>0.00</temp>
<bpm>0</bpm>
<rpm>0.00</rpm>
</extensions>
</trkpt>
<trkpt lat="30.608352661" lon="34.806369781">
<ele>892.859375</ele>
<time>2013-11-23T13:40:39Z</time>
<speed>0.050000</speed>
<extensions>
<speed>0.1</speed>
<temp>0.00</temp>
<bpm>0</bpm>
<rpm>0.00</rpm>
</extensions>
</trkpt>
<trkpt lat="30.608352661" lon="34.806369781">
<ele>892.687500</ele>
<time>2013-11-23T13:40:44Z</time>
<extensions>
<speed>0.0</speed>
<temp>0.00</temp>
<bpm>0</bpm>
<rpm>0.00</rpm>
</extensions>
</trkpt>
<trkpt lat="30.608352661" lon="34.806369781">
<ele>892.593750</ele>
<time>2013-11-23T13:40:49Z</time>
<extensions>
<speed>0.0</speed>
<temp>0.00</temp>
<bpm>0</bpm>
<rpm>0.00</rpm>
</extensions>
</trkpt>
<trkpt lat="30.608352661" lon="34.806369781">
<ele>892.531250</ele>
<time>2013-11-23T13:40:54Z</time>
<speed>0.040000</speed>
<extensions>
<speed>0.0</speed>
<temp>0.00</temp>
<bpm>0</bpm>
<rpm>0.00</rpm>
</extensions>
</trkpt>
<trkpt lat="30.608352661" lon="34.806373596">
<ele>892.484375</ele>
<time>2013-11-23T13:40:59Z</time>
<speed>0.060000</speed>
<extensions>
<speed>0.1</speed>
<temp>0.00</temp>
<bpm>0</bpm>
<rpm>0.00</rpm>
</extensions>
</trkpt>
<trkpt lat="30.608352661" lon="34.806373596">
<ele>892.421875</ele>
<time>2013-11-23T13:41:04Z</time>
<speed>0.050000</speed>
<extensions>
<speed>0.1</speed>
<temp>0.00</temp>
<bpm>0</bpm>
<rpm>0.00</rpm>
</extensions>
</trkpt>
<trkpt lat="30.608352661" lon="34.806377411">
<ele>892.343750</ele>
<time>2013-11-23T13:41:09Z</time>
<speed>0.010000</speed>
<extensions>
<speed>0.0</speed>
<temp>0.00</temp>
<bpm>0</bpm>
<rpm>0.00</rpm>
</extensions>
</trkpt>
<trkpt lat="30.608352661" lon="34.806377411">
<ele>892.281250</ele>
<time>2013-11-23T13:41:14Z</time>
<extensions>
<speed>0.0</speed>
<temp>0.00</temp>
<bpm>0</bpm>
<rpm>0.00</rpm>
</extensions>
</trkpt>
<trkpt lat="30.608350754" lon="34.806377411">
<ele>892.250000</ele>
<time>2013-11-23T13:41:19Z</time>
<speed>0.010000</speed>
<extensions>
<speed>0.0</speed>
<temp>0.00</temp>
<bpm>0</bpm>
<rpm>0.00</rpm>
</extensions>
</trkpt>
<trkpt lat="30.608350754" lon="34.806381226">
<ele>892.203125</ele>
<time>2013-11-23T13:41:24Z</time>
<speed>0.060000</speed>
<extensions>
<speed>0.1</speed>
<temp>0.00</temp>
<bpm>0</bpm>
<rpm>0.00</rpm>
</extensions>
</trkpt>
<trkpt lat="30.608350754" lon="34.806381226">
<ele>892.125000</ele>
<time>2013-11-23T13:41:29Z</time>
<speed>0.030000</speed>
<extensions>
<speed>0.0</speed>
<temp>0.00</temp>
<bpm>0</bpm>
<rpm>0.00</rpm>
</extensions>
</trkpt>
<trkpt lat="30.608350754" lon="34.806381226">
<ele>892.109375</ele>
<time>2013-11-23T13:41:34Z</time>
<speed>0.010000</speed>
<extensions>
<speed>0.0</speed>
<temp>0.00</temp>
<bpm>0</bpm>
<rpm>0.00</rpm>
</extensions>
</trkpt>
<trkpt lat="30.608350754" lon="34.806385040">
<ele>892.046875</ele>
<time>2013-11-23T13:41:39Z</time>
<speed>0.030000</speed>
<extensions>
<speed>0.0</speed>
<temp>0.00</temp>
<bpm>0</bpm>
<rpm>0.00</rpm>
</extensions>
</trkpt>
<trkpt lat="30.608350754" lon="34.806385040">
<ele>891.953125</ele>
<time>2013-11-23T13:41:44Z</time>
<speed>0.010000</speed>
<extensions>
<speed>0.0</speed>
<temp>0.00</temp>
<bpm>0</bpm>
<rpm>0.00</rpm>
</extensions>
</trkpt>
<trkpt lat="30.608350754" lon="34.806385040">
<ele>891.921875</ele>
<time>2013-11-23T13:41:49Z</time>
<speed>0.080000</speed>
<extensions>
<speed>0.1</speed>
<temp>0.00</temp>
<bpm>0</bpm>
<rpm>0.00</rpm>
</extensions>
</trkpt>
<trkpt lat="30.608350754" lon="34.806388855">
<ele>891.843750</ele>
<time>2013-11-23T13:41:54Z</time>
<speed>0.070000</speed>
<extensions>
<speed>0.1</speed>
<temp>0.00</temp>
<bpm>0</bpm>
<rpm>0.00</rpm>
</extensions>
</trkpt>
<trkpt lat="30.608350754" lon="34.806388855">
<ele>891.781250</ele>
<time>2013-11-23T13:41:59Z</time>
<speed>0.030000</speed>
<extensions>
<speed>0.0</speed>
<temp>0.00</temp>
<bpm>0</bpm>
<rpm>0.00</rpm>
</extensions>
</trkpt>
<trkpt lat="30.608348846" lon="34.806392670">
<ele>891.734375</ele>
<time>2013-11-23T13:42:04Z</time>
<speed>0.030000</speed>
<extensions>
<speed>0.0</speed>
<temp>0.00</temp>
<bpm>0</bpm>
<rpm>0.00</rpm>
</extensions>
</trkpt>
<trkpt lat="30.608348846" lon="34.806392670">
<ele>891.703125</ele>
<time>2013-11-23T13:42:09Z</time>
<speed>0.050000</speed>
<extensions>
<speed>0.1</speed>
<temp>0.00</temp>
<bpm>0</bpm>
<rpm>0.00</rpm>
</extensions>
</trkpt>
<trkpt lat="30.608348846" lon="34.806392670">
<ele>891.625000</ele>
<time>2013-11-23T13:42:14Z</time>
<speed>0.020000</speed>
<extensions>
<speed>0.0</speed>
<temp>0.00</temp>
<bpm>0</bpm>
<rpm>0.00</rpm>
</extensions>
</trkpt>
<trkpt lat="30.608348846" lon="34.806392670">
<ele>891.593750</ele>
<time>2013-11-23T13:42:19Z</time>
<speed>0.080000</speed>
<extensions>
<speed>0.1</speed>
<temp>0.00</temp>
<bpm>0</bpm>
<rpm>0.00</rpm>
</extensions>
</trkpt>
<trkpt lat="30.608348846" lon="34.806392670">
<ele>891.578125</ele>
<time>2013-11-23T13:42:24Z</time>
<extensions>
<speed>0.0</speed>
<temp>0.00</temp>
<bpm>0</bpm>
<rpm>0.00</rpm>
</extensions>
</trkpt>
<trkpt lat="30.608348846" lon="34.806392670">
<ele>891.562500</ele>
<time>2013-11-23T13:42:29Z</time>
<speed>0.010000</speed>
<extensions>
<speed>0.0</speed>
<temp>0.00</temp>
<bpm>0</bpm>
<rpm>0.00</rpm>
</extensions>
</trkpt>
<trkpt lat="30.608348846" lon="34.806392670">
<ele>891.515625</ele>
<time>2013-11-23T13:42:34Z</time>
<speed>0.020000</speed>
<extensions>
<speed>0.0</speed>
<temp>0.00</temp>
<bpm>0</bpm>
<rpm>0.00</rpm>
</extensions>
</trkpt>
<trkpt lat="30.608348846" lon="34.806392670">
<ele>891.437500</ele>
<time>2013-11-23T13:42:39Z</time>
<speed>0.030000</speed>
<extensions>
<speed>0.0</speed>
<temp>0.00</temp>
<bpm>0</bpm>
<rpm>0.00</rpm>
</extensions>
</trkpt>
<trkpt lat="30.608348846" lon="34.806396484">
<ele>891.312500</ele>
<time>2013-11-23T13:42:44Z</time>
<speed>0.020000</speed>
<extensions>
<speed>0.0</speed>
<temp>0.00</temp>
<bpm>0</bpm>
<rpm>0.00</rpm>
</extensions>
</trkpt>
<trkpt lat="30.608348846" lon="34.806396484">
<ele>891.265625</ele>
<time>2013-11-23T13:42:49Z</time>
<speed>0.010000</speed>
<extensions>
<speed>0.0</speed>
<temp>0.00</temp>
<bpm>0</bpm>
<rpm>0.00</rpm>
</extensions>
</trkpt>
<trkpt lat="30.608348846" lon="34.806396484">
<ele>891.218750</ele>
<time>2013-11-23T13:42:54Z</time>
<extensions>
<speed>0.0</speed>
<temp>0.00</temp>
<bpm>0</bpm>
<rpm>0.00</rpm>
</extensions>
</trkpt>
<trkpt lat="30.608348846" lon="34.806396484">
<ele>891.109375</ele>
<time>2013-11-23T13:42:59Z</time>
<speed>0.030000</speed>
<extensions>
<speed>0.0</speed>
<temp>0.00</temp>
<bpm>0</bpm>
<rpm>0.00</rpm>
</extensions>
</trkpt>
<trkpt lat="30.608346939" lon="34.806396484">
<ele>890.906250</ele>
<time>2013-11-23T13:43:04Z</time>
<speed>0.030000</speed>
<extensions>
<speed>0.0</speed>
<temp>0.00</temp>
<bpm>0</bpm>
<rpm>0.00</rpm>
</extensions>
</trkpt>
<trkpt lat="30.608346939" lon="34.806400299">
<ele>890.671875</ele>
<time>2013-11-23T13:43:09Z</time>
<speed>0.030000</speed>
<extensions>
<speed>0.0</speed>
<temp>0.00</temp>
<bpm>0</bpm>
<rpm>0.00</rpm>
</extensions>
</trkpt>
<trkpt lat="30.608346939" lon="34.806400299">
<ele>890.406250</ele>
<time>2013-11-23T13:43:14Z</time>
<speed>0.040000</speed>
<extensions>
<speed>0.0</speed>
<temp>0.00</temp>
<bpm>0</bpm>
<rpm>0.00</rpm>
</extensions>
</trkpt>
<trkpt lat="30.608345032" lon="34.806400299">
<ele>890.328125</ele>
<time>2013-11-23T13:43:19Z</time>
<speed>0.010000</speed>
<extensions>
<speed>0.0</speed>
<temp>0.00</temp>
<bpm>0</bpm>
<rpm>0.00</rpm>
</extensions>
</trkpt>
<trkpt lat="30.608345032" lon="34.806400299">
<ele>890.296875</ele>
<time>2013-11-23T13:43:24Z</time>
<extensions>
<speed>0.0</speed>
<temp>0.00</temp>
<bpm>0</bpm>
<rpm>0.00</rpm>
</extensions>
</trkpt>
<trkpt lat="30.608345032" lon="34.806400299">
<ele>890.265625</ele>
<time>2013-11-23T13:43:29Z</time>
<speed>0.010000</speed>
<extensions>
<speed>0.0</speed>
<temp>0.00</temp>
<bpm>0</bpm>
<rpm>0.00</rpm>
</extensions>
</trkpt>
<trkpt lat="30.608345032" lon="34.806400299">
<ele>890.250000</ele>
<time>2013-11-23T13:43:34Z</time>
<extensions>
<speed>0.0</speed>
<temp>0.00</temp>
<bpm>0</bpm>
<rpm>0.00</rpm>
</extensions>
</trkpt>
<trkpt lat="30.608345032" lon="34.806400299">
<ele>890.203125</ele>
<time>2013-11-23T13:43:39Z</time>
<speed>0.010000</speed>
<extensions>
<speed>0.0</speed>
<temp>0.00</temp>
<bpm>0</bpm>
<rpm>0.00</rpm>
</extensions>
</trkpt>
<trkpt lat="30.608345032" lon="34.806400299">
<ele>890.125000</ele>
<time>2013-11-23T13:43:44Z</time>
<speed>0.010000</speed>
<extensions>
<speed>0.0</speed>
<temp>0.00</temp>
<bpm>0</bpm>
<rpm>0.00</rpm>
</extensions>
</trkpt>
<trkpt lat="30.608345032" lon="34.806404114">
<ele>890.015625</ele>
<time>2013-11-23T13:43:49Z</time>
<speed>0.020000</speed>
<extensions>
<speed>0.0</speed>
<temp>0.00</temp>
<bpm>0</bpm>
<rpm>0.00</rpm>
</extensions>
</trkpt>
<trkpt lat="30.608345032" lon="34.806404114">
<ele>889.875000</ele>
<time>2013-11-23T13:43:54Z</time>
<speed>0.010000</speed>
<extensions>
<speed>0.0</speed>
<temp>0.00</temp>
<bpm>0</bpm>
<rpm>0.00</rpm>
</extensions>
</trkpt>
<trkpt lat="30.608345032" lon="34.806404114">
<ele>889.703125</ele>
<time>2013-11-23T13:43:59Z</time>
<speed>0.030000</speed>
<extensions>
<speed>0.0</speed>
<temp>0.00</temp>
<bpm>0</bpm>
<rpm>0.00</rpm>
</extensions>
</trkpt>
<trkpt lat="30.608345032" lon="34.806407928">
<ele>889.500000</ele>
<time>2013-11-23T13:44:04Z</time>
<speed>0.020000</speed>
<extensions>
<speed>0.0</speed>
<temp>0.00</temp>
<bpm>0</bpm>
<rpm>0.00</rpm>
</extensions>
</trkpt>
<trkpt lat="30.608343124" lon="34.806407928">
<ele>889.250000</ele>
<time>2013-11-23T13:44:09Z</time>
<speed>0.030000</speed>
<extensions>
<speed>0.0</speed>
<temp>0.00</temp>
<bpm>0</bpm>
<rpm>0.00</rpm>
</extensions>
</trkpt>
<trkpt lat="30.608343124" lon="34.806407928">
<ele>888.984375</ele>
<time>2013-11-23T13:44:14Z</time>
<speed>0.050000</speed>
<extensions>
<speed>0.1</speed>
<temp>0.00</temp>
<bpm>0</bpm>
<rpm>0.00</rpm>
</extensions>
</trkpt>
<trkpt lat="30.608343124" lon="34.806411743">
<ele>888.687500</ele>
<time>2013-11-23T13:44:19Z</time>
<speed>0.030000</speed>
<extensions>
<speed>0.0</speed>
<temp>0.00</temp>
<bpm>0</bpm>
<rpm>0.00</rpm>
</extensions>
</trkpt>
<trkpt lat="30.608343124" lon="34.806411743">
<ele>888.375000</ele>
<time>2013-11-23T13:44:24Z</time>
<speed>0.050000</speed>
<extensions>
<speed>0.1</speed>
<temp>0.00</temp>
<bpm>0</bpm>
<rpm>0.00</rpm>
</extensions>
</trkpt>
<trkpt lat="30.608341217" lon="34.806415558">
<ele>888.046875</ele>
<time>2013-11-23T13:44:29Z</time>
<speed>0.050000</speed>
<extensions>
<speed>0.1</speed>
<temp>0.00</temp>
<bpm>0</bpm>
<rpm>0.00</rpm>
</extensions>
</trkpt>
<trkpt lat="30.608341217" lon="34.806415558">
<ele>887.718750</ele>
<time>2013-11-23T13:44:34Z</time>
<speed>0.040000</speed>
<extensions>
<speed>0.0</speed>
<temp>0.00</temp>
<bpm>0</bpm>
<rpm>0.00</rpm>
</extensions>
</trkpt>
<trkpt lat="30.608341217" lon="34.806419373">
<ele>887.390625</ele>
<time>2013-11-23T13:44:39Z</time>
<speed>0.050000</speed>
<extensions>
<speed>0.1</speed>
<temp>0.00</temp>
<bpm>0</bpm>
<rpm>0.00</rpm>
</extensions>
</trkpt>
<trkpt lat="30.608339310" lon="34.806423187">
<ele>887.078125</ele>
<time>2013-11-23T13:44:44Z</time>
<speed>0.030000</speed>
<extensions>
<speed>0.0</speed>
<temp>0.00</temp>
<bpm>0</bpm>
<rpm>0.00</rpm>
</extensions>
</trkpt>
<trkpt lat="30.608339310" lon="34.806423187">
<ele>886.750000</ele>
<time>2013-11-23T13:44:49Z</time>
<speed>0.040000</speed>
<extensions>
<speed>0.0</speed>
<temp>0.00</temp>
<bpm>0</bpm>
<rpm>0.00</rpm>
</extensions>
</trkpt>
<trkpt lat="30.608339310" lon="34.806427002">
<ele>886.437500</ele>
<time>2013-11-23T13:44:54Z</time>
<speed>0.040000</speed>
<extensions>
<speed>0.0</speed>
<temp>0.00</temp>
<bpm>0</bpm>
<rpm>0.00</rpm>
</extensions>
</trkpt>
<trkpt lat="30.608339310" lon="34.806427002">
<ele>886.125000</ele>
<time>2013-11-23T13:44:59Z</time>
<speed>0.050000</speed>
<extensions>
<speed>0.1</speed>
<temp>0.00</temp>
<bpm>0</bpm>
<rpm>0.00</rpm>
</extensions>
</trkpt>
<trkpt lat="30.608337402" lon="34.806430817">
<ele>885.828125</ele>
<time>2013-11-23T13:45:04Z</time>
<speed>0.050000</speed>
<extensions>
<speed>0.1</speed>
<temp>0.00</temp>
<bpm>0</bpm>
<rpm>0.00</rpm>
</extensions>
</trkpt>
<trkpt lat="30.608337402" lon="34.806430817">
<ele>885.562500</ele>
<time>2013-11-23T13:45:09Z</time>
<speed>0.040000</speed>
<extensions>
<speed>0.0</speed>
<temp>0.00</temp>
<bpm>0</bpm>
<rpm>0.00</rpm>
</extensions>
</trkpt>
<trkpt lat="30.608337402" lon="34.806434631">
<ele>885.281250</ele>
<time>2013-11-23T13:45:14Z</time>
<speed>0.040000</speed>
<extensions>
<speed>0.0</speed>
<temp>0.00</temp>
<bpm>0</bpm>
<rpm>0.00</rpm>
</extensions>
</trkpt>
<trkpt lat="30.608337402" lon="34.806434631">
<ele>885.000000</ele>
<time>2013-11-23T13:45:19Z</time>
<speed>0.040000</speed>
<extensions>
<speed>0.0</speed>
<temp>0.00</temp>
<bpm>0</bpm>
<rpm>0.00</rpm>
</extensions>
</trkpt>
<trkpt lat="30.608335495" lon="34.806438446">
<ele>884.718750</ele>
<time>2013-11-23T13:45:24Z</time>
<speed>0.040000</speed>
<extensions>
<speed>0.0</speed>
<temp>0.00</temp>
<bpm>0</bpm>
<rpm>0.00</rpm>
</extensions>
</trkpt>
<trkpt lat="30.608335495" lon="34.806438446">
<ele>884.453125</ele>
<time>2013-11-23T13:45:29Z</time>
<speed>0.040000</speed>
<extensions>
<speed>0.0</speed>
<temp>0.00</temp>
<bpm>0</bpm>
<rpm>0.00</rpm>
</extensions>
</trkpt>
<trkpt lat="30.608335495" lon="34.806442261">
<ele>884.171875</ele>
<time>2013-11-23T13:45:34Z</time>
<speed>0.040000</speed>
<extensions>
<speed>0.0</speed>
<temp>0.00</temp>
<bpm>0</bpm>
<rpm>0.00</rpm>
</extensions>
</trkpt>
<trkpt lat="30.608333588" lon="34.806442261">
<ele>883.906250</ele>
<time>2013-11-23T13:45:39Z</time>
<speed>0.040000</speed>
<extensions>
<speed>0.0</speed>
<temp>0.00</temp>
<bpm>0</bpm>
<rpm>0.00</rpm>
</extensions>
</trkpt>
<trkpt lat="30.608333588" lon="34.806442261">
<ele>883.656250</ele>
<time>2013-11-23T13:45:44Z</time>
<speed>0.030000</speed>
<extensions>
<speed>0.0</speed>
<temp>0.00</temp>
<bpm>0</bpm>
<rpm>0.00</rpm>
</extensions>
</trkpt>
<trkpt lat="30.608333588" lon="34.806446075">
<ele>883.390625</ele>
<time>2013-11-23T13:45:49Z</time>
<speed>0.030000</speed>
<extensions>
<speed>0.0</speed>
<temp>0.00</temp>
<bpm>0</bpm>
<rpm>0.00</rpm>
</extensions>
</trkpt>
<trkpt lat="30.608333588" lon="34.806446075">
<ele>883.140625</ele>
<time>2013-11-23T13:45:54Z</time>
<speed>0.030000</speed>
<extensions>
<speed>0.0</speed>
<temp>0.00</temp>
<bpm>0</bpm>
<rpm>0.00</rpm>
</extensions>
</trkpt>
<trkpt lat="30.608331680" lon="34.806449890">
<ele>882.750000</ele>
<time>2013-11-23T13:45:59Z</time>
<speed>0.020000</speed>
<extensions>
<speed>0.0</speed>
<temp>0.00</temp>
<bpm>0</bpm>
<rpm>0.00</rpm>
</extensions>
</trkpt>
<trkpt lat="30.608331680" lon="34.806449890">
<ele>882.484375</ele>
<time>2013-11-23T13:46:04Z</time>
<speed>0.040000</speed>
<extensions>
<speed>0.0</speed>
<temp>0.00</temp>
<bpm>0</bpm>
<rpm>0.00</rpm>
</extensions>
</trkpt>
<trkpt lat="30.608331680" lon="34.806449890">
<ele>882.421875</ele>
<time>2013-11-23T13:46:09Z</time>
<extensions>
<speed>0.0</speed>
<temp>0.00</temp>
<bpm>0</bpm>
<rpm>0.00</rpm>
</extensions>
</trkpt>
<trkpt lat="30.608331680" lon="34.806449890">
<ele>882.375000</ele>
<time>2013-11-23T13:46:14Z</time>
<extensions>
<speed>0.0</speed>
<temp>0.00</temp>
<bpm>0</bpm>
<rpm>0.00</rpm>
</extensions>
</trkpt>
<trkpt lat="30.608331680" lon="34.806449890">
<ele>882.296875</ele>
<time>2013-11-23T13:46:19Z</time>
<speed>0.010000</speed>
<extensions>
<speed>0.0</speed>
<temp>0.00</temp>
<bpm>0</bpm>
<rpm>0.00</rpm>
</extensions>
</trkpt>
<trkpt lat="30.608331680" lon="34.806449890">
<ele>882.187500</ele>
<time>2013-11-23T13:46:24Z</time>
<speed>0.010000</speed>
<extensions>
<speed>0.0</speed>
<temp>0.00</temp>
<bpm>0</bpm>
<rpm>0.00</rpm>
</extensions>
</trkpt>
<trkpt lat="30.608331680" lon="34.806453705">
<ele>882.046875</ele>
<time>2013-11-23T13:46:29Z</time>
<speed>0.010000</speed>
<extensions>
<speed>0.0</speed>
<temp>0.00</temp>
<bpm>0</bpm>
<rpm>0.00</rpm>
</extensions>
</trkpt>
<trkpt lat="30.608329773" lon="34.806453705">
<ele>881.687500</ele>
<time>2013-11-23T13:46:34Z</time>
<speed>0.020000</speed>
<extensions>
<speed>0.0</speed>
<temp>0.00</temp>
<bpm>0</bpm>
<rpm>0.00</rpm>
</extensions>
</trkpt>
<trkpt lat="30.608329773" lon="34.806453705">
<ele>881.484375</ele>
<time>2013-11-23T13:46:39Z</time>
<speed>0.030000</speed>
<extensions>
<speed>0.0</speed>
<temp>0.00</temp>
<bpm>0</bpm>
<rpm>0.00</rpm>
</extensions>
</trkpt>
<trkpt lat="30.608329773" lon="34.806453705">
<ele>881.343750</ele>
<time>2013-11-23T13:46:44Z</time>
<extensions>
<speed>0.0</speed>
<temp>0.00</temp>
<bpm>0</bpm>
<rpm>0.00</rpm>
</extensions>
</trkpt>
<trkpt lat="30.608329773" lon="34.806453705">
<ele>881.312500</ele>
<time>2013-11-23T13:46:49Z</time>
<speed>0.010000</speed>
<extensions>
<speed>0.0</speed>
<temp>0.00</temp>
<bpm>0</bpm>
<rpm>0.00</rpm>
</extensions>
</trkpt>
<trkpt lat="30.608329773" lon="34.806453705">
<ele>881.281250</ele>
<time>2013-11-23T13:46:54Z</time>
<extensions>
<speed>0.0</speed>
<temp>0.00</temp>
<bpm>0</bpm>
<rpm>0.00</rpm>
</extensions>
</trkpt>
<trkpt lat="30.608329773" lon="34.806453705">
<ele>881.250000</ele>
<time>2013-11-23T13:46:59Z</time>
<speed>0.020000</speed>
<extensions>
<speed>0.0</speed>
<temp>0.00</temp>
<bpm>0</bpm>
<rpm>0.00</rpm>
</extensions>
</trkpt>
<trkpt lat="30.608327866" lon="34.806453705">
<ele>880.875000</ele>
<time>2013-11-23T13:47:04Z</time>
<speed>0.030000</speed>
<extensions>
<speed>0.0</speed>
<temp>0.00</temp>
<bpm>0</bpm>
<rpm>0.00</rpm>
</extensions>
</trkpt>
<trkpt lat="30.608327866" lon="34.806453705">
<ele>880.796875</ele>
<time>2013-11-23T13:47:09Z</time>
<extensions>
<speed>0.0</speed>
<temp>0.00</temp>
<bpm>0</bpm>
<rpm>0.00</rpm>
</extensions>
</trkpt>
<trkpt lat="30.608325958" lon="34.806453705">
<ele>880.734375</ele>
<time>2013-11-23T13:47:14Z</time>
<extensions>
<speed>0.0</speed>
<temp>0.00</temp>
<bpm>0</bpm>
<rpm>0.00</rpm>
</extensions>
</trkpt>
<trkpt lat="30.608325958" lon="34.806453705">
<ele>880.703125</ele>
<time>2013-11-23T13:47:19Z</time>
<speed>0.010000</speed>
<extensions>
<speed>0.0</speed>
<temp>0.00</temp>
<bpm>0</bpm>
<rpm>0.00</rpm>
</extensions>
</trkpt>
<trkpt lat="30.608325958" lon="34.806453705">
<ele>880.671875</ele>
<time>2013-11-23T13:47:24Z</time>
<extensions>
<speed>0.0</speed>
<temp>0.00</temp>
<bpm>0</bpm>
<rpm>0.00</rpm>
</extensions>
</trkpt>
<trkpt lat="30.608325958" lon="34.806453705">
<ele>880.656250</ele>
<time>2013-11-23T13:47:29Z</time>
<extensions>
<speed>0.0</speed>
<temp>0.00</temp>
<bpm>0</bpm>
<rpm>0.00</rpm>
</extensions>
</trkpt>
<trkpt lat="30.608325958" lon="34.806453705">
<ele>880.640625</ele>
<time>2013-11-23T13:47:34Z</time>
<extensions>
<speed>0.0</speed>
<temp>0.00</temp>
<bpm>0</bpm>
<rpm>0.00</rpm>
</extensions>
</trkpt>
<trkpt lat="30.608325958" lon="34.806453705">
<ele>880.640625</ele>
<time>2013-11-23T13:47:39Z</time>
<extensions>
<speed>0.0</speed>
<temp>0.00</temp>
<bpm>0</bpm>
<rpm>0.00</rpm>
</extensions>
</trkpt>
<trkpt lat="30.608325958" lon="34.806453705">
<ele>880.625000</ele>
<time>2013-11-23T13:47:44Z</time>
<extensions>
<speed>0.0</speed>
<temp>0.00</temp>
<bpm>0</bpm>
<rpm>0.00</rpm>
</extensions>
</trkpt>
<trkpt lat="30.608325958" lon="34.806453705">
<ele>880.593750</ele>
<time>2013-11-23T13:47:49Z</time>
<extensions>
<speed>0.0</speed>
<temp>0.00</temp>
<bpm>0</bpm>
<rpm>0.00</rpm>
</extensions>
</trkpt>
<trkpt lat="30.608325958" lon="34.806453705">
<ele>880.578125</ele>
<time>2013-11-23T13:47:54Z</time>
<speed>0.010000</speed>
<extensions>
<speed>0.0</speed>
<temp>0.00</temp>
<bpm>0</bpm>
<rpm>0.00</rpm>
</extensions>
</trkpt>
<trkpt lat="30.608325958" lon="34.806453705">
<ele>880.546875</ele>
<time>2013-11-23T13:47:59Z</time>
<extensions>
<speed>0.0</speed>
<temp>0.00</temp>
<bpm>0</bpm>
<rpm>0.00</rpm>
</extensions>
</trkpt>
<trkpt lat="30.608325958" lon="34.806453705">
<ele>880.546875</ele>
<time>2013-11-23T13:48:04Z</time>
<extensions>
<speed>0.0</speed>
<temp>0.00</temp>
<bpm>0</bpm>
<rpm>0.00</rpm>
</extensions>
</trkpt>
<trkpt lat="30.608325958" lon="34.806453705">
<ele>880.515625</ele>
<time>2013-11-23T13:48:09Z</time>
<extensions>
<speed>0.0</speed>
<temp>0.00</temp>
<bpm>0</bpm>
<rpm>0.00</rpm>
</extensions>
</trkpt>
<trkpt lat="30.608325958" lon="34.806453705">
<ele>880.515625</ele>
<time>2013-11-23T13:48:14Z</time>
<extensions>
<speed>0.0</speed>
<temp>0.00</temp>
<bpm>0</bpm>
<rpm>0.00</rpm>
</extensions>
</trkpt>
<trkpt lat="30.608325958" lon="34.806453705">
<ele>880.500000</ele>
<time>2013-11-23T13:48:19Z</time>
<extensions>
<speed>0.0</speed>
<temp>0.00</temp>
<bpm>0</bpm>
<rpm>0.00</rpm>
</extensions>
</trkpt>
<trkpt lat="30.608325958" lon="34.806453705">
<ele>880.500000</ele>
<time>2013-11-23T13:48:24Z</time>
<extensions>
<speed>0.0</speed>
<temp>0.00</temp>
<bpm>0</bpm>
<rpm>0.00</rpm>
</extensions>
</trkpt>
<trkpt lat="30.608325958" lon="34.806453705">
<ele>880.468750</ele>
<time>2013-11-23T13:48:29Z</time>
<speed>0.010000</speed>
<extensions>
<speed>0.0</speed>
<temp>0.00</temp>
<bpm>0</bpm>
<rpm>0.00</rpm>
</extensions>
</trkpt>
<trkpt lat="30.608325958" lon="34.806453705">
<ele>880.437500</ele>
<time>2013-11-23T13:48:34Z</time>
<extensions>
<speed>0.0</speed>
<temp>0.00</temp>
<bpm>0</bpm>
<rpm>0.00</rpm>
</extensions>
</trkpt>
<trkpt lat="30.608325958" lon="34.806453705">
<ele>880.390625</ele>
<time>2013-11-23T13:48:39Z</time>
<extensions>
<speed>0.0</speed>
<temp>0.00</temp>
<bpm>0</bpm>
<rpm>0.00</rpm>
</extensions>
</trkpt>
<trkpt lat="30.608325958" lon="34.806453705">
<ele>880.328125</ele>
<time>2013-11-23T13:48:44Z</time>
<speed>0.010000</speed>
<extensions>
<speed>0.0</speed>
<temp>0.00</temp>
<bpm>0</bpm>
<rpm>0.00</rpm>
</extensions>
</trkpt>
<trkpt lat="30.608325958" lon="34.806449890">
<ele>880.125000</ele>
<time>2013-11-23T13:48:49Z</time>
<speed>0.010000</speed>
<extensions>
<speed>0.0</speed>
<temp>0.00</temp>
<bpm>0</bpm>
<rpm>0.00</rpm>
</extensions>
</trkpt>
<trkpt lat="30.608325958" lon="34.806453705">
<ele>880.031250</ele>
<time>2013-11-23T13:48:54Z</time>
<extensions>
<speed>0.0</speed>
<temp>0.00</temp>
<bpm>0</bpm>
<rpm>0.00</rpm>
</extensions>
</trkpt>
<trkpt lat="30.608325958" lon="34.806453705">
<ele>879.906250</ele>
<time>2013-11-23T13:48:59Z</time>
<extensions>
<speed>0.0</speed>
<temp>0.00</temp>
<bpm>0</bpm>
<rpm>0.00</rpm>
</extensions>
</trkpt>
<trkpt lat="30.608324051" lon="34.806453705">
<ele>879.796875</ele>
<time>2013-11-23T13:49:04Z</time>
<speed>0.020000</speed>
<extensions>
<speed>0.0</speed>
<temp>0.00</temp>
<bpm>0</bpm>
<rpm>0.00</rpm>
</extensions>
</trkpt>
<trkpt lat="30.608324051" lon="34.806453705">
<ele>879.687500</ele>
<time>2013-11-23T13:49:09Z</time>
<speed>0.020000</speed>
<extensions>
<speed>0.0</speed>
<temp>0.00</temp>
<bpm>0</bpm>
<rpm>0.00</rpm>
</extensions>
</trkpt>
<trkpt lat="30.608324051" lon="34.806453705">
<ele>879.593750</ele>
<time>2013-11-23T13:49:14Z</time>
<speed>0.010000</speed>
<extensions>
<speed>0.0</speed>
<temp>0.00</temp>
<bpm>0</bpm>
<rpm>0.00</rpm>
</extensions>
</trkpt>
<trkpt lat="30.608324051" lon="34.806453705">
<ele>879.593750</ele>
<time>2013-11-23T13:49:19Z</time>
<extensions>
<speed>0.0</speed>
<temp>0.00</temp>
<bpm>0</bpm>
<rpm>0.00</rpm>
</extensions>
</trkpt>
<trkpt lat="30.608325958" lon="34.806453705">
<ele>879.578125</ele>
<time>2013-11-23T13:49:24Z</time>
<extensions>
<speed>0.0</speed>
<temp>0.00</temp>
<bpm>0</bpm>
<rpm>0.00</rpm>
</extensions>
</trkpt>
<trkpt lat="30.608325958" lon="34.806453705">
<ele>879.531250</ele>
<time>2013-11-23T13:49:29Z</time>
<extensions>
<speed>0.0</speed>
<temp>0.00</temp>
<bpm>0</bpm>
<rpm>0.00</rpm>
</extensions>
</trkpt>
<trkpt lat="30.608325958" lon="34.806453705">
<ele>879.531250</ele>
<time>2013-11-23T13:49:34Z</time>
<speed>0.010000</speed>
<extensions>
<speed>0.0</speed>
<temp>0.00</temp>
<bpm>0</bpm>
<rpm>0.00</rpm>
</extensions>
</trkpt>
<trkpt lat="30.608325958" lon="34.806453705">
<ele>879.515625</ele>
<time>2013-11-23T13:49:39Z</time>
<extensions>
<speed>0.0</speed>
<temp>0.00</temp>
<bpm>0</bpm>
<rpm>0.00</rpm>
</extensions>
</trkpt>
<trkpt lat="30.608325958" lon="34.806453705">
<ele>879.515625</ele>
<time>2013-11-23T13:49:44Z</time>
<extensions>
<speed>0.0</speed>
<temp>0.00</temp>
<bpm>0</bpm>
<rpm>0.00</rpm>
</extensions>
</trkpt>
<trkpt lat="30.608325958" lon="34.806453705">
<ele>879.515625</ele>
<time>2013-11-23T13:49:49Z</time>
<extensions>
<speed>0.0</speed>
<temp>0.00</temp>
<bpm>0</bpm>
<rpm>0.00</rpm>
</extensions>
</trkpt>
<trkpt lat="30.608325958" lon="34.806453705">
<ele>879.500000</ele>
<time>2013-11-23T13:49:54Z</time>
<speed>0.020000</speed>
<extensions>
<speed>0.0</speed>
<temp>0.00</temp>
<bpm>0</bpm>
<rpm>0.00</rpm>
</extensions>
</trkpt>
<trkpt lat="30.608324051" lon="34.806453705">
<ele>879.484375</ele>
<time>2013-11-23T13:49:59Z</time>
<extensions>
<speed>0.0</speed>
<temp>0.00</temp>
<bpm>0</bpm>
<rpm>0.00</rpm>
</extensions>
</trkpt>
<trkpt lat="30.608324051" lon="34.806453705">
<ele>879.484375</ele>
<time>2013-11-23T13:50:04Z</time>
<extensions>
<speed>0.0</speed>
<temp>0.00</temp>
<bpm>0</bpm>
<rpm>0.00</rpm>
</extensions>
</trkpt>
<trkpt lat="30.608324051" lon="34.806453705">
<ele>879.468750</ele>
<time>2013-11-23T13:50:09Z</time>
<extensions>
<speed>0.0</speed>
<temp>0.00</temp>
<bpm>0</bpm>
<rpm>0.00</rpm>
</extensions>
</trkpt>
<trkpt lat="30.608324051" lon="34.806453705">
<ele>879.453125</ele>
<time>2013-11-23T13:50:14Z</time>
<extensions>
<speed>0.0</speed>
<temp>0.00</temp>
<bpm>0</bpm>
<rpm>0.00</rpm>
</extensions>
</trkpt>
<trkpt lat="30.608324051" lon="34.806453705">
<ele>879.437500</ele>
<time>2013-11-23T13:50:19Z</time>
<extensions>
<speed>0.0</speed>
<temp>0.00</temp>
<bpm>0</bpm>
<rpm>0.00</rpm>
</extensions>
</trkpt>
<trkpt lat="30.608324051" lon="34.806453705">
<ele>879.437500</ele>
<time>2013-11-23T13:50:24Z</time>
<extensions>
<speed>0.0</speed>
<temp>0.00</temp>
<bpm>0</bpm>
<rpm>0.00</rpm>
</extensions>
</trkpt>
<trkpt lat="30.608324051" lon="34.806453705">
<ele>879.421875</ele>
<time>2013-11-23T13:50:29Z</time>
<extensions>
<speed>0.0</speed>
<temp>0.00</temp>
<bpm>0</bpm>
<rpm>0.00</rpm>
</extensions>
</trkpt>
<trkpt lat="30.608324051" lon="34.806453705">
<ele>879.421875</ele>
<time>2013-11-23T13:50:34Z</time>
<extensions>
<speed>0.0</speed>
<temp>0.00</temp>
<bpm>0</bpm>
<rpm>0.00</rpm>
</extensions>
</trkpt>
<trkpt lat="30.608324051" lon="34.806453705">
<ele>879.421875</ele>
<time>2013-11-23T13:50:39Z</time>
<extensions>
<speed>0.0</speed>
<temp>0.00</temp>
<bpm>0</bpm>
<rpm>0.00</rpm>
</extensions>
</trkpt>
<trkpt lat="30.608324051" lon="34.806453705">
<ele>879.406250</ele>
<time>2013-11-23T13:50:44Z</time>
<speed>0.010000</speed>
<extensions>
<speed>0.0</speed>
<temp>0.00</temp>
<bpm>0</bpm>
<rpm>0.00</rpm>
</extensions>
</trkpt>
<trkpt lat="30.608324051" lon="34.806453705">
<ele>879.406250</ele>
<time>2013-11-23T13:50:49Z</time>
<extensions>
<speed>0.0</speed>
<temp>0.00</temp>
<bpm>0</bpm>
<rpm>0.00</rpm>
</extensions>
</trkpt>
<trkpt lat="30.608324051" lon="34.806449890">
<ele>879.390625</ele>
<time>2013-11-23T13:50:54Z</time>
<extensions>
<speed>0.0</speed>
<temp>0.00</temp>
<bpm>0</bpm>
<rpm>0.00</rpm>
</extensions>
</trkpt>
<trkpt lat="30.608324051" lon="34.806449890">
<ele>879.390625</ele>
<time>2013-11-23T13:50:59Z</time>
<speed>0.010000</speed>
<extensions>
<speed>0.0</speed>
<temp>0.00</temp>
<bpm>0</bpm>
<rpm>0.00</rpm>
</extensions>
</trkpt>
<trkpt lat="30.608324051" lon="34.806449890">
<ele>879.375000</ele>
<time>2013-11-23T13:51:04Z</time>
<extensions>
<speed>0.0</speed>
<temp>0.00</temp>
<bpm>0</bpm>
<rpm>0.00</rpm>
</extensions>
</trkpt>
<trkpt lat="30.608324051" lon="34.806449890">
<ele>879.375000</ele>
<time>2013-11-23T13:51:09Z</time>
<extensions>
<speed>0.0</speed>
<temp>0.00</temp>
<bpm>0</bpm>
<rpm>0.00</rpm>
</extensions>
</trkpt>
<trkpt lat="30.608324051" lon="34.806449890">
<ele>879.359375</ele>
<time>2013-11-23T13:51:14Z</time>
<speed>0.020000</speed>
<extensions>
<speed>0.0</speed>
<temp>0.00</temp>
<bpm>0</bpm>
<rpm>0.00</rpm>
</extensions>
</trkpt>
<trkpt lat="30.608324051" lon="34.806449890">
<ele>879.343750</ele>
<time>2013-11-23T13:51:19Z</time>
<speed>0.010000</speed>
<extensions>
<speed>0.0</speed>
<temp>0.00</temp>
<bpm>0</bpm>
<rpm>0.00</rpm>
</extensions>
</trkpt>
<trkpt lat="30.608324051" lon="34.806449890">
<ele>879.328125</ele>
<time>2013-11-23T13:51:24Z</time>
<extensions>
<speed>0.0</speed>
<temp>0.00</temp>
<bpm>0</bpm>
<rpm>0.00</rpm>
</extensions>
</trkpt>
<trkpt lat="30.608324051" lon="34.806449890">
<ele>879.328125</ele>
<time>2013-11-23T13:51:29Z</time>
<speed>0.010000</speed>
<extensions>
<speed>0.0</speed>
<temp>0.00</temp>
<bpm>0</bpm>
<rpm>0.00</rpm>
</extensions>
</trkpt>
<trkpt lat="30.608324051" lon="34.806449890">
<ele>879.312500</ele>
<time>2013-11-23T13:51:34Z</time>
<extensions>
<speed>0.0</speed>
<temp>0.00</temp>
<bpm>0</bpm>
<rpm>0.00</rpm>
</extensions>
</trkpt>
<trkpt lat="30.608324051" lon="34.806449890">
<ele>879.281250</ele>
<time>2013-11-23T13:51:39Z</time>
<extensions>
<speed>0.0</speed>
<temp>0.00</temp>
<bpm>0</bpm>
<rpm>0.00</rpm>
</extensions>
</trkpt>
<trkpt lat="30.608324051" lon="34.806449890">
<ele>879.265625</ele>
<time>2013-11-23T13:51:44Z</time>
<extensions>
<speed>0.0</speed>
<temp>0.00</temp>
<bpm>0</bpm>
<rpm>0.00</rpm>
</extensions>
</trkpt>
<trkpt lat="30.608324051" lon="34.806449890">
<ele>879.265625</ele>
<time>2013-11-23T13:51:49Z</time>
<extensions>
<speed>0.0</speed>
<temp>0.00</temp>
<bpm>0</bpm>
<rpm>0.00</rpm>
</extensions>
</trkpt>
<trkpt lat="30.608324051" lon="34.806449890">
<ele>879.250000</ele>
<time>2013-11-23T13:51:54Z</time>
<extensions>
<speed>0.0</speed>
<temp>0.00</temp>
<bpm>0</bpm>
<rpm>0.00</rpm>
</extensions>
</trkpt>
<trkpt lat="30.608324051" lon="34.806449890">
<ele>879.234375</ele>
<time>2013-11-23T13:51:59Z</time>
<speed>0.010000</speed>
<extensions>
<speed>0.0</speed>
<temp>0.00</temp>
<bpm>0</bpm>
<rpm>0.00</rpm>
</extensions>
</trkpt>
<trkpt lat="30.608324051" lon="34.806449890">
<ele>879.218750</ele>
<time>2013-11-23T13:52:04Z</time>
<speed>0.010000</speed>
<extensions>
<speed>0.0</speed>
<temp>0.00</temp>
<bpm>0</bpm>
<rpm>0.00</rpm>
</extensions>
</trkpt>
<trkpt lat="30.608324051" lon="34.806449890">
<ele>879.234375</ele>
<time>2013-11-23T13:52:09Z</time>
<speed>0.010000</speed>
<extensions>
<speed>0.0</speed>
<temp>0.00</temp>
<bpm>0</bpm>
<rpm>0.00</rpm>
</extensions>
</trkpt>
<trkpt lat="30.608324051" lon="34.806449890">
<ele>879.234375</ele>
<time>2013-11-23T13:52:14Z</time>
<extensions>
<speed>0.0</speed>
<temp>0.00</temp>
<bpm>0</bpm>
<rpm>0.00</rpm>
</extensions>
</trkpt>
<trkpt lat="30.608324051" lon="34.806449890">
<ele>879.218750</ele>
<time>2013-11-23T13:52:19Z</time>
<speed>0.010000</speed>
<extensions>
<speed>0.0</speed>
<temp>0.00</temp>
<bpm>0</bpm>
<rpm>0.00</rpm>
</extensions>
</trkpt>
<trkpt lat="30.608324051" lon="34.806449890">
<ele>879.218750</ele>
<time>2013-11-23T13:52:24Z</time>
<speed>0.430000</speed>
<extensions>
<speed>0.4</speed>
<temp>0.00</temp>
<bpm>0</bpm>
<rpm>0.00</rpm>
</extensions>
</trkpt>
<trkpt lat="30.608327866" lon="34.806457520">
<ele>878.875000</ele>
<time>2013-11-23T13:52:29Z</time>
<speed>0.070000</speed>
<extensions>
<speed>0.1</speed>
<temp>0.00</temp>
<bpm>0</bpm>
<rpm>0.00</rpm>
</extensions>
</trkpt>
<trkpt lat="30.608331680" lon="34.806457520">
<ele>878.609375</ele>
<time>2013-11-23T13:52:34Z</time>
<speed>0.720000</speed>
<extensions>
<speed>0.7</speed>
<temp>0.00</temp>
<bpm>0</bpm>
<rpm>0.00</rpm>
</extensions>
</trkpt>
<trkpt lat="30.608411789" lon="34.806472778">
<ele>877.218750</ele>
<time>2013-11-23T13:52:39Z</time>
<speed>1.060000</speed>
<extensions>
<speed>1.1</speed>
<temp>0.00</temp>
<bpm>0</bpm>
<rpm>0.00</rpm>
</extensions>
</trkpt>
<trkpt lat="30.608417511" lon="34.806461334">
<ele>869.250000</ele>
<time>2013-11-23T13:52:44Z</time>
<speed>1.740000</speed>
<extensions>
<speed>1.7</speed>
<temp>0.00</temp>
<bpm>0</bpm>
<rpm>0.00</rpm>
</extensions>
</trkpt>
<trkpt lat="30.608476639" lon="34.806381226">
<ele>866.718750</ele>
<time>2013-11-23T13:52:49Z</time>
<speed>3.170000</speed>
<extensions>
<speed>3.2</speed>
<temp>0.00</temp>
<bpm>0</bpm>
<rpm>0.00</rpm>
</extensions>
</trkpt>
<trkpt lat="30.608465195" lon="34.806282043">
<ele>866.609375</ele>
<time>2013-11-23T13:52:54Z</time>
<speed>2.060000</speed>
<extensions>
<speed>2.1</speed>
<temp>0.00</temp>
<bpm>0</bpm>
<rpm>0.00</rpm>
</extensions>
</trkpt>
<trkpt lat="30.608482361" lon="34.806167603">
<ele>865.750000</ele>
<time>2013-11-23T13:52:59Z</time>
<speed>3.400000</speed>
<extensions>
<speed>3.4</speed>
<temp>0.00</temp>
<bpm>0</bpm>
<rpm>0.00</rpm>
</extensions>
</trkpt>
<trkpt lat="30.608491898" lon="34.806018829">
<ele>864.562500</ele>
<time>2013-11-23T13:53:04Z</time>
<speed>3.560000</speed>
<extensions>
<speed>3.6</speed>
<temp>0.00</temp>
<bpm>0</bpm>
<rpm>0.00</rpm>
</extensions>
</trkpt>
<trkpt lat="30.608486176" lon="34.805908203">
<ele>863.296875</ele>
<time>2013-11-23T13:53:09Z</time>
<speed>2.410000</speed>
<extensions>
<speed>2.4</speed>
<temp>0.00</temp>
<bpm>0</bpm>
<rpm>0.00</rpm>
</extensions>
</trkpt>
<trkpt lat="30.608587265" lon="34.805892944">
<ele>863.390625</ele>
<time>2013-11-23T13:53:14Z</time>
<speed>2.600000</speed>
<extensions>
<speed>2.6</speed>
<temp>0.00</temp>
<bpm>0</bpm>
<rpm>0.00</rpm>
</extensions>
</trkpt>
<trkpt lat="30.608709335" lon="34.805831909">
<ele>863.078125</ele>
<time>2013-11-23T13:53:19Z</time>
<speed>3.130000</speed>
<extensions>
<speed>3.1</speed>
<temp>0.00</temp>
<bpm>0</bpm>
<rpm>0.00</rpm>
</extensions>
</trkpt>
<trkpt lat="30.608882904" lon="34.805797577">
<ele>862.984375</ele>
<time>2013-11-23T13:53:24Z</time>
<speed>4.230000</speed>
<extensions>
<speed>4.2</speed>
<temp>0.00</temp>
<bpm>0</bpm>
<rpm>0.00</rpm>
</extensions>
</trkpt>
<trkpt lat="30.609046936" lon="34.805908203">
<ele>862.906250</ele>
<time>2013-11-23T13:53:29Z</time>
<speed>3.160000</speed>
<extensions>
<speed>3.2</speed>
<temp>0.00</temp>
<bpm>0</bpm>
<rpm>0.00</rpm>
</extensions>
</trkpt>
<trkpt lat="30.609197617" lon="34.805980682">
<ele>863.765625</ele>
<time>2013-11-23T13:53:34Z</time>
<speed>3.700000</speed>
<extensions>
<speed>3.7</speed>
<temp>0.00</temp>
<bpm>0</bpm>
<rpm>0.00</rpm>
</extensions>
</trkpt>
<trkpt lat="30.609350204" lon="34.806064606">
<ele>864.359375</ele>
<time>2013-11-23T13:53:39Z</time>
<speed>3.770000</speed>
<extensions>
<speed>3.8</speed>
<temp>0.00</temp>
<bpm>0</bpm>
<rpm>0.00</rpm>
</extensions>
</trkpt>
<trkpt lat="30.609561920" lon="34.806026459">
<ele>863.015625</ele>
<time>2013-11-23T13:53:44Z</time>
<speed>5.740000</speed>
<extensions>
<speed>5.7</speed>
<temp>0.00</temp>
<bpm>0</bpm>
<rpm>0.00</rpm>
</extensions>
</trkpt>
<trkpt lat="30.609821320" lon="34.805831909">
<ele>859.546875</ele>
<time>2013-11-23T13:53:49Z</time>
<speed>7.730000</speed>
<extensions>
<speed>7.7</speed>
<temp>0.00</temp>
<bpm>0</bpm>
<rpm>0.00</rpm>
</extensions>
</trkpt>
<trkpt lat="30.610158920" lon="34.805568695">
<ele>856.015625</ele>
<time>2013-11-23T13:53:54Z</time>
<speed>9.510000</speed>
<extensions>
<speed>9.5</speed>
<temp>0.00</temp>
<bpm>0</bpm>
<rpm>0.00</rpm>
</extensions>
</trkpt>
<trkpt lat="30.610496521" lon="34.805271149">
<ele>855.046875</ele>
<time>2013-11-23T13:53:59Z</time>
<speed>8.670000</speed>
<extensions>
<speed>8.7</speed>
<temp>0.00</temp>
<bpm>0</bpm>
<rpm>0.00</rpm>
</extensions>
</trkpt>
<trkpt lat="30.610744476" lon="34.805015564">
<ele>855.937500</ele>
<time>2013-11-23T13:54:04Z</time>
<speed>5.330000</speed>
<extensions>
<speed>5.3</speed>
<temp>0.00</temp>
<bpm>0</bpm>
<rpm>0.00</rpm>
</extensions>
</trkpt>
<trkpt lat="30.610889435" lon="34.804878235">
<ele>856.859375</ele>
<time>2013-11-23T13:54:09Z</time>
<speed>3.170000</speed>
<extensions>
<speed>3.2</speed>
<temp>0.00</temp>
<bpm>0</bpm>
<rpm>0.00</rpm>
</extensions>
</trkpt>
<trkpt lat="30.611024857" lon="34.804889679">
<ele>857.906250</ele>
<time>2013-11-23T13:54:14Z</time>
<speed>3.630000</speed>
<extensions>
<speed>3.6</speed>
<temp>0.00</temp>
<bpm>0</bpm>
<rpm>0.00</rpm>
</extensions>
</trkpt>
<trkpt lat="30.611190796" lon="34.804954529">
<ele>857.703125</ele>
<time>2013-11-23T13:54:19Z</time>
<speed>4.150000</speed>
<extensions>
<speed>4.1</speed>
<temp>0.00</temp>
<bpm>0</bpm>
<rpm>0.00</rpm>
</extensions>
</trkpt>
<trkpt lat="30.611385345" lon="34.804878235">
<ele>858.171875</ele>
<time>2013-11-23T13:54:24Z</time>
<speed>5.080000</speed>
<extensions>
<speed>5.1</speed>
<temp>0.00</temp>
<bpm>0</bpm>
<rpm>0.00</rpm>
</extensions>
</trkpt>
<trkpt lat="30.611562729" lon="34.804752350">
<ele>858.156250</ele>
<time>2013-11-23T13:54:29Z</time>
<speed>4.050000</speed>
<extensions>
<speed>4.0</speed>
<temp>0.00</temp>
<bpm>0</bpm>
<rpm>0.00</rpm>
</extensions>
</trkpt>
<trkpt lat="30.611721039" lon="34.804653168">
<ele>857.875000</ele>
<time>2013-11-23T13:54:34Z</time>
<speed>3.890000</speed>
<extensions>
<speed>3.9</speed>
<temp>0.00</temp>
<bpm>0</bpm>
<rpm>0.00</rpm>
</extensions>
</trkpt>
<trkpt lat="30.611885071" lon="34.804565430">
<ele>857.265625</ele>
<time>2013-11-23T13:54:39Z</time>
<speed>4.520000</speed>
<extensions>
<speed>4.5</speed>
<temp>0.00</temp>
<bpm>0</bpm>
<rpm>0.00</rpm>
</extensions>
</trkpt>
<trkpt lat="30.612096786" lon="34.804477692">
<ele>856.125000</ele>
<time>2013-11-23T13:54:44Z</time>
<speed>5.180000</speed>
<extensions>
<speed>5.2</speed>
<temp>0.00</temp>
<bpm>0</bpm>
<rpm>0.00</rpm>
</extensions>
</trkpt>
<trkpt lat="30.612335205" lon="34.804378510">
<ele>855.156250</ele>
<time>2013-11-23T13:54:49Z</time>
<speed>5.420000</speed>
<extensions>
<speed>5.4</speed>
<temp>0.00</temp>
<bpm>0</bpm>
<rpm>0.00</rpm>
</extensions>
</trkpt>
<trkpt lat="30.612579346" lon="34.804298401">
<ele>853.000000</ele>
<time>2013-11-23T13:54:54Z</time>
<speed>5.810000</speed>
<extensions>
<speed>5.8</speed>
<temp>0.00</temp>
<bpm>0</bpm>
<rpm>0.00</rpm>
</extensions>
</trkpt>
<trkpt lat="30.612852097" lon="34.804401398">
<ele>851.765625</ele>
<time>2013-11-23T13:54:59Z</time>
<speed>6.260000</speed>
<extensions>
<speed>6.3</speed>
<temp>0.00</temp>
<bpm>0</bpm>
<rpm>0.00</rpm>
</extensions>
</trkpt>
<trkpt lat="30.613113403" lon="34.804416656">
<ele>851.046875</ele>
<time>2013-11-23T13:55:04Z</time>
<speed>6.040000</speed>
<extensions>
<speed>6.0</speed>
<temp>0.00</temp>
<bpm>0</bpm>
<rpm>0.00</rpm>
</extensions>
</trkpt>
<trkpt lat="30.613286972" lon="34.804206848">
<ele>850.640625</ele>
<time>2013-11-23T13:55:09Z</time>
<speed>5.580000</speed>
<extensions>
<speed>5.6</speed>
<temp>0.00</temp>
<bpm>0</bpm>
<rpm>0.00</rpm>
</extensions>
</trkpt>
<trkpt lat="30.613286972" lon="34.803936005">
<ele>848.703125</ele>
<time>2013-11-23T13:55:14Z</time>
<speed>4.060000</speed>
<extensions>
<speed>4.1</speed>
<temp>0.00</temp>
<bpm>0</bpm>
<rpm>0.00</rpm>
</extensions>
</trkpt>
<trkpt lat="30.613162994" lon="34.803802490">
<ele>845.421875</ele>
<time>2013-11-23T13:55:19Z</time>
<speed>2.230000</speed>
<extensions>
<speed>2.2</speed>
<temp>0.00</temp>
<bpm>0</bpm>
<rpm>0.00</rpm>
</extensions>
</trkpt>
<trkpt lat="30.613140106" lon="34.803756714">
<ele>844.218750</ele>
<time>2013-11-23T13:55:24Z</time>
<speed>1.240000</speed>
<extensions>
<speed>1.2</speed>
<temp>0.00</temp>
<bpm>0</bpm>
<rpm>0.00</rpm>
</extensions>
</trkpt>
<trkpt lat="30.613222122" lon="34.803813934">
<ele>844.265625</ele>
<time>2013-11-23T13:55:29Z</time>
<speed>2.700000</speed>
<extensions>
<speed>2.7</speed>
<temp>0.00</temp>
<bpm>0</bpm>
<rpm>0.00</rpm>
</extensions>
</trkpt>
<trkpt lat="30.613357544" lon="34.803852081">
<ele>844.687500</ele>
<time>2013-11-23T13:55:34Z</time>
<speed>3.960000</speed>
<extensions>
<speed>4.0</speed>
<temp>0.00</temp>
<bpm>0</bpm>
<rpm>0.00</rpm>
</extensions>
</trkpt>
<trkpt lat="30.613584518" lon="34.803855896">
<ele>844.593750</ele>
<time>2013-11-23T13:55:39Z</time>
<speed>5.200000</speed>
<extensions>
<speed>5.2</speed>
<temp>0.00</temp>
<bpm>0</bpm>
<rpm>0.00</rpm>
</extensions>
</trkpt>
<trkpt lat="30.613813400" lon="34.803787231">
<ele>844.562500</ele>
<time>2013-11-23T13:55:44Z</time>
<speed>4.570000</speed>
<extensions>
<speed>4.6</speed>
<temp>0.00</temp>
<bpm>0</bpm>
<rpm>0.00</rpm>
</extensions>
</trkpt>
<trkpt lat="30.613986969" lon="34.803733826">
<ele>844.625000</ele>
<time>2013-11-23T13:55:49Z</time>
<speed>3.070000</speed>
<extensions>
<speed>3.1</speed>
<temp>0.00</temp>
<bpm>0</bpm>
<rpm>0.00</rpm>
</extensions>
</trkpt>
<trkpt lat="30.614118576" lon="34.803688049">
<ele>846.000000</ele>
<time>2013-11-23T13:55:54Z</time>
<speed>3.320000</speed>
<extensions>
<speed>3.3</speed>
<temp>0.00</temp>
<bpm>0</bpm>
<rpm>0.00</rpm>
</extensions>
</trkpt>
<trkpt lat="30.614276886" lon="34.803653717">
<ele>847.859375</ele>
<time>2013-11-23T13:55:59Z</time>
<speed>3.490000</speed>
<extensions>
<speed>3.5</speed>
<temp>0.00</temp>
<bpm>0</bpm>
<rpm>0.00</rpm>
</extensions>
</trkpt>
<trkpt lat="30.614444733" lon="34.803627014">
<ele>849.187500</ele>
<time>2013-11-23T13:56:04Z</time>
<speed>3.740000</speed>
<extensions>
<speed>3.7</speed>
<temp>0.00</temp>
<bpm>0</bpm>
<rpm>0.00</rpm>
</extensions>
</trkpt>
<trkpt lat="30.614603043" lon="34.803592682">
<ele>850.203125</ele>
<time>2013-11-23T13:56:09Z</time>
<speed>3.120000</speed>
<extensions>
<speed>3.1</speed>
<temp>0.00</temp>
<bpm>0</bpm>
<rpm>0.00</rpm>
</extensions>
</trkpt>
<trkpt lat="30.614757538" lon="34.803581238">
<ele>850.890625</ele>
<time>2013-11-23T13:56:14Z</time>
<speed>3.460000</speed>
<extensions>
<speed>3.5</speed>
<temp>0.00</temp>
<bpm>0</bpm>
<rpm>0.00</rpm>
</extensions>
</trkpt>
<trkpt lat="30.614902496" lon="34.803577423">
<ele>851.531250</ele>
<time>2013-11-23T13:56:19Z</time>
<speed>3.090000</speed>
<extensions>
<speed>3.1</speed>
<temp>0.00</temp>
<bpm>0</bpm>
<rpm>0.00</rpm>
</extensions>
</trkpt>
<trkpt lat="30.615055084" lon="34.803569794">
<ele>852.203125</ele>
<time>2013-11-23T13:56:24Z</time>
<speed>3.320000</speed>
<extensions>
<speed>3.3</speed>
<temp>0.00</temp>
<bpm>0</bpm>
<rpm>0.00</rpm>
</extensions>
</trkpt>
<trkpt lat="30.615180969" lon="34.803562164">
<ele>852.765625</ele>
<time>2013-11-23T13:56:29Z</time>
<speed>2.640000</speed>
<extensions>
<speed>2.6</speed>
<temp>0.00</temp>
<bpm>0</bpm>
<rpm>0.00</rpm>
</extensions>
</trkpt>
<trkpt lat="30.615310669" lon="34.803562164">
<ele>853.187500</ele>
<time>2013-11-23T13:56:34Z</time>
<speed>3.060000</speed>
<extensions>
<speed>3.1</speed>
<temp>0.00</temp>
<bpm>0</bpm>
<rpm>0.00</rpm>
</extensions>
</trkpt>
<trkpt lat="30.615455627" lon="34.803569794">
<ele>854.296875</ele>
<time>2013-11-23T13:56:39Z</time>
<speed>3.370000</speed>
<extensions>
<speed>3.4</speed>
<temp>0.00</temp>
<bpm>0</bpm>
<rpm>0.00</rpm>
</extensions>
</trkpt>
<trkpt lat="30.615625381" lon="34.803573608">
<ele>854.203125</ele>
<time>2013-11-23T13:56:44Z</time>
<speed>3.710000</speed>
<extensions>
<speed>3.7</speed>
<temp>0.00</temp>
<bpm>0</bpm>
<rpm>0.00</rpm>
</extensions>
</trkpt>
<trkpt lat="30.615800858" lon="34.803596497">
<ele>855.281250</ele>
<time>2013-11-23T13:56:49Z</time>
<speed>3.940000</speed>
<extensions>
<speed>3.9</speed>
<temp>0.00</temp>
<bpm>0</bpm>
<rpm>0.00</rpm>
</extensions>
</trkpt>
<trkpt lat="30.615962982" lon="34.803592682">
<ele>855.734375</ele>
<time>2013-11-23T13:56:54Z</time>
<speed>3.230000</speed>
<extensions>
<speed>3.2</speed>
<temp>0.00</temp>
<bpm>0</bpm>
<rpm>0.00</rpm>
</extensions>
</trkpt>
<trkpt lat="30.616107941" lon="34.803607941">
<ele>856.437500</ele>
<time>2013-11-23T13:56:59Z</time>
<speed>2.700000</speed>
<extensions>
<speed>2.7</speed>
<temp>0.00</temp>
<bpm>0</bpm>
<rpm>0.00</rpm>
</extensions>
</trkpt>
<trkpt lat="30.616197586" lon="34.803623199">
<ele>857.218750</ele>
<time>2013-11-23T13:57:04Z</time>
<speed>1.450000</speed>
<extensions>
<speed>1.4</speed>
<temp>0.00</temp>
<bpm>0</bpm>
<rpm>0.00</rpm>
</extensions>
</trkpt>
<trkpt lat="30.616264343" lon="34.803634644">
<ele>857.625000</ele>
<time>2013-11-23T13:57:09Z</time>
<speed>1.380000</speed>
<extensions>
<speed>1.4</speed>
<temp>0.00</temp>
<bpm>0</bpm>
<rpm>0.00</rpm>
</extensions>
</trkpt>
<trkpt lat="30.616323471" lon="34.803634644">
<ele>856.312500</ele>
<time>2013-11-23T13:57:14Z</time>
<speed>1.170000</speed>
<extensions>
<speed>1.2</speed>
<temp>0.00</temp>
<bpm>0</bpm>
<rpm>0.00</rpm>
</extensions>
</trkpt>
<trkpt lat="30.616348267" lon="34.803661346">
<ele>854.500000</ele>
<time>2013-11-23T13:57:19Z</time>
<speed>0.850000</speed>
<extensions>
<speed>0.8</speed>
<temp>0.00</temp>
<bpm>0</bpm>
<rpm>0.00</rpm>
</extensions>
</trkpt>
<trkpt lat="30.616371155" lon="34.803665161">
<ele>854.109375</ele>
<time>2013-11-23T13:57:24Z</time>
<speed>0.310000</speed>
<extensions>
<speed>0.3</speed>
<temp>0.00</temp>
<bpm>0</bpm>
<rpm>0.00</rpm>
</extensions>
</trkpt>
<trkpt lat="30.616374969" lon="34.803665161">
<ele>854.125000</ele>
<time>2013-11-23T13:57:29Z</time>
<speed>0.020000</speed>
<extensions>
<speed>0.0</speed>
<temp>0.00</temp>
<bpm>0</bpm>
<rpm>0.00</rpm>
</extensions>
</trkpt>
<trkpt lat="30.616374969" lon="34.803665161">
<ele>854.125000</ele>
<time>2013-11-23T13:57:34Z</time>
<speed>0.260000</speed>
<extensions>
<speed>0.3</speed>
<temp>0.00</temp>
<bpm>0</bpm>
<rpm>0.00</rpm>
</extensions>
</trkpt>
<trkpt lat="30.616380692" lon="34.803661346">
<ele>854.078125</ele>
<time>2013-11-23T13:57:39Z</time>
<speed>0.020000</speed>
<extensions>
<speed>0.0</speed>
<temp>0.00</temp>
<bpm>0</bpm>
<rpm>0.00</rpm>
</extensions>
</trkpt>
<trkpt lat="30.616380692" lon="34.803661346">
<ele>854.062500</ele>
<time>2013-11-23T13:57:44Z</time>
<extensions>
<speed>0.0</speed>
<temp>0.00</temp>
<bpm>0</bpm>
<rpm>0.00</rpm>
</extensions>
</trkpt>
<trkpt lat="30.616380692" lon="34.803661346">
<ele>854.031250</ele>
<time>2013-11-23T13:57:49Z</time>
<speed>0.010000</speed>
<extensions>
<speed>0.0</speed>
<temp>0.00</temp>
<bpm>0</bpm>
<rpm>0.00</rpm>
</extensions>
</trkpt>
<trkpt lat="30.616380692" lon="34.803661346">
<ele>854.000000</ele>
<time>2013-11-23T13:57:54Z</time>
<speed>0.630000</speed>
<extensions>
<speed>0.6</speed>
<temp>0.00</temp>
<bpm>0</bpm>
<rpm>0.00</rpm>
</extensions>
</trkpt>
<trkpt lat="30.616355896" lon="34.803577423">
<ele>852.812500</ele>
<time>2013-11-23T13:57:59Z</time>
<speed>2.790000</speed>
<extensions>
<speed>2.8</speed>
<temp>0.00</temp>
<bpm>0</bpm>
<rpm>0.00</rpm>
</extensions>
</trkpt>
<trkpt lat="30.616331100" lon="34.803409576">
<ele>851.281250</ele>
<time>2013-11-23T13:58:04Z</time>
<speed>3.440000</speed>
<extensions>
<speed>3.4</speed>
<temp>0.00</temp>
<bpm>0</bpm>
<rpm>0.00</rpm>
</extensions>
</trkpt>
<trkpt lat="30.616329193" lon="34.803230286">
<ele>850.281250</ele>
<time>2013-11-23T13:58:09Z</time>
<speed>3.930000</speed>
<extensions>
<speed>3.9</speed>
<temp>0.00</temp>
<bpm>0</bpm>
<rpm>0.00</rpm>
</extensions>
</trkpt>
<trkpt lat="30.616342545" lon="34.803001404">
<ele>850.046875</ele>
<time>2013-11-23T13:58:14Z</time>
<speed>4.760000</speed>
<extensions>
<speed>4.8</speed>
<temp>0.00</temp>
<bpm>0</bpm>
<rpm>0.00</rpm>
</extensions>
</trkpt>
<trkpt lat="30.616348267" lon="34.802772522">
<ele>848.781250</ele>
<time>2013-11-23T13:58:19Z</time>
<speed>4.090000</speed>
<extensions>
<speed>4.1</speed>
<temp>0.00</temp>
<bpm>0</bpm>
<rpm>0.00</rpm>
</extensions>
</trkpt>
<trkpt lat="30.616361618" lon="34.802551270">
<ele>848.203125</ele>
<time>2013-11-23T13:58:24Z</time>
<speed>3.750000</speed>
<extensions>
<speed>3.8</speed>
<temp>0.00</temp>
<bpm>0</bpm>
<rpm>0.00</rpm>
</extensions>
</trkpt>
<trkpt lat="30.616371155" lon="34.802375793">
<ele>847.687500</ele>
<time>2013-11-23T13:58:29Z</time>
<speed>3.040000</speed>
<extensions>
<speed>3.0</speed>
<temp>0.00</temp>
<bpm>0</bpm>
<rpm>0.00</rpm>
</extensions>
</trkpt>
<trkpt lat="30.616386414" lon="34.802215576">
<ele>847.062500</ele>
<time>2013-11-23T13:58:34Z</time>
<speed>3.500000</speed>
<extensions>
<speed>3.5</speed>
<temp>0.00</temp>
<bpm>0</bpm>
<rpm>0.00</rpm>
</extensions>
</trkpt>
<trkpt lat="30.616422653" lon="34.801986694">
<ele>845.953125</ele>
<time>2013-11-23T13:58:39Z</time>
<speed>5.430000</speed>
<extensions>
<speed>5.4</speed>
<temp>0.00</temp>
<bpm>0</bpm>
<rpm>0.00</rpm>
</extensions>
</trkpt>
<trkpt lat="30.616462708" lon="34.801689148">
<ele>844.687500</ele>
<time>2013-11-23T13:58:44Z</time>
<speed>5.740000</speed>
<extensions>
<speed>5.7</speed>
<temp>0.00</temp>
<bpm>0</bpm>
<rpm>0.00</rpm>
</extensions>
</trkpt>
<trkpt lat="30.616512299" lon="34.801399231">
<ele>844.015625</ele>
<time>2013-11-23T13:58:49Z</time>
<speed>5.690000</speed>
<extensions>
<speed>5.7</speed>
<temp>0.00</temp>
<bpm>0</bpm>
<rpm>0.00</rpm>
</extensions>
</trkpt>
<trkpt lat="30.616571426" lon="34.801109314">
<ele>843.593750</ele>
<time>2013-11-23T13:58:54Z</time>
<speed>5.870000</speed>
<extensions>
<speed>5.9</speed>
<temp>0.00</temp>
<bpm>0</bpm>
<rpm>0.00</rpm>
</extensions>
</trkpt>
<trkpt lat="30.616628647" lon="34.800815582">
<ele>844.000000</ele>
<time>2013-11-23T13:58:59Z</time>
<speed>5.300000</speed>
<extensions>
<speed>5.3</speed>
<temp>0.00</temp>
<bpm>0</bpm>
<rpm>0.00</rpm>
</extensions>
</trkpt>
<trkpt lat="30.616765976" lon="34.800636292">
<ele>843.546875</ele>
<time>2013-11-23T13:59:04Z</time>
<speed>4.830000</speed>
<extensions>
<speed>4.8</speed>
<temp>0.00</temp>
<bpm>0</bpm>
<rpm>0.00</rpm>
</extensions>
</trkpt>
<trkpt lat="30.617000580" lon="34.800724030">
<ele>843.140625</ele>
<time>2013-11-23T13:59:09Z</time>
<speed>5.740000</speed>
<extensions>
<speed>5.7</speed>
<temp>0.00</temp>
<bpm>0</bpm>
<rpm>0.00</rpm>
</extensions>
</trkpt>
<trkpt lat="30.617248535" lon="34.800796509">
<ele>842.890625</ele>
<time>2013-11-23T13:59:14Z</time>
<speed>5.230000</speed>
<extensions>
<speed>5.2</speed>
<temp>0.00</temp>
<bpm>0</bpm>
<rpm>0.00</rpm>
</extensions>
</trkpt>
<trkpt lat="30.617475510" lon="34.800823212">
<ele>843.000000</ele>
<time>2013-11-23T13:59:19Z</time>
<speed>4.840000</speed>
<extensions>
<speed>4.8</speed>
<temp>0.00</temp>
<bpm>0</bpm>
<rpm>0.00</rpm>
</extensions>
</trkpt>
<trkpt lat="30.617685318" lon="34.800819397">
<ele>843.312500</ele>
<time>2013-11-23T13:59:24Z</time>
<speed>4.680000</speed>
<extensions>
<speed>4.7</speed>
<temp>0.00</temp>
<bpm>0</bpm>
<rpm>0.00</rpm>
</extensions>
</trkpt>
<trkpt lat="30.617898941" lon="34.800785065">
<ele>843.468750</ele>
<time>2013-11-23T13:59:29Z</time>
<speed>5.180000</speed>
<extensions>
<speed>5.2</speed>
<temp>0.00</temp>
<bpm>0</bpm>
<rpm>0.00</rpm>
</extensions>
</trkpt>
<trkpt lat="30.618116379" lon="34.800716400">
<ele>843.328125</ele>
<time>2013-11-23T13:59:34Z</time>
<speed>4.930000</speed>
<extensions>
<speed>4.9</speed>
<temp>0.00</temp>
<bpm>0</bpm>
<rpm>0.00</rpm>
</extensions>
</trkpt>
<trkpt lat="30.618314743" lon="34.800640106">
<ele>843.140625</ele>
<time>2013-11-23T13:59:39Z</time>
<speed>4.740000</speed>
<extensions>
<speed>4.7</speed>
<temp>0.00</temp>
<bpm>0</bpm>
<rpm>0.00</rpm>
</extensions>
</trkpt>
<trkpt lat="30.618511200" lon="34.800575256">
<ele>843.234375</ele>
<time>2013-11-23T13:59:44Z</time>
<speed>4.310000</speed>
<extensions>
<speed>4.3</speed>
<temp>0.00</temp>
<bpm>0</bpm>
<rpm>0.00</rpm>
</extensions>
</trkpt>
<trkpt lat="30.618555069" lon="34.800781250">
<ele>843.750000</ele>
<time>2013-11-23T13:59:49Z</time>
<speed>4.770000</speed>
<extensions>
<speed>4.8</speed>
<temp>0.00</temp>
<bpm>0</bpm>
<rpm>0.00</rpm>
</extensions>
</trkpt>
<trkpt lat="30.618566513" lon="34.801036835">
<ele>844.484375</ele>
<time>2013-11-23T13:59:54Z</time>
<speed>5.030000</speed>
<extensions>
<speed>5.0</speed>
<temp>0.00</temp>
<bpm>0</bpm>
<rpm>0.00</rpm>
</extensions>
</trkpt>
<trkpt lat="30.618562698" lon="34.801239014">
<ele>844.781250</ele>
<time>2013-11-23T13:59:59Z</time>
<speed>2.560000</speed>
<extensions>
<speed>2.6</speed>
<temp>0.00</temp>
<bpm>0</bpm>
<rpm>0.00</rpm>
</extensions>
</trkpt>
<trkpt lat="30.618541718" lon="34.801342010">
<ele>844.953125</ele>
<time>2013-11-23T14:00:04Z</time>
<speed>1.620000</speed>
<extensions>
<speed>1.6</speed>
<temp>0.00</temp>
<bpm>0</bpm>
<rpm>0.00</rpm>
</extensions>
</trkpt>
<trkpt lat="30.618572235" lon="34.801414490">
<ele>844.875000</ele>
<time>2013-11-23T14:00:09Z</time>
<speed>2.410000</speed>
<extensions>
<speed>2.4</speed>
<temp>0.00</temp>
<bpm>0</bpm>
<rpm>0.00</rpm>
</extensions>
</trkpt>
<trkpt lat="30.618600845" lon="34.801555634">
<ele>845.468750</ele>
<time>2013-11-23T14:00:14Z</time>
<speed>3.000000</speed>
<extensions>
<speed>3.0</speed>
<temp>0.00</temp>
<bpm>0</bpm>
<rpm>0.00</rpm>
</extensions>
</trkpt>
<trkpt lat="30.618612289" lon="34.801658630">
<ele>846.500000</ele>
<time>2013-11-23T14:00:19Z</time>
<speed>1.350000</speed>
<extensions>
<speed>1.4</speed>
<temp>0.00</temp>
<bpm>0</bpm>
<rpm>0.00</rpm>
</extensions>
</trkpt>
<trkpt lat="30.618621826" lon="34.801685333">
<ele>845.359375</ele>
<time>2013-11-23T14:00:24Z</time>
<speed>0.860000</speed>
<extensions>
<speed>0.9</speed>
<temp>0.00</temp>
<bpm>0</bpm>
<rpm>0.00</rpm>
</extensions>
</trkpt>
<trkpt lat="30.618631363" lon="34.801670074">
<ele>847.578125</ele>
<time>2013-11-23T14:00:29Z</time>
<speed>0.310000</speed>
<extensions>
<speed>0.3</speed>
<temp>0.00</temp>
<bpm>0</bpm>
<rpm>0.00</rpm>
</extensions>
</trkpt>
<trkpt lat="30.618619919" lon="34.801662445">
<ele>848.625000</ele>
<time>2013-11-23T14:00:34Z</time>
<speed>0.260000</speed>
<extensions>
<speed>0.3</speed>
<temp>0.00</temp>
<bpm>0</bpm>
<rpm>0.00</rpm>
</extensions>
</trkpt>
<trkpt lat="30.618635178" lon="34.801666260">
<ele>848.984375</ele>
<time>2013-11-23T14:00:39Z</time>
<speed>0.330000</speed>
<extensions>
<speed>0.3</speed>
<temp>0.00</temp>
<bpm>0</bpm>
<rpm>0.00</rpm>
</extensions>
</trkpt>
<trkpt lat="30.618640900" lon="34.801715851">
<ele>848.578125</ele>
<time>2013-11-23T14:00:44Z</time>
<speed>0.010000</speed>
<extensions>
<speed>0.0</speed>
<temp>0.00</temp>
<bpm>0</bpm>
<rpm>0.00</rpm>
</extensions>
</trkpt>
<trkpt lat="30.618644714" lon="34.801719666">
<ele>848.265625</ele>
<time>2013-11-23T14:00:49Z</time>
<extensions>
<speed>0.0</speed>
<temp>0.00</temp>
<bpm>0</bpm>
<rpm>0.00</rpm>
</extensions>
</trkpt>
<trkpt lat="30.618644714" lon="34.801719666">
<ele>848.390625</ele>
<time>2013-11-23T14:00:54Z</time>
<extensions>
<speed>0.0</speed>
<temp>0.00</temp>
<bpm>0</bpm>
<rpm>0.00</rpm>
</extensions>
</trkpt>
<trkpt lat="30.618644714" lon="34.801719666">
<ele>848.437500</ele>
<time>2013-11-23T14:00:59Z</time>
<extensions>
<speed>0.0</speed>
<temp>0.00</temp>
<bpm>0</bpm>
<rpm>0.00</rpm>
</extensions>
</trkpt>
<trkpt lat="30.618644714" lon="34.801719666">
<ele>848.453125</ele>
<time>2013-11-23T14:01:04Z</time>
<extensions>
<speed>0.0</speed>
<temp>0.00</temp>
<bpm>0</bpm>
<rpm>0.00</rpm>
</extensions>
</trkpt>
<trkpt lat="30.618646622" lon="34.801719666">
<ele>848.453125</ele>
<time>2013-11-23T14:01:09Z</time>
<extensions>
<speed>0.0</speed>
<temp>0.00</temp>
<bpm>0</bpm>
<rpm>0.00</rpm>
</extensions>
</trkpt>
<trkpt lat="30.618646622" lon="34.801719666">
<ele>848.453125</ele>
<time>2013-11-23T14:01:14Z</time>
<extensions>
<speed>0.0</speed>
<temp>0.00</temp>
<bpm>0</bpm>
<rpm>0.00</rpm>
</extensions>
</trkpt>
<trkpt lat="30.618646622" lon="34.801719666">
<ele>848.468750</ele>
<time>2013-11-23T14:01:19Z</time>
<speed>0.010000</speed>
<extensions>
<speed>0.0</speed>
<temp>0.00</temp>
<bpm>0</bpm>
<rpm>0.00</rpm>
</extensions>
</trkpt>
<trkpt lat="30.618646622" lon="34.801719666">
<ele>848.484375</ele>
<time>2013-11-23T14:01:24Z</time>
<extensions>
<speed>0.0</speed>
<temp>0.00</temp>
<bpm>0</bpm>
<rpm>0.00</rpm>
</extensions>
</trkpt>
<trkpt lat="30.618646622" lon="34.801719666">
<ele>848.484375</ele>
<time>2013-11-23T14:01:29Z</time>
<speed>0.010000</speed>
<extensions>
<speed>0.0</speed>
<temp>0.00</temp>
<bpm>0</bpm>
<rpm>0.00</rpm>
</extensions>
</trkpt>
<trkpt lat="30.618646622" lon="34.801719666">
<ele>848.484375</ele>
<time>2013-11-23T14:01:34Z</time>
<extensions>
<speed>0.0</speed>
<temp>0.00</temp>
<bpm>0</bpm>
<rpm>0.00</rpm>
</extensions>
</trkpt>
<trkpt lat="30.618646622" lon="34.801719666">
<ele>848.500000</ele>
<time>2013-11-23T14:01:39Z</time>
<extensions>
<speed>0.0</speed>
<temp>0.00</temp>
<bpm>0</bpm>
<rpm>0.00</rpm>
</extensions>
</trkpt>
<trkpt lat="30.618646622" lon="34.801723480">
<ele>848.515625</ele>
<time>2013-11-23T14:01:44Z</time>
<extensions>
<speed>0.0</speed>
<temp>0.00</temp>
<bpm>0</bpm>
<rpm>0.00</rpm>
</extensions>
</trkpt>
<trkpt lat="30.618646622" lon="34.801723480">
<ele>848.546875</ele>
<time>2013-11-23T14:01:49Z</time>
<extensions>
<speed>0.0</speed>
<temp>0.00</temp>
<bpm>0</bpm>
<rpm>0.00</rpm>
</extensions>
</trkpt>
<trkpt lat="30.618646622" lon="34.801723480">
<ele>848.562500</ele>
<time>2013-11-23T14:01:54Z</time>
<extensions>
<speed>0.0</speed>
<temp>0.00</temp>
<bpm>0</bpm>
<rpm>0.00</rpm>
</extensions>
</trkpt>
<trkpt lat="30.618646622" lon="34.801723480">
<ele>848.578125</ele>
<time>2013-11-23T14:01:59Z</time>
<extensions>
<speed>0.0</speed>
<temp>0.00</temp>
<bpm>0</bpm>
<rpm>0.00</rpm>
</extensions>
</trkpt>
<trkpt lat="30.618646622" lon="34.801723480">
<ele>848.578125</ele>
<time>2013-11-23T14:02:04Z</time>
<speed>0.010000</speed>
<extensions>
<speed>0.0</speed>
<temp>0.00</temp>
<bpm>0</bpm>
<rpm>0.00</rpm>
</extensions>
</trkpt>
<trkpt lat="30.618646622" lon="34.801723480">
<ele>848.578125</ele>
<time>2013-11-23T14:02:09Z</time>
<speed>0.010000</speed>
<extensions>
<speed>0.0</speed>
<temp>0.00</temp>
<bpm>0</bpm>
<rpm>0.00</rpm>
</extensions>
</trkpt>
<trkpt lat="30.618646622" lon="34.801723480">
<ele>848.562500</ele>
<time>2013-11-23T14:02:14Z</time>
<extensions>
<speed>0.0</speed>
<temp>0.00</temp>
<bpm>0</bpm>
<rpm>0.00</rpm>
</extensions>
</trkpt>
<trkpt lat="30.618646622" lon="34.801723480">
<ele>848.593750</ele>
<time>2013-11-23T14:02:19Z</time>
<extensions>
<speed>0.0</speed>
<temp>0.00</temp>
<bpm>0</bpm>
<rpm>0.00</rpm>
</extensions>
</trkpt>
<trkpt lat="30.618646622" lon="34.801723480">
<ele>848.578125</ele>
<time>2013-11-23T14:02:24Z</time>
<extensions>
<speed>0.0</speed>
<temp>0.00</temp>
<bpm>0</bpm>
<rpm>0.00</rpm>
</extensions>
</trkpt>
<trkpt lat="30.618646622" lon="34.801723480">
<ele>848.593750</ele>
<time>2013-11-23T14:02:29Z</time>
<extensions>
<speed>0.0</speed>
<temp>0.00</temp>
<bpm>0</bpm>
<rpm>0.00</rpm>
</extensions>
</trkpt>
<trkpt lat="30.618646622" lon="34.801723480">
<ele>848.562500</ele>
<time>2013-11-23T14:02:34Z</time>
<speed>0.010000</speed>
<extensions>
<speed>0.0</speed>
<temp>0.00</temp>
<bpm>0</bpm>
<rpm>0.00</rpm>
</extensions>
</trkpt>
<trkpt lat="30.618646622" lon="34.801723480">
<ele>848.546875</ele>
<time>2013-11-23T14:02:39Z</time>
<extensions>
<speed>0.0</speed>
<temp>0.00</temp>
<bpm>0</bpm>
<rpm>0.00</rpm>
</extensions>
</trkpt>
<trkpt lat="30.618646622" lon="34.801723480">
<ele>848.562500</ele>
<time>2013-11-23T14:02:44Z</time>
<extensions>
<speed>0.0</speed>
<temp>0.00</temp>
<bpm>0</bpm>
<rpm>0.00</rpm>
</extensions>
</trkpt>
<trkpt lat="30.618646622" lon="34.801723480">
<ele>848.578125</ele>
<time>2013-11-23T14:02:49Z</time>
<speed>0.020000</speed>
<extensions>
<speed>0.0</speed>
<temp>0.00</temp>
<bpm>0</bpm>
<rpm>0.00</rpm>
</extensions>
</trkpt>
<trkpt lat="30.618646622" lon="34.801723480">
<ele>848.546875</ele>
<time>2013-11-23T14:02:54Z</time>
<speed>0.090000</speed>
<extensions>
<speed>0.1</speed>
<temp>0.00</temp>
<bpm>0</bpm>
<rpm>0.00</rpm>
</extensions>
</trkpt>
<trkpt lat="30.618638992" lon="34.801727295">
<ele>849.062500</ele>
<time>2013-11-23T14:02:59Z</time>
<speed>0.530000</speed>
<extensions>
<speed>0.5</speed>
<temp>0.00</temp>
<bpm>0</bpm>
<rpm>0.00</rpm>
</extensions>
</trkpt>
<trkpt lat="30.618650436" lon="34.801715851">
<ele>848.937500</ele>
<time>2013-11-23T14:03:04Z</time>
<speed>0.020000</speed>
<extensions>
<speed>0.0</speed>
<temp>0.00</temp>
<bpm>0</bpm>
<rpm>0.00</rpm>
</extensions>
</trkpt>
<trkpt lat="30.618654251" lon="34.801715851">
<ele>848.531250</ele>
<time>2013-11-23T14:03:09Z</time>
<speed>0.060000</speed>
<extensions>
<speed>0.1</speed>
<temp>0.00</temp>
<bpm>0</bpm>
<rpm>0.00</rpm>
</extensions>
</trkpt>
<trkpt lat="30.618658066" lon="34.801719666">
<ele>848.187500</ele>
<time>2013-11-23T14:03:14Z</time>
<speed>0.010000</speed>
<extensions>
<speed>0.0</speed>
<temp>0.00</temp>
<bpm>0</bpm>
<rpm>0.00</rpm>
</extensions>
</trkpt>
<trkpt lat="30.618659973" lon="34.801719666">
<ele>848.093750</ele>
<time>2013-11-23T14:03:19Z</time>
<speed>0.030000</speed>
<extensions>
<speed>0.0</speed>
<temp>0.00</temp>
<bpm>0</bpm>
<rpm>0.00</rpm>
</extensions>
</trkpt>
<trkpt lat="30.618659973" lon="34.801719666">
<ele>848.078125</ele>
<time>2013-11-23T14:03:24Z</time>
<extensions>
<speed>0.0</speed>
<temp>0.00</temp>
<bpm>0</bpm>
<rpm>0.00</rpm>
</extensions>
</trkpt>
<trkpt lat="30.618659973" lon="34.801719666">
<ele>848.078125</ele>
<time>2013-11-23T14:03:29Z</time>
<speed>0.010000</speed>
<extensions>
<speed>0.0</speed>
<temp>0.00</temp>
<bpm>0</bpm>
<rpm>0.00</rpm>
</extensions>
</trkpt>
<trkpt lat="30.618659973" lon="34.801719666">
<ele>848.062500</ele>
<time>2013-11-23T14:03:34Z</time>
<speed>0.020000</speed>
<extensions>
<speed>0.0</speed>
<temp>0.00</temp>
<bpm>0</bpm>
<rpm>0.00</rpm>
</extensions>
</trkpt>
<trkpt lat="30.618659973" lon="34.801719666">
<ele>848.046875</ele>
<time>2013-11-23T14:03:39Z</time>
<extensions>
<speed>0.0</speed>
<temp>0.00</temp>
<bpm>0</bpm>
<rpm>0.00</rpm>
</extensions>
</trkpt>
<trkpt lat="30.618659973" lon="34.801719666">
<ele>848.046875</ele>
<time>2013-11-23T14:03:44Z</time>
<extensions>
<speed>0.0</speed>
<temp>0.00</temp>
<bpm>0</bpm>
<rpm>0.00</rpm>
</extensions>
</trkpt>
<trkpt lat="30.618659973" lon="34.801719666">
<ele>848.046875</ele>
<time>2013-11-23T14:03:49Z</time>
<extensions>
<speed>0.0</speed>
<temp>0.00</temp>
<bpm>0</bpm>
<rpm>0.00</rpm>
</extensions>
</trkpt>
<trkpt lat="30.618661880" lon="34.801719666">
<ele>848.031250</ele>
<time>2013-11-23T14:03:54Z</time>
<extensions>
<speed>0.0</speed>
<temp>0.00</temp>
<bpm>0</bpm>
<rpm>0.00</rpm>
</extensions>
</trkpt>
<trkpt lat="30.618661880" lon="34.801719666">
<ele>848.031250</ele>
<time>2013-11-23T14:03:59Z</time>
<extensions>
<speed>0.0</speed>
<temp>0.00</temp>
<bpm>0</bpm>
<rpm>0.00</rpm>
</extensions>
</trkpt>
<trkpt lat="30.618661880" lon="34.801719666">
<ele>848.031250</ele>
<time>2013-11-23T14:04:04Z</time>
<speed>0.010000</speed>
<extensions>
<speed>0.0</speed>
<temp>0.00</temp>
<bpm>0</bpm>
<rpm>0.00</rpm>
</extensions>
</trkpt>
<trkpt lat="30.618661880" lon="34.801719666">
<ele>848.031250</ele>
<time>2013-11-23T14:04:09Z</time>
<speed>0.010000</speed>
<extensions>
<speed>0.0</speed>
<temp>0.00</temp>
<bpm>0</bpm>
<rpm>0.00</rpm>
</extensions>
</trkpt>
<trkpt lat="30.618661880" lon="34.801719666">
<ele>848.031250</ele>
<time>2013-11-23T14:04:14Z</time>
<extensions>
<speed>0.0</speed>
<temp>0.00</temp>
<bpm>0</bpm>
<rpm>0.00</rpm>
</extensions>
</trkpt>
<trkpt lat="30.618661880" lon="34.801719666">
<ele>848.031250</ele>
<time>2013-11-23T14:04:19Z</time>
<extensions>
<speed>0.0</speed>
<temp>0.00</temp>
<bpm>0</bpm>
<rpm>0.00</rpm>
</extensions>
</trkpt>
<trkpt lat="30.618661880" lon="34.801719666">
<ele>848.031250</ele>
<time>2013-11-23T14:04:24Z</time>
<extensions>
<speed>0.0</speed>
<temp>0.00</temp>
<bpm>0</bpm>
<rpm>0.00</rpm>
</extensions>
</trkpt>
<trkpt lat="30.618661880" lon="34.801719666">
<ele>848.015625</ele>
<time>2013-11-23T14:04:29Z</time>
<extensions>
<speed>0.0</speed>
<temp>0.00</temp>
<bpm>0</bpm>
<rpm>0.00</rpm>
</extensions>
</trkpt>
<trkpt lat="30.618661880" lon="34.801719666">
<ele>848.000000</ele>
<time>2013-11-23T14:04:34Z</time>
<speed>0.010000</speed>
<extensions>
<speed>0.0</speed>
<temp>0.00</temp>
<bpm>0</bpm>
<rpm>0.00</rpm>
</extensions>
</trkpt>
<trkpt lat="30.618661880" lon="34.801723480">
<ele>847.984375</ele>
<time>2013-11-23T14:04:39Z</time>
<extensions>
<speed>0.0</speed>
<temp>0.00</temp>
<bpm>0</bpm>
<rpm>0.00</rpm>
</extensions>
</trkpt>
<trkpt lat="30.618661880" lon="34.801719666">
<ele>847.968750</ele>
<time>2013-11-23T14:04:44Z</time>
<extensions>
<speed>0.0</speed>
<temp>0.00</temp>
<bpm>0</bpm>
<rpm>0.00</rpm>
</extensions>
</trkpt>
<trkpt lat="30.618661880" lon="34.801719666">
<ele>847.953125</ele>
<time>2013-11-23T14:04:49Z</time>
<speed>0.010000</speed>
<extensions>
<speed>0.0</speed>
<temp>0.00</temp>
<bpm>0</bpm>
<rpm>0.00</rpm>
</extensions>
</trkpt>
<trkpt lat="30.618661880" lon="34.801719666">
<ele>847.937500</ele>
<time>2013-11-23T14:04:54Z</time>
<extensions>
<speed>0.0</speed>
<temp>0.00</temp>
<bpm>0</bpm>
<rpm>0.00</rpm>
</extensions>
</trkpt>
<trkpt lat="30.618661880" lon="34.801719666">
<ele>847.921875</ele>
<time>2013-11-23T14:04:59Z</time>
<speed>0.010000</speed>
<extensions>
<speed>0.0</speed>
<temp>0.00</temp>
<bpm>0</bpm>
<rpm>0.00</rpm>
</extensions>
</trkpt>
<trkpt lat="30.618661880" lon="34.801719666">
<ele>847.921875</ele>
<time>2013-11-23T14:05:04Z</time>
<extensions>
<speed>0.0</speed>
<temp>0.00</temp>
<bpm>0</bpm>
<rpm>0.00</rpm>
</extensions>
</trkpt>
<trkpt lat="30.618661880" lon="34.801719666">
<ele>847.906250</ele>
<time>2013-11-23T14:05:09Z</time>
<speed>0.010000</speed>
<extensions>
<speed>0.0</speed>
<temp>0.00</temp>
<bpm>0</bpm>
<rpm>0.00</rpm>
</extensions>
</trkpt>
<trkpt lat="30.618661880" lon="34.801719666">
<ele>847.921875</ele>
<time>2013-11-23T14:05:14Z</time>
<speed>0.010000</speed>
<extensions>
<speed>0.0</speed>
<temp>0.00</temp>
<bpm>0</bpm>
<rpm>0.00</rpm>
</extensions>
</trkpt>
<trkpt lat="30.618663788" lon="34.801719666">
<ele>847.937500</ele>
<time>2013-11-23T14:05:19Z</time>
<speed>0.010000</speed>
<extensions>
<speed>0.0</speed>
<temp>0.00</temp>
<bpm>0</bpm>
<rpm>0.00</rpm>
</extensions>
</trkpt>
<trkpt lat="30.618663788" lon="34.801719666">
<ele>847.921875</ele>
<time>2013-11-23T14:05:24Z</time>
<speed>0.010000</speed>
<extensions>
<speed>0.0</speed>
<temp>0.00</temp>
<bpm>0</bpm>
<rpm>0.00</rpm>
</extensions>
</trkpt>
<trkpt lat="30.618663788" lon="34.801719666">
<ele>847.921875</ele>
<time>2013-11-23T14:05:29Z</time>
<extensions>
<speed>0.0</speed>
<temp>0.00</temp>
<bpm>0</bpm>
<rpm>0.00</rpm>
</extensions>
</trkpt>
<trkpt lat="30.618663788" lon="34.801723480">
<ele>847.921875</ele>
<time>2013-11-23T14:05:34Z</time>
<speed>0.010000</speed>
<extensions>
<speed>0.0</speed>
<temp>0.00</temp>
<bpm>0</bpm>
<rpm>0.00</rpm>
</extensions>
</trkpt>
<trkpt lat="30.618663788" lon="34.801723480">
<ele>847.906250</ele>
<time>2013-11-23T14:05:39Z</time>
<extensions>
<speed>0.0</speed>
<temp>0.00</temp>
<bpm>0</bpm>
<rpm>0.00</rpm>
</extensions>
</trkpt>
<trkpt lat="30.618665695" lon="34.801723480">
<ele>847.890625</ele>
<time>2013-11-23T14:05:44Z</time>
<speed>0.020000</speed>
<extensions>
<speed>0.0</speed>
<temp>0.00</temp>
<bpm>0</bpm>
<rpm>0.00</rpm>
</extensions>
</trkpt>
<trkpt lat="30.618665695" lon="34.801723480">
<ele>847.859375</ele>
<time>2013-11-23T14:05:49Z</time>
<speed>0.010000</speed>
<extensions>
<speed>0.0</speed>
<temp>0.00</temp>
<bpm>0</bpm>
<rpm>0.00</rpm>
</extensions>
</trkpt>
<trkpt lat="30.618665695" lon="34.801723480">
<ele>847.843750</ele>
<time>2013-11-23T14:05:54Z</time>
<extensions>
<speed>0.0</speed>
<temp>0.00</temp>
<bpm>0</bpm>
<rpm>0.00</rpm>
</extensions>
</trkpt>
<trkpt lat="30.618665695" lon="34.801723480">
<ele>847.843750</ele>
<time>2013-11-23T14:05:59Z</time>
<extensions>
<speed>0.0</speed>
<temp>0.00</temp>
<bpm>0</bpm>
<rpm>0.00</rpm>
</extensions>
</trkpt>
<trkpt lat="30.618665695" lon="34.801723480">
<ele>847.812500</ele>
<time>2013-11-23T14:06:04Z</time>
<speed>0.010000</speed>
<extensions>
<speed>0.0</speed>
<temp>0.00</temp>
<bpm>0</bpm>
<rpm>0.00</rpm>
</extensions>
</trkpt>
<trkpt lat="30.618665695" lon="34.801723480">
<ele>847.796875</ele>
<time>2013-11-23T14:06:09Z</time>
<extensions>
<speed>0.0</speed>
<temp>0.00</temp>
<bpm>0</bpm>
<rpm>0.00</rpm>
</extensions>
</trkpt>
<trkpt lat="30.618665695" lon="34.801723480">
<ele>847.781250</ele>
<time>2013-11-23T14:06:14Z</time>
<speed>0.010000</speed>
<extensions>
<speed>0.0</speed>
<temp>0.00</temp>
<bpm>0</bpm>
<rpm>0.00</rpm>
</extensions>
</trkpt>
<trkpt lat="30.618665695" lon="34.801723480">
<ele>847.765625</ele>
<time>2013-11-23T14:06:19Z</time>
<speed>0.050000</speed>
<extensions>
<speed>0.1</speed>
<temp>0.00</temp>
<bpm>0</bpm>
<rpm>0.00</rpm>
</extensions>
</trkpt>
<trkpt lat="30.618667603" lon="34.801723480">
<ele>847.750000</ele>
<time>2013-11-23T14:06:24Z</time>
<speed>0.010000</speed>
<extensions>
<speed>0.0</speed>
<temp>0.00</temp>
<bpm>0</bpm>
<rpm>0.00</rpm>
</extensions>
</trkpt>
<trkpt lat="30.618665695" lon="34.801731110">
<ele>847.796875</ele>
<time>2013-11-23T14:06:29Z</time>
<speed>0.340000</speed>
<extensions>
<speed>0.3</speed>
<temp>0.00</temp>
<bpm>0</bpm>
<rpm>0.00</rpm>
</extensions>
</trkpt>
<trkpt lat="30.618652344" lon="34.801734924">
<ele>848.015625</ele>
<time>2013-11-23T14:06:34Z</time>
<speed>0.230000</speed>
<extensions>
<speed>0.2</speed>
<temp>0.00</temp>
<bpm>0</bpm>
<rpm>0.00</rpm>
</extensions>
</trkpt>
<trkpt lat="30.618638992" lon="34.801738739">
<ele>848.000000</ele>
<time>2013-11-23T14:06:39Z</time>
<speed>0.170000</speed>
<extensions>
<speed>0.2</speed>
<temp>0.00</temp>
<bpm>0</bpm>
<rpm>0.00</rpm>
</extensions>
</trkpt>
<trkpt lat="30.618637085" lon="34.801742554">
<ele>847.703125</ele>
<time>2013-11-23T14:06:44Z</time>
<speed>0.060000</speed>
<extensions>
<speed>0.1</speed>
<temp>0.00</temp>
<bpm>0</bpm>
<rpm>0.00</rpm>
</extensions>
</trkpt>
<trkpt lat="30.618638992" lon="34.801742554">
<ele>847.312500</ele>
<time>2013-11-23T14:06:49Z</time>
<speed>0.040000</speed>
<extensions>
<speed>0.0</speed>
<temp>0.00</temp>
<bpm>0</bpm>
<rpm>0.00</rpm>
</extensions>
</trkpt>
<trkpt lat="30.618635178" lon="34.801742554">
<ele>846.828125</ele>
<time>2013-11-23T14:06:54Z</time>
<speed>0.050000</speed>
<extensions>
<speed>0.1</speed>
<temp>0.00</temp>
<bpm>0</bpm>
<rpm>0.00</rpm>
</extensions>
</trkpt>
<trkpt lat="30.618635178" lon="34.801738739">
<ele>846.390625</ele>
<time>2013-11-23T14:06:59Z</time>
<speed>0.060000</speed>
<extensions>
<speed>0.1</speed>
<temp>0.00</temp>
<bpm>0</bpm>
<rpm>0.00</rpm>
</extensions>
</trkpt>
<trkpt lat="30.618635178" lon="34.801738739">
<ele>846.312500</ele>
<time>2013-11-23T14:07:04Z</time>
<extensions>
<speed>0.0</speed>
<temp>0.00</temp>
<bpm>0</bpm>
<rpm>0.00</rpm>
</extensions>
</trkpt>
<trkpt lat="30.618635178" lon="34.801738739">
<ele>846.312500</ele>
<time>2013-11-23T14:07:09Z</time>
<extensions>
<speed>0.0</speed>
<temp>0.00</temp>
<bpm>0</bpm>
<rpm>0.00</rpm>
</extensions>
</trkpt>
<trkpt lat="30.618635178" lon="34.801738739">
<ele>846.312500</ele>
<time>2013-11-23T14:07:14Z</time>
<speed>0.020000</speed>
<extensions>
<speed>0.0</speed>
<temp>0.00</temp>
<bpm>0</bpm>
<rpm>0.00</rpm>
</extensions>
</trkpt>
<trkpt lat="30.618635178" lon="34.801738739">
<ele>846.343750</ele>
<time>2013-11-23T14:07:19Z</time>
<speed>0.010000</speed>
<extensions>
<speed>0.0</speed>
<temp>0.00</temp>
<bpm>0</bpm>
<rpm>0.00</rpm>
</extensions>
</trkpt>
<trkpt lat="30.618635178" lon="34.801738739">
<ele>846.375000</ele>
<time>2013-11-23T14:07:24Z</time>
<speed>0.020000</speed>
<extensions>
<speed>0.0</speed>
<temp>0.00</temp>
<bpm>0</bpm>
<rpm>0.00</rpm>
</extensions>
</trkpt>
<trkpt lat="30.618637085" lon="34.801738739">
<ele>846.406250</ele>
<time>2013-11-23T14:07:29Z</time>
<extensions>
<speed>0.0</speed>
<temp>0.00</temp>
<bpm>0</bpm>
<rpm>0.00</rpm>
</extensions>
</trkpt>
<trkpt lat="30.618637085" lon="34.801734924">
<ele>846.437500</ele>
<time>2013-11-23T14:07:34Z</time>
<speed>0.040000</speed>
<extensions>
<speed>0.0</speed>
<temp>0.00</temp>
<bpm>0</bpm>
<rpm>0.00</rpm>
</extensions>
</trkpt>
<trkpt lat="30.618637085" lon="34.801738739">
<ele>846.421875</ele>
<time>2013-11-23T14:07:39Z</time>
<extensions>
<speed>0.0</speed>
<temp>0.00</temp>
<bpm>0</bpm>
<rpm>0.00</rpm>
</extensions>
</trkpt>
</trkseg>
</trk>
</gpx>